<?xml version='1.0' encoding='UTF-8'?><gpx version="1.1" creator="JPX - https://github.com/jenetics/jpx" xmlns="http://www.topografix.com/GPX/1/1"><trk><trkseg><trkpt lat="45.851863253620905" lon="9.38724817358834"><ele>204.57142857142858</ele><time>2026-04-07T07:20:53.999Z</time></trkpt><trkpt lat="45.85178275266178" lon="9.38730041926245"><ele>204.14285714285714</ele><time>2026-04-07T07:21:05.999Z</time></trkpt><trkpt lat="45.85175888082788" lon="9.387392012054796"><ele>203.71428571428572</ele><time>2026-04-07T07:21:19.999Z</time></trkpt><trkpt lat="45.851746609764916" lon="9.38748675062921"><ele>203.28571428571428</ele><time>2026-04-07T07:22:06Z</time></trkpt><trkpt lat="45.8517215654401" lon="9.387582680085735"><ele>202.85714285714283</ele><time>2026-04-07T07:22:09Z</time></trkpt><trkpt lat="45.85168020006822" lon="9.387651798863832"><ele>202.42857142857142</ele><time>2026-04-07T07:22:12Z</time></trkpt><trkpt lat="45.85160412299406" lon="9.38763702881498"><ele>202.0</ele><time>2026-04-07T07:22:14Z</time></trkpt><trkpt lat="45.851516555261306" lon="9.387602169309732"><ele>201.99999999999997</ele><time>2026-04-07T07:22:16Z</time></trkpt><trkpt lat="45.85145145457094" lon="9.387585741221788"><ele>202.0</ele><time>2026-04-07T07:22:19Z</time></trkpt><trkpt lat="45.85145297274064" lon="9.387728218288956"><ele>202.0</ele><time>2026-04-07T07:22:21Z</time></trkpt><trkpt lat="45.851464129497614" lon="9.387846264531973"><ele>202.0</ele><time>2026-04-07T07:22:23Z</time></trkpt><trkpt lat="45.851461449323224" lon="9.387937580010458"><ele>201.99999999999997</ele><time>2026-04-07T07:22:25Z</time></trkpt><trkpt lat="45.85145476799617" lon="9.388051872070449"><ele>202.0</ele><time>2026-04-07T07:22:27Z</time></trkpt><trkpt lat="45.85144414744829" lon="9.388161316852274"><ele>202.66666666666666</ele><time>2026-04-07T07:22:29Z</time></trkpt><trkpt lat="45.85143552563933" lon="9.388269204035742"><ele>203.33333333333331</ele><time>2026-04-07T07:22:31Z</time></trkpt><trkpt lat="45.85142557785133" lon="9.388374124215382"><ele>204.0</ele><time>2026-04-07T07:22:34Z</time></trkpt><trkpt lat="45.85140859275199" lon="9.388463277353303"><ele>204.66666666666669</ele><time>2026-04-07T07:22:39Z</time></trkpt><trkpt lat="45.85148432893432" lon="9.388523414575703"><ele>205.33333333333334</ele><time>2026-04-07T07:22:42.999Z</time></trkpt><trkpt lat="45.851570431616054" lon="9.388565725015807"><ele>206.0</ele><time>2026-04-07T07:22:44.999Z</time></trkpt><trkpt lat="45.85163370619629" lon="9.388558313179285"><ele>206.0</ele><time>2026-04-07T07:22:45.999Z</time></trkpt><trkpt lat="45.85174397993371" lon="9.388623276970858"><ele>206.0</ele><time>2026-04-07T07:22:47.999Z</time></trkpt><trkpt lat="45.85178888050512" lon="9.388705223166001"><ele>206.0</ele><time>2026-04-07T07:22:48.999Z</time></trkpt><trkpt lat="45.85187833865512" lon="9.388731523938265"><ele>206.0</ele><time>2026-04-07T07:22:50.999Z</time></trkpt><trkpt lat="45.85198346764141" lon="9.388764859506328"><ele>206.0</ele><time>2026-04-07T07:22:52.999Z</time></trkpt><trkpt lat="45.85208150467823" lon="9.388795946274538"><ele>206.20000000000002</ele><time>2026-04-07T07:22:54.999Z</time></trkpt><trkpt lat="45.8521805291957" lon="9.388827346170807"><ele>206.4</ele><time>2026-04-07T07:22:56.999Z</time></trkpt><trkpt lat="45.852287711474354" lon="9.388846703995357"><ele>206.6</ele><time>2026-04-07T07:22:58.999Z</time></trkpt><trkpt lat="45.85238156326265" lon="9.388951305617606"><ele>206.8</ele><time>2026-04-07T07:23:00.999Z</time></trkpt><trkpt lat="45.85236911516914" lon="9.38905470509346"><ele>207.0</ele><time>2026-04-07T07:23:01.999Z</time></trkpt><trkpt lat="45.85233115346739" lon="9.389140006117776"><ele>207.0</ele><time>2026-04-07T07:23:02.999Z</time></trkpt><trkpt lat="45.852305957430815" lon="9.389309694858078"><ele>207.0</ele><time>2026-04-07T07:23:04.999Z</time></trkpt><trkpt lat="45.85228537493969" lon="9.389397773555373"><ele>207.0</ele><time>2026-04-07T07:23:05.999Z</time></trkpt><trkpt lat="45.85224577214667" lon="9.389567245873755"><ele>207.0</ele><time>2026-04-07T07:23:07.999Z</time></trkpt><trkpt lat="45.85222559330558" lon="9.38965359723392"><ele>207.0</ele><time>2026-04-07T07:23:08.999Z</time></trkpt><trkpt lat="45.852187084087475" lon="9.389818389808097"><ele>207.0</ele><time>2026-04-07T07:23:10.999Z</time></trkpt><trkpt lat="45.85214834463141" lon="9.389982841874671"><ele>207.0</ele><time>2026-04-07T07:23:12.999Z</time></trkpt><trkpt lat="45.8521139265188" lon="9.390063931525727"><ele>207.0</ele><time>2026-04-07T07:23:13.999Z</time></trkpt><trkpt lat="45.852095290155376" lon="9.390154957178739"><ele>207.0</ele><time>2026-04-07T07:23:14.999Z</time></trkpt><trkpt lat="45.852091430207516" lon="9.390250035476665"><ele>207.0</ele><time>2026-04-07T07:23:15.999Z</time></trkpt><trkpt lat="45.85207326914098" lon="9.390338166380445"><ele>207.0</ele><time>2026-04-07T07:23:16.999Z</time></trkpt><trkpt lat="45.85203944724555" lon="9.39042425960799"><ele>207.57142857142858</ele><time>2026-04-07T07:23:17.999Z</time></trkpt><trkpt lat="45.85202305642432" lon="9.390517186712447"><ele>208.14285714285714</ele><time>2026-04-07T07:23:18.999Z</time></trkpt><trkpt lat="45.85200541055819" lon="9.390611703841047"><ele>208.71428571428572</ele><time>2026-04-07T07:23:19.999Z</time></trkpt><trkpt lat="45.8519839439282" lon="9.390703083735167"><ele>209.28571428571428</ele><time>2026-04-07T07:23:20.999Z</time></trkpt><trkpt lat="45.851971282436615" lon="9.390793574362302"><ele>209.85714285714286</ele><time>2026-04-07T07:23:21.999Z</time></trkpt><trkpt lat="45.85195076509982" lon="9.390886509633637"><ele>210.42857142857144</ele><time>2026-04-07T07:23:22.999Z</time></trkpt><trkpt lat="45.85193623745386" lon="9.390977466152183"><ele>211.0</ele><time>2026-04-07T07:23:23.999Z</time></trkpt><trkpt lat="45.85191866766227" lon="9.391064825240582"><ele>210.99999999999997</ele><time>2026-04-07T07:23:24.999Z</time></trkpt><trkpt lat="45.8519000492707" lon="9.391151260982369"><ele>211.0</ele><time>2026-04-07T07:23:25.999Z</time></trkpt><trkpt lat="45.85186724259049" lon="9.39130560871272"><ele>211.0</ele><time>2026-04-07T07:23:27.999Z</time></trkpt><trkpt lat="45.851840750537846" lon="9.391436283230453"><ele>211.0</ele><time>2026-04-07T07:23:29.999Z</time></trkpt><trkpt lat="45.85179982739451" lon="9.391557897835291"><ele>210.99999999999997</ele><time>2026-04-07T07:23:31.999Z</time></trkpt><trkpt lat="45.85176671330275" lon="9.391653465756592"><ele>211.0</ele><time>2026-04-07T07:23:33.999Z</time></trkpt><trkpt lat="45.85165136473664" lon="9.391704224437888"><ele>210.20000000000002</ele><time>2026-04-07T07:23:36.999Z</time></trkpt><trkpt lat="45.851557572169725" lon="9.391739492936635"><ele>209.4</ele><time>2026-04-07T07:23:38.999Z</time></trkpt><trkpt lat="45.851455575195985" lon="9.39179020928368"><ele>208.6</ele><time>2026-04-07T07:23:40.999Z</time></trkpt><trkpt lat="45.85135257907548" lon="9.391854876588786"><ele>207.8</ele><time>2026-04-07T07:23:42.999Z</time></trkpt><trkpt lat="45.85124432148404" lon="9.391901307677758"><ele>207.0</ele><time>2026-04-07T07:23:44.999Z</time></trkpt><trkpt lat="45.851126838487076" lon="9.391943873859507"><ele>207.00000000000003</ele><time>2026-04-07T07:23:46.999Z</time></trkpt><trkpt lat="45.851012873084194" lon="9.392010969936178"><ele>207.0</ele><time>2026-04-07T07:23:48.999Z</time></trkpt><trkpt lat="45.850951528812345" lon="9.392034023335182"><ele>207.0</ele><time>2026-04-07T07:23:49.999Z</time></trkpt><trkpt lat="45.85089113130811" lon="9.392062046597752"><ele>207.0</ele><time>2026-04-07T07:23:50.999Z</time></trkpt><trkpt lat="45.85082691610143" lon="9.392064777443881"><ele>207.0</ele><time>2026-04-07T07:23:51.999Z</time></trkpt><trkpt lat="45.8507647036368" lon="9.392089023435835"><ele>207.00000000000003</ele><time>2026-04-07T07:23:52.999Z</time></trkpt><trkpt lat="45.85070110736552" lon="9.392113808739326"><ele>207.0</ele><time>2026-04-07T07:23:53.999Z</time></trkpt><trkpt lat="45.850635724820606" lon="9.392139390553824"><ele>207.14285714285717</ele><time>2026-04-07T07:23:54.999Z</time></trkpt><trkpt lat="45.850570409340364" lon="9.392167125866413"><ele>207.28571428571428</ele><time>2026-04-07T07:23:55.999Z</time></trkpt><trkpt lat="45.85051315219128" lon="9.392220897139604"><ele>207.42857142857144</ele><time>2026-04-07T07:23:56.999Z</time></trkpt><trkpt lat="45.850447918946365" lon="9.392251325503187"><ele>207.57142857142858</ele><time>2026-04-07T07:23:57.999Z</time></trkpt><trkpt lat="45.850382419967055" lon="9.392286534872616"><ele>207.71428571428572</ele><time>2026-04-07T07:23:58.999Z</time></trkpt><trkpt lat="45.85032204146062" lon="9.392323448889838"><ele>207.85714285714286</ele><time>2026-04-07T07:23:59.999Z</time></trkpt><trkpt lat="45.85025392351395" lon="9.392359244421845"><ele>208.0</ele><time>2026-04-07T07:24:00.999Z</time></trkpt><trkpt lat="45.85018396812575" lon="9.392396200395952"><ele>207.7142857142857</ele><time>2026-04-07T07:24:01.999Z</time></trkpt><trkpt lat="45.85011807413819" lon="9.392438933548188"><ele>207.42857142857144</ele><time>2026-04-07T07:24:02.999Z</time></trkpt><trkpt lat="45.850050688353285" lon="9.392471202182668"><ele>207.14285714285714</ele><time>2026-04-07T07:24:03.999Z</time></trkpt><trkpt lat="45.849981567843926" lon="9.392511965817775"><ele>206.85714285714283</ele><time>2026-04-07T07:24:04.999Z</time></trkpt><trkpt lat="45.84991671215929" lon="9.392549086281148"><ele>206.57142857142856</ele><time>2026-04-07T07:24:05.999Z</time></trkpt><trkpt lat="45.84984726325458" lon="9.39258397013822"><ele>206.28571428571428</ele><time>2026-04-07T07:24:06.999Z</time></trkpt><trkpt lat="45.84977508469513" lon="9.392608803969111"><ele>206.0</ele><time>2026-04-07T07:24:07.999Z</time></trkpt><trkpt lat="45.84970625090406" lon="9.392645425839246"><ele>205.99999999999997</ele><time>2026-04-07T07:24:08.999Z</time></trkpt><trkpt lat="45.84964083246777" lon="9.392673499388874"><ele>206.0</ele><time>2026-04-07T07:24:09.999Z</time></trkpt><trkpt lat="45.84956451484646" lon="9.392694250628605"><ele>206.0</ele><time>2026-04-07T07:24:11Z</time></trkpt><trkpt lat="45.84949571018353" lon="9.392728782940305"><ele>206.0</ele><time>2026-04-07T07:24:12Z</time></trkpt><trkpt lat="45.84942806259777" lon="9.39275874183667"><ele>206.0</ele><time>2026-04-07T07:24:13Z</time></trkpt><trkpt lat="45.84935918331992" lon="9.392785613518965"><ele>205.99999999999997</ele><time>2026-04-07T07:24:14Z</time></trkpt><trkpt lat="45.84929076427015" lon="9.392807083347709"><ele>206.0</ele><time>2026-04-07T07:24:15Z</time></trkpt><trkpt lat="45.84917358651004" lon="9.39285633838616"><ele>205.5</ele><time>2026-04-07T07:24:17Z</time></trkpt><trkpt lat="45.849062633094924" lon="9.392906875378904"><ele>205.0</ele><time>2026-04-07T07:24:19Z</time></trkpt><trkpt lat="45.848944312446314" lon="9.39295213939687"><ele>204.5</ele><time>2026-04-07T07:24:21Z</time></trkpt><trkpt lat="45.84882940898683" lon="9.393013669677426"><ele>204.0</ele><time>2026-04-07T07:24:23Z</time></trkpt><trkpt lat="45.84871785023046" lon="9.393069931835454"><ele>204.0</ele><time>2026-04-07T07:24:25Z</time></trkpt><trkpt lat="45.84861172364629" lon="9.393125822952584"><ele>204.0</ele><time>2026-04-07T07:24:27Z</time></trkpt><trkpt lat="45.848521827655546" lon="9.393194261645943"><ele>204.0</ele><time>2026-04-07T07:24:29Z</time></trkpt><trkpt lat="45.84845268592083" lon="9.393272742109271"><ele>204.0</ele><time>2026-04-07T07:24:31Z</time></trkpt><trkpt lat="45.84838316135321" lon="9.393328582671396"><ele>204.0</ele><time>2026-04-07T07:24:34Z</time></trkpt><trkpt lat="45.848336443773526" lon="9.39319557868684"><ele>204.0</ele><time>2026-04-07T07:24:35Z</time></trkpt><trkpt lat="45.84821600885458" lon="9.393237614598652"><ele>204.0</ele><time>2026-04-07T07:25:15.999Z</time></trkpt><trkpt lat="45.848158848933565" lon="9.393286473631393"><ele>204.0</ele><time>2026-04-07T07:25:17.999Z</time></trkpt><trkpt lat="45.84810531942224" lon="9.393226541418622"><ele>204.0</ele><time>2026-04-07T07:25:19.999Z</time></trkpt><trkpt lat="45.848050326744556" lon="9.393173596693666"><ele>204.0</ele><time>2026-04-07T07:25:22.999Z</time></trkpt><trkpt lat="45.84798263888046" lon="9.393146650734717"><ele>204.0</ele><time>2026-04-07T07:25:26.999Z</time></trkpt><trkpt lat="45.84790286498338" lon="9.393049958610039"><ele>204.2</ele><time>2026-04-07T07:25:29.999Z</time></trkpt><trkpt lat="45.84781606685525" lon="9.392967958335428"><ele>204.39999999999998</ele><time>2026-04-07T07:25:31.999Z</time></trkpt><trkpt lat="45.84772464624916" lon="9.39288330932009"><ele>204.6</ele><time>2026-04-07T07:25:33.999Z</time></trkpt><trkpt lat="45.84763444295717" lon="9.392799736158535"><ele>204.8</ele><time>2026-04-07T07:25:35.999Z</time></trkpt><trkpt lat="45.84754543614471" lon="9.392717251994009"><ele>205.0</ele><time>2026-04-07T07:25:37.999Z</time></trkpt><trkpt lat="45.84744800732645" lon="9.392626938055384"><ele>203.25</ele><time>2026-04-07T07:25:39.999Z</time></trkpt><trkpt lat="45.847349660446106" lon="9.392535640556032"><ele>201.5</ele><time>2026-04-07T07:25:41.999Z</time></trkpt><trkpt lat="45.847254948521915" lon="9.392447717469144"><ele>199.75</ele><time>2026-04-07T07:25:43.999Z</time></trkpt><trkpt lat="45.84715336501561" lon="9.392353700477416"><ele>198.0</ele><time>2026-04-07T07:25:45.999Z</time></trkpt><trkpt lat="45.84705638716089" lon="9.392264277824962"><ele>198.0</ele><time>2026-04-07T07:25:47.999Z</time></trkpt><trkpt lat="45.846977126667674" lon="9.3921911922362"><ele>198.0</ele><time>2026-04-07T07:25:49.999Z</time></trkpt><trkpt lat="45.846911567565435" lon="9.392126605131509"><ele>198.0</ele><time>2026-04-07T07:25:52.999Z</time></trkpt><trkpt lat="45.846759177695695" lon="9.39221789685313"><ele>198.0</ele><time>2026-04-07T07:25:54.999Z</time></trkpt><trkpt lat="45.84671809898189" lon="9.392287736784846"><ele>198.0</ele><time>2026-04-07T07:25:56.999Z</time></trkpt><trkpt lat="45.84667138016723" lon="9.392373967901793"><ele>198.8</ele><time>2026-04-07T07:25:58.999Z</time></trkpt><trkpt lat="45.84662275351918" lon="9.39246698856921"><ele>199.60000000000002</ele><time>2026-04-07T07:26:00.999Z</time></trkpt><trkpt lat="45.846582170751525" lon="9.392546786831769"><ele>200.39999999999998</ele><time>2026-04-07T07:26:03.999Z</time></trkpt><trkpt lat="45.84646562177651" lon="9.392775958179287"><ele>201.2</ele><time>2026-04-07T07:26:17Z</time></trkpt><trkpt lat="45.846423833465515" lon="9.392858127009395"><ele>202.0</ele><time>2026-04-07T07:26:18Z</time></trkpt><trkpt lat="45.84638591006126" lon="9.39293706833933"><ele>201.39999999999998</ele><time>2026-04-07T07:26:19Z</time></trkpt><trkpt lat="45.84632049794335" lon="9.39306829842949"><ele>200.79999999999998</ele><time>2026-04-07T07:26:21Z</time></trkpt><trkpt lat="45.846247355951824" lon="9.393215036283904"><ele>200.2</ele><time>2026-04-07T07:26:23Z</time></trkpt><trkpt lat="45.84620845649364" lon="9.393291383037665"><ele>199.6</ele><time>2026-04-07T07:26:24Z</time></trkpt><trkpt lat="45.846171440561406" lon="9.393366402808955"><ele>199.0</ele><time>2026-04-07T07:26:25Z</time></trkpt><trkpt lat="45.84610061057996" lon="9.393507157374675"><ele>199.0</ele><time>2026-04-07T07:26:27Z</time></trkpt><trkpt lat="45.84606270367447" lon="9.39358244059339"><ele>199.0</ele><time>2026-04-07T07:26:28Z</time></trkpt><trkpt lat="45.84602593142578" lon="9.393656268853068"><ele>199.0</ele><time>2026-04-07T07:26:29Z</time></trkpt><trkpt lat="45.84598759845163" lon="9.39373323060795"><ele>199.0</ele><time>2026-04-07T07:26:30Z</time></trkpt><trkpt lat="45.84609270304398" lon="9.393958322921316"><ele>199.0</ele><time>2026-04-07T07:26:31Z</time></trkpt><trkpt lat="45.84604903675284" lon="9.394032075975161"><ele>198.85714285714283</ele><time>2026-04-07T07:26:32Z</time></trkpt><trkpt lat="45.84600904059289" lon="9.394102921016568"><ele>198.71428571428572</ele><time>2026-04-07T07:26:33Z</time></trkpt><trkpt lat="45.845961867856786" lon="9.394170656358929"><ele>198.57142857142856</ele><time>2026-04-07T07:26:34Z</time></trkpt><trkpt lat="45.84591670216257" lon="9.394237263697056"><ele>198.42857142857142</ele><time>2026-04-07T07:26:35Z</time></trkpt><trkpt lat="45.845870490820225" lon="9.394304023283352"><ele>198.28571428571428</ele><time>2026-04-07T07:26:36Z</time></trkpt><trkpt lat="45.84582565635005" lon="9.394368345490486"><ele>198.14285714285714</ele><time>2026-04-07T07:26:37Z</time></trkpt><trkpt lat="45.845742156908564" lon="9.394488718246649"><ele>198.0</ele><time>2026-04-07T07:26:39Z</time></trkpt><trkpt lat="45.84566876997477" lon="9.394588671492258"><ele>198.16666666666666</ele><time>2026-04-07T07:26:41Z</time></trkpt><trkpt lat="45.8456173858531" lon="9.394655475645116"><ele>198.33333333333331</ele><time>2026-04-07T07:26:43Z</time></trkpt><trkpt lat="45.8455377988446" lon="9.394633194198548"><ele>198.5</ele><time>2026-04-07T07:26:45Z</time></trkpt><trkpt lat="45.84548502534604" lon="9.39473978530961"><ele>198.66666666666666</ele><time>2026-04-07T07:26:51Z</time></trkpt><trkpt lat="45.84543208761587" lon="9.394843789684318"><ele>198.83333333333331</ele><time>2026-04-07T07:26:54Z</time></trkpt><trkpt lat="45.84539098160211" lon="9.394922949386455"><ele>199.0</ele><time>2026-04-07T07:26:56Z</time></trkpt><trkpt lat="45.84533903844383" lon="9.395022119809742"><ele>198.99999999999997</ele><time>2026-04-07T07:26:59Z</time></trkpt><trkpt lat="45.84529129727921" lon="9.395107274074412"><ele>199.0</ele><time>2026-04-07T07:27:01Z</time></trkpt><trkpt lat="45.84523640005813" lon="9.39519966626343"><ele>199.0</ele><time>2026-04-07T07:27:03Z</time></trkpt><trkpt lat="45.84518378573599" lon="9.39528147350467"><ele>199.0</ele><time>2026-04-07T07:27:05Z</time></trkpt><trkpt lat="45.84512753515998" lon="9.395362090724172"><ele>198.99999999999997</ele><time>2026-04-07T07:27:07Z</time></trkpt><trkpt lat="45.84506388090708" lon="9.395444592787623"><ele>199.0</ele><time>2026-04-07T07:27:08.999Z</time></trkpt><trkpt lat="45.84499404027079" lon="9.39552209311238"><ele>199.0</ele><time>2026-04-07T07:27:10.999Z</time></trkpt><trkpt lat="45.84488500580122" lon="9.395631851840516"><ele>199.0</ele><time>2026-04-07T07:27:12.999Z</time></trkpt><trkpt lat="45.844820805286524" lon="9.395689032150697"><ele>199.0</ele><time>2026-04-07T07:27:13.999Z</time></trkpt><trkpt lat="45.84474860009591" lon="9.395750456231434"><ele>199.0</ele><time>2026-04-07T07:27:14.999Z</time></trkpt><trkpt lat="45.84468071477387" lon="9.395803484943682"><ele>199.0</ele><time>2026-04-07T07:27:15.999Z</time></trkpt><trkpt lat="45.844608681460166" lon="9.39586032271047"><ele>198.99999999999997</ele><time>2026-04-07T07:27:16.999Z</time></trkpt><trkpt lat="45.84453630177244" lon="9.39591743378323"><ele>199.0</ele><time>2026-04-07T07:27:17.999Z</time></trkpt><trkpt lat="45.84446837382762" lon="9.395971032215815"><ele>199.0</ele><time>2026-04-07T07:27:18.999Z</time></trkpt><trkpt lat="45.844400222629844" lon="9.39602480680626"><ele>199.0</ele><time>2026-04-07T07:27:19.999Z</time></trkpt><trkpt lat="45.84432988974263" lon="9.396080302853887"><ele>198.99999999999997</ele><time>2026-04-07T07:27:20.999Z</time></trkpt><trkpt lat="45.84426179881181" lon="9.39613402989076"><ele>199.0</ele><time>2026-04-07T07:27:21.999Z</time></trkpt><trkpt lat="45.84419470567721" lon="9.396186969631904"><ele>199.16666666666666</ele><time>2026-04-07T07:27:22.999Z</time></trkpt><trkpt lat="45.844125992791994" lon="9.39624140020037"><ele>199.33333333333331</ele><time>2026-04-07T07:27:23.999Z</time></trkpt><trkpt lat="45.84405736704914" lon="9.396295375535084"><ele>199.5</ele><time>2026-04-07T07:27:24.999Z</time></trkpt><trkpt lat="45.84398984182775" lon="9.396348631515558"><ele>199.66666666666669</ele><time>2026-04-07T07:27:25.999Z</time></trkpt><trkpt lat="45.843923566063786" lon="9.396400902071285"><ele>199.83333333333334</ele><time>2026-04-07T07:27:26.999Z</time></trkpt><trkpt lat="45.843858110587284" lon="9.396452525687547"><ele>200.0</ele><time>2026-04-07T07:27:27.999Z</time></trkpt><trkpt lat="45.84379446539701" lon="9.396502155407155"><ele>200.00000000000003</ele><time>2026-04-07T07:27:28.999Z</time></trkpt><trkpt lat="45.84372831607095" lon="9.396553783044709"><ele>200.0</ele><time>2026-04-07T07:27:29.999Z</time></trkpt><trkpt lat="45.84366232143868" lon="9.396603902906069"><ele>200.0</ele><time>2026-04-07T07:27:30.999Z</time></trkpt><trkpt lat="45.84359634189303" lon="9.39665452587283"><ele>200.0</ele><time>2026-04-07T07:27:31.999Z</time></trkpt><trkpt lat="45.84352984109769" lon="9.396705548768029"><ele>200.0</ele><time>2026-04-07T07:27:32.999Z</time></trkpt><trkpt lat="45.84346249636452" lon="9.396757219176378"><ele>200.00000000000003</ele><time>2026-04-07T07:27:33.999Z</time></trkpt><trkpt lat="45.84339886562837" lon="9.396804489640076"><ele>200.0</ele><time>2026-04-07T07:27:34.999Z</time></trkpt><trkpt lat="45.84334127809442" lon="9.396846195613872"><ele>201.33333333333334</ele><time>2026-04-07T07:27:35.999Z</time></trkpt><trkpt lat="45.84328202032695" lon="9.3968830771924"><ele>202.66666666666669</ele><time>2026-04-07T07:27:36.999Z</time></trkpt><trkpt lat="45.843217847735225" lon="9.39691671248614"><ele>204.0</ele><time>2026-04-07T07:27:37.999Z</time></trkpt><trkpt lat="45.84314509645044" lon="9.396949616240377"><ele>205.33333333333331</ele><time>2026-04-07T07:27:38.999Z</time></trkpt><trkpt lat="45.84302532496891" lon="9.396979079675628"><ele>206.66666666666666</ele><time>2026-04-07T07:27:40.999Z</time></trkpt><trkpt lat="45.842952893225636" lon="9.396994675966129"><ele>208.0</ele><time>2026-04-07T07:27:41.999Z</time></trkpt><trkpt lat="45.84286186003682" lon="9.396979948505964"><ele>207.99999999999997</ele><time>2026-04-07T07:27:43.999Z</time></trkpt><trkpt lat="45.842781418488464" lon="9.396953412332932"><ele>208.0</ele><time>2026-04-07T07:27:45.999Z</time></trkpt><trkpt lat="45.84271197444008" lon="9.39691551787012"><ele>208.0</ele><time>2026-04-07T07:27:47.999Z</time></trkpt><trkpt lat="45.84260552050525" lon="9.396856307059252"><ele>208.0</ele><time>2026-04-07T07:27:49.999Z</time></trkpt><trkpt lat="45.84253006733052" lon="9.396796302882137"><ele>207.99999999999997</ele><time>2026-04-07T07:27:51.999Z</time></trkpt><trkpt lat="45.84246780060987" lon="9.39677367046584"><ele>208.0</ele><time>2026-04-07T07:27:52.999Z</time></trkpt><trkpt lat="45.84236702086538" lon="9.396741408529131"><ele>208.66666666666666</ele><time>2026-04-07T07:27:54.999Z</time></trkpt><trkpt lat="45.84229542706936" lon="9.396715954576134"><ele>209.33333333333331</ele><time>2026-04-07T07:27:55.999Z</time></trkpt><trkpt lat="45.842230837358265" lon="9.396700365879756"><ele>210.0</ele><time>2026-04-07T07:27:56.999Z</time></trkpt><trkpt lat="45.84185815851586" lon="9.39748241504312"><ele>208.33333333333334</ele><time>2026-04-07T07:27:57.999Z</time></trkpt><trkpt lat="45.841787331514226" lon="9.397488877139828"><ele>206.66666666666669</ele><time>2026-04-07T07:27:58.999Z</time></trkpt><trkpt lat="45.841716126535346" lon="9.397496224182436"><ele>205.0</ele><time>2026-04-07T07:27:59.999Z</time></trkpt><trkpt lat="45.841650141929186" lon="9.397505304757752"><ele>203.33333333333334</ele><time>2026-04-07T07:28:00.999Z</time></trkpt><trkpt lat="45.84153089584468" lon="9.397528020529952"><ele>201.66666666666669</ele><time>2026-04-07T07:28:02.999Z</time></trkpt><trkpt lat="45.84143612284638" lon="9.397549306254176"><ele>200.0</ele><time>2026-04-07T07:28:04.999Z</time></trkpt><trkpt lat="45.841346905384384" lon="9.397546397171268"><ele>200.00000000000003</ele><time>2026-04-07T07:28:06.999Z</time></trkpt><trkpt lat="45.841273562295584" lon="9.397505242872455"><ele>200.0</ele><time>2026-04-07T07:28:08.999Z</time></trkpt><trkpt lat="45.841198240508284" lon="9.39751123861935"><ele>200.0</ele><time>2026-04-07T07:28:27Z</time></trkpt><trkpt lat="45.8411196843293" lon="9.397516582821472"><ele>200.0</ele><time>2026-04-07T07:28:30Z</time></trkpt><trkpt lat="45.84104362308025" lon="9.397521757292475"><ele>200.00000000000003</ele><time>2026-04-07T07:28:32Z</time></trkpt><trkpt lat="45.84095633820764" lon="9.397526533981457"><ele>200.0</ele><time>2026-04-07T07:28:34Z</time></trkpt><trkpt lat="45.84086595169312" lon="9.397531314001286"><ele>200.0</ele><time>2026-04-07T07:28:36Z</time></trkpt><trkpt lat="45.84076617607441" lon="9.397536590558198"><ele>200.0</ele><time>2026-04-07T07:28:38Z</time></trkpt><trkpt lat="45.840662929319485" lon="9.397542050682997"><ele>200.0</ele><time>2026-04-07T07:28:40Z</time></trkpt><trkpt lat="45.8405542567965" lon="9.397547797744055"><ele>200.0</ele><time>2026-04-07T07:28:42Z</time></trkpt><trkpt lat="45.840439707446734" lon="9.397553855597044"><ele>200.0</ele><time>2026-04-07T07:28:44Z</time></trkpt><trkpt lat="45.8403236778348" lon="9.397559997525146"><ele>200.0</ele><time>2026-04-07T07:28:46Z</time></trkpt><trkpt lat="45.840209789290775" lon="9.397565039872955"><ele>200.0</ele><time>2026-04-07T07:28:48Z</time></trkpt><trkpt lat="45.84009542352913" lon="9.397570103348631"><ele>200.0</ele><time>2026-04-07T07:28:50Z</time></trkpt><trkpt lat="45.83998210036243" lon="9.397575120664808"><ele>200.0</ele><time>2026-04-07T07:28:52Z</time></trkpt><trkpt lat="45.83987093836462" lon="9.39758004229473"><ele>199.6</ele><time>2026-04-07T07:28:54Z</time></trkpt><trkpt lat="45.83976009060465" lon="9.397584950011804"><ele>199.2</ele><time>2026-04-07T07:28:56Z</time></trkpt><trkpt lat="45.839656421246765" lon="9.39758549796164"><ele>198.8</ele><time>2026-04-07T07:28:58Z</time></trkpt><trkpt lat="45.83957891552348" lon="9.39757472548947"><ele>198.4</ele><time>2026-04-07T07:29:00Z</time></trkpt><trkpt lat="45.839501108580706" lon="9.397551295723718"><ele>198.0</ele><time>2026-04-07T07:29:02Z</time></trkpt><trkpt lat="45.839422156349684" lon="9.397514047289901"><ele>198.0</ele><time>2026-04-07T07:29:04Z</time></trkpt><trkpt lat="45.83933828137008" lon="9.397458049948947"><ele>198.0</ele><time>2026-04-07T07:29:06Z</time></trkpt><trkpt lat="45.83925622901097" lon="9.397400069763494"><ele>198.0</ele><time>2026-04-07T07:29:08Z</time></trkpt><trkpt lat="45.83916382017007" lon="9.397384188802137"><ele>198.0</ele><time>2026-04-07T07:29:10Z</time></trkpt><trkpt lat="45.83903447776999" lon="9.397379920839484"><ele>198.0</ele><time>2026-04-07T07:29:12Z</time></trkpt><trkpt lat="45.83892502865471" lon="9.397389090368407"><ele>198.33333333333334</ele><time>2026-04-07T07:29:14Z</time></trkpt><trkpt lat="45.83890166800552" lon="9.397261876658"><ele>198.66666666666669</ele><time>2026-04-07T07:29:16Z</time></trkpt><trkpt lat="45.83890370854616" lon="9.397141789447085"><ele>199.0</ele><time>2026-04-07T07:29:18Z</time></trkpt><trkpt lat="45.83890635328629" lon="9.397023847569244"><ele>199.33333333333334</ele><time>2026-04-07T07:29:20.999Z</time></trkpt><trkpt lat="45.83886463053955" lon="9.397112928282976"><ele>199.66666666666669</ele><time>2026-04-07T07:29:26.999Z</time></trkpt><trkpt lat="45.83890446669303" lon="9.397184145202802"><ele>200.0</ele><time>2026-04-07T07:29:28.999Z</time></trkpt><trkpt lat="45.838966326429" lon="9.397241737933847"><ele>200.0</ele><time>2026-04-07T07:29:31.999Z</time></trkpt><trkpt lat="45.83894357563881" lon="9.39736889449796"><ele>200.0</ele><time>2026-04-07T07:29:33.999Z</time></trkpt><trkpt lat="45.8389935034375" lon="9.397476661046055"><ele>200.0</ele><time>2026-04-07T07:29:35.999Z</time></trkpt><trkpt lat="45.83909386746911" lon="9.397496498626289"><ele>200.0</ele><time>2026-04-07T07:29:37.999Z</time></trkpt><trkpt lat="45.839202680465135" lon="9.397480501463214"><ele>200.0</ele><time>2026-04-07T07:29:39.999Z</time></trkpt><trkpt lat="45.839284191348916" lon="9.397477735729023"><ele>199.66666666666669</ele><time>2026-04-07T07:29:41.999Z</time></trkpt><trkpt lat="45.83938638869003" lon="9.397520359486277"><ele>199.33333333333334</ele><time>2026-04-07T07:29:43.999Z</time></trkpt><trkpt lat="45.839455236644" lon="9.397583188491133"><ele>199.0</ele><time>2026-04-07T07:29:45.999Z</time></trkpt><trkpt lat="45.839525868479306" lon="9.397607891620956"><ele>198.66666666666669</ele><time>2026-04-07T07:29:47.999Z</time></trkpt><trkpt lat="45.83958544357084" lon="9.39768447055176"><ele>198.33333333333334</ele><time>2026-04-07T07:29:50.999Z</time></trkpt><trkpt lat="45.83955957882156" lon="9.397787230222566"><ele>198.0</ele><time>2026-04-07T07:29:51.999Z</time></trkpt><trkpt lat="45.83950400630552" lon="9.397862400747478"><ele>198.0</ele><time>2026-04-07T07:29:55.999Z</time></trkpt><trkpt lat="45.839555761130846" lon="9.397919420278711"><ele>198.0</ele><time>2026-04-07T07:29:59.999Z</time></trkpt><trkpt lat="45.83961637007387" lon="9.397637427652723"><ele>198.0</ele><time>2026-04-07T07:30:02.999Z</time></trkpt><trkpt lat="45.83965064118827" lon="9.397720221498691"><ele>198.0</ele><time>2026-04-07T07:30:04.999Z</time></trkpt><trkpt lat="45.839725721530144" lon="9.397655462046586"><ele>198.0</ele><time>2026-04-07T07:30:06.999Z</time></trkpt><trkpt lat="45.839826776449705" lon="9.397616561904712"><ele>198.0</ele><time>2026-04-07T07:30:08.999Z</time></trkpt><trkpt lat="45.8399500632989" lon="9.397613680787547"><ele>198.0</ele><time>2026-04-07T07:30:10.999Z</time></trkpt><trkpt lat="45.840014083571894" lon="9.397608132476323"><ele>198.0</ele><time>2026-04-07T07:30:11.999Z</time></trkpt><trkpt lat="45.84008379776932" lon="9.397606201276886"><ele>198.0</ele><time>2026-04-07T07:30:12.999Z</time></trkpt><trkpt lat="45.840149613053875" lon="9.39760460142045"><ele>198.0</ele><time>2026-04-07T07:30:13.999Z</time></trkpt><trkpt lat="45.84021802851528" lon="9.397601232815346"><ele>198.0</ele><time>2026-04-07T07:30:14.999Z</time></trkpt><trkpt lat="45.84028788110977" lon="9.397595442556316"><ele>198.2857142857143</ele><time>2026-04-07T07:30:15.999Z</time></trkpt><trkpt lat="45.8403600103194" lon="9.39759038862404"><ele>198.57142857142856</ele><time>2026-04-07T07:30:16.999Z</time></trkpt><trkpt lat="45.840433369177276" lon="9.397588000808419"><ele>198.85714285714286</ele><time>2026-04-07T07:30:17.999Z</time></trkpt><trkpt lat="45.84050284009054" lon="9.397586850733216"><ele>199.14285714285717</ele><time>2026-04-07T07:30:18.999Z</time></trkpt><trkpt lat="45.84057360388756" lon="9.39758296928729"><ele>199.42857142857144</ele><time>2026-04-07T07:30:19.999Z</time></trkpt><trkpt lat="45.84064112526223" lon="9.397575667275255"><ele>199.71428571428572</ele><time>2026-04-07T07:30:20.999Z</time></trkpt><trkpt lat="45.840705993561365" lon="9.39756925998907"><ele>200.0</ele><time>2026-04-07T07:30:21.999Z</time></trkpt><trkpt lat="45.84080966373904" lon="9.397567754439319"><ele>200.0</ele><time>2026-04-07T07:30:23.999Z</time></trkpt><trkpt lat="45.84091105504902" lon="9.397557332721338"><ele>200.0</ele><time>2026-04-07T07:30:25.999Z</time></trkpt><trkpt lat="45.841019688989" lon="9.397570843668975"><ele>200.0</ele><time>2026-04-07T07:30:27.999Z</time></trkpt><trkpt lat="45.84112533404712" lon="9.397563879695877"><ele>200.0</ele><time>2026-04-07T07:30:30Z</time></trkpt><trkpt lat="45.84124147520175" lon="9.397555784736262"><ele>200.0</ele><time>2026-04-07T07:30:32Z</time></trkpt><trkpt lat="45.84136231056267" lon="9.39752336286679"><ele>200.0</ele><time>2026-04-07T07:30:34Z</time></trkpt><trkpt lat="45.84147389753911" lon="9.397513730243137"><ele>200.0</ele><time>2026-04-07T07:30:36Z</time></trkpt><trkpt lat="45.8415680855747" lon="9.3975214528065"><ele>200.0</ele><time>2026-04-07T07:30:38Z</time></trkpt><trkpt lat="45.84162670569414" lon="9.397393242978035"><ele>200.0</ele><time>2026-04-07T07:30:41Z</time></trkpt><trkpt lat="45.841621377942424" lon="9.397273869076725"><ele>200.0</ele><time>2026-04-07T07:30:43Z</time></trkpt><trkpt lat="45.84158963695873" lon="9.397159543572736"><ele>200.4</ele><time>2026-04-07T07:30:45Z</time></trkpt><trkpt lat="45.84152390452648" lon="9.397087145440286"><ele>200.8</ele><time>2026-04-07T07:30:47Z</time></trkpt><trkpt lat="45.841426406685436" lon="9.397032956428534"><ele>201.2</ele><time>2026-04-07T07:30:49Z</time></trkpt><trkpt lat="45.84133741460769" lon="9.396954191172473"><ele>201.6</ele><time>2026-04-07T07:30:51Z</time></trkpt><trkpt lat="45.841284926190035" lon="9.396842086524858"><ele>202.0</ele><time>2026-04-07T07:30:53Z</time></trkpt><trkpt lat="45.84132969672341" lon="9.396722060069447"><ele>201.99999999999997</ele><time>2026-04-07T07:30:55Z</time></trkpt><trkpt lat="45.84135277006591" lon="9.39662207656969"><ele>202.0</ele><time>2026-04-07T07:30:57Z</time></trkpt><trkpt lat="45.841381755512764" lon="9.396520191352993"><ele>202.0</ele><time>2026-04-07T07:30:59Z</time></trkpt><trkpt lat="45.841410070563036" lon="9.396419838351274"><ele>202.0</ele><time>2026-04-07T07:31:01Z</time></trkpt><trkpt lat="45.84144442792561" lon="9.396288509748091"><ele>201.99999999999997</ele><time>2026-04-07T07:31:03Z</time></trkpt><trkpt lat="45.84151499453032" lon="9.396202969888373"><ele>202.0</ele><time>2026-04-07T07:31:05Z</time></trkpt><trkpt lat="45.84155384210851" lon="9.396123196474424"><ele>203.39999999999998</ele><time>2026-04-07T07:31:08Z</time></trkpt><trkpt lat="45.84141700847796" lon="9.396093080460526"><ele>204.79999999999998</ele><time>2026-04-07T07:31:09Z</time></trkpt><trkpt lat="45.84143659351468" lon="9.396000383169705"><ele>206.2</ele><time>2026-04-07T07:31:10Z</time></trkpt><trkpt lat="45.84139425327166" lon="9.395897287696368"><ele>207.6</ele><time>2026-04-07T07:31:12Z</time></trkpt><trkpt lat="45.84133094996368" lon="9.395762660358637"><ele>209.0</ele><time>2026-04-07T07:31:14Z</time></trkpt><trkpt lat="45.84123468770353" lon="9.395663548473348"><ele>209.00000000000003</ele><time>2026-04-07T07:31:16Z</time></trkpt><trkpt lat="45.8411235992634" lon="9.39557256413404"><ele>209.0</ele><time>2026-04-07T07:31:18Z</time></trkpt><trkpt lat="45.841065031861476" lon="9.395524932879459"><ele>209.0</ele><time>2026-04-07T07:31:19Z</time></trkpt><trkpt lat="45.84100202664651" lon="9.39548056739202"><ele>209.0</ele><time>2026-04-07T07:31:20Z</time></trkpt><trkpt lat="45.84093173099637" lon="9.39544108687491"><ele>209.00000000000003</ele><time>2026-04-07T07:31:21Z</time></trkpt><trkpt lat="45.84086382267991" lon="9.395410488325332"><ele>209.0</ele><time>2026-04-07T07:31:22Z</time></trkpt><trkpt lat="45.840796960270254" lon="9.395371883170721"><ele>208.42857142857142</ele><time>2026-04-07T07:31:23Z</time></trkpt><trkpt lat="45.84072975685477" lon="9.395344377202832"><ele>207.85714285714283</ele><time>2026-04-07T07:31:24Z</time></trkpt><trkpt lat="45.84065950909028" lon="9.395318300881115"><ele>207.28571428571428</ele><time>2026-04-07T07:31:25Z</time></trkpt><trkpt lat="45.840587513991295" lon="9.395294016479816"><ele>206.71428571428572</ele><time>2026-04-07T07:31:26Z</time></trkpt><trkpt lat="45.840513756081485" lon="9.395275625667441"><ele>206.14285714285714</ele><time>2026-04-07T07:31:27Z</time></trkpt><trkpt lat="45.84044051374329" lon="9.395253875749614"><ele>205.57142857142858</ele><time>2026-04-07T07:31:28Z</time></trkpt><trkpt lat="45.840366670048866" lon="9.395234084419764"><ele>205.0</ele><time>2026-04-07T07:31:29Z</time></trkpt><trkpt lat="45.84028989442337" lon="9.395219889041115"><ele>204.99999999999997</ele><time>2026-04-07T07:31:30Z</time></trkpt><trkpt lat="45.84021336343446" lon="9.395212820577324"><ele>205.0</ele><time>2026-04-07T07:31:31Z</time></trkpt><trkpt lat="45.840137163151525" lon="9.395208524472274"><ele>205.0</ele><time>2026-04-07T07:31:31.999Z</time></trkpt><trkpt lat="45.840059081040295" lon="9.395208816859292"><ele>205.0</ele><time>2026-04-07T07:31:32.999Z</time></trkpt><trkpt lat="45.83998261943243" lon="9.395211581430612"><ele>204.99999999999997</ele><time>2026-04-07T07:31:33.999Z</time></trkpt><trkpt lat="45.83990480505892" lon="9.395215557996183"><ele>205.0</ele><time>2026-04-07T07:31:34.999Z</time></trkpt><trkpt lat="45.83982805659232" lon="9.39521659022544"><ele>205.0</ele><time>2026-04-07T07:31:35.999Z</time></trkpt><trkpt lat="45.83975200893077" lon="9.39522085655351"><ele>205.0</ele><time>2026-04-07T07:31:36.999Z</time></trkpt><trkpt lat="45.83967586911837" lon="9.395223232142468"><ele>205.0</ele><time>2026-04-07T07:31:37.999Z</time></trkpt><trkpt lat="45.839602771437896" lon="9.395225425342085"><ele>205.0</ele><time>2026-04-07T07:31:38.999Z</time></trkpt><trkpt lat="45.83952743253222" lon="9.395226661804326"><ele>205.0</ele><time>2026-04-07T07:31:39.999Z</time></trkpt><trkpt lat="45.83945354109648" lon="9.39523359502885"><ele>205.0</ele><time>2026-04-07T07:31:40.999Z</time></trkpt><trkpt lat="45.839379911507486" lon="9.395232583814042"><ele>205.0</ele><time>2026-04-07T07:31:41.999Z</time></trkpt><trkpt lat="45.83930884613051" lon="9.395235364099003"><ele>205.14285714285714</ele><time>2026-04-07T07:31:42.999Z</time></trkpt><trkpt lat="45.8392378212546" lon="9.39524036905562"><ele>205.28571428571428</ele><time>2026-04-07T07:31:43.999Z</time></trkpt><trkpt lat="45.83916324434188" lon="9.395243213202326"><ele>205.42857142857142</ele><time>2026-04-07T07:31:44.999Z</time></trkpt><trkpt lat="45.83908667864589" lon="9.395244449561764"><ele>205.57142857142856</ele><time>2026-04-07T07:31:45.999Z</time></trkpt><trkpt lat="45.839013319244074" lon="9.395251460776214"><ele>205.71428571428572</ele><time>2026-04-07T07:31:46.999Z</time></trkpt><trkpt lat="45.83893822574471" lon="9.395250118692788"><ele>205.85714285714283</ele><time>2026-04-07T07:31:47.999Z</time></trkpt><trkpt lat="45.83886337581259" lon="9.395252343274484"><ele>206.0</ele><time>2026-04-07T07:31:48.999Z</time></trkpt><trkpt lat="45.838788863360946" lon="9.395258169333642"><ele>206.00000000000003</ele><time>2026-04-07T07:31:49.999Z</time></trkpt><trkpt lat="45.838714636331325" lon="9.395263106014584"><ele>206.0</ele><time>2026-04-07T07:31:50.999Z</time></trkpt><trkpt lat="45.83864076580587" lon="9.395268401394594"><ele>206.0</ele><time>2026-04-07T07:31:51.999Z</time></trkpt><trkpt lat="45.83856252571294" lon="9.395279382189614"><ele>206.0</ele><time>2026-04-07T07:31:52.999Z</time></trkpt><trkpt lat="45.83848795063176" lon="9.395271264586327"><ele>206.00000000000003</ele><time>2026-04-07T07:31:53.999Z</time></trkpt><trkpt lat="45.838414345402974" lon="9.395280338500767"><ele>206.0</ele><time>2026-04-07T07:31:54.999Z</time></trkpt><trkpt lat="45.83833919728834" lon="9.395284731606568"><ele>206.33333333333334</ele><time>2026-04-07T07:31:55.999Z</time></trkpt><trkpt lat="45.83826276422405" lon="9.395295122205711"><ele>206.66666666666669</ele><time>2026-04-07T07:31:56.999Z</time></trkpt><trkpt lat="45.83818840976379" lon="9.395296257369262"><ele>207.0</ele><time>2026-04-07T07:31:57.999Z</time></trkpt><trkpt lat="45.838109201635454" lon="9.395296699735304"><ele>207.33333333333331</ele><time>2026-04-07T07:31:58.999Z</time></trkpt><trkpt lat="45.83803157199366" lon="9.395298375569011"><ele>207.66666666666666</ele><time>2026-04-07T07:31:59.999Z</time></trkpt><trkpt lat="45.837956619737355" lon="9.395295935691605"><ele>208.0</ele><time>2026-04-07T07:32:00.999Z</time></trkpt><trkpt lat="45.837883581185665" lon="9.395297900409668"><ele>208.0</ele><time>2026-04-07T07:32:01.999Z</time></trkpt><trkpt lat="45.837808135300506" lon="9.395302579975429"><ele>208.0</ele><time>2026-04-07T07:32:02.999Z</time></trkpt><trkpt lat="45.837734571096256" lon="9.395305055007535"><ele>208.0</ele><time>2026-04-07T07:32:03.999Z</time></trkpt><trkpt lat="45.83765880344336" lon="9.395301290970199"><ele>208.0</ele><time>2026-04-07T07:32:04.999Z</time></trkpt><trkpt lat="45.83758534994614" lon="9.395294778866749"><ele>208.0</ele><time>2026-04-07T07:32:05.999Z</time></trkpt><trkpt lat="45.83751241822694" lon="9.395283282481328"><ele>208.0</ele><time>2026-04-07T07:32:06.999Z</time></trkpt><trkpt lat="45.83743837377056" lon="9.395269969171492"><ele>208.0</ele><time>2026-04-07T07:32:07.999Z</time></trkpt><trkpt lat="45.837365896553706" lon="9.39524542394612"><ele>207.83333333333331</ele><time>2026-04-07T07:32:08.999Z</time></trkpt><trkpt lat="45.83729532725448" lon="9.395217262593677"><ele>207.66666666666666</ele><time>2026-04-07T07:32:09.999Z</time></trkpt><trkpt lat="45.83722619056562" lon="9.395183190050865"><ele>207.5</ele><time>2026-04-07T07:32:10.999Z</time></trkpt><trkpt lat="45.837159592446916" lon="9.395145345695264"><ele>207.33333333333331</ele><time>2026-04-07T07:32:11.999Z</time></trkpt><trkpt lat="45.83709695649061" lon="9.395096459849634"><ele>207.16666666666666</ele><time>2026-04-07T07:32:12.999Z</time></trkpt><trkpt lat="45.8370372520135" lon="9.39504796610413"><ele>207.0</ele><time>2026-04-07T07:32:13.999Z</time></trkpt><trkpt lat="45.83693411091253" lon="9.394955244337707"><ele>207.0</ele><time>2026-04-07T07:32:15.999Z</time></trkpt><trkpt lat="45.836843529247666" lon="9.394858675984"><ele>207.0</ele><time>2026-04-07T07:32:17.999Z</time></trkpt><trkpt lat="45.83677052469415" lon="9.394774493197076"><ele>207.0</ele><time>2026-04-07T07:32:19.999Z</time></trkpt><trkpt lat="45.836713989221934" lon="9.394711287825801"><ele>207.0</ele><time>2026-04-07T07:32:21.999Z</time></trkpt><trkpt lat="45.83666237708519" lon="9.394650614176793"><ele>207.0</ele><time>2026-04-07T07:32:23.999Z</time></trkpt><trkpt lat="45.83660659834008" lon="9.394591298810877"><ele>207.0</ele><time>2026-04-07T07:32:25.999Z</time></trkpt><trkpt lat="45.83654120869718" lon="9.394519512393115"><ele>207.2</ele><time>2026-04-07T07:32:27.999Z</time></trkpt><trkpt lat="45.83646437514596" lon="9.394441330271185"><ele>207.39999999999998</ele><time>2026-04-07T07:32:29.999Z</time></trkpt><trkpt lat="45.836381002178314" lon="9.394359768487861"><ele>207.60000000000002</ele><time>2026-04-07T07:32:31.999Z</time></trkpt><trkpt lat="45.8362966599275" lon="9.394268098669427"><ele>207.8</ele><time>2026-04-07T07:32:34Z</time></trkpt><trkpt lat="45.83620910115135" lon="9.394180774132584"><ele>208.0</ele><time>2026-04-07T07:32:36Z</time></trkpt><trkpt lat="45.836116257553755" lon="9.394102637739516"><ele>208.0</ele><time>2026-04-07T07:32:38Z</time></trkpt><trkpt lat="45.83603573311376" lon="9.39401205233951"><ele>208.0</ele><time>2026-04-07T07:32:40Z</time></trkpt><trkpt lat="45.83594812566565" lon="9.393923671501081"><ele>208.0</ele><time>2026-04-07T07:32:42Z</time></trkpt><trkpt lat="45.83585042545846" lon="9.393862585165172"><ele>208.0</ele><time>2026-04-07T07:32:44Z</time></trkpt><trkpt lat="45.83574289753531" lon="9.393796950858453"><ele>208.0</ele><time>2026-04-07T07:32:46Z</time></trkpt><trkpt lat="45.83563029097967" lon="9.39373843911865"><ele>208.49999999999997</ele><time>2026-04-07T07:32:48Z</time></trkpt><trkpt lat="45.835510087611624" lon="9.393687510817694"><ele>209.0</ele><time>2026-04-07T07:32:50Z</time></trkpt><trkpt lat="45.835446958078734" lon="9.39367224981178"><ele>209.5</ele><time>2026-04-07T07:32:51Z</time></trkpt><trkpt lat="45.83538344862277" lon="9.393657143649998"><ele>210.0</ele><time>2026-04-07T07:32:52Z</time></trkpt><trkpt lat="45.835319721537" lon="9.393646174656913"><ele>210.49999999999997</ele><time>2026-04-07T07:32:53Z</time></trkpt><trkpt lat="45.83525423826355" lon="9.393638617835606"><ele>211.0</ele><time>2026-04-07T07:32:54Z</time></trkpt><trkpt lat="45.8351883282682" lon="9.39363379259097"><ele>210.85714285714286</ele><time>2026-04-07T07:32:55Z</time></trkpt><trkpt lat="45.835120658524616" lon="9.393637509988187"><ele>210.71428571428572</ele><time>2026-04-07T07:32:56Z</time></trkpt><trkpt lat="45.83505250088181" lon="9.393644379613635"><ele>210.57142857142856</ele><time>2026-04-07T07:32:57Z</time></trkpt><trkpt lat="45.83498393398685" lon="9.393650824075433"><ele>210.42857142857144</ele><time>2026-04-07T07:32:58Z</time></trkpt><trkpt lat="45.8349144670786" lon="9.39365698841803"><ele>210.28571428571428</ele><time>2026-04-07T07:32:59Z</time></trkpt><trkpt lat="45.83484508572042" lon="9.393664710880598"><ele>210.14285714285714</ele><time>2026-04-07T07:33:00Z</time></trkpt><trkpt lat="45.83477462281747" lon="9.39367563483194"><ele>210.0</ele><time>2026-04-07T07:33:01Z</time></trkpt><trkpt lat="45.8347061168092" lon="9.393686977173253"><ele>210.0</ele><time>2026-04-07T07:33:02Z</time></trkpt><trkpt lat="45.83463459900063" lon="9.39369931485938"><ele>210.0</ele><time>2026-04-07T07:33:03Z</time></trkpt><trkpt lat="45.83456369223963" lon="9.39371323747149"><ele>210.0</ele><time>2026-04-07T07:33:04Z</time></trkpt><trkpt lat="45.83449153791706" lon="9.393726686248757"><ele>210.0</ele><time>2026-04-07T07:33:05Z</time></trkpt><trkpt lat="45.83441992061565" lon="9.39374048432987"><ele>210.0</ele><time>2026-04-07T07:33:06Z</time></trkpt><trkpt lat="45.83434596969839" lon="9.39375605932602"><ele>210.0</ele><time>2026-04-07T07:33:07Z</time></trkpt><trkpt lat="45.83426986266571" lon="9.393789405424588"><ele>210.0</ele><time>2026-04-07T07:33:08Z</time></trkpt><trkpt lat="45.8341911487482" lon="9.393829182454542"><ele>208.66666666666666</ele><time>2026-04-07T07:33:09Z</time></trkpt><trkpt lat="45.83410796185343" lon="9.393850113871235"><ele>207.33333333333331</ele><time>2026-04-07T07:33:10Z</time></trkpt><trkpt lat="45.83402496420051" lon="9.3938694133491"><ele>206.0</ele><time>2026-04-07T07:33:11Z</time></trkpt><trkpt lat="45.833941975556" lon="9.393885847172934"><ele>204.66666666666666</ele><time>2026-04-07T07:33:12Z</time></trkpt><trkpt lat="45.833859266759" lon="9.3939010835846"><ele>203.33333333333331</ele><time>2026-04-07T07:33:13Z</time></trkpt><trkpt lat="45.83378033206896" lon="9.393914040975103"><ele>202.0</ele><time>2026-04-07T07:33:14Z</time></trkpt><trkpt lat="45.83370873048775" lon="9.39393689566747"><ele>202.0</ele><time>2026-04-07T07:33:15Z</time></trkpt><trkpt lat="45.83364641522688" lon="9.393995044405935"><ele>202.0</ele><time>2026-04-07T07:33:16Z</time></trkpt><trkpt lat="45.833591358534605" lon="9.394068626339559"><ele>202.0</ele><time>2026-04-07T07:33:17Z</time></trkpt><trkpt lat="45.83354188500998" lon="9.39414632111939"><ele>202.0</ele><time>2026-04-07T07:33:18Z</time></trkpt><trkpt lat="45.83348376093256" lon="9.394211302324967"><ele>202.0</ele><time>2026-04-07T07:33:19Z</time></trkpt><trkpt lat="45.83342220259302" lon="9.394272037644685"><ele>202.0</ele><time>2026-04-07T07:33:20Z</time></trkpt><trkpt lat="45.83335854894229" lon="9.394328640058463"><ele>202.0</ele><time>2026-04-07T07:33:21Z</time></trkpt><trkpt lat="45.83329739043119" lon="9.394391573984938"><ele>202.0</ele><time>2026-04-07T07:33:22Z</time></trkpt><trkpt lat="45.833237271892045" lon="9.394455520429254"><ele>202.0</ele><time>2026-04-07T07:33:23Z</time></trkpt><trkpt lat="45.83317699383462" lon="9.394518768846114"><ele>202.0</ele><time>2026-04-07T07:33:24Z</time></trkpt><trkpt lat="45.833116480407845" lon="9.394579999412654"><ele>202.0</ele><time>2026-04-07T07:33:25Z</time></trkpt><trkpt lat="45.83305445595038" lon="9.394637723979208"><ele>202.0</ele><time>2026-04-07T07:33:26Z</time></trkpt><trkpt lat="45.83299288230657" lon="9.394693469234214"><ele>202.0</ele><time>2026-04-07T07:33:27Z</time></trkpt><trkpt lat="45.832933140810056" lon="9.394753544873373"><ele>202.0</ele><time>2026-04-07T07:33:28Z</time></trkpt><trkpt lat="45.83286849360106" lon="9.394804356620119"><ele>201.99999999999997</ele><time>2026-04-07T07:33:29Z</time></trkpt><trkpt lat="45.83280250822274" lon="9.394853647591837"><ele>202.0</ele><time>2026-04-07T07:33:30Z</time></trkpt><trkpt lat="45.83273574374918" lon="9.394903533797782"><ele>202.0</ele><time>2026-04-07T07:33:31Z</time></trkpt><trkpt lat="45.83266774811306" lon="9.394954575967114"><ele>202.0</ele><time>2026-04-07T07:33:32Z</time></trkpt><trkpt lat="45.83259986964972" lon="9.395004256304574"><ele>201.99999999999997</ele><time>2026-04-07T07:33:33Z</time></trkpt><trkpt lat="45.832529351007175" lon="9.395049710061942"><ele>202.0</ele><time>2026-04-07T07:33:34Z</time></trkpt><trkpt lat="45.832459342773355" lon="9.395090964846228"><ele>202.83333333333331</ele><time>2026-04-07T07:33:35Z</time></trkpt><trkpt lat="45.83238888114968" lon="9.395130474450493"><ele>203.66666666666666</ele><time>2026-04-07T07:33:36Z</time></trkpt><trkpt lat="45.832316288275635" lon="9.395161560136366"><ele>204.5</ele><time>2026-04-07T07:33:37Z</time></trkpt><trkpt lat="45.8322418538737" lon="9.395193732600822"><ele>205.33333333333331</ele><time>2026-04-07T07:33:38Z</time></trkpt><trkpt lat="45.83216727599824" lon="9.395223413466864"><ele>206.16666666666666</ele><time>2026-04-07T07:33:39Z</time></trkpt><trkpt lat="45.83208979842236" lon="9.395247449715278"><ele>207.0</ele><time>2026-04-07T07:33:40Z</time></trkpt><trkpt lat="45.832012659115996" lon="9.395267067106657"><ele>207.0</ele><time>2026-04-07T07:33:41Z</time></trkpt><trkpt lat="45.831934766168615" lon="9.395287118296359"><ele>207.0</ele><time>2026-04-07T07:33:42Z</time></trkpt><trkpt lat="45.831857990849215" lon="9.395307220595555"><ele>207.0</ele><time>2026-04-07T07:33:43Z</time></trkpt><trkpt lat="45.83177980866514" lon="9.395321757662776"><ele>207.0</ele><time>2026-04-07T07:33:44Z</time></trkpt><trkpt lat="45.8317031261437" lon="9.395338291687025"><ele>207.0</ele><time>2026-04-07T07:33:45Z</time></trkpt><trkpt lat="45.83162710517073" lon="9.395354069814593"><ele>207.0</ele><time>2026-04-07T07:33:46Z</time></trkpt><trkpt lat="45.83155088322478" lon="9.395369386833046"><ele>207.16666666666666</ele><time>2026-04-07T07:33:47Z</time></trkpt><trkpt lat="45.831477326673934" lon="9.395389246984262"><ele>207.33333333333331</ele><time>2026-04-07T07:33:48Z</time></trkpt><trkpt lat="45.83140070955944" lon="9.395404740242233"><ele>207.5</ele><time>2026-04-07T07:33:49Z</time></trkpt><trkpt lat="45.83132320903154" lon="9.39541994181327"><ele>207.66666666666666</ele><time>2026-04-07T07:33:50Z</time></trkpt><trkpt lat="45.831245445098396" lon="9.395436375619491"><ele>207.83333333333331</ele><time>2026-04-07T07:33:51Z</time></trkpt><trkpt lat="45.831165842625786" lon="9.395449006448457"><ele>208.0</ele><time>2026-04-07T07:33:52Z</time></trkpt><trkpt lat="45.83108735032399" lon="9.395459168307347"><ele>207.99999999999997</ele><time>2026-04-07T07:33:53Z</time></trkpt><trkpt lat="45.831009035003206" lon="9.395471909851388"><ele>208.0</ele><time>2026-04-07T07:33:54Z</time></trkpt><trkpt lat="45.83093198385327" lon="9.39548732543554"><ele>208.0</ele><time>2026-04-07T07:33:55Z</time></trkpt><trkpt lat="45.83085495904943" lon="9.39550225265042"><ele>208.0</ele><time>2026-04-07T07:33:56Z</time></trkpt><trkpt lat="45.83077690271209" lon="9.395517527408785"><ele>207.99999999999997</ele><time>2026-04-07T07:33:57Z</time></trkpt><trkpt lat="45.83070006364408" lon="9.395533955035026"><ele>208.0</ele><time>2026-04-07T07:33:58Z</time></trkpt><trkpt lat="45.83062343036327" lon="9.39555026124489"><ele>206.83333333333331</ele><time>2026-04-07T07:33:59Z</time></trkpt><trkpt lat="45.83054594570237" lon="9.395563653179869"><ele>205.66666666666666</ele><time>2026-04-07T07:34:00Z</time></trkpt><trkpt lat="45.83046662231515" lon="9.395577951005363"><ele>204.5</ele><time>2026-04-07T07:34:01Z</time></trkpt><trkpt lat="45.830388415606194" lon="9.395592981932785"><ele>203.33333333333331</ele><time>2026-04-07T07:34:02Z</time></trkpt><trkpt lat="45.83031146667212" lon="9.39560749119844"><ele>202.16666666666666</ele><time>2026-04-07T07:34:02.999Z</time></trkpt><trkpt lat="45.8302342089759" lon="9.39562432688898"><ele>201.0</ele><time>2026-04-07T07:34:03.999Z</time></trkpt><trkpt lat="45.83015780611585" lon="9.395639772429353"><ele>201.5</ele><time>2026-04-07T07:34:04.999Z</time></trkpt><trkpt lat="45.83008068960331" lon="9.395657046294364"><ele>202.0</ele><time>2026-04-07T07:34:05.999Z</time></trkpt><trkpt lat="45.8300045733981" lon="9.395673600933574"><ele>202.5</ele><time>2026-04-07T07:34:06.999Z</time></trkpt><trkpt lat="45.829927290011945" lon="9.39568849947137"><ele>203.0</ele><time>2026-04-07T07:34:07.999Z</time></trkpt><trkpt lat="45.829850679194244" lon="9.395703577903161"><ele>203.5</ele><time>2026-04-07T07:34:08.999Z</time></trkpt><trkpt lat="45.82977328980234" lon="9.395721405349835"><ele>204.0</ele><time>2026-04-07T07:34:09.999Z</time></trkpt><trkpt lat="45.82969513257617" lon="9.395738164322012"><ele>204.0</ele><time>2026-04-07T07:34:10.999Z</time></trkpt><trkpt lat="45.82961892006672" lon="9.395756153022084"><ele>204.0</ele><time>2026-04-07T07:34:11.999Z</time></trkpt><trkpt lat="45.829540832963744" lon="9.395770941994952"><ele>204.0</ele><time>2026-04-07T07:34:12.999Z</time></trkpt><trkpt lat="45.82946264126848" lon="9.395786469134947"><ele>204.0</ele><time>2026-04-07T07:34:13.999Z</time></trkpt><trkpt lat="45.8293856455991" lon="9.395803404250403"><ele>204.0</ele><time>2026-04-07T07:34:14.999Z</time></trkpt><trkpt lat="45.82931021531089" lon="9.395821799318858"><ele>204.0</ele><time>2026-04-07T07:34:15.999Z</time></trkpt><trkpt lat="45.82923444917698" lon="9.395839527632573"><ele>204.14285714285714</ele><time>2026-04-07T07:34:16.999Z</time></trkpt><trkpt lat="45.82915785639019" lon="9.395852956788824"><ele>204.28571428571428</ele><time>2026-04-07T07:34:17.999Z</time></trkpt><trkpt lat="45.82908271629243" lon="9.395863753394497"><ele>204.42857142857144</ele><time>2026-04-07T07:34:18.999Z</time></trkpt><trkpt lat="45.82900958773668" lon="9.395872047542676"><ele>204.57142857142856</ele><time>2026-04-07T07:34:19.999Z</time></trkpt><trkpt lat="45.82893867248245" lon="9.39587669944854"><ele>204.7142857142857</ele><time>2026-04-07T07:34:20.999Z</time></trkpt><trkpt lat="45.82886772814988" lon="9.39587808079395"><ele>204.85714285714286</ele><time>2026-04-07T07:34:21.999Z</time></trkpt><trkpt lat="45.82880021033482" lon="9.395880425527972"><ele>205.0</ele><time>2026-04-07T07:34:22.999Z</time></trkpt><trkpt lat="45.82873284989684" lon="9.39588306835943"><ele>205.0</ele><time>2026-04-07T07:34:23.999Z</time></trkpt><trkpt lat="45.828663763694735" lon="9.395883179530767"><ele>205.0</ele><time>2026-04-07T07:34:24.999Z</time></trkpt><trkpt lat="45.82859398518564" lon="9.395880123618866"><ele>205.0</ele><time>2026-04-07T07:34:25.999Z</time></trkpt><trkpt lat="45.82852159763001" lon="9.395877564105142"><ele>205.0</ele><time>2026-04-07T07:34:26.999Z</time></trkpt><trkpt lat="45.8284489437772" lon="9.39587745460717"><ele>205.0</ele><time>2026-04-07T07:34:27.999Z</time></trkpt><trkpt lat="45.82837453696202" lon="9.395875849366629"><ele>205.0</ele><time>2026-04-07T07:34:28.999Z</time></trkpt><trkpt lat="45.828302259964296" lon="9.395866999310027"><ele>205.0</ele><time>2026-04-07T07:34:29.999Z</time></trkpt><trkpt lat="45.8282295480483" lon="9.395857750523902"><ele>205.0</ele><time>2026-04-07T07:34:30.999Z</time></trkpt><trkpt lat="45.828158059008416" lon="9.395851303522424"><ele>205.0</ele><time>2026-04-07T07:34:31.999Z</time></trkpt><trkpt lat="45.828088465819214" lon="9.39584400540276"><ele>205.0</ele><time>2026-04-07T07:34:32.999Z</time></trkpt><trkpt lat="45.82802051108444" lon="9.3958279517774"><ele>205.0</ele><time>2026-04-07T07:34:33.999Z</time></trkpt><trkpt lat="45.82795350111893" lon="9.395810208981413"><ele>205.0</ele><time>2026-04-07T07:34:34.999Z</time></trkpt><trkpt lat="45.82788717987274" lon="9.395795428376381"><ele>205.0</ele><time>2026-04-07T07:34:35.999Z</time></trkpt><trkpt lat="45.82782054272562" lon="9.395784463420146"><ele>205.0</ele><time>2026-04-07T07:34:36.999Z</time></trkpt><trkpt lat="45.82775432548739" lon="9.395773843095252"><ele>205.0</ele><time>2026-04-07T07:34:37.999Z</time></trkpt><trkpt lat="45.82769243782477" lon="9.395752641960835"><ele>205.0</ele><time>2026-04-07T07:34:38.999Z</time></trkpt><trkpt lat="45.827609777499106" lon="9.395702575366608"><ele>205.0</ele><time>2026-04-07T07:34:41Z</time></trkpt><trkpt lat="45.827532405685446" lon="9.395684030980556"><ele>205.0</ele><time>2026-04-07T07:34:44Z</time></trkpt><trkpt lat="45.82763259961858" lon="9.39585606034407"><ele>205.0</ele><time>2026-04-07T07:34:49Z</time></trkpt><trkpt lat="45.827563604410194" lon="9.396158984458365"><ele>204.75</ele><time>2026-04-07T07:34:51Z</time></trkpt><trkpt lat="45.827635864521504" lon="9.39593804215703"><ele>204.5</ele><time>2026-04-07T07:34:52Z</time></trkpt><trkpt lat="45.82764143090852" lon="9.3960741521978"><ele>204.25</ele><time>2026-04-07T07:34:54Z</time></trkpt><trkpt lat="45.82763597033093" lon="9.396170783627607"><ele>204.0</ele><time>2026-04-07T07:34:56Z</time></trkpt><trkpt lat="45.82740232856056" lon="9.396052271322267"><ele>204.0</ele><time>2026-04-07T07:35:07Z</time></trkpt><trkpt lat="45.82729226755323" lon="9.396035873414865"><ele>204.0</ele><time>2026-04-07T07:35:09Z</time></trkpt><trkpt lat="45.827192384065135" lon="9.396028937610629"><ele>204.0</ele><time>2026-04-07T07:35:11Z</time></trkpt><trkpt lat="45.82709190266488" lon="9.396021960470463"><ele>204.0</ele><time>2026-04-07T07:35:13Z</time></trkpt><trkpt lat="45.826974626932056" lon="9.396143254958771"><ele>204.0</ele><time>2026-04-07T07:35:15Z</time></trkpt><trkpt lat="45.826859280732364" lon="9.396137369973747"><ele>204.0</ele><time>2026-04-07T07:35:17Z</time></trkpt><trkpt lat="45.82684595191407" lon="9.39561977182996"><ele>204.25</ele><time>2026-04-07T07:35:18Z</time></trkpt><trkpt lat="45.8267236622112" lon="9.395597096937031"><ele>204.5</ele><time>2026-04-07T07:35:20Z</time></trkpt><trkpt lat="45.82659988114456" lon="9.395574145496942"><ele>204.75</ele><time>2026-04-07T07:35:22Z</time></trkpt><trkpt lat="45.826477649797845" lon="9.395551481434968"><ele>205.0</ele><time>2026-04-07T07:35:24Z</time></trkpt><trkpt lat="45.826364938329796" lon="9.39553021552008"><ele>205.0</ele><time>2026-04-07T07:35:26Z</time></trkpt><trkpt lat="45.82625813888491" lon="9.395509662944855"><ele>205.0</ele><time>2026-04-07T07:35:28Z</time></trkpt><trkpt lat="45.826149130801944" lon="9.395488827407037"><ele>205.0</ele><time>2026-04-07T07:35:30Z</time></trkpt><trkpt lat="45.826034033075004" lon="9.395467355143959"><ele>205.0</ele><time>2026-04-07T07:35:32Z</time></trkpt><trkpt lat="45.8259084318978" lon="9.395443891331956"><ele>205.2857142857143</ele><time>2026-04-07T07:35:34Z</time></trkpt><trkpt lat="45.825842010950936" lon="9.395431472732316"><ele>205.57142857142856</ele><time>2026-04-07T07:35:35Z</time></trkpt><trkpt lat="45.825775973684884" lon="9.395419125859382"><ele>205.85714285714286</ele><time>2026-04-07T07:35:36Z</time></trkpt><trkpt lat="45.82571014303978" lon="9.39540681760729"><ele>206.14285714285717</ele><time>2026-04-07T07:35:37Z</time></trkpt><trkpt lat="45.82564270243807" lon="9.395394208355299"><ele>206.42857142857144</ele><time>2026-04-07T07:35:38Z</time></trkpt><trkpt lat="45.82557409831574" lon="9.395381381557543"><ele>206.71428571428572</ele><time>2026-04-07T07:35:39Z</time></trkpt><trkpt lat="45.82550566805642" lon="9.39536858726955"><ele>207.0</ele><time>2026-04-07T07:35:40Z</time></trkpt><trkpt lat="45.82543738627912" lon="9.395355820739516"><ele>207.00000000000003</ele><time>2026-04-07T07:35:41Z</time></trkpt><trkpt lat="45.82537125768532" lon="9.395343759129828"><ele>207.0</ele><time>2026-04-07T07:35:42Z</time></trkpt><trkpt lat="45.825305463231714" lon="9.395331775165817"><ele>207.0</ele><time>2026-04-07T07:35:43Z</time></trkpt><trkpt lat="45.825239067071934" lon="9.395319681604159"><ele>207.0</ele><time>2026-04-07T07:35:44Z</time></trkpt><trkpt lat="45.82517100660645" lon="9.395307284900868"><ele>207.0</ele><time>2026-04-07T07:35:45Z</time></trkpt><trkpt lat="45.82510263368687" lon="9.39529483127756"><ele>207.00000000000003</ele><time>2026-04-07T07:35:46Z</time></trkpt><trkpt lat="45.82503106305488" lon="9.395281795221974"><ele>207.0</ele><time>2026-04-07T07:35:47Z</time></trkpt><trkpt lat="45.82496373863971" lon="9.395269532588149"><ele>206.71428571428572</ele><time>2026-04-07T07:35:48Z</time></trkpt><trkpt lat="45.824894625644646" lon="9.395256944171393"><ele>206.42857142857144</ele><time>2026-04-07T07:35:49Z</time></trkpt><trkpt lat="45.824828979917726" lon="9.395244987289137"><ele>206.14285714285717</ele><time>2026-04-07T07:35:50Z</time></trkpt><trkpt lat="45.82476333364695" lon="9.395233030315346"><ele>205.85714285714286</ele><time>2026-04-07T07:35:51Z</time></trkpt><trkpt lat="45.824699861622776" lon="9.395221469358452"><ele>205.57142857142856</ele><time>2026-04-07T07:35:52Z</time></trkpt><trkpt lat="45.82463586848697" lon="9.395209813496733"><ele>205.2857142857143</ele><time>2026-04-07T07:35:53Z</time></trkpt><trkpt lat="45.82457086079042" lon="9.395197972830932"><ele>205.0</ele><time>2026-04-07T07:35:54Z</time></trkpt><trkpt lat="45.82450645676345" lon="9.395186242119262"><ele>204.99999999999997</ele><time>2026-04-07T07:35:55Z</time></trkpt><trkpt lat="45.8244395129559" lon="9.395174048805343"><ele>205.0</ele><time>2026-04-07T07:35:56Z</time></trkpt><trkpt lat="45.82436141896373" lon="9.395162231624274"><ele>205.0</ele><time>2026-04-07T07:35:57Z</time></trkpt><trkpt lat="45.824256945369854" lon="9.39519534035508"><ele>205.0</ele><time>2026-04-07T07:35:59Z</time></trkpt><trkpt lat="45.82419122455451" lon="9.395246156227525"><ele>204.99999999999997</ele><time>2026-04-07T07:36:01Z</time></trkpt><trkpt lat="45.8241281519203" lon="9.395222944645134"><ele>205.0</ele><time>2026-04-07T07:36:02Z</time></trkpt><trkpt lat="45.824073622764274" lon="9.395098225785711"><ele>205.0</ele><time>2026-04-07T07:36:03Z</time></trkpt><trkpt lat="45.824010819359096" lon="9.395085986859947"><ele>205.0</ele><time>2026-04-07T07:36:04Z</time></trkpt><trkpt lat="45.82394590146377" lon="9.395073335792992"><ele>205.0</ele><time>2026-04-07T07:36:05Z</time></trkpt><trkpt lat="45.823880037712364" lon="9.395062130210508"><ele>205.0</ele><time>2026-04-07T07:36:06Z</time></trkpt><trkpt lat="45.82375279809404" lon="9.395040623347738"><ele>205.0</ele><time>2026-04-07T07:36:08Z</time></trkpt><trkpt lat="45.8236070460362" lon="9.395025039976376"><ele>205.0</ele><time>2026-04-07T07:36:10Z</time></trkpt><trkpt lat="45.82353115978279" lon="9.395022506824422"><ele>205.0</ele><time>2026-04-07T07:36:11Z</time></trkpt><trkpt lat="45.823453939003706" lon="9.395023663730836"><ele>205.0</ele><time>2026-04-07T07:36:12Z</time></trkpt><trkpt lat="45.823396256334384" lon="9.395582014789273"><ele>204.8</ele><time>2026-04-07T07:36:13Z</time></trkpt><trkpt lat="45.823331938705934" lon="9.395619730911402"><ele>204.6</ele><time>2026-04-07T07:36:14Z</time></trkpt><trkpt lat="45.823269813198515" lon="9.395654275676746"><ele>204.39999999999998</ele><time>2026-04-07T07:36:15Z</time></trkpt><trkpt lat="45.8232050772827" lon="9.395691421096956"><ele>204.2</ele><time>2026-04-07T07:36:16Z</time></trkpt><trkpt lat="45.8231362435818" lon="9.395720364295775"><ele>204.0</ele><time>2026-04-07T07:36:17Z</time></trkpt><trkpt lat="45.82305884730768" lon="9.395242287116709"><ele>204.0</ele><time>2026-04-07T07:36:18Z</time></trkpt><trkpt lat="45.82299495820899" lon="9.395243690373404"><ele>204.0</ele><time>2026-04-07T07:36:19Z</time></trkpt><trkpt lat="45.82293762107835" lon="9.395686726818129"><ele>204.0</ele><time>2026-04-07T07:36:20Z</time></trkpt><trkpt lat="45.82287420337749" lon="9.395674680314423"><ele>204.0</ele><time>2026-04-07T07:36:21Z</time></trkpt><trkpt lat="45.82280794227478" lon="9.395666000223963"><ele>204.0</ele><time>2026-04-07T07:36:22Z</time></trkpt><trkpt lat="45.82274329539681" lon="9.39565899664266"><ele>204.0</ele><time>2026-04-07T07:36:23Z</time></trkpt><trkpt lat="45.82269560688789" lon="9.395042423219698"><ele>204.16666666666666</ele><time>2026-04-07T07:36:24Z</time></trkpt><trkpt lat="45.82260770223872" lon="9.39503259719518"><ele>204.33333333333331</ele><time>2026-04-07T07:36:26Z</time></trkpt><trkpt lat="45.822497848721206" lon="9.3950132007694"><ele>204.5</ele><time>2026-04-07T07:36:28Z</time></trkpt><trkpt lat="45.82243238407361" lon="9.395000297056157"><ele>204.66666666666666</ele><time>2026-04-07T07:36:29Z</time></trkpt><trkpt lat="45.8223687609728" lon="9.394987561529302"><ele>204.83333333333331</ele><time>2026-04-07T07:36:30Z</time></trkpt><trkpt lat="45.82229767913866" lon="9.394972862916257"><ele>205.0</ele><time>2026-04-07T07:36:31Z</time></trkpt><trkpt lat="45.822227790322145" lon="9.39495841101686"><ele>205.0</ele><time>2026-04-07T07:36:32Z</time></trkpt><trkpt lat="45.82215217441504" lon="9.39494364688178"><ele>205.0</ele><time>2026-04-07T07:36:32.999Z</time></trkpt><trkpt lat="45.82208496288881" lon="9.394932351440238"><ele>205.0</ele><time>2026-04-07T07:36:33.999Z</time></trkpt><trkpt lat="45.822020055482646" lon="9.394921443879785"><ele>205.0</ele><time>2026-04-07T07:36:34.999Z</time></trkpt><trkpt lat="45.82194386142751" lon="9.394915637520484"><ele>205.0</ele><time>2026-04-07T07:36:35.999Z</time></trkpt><trkpt lat="45.8218728552241" lon="9.39490920531696"><ele>205.0</ele><time>2026-04-07T07:36:36.999Z</time></trkpt><trkpt lat="45.82180403408108" lon="9.39490343881225"><ele>205.0</ele><time>2026-04-07T07:36:37.999Z</time></trkpt><trkpt lat="45.82173894666735" lon="9.394899287851274"><ele>204.4</ele><time>2026-04-07T07:36:38.999Z</time></trkpt><trkpt lat="45.82166372268434" lon="9.39489585625506"><ele>203.8</ele><time>2026-04-07T07:36:39.999Z</time></trkpt><trkpt lat="45.82154734860733" lon="9.394896744932494"><ele>203.2</ele><time>2026-04-07T07:36:41.999Z</time></trkpt><trkpt lat="45.8214739415452" lon="9.394899661157094"><ele>202.6</ele><time>2026-04-07T07:36:43.999Z</time></trkpt><trkpt lat="45.821381094126146" lon="9.394906841196649"><ele>202.0</ele><time>2026-04-07T07:36:47Z</time></trkpt><trkpt lat="45.82127808640846" lon="9.394917245957416"><ele>202.0</ele><time>2026-04-07T07:36:49Z</time></trkpt><trkpt lat="45.82115829088296" lon="9.394936326623709"><ele>202.0</ele><time>2026-04-07T07:36:51Z</time></trkpt><trkpt lat="45.821089203361964" lon="9.394952253307512"><ele>202.0</ele><time>2026-04-07T07:36:52Z</time></trkpt><trkpt lat="45.82096790842984" lon="9.394984397433475"><ele>202.0</ele><time>2026-04-07T07:36:54Z</time></trkpt><trkpt lat="45.82089629719436" lon="9.395005422260777"><ele>202.0</ele><time>2026-04-07T07:36:55Z</time></trkpt><trkpt lat="45.820831944048464" lon="9.395028108154566"><ele>202.5</ele><time>2026-04-07T07:36:56Z</time></trkpt><trkpt lat="45.82076610237184" lon="9.3950538788283"><ele>203.0</ele><time>2026-04-07T07:36:57Z</time></trkpt><trkpt lat="45.820690605770764" lon="9.39508532276897"><ele>203.5</ele><time>2026-04-07T07:36:58Z</time></trkpt><trkpt lat="45.82069365445801" lon="9.39550425505449"><ele>204.0</ele><time>2026-04-07T07:36:59Z</time></trkpt><trkpt lat="45.82061420886724" lon="9.395540904247886"><ele>203.0</ele><time>2026-04-07T07:37:00Z</time></trkpt><trkpt lat="45.82053237417405" lon="9.395565231037708"><ele>202.0</ele><time>2026-04-07T07:37:01Z</time></trkpt><trkpt lat="45.82045510870958" lon="9.395594103497949"><ele>201.0</ele><time>2026-04-07T07:37:02Z</time></trkpt><trkpt lat="45.82037908293068" lon="9.395625319648738"><ele>200.0</ele><time>2026-04-07T07:37:03Z</time></trkpt><trkpt lat="45.820304592202945" lon="9.39565553875903"><ele>199.0</ele><time>2026-04-07T07:37:04Z</time></trkpt><trkpt lat="45.82023136319083" lon="9.39566703245193"><ele>198.0</ele><time>2026-04-07T07:37:05Z</time></trkpt><trkpt lat="45.82015749641062" lon="9.395669017379525"><ele>198.75</ele><time>2026-04-07T07:37:06Z</time></trkpt><trkpt lat="45.82008670699359" lon="9.39565304005785"><ele>199.5</ele><time>2026-04-07T07:37:07Z</time></trkpt><trkpt lat="45.81996081264902" lon="9.395444721530742"><ele>200.25</ele><time>2026-04-07T07:37:08Z</time></trkpt><trkpt lat="45.81989336080619" lon="9.395479206847236"><ele>201.0</ele><time>2026-04-07T07:37:09Z</time></trkpt><trkpt lat="45.81977854181914" lon="9.395538278089136"><ele>201.0</ele><time>2026-04-07T07:37:11Z</time></trkpt><trkpt lat="45.81966601917091" lon="9.39559643097666"><ele>201.0</ele><time>2026-04-07T07:37:13Z</time></trkpt><trkpt lat="45.81960230991064" lon="9.395629356516743"><ele>201.0</ele><time>2026-04-07T07:37:14Z</time></trkpt><trkpt lat="45.819539903028996" lon="9.395661609030647"><ele>201.0</ele><time>2026-04-07T07:37:15Z</time></trkpt><trkpt lat="45.81941776196757" lon="9.395724732783151"><ele>201.0</ele><time>2026-04-07T07:37:17Z</time></trkpt><trkpt lat="45.81934998041445" lon="9.395759762955132"><ele>201.42857142857142</ele><time>2026-04-07T07:37:18Z</time></trkpt><trkpt lat="45.81928033088217" lon="9.395795758521754"><ele>201.85714285714286</ele><time>2026-04-07T07:37:19Z</time></trkpt><trkpt lat="45.8192105138077" lon="9.395831840688228"><ele>202.28571428571428</ele><time>2026-04-07T07:37:20Z</time></trkpt><trkpt lat="45.819140518786256" lon="9.39586799800727"><ele>202.71428571428572</ele><time>2026-04-07T07:37:21Z</time></trkpt><trkpt lat="45.81906973205661" lon="9.395904563263768"><ele>203.14285714285717</ele><time>2026-04-07T07:37:22Z</time></trkpt><trkpt lat="45.819005655176014" lon="9.39593705889916"><ele>203.57142857142858</ele><time>2026-04-07T07:37:23Z</time></trkpt><trkpt lat="45.818935822487084" lon="9.395972004238825"><ele>204.0</ele><time>2026-04-07T07:37:24Z</time></trkpt><trkpt lat="45.81886525353144" lon="9.39600731804012"><ele>204.0</ele><time>2026-04-07T07:37:25Z</time></trkpt><trkpt lat="45.81879215452845" lon="9.396043897907214"><ele>204.0</ele><time>2026-04-07T07:37:26Z</time></trkpt><trkpt lat="45.81872252230869" lon="9.396078742941743"><ele>204.0</ele><time>2026-04-07T07:37:27Z</time></trkpt><trkpt lat="45.818651879054535" lon="9.396114093914713"><ele>204.0</ele><time>2026-04-07T07:37:28Z</time></trkpt><trkpt lat="45.81858020798436" lon="9.396149959227627"><ele>204.0</ele><time>2026-04-07T07:37:29Z</time></trkpt><trkpt lat="45.81850812690152" lon="9.396186029819884"><ele>204.0</ele><time>2026-04-07T07:37:30Z</time></trkpt><trkpt lat="45.818432967731866" lon="9.396224344739386"><ele>204.0</ele><time>2026-04-07T07:37:31Z</time></trkpt><trkpt lat="45.8183603808677" lon="9.396261271837208"><ele>204.0</ele><time>2026-04-07T07:37:32Z</time></trkpt><trkpt lat="45.818288990050426" lon="9.396296960060186"><ele>204.0</ele><time>2026-04-07T07:37:33Z</time></trkpt><trkpt lat="45.81821531037748" lon="9.396334269595439"><ele>204.0</ele><time>2026-04-07T07:37:34Z</time></trkpt><trkpt lat="45.81814394582957" lon="9.396370801950436"><ele>204.0</ele><time>2026-04-07T07:37:35Z</time></trkpt><trkpt lat="45.81807120678965" lon="9.396408037886077"><ele>204.0</ele><time>2026-04-07T07:37:36Z</time></trkpt><trkpt lat="45.81800154522929" lon="9.396443698457857"><ele>204.0</ele><time>2026-04-07T07:37:37Z</time></trkpt><trkpt lat="45.81793586731237" lon="9.396477319733366"><ele>204.0</ele><time>2026-04-07T07:37:38Z</time></trkpt><trkpt lat="45.81786431572941" lon="9.396513949034508"><ele>204.0</ele><time>2026-04-07T07:37:39Z</time></trkpt><trkpt lat="45.817793651617734" lon="9.396549972374375"><ele>204.0</ele><time>2026-04-07T07:37:40Z</time></trkpt><trkpt lat="45.81772025066778" lon="9.396587373112153"><ele>204.0</ele><time>2026-04-07T07:37:41Z</time></trkpt><trkpt lat="45.817648110121155" lon="9.396624078827674"><ele>204.0</ele><time>2026-04-07T07:37:42Z</time></trkpt><trkpt lat="45.81757904087933" lon="9.396659220281283"><ele>204.0</ele><time>2026-04-07T07:37:43Z</time></trkpt><trkpt lat="45.817509907291" lon="9.396694656708933"><ele>203.6</ele><time>2026-04-07T07:37:44Z</time></trkpt><trkpt lat="45.817442643839726" lon="9.396728927092484"><ele>203.2</ele><time>2026-04-07T07:37:45Z</time></trkpt><trkpt lat="45.81737766038506" lon="9.396762035749452"><ele>202.79999999999998</ele><time>2026-04-07T07:37:46Z</time></trkpt><trkpt lat="45.81731618864237" lon="9.396793355365986"><ele>202.39999999999998</ele><time>2026-04-07T07:37:47Z</time></trkpt><trkpt lat="45.81719524219454" lon="9.396854976885127"><ele>202.0</ele><time>2026-04-07T07:37:49Z</time></trkpt><trkpt lat="45.81707807823411" lon="9.396914100876797"><ele>201.99999999999997</ele><time>2026-04-07T07:37:51Z</time></trkpt><trkpt lat="45.8170104705324" lon="9.396948126212417"><ele>202.0</ele><time>2026-04-07T07:37:52Z</time></trkpt><trkpt lat="45.81694473374029" lon="9.396981209864599"><ele>202.0</ele><time>2026-04-07T07:37:53Z</time></trkpt><trkpt lat="45.81683886453417" lon="9.397034491117052"><ele>202.0</ele><time>2026-04-07T07:37:55Z</time></trkpt><trkpt lat="45.81673936323345" lon="9.397084567575675"><ele>201.99999999999997</ele><time>2026-04-07T07:37:57Z</time></trkpt><trkpt lat="45.81665519509851" lon="9.397126927203061"><ele>202.0</ele><time>2026-04-07T07:37:59Z</time></trkpt><trkpt lat="45.81660435217772" lon="9.397200204314846"><ele>202.75</ele><time>2026-04-07T07:38:02Z</time></trkpt><trkpt lat="45.816503029778254" lon="9.39720323307274"><ele>203.5</ele><time>2026-04-07T07:38:04Z</time></trkpt><trkpt lat="45.81642783808369" lon="9.397240891152963"><ele>204.25</ele><time>2026-04-07T07:38:06Z</time></trkpt><trkpt lat="45.8163652679051" lon="9.397272228022215"><ele>205.0</ele><time>2026-04-07T07:38:08Z</time></trkpt><trkpt lat="45.816350264696126" lon="9.397978546389622"><ele>205.0</ele><time>2026-04-07T07:38:11Z</time></trkpt><trkpt lat="45.816361782558765" lon="9.398067843522169"><ele>205.0</ele><time>2026-04-07T07:38:24Z</time></trkpt><trkpt lat="45.81639063264816" lon="9.39817082090591"><ele>205.0</ele><time>2026-04-07T07:38:27Z</time></trkpt><trkpt lat="45.8164221966715" lon="9.398258283662003"><ele>205.0</ele><time>2026-04-07T07:38:30Z</time></trkpt><trkpt lat="45.816351798931095" lon="9.397963116284197"><ele>205.0</ele><time>2026-04-07T07:38:40Z</time></trkpt><trkpt lat="45.816311334134866" lon="9.397827818469821"><ele>205.0</ele><time>2026-04-07T07:38:42Z</time></trkpt><trkpt lat="45.81627524328882" lon="9.397677735952188"><ele>205.0</ele><time>2026-04-07T07:38:44Z</time></trkpt><trkpt lat="45.81624735359235" lon="9.397548193268213"><ele>205.0</ele><time>2026-04-07T07:38:46Z</time></trkpt><trkpt lat="45.816222651088495" lon="9.397460834813176"><ele>205.0</ele><time>2026-04-07T07:38:50Z</time></trkpt><trkpt lat="45.81613255226061" lon="9.39743077252899"><ele>205.0</ele><time>2026-04-07T07:38:54Z</time></trkpt><trkpt lat="45.81604232178776" lon="9.397416193821227"><ele>205.2</ele><time>2026-04-07T07:38:56Z</time></trkpt><trkpt lat="45.81593425914648" lon="9.397478710686759"><ele>205.4</ele><time>2026-04-07T07:38:58Z</time></trkpt><trkpt lat="45.81581671140632" lon="9.3975436966402"><ele>205.60000000000002</ele><time>2026-04-07T07:39:00Z</time></trkpt><trkpt lat="45.81569740862819" lon="9.397606282944189"><ele>205.8</ele><time>2026-04-07T07:39:02Z</time></trkpt><trkpt lat="45.815637481713864" lon="9.397636765559941"><ele>206.0</ele><time>2026-04-07T07:39:03Z</time></trkpt><trkpt lat="45.815573782056894" lon="9.397667422206274"><ele>205.99999999999997</ele><time>2026-04-07T07:39:04Z</time></trkpt><trkpt lat="45.815509755626174" lon="9.397699381291533"><ele>206.0</ele><time>2026-04-07T07:39:05Z</time></trkpt><trkpt lat="45.81544434947635" lon="9.39773341459221"><ele>206.0</ele><time>2026-04-07T07:39:06Z</time></trkpt><trkpt lat="45.815377902742654" lon="9.397769187221565"><ele>206.0</ele><time>2026-04-07T07:39:07Z</time></trkpt><trkpt lat="45.81531269132917" lon="9.397807894598404"><ele>206.0</ele><time>2026-04-07T07:39:08Z</time></trkpt><trkpt lat="45.81524646260843" lon="9.397842697272775"><ele>205.99999999999997</ele><time>2026-04-07T07:39:09Z</time></trkpt><trkpt lat="45.81517978664309" lon="9.397876343460565"><ele>206.0</ele><time>2026-04-07T07:39:10Z</time></trkpt><trkpt lat="45.81511242794996" lon="9.397909180094219"><ele>205.99999999999997</ele><time>2026-04-07T07:39:11Z</time></trkpt><trkpt lat="45.8150432410052" lon="9.397941354093348"><ele>206.0</ele><time>2026-04-07T07:39:12Z</time></trkpt><trkpt lat="45.814976225035224" lon="9.397974107265343"><ele>206.0</ele><time>2026-04-07T07:39:13Z</time></trkpt><trkpt lat="45.81490843841622" lon="9.39800855537994"><ele>206.0</ele><time>2026-04-07T07:39:14Z</time></trkpt><trkpt lat="45.814841627807446" lon="9.398040951496004"><ele>206.0</ele><time>2026-04-07T07:39:15Z</time></trkpt><trkpt lat="45.814773126243644" lon="9.398075106927488"><ele>205.99999999999997</ele><time>2026-04-07T07:39:16Z</time></trkpt><trkpt lat="45.81470441638038" lon="9.398109608389497"><ele>206.0</ele><time>2026-04-07T07:39:17Z</time></trkpt><trkpt lat="45.81463486025358" lon="9.39814404590701"><ele>206.00000000000003</ele><time>2026-04-07T07:39:18Z</time></trkpt><trkpt lat="45.814565120746956" lon="9.39818034564945"><ele>206.0</ele><time>2026-04-07T07:39:19Z</time></trkpt><trkpt lat="45.81449499486023" lon="9.398219558327066"><ele>206.0</ele><time>2026-04-07T07:39:20Z</time></trkpt><trkpt lat="45.814420751876305" lon="9.398250217607105"><ele>206.0</ele><time>2026-04-07T07:39:21Z</time></trkpt><trkpt lat="45.81434807321279" lon="9.398286745936748"><ele>206.00000000000003</ele><time>2026-04-07T07:39:22Z</time></trkpt><trkpt lat="45.81427577911083" lon="9.398325081650041"><ele>206.0</ele><time>2026-04-07T07:39:23Z</time></trkpt><trkpt lat="45.81420304150386" lon="9.398361480079496"><ele>206.33333333333334</ele><time>2026-04-07T07:39:24Z</time></trkpt><trkpt lat="45.81413057946815" lon="9.398397566414593"><ele>206.66666666666669</ele><time>2026-04-07T07:39:25Z</time></trkpt><trkpt lat="45.814058093504634" lon="9.398434580040393"><ele>207.0</ele><time>2026-04-07T07:39:26Z</time></trkpt><trkpt lat="45.8139838484728" lon="9.39847152503773"><ele>207.33333333333331</ele><time>2026-04-07T07:39:27Z</time></trkpt><trkpt lat="45.81390875776227" lon="9.398507432021017"><ele>207.66666666666666</ele><time>2026-04-07T07:39:28Z</time></trkpt><trkpt lat="45.81383560524358" lon="9.398546536722012"><ele>208.0</ele><time>2026-04-07T07:39:29Z</time></trkpt><trkpt lat="45.81376092917141" lon="9.398581468792731"><ele>207.99999999999997</ele><time>2026-04-07T07:39:30Z</time></trkpt><trkpt lat="45.81368796282328" lon="9.39861781115841"><ele>208.0</ele><time>2026-04-07T07:39:31Z</time></trkpt><trkpt lat="45.81361463194202" lon="9.398654431854352"><ele>208.0</ele><time>2026-04-07T07:39:32Z</time></trkpt><trkpt lat="45.81354039912651" lon="9.398693677351208"><ele>208.0</ele><time>2026-04-07T07:39:33Z</time></trkpt><trkpt lat="45.81346649345886" lon="9.398730621191547"><ele>207.99999999999997</ele><time>2026-04-07T07:39:34Z</time></trkpt><trkpt lat="45.81339367945544" lon="9.398769093174804"><ele>208.0</ele><time>2026-04-07T07:39:35Z</time></trkpt><trkpt lat="45.81332162610734" lon="9.398811772078735"><ele>207.66666666666666</ele><time>2026-04-07T07:39:36Z</time></trkpt><trkpt lat="45.81324905258644" lon="9.398855523685757"><ele>207.33333333333331</ele><time>2026-04-07T07:39:37Z</time></trkpt><trkpt lat="45.81317594494494" lon="9.398893367310798"><ele>207.0</ele><time>2026-04-07T07:39:38Z</time></trkpt><trkpt lat="45.81310490582303" lon="9.398923300030965"><ele>206.66666666666669</ele><time>2026-04-07T07:39:39Z</time></trkpt><trkpt lat="45.81303163112695" lon="9.398951677025032"><ele>206.33333333333334</ele><time>2026-04-07T07:39:40Z</time></trkpt><trkpt lat="45.81295250601083" lon="9.3989879272828"><ele>206.0</ele><time>2026-04-07T07:39:41Z</time></trkpt><trkpt lat="45.81287756905816" lon="9.39901490401635"><ele>206.00000000000003</ele><time>2026-04-07T07:39:42Z</time></trkpt><trkpt lat="45.81279794770453" lon="9.399025129198137"><ele>206.0</ele><time>2026-04-07T07:39:43Z</time></trkpt><trkpt lat="45.812721356441926" lon="9.399037260269381"><ele>206.0</ele><time>2026-04-07T07:39:44Z</time></trkpt><trkpt lat="45.812646116527006" lon="9.399068145728572"><ele>206.0</ele><time>2026-04-07T07:39:45Z</time></trkpt><trkpt lat="45.81257733078602" lon="9.399127281733278"><ele>206.00000000000003</ele><time>2026-04-07T07:39:46Z</time></trkpt><trkpt lat="45.81251169919224" lon="9.399193624004566"><ele>206.0</ele><time>2026-04-07T07:39:47Z</time></trkpt><trkpt lat="45.81243807035228" lon="9.399246414716071"><ele>206.00000000000003</ele><time>2026-04-07T07:39:48Z</time></trkpt><trkpt lat="45.81236051971141" lon="9.39928730401248"><ele>206.0</ele><time>2026-04-07T07:39:49Z</time></trkpt><trkpt lat="45.8122827528711" lon="9.399328663258784"><ele>206.0</ele><time>2026-04-07T07:39:50Z</time></trkpt><trkpt lat="45.81220489962358" lon="9.399367616096685"><ele>206.0</ele><time>2026-04-07T07:39:51Z</time></trkpt><trkpt lat="45.812127336465785" lon="9.399404437219177"><ele>206.00000000000003</ele><time>2026-04-07T07:39:52Z</time></trkpt><trkpt lat="45.81204855028892" lon="9.399442994746181"><ele>206.0</ele><time>2026-04-07T07:39:53Z</time></trkpt><trkpt lat="45.81196924743627" lon="9.39948193814274"><ele>206.00000000000003</ele><time>2026-04-07T07:39:54Z</time></trkpt><trkpt lat="45.811890531152024" lon="9.399523236711756"><ele>206.0</ele><time>2026-04-07T07:39:55Z</time></trkpt><trkpt lat="45.81181090496282" lon="9.399563731848009"><ele>206.0</ele><time>2026-04-07T07:39:56Z</time></trkpt><trkpt lat="45.811731720458525" lon="9.399604231793566"><ele>206.0</ele><time>2026-04-07T07:39:57Z</time></trkpt><trkpt lat="45.81165301070109" lon="9.399644869605824"><ele>206.00000000000003</ele><time>2026-04-07T07:39:58Z</time></trkpt><trkpt lat="45.811574734147676" lon="9.399681113228466"><ele>206.0</ele><time>2026-04-07T07:39:59Z</time></trkpt><trkpt lat="45.81149658195419" lon="9.399718853473589"><ele>205.66666666666669</ele><time>2026-04-07T07:40:00Z</time></trkpt><trkpt lat="45.81141785061948" lon="9.399757650511681"><ele>205.33333333333334</ele><time>2026-04-07T07:40:01Z</time></trkpt><trkpt lat="45.811338950672" lon="9.39979887671091"><ele>205.0</ele><time>2026-04-07T07:40:02Z</time></trkpt><trkpt lat="45.81125835596581" lon="9.399840307372545"><ele>204.66666666666669</ele><time>2026-04-07T07:40:03Z</time></trkpt><trkpt lat="45.811177910955536" lon="9.399882439378851"><ele>204.33333333333334</ele><time>2026-04-07T07:40:04Z</time></trkpt><trkpt lat="45.81109673950609" lon="9.399920781509447"><ele>204.0</ele><time>2026-04-07T07:40:05Z</time></trkpt><trkpt lat="45.81101609049961" lon="9.399960389470413"><ele>203.66666666666666</ele><time>2026-04-07T07:40:06Z</time></trkpt><trkpt lat="45.81093644643115" lon="9.400000221838331"><ele>203.33333333333331</ele><time>2026-04-07T07:40:07Z</time></trkpt><trkpt lat="45.81085702670599" lon="9.400042031477458"><ele>203.0</ele><time>2026-04-07T07:40:08Z</time></trkpt><trkpt lat="45.81077822092671" lon="9.400082653878234"><ele>202.66666666666666</ele><time>2026-04-07T07:40:09Z</time></trkpt><trkpt lat="45.81069760509" lon="9.400122360937202"><ele>202.33333333333331</ele><time>2026-04-07T07:40:10Z</time></trkpt><trkpt lat="45.81061813906158" lon="9.400162624645446"><ele>202.0</ele><time>2026-04-07T07:40:11Z</time></trkpt><trkpt lat="45.810538003694305" lon="9.400201143138622"><ele>201.99999999999997</ele><time>2026-04-07T07:40:12Z</time></trkpt><trkpt lat="45.810458204177394" lon="9.400242379226919"><ele>202.0</ele><time>2026-04-07T07:40:13Z</time></trkpt><trkpt lat="45.81037866438324" lon="9.400283192246485"><ele>202.0</ele><time>2026-04-07T07:40:14Z</time></trkpt><trkpt lat="45.810298471695894" lon="9.400321353589083"><ele>202.0</ele><time>2026-04-07T07:40:15Z</time></trkpt><trkpt lat="45.8102199115505" lon="9.400360996555644"><ele>201.99999999999997</ele><time>2026-04-07T07:40:16Z</time></trkpt><trkpt lat="45.81014214889351" lon="9.400401578135245"><ele>202.0</ele><time>2026-04-07T07:40:17Z</time></trkpt><trkpt lat="45.81006450404305" lon="9.400443785970493"><ele>201.99999999999997</ele><time>2026-04-07T07:40:18Z</time></trkpt><trkpt lat="45.80998756536564" lon="9.400485322031134"><ele>202.0</ele><time>2026-04-07T07:40:19Z</time></trkpt><trkpt lat="45.80991051971095" lon="9.40053059677722"><ele>202.0</ele><time>2026-04-07T07:40:20Z</time></trkpt><trkpt lat="45.80983120129531" lon="9.400567263170743"><ele>202.0</ele><time>2026-04-07T07:40:21Z</time></trkpt><trkpt lat="45.80975386101578" lon="9.400597873093822"><ele>201.99999999999997</ele><time>2026-04-07T07:40:22Z</time></trkpt><trkpt lat="45.80967570389199" lon="9.400636922172119"><ele>202.0</ele><time>2026-04-07T07:40:23Z</time></trkpt><trkpt lat="45.809599009435296" lon="9.400676404651575"><ele>201.99999999999997</ele><time>2026-04-07T07:40:24Z</time></trkpt><trkpt lat="45.809527255299834" lon="9.400717510693159"><ele>202.0</ele><time>2026-04-07T07:40:25Z</time></trkpt><trkpt lat="45.80944929084377" lon="9.40075657573169"><ele>202.0</ele><time>2026-04-07T07:40:26Z</time></trkpt><trkpt lat="45.809371939843174" lon="9.400792477733258"><ele>202.0</ele><time>2026-04-07T07:40:27Z</time></trkpt><trkpt lat="45.809295668201926" lon="9.400828761306096"><ele>201.99999999999997</ele><time>2026-04-07T07:40:28Z</time></trkpt><trkpt lat="45.80921772934328" lon="9.400862283845361"><ele>202.0</ele><time>2026-04-07T07:40:29Z</time></trkpt><trkpt lat="45.80914414985652" lon="9.400897338203702"><ele>201.99999999999997</ele><time>2026-04-07T07:40:30Z</time></trkpt><trkpt lat="45.80906986470702" lon="9.400936239937554"><ele>202.0</ele><time>2026-04-07T07:40:31Z</time></trkpt><trkpt lat="45.80899508138648" lon="9.400971415242713"><ele>202.0</ele><time>2026-04-07T07:40:32Z</time></trkpt><trkpt lat="45.80892162729979" lon="9.401007224854922"><ele>202.0</ele><time>2026-04-07T07:40:33Z</time></trkpt><trkpt lat="45.80884936207727" lon="9.40104593192118"><ele>201.99999999999997</ele><time>2026-04-07T07:40:34Z</time></trkpt><trkpt lat="45.808775307803984" lon="9.401081371661471"><ele>202.0</ele><time>2026-04-07T07:40:35Z</time></trkpt><trkpt lat="45.80870182204474" lon="9.401116278680563"><ele>201.99999999999997</ele><time>2026-04-07T07:40:36Z</time></trkpt><trkpt lat="45.80863018040873" lon="9.40115783893864"><ele>202.0</ele><time>2026-04-07T07:40:37Z</time></trkpt><trkpt lat="45.80855594974527" lon="9.40119714707968"><ele>202.0</ele><time>2026-04-07T07:40:38Z</time></trkpt><trkpt lat="45.808483617179604" lon="9.401233340495951"><ele>202.0</ele><time>2026-04-07T07:40:39Z</time></trkpt><trkpt lat="45.80841130792756" lon="9.401272598146692"><ele>201.99999999999997</ele><time>2026-04-07T07:40:40Z</time></trkpt><trkpt lat="45.808342344213344" lon="9.401311826256117"><ele>202.0</ele><time>2026-04-07T07:40:41Z</time></trkpt><trkpt lat="45.808275503125735" lon="9.401357190231174"><ele>201.85714285714286</ele><time>2026-04-07T07:40:42Z</time></trkpt><trkpt lat="45.8082071684324" lon="9.40140385015005"><ele>201.71428571428572</ele><time>2026-04-07T07:40:43Z</time></trkpt><trkpt lat="45.808138487214386" lon="9.401450208417273"><ele>201.57142857142856</ele><time>2026-04-07T07:40:44Z</time></trkpt><trkpt lat="45.80807080090765" lon="9.40150082727788"><ele>201.42857142857144</ele><time>2026-04-07T07:40:45Z</time></trkpt><trkpt lat="45.80800609256149" lon="9.401554512020791"><ele>201.2857142857143</ele><time>2026-04-07T07:40:46Z</time></trkpt><trkpt lat="45.807945045391136" lon="9.401609998600161"><ele>201.14285714285714</ele><time>2026-04-07T07:40:47Z</time></trkpt><trkpt lat="45.80788768252134" lon="9.401669152974474"><ele>201.0</ele><time>2026-04-07T07:40:48Z</time></trkpt><trkpt lat="45.80783159593676" lon="9.40172957625789"><ele>201.0</ele><time>2026-04-07T07:40:49Z</time></trkpt><trkpt lat="45.80777450936422" lon="9.40178595119581"><ele>201.0</ele><time>2026-04-07T07:40:50Z</time></trkpt><trkpt lat="45.80771686783268" lon="9.401838167059138"><ele>201.0</ele><time>2026-04-07T07:40:51Z</time></trkpt><trkpt lat="45.807654903084625" lon="9.4018716012326"><ele>201.0</ele><time>2026-04-07T07:40:52Z</time></trkpt><trkpt lat="45.807589390219476" lon="9.401883545212122"><ele>201.0</ele><time>2026-04-07T07:40:53Z</time></trkpt><trkpt lat="45.807524413987295" lon="9.4018785399847"><ele>201.0</ele><time>2026-04-07T07:40:54Z</time></trkpt><trkpt lat="45.80741433153791" lon="9.401937481828229"><ele>201.14285714285714</ele><time>2026-04-07T07:40:56Z</time></trkpt><trkpt lat="45.80738356839387" lon="9.402016410338529"><ele>201.2857142857143</ele><time>2026-04-07T07:40:57Z</time></trkpt><trkpt lat="45.80736422013219" lon="9.402105728258933"><ele>201.42857142857144</ele><time>2026-04-07T07:40:58Z</time></trkpt><trkpt lat="45.80734246086187" lon="9.402197213593091"><ele>201.57142857142856</ele><time>2026-04-07T07:40:59Z</time></trkpt><trkpt lat="45.807306453789174" lon="9.402279493965723"><ele>201.71428571428572</ele><time>2026-04-07T07:41:00Z</time></trkpt><trkpt lat="45.807255917362056" lon="9.402347527785457"><ele>201.85714285714286</ele><time>2026-04-07T07:41:01Z</time></trkpt><trkpt lat="45.80719738674142" lon="9.402404256359969"><ele>202.0</ele><time>2026-04-07T07:41:02Z</time></trkpt><trkpt lat="45.80714029741137" lon="9.402460264997826"><ele>202.0</ele><time>2026-04-07T07:41:03Z</time></trkpt><trkpt lat="45.807082979662674" lon="9.402519593252938"><ele>202.0</ele><time>2026-04-07T07:41:04Z</time></trkpt><trkpt lat="45.80702823079354" lon="9.402582214903813"><ele>202.0</ele><time>2026-04-07T07:41:05Z</time></trkpt><trkpt lat="45.806970475657934" lon="9.402642235232806"><ele>202.0</ele><time>2026-04-07T07:41:06Z</time></trkpt><trkpt lat="45.80691264134758" lon="9.402698487697819"><ele>202.0</ele><time>2026-04-07T07:41:07Z</time></trkpt><trkpt lat="45.80685694074808" lon="9.402755373272873"><ele>202.0</ele><time>2026-04-07T07:41:08Z</time></trkpt><trkpt lat="45.80680211949336" lon="9.402814371872738"><ele>202.0</ele><time>2026-04-07T07:41:09Z</time></trkpt><trkpt lat="45.80674680836708" lon="9.402868555831141"><ele>201.99999999999997</ele><time>2026-04-07T07:41:10Z</time></trkpt><trkpt lat="45.80669372648699" lon="9.402922345941532"><ele>202.0</ele><time>2026-04-07T07:41:11Z</time></trkpt><trkpt lat="45.80659360703052" lon="9.403025647695234"><ele>202.0</ele><time>2026-04-07T07:41:13Z</time></trkpt><trkpt lat="45.80654176000682" lon="9.40308121831428"><ele>202.0</ele><time>2026-04-07T07:41:14Z</time></trkpt><trkpt lat="45.80648837236403" lon="9.403131838508745"><ele>201.99999999999997</ele><time>2026-04-07T07:41:15Z</time></trkpt><trkpt lat="45.80643372680213" lon="9.40318777973557"><ele>202.0</ele><time>2026-04-07T07:41:16Z</time></trkpt><trkpt lat="45.80638006303433" lon="9.403242852735378"><ele>202.0</ele><time>2026-04-07T07:41:17Z</time></trkpt><trkpt lat="45.80632476574487" lon="9.403295758008632"><ele>202.0</ele><time>2026-04-07T07:41:18Z</time></trkpt><trkpt lat="45.80626936882162" lon="9.403346961613964"><ele>202.0</ele><time>2026-04-07T07:41:19Z</time></trkpt><trkpt lat="45.80621395521474" lon="9.40340288428983"><ele>202.0</ele><time>2026-04-07T07:41:20Z</time></trkpt><trkpt lat="45.80615772491917" lon="9.403455541451912"><ele>202.0</ele><time>2026-04-07T07:41:21Z</time></trkpt><trkpt lat="45.80610181253168" lon="9.403511757218475"><ele>202.0</ele><time>2026-04-07T07:41:22Z</time></trkpt><trkpt lat="45.806048395950704" lon="9.403568154265628"><ele>202.0</ele><time>2026-04-07T07:41:23Z</time></trkpt><trkpt lat="45.80599459617965" lon="9.40362594546759"><ele>202.0</ele><time>2026-04-07T07:41:24Z</time></trkpt><trkpt lat="45.805939283187094" lon="9.403681044011229"><ele>202.0</ele><time>2026-04-07T07:41:25Z</time></trkpt><trkpt lat="45.80588356380094" lon="9.403735856515903"><ele>202.0</ele><time>2026-04-07T07:41:26Z</time></trkpt><trkpt lat="45.80582692811785" lon="9.403791854239746"><ele>202.0</ele><time>2026-04-07T07:41:27Z</time></trkpt><trkpt lat="45.805770340772604" lon="9.403849222227304"><ele>202.0</ele><time>2026-04-07T07:41:28Z</time></trkpt><trkpt lat="45.805714845502564" lon="9.403907403456513"><ele>202.0</ele><time>2026-04-07T07:41:29Z</time></trkpt><trkpt lat="45.805660746571746" lon="9.403960993210502"><ele>202.0</ele><time>2026-04-07T07:41:30Z</time></trkpt><trkpt lat="45.805604177682255" lon="9.404019277771187"><ele>202.0</ele><time>2026-04-07T07:41:31Z</time></trkpt><trkpt lat="45.80554587450318" lon="9.404076706578541"><ele>202.0</ele><time>2026-04-07T07:41:32Z</time></trkpt><trkpt lat="45.80548681341994" lon="9.404134435785945"><ele>202.0</ele><time>2026-04-07T07:41:33Z</time></trkpt><trkpt lat="45.80542857815314" lon="9.404193202012179"><ele>202.0</ele><time>2026-04-07T07:41:34Z</time></trkpt><trkpt lat="45.80536984150247" lon="9.404251071195363"><ele>202.0</ele><time>2026-04-07T07:41:35Z</time></trkpt><trkpt lat="45.80530954442702" lon="9.404308077459177"><ele>202.0</ele><time>2026-04-07T07:41:36Z</time></trkpt><trkpt lat="45.805250711383465" lon="9.404365416550721"><ele>202.0</ele><time>2026-04-07T07:41:37Z</time></trkpt><trkpt lat="45.80519535364352" lon="9.404427880113946"><ele>202.16666666666666</ele><time>2026-04-07T07:41:38Z</time></trkpt><trkpt lat="45.805139324634624" lon="9.404489051096037"><ele>202.33333333333331</ele><time>2026-04-07T07:41:39Z</time></trkpt><trkpt lat="45.805080027622445" lon="9.404546230612786"><ele>202.5</ele><time>2026-04-07T07:41:40Z</time></trkpt><trkpt lat="45.8050287521606" lon="9.404610614208677"><ele>202.66666666666669</ele><time>2026-04-07T07:41:41Z</time></trkpt><trkpt lat="45.804981758991794" lon="9.404674509177887"><ele>202.83333333333334</ele><time>2026-04-07T07:41:42Z</time></trkpt><trkpt lat="45.804923709133135" lon="9.404711697433054"><ele>203.0</ele><time>2026-04-07T07:41:43Z</time></trkpt><trkpt lat="45.80482978303568" lon="9.404804422677936"><ele>202.4</ele><time>2026-04-07T07:41:45Z</time></trkpt><trkpt lat="45.80475987253078" lon="9.40487343985541"><ele>201.8</ele><time>2026-04-07T07:41:46.999Z</time></trkpt><trkpt lat="45.80482937177319" lon="9.405032383022448"><ele>201.2</ele><time>2026-04-07T07:41:47.999Z</time></trkpt><trkpt lat="45.80487577872586" lon="9.405149338161902"><ele>200.6</ele><time>2026-04-07T07:41:49.999Z</time></trkpt><trkpt lat="45.80491005251369" lon="9.405260717802866"><ele>200.0</ele><time>2026-04-07T07:41:51.999Z</time></trkpt><trkpt lat="45.8048892488883" lon="9.405346498255307"><ele>200.0</ele><time>2026-04-07T07:41:54.999Z</time></trkpt><trkpt lat="45.80482361505982" lon="9.405404096439065"><ele>200.0</ele><time>2026-04-07T07:41:58.999Z</time></trkpt><trkpt lat="45.80488818059638" lon="9.405533097783703"><ele>200.0</ele><time>2026-04-07T07:41:59.999Z</time></trkpt><trkpt lat="45.80484271385858" lon="9.405663554081437"><ele>200.0</ele><time>2026-04-07T07:42:01.999Z</time></trkpt><trkpt lat="45.80479492232598" lon="9.40578100016623"><ele>200.0</ele><time>2026-04-07T07:42:03.999Z</time></trkpt><trkpt lat="45.80471595831559" lon="9.405914788100754"><ele>200.0</ele><time>2026-04-07T07:42:05.999Z</time></trkpt><trkpt lat="45.80465718399032" lon="9.406061097046917"><ele>200.0</ele><time>2026-04-07T07:42:07.999Z</time></trkpt><trkpt lat="45.804596170083336" lon="9.406212982506743"><ele>200.0</ele><time>2026-04-07T07:42:09.999Z</time></trkpt><trkpt lat="45.80469302077824" lon="9.406495077461237"><ele>200.00000000000003</ele><time>2026-04-07T07:42:11.999Z</time></trkpt><trkpt lat="45.804684891348394" lon="9.40658646928593"><ele>200.0</ele><time>2026-04-07T07:42:12.999Z</time></trkpt><trkpt lat="45.80468079801909" lon="9.406678512344184"><ele>200.0</ele><time>2026-04-07T07:42:13.999Z</time></trkpt><trkpt lat="45.80467575065631" lon="9.406772605489298"><ele>200.0</ele><time>2026-04-07T07:42:14.999Z</time></trkpt><trkpt lat="45.80466937641409" lon="9.406867827209869"><ele>200.0</ele><time>2026-04-07T07:42:15.999Z</time></trkpt><trkpt lat="45.8046621108466" lon="9.406959461137081"><ele>200.00000000000003</ele><time>2026-04-07T07:42:16.999Z</time></trkpt><trkpt lat="45.80465731917401" lon="9.407053071279444"><ele>200.0</ele><time>2026-04-07T07:42:17.999Z</time></trkpt><trkpt lat="45.80465483038709" lon="9.407148369271436"><ele>199.83333333333334</ele><time>2026-04-07T07:42:18.999Z</time></trkpt><trkpt lat="45.80465985204634" lon="9.407330317308151"><ele>199.66666666666669</ele><time>2026-04-07T07:42:20.999Z</time></trkpt><trkpt lat="45.80466016992975" lon="9.407421142211584"><ele>199.5</ele><time>2026-04-07T07:42:21.999Z</time></trkpt><trkpt lat="45.804660253826306" lon="9.407517784246208"><ele>199.33333333333331</ele><time>2026-04-07T07:42:22.999Z</time></trkpt><trkpt lat="45.80466523086873" lon="9.407613789994127"><ele>199.16666666666666</ele><time>2026-04-07T07:42:23.999Z</time></trkpt><trkpt lat="45.804666037676654" lon="9.407706406051236"><ele>199.0</ele><time>2026-04-07T07:42:24.999Z</time></trkpt><trkpt lat="45.80466929677643" lon="9.407802664784668"><ele>198.99999999999997</ele><time>2026-04-07T07:42:25.999Z</time></trkpt><trkpt lat="45.8046667388085" lon="9.407902882515893"><ele>199.0</ele><time>2026-04-07T07:42:26.999Z</time></trkpt><trkpt lat="45.80466180416427" lon="9.407997735642661"><ele>199.0</ele><time>2026-04-07T07:42:27.999Z</time></trkpt><trkpt lat="45.80465746757788" lon="9.408093571510125"><ele>199.0</ele><time>2026-04-07T07:42:28.999Z</time></trkpt><trkpt lat="45.80465194909893" lon="9.408185570772538"><ele>199.0</ele><time>2026-04-07T07:42:29.999Z</time></trkpt><trkpt lat="45.80464871095299" lon="9.408281124988969"><ele>198.99999999999997</ele><time>2026-04-07T07:42:30.999Z</time></trkpt><trkpt lat="45.804646214136646" lon="9.408374688976537"><ele>199.0</ele><time>2026-04-07T07:42:31.999Z</time></trkpt><trkpt lat="45.804644120584996" lon="9.408468106889375"><ele>199.25</ele><time>2026-04-07T07:42:32.999Z</time></trkpt><trkpt lat="45.80464488380429" lon="9.408640527496654"><ele>199.5</ele><time>2026-04-07T07:42:34.999Z</time></trkpt><trkpt lat="45.80466441617773" lon="9.408801957281726"><ele>199.75</ele><time>2026-04-07T07:42:36.999Z</time></trkpt><trkpt lat="45.80467331684022" lon="9.408955637987367"><ele>200.0</ele><time>2026-04-07T07:42:38.999Z</time></trkpt><trkpt lat="45.804683460687706" lon="9.409110263446507"><ele>199.6</ele><time>2026-04-07T07:42:40.999Z</time></trkpt><trkpt lat="45.804685423924084" lon="9.409237044327387"><ele>199.2</ele><time>2026-04-07T07:42:42.999Z</time></trkpt><trkpt lat="45.804612206300746" lon="9.409307141546895"><ele>198.8</ele><time>2026-04-07T07:42:44.999Z</time></trkpt><trkpt lat="45.80459181142207" lon="9.409413569362938"><ele>198.4</ele><time>2026-04-07T07:42:46.999Z</time></trkpt><trkpt lat="45.8046062838497" lon="9.409572573281759"><ele>198.0</ele><time>2026-04-07T07:42:48.999Z</time></trkpt><trkpt lat="45.80461489747916" lon="9.40974291736026"><ele>198.0</ele><time>2026-04-07T07:42:50.999Z</time></trkpt><trkpt lat="45.80462608618301" lon="9.40991295969528"><ele>198.0</ele><time>2026-04-07T07:42:52.999Z</time></trkpt><trkpt lat="45.804639394106665" lon="9.410075791887403"><ele>198.0</ele><time>2026-04-07T07:42:54.999Z</time></trkpt><trkpt lat="45.804612800765106" lon="9.41023589675012"><ele>198.0</ele><time>2026-04-07T07:42:56.999Z</time></trkpt><trkpt lat="45.804582943776154" lon="9.410399523330694"><ele>198.0</ele><time>2026-04-07T07:42:58.999Z</time></trkpt><trkpt lat="45.80455754746832" lon="9.410562819943634"><ele>198.0</ele><time>2026-04-07T07:43:00.999Z</time></trkpt><trkpt lat="45.804528410091514" lon="9.410726783556866"><ele>198.0</ele><time>2026-04-07T07:43:02.999Z</time></trkpt><trkpt lat="45.80449865791843" lon="9.410892497095439"><ele>198.0</ele><time>2026-04-07T07:43:04.999Z</time></trkpt><trkpt lat="45.80447179608381" lon="9.411059519309761"><ele>198.0</ele><time>2026-04-07T07:43:06.999Z</time></trkpt><trkpt lat="45.80443705430804" lon="9.411224112913247"><ele>198.0</ele><time>2026-04-07T07:43:08.999Z</time></trkpt><trkpt lat="45.804407124045255" lon="9.411387678948941"><ele>198.0</ele><time>2026-04-07T07:43:10.999Z</time></trkpt><trkpt lat="45.80437453682824" lon="9.411554711512522"><ele>198.0</ele><time>2026-04-07T07:43:12.999Z</time></trkpt><trkpt lat="45.80433741384832" lon="9.411718402069198"><ele>198.2</ele><time>2026-04-07T07:43:14.999Z</time></trkpt><trkpt lat="45.804310038427374" lon="9.411885175569665"><ele>198.4</ele><time>2026-04-07T07:43:16.999Z</time></trkpt><trkpt lat="45.80431128887035" lon="9.412036764062567"><ele>198.6</ele><time>2026-04-07T07:43:18.999Z</time></trkpt><trkpt lat="45.80430850746571" lon="9.412162935533646"><ele>198.79999999999998</ele><time>2026-04-07T07:43:20.999Z</time></trkpt><trkpt lat="45.80428863524635" lon="9.412266296056515"><ele>199.0</ele><time>2026-04-07T07:43:22.999Z</time></trkpt><trkpt lat="45.80426083127608" lon="9.412375810324233"><ele>199.0</ele><time>2026-04-07T07:43:24.999Z</time></trkpt><trkpt lat="45.80424160229957" lon="9.412513036487942"><ele>199.0</ele><time>2026-04-07T07:43:26.999Z</time></trkpt><trkpt lat="45.80420429679483" lon="9.412643829497519"><ele>199.0</ele><time>2026-04-07T07:43:28.999Z</time></trkpt><trkpt lat="45.80414527556854" lon="9.41275045922382"><ele>199.0</ele><time>2026-04-07T07:43:30.999Z</time></trkpt><trkpt lat="45.80406063810293" lon="9.412829698331212"><ele>199.0</ele><time>2026-04-07T07:43:32.999Z</time></trkpt><trkpt lat="45.80395360692366" lon="9.412878208406358"><ele>199.0</ele><time>2026-04-07T07:43:34.999Z</time></trkpt><trkpt lat="45.80384228883365" lon="9.412937400981114"><ele>199.0</ele><time>2026-04-07T07:43:36.999Z</time></trkpt><trkpt lat="45.803731185368875" lon="9.413007538837379"><ele>199.0</ele><time>2026-04-07T07:43:38.999Z</time></trkpt><trkpt lat="45.80361683659485" lon="9.413075633764375"><ele>199.0</ele><time>2026-04-07T07:43:40.999Z</time></trkpt><trkpt lat="45.80355701203629" lon="9.413107528746552"><ele>199.0</ele><time>2026-04-07T07:43:41.999Z</time></trkpt><trkpt lat="45.80344231093538" lon="9.413174684710778"><ele>198.79999999999998</ele><time>2026-04-07T07:43:43.999Z</time></trkpt><trkpt lat="45.803327495323984" lon="9.413243292860423"><ele>198.6</ele><time>2026-04-07T07:43:45.999Z</time></trkpt><trkpt lat="45.80326766840556" lon="9.413275881738523"><ele>198.4</ele><time>2026-04-07T07:43:46.999Z</time></trkpt><trkpt lat="45.80315089546323" lon="9.413355076436542"><ele>198.2</ele><time>2026-04-07T07:43:48.999Z</time></trkpt><trkpt lat="45.803040497138106" lon="9.413446413551265"><ele>198.0</ele><time>2026-04-07T07:43:50.999Z</time></trkpt><trkpt lat="45.80294716649763" lon="9.413537615052219"><ele>198.0</ele><time>2026-04-07T07:43:52.999Z</time></trkpt><trkpt lat="45.80286031780278" lon="9.413619898518219"><ele>198.0</ele><time>2026-04-07T07:43:54.999Z</time></trkpt><trkpt lat="45.80277080335409" lon="9.413690633738922"><ele>198.0</ele><time>2026-04-07T07:43:56.999Z</time></trkpt><trkpt lat="45.802683571319875" lon="9.413767198164964"><ele>198.0</ele><time>2026-04-07T07:43:58.999Z</time></trkpt><trkpt lat="45.80260209845115" lon="9.413855322787963"><ele>198.0</ele><time>2026-04-07T07:44:00.999Z</time></trkpt><trkpt lat="45.80251713713545" lon="9.413943522023768"><ele>198.0</ele><time>2026-04-07T07:44:02.999Z</time></trkpt><trkpt lat="45.80241710657168" lon="9.41401479340417"><ele>198.0</ele><time>2026-04-07T07:44:04.999Z</time></trkpt><trkpt lat="45.80231863780705" lon="9.414095000517772"><ele>198.0</ele><time>2026-04-07T07:44:06.999Z</time></trkpt><trkpt lat="45.80221958708009" lon="9.41419011088133"><ele>198.0</ele><time>2026-04-07T07:44:08.999Z</time></trkpt><trkpt lat="45.80211772406038" lon="9.414286594259652"><ele>198.0</ele><time>2026-04-07T07:44:10.999Z</time></trkpt><trkpt lat="45.802015118150955" lon="9.414385648876966"><ele>198.0</ele><time>2026-04-07T07:44:12.999Z</time></trkpt><trkpt lat="45.801915502552156" lon="9.41448856913898"><ele>198.0</ele><time>2026-04-07T07:44:14.999Z</time></trkpt><trkpt lat="45.80182146787079" lon="9.414600008044365"><ele>198.0</ele><time>2026-04-07T07:44:16.999Z</time></trkpt><trkpt lat="45.80172539423514" lon="9.414713111458687"><ele>198.5</ele><time>2026-04-07T07:44:18.999Z</time></trkpt><trkpt lat="45.80163100237229" lon="9.414821719677661"><ele>199.0</ele><time>2026-04-07T07:44:20.999Z</time></trkpt><trkpt lat="45.80153923266043" lon="9.414932825092409"><ele>199.5</ele><time>2026-04-07T07:44:22.999Z</time></trkpt><trkpt lat="45.80144348094309" lon="9.415033936421123"><ele>200.0</ele><time>2026-04-07T07:44:24.999Z</time></trkpt><trkpt lat="45.8013493085687" lon="9.415123642037985"><ele>200.00000000000003</ele><time>2026-04-07T07:44:26.999Z</time></trkpt><trkpt lat="45.801292819851426" lon="9.415191695646735"><ele>200.0</ele><time>2026-04-07T07:44:27.999Z</time></trkpt><trkpt lat="45.80118678502989" lon="9.415299486887772"><ele>200.0</ele><time>2026-04-07T07:44:29.999Z</time></trkpt><trkpt lat="45.8011277098562" lon="9.415342066243038"><ele>200.0</ele><time>2026-04-07T07:44:30.999Z</time></trkpt><trkpt lat="45.801065599498145" lon="9.415372567738673"><ele>200.00000000000003</ele><time>2026-04-07T07:44:31.999Z</time></trkpt><trkpt lat="45.80099583321684" lon="9.415397007903257"><ele>200.0</ele><time>2026-04-07T07:44:32.999Z</time></trkpt><trkpt lat="45.80093059388626" lon="9.415425014209417"><ele>199.66666666666669</ele><time>2026-04-07T07:44:33.999Z</time></trkpt><trkpt lat="45.80086406195132" lon="9.415451246019517"><ele>199.33333333333334</ele><time>2026-04-07T07:44:34.999Z</time></trkpt><trkpt lat="45.80079689309986" lon="9.415473194028577"><ele>199.0</ele><time>2026-04-07T07:44:35.999Z</time></trkpt><trkpt lat="45.80073246683315" lon="9.415496262906874"><ele>198.66666666666669</ele><time>2026-04-07T07:44:36.999Z</time></trkpt><trkpt lat="45.800626032989726" lon="9.415543624140229"><ele>198.33333333333334</ele><time>2026-04-07T07:44:38.999Z</time></trkpt><trkpt lat="45.80051282493517" lon="9.415567413727274"><ele>198.0</ele><time>2026-04-07T07:44:40.999Z</time></trkpt><trkpt lat="45.80039891031821" lon="9.415610171635993"><ele>198.0</ele><time>2026-04-07T07:44:42.999Z</time></trkpt><trkpt lat="45.800335284819965" lon="9.41561319156416"><ele>198.0</ele><time>2026-04-07T07:44:43.999Z</time></trkpt><trkpt lat="45.80027118373892" lon="9.415598568784308"><ele>198.0</ele><time>2026-04-07T07:44:44.999Z</time></trkpt><trkpt lat="45.80020327081611" lon="9.415585587936299"><ele>198.0</ele><time>2026-04-07T07:44:45.999Z</time></trkpt><trkpt lat="45.80013659618411" lon="9.41558089055415"><ele>198.0</ele><time>2026-04-07T07:44:46.999Z</time></trkpt><trkpt lat="45.800066787619905" lon="9.41557941353344"><ele>198.0</ele><time>2026-04-07T07:44:47.999Z</time></trkpt><trkpt lat="45.79999779173388" lon="9.415575916290942"><ele>198.0</ele><time>2026-04-07T07:44:48.999Z</time></trkpt><trkpt lat="45.79992988665524" lon="9.415564062318929"><ele>198.14285714285714</ele><time>2026-04-07T07:44:49.999Z</time></trkpt><trkpt lat="45.79986176915271" lon="9.415550671758629"><ele>198.28571428571428</ele><time>2026-04-07T07:44:50.999Z</time></trkpt><trkpt lat="45.7997923750344" lon="9.415541399091733"><ele>198.42857142857142</ele><time>2026-04-07T07:44:51.999Z</time></trkpt><trkpt lat="45.799723638225245" lon="9.415532451397956"><ele>198.57142857142856</ele><time>2026-04-07T07:44:52.999Z</time></trkpt><trkpt lat="45.79965620845179" lon="9.415527204830429"><ele>198.71428571428572</ele><time>2026-04-07T07:44:53.999Z</time></trkpt><trkpt lat="45.79958393362321" lon="9.41551296819473"><ele>198.85714285714283</ele><time>2026-04-07T07:44:54.999Z</time></trkpt><trkpt lat="45.799516096549304" lon="9.415487704368841"><ele>199.0</ele><time>2026-04-07T07:44:55.999Z</time></trkpt><trkpt lat="45.799447699631735" lon="9.415447637252559"><ele>199.33333333333331</ele><time>2026-04-07T07:44:56.999Z</time></trkpt><trkpt lat="45.799382109045936" lon="9.415399076090539"><ele>199.66666666666666</ele><time>2026-04-07T07:44:57.999Z</time></trkpt><trkpt lat="45.799314043567755" lon="9.415352742765144"><ele>200.0</ele><time>2026-04-07T07:44:58.999Z</time></trkpt><trkpt lat="45.799250237141614" lon="9.415313772327464"><ele>200.33333333333331</ele><time>2026-04-07T07:44:59.999Z</time></trkpt><trkpt lat="45.79918113816606" lon="9.41528794130648"><ele>200.66666666666666</ele><time>2026-04-07T07:45:00.999Z</time></trkpt><trkpt lat="45.799108315381034" lon="9.41527616726907"><ele>201.0</ele><time>2026-04-07T07:45:01.999Z</time></trkpt><trkpt lat="45.79903086625665" lon="9.415199506273078"><ele>201.0</ele><time>2026-04-07T07:45:02.999Z</time></trkpt><trkpt lat="45.79895500255617" lon="9.41520348009978"><ele>201.0</ele><time>2026-04-07T07:45:03.999Z</time></trkpt><trkpt lat="45.798882778729414" lon="9.41521002258859"><ele>201.0</ele><time>2026-04-07T07:45:04.999Z</time></trkpt><trkpt lat="45.79881370311062" lon="9.415216279728597"><ele>201.0</ele><time>2026-04-07T07:45:05.999Z</time></trkpt><trkpt lat="45.7987430632138" lon="9.415222678562687"><ele>201.0</ele><time>2026-04-07T07:45:06.999Z</time></trkpt><trkpt lat="45.798677257048645" lon="9.415228639536922"><ele>201.0</ele><time>2026-04-07T07:45:07.999Z</time></trkpt><trkpt lat="45.79862076706479" lon="9.415347186562688"><ele>201.0</ele><time>2026-04-07T07:45:08.999Z</time></trkpt><trkpt lat="45.79850615760757" lon="9.415385651830046"><ele>201.0</ele><time>2026-04-07T07:45:11Z</time></trkpt><trkpt lat="45.79840138329764" lon="9.415115177552906"><ele>201.0</ele><time>2026-04-07T07:45:12Z</time></trkpt><trkpt lat="45.79829299925598" lon="9.415152191576299"><ele>201.0</ele><time>2026-04-07T07:45:14Z</time></trkpt><trkpt lat="45.7981800645683" lon="9.415190759706189"><ele>202.25</ele><time>2026-04-07T07:45:16Z</time></trkpt><trkpt lat="45.79805935332634" lon="9.415235910628454"><ele>203.5</ele><time>2026-04-07T07:45:18Z</time></trkpt><trkpt lat="45.79794849695542" lon="9.415279213720742"><ele>204.75</ele><time>2026-04-07T07:45:20Z</time></trkpt><trkpt lat="45.797846252372665" lon="9.415305359906405"><ele>206.0</ele><time>2026-04-07T07:45:22Z</time></trkpt><trkpt lat="45.79773162144066" lon="9.415334373724594"><ele>205.66666666666669</ele><time>2026-04-07T07:45:24Z</time></trkpt><trkpt lat="45.79761168910583" lon="9.415364729324901"><ele>205.33333333333331</ele><time>2026-04-07T07:45:26Z</time></trkpt><trkpt lat="45.797597075062654" lon="9.415746825705934"><ele>205.0</ele><time>2026-04-07T07:45:27Z</time></trkpt><trkpt lat="45.79748029214568" lon="9.415768975693355"><ele>204.2</ele><time>2026-04-07T07:45:29Z</time></trkpt><trkpt lat="45.79736371695912" lon="9.41578249683103"><ele>203.4</ele><time>2026-04-07T07:45:31Z</time></trkpt><trkpt lat="45.79724035248144" lon="9.415828809999297"><ele>202.60000000000002</ele><time>2026-04-07T07:45:33Z</time></trkpt><trkpt lat="45.797118660143866" lon="9.415876775385644"><ele>201.8</ele><time>2026-04-07T07:45:35Z</time></trkpt><trkpt lat="45.79706107005023" lon="9.41591950171489"><ele>201.0</ele><time>2026-04-07T07:45:36Z</time></trkpt><trkpt lat="45.797004836440394" lon="9.415962386178416"><ele>201.0</ele><time>2026-04-07T07:45:37Z</time></trkpt><trkpt lat="45.79695098720688" lon="9.416012882153327"><ele>201.0</ele><time>2026-04-07T07:45:38Z</time></trkpt><trkpt lat="45.79689338040934" lon="9.416059137975326"><ele>201.0</ele><time>2026-04-07T07:45:39Z</time></trkpt><trkpt lat="45.79683657240059" lon="9.416109549170818"><ele>201.0</ele><time>2026-04-07T07:45:40Z</time></trkpt><trkpt lat="45.79673233825646" lon="9.41620430283836"><ele>201.0</ele><time>2026-04-07T07:45:41.999Z</time></trkpt><trkpt lat="45.796672497933166" lon="9.416241068576733"><ele>201.0</ele><time>2026-04-07T07:45:42.999Z</time></trkpt><trkpt lat="45.796611442006125" lon="9.416273493845795"><ele>201.16666666666666</ele><time>2026-04-07T07:45:43.999Z</time></trkpt><trkpt lat="45.79655203020411" lon="9.41630921100429"><ele>201.33333333333331</ele><time>2026-04-07T07:45:44.999Z</time></trkpt><trkpt lat="45.79645460585969" lon="9.416407964720015"><ele>201.5</ele><time>2026-04-07T07:45:46.999Z</time></trkpt><trkpt lat="45.79633730527231" lon="9.416473198731019"><ele>201.66666666666666</ele><time>2026-04-07T07:45:48.999Z</time></trkpt><trkpt lat="45.796274021686365" lon="9.416506459741045"><ele>201.83333333333331</ele><time>2026-04-07T07:45:49.999Z</time></trkpt><trkpt lat="45.796220981742856" lon="9.416558499323774"><ele>202.0</ele><time>2026-04-07T07:45:50.999Z</time></trkpt><trkpt lat="45.796178369217586" lon="9.416639337217374"><ele>201.85714285714286</ele><time>2026-04-07T07:45:51.999Z</time></trkpt><trkpt lat="45.796134036542554" lon="9.416713007745475"><ele>201.71428571428572</ele><time>2026-04-07T07:45:52.999Z</time></trkpt><trkpt lat="45.79608914381411" lon="9.416790943632147"><ele>201.57142857142856</ele><time>2026-04-07T07:45:53.999Z</time></trkpt><trkpt lat="45.79604526493361" lon="9.416865716863088"><ele>201.42857142857144</ele><time>2026-04-07T07:45:54.999Z</time></trkpt><trkpt lat="45.796000308401126" lon="9.416939679880036"><ele>201.2857142857143</ele><time>2026-04-07T07:45:55.999Z</time></trkpt><trkpt lat="45.7959572215703" lon="9.417014664517378"><ele>201.14285714285714</ele><time>2026-04-07T07:45:56.999Z</time></trkpt><trkpt lat="45.795912281254836" lon="9.417087192606813"><ele>201.0</ele><time>2026-04-07T07:45:57.999Z</time></trkpt><trkpt lat="45.795870835415094" lon="9.417158796035974"><ele>201.0</ele><time>2026-04-07T07:45:58.999Z</time></trkpt><trkpt lat="45.795834726170874" lon="9.417240265797163"><ele>201.0</ele><time>2026-04-07T07:45:59.999Z</time></trkpt><trkpt lat="45.79580070204809" lon="9.41732395813216"><ele>201.0</ele><time>2026-04-07T07:46:00.999Z</time></trkpt><trkpt lat="45.79576241910107" lon="9.417404191682788"><ele>201.0</ele><time>2026-04-07T07:46:01.999Z</time></trkpt><trkpt lat="45.79572466341857" lon="9.41748389886211"><ele>201.0</ele><time>2026-04-07T07:46:02.999Z</time></trkpt><trkpt lat="45.795690104593874" lon="9.41756649869562"><ele>201.0</ele><time>2026-04-07T07:46:03.999Z</time></trkpt><trkpt lat="45.79566018833707" lon="9.417651533776022"><ele>201.0</ele><time>2026-04-07T07:46:04.999Z</time></trkpt><trkpt lat="45.795636014907586" lon="9.417737156811643"><ele>201.0</ele><time>2026-04-07T07:46:05.999Z</time></trkpt><trkpt lat="45.7956128725689" lon="9.417829857492798"><ele>201.0</ele><time>2026-04-07T07:46:06.999Z</time></trkpt><trkpt lat="45.79557943520698" lon="9.417915208678266"><ele>201.0</ele><time>2026-04-07T07:46:07.999Z</time></trkpt><trkpt lat="45.795546340058706" lon="9.418000048181685"><ele>201.0</ele><time>2026-04-07T07:46:08.999Z</time></trkpt><trkpt lat="45.79551925220725" lon="9.41808719593137"><ele>201.0</ele><time>2026-04-07T07:46:09.999Z</time></trkpt><trkpt lat="45.79548612215192" lon="9.418168083810096"><ele>201.0</ele><time>2026-04-07T07:46:10.999Z</time></trkpt><trkpt lat="45.79544468704141" lon="9.41824341779553"><ele>201.0</ele><time>2026-04-07T07:46:11.999Z</time></trkpt><trkpt lat="45.795399511495134" lon="9.418316677455993"><ele>200.85714285714286</ele><time>2026-04-07T07:46:12.999Z</time></trkpt><trkpt lat="45.79535786048353" lon="9.418390744720309"><ele>200.71428571428572</ele><time>2026-04-07T07:46:13.999Z</time></trkpt><trkpt lat="45.795317288838646" lon="9.418465732363723"><ele>200.57142857142858</ele><time>2026-04-07T07:46:14.999Z</time></trkpt><trkpt lat="45.79527064806191" lon="9.418539080147035"><ele>200.42857142857144</ele><time>2026-04-07T07:46:15.999Z</time></trkpt><trkpt lat="45.79522143024936" lon="9.418610878182568"><ele>200.28571428571428</ele><time>2026-04-07T07:46:16.999Z</time></trkpt><trkpt lat="45.79516771337736" lon="9.418681519463185"><ele>200.14285714285717</ele><time>2026-04-07T07:46:17.999Z</time></trkpt><trkpt lat="45.79511803270581" lon="9.418751920095911"><ele>200.0</ele><time>2026-04-07T07:46:18.999Z</time></trkpt><trkpt lat="45.79508150164258" lon="9.41883927267096"><ele>200.00000000000003</ele><time>2026-04-07T07:46:19.999Z</time></trkpt><trkpt lat="45.795059791810104" lon="9.418930809288982"><ele>200.0</ele><time>2026-04-07T07:46:20.999Z</time></trkpt><trkpt lat="45.79502505014097" lon="9.419011085741689"><ele>200.0</ele><time>2026-04-07T07:46:21.999Z</time></trkpt><trkpt lat="45.794968748856995" lon="9.419071195763514"><ele>200.0</ele><time>2026-04-07T07:46:22.999Z</time></trkpt><trkpt lat="45.794907303818874" lon="9.41912175861906"><ele>200.0</ele><time>2026-04-07T07:46:23.999Z</time></trkpt><trkpt lat="45.79484020399696" lon="9.419155566832442"><ele>200.00000000000003</ele><time>2026-04-07T07:46:24.999Z</time></trkpt><trkpt lat="45.794772699465135" lon="9.419181752455387"><ele>200.0</ele><time>2026-04-07T07:46:25.999Z</time></trkpt><trkpt lat="45.794706781798496" lon="9.419198867111971"><ele>200.00000000000003</ele><time>2026-04-07T07:46:26.999Z</time></trkpt><trkpt lat="45.794638549764755" lon="9.419198454216723"><ele>200.0</ele><time>2026-04-07T07:46:27.999Z</time></trkpt><trkpt lat="45.794567998077085" lon="9.41918609461622"><ele>200.0</ele><time>2026-04-07T07:46:28.999Z</time></trkpt><trkpt lat="45.79449775155768" lon="9.419155182950464"><ele>200.0</ele><time>2026-04-07T07:46:29.999Z</time></trkpt><trkpt lat="45.79443154411261" lon="9.419130637668218"><ele>200.0</ele><time>2026-04-07T07:46:30.999Z</time></trkpt><trkpt lat="45.794359210334775" lon="9.419113421542697"><ele>200.00000000000003</ele><time>2026-04-07T07:46:31.999Z</time></trkpt><trkpt lat="45.79428592406094" lon="9.419111975106555"><ele>200.0</ele><time>2026-04-07T07:46:32.999Z</time></trkpt><trkpt lat="45.79421699003253" lon="9.419142190527646"><ele>200.14285714285717</ele><time>2026-04-07T07:46:33.999Z</time></trkpt><trkpt lat="45.79415458450937" lon="9.419186877289878"><ele>200.28571428571428</ele><time>2026-04-07T07:46:34.999Z</time></trkpt><trkpt lat="45.79410094371503" lon="9.419247428251094"><ele>200.42857142857144</ele><time>2026-04-07T07:46:35.999Z</time></trkpt><trkpt lat="45.79405198098972" lon="9.419316475286575"><ele>200.57142857142858</ele><time>2026-04-07T07:46:36.999Z</time></trkpt><trkpt lat="45.79399854632729" lon="9.419379072505818"><ele>200.71428571428572</ele><time>2026-04-07T07:46:37.999Z</time></trkpt><trkpt lat="45.793942214019104" lon="9.41944417016765"><ele>200.85714285714286</ele><time>2026-04-07T07:46:38.999Z</time></trkpt><trkpt lat="45.79388289950869" lon="9.419501768989836"><ele>201.0</ele><time>2026-04-07T07:46:39.999Z</time></trkpt><trkpt lat="45.79382895495614" lon="9.419569375467661"><ele>201.0</ele><time>2026-04-07T07:46:40.999Z</time></trkpt><trkpt lat="45.79377717065993" lon="9.419635955122851"><ele>201.0</ele><time>2026-04-07T07:46:41.999Z</time></trkpt><trkpt lat="45.79372861753966" lon="9.419705125072332"><ele>201.0</ele><time>2026-04-07T07:46:42.999Z</time></trkpt><trkpt lat="45.79369475613625" lon="9.419790132388263"><ele>201.0</ele><time>2026-04-07T07:46:43.999Z</time></trkpt><trkpt lat="45.79366962831406" lon="9.419883065930295"><ele>201.0</ele><time>2026-04-07T07:46:44.999Z</time></trkpt><trkpt lat="45.79365961566352" lon="9.419981803539113"><ele>201.0</ele><time>2026-04-07T07:46:45.999Z</time></trkpt><trkpt lat="45.793667551383216" lon="9.420084454474805"><ele>201.0</ele><time>2026-04-07T07:46:46.999Z</time></trkpt><trkpt lat="45.793684954646466" lon="9.420180044943908"><ele>201.0</ele><time>2026-04-07T07:46:47.999Z</time></trkpt><trkpt lat="45.79371026976278" lon="9.420272632911296"><ele>201.0</ele><time>2026-04-07T07:46:48.999Z</time></trkpt><trkpt lat="45.79374157106205" lon="9.420359603180719"><ele>201.0</ele><time>2026-04-07T07:46:49.999Z</time></trkpt><trkpt lat="45.793780991250635" lon="9.42043753422616"><ele>201.0</ele><time>2026-04-07T07:46:50.999Z</time></trkpt><trkpt lat="45.79383002938732" lon="9.420500339307038"><ele>201.0</ele><time>2026-04-07T07:46:51.999Z</time></trkpt><trkpt lat="45.793885850331336" lon="9.420553794093568"><ele>201.0</ele><time>2026-04-07T07:46:52.999Z</time></trkpt><trkpt lat="45.79394355375799" lon="9.420604485854287"><ele>201.0</ele><time>2026-04-07T07:46:53.999Z</time></trkpt><trkpt lat="45.79400128701856" lon="9.420649128271501"><ele>201.0</ele><time>2026-04-07T07:46:54.999Z</time></trkpt><trkpt lat="45.79406081040645" lon="9.420690468573477"><ele>201.0</ele><time>2026-04-07T07:46:55.999Z</time></trkpt><trkpt lat="45.79411923631757" lon="9.420730762304835"><ele>201.0</ele><time>2026-04-07T07:46:56.999Z</time></trkpt><trkpt lat="45.79422499414195" lon="9.420828252143025"><ele>201.0</ele><time>2026-04-07T07:46:58.999Z</time></trkpt><trkpt lat="45.79427132245265" lon="9.42089131033765"><ele>201.0</ele><time>2026-04-07T07:46:59.999Z</time></trkpt><trkpt lat="45.794302508224945" lon="9.420976285648877"><ele>201.0</ele><time>2026-04-07T07:47:00.999Z</time></trkpt><trkpt lat="45.79431202170774" lon="9.421076151896122"><ele>201.0</ele><time>2026-04-07T07:47:01.999Z</time></trkpt><trkpt lat="45.79430264939885" lon="9.42117930474441"><ele>201.0</ele><time>2026-04-07T07:47:02.999Z</time></trkpt><trkpt lat="45.79428529401327" lon="9.42127354905838"><ele>201.0</ele><time>2026-04-07T07:47:03.999Z</time></trkpt><trkpt lat="45.7942682755206" lon="9.421362862166067"><ele>201.0</ele><time>2026-04-07T07:47:04.999Z</time></trkpt><trkpt lat="45.79424447374527" lon="9.421457788414356"><ele>201.0</ele><time>2026-04-07T07:47:05.999Z</time></trkpt><trkpt lat="45.79422445974352" lon="9.421552316977623"><ele>201.0</ele><time>2026-04-07T07:47:06.999Z</time></trkpt><trkpt lat="45.79420412096568" lon="9.421644099108327"><ele>201.0</ele><time>2026-04-07T07:47:07.999Z</time></trkpt><trkpt lat="45.79418621704016" lon="9.421737938546105"><ele>200.83333333333334</ele><time>2026-04-07T07:47:08.999Z</time></trkpt><trkpt lat="45.79416958131642" lon="9.421825428577401"><ele>200.66666666666669</ele><time>2026-04-07T07:47:09.999Z</time></trkpt><trkpt lat="45.79415531489752" lon="9.421913382954758"><ele>200.5</ele><time>2026-04-07T07:47:10.999Z</time></trkpt><trkpt lat="45.79417716222577" lon="9.422081669921162"><ele>200.33333333333334</ele><time>2026-04-07T07:47:12.999Z</time></trkpt><trkpt lat="45.79420885789373" lon="9.422161265929532"><ele>200.16666666666669</ele><time>2026-04-07T07:47:13.999Z</time></trkpt><trkpt lat="45.7942592629502" lon="9.422320485316718"><ele>200.0</ele><time>2026-04-07T07:47:16Z</time></trkpt><trkpt lat="45.79422322799527" lon="9.42249576066095"><ele>200.00000000000003</ele><time>2026-04-07T07:47:18Z</time></trkpt><trkpt lat="45.79418888006391" lon="9.422582149368372"><ele>200.0</ele><time>2026-04-07T07:47:19Z</time></trkpt><trkpt lat="45.794155741886016" lon="9.42266776726785"><ele>200.0</ele><time>2026-04-07T07:47:20Z</time></trkpt><trkpt lat="45.79412162015311" lon="9.42275260940902"><ele>200.0</ele><time>2026-04-07T07:47:21Z</time></trkpt><trkpt lat="45.794089199999576" lon="9.42284188631387"><ele>200.0</ele><time>2026-04-07T07:47:22Z</time></trkpt><trkpt lat="45.79406152892618" lon="9.422932919226517"><ele>200.00000000000003</ele><time>2026-04-07T07:47:23Z</time></trkpt><trkpt lat="45.79403330734401" lon="9.423029009051872"><ele>200.0</ele><time>2026-04-07T07:47:24Z</time></trkpt><trkpt lat="45.79400093619665" lon="9.423118448255213"><ele>199.85714285714286</ele><time>2026-04-07T07:47:25Z</time></trkpt><trkpt lat="45.79396531349724" lon="9.423205756806226"><ele>199.71428571428572</ele><time>2026-04-07T07:47:26Z</time></trkpt><trkpt lat="45.79393437154845" lon="9.42329607429675"><ele>199.57142857142856</ele><time>2026-04-07T07:47:27Z</time></trkpt><trkpt lat="45.79390377432224" lon="9.423386994527409"><ele>199.42857142857144</ele><time>2026-04-07T07:47:28Z</time></trkpt><trkpt lat="45.793873747994425" lon="9.423476154985822"><ele>199.28571428571428</ele><time>2026-04-07T07:47:29Z</time></trkpt><trkpt lat="45.79384000685408" lon="9.423563989652752"><ele>199.14285714285714</ele><time>2026-04-07T07:47:30Z</time></trkpt><trkpt lat="45.79380264645213" lon="9.42364828331488"><ele>199.0</ele><time>2026-04-07T07:47:31Z</time></trkpt><trkpt lat="45.793766005862174" lon="9.423735456068226"><ele>198.85714285714283</ele><time>2026-04-07T07:47:32Z</time></trkpt><trkpt lat="45.79373028345603" lon="9.423823811845914"><ele>198.71428571428572</ele><time>2026-04-07T07:47:33Z</time></trkpt><trkpt lat="45.79369427454835" lon="9.4239144394736"><ele>198.57142857142856</ele><time>2026-04-07T07:47:34Z</time></trkpt><trkpt lat="45.793659386568315" lon="9.424002709837483"><ele>198.42857142857142</ele><time>2026-04-07T07:47:35Z</time></trkpt><trkpt lat="45.793626544586985" lon="9.424089012221947"><ele>198.28571428571428</ele><time>2026-04-07T07:47:36Z</time></trkpt><trkpt lat="45.79359433714127" lon="9.424176112725407"><ele>198.14285714285714</ele><time>2026-04-07T07:47:37Z</time></trkpt><trkpt lat="45.793564968264555" lon="9.424261358850758"><ele>198.0</ele><time>2026-04-07T07:47:38Z</time></trkpt><trkpt lat="45.79353005472895" lon="9.424346715898768"><ele>198.14285714285714</ele><time>2026-04-07T07:47:39Z</time></trkpt><trkpt lat="45.79350140077793" lon="9.424441359431345"><ele>198.28571428571428</ele><time>2026-04-07T07:47:40Z</time></trkpt><trkpt lat="45.79347213593233" lon="9.424535193574402"><ele>198.42857142857142</ele><time>2026-04-07T07:47:41Z</time></trkpt><trkpt lat="45.79343938780848" lon="9.424628170910147"><ele>198.57142857142856</ele><time>2026-04-07T07:47:42Z</time></trkpt><trkpt lat="45.793404547534095" lon="9.424721490464297"><ele>198.71428571428572</ele><time>2026-04-07T07:47:43Z</time></trkpt><trkpt lat="45.79336771693698" lon="9.424806335927682"><ele>198.85714285714283</ele><time>2026-04-07T07:47:44Z</time></trkpt><trkpt lat="45.793331337916754" lon="9.424898144657824"><ele>199.0</ele><time>2026-04-07T07:47:45Z</time></trkpt><trkpt lat="45.79329786298097" lon="9.424996297315307"><ele>199.16666666666666</ele><time>2026-04-07T07:47:46Z</time></trkpt><trkpt lat="45.79326998134818" lon="9.425092856686703"><ele>199.33333333333331</ele><time>2026-04-07T07:47:47Z</time></trkpt><trkpt lat="45.79323947466764" lon="9.425184310922084"><ele>199.5</ele><time>2026-04-07T07:47:48Z</time></trkpt><trkpt lat="45.79320682767019" lon="9.425276070289936"><ele>199.66666666666669</ele><time>2026-04-07T07:47:49Z</time></trkpt><trkpt lat="45.79308029492261" lon="9.425300420903579"><ele>199.83333333333334</ele><time>2026-04-07T07:47:50Z</time></trkpt><trkpt lat="45.793048737917225" lon="9.425379534215637"><ele>200.0</ele><time>2026-04-07T07:47:51Z</time></trkpt><trkpt lat="45.79301204160755" lon="9.425467766690467"><ele>199.85714285714286</ele><time>2026-04-07T07:47:52Z</time></trkpt><trkpt lat="45.792972296482816" lon="9.425565034056216"><ele>199.71428571428572</ele><time>2026-04-07T07:47:53Z</time></trkpt><trkpt lat="45.792938319903804" lon="9.425656940789903"><ele>199.57142857142856</ele><time>2026-04-07T07:47:54Z</time></trkpt><trkpt lat="45.792905794358006" lon="9.42574514821065"><ele>199.42857142857144</ele><time>2026-04-07T07:47:55Z</time></trkpt><trkpt lat="45.792871520386164" lon="9.425833629259943"><ele>199.28571428571428</ele><time>2026-04-07T07:47:56Z</time></trkpt><trkpt lat="45.79283633278807" lon="9.425918914088417"><ele>199.14285714285714</ele><time>2026-04-07T07:47:57Z</time></trkpt><trkpt lat="45.792800582532394" lon="9.42600205660183"><ele>199.0</ele><time>2026-04-07T07:47:58Z</time></trkpt><trkpt lat="45.792723282846225" lon="9.426139641257162"><ele>198.99999999999997</ele><time>2026-04-07T07:48:00Z</time></trkpt><trkpt lat="45.79267428160908" lon="9.426215836477239"><ele>199.0</ele><time>2026-04-07T07:48:01Z</time></trkpt><trkpt lat="45.79262511879026" lon="9.426292343109496"><ele>199.0</ele><time>2026-04-07T07:48:02Z</time></trkpt><trkpt lat="45.79257634955788" lon="9.426368294844355"><ele>199.0</ele><time>2026-04-07T07:48:03Z</time></trkpt><trkpt lat="45.79252642021253" lon="9.426446053356274"><ele>199.0</ele><time>2026-04-07T07:48:04Z</time></trkpt><trkpt lat="45.79247666751375" lon="9.426525240039322"><ele>198.99999999999997</ele><time>2026-04-07T07:48:05Z</time></trkpt><trkpt lat="45.79242883446488" lon="9.42660364176523"><ele>199.0</ele><time>2026-04-07T07:48:06Z</time></trkpt><trkpt lat="45.79237983933218" lon="9.426687358667731"><ele>199.16666666666666</ele><time>2026-04-07T07:48:07Z</time></trkpt><trkpt lat="45.792333492456294" lon="9.4267696848009"><ele>199.33333333333331</ele><time>2026-04-07T07:48:08Z</time></trkpt><trkpt lat="45.79228920927051" lon="9.426848748411718"><ele>199.5</ele><time>2026-04-07T07:48:09Z</time></trkpt><trkpt lat="45.79224615672027" lon="9.426925614899192"><ele>199.66666666666669</ele><time>2026-04-07T07:48:09.999Z</time></trkpt><trkpt lat="45.79220484311288" lon="9.426998285807288"><ele>199.83333333333334</ele><time>2026-04-07T07:48:10.999Z</time></trkpt><trkpt lat="45.792164307273836" lon="9.427069198606036"><ele>200.0</ele><time>2026-04-07T07:48:11.999Z</time></trkpt><trkpt lat="45.79208312306581" lon="9.427205746425376"><ele>199.8</ele><time>2026-04-07T07:48:13.999Z</time></trkpt><trkpt lat="45.79200857891765" lon="9.427301438767428"><ele>199.6</ele><time>2026-04-07T07:48:15.999Z</time></trkpt><trkpt lat="45.79193005991557" lon="9.427334682056557"><ele>199.39999999999998</ele><time>2026-04-07T07:48:17.999Z</time></trkpt><trkpt lat="45.7918805773193" lon="9.427262395775692"><ele>199.2</ele><time>2026-04-07T07:48:20.999Z</time></trkpt><trkpt lat="45.79182582771774" lon="9.427206858245166"><ele>199.0</ele><time>2026-04-07T07:48:22.999Z</time></trkpt><trkpt lat="45.79162784412149" lon="9.427455626859325"><ele>198.99999999999997</ele><time>2026-04-07T07:48:34.999Z</time></trkpt><trkpt lat="45.791580755956055" lon="9.427538220306618"><ele>199.0</ele><time>2026-04-07T07:48:36.999Z</time></trkpt><trkpt lat="45.791516519205885" lon="9.427648523527322"><ele>199.0</ele><time>2026-04-07T07:48:38.999Z</time></trkpt><trkpt lat="45.791439618107404" lon="9.427778931864184"><ele>199.0</ele><time>2026-04-07T07:48:40.999Z</time></trkpt><trkpt lat="45.79139845305181" lon="9.427848853750548"><ele>198.99999999999997</ele><time>2026-04-07T07:48:41.999Z</time></trkpt><trkpt lat="45.79135625018308" lon="9.427920657264488"><ele>199.0</ele><time>2026-04-07T07:48:42.999Z</time></trkpt><trkpt lat="45.79131368164596" lon="9.427993083038174"><ele>198.83333333333331</ele><time>2026-04-07T07:48:43.999Z</time></trkpt><trkpt lat="45.79127148682836" lon="9.428064872952406"><ele>198.66666666666666</ele><time>2026-04-07T07:48:44.999Z</time></trkpt><trkpt lat="45.791230228756085" lon="9.428135069003517"><ele>198.5</ele><time>2026-04-07T07:48:45.999Z</time></trkpt><trkpt lat="45.79114961201618" lon="9.428272229766193"><ele>198.33333333333331</ele><time>2026-04-07T07:48:47.999Z</time></trkpt><trkpt lat="45.791108174359245" lon="9.428342901436539"><ele>198.16666666666666</ele><time>2026-04-07T07:48:48.999Z</time></trkpt><trkpt lat="45.79103036638028" lon="9.428476672896055"><ele>198.0</ele><time>2026-04-07T07:48:50.999Z</time></trkpt><trkpt lat="45.79096264258717" lon="9.428593106958955"><ele>198.2</ele><time>2026-04-07T07:48:52.999Z</time></trkpt><trkpt lat="45.79091005863516" lon="9.428679839876327"><ele>198.4</ele><time>2026-04-07T07:48:54.999Z</time></trkpt><trkpt lat="45.79084909325362" lon="9.42877308185649"><ele>198.6</ele><time>2026-04-07T07:48:56.999Z</time></trkpt><trkpt lat="45.790775936546055" lon="9.428865504487462"><ele>198.79999999999998</ele><time>2026-04-07T07:48:58.999Z</time></trkpt><trkpt lat="45.79069328421371" lon="9.428940869414495"><ele>199.0</ele><time>2026-04-07T07:49:00.999Z</time></trkpt><trkpt lat="45.790583966872404" lon="9.429022249669195"><ele>198.99999999999997</ele><time>2026-04-07T07:49:02.999Z</time></trkpt><trkpt lat="45.79052586869732" lon="9.429063910149099"><ele>199.0</ele><time>2026-04-07T07:49:03.999Z</time></trkpt><trkpt lat="45.790469169039525" lon="9.429104334192129"><ele>199.0</ele><time>2026-04-07T07:49:04.999Z</time></trkpt><trkpt lat="45.79041274424527" lon="9.429144394001689"><ele>199.0</ele><time>2026-04-07T07:49:05.999Z</time></trkpt><trkpt lat="45.79030384421116" lon="9.429221709299336"><ele>198.99999999999997</ele><time>2026-04-07T07:49:07.999Z</time></trkpt><trkpt lat="45.79020154381734" lon="9.429294871089013"><ele>199.0</ele><time>2026-04-07T07:49:09.999Z</time></trkpt><trkpt lat="45.79010524170364" lon="9.429366253500353"><ele>199.0</ele><time>2026-04-07T07:49:11.999Z</time></trkpt><trkpt lat="45.79000761891345" lon="9.429439660182863"><ele>199.0</ele><time>2026-04-07T07:49:13.999Z</time></trkpt><trkpt lat="45.789905144810255" lon="9.429518740542573"><ele>199.0</ele><time>2026-04-07T07:49:15.999Z</time></trkpt><trkpt lat="45.78979520083556" lon="9.42960816920531"><ele>199.0</ele><time>2026-04-07T07:49:17.999Z</time></trkpt><trkpt lat="45.78968659951865" lon="9.42970262904221"><ele>199.0</ele><time>2026-04-07T07:49:19.999Z</time></trkpt><trkpt lat="45.78963249688079" lon="9.429752619239082"><ele>199.0</ele><time>2026-04-07T07:49:21Z</time></trkpt><trkpt lat="45.789527937209535" lon="9.429850153658796"><ele>199.0</ele><time>2026-04-07T07:49:23Z</time></trkpt><trkpt lat="45.78942714398732" lon="9.429946233132748"><ele>199.0</ele><time>2026-04-07T07:49:25Z</time></trkpt><trkpt lat="45.789321012190726" lon="9.430047401780948"><ele>199.0</ele><time>2026-04-07T07:49:27Z</time></trkpt><trkpt lat="45.789271781766686" lon="9.43012259081804"><ele>198.85714285714283</ele><time>2026-04-07T07:49:28Z</time></trkpt><trkpt lat="45.78921187488456" lon="9.4301744401906"><ele>198.71428571428572</ele><time>2026-04-07T07:49:29Z</time></trkpt><trkpt lat="45.7891518139198" lon="9.43023035868654"><ele>198.57142857142856</ele><time>2026-04-07T07:49:30Z</time></trkpt><trkpt lat="45.78909012162131" lon="9.4302882578784"><ele>198.42857142857142</ele><time>2026-04-07T07:49:31Z</time></trkpt><trkpt lat="45.789027213334144" lon="9.430346042485667"><ele>198.28571428571428</ele><time>2026-04-07T07:49:32Z</time></trkpt><trkpt lat="45.7889650334064" lon="9.430404913241604"><ele>198.14285714285714</ele><time>2026-04-07T07:49:33Z</time></trkpt><trkpt lat="45.78890258743573" lon="9.430462710031085"><ele>198.0</ele><time>2026-04-07T07:49:34Z</time></trkpt><trkpt lat="45.78884189146974" lon="9.430523361036894"><ele>197.83333333333334</ele><time>2026-04-07T07:49:35Z</time></trkpt><trkpt lat="45.78878052574215" lon="9.430579992700672"><ele>197.66666666666669</ele><time>2026-04-07T07:49:36Z</time></trkpt><trkpt lat="45.78871960515732" lon="9.430631224806017"><ele>197.5</ele><time>2026-04-07T07:49:37Z</time></trkpt><trkpt lat="45.78865335728894" lon="9.430653220740057"><ele>197.33333333333334</ele><time>2026-04-07T07:49:38Z</time></trkpt><trkpt lat="45.788597604629786" lon="9.430700532997893"><ele>197.16666666666669</ele><time>2026-04-07T07:49:39Z</time></trkpt><trkpt lat="45.78848921496555" lon="9.430703427209185"><ele>197.0</ele><time>2026-04-07T07:49:41Z</time></trkpt><trkpt lat="45.78840987767698" lon="9.430710151119234"><ele>197.39999999999998</ele><time>2026-04-07T07:49:43Z</time></trkpt><trkpt lat="45.78832280274075" lon="9.430727342155016"><ele>197.79999999999998</ele><time>2026-04-07T07:49:44Z</time></trkpt><trkpt lat="45.78822193582168" lon="9.430805186914116"><ele>198.2</ele><time>2026-04-07T07:49:46Z</time></trkpt><trkpt lat="45.788127903212796" lon="9.43090409144568"><ele>198.6</ele><time>2026-04-07T07:49:48Z</time></trkpt><trkpt lat="45.78802974190793" lon="9.431005786349239"><ele>199.0</ele><time>2026-04-07T07:49:50Z</time></trkpt><trkpt lat="45.787940272953584" lon="9.431064379265331"><ele>199.0</ele><time>2026-04-07T07:49:52Z</time></trkpt><trkpt lat="45.787845246822556" lon="9.431109537458488"><ele>199.0</ele><time>2026-04-07T07:49:54Z</time></trkpt><trkpt lat="45.78772930075175" lon="9.431171889080307"><ele>199.0</ele><time>2026-04-07T07:49:56Z</time></trkpt><trkpt lat="45.78769377398631" lon="9.431559670439826"><ele>199.39999999999998</ele><time>2026-04-07T07:49:58Z</time></trkpt><trkpt lat="45.78759049578945" lon="9.431653213855158"><ele>199.8</ele><time>2026-04-07T07:50:00Z</time></trkpt><trkpt lat="45.78748502603183" lon="9.431771306229974"><ele>200.2</ele><time>2026-04-07T07:50:02Z</time></trkpt><trkpt lat="45.787425446918306" lon="9.431842968288587"><ele>200.60000000000002</ele><time>2026-04-07T07:50:03Z</time></trkpt><trkpt lat="45.78736852082997" lon="9.431901149997111"><ele>201.0</ele><time>2026-04-07T07:50:04Z</time></trkpt><trkpt lat="45.787315733565634" lon="9.431964464067253"><ele>201.0</ele><time>2026-04-07T07:50:05Z</time></trkpt><trkpt lat="45.78726243416052" lon="9.43202105732344"><ele>201.0</ele><time>2026-04-07T07:50:06Z</time></trkpt><trkpt lat="45.78721105460571" lon="9.432082646841073"><ele>201.0</ele><time>2026-04-07T07:50:07Z</time></trkpt><trkpt lat="45.78715540822695" lon="9.43213971118155"><ele>201.0</ele><time>2026-04-07T07:50:08Z</time></trkpt><trkpt lat="45.787100230886175" lon="9.432202036272441"><ele>201.0</ele><time>2026-04-07T07:50:09Z</time></trkpt><trkpt lat="45.78704668617889" lon="9.432271509594091"><ele>201.0</ele><time>2026-04-07T07:50:10Z</time></trkpt><trkpt lat="45.786995667555516" lon="9.432341287861073"><ele>201.0</ele><time>2026-04-07T07:50:11Z</time></trkpt><trkpt lat="45.78694430245618" lon="9.432411294191425"><ele>200.85714285714286</ele><time>2026-04-07T07:50:12Z</time></trkpt><trkpt lat="45.786890779396046" lon="9.432478986040449"><ele>200.71428571428572</ele><time>2026-04-07T07:50:13Z</time></trkpt><trkpt lat="45.78683662783666" lon="9.43254435124521"><ele>200.57142857142858</ele><time>2026-04-07T07:50:14Z</time></trkpt><trkpt lat="45.78678690084113" lon="9.432612368357294"><ele>200.42857142857144</ele><time>2026-04-07T07:50:15Z</time></trkpt><trkpt lat="45.78673346750187" lon="9.432676647657676"><ele>200.28571428571428</ele><time>2026-04-07T07:50:16Z</time></trkpt><trkpt lat="45.78667790725173" lon="9.432737193632526"><ele>200.14285714285717</ele><time>2026-04-07T07:50:17Z</time></trkpt><trkpt lat="45.78662090406237" lon="9.432799326278191"><ele>200.0</ele><time>2026-04-07T07:50:18Z</time></trkpt><trkpt lat="45.786563682242594" lon="9.432858671384567"><ele>200.00000000000003</ele><time>2026-04-07T07:50:19Z</time></trkpt><trkpt lat="45.78650516815846" lon="9.432911751572721"><ele>200.0</ele><time>2026-04-07T07:50:20Z</time></trkpt><trkpt lat="45.786448274845576" lon="9.43296844502945"><ele>200.0</ele><time>2026-04-07T07:50:21Z</time></trkpt><trkpt lat="45.78639251499579" lon="9.433025712660017"><ele>200.0</ele><time>2026-04-07T07:50:22Z</time></trkpt><trkpt lat="45.786333706447394" lon="9.43307978392788"><ele>200.0</ele><time>2026-04-07T07:50:23Z</time></trkpt><trkpt lat="45.78627329792694" lon="9.433126142101429"><ele>200.00000000000003</ele><time>2026-04-07T07:50:24Z</time></trkpt><trkpt lat="45.78621069684776" lon="9.433173967097598"><ele>200.0</ele><time>2026-04-07T07:50:25Z</time></trkpt><trkpt lat="45.78614913750791" lon="9.433223863707944"><ele>200.14285714285717</ele><time>2026-04-07T07:50:26Z</time></trkpt><trkpt lat="45.78608393577458" lon="9.43327493357454"><ele>200.28571428571428</ele><time>2026-04-07T07:50:27Z</time></trkpt><trkpt lat="45.786017675394085" lon="9.43331843783223"><ele>200.42857142857144</ele><time>2026-04-07T07:50:28Z</time></trkpt><trkpt lat="45.78595558562076" lon="9.433361748568553"><ele>200.57142857142858</ele><time>2026-04-07T07:50:29Z</time></trkpt><trkpt lat="45.785890877978424" lon="9.433406156946615"><ele>200.71428571428572</ele><time>2026-04-07T07:50:30Z</time></trkpt><trkpt lat="45.78582648083013" lon="9.433452983529873"><ele>200.85714285714286</ele><time>2026-04-07T07:50:30.999Z</time></trkpt><trkpt lat="45.785763449246105" lon="9.433495080996263"><ele>201.0</ele><time>2026-04-07T07:50:31.999Z</time></trkpt><trkpt lat="45.78569584225704" lon="9.433564012715202"><ele>201.0</ele><time>2026-04-07T07:50:32.999Z</time></trkpt><trkpt lat="45.78563278613784" lon="9.433599617305177"><ele>201.0</ele><time>2026-04-07T07:50:33.999Z</time></trkpt><trkpt lat="45.78556627487652" lon="9.43363965854841"><ele>201.0</ele><time>2026-04-07T07:50:34.999Z</time></trkpt><trkpt lat="45.78550135822535" lon="9.433671403587987"><ele>201.0</ele><time>2026-04-07T07:50:35.999Z</time></trkpt><trkpt lat="45.785368439225294" lon="9.433743905464466"><ele>201.0</ele><time>2026-04-07T07:50:37.999Z</time></trkpt><trkpt lat="45.78529559454847" lon="9.433766371146794"><ele>201.0</ele><time>2026-04-07T07:50:38.999Z</time></trkpt><trkpt lat="45.7852284514921" lon="9.433790298571166"><ele>200.28571428571428</ele><time>2026-04-07T07:50:39.999Z</time></trkpt><trkpt lat="45.78515987820664" lon="9.433816934926135"><ele>199.57142857142858</ele><time>2026-04-07T07:50:40.999Z</time></trkpt><trkpt lat="45.78508834894651" lon="9.433844469100455"><ele>198.85714285714286</ele><time>2026-04-07T07:50:41.999Z</time></trkpt><trkpt lat="45.785023266795264" lon="9.433887499508417"><ele>198.14285714285714</ele><time>2026-04-07T07:50:42.999Z</time></trkpt><trkpt lat="45.78495061601787" lon="9.433917575490447"><ele>197.42857142857144</ele><time>2026-04-07T07:50:43.999Z</time></trkpt><trkpt lat="45.78488215627323" lon="9.43395225067482"><ele>196.71428571428572</ele><time>2026-04-07T07:50:44.999Z</time></trkpt><trkpt lat="45.78481760531088" lon="9.433986015008731"><ele>196.0</ele><time>2026-04-07T07:50:45.999Z</time></trkpt><trkpt lat="45.784754284284666" lon="9.434015045966209"><ele>196.0</ele><time>2026-04-07T07:50:46.999Z</time></trkpt><trkpt lat="45.78468653278835" lon="9.434041729399105"><ele>196.0</ele><time>2026-04-07T07:50:47.999Z</time></trkpt><trkpt lat="45.78461740648224" lon="9.434049099134528"><ele>196.0</ele><time>2026-04-07T07:50:48.999Z</time></trkpt><trkpt lat="45.78454446006092" lon="9.434079413293215"><ele>196.0</ele><time>2026-04-07T07:50:49.999Z</time></trkpt><trkpt lat="45.78447692291426" lon="9.434113334803689"><ele>196.0</ele><time>2026-04-07T07:50:50.999Z</time></trkpt><trkpt lat="45.784410726199695" lon="9.43414670671818"><ele>196.0</ele><time>2026-04-07T07:50:51.999Z</time></trkpt><trkpt lat="45.78434382597302" lon="9.434171337363221"><ele>196.0</ele><time>2026-04-07T07:50:52.999Z</time></trkpt><trkpt lat="45.7842730681159" lon="9.434190943449863"><ele>196.33333333333331</ele><time>2026-04-07T07:50:53.999Z</time></trkpt><trkpt lat="45.7842030369472" lon="9.43420615527426"><ele>196.66666666666666</ele><time>2026-04-07T07:50:54.999Z</time></trkpt><trkpt lat="45.78413160057902" lon="9.43423073302812"><ele>197.0</ele><time>2026-04-07T07:50:55.999Z</time></trkpt><trkpt lat="45.78405905331953" lon="9.434249628310628"><ele>197.33333333333331</ele><time>2026-04-07T07:50:56.999Z</time></trkpt><trkpt lat="45.78398803528704" lon="9.434264315800993"><ele>197.66666666666666</ele><time>2026-04-07T07:50:57.999Z</time></trkpt><trkpt lat="45.78388820673613" lon="9.434283016905603"><ele>198.0</ele><time>2026-04-07T07:50:59.999Z</time></trkpt><trkpt lat="45.783778501829445" lon="9.434299436674115"><ele>198.0</ele><time>2026-04-07T07:51:00.999Z</time></trkpt><trkpt lat="45.783708348389695" lon="9.434339930144032"><ele>198.0</ele><time>2026-04-07T07:51:01.999Z</time></trkpt><trkpt lat="45.78364192256848" lon="9.434377199823615"><ele>198.0</ele><time>2026-04-07T07:51:02.999Z</time></trkpt><trkpt lat="45.78357111139167" lon="9.434401112605835"><ele>198.0</ele><time>2026-04-07T07:51:03.999Z</time></trkpt><trkpt lat="45.783499449226476" lon="9.434421251735333"><ele>198.0</ele><time>2026-04-07T07:51:04.999Z</time></trkpt><trkpt lat="45.78343103158258" lon="9.434440824753127"><ele>198.0</ele><time>2026-04-07T07:51:05.999Z</time></trkpt><trkpt lat="45.78336146195697" lon="9.434458997966017"><ele>198.0</ele><time>2026-04-07T07:51:06.999Z</time></trkpt><trkpt lat="45.78328610538407" lon="9.434469053797278"><ele>198.0</ele><time>2026-04-07T07:51:07.999Z</time></trkpt><trkpt lat="45.78321253271026" lon="9.434475770360926"><ele>198.0</ele><time>2026-04-07T07:51:08.999Z</time></trkpt><trkpt lat="45.783137267021175" lon="9.434488561601647"><ele>198.0</ele><time>2026-04-07T07:51:09.999Z</time></trkpt><trkpt lat="45.78306479433141" lon="9.434496920183232"><ele>198.0</ele><time>2026-04-07T07:51:10.999Z</time></trkpt><trkpt lat="45.78298978467277" lon="9.43450199164717"><ele>198.0</ele><time>2026-04-07T07:51:11.999Z</time></trkpt><trkpt lat="45.78291679797175" lon="9.434504659423476"><ele>198.0</ele><time>2026-04-07T07:51:12.999Z</time></trkpt><trkpt lat="45.78284486253418" lon="9.434516079708944"><ele>198.0</ele><time>2026-04-07T07:51:13.999Z</time></trkpt><trkpt lat="45.78277100453495" lon="9.434529136098849"><ele>198.0</ele><time>2026-04-07T07:51:14.999Z</time></trkpt><trkpt lat="45.78269982829765" lon="9.434541747324529"><ele>198.0</ele><time>2026-04-07T07:51:15.999Z</time></trkpt><trkpt lat="45.782619913304764" lon="9.434538589169021"><ele>198.0</ele><time>2026-04-07T07:51:16.999Z</time></trkpt><trkpt lat="45.78253979129716" lon="9.43452712882187"><ele>198.0</ele><time>2026-04-07T07:51:17.999Z</time></trkpt><trkpt lat="45.7824581053503" lon="9.434528057600177"><ele>198.0</ele><time>2026-04-07T07:51:18.999Z</time></trkpt><trkpt lat="45.78238009810982" lon="9.434537499353405"><ele>198.0</ele><time>2026-04-07T07:51:19.999Z</time></trkpt><trkpt lat="45.78230331181094" lon="9.434538708805414"><ele>198.0</ele><time>2026-04-07T07:51:20.999Z</time></trkpt><trkpt lat="45.782221884316876" lon="9.434543234059388"><ele>198.0</ele><time>2026-04-07T07:51:21.999Z</time></trkpt><trkpt lat="45.78214482094942" lon="9.434550293373746"><ele>198.0</ele><time>2026-04-07T07:51:22.999Z</time></trkpt><trkpt lat="45.78206866598549" lon="9.434560410081176"><ele>198.0</ele><time>2026-04-07T07:51:23.999Z</time></trkpt><trkpt lat="45.78199120814174" lon="9.434570371599296"><ele>198.0</ele><time>2026-04-07T07:51:24.999Z</time></trkpt><trkpt lat="45.78190682850067" lon="9.434580165585821"><ele>198.0</ele><time>2026-04-07T07:51:26Z</time></trkpt><trkpt lat="45.781827848107305" lon="9.434592742724188"><ele>198.0</ele><time>2026-04-07T07:51:27Z</time></trkpt><trkpt lat="45.781749239637556" lon="9.434591496945803"><ele>198.0</ele><time>2026-04-07T07:51:28Z</time></trkpt><trkpt lat="45.781664804034584" lon="9.434592304752112"><ele>198.0</ele><time>2026-04-07T07:51:29Z</time></trkpt><trkpt lat="45.781587787384126" lon="9.434597439153643"><ele>198.0</ele><time>2026-04-07T07:51:30Z</time></trkpt><trkpt lat="45.781508658182666" lon="9.43461027814377"><ele>198.0</ele><time>2026-04-07T07:51:31Z</time></trkpt><trkpt lat="45.78143340618442" lon="9.434614917844135"><ele>198.0</ele><time>2026-04-07T07:51:32Z</time></trkpt><trkpt lat="45.78135628122137" lon="9.434620916887566"><ele>198.0</ele><time>2026-04-07T07:51:33Z</time></trkpt><trkpt lat="45.78127715933647" lon="9.434621592666415"><ele>198.0</ele><time>2026-04-07T07:51:34Z</time></trkpt><trkpt lat="45.78119784460349" lon="9.434632152848456"><ele>198.0</ele><time>2026-04-07T07:51:35Z</time></trkpt><trkpt lat="45.7811199020567" lon="9.434634429510279"><ele>198.0</ele><time>2026-04-07T07:51:36Z</time></trkpt><trkpt lat="45.78104107428129" lon="9.434621363313559"><ele>198.0</ele><time>2026-04-07T07:51:37Z</time></trkpt><trkpt lat="45.78096422624008" lon="9.43460163687196"><ele>198.0</ele><time>2026-04-07T07:51:38Z</time></trkpt><trkpt lat="45.780889487902975" lon="9.434576758990495"><ele>197.71428571428572</ele><time>2026-04-07T07:51:39Z</time></trkpt><trkpt lat="45.78081655143997" lon="9.434562918586698"><ele>197.42857142857142</ele><time>2026-04-07T07:51:40Z</time></trkpt><trkpt lat="45.78074017455395" lon="9.434551503690667"><ele>197.14285714285714</ele><time>2026-04-07T07:51:41Z</time></trkpt><trkpt lat="45.780669217846494" lon="9.434534683490426"><ele>196.85714285714286</ele><time>2026-04-07T07:51:42Z</time></trkpt><trkpt lat="45.78060033419165" lon="9.434519238959336"><ele>196.57142857142856</ele><time>2026-04-07T07:51:43Z</time></trkpt><trkpt lat="45.78052540632921" lon="9.434509299871934"><ele>196.28571428571428</ele><time>2026-04-07T07:51:44Z</time></trkpt><trkpt lat="45.78045521823738" lon="9.434490713822177"><ele>196.0</ele><time>2026-04-07T07:51:45Z</time></trkpt><trkpt lat="45.780391218009484" lon="9.434447343268149"><ele>196.0</ele><time>2026-04-07T07:51:46Z</time></trkpt><trkpt lat="45.78032766122476" lon="9.434384627216918"><ele>196.0</ele><time>2026-04-07T07:51:47Z</time></trkpt><trkpt lat="45.78027321994712" lon="9.434316787606114"><ele>196.0</ele><time>2026-04-07T07:51:48Z</time></trkpt><trkpt lat="45.780223346107626" lon="9.434242876379903"><ele>196.0</ele><time>2026-04-07T07:51:49Z</time></trkpt><trkpt lat="45.780168463334064" lon="9.434174967836922"><ele>196.0</ele><time>2026-04-07T07:51:50Z</time></trkpt><trkpt lat="45.78011850806138" lon="9.434110284868696"><ele>196.0</ele><time>2026-04-07T07:51:51Z</time></trkpt><trkpt lat="45.780069526486464" lon="9.434044865518022"><ele>196.0</ele><time>2026-04-07T07:51:52Z</time></trkpt><trkpt lat="45.78002338120848" lon="9.433972358890165"><ele>196.14285714285714</ele><time>2026-04-07T07:51:53Z</time></trkpt><trkpt lat="45.77997938733394" lon="9.43389877184178"><ele>196.28571428571428</ele><time>2026-04-07T07:51:54Z</time></trkpt><trkpt lat="45.77992947998598" lon="9.433832704094696"><ele>196.42857142857144</ele><time>2026-04-07T07:51:55Z</time></trkpt><trkpt lat="45.77987538304371" lon="9.433772954643057"><ele>196.57142857142856</ele><time>2026-04-07T07:51:56Z</time></trkpt><trkpt lat="45.779817672954465" lon="9.433718760420541"><ele>196.71428571428572</ele><time>2026-04-07T07:51:57Z</time></trkpt><trkpt lat="45.7797580451188" lon="9.433665920801197"><ele>196.85714285714286</ele><time>2026-04-07T07:51:58Z</time></trkpt><trkpt lat="45.77969647946478" lon="9.433622034156055"><ele>197.0</ele><time>2026-04-07T07:51:59Z</time></trkpt><trkpt lat="45.77963293549927" lon="9.433581838934998"><ele>197.0</ele><time>2026-04-07T07:52:00Z</time></trkpt><trkpt lat="45.77956753043887" lon="9.43355121847853"><ele>197.0</ele><time>2026-04-07T07:52:01Z</time></trkpt><trkpt lat="45.779501267966126" lon="9.433514950337841"><ele>197.0</ele><time>2026-04-07T07:52:02Z</time></trkpt><trkpt lat="45.779437907078304" lon="9.433481374067991"><ele>197.0</ele><time>2026-04-07T07:52:03Z</time></trkpt><trkpt lat="45.77937786481265" lon="9.433446482724115"><ele>197.0</ele><time>2026-04-07T07:52:04Z</time></trkpt><trkpt lat="45.77931679315164" lon="9.433415728148674"><ele>197.0</ele><time>2026-04-07T07:52:05Z</time></trkpt><trkpt lat="45.77925369064287" lon="9.433402151408568"><ele>197.0</ele><time>2026-04-07T07:52:06Z</time></trkpt><trkpt lat="45.77917899051967" lon="9.433399430690153"><ele>197.2</ele><time>2026-04-07T07:52:07Z</time></trkpt><trkpt lat="45.77909406420682" lon="9.433203705987523"><ele>197.39999999999998</ele><time>2026-04-07T07:52:08Z</time></trkpt><trkpt lat="45.77901531310784" lon="9.433211583926902"><ele>197.60000000000002</ele><time>2026-04-07T07:52:09Z</time></trkpt><trkpt lat="45.77894007298844" lon="9.433219110656303"><ele>197.8</ele><time>2026-04-07T07:52:10Z</time></trkpt><trkpt lat="45.77886194304062" lon="9.433226926462256"><ele>198.0</ele><time>2026-04-07T07:52:11Z</time></trkpt><trkpt lat="45.77878386656585" lon="9.433234736906135"><ele>198.0</ele><time>2026-04-07T07:52:12Z</time></trkpt><trkpt lat="45.77870603003471" lon="9.43324252328115"><ele>198.0</ele><time>2026-04-07T07:52:13Z</time></trkpt><trkpt lat="45.778627194219865" lon="9.433250409611674"><ele>198.0</ele><time>2026-04-07T07:52:14Z</time></trkpt><trkpt lat="45.77854485730401" lon="9.433258646180299"><ele>198.0</ele><time>2026-04-07T07:52:15Z</time></trkpt><trkpt lat="45.778484391734146" lon="9.43361773813373"><ele>197.83333333333334</ele><time>2026-04-07T07:52:16Z</time></trkpt><trkpt lat="45.778403452205666" lon="9.433638218481951"><ele>197.66666666666669</ele><time>2026-04-07T07:52:17Z</time></trkpt><trkpt lat="45.77832362544983" lon="9.43365470215975"><ele>197.5</ele><time>2026-04-07T07:52:18Z</time></trkpt><trkpt lat="45.77824366796094" lon="9.43367165147863"><ele>197.33333333333334</ele><time>2026-04-07T07:52:19Z</time></trkpt><trkpt lat="45.77816141316851" lon="9.433691117661768"><ele>197.16666666666669</ele><time>2026-04-07T07:52:20Z</time></trkpt><trkpt lat="45.77808008986802" lon="9.433713153050165"><ele>197.0</ele><time>2026-04-07T07:52:21Z</time></trkpt><trkpt lat="45.77799750193216" lon="9.433735560416919"><ele>197.00000000000003</ele><time>2026-04-07T07:52:22Z</time></trkpt><trkpt lat="45.777921149316505" lon="9.43375710516345"><ele>197.0</ele><time>2026-04-07T07:52:23Z</time></trkpt><trkpt lat="45.777840439238936" lon="9.433775630345073"><ele>197.0</ele><time>2026-04-07T07:52:24Z</time></trkpt><trkpt lat="45.777759338868734" lon="9.43378870672614"><ele>197.0</ele><time>2026-04-07T07:52:25Z</time></trkpt><trkpt lat="45.777675971418354" lon="9.43379548007826"><ele>197.00000000000003</ele><time>2026-04-07T07:52:26Z</time></trkpt><trkpt lat="45.77759539463165" lon="9.433799728033959"><ele>197.0</ele><time>2026-04-07T07:52:27Z</time></trkpt><trkpt lat="45.77751248261934" lon="9.433804428404835"><ele>196.50000000000003</ele><time>2026-04-07T07:52:28Z</time></trkpt><trkpt lat="45.777430205706956" lon="9.433809414673961"><ele>196.0</ele><time>2026-04-07T07:52:29Z</time></trkpt><trkpt lat="45.777349632643826" lon="9.433810454574619"><ele>195.5</ele><time>2026-04-07T07:52:30Z</time></trkpt><trkpt lat="45.777267760566936" lon="9.433812849445575"><ele>195.0</ele><time>2026-04-07T07:52:31Z</time></trkpt><trkpt lat="45.77718635091302" lon="9.433821471151193"><ele>194.50000000000003</ele><time>2026-04-07T07:52:32Z</time></trkpt><trkpt lat="45.77710494967333" lon="9.433834256598997"><ele>194.0</ele><time>2026-04-07T07:52:33Z</time></trkpt><trkpt lat="45.77702275234456" lon="9.433846966345929"><ele>194.00000000000003</ele><time>2026-04-07T07:52:34Z</time></trkpt><trkpt lat="45.77694151409719" lon="9.433854959213207"><ele>194.0</ele><time>2026-04-07T07:52:35Z</time></trkpt><trkpt lat="45.776861523071105" lon="9.433862947832655"><ele>194.0</ele><time>2026-04-07T07:52:36Z</time></trkpt><trkpt lat="45.77678064886896" lon="9.43387549391669"><ele>194.0</ele><time>2026-04-07T07:52:37Z</time></trkpt><trkpt lat="45.77670160906229" lon="9.433885266721328"><ele>194.00000000000003</ele><time>2026-04-07T07:52:38Z</time></trkpt><trkpt lat="45.776621003587124" lon="9.433887607869895"><ele>194.0</ele><time>2026-04-07T07:52:39Z</time></trkpt><trkpt lat="45.77654153655329" lon="9.433885830677356"><ele>193.66666666666669</ele><time>2026-04-07T07:52:40Z</time></trkpt><trkpt lat="45.77646272584313" lon="9.433876636285646"><ele>193.33333333333334</ele><time>2026-04-07T07:52:41Z</time></trkpt><trkpt lat="45.776386120195106" lon="9.433866789955871"><ele>193.0</ele><time>2026-04-07T07:52:42Z</time></trkpt><trkpt lat="45.776305861552196" lon="9.433856679148212"><ele>192.66666666666669</ele><time>2026-04-07T07:52:43Z</time></trkpt><trkpt lat="45.77622907261099" lon="9.433847007731513"><ele>192.33333333333334</ele><time>2026-04-07T07:52:44Z</time></trkpt><trkpt lat="45.77615453083384" lon="9.433833000074022"><ele>192.0</ele><time>2026-04-07T07:52:45Z</time></trkpt><trkpt lat="45.77608104781752" lon="9.433825764254324"><ele>193.0</ele><time>2026-04-07T07:52:46Z</time></trkpt><trkpt lat="45.77600336946038" lon="9.433812250572034"><ele>194.0</ele><time>2026-04-07T07:52:47Z</time></trkpt><trkpt lat="45.77593027744754" lon="9.433797295429626"><ele>195.0</ele><time>2026-04-07T07:52:48Z</time></trkpt><trkpt lat="45.775854614465864" lon="9.433786088359797"><ele>196.0</ele><time>2026-04-07T07:52:49Z</time></trkpt><trkpt lat="45.77577902193725" lon="9.433785220151291"><ele>197.0</ele><time>2026-04-07T07:52:50Z</time></trkpt><trkpt lat="45.775701118062905" lon="9.433784126570945"><ele>198.0</ele><time>2026-04-07T07:52:50.999Z</time></trkpt><trkpt lat="45.77562506963812" lon="9.43378097314275"><ele>198.0</ele><time>2026-04-07T07:52:51.999Z</time></trkpt><trkpt lat="45.775552333657" lon="9.433780021388333"><ele>198.0</ele><time>2026-04-07T07:52:52.999Z</time></trkpt><trkpt lat="45.77547862255564" lon="9.433781132904766"><ele>198.0</ele><time>2026-04-07T07:52:53.999Z</time></trkpt><trkpt lat="45.77540247096562" lon="9.433796481665777"><ele>198.0</ele><time>2026-04-07T07:52:54.999Z</time></trkpt><trkpt lat="45.775326717169456" lon="9.433809460567794"><ele>198.0</ele><time>2026-04-07T07:52:55.999Z</time></trkpt><trkpt lat="45.77524983217032" lon="9.433821944317666"><ele>198.0</ele><time>2026-04-07T07:52:56.999Z</time></trkpt><trkpt lat="45.77517234241489" lon="9.433833425883382"><ele>197.66666666666666</ele><time>2026-04-07T07:52:57.999Z</time></trkpt><trkpt lat="45.77509393365245" lon="9.433850328968905"><ele>197.33333333333331</ele><time>2026-04-07T07:52:58.999Z</time></trkpt><trkpt lat="45.77502110834744" lon="9.43387483737242"><ele>197.0</ele><time>2026-04-07T07:52:59.999Z</time></trkpt><trkpt lat="45.77494509074311" lon="9.433900352656693"><ele>196.66666666666666</ele><time>2026-04-07T07:53:00.999Z</time></trkpt><trkpt lat="45.77487261086477" lon="9.433922346849222"><ele>196.33333333333331</ele><time>2026-04-07T07:53:01.999Z</time></trkpt><trkpt lat="45.77479648029997" lon="9.433941598768588"><ele>196.0</ele><time>2026-04-07T07:53:02.999Z</time></trkpt><trkpt lat="45.77472126580854" lon="9.43395676573434"><ele>195.99999999999997</ele><time>2026-04-07T07:53:03.999Z</time></trkpt><trkpt lat="45.77464569596804" lon="9.433968403423194"><ele>196.0</ele><time>2026-04-07T07:53:04.999Z</time></trkpt><trkpt lat="45.774568660663455" lon="9.433978786744664"><ele>196.0</ele><time>2026-04-07T07:53:05.999Z</time></trkpt><trkpt lat="45.77449088401633" lon="9.433987563949245"><ele>196.0</ele><time>2026-04-07T07:53:06.999Z</time></trkpt><trkpt lat="45.77441446899531" lon="9.433983442897313"><ele>195.99999999999997</ele><time>2026-04-07T07:53:07.999Z</time></trkpt><trkpt lat="45.77433735593566" lon="9.433987971254622"><ele>196.0</ele><time>2026-04-07T07:53:08.999Z</time></trkpt><trkpt lat="45.77426010708424" lon="9.433992490927691"><ele>196.57142857142858</ele><time>2026-04-07T07:53:09.999Z</time></trkpt><trkpt lat="45.77419083932635" lon="9.433971506302244"><ele>197.14285714285714</ele><time>2026-04-07T07:53:10.999Z</time></trkpt><trkpt lat="45.77412579915367" lon="9.433926475959003"><ele>197.71428571428572</ele><time>2026-04-07T07:53:11.999Z</time></trkpt><trkpt lat="45.77407513692983" lon="9.43384965374194"><ele>198.28571428571428</ele><time>2026-04-07T07:53:12.999Z</time></trkpt><trkpt lat="45.77403782329866" lon="9.433761879427593"><ele>198.85714285714286</ele><time>2026-04-07T07:53:13.999Z</time></trkpt><trkpt lat="45.77401412795378" lon="9.433662340870645"><ele>199.42857142857144</ele><time>2026-04-07T07:53:14.999Z</time></trkpt><trkpt lat="45.77398332820593" lon="9.433572085881028"><ele>200.0</ele><time>2026-04-07T07:53:15.999Z</time></trkpt><trkpt lat="45.773946347648824" lon="9.43348519313382"><ele>200.00000000000003</ele><time>2026-04-07T07:53:16.999Z</time></trkpt><trkpt lat="45.773913549479346" lon="9.43339843792497"><ele>200.0</ele><time>2026-04-07T07:53:17.999Z</time></trkpt><trkpt lat="45.77388348718216" lon="9.433311985664533"><ele>200.0</ele><time>2026-04-07T07:53:18.999Z</time></trkpt><trkpt lat="45.773859632671964" lon="9.433218141783062"><ele>200.0</ele><time>2026-04-07T07:53:19.999Z</time></trkpt><trkpt lat="45.77384406818414" lon="9.43311472669218"><ele>200.0</ele><time>2026-04-07T07:53:20.999Z</time></trkpt><trkpt lat="45.7738368778323" lon="9.433013884645815"><ele>200.00000000000003</ele><time>2026-04-07T07:53:21.999Z</time></trkpt><trkpt lat="45.773843300438806" lon="9.432916726413042"><ele>200.0</ele><time>2026-04-07T07:53:22.999Z</time></trkpt><trkpt lat="45.77385879867838" lon="9.432820349061117"><ele>200.00000000000003</ele><time>2026-04-07T07:53:23.999Z</time></trkpt><trkpt lat="45.77387384063518" lon="9.432719685679713"><ele>200.0</ele><time>2026-04-07T07:53:24.999Z</time></trkpt><trkpt lat="45.77389338293066" lon="9.432618272098926"><ele>200.0</ele><time>2026-04-07T07:53:25.999Z</time></trkpt><trkpt lat="45.77391608362767" lon="9.432519740969376"><ele>200.0</ele><time>2026-04-07T07:53:26.999Z</time></trkpt><trkpt lat="45.773935153504524" lon="9.432414717078691"><ele>200.0</ele><time>2026-04-07T07:53:27.999Z</time></trkpt><trkpt lat="45.773954254213045" lon="9.432310859713642"><ele>200.00000000000003</ele><time>2026-04-07T07:53:28.999Z</time></trkpt><trkpt lat="45.773972911197724" lon="9.432208013691582"><ele>200.0</ele><time>2026-04-07T07:53:29.999Z</time></trkpt><trkpt lat="45.7739877697973" lon="9.432106332809976"><ele>200.00000000000003</ele><time>2026-04-07T07:53:30.999Z</time></trkpt><trkpt lat="45.774004666398994" lon="9.432003074644449"><ele>200.0</ele><time>2026-04-07T07:53:32Z</time></trkpt><trkpt lat="45.77402241796827" lon="9.431901305962723"><ele>200.0</ele><time>2026-04-07T07:53:33Z</time></trkpt><trkpt lat="45.77404196754869" lon="9.431800847685663"><ele>200.0</ele><time>2026-04-07T07:53:34Z</time></trkpt><trkpt lat="45.774059062175496" lon="9.431702015342388"><ele>200.0</ele><time>2026-04-07T07:53:35Z</time></trkpt><trkpt lat="45.77407072181306" lon="9.431599927022656"><ele>200.00000000000003</ele><time>2026-04-07T07:53:36Z</time></trkpt><trkpt lat="45.77407171593161" lon="9.43149767690074"><ele>200.0</ele><time>2026-04-07T07:53:37Z</time></trkpt><trkpt lat="45.77405724865353" lon="9.431398459081903"><ele>199.42857142857144</ele><time>2026-04-07T07:53:38Z</time></trkpt><trkpt lat="45.774032205703314" lon="9.431304644440424"><ele>198.85714285714286</ele><time>2026-04-07T07:53:39Z</time></trkpt><trkpt lat="45.773995871243905" lon="9.43121564067471"><ele>198.28571428571428</ele><time>2026-04-07T07:53:40Z</time></trkpt><trkpt lat="45.77394935670096" lon="9.431135386608297"><ele>197.71428571428572</ele><time>2026-04-07T07:53:41Z</time></trkpt><trkpt lat="45.7738951645192" lon="9.43107031273164"><ele>197.14285714285714</ele><time>2026-04-07T07:53:42Z</time></trkpt><trkpt lat="45.77383758890646" lon="9.431010057587294"><ele>196.57142857142858</ele><time>2026-04-07T07:53:43Z</time></trkpt><trkpt lat="45.77377654548621" lon="9.4309483575106"><ele>196.0</ele><time>2026-04-07T07:53:44Z</time></trkpt><trkpt lat="45.77371819827017" lon="9.430888148570157"><ele>196.0</ele><time>2026-04-07T07:53:45Z</time></trkpt><trkpt lat="45.773656200704394" lon="9.430834950794141"><ele>196.0</ele><time>2026-04-07T07:53:46Z</time></trkpt><trkpt lat="45.77359615926419" lon="9.430773674670036"><ele>196.0</ele><time>2026-04-07T07:53:47Z</time></trkpt><trkpt lat="45.77353801039123" lon="9.430711615312918"><ele>196.0</ele><time>2026-04-07T07:53:48Z</time></trkpt><trkpt lat="45.77347522198045" lon="9.430659831886802"><ele>196.0</ele><time>2026-04-07T07:53:49Z</time></trkpt><trkpt lat="45.773413252429634" lon="9.430605742928845"><ele>196.0</ele><time>2026-04-07T07:53:50Z</time></trkpt><trkpt lat="45.773353865361635" lon="9.430551788580164"><ele>196.0</ele><time>2026-04-07T07:53:51Z</time></trkpt><trkpt lat="45.77328999819944" lon="9.430498988371449"><ele>196.42857142857142</ele><time>2026-04-07T07:53:52Z</time></trkpt><trkpt lat="45.77322247775282" lon="9.430450372394649"><ele>196.85714285714286</ele><time>2026-04-07T07:53:53Z</time></trkpt><trkpt lat="45.773158782082966" lon="9.430396778268625"><ele>197.28571428571428</ele><time>2026-04-07T07:53:54Z</time></trkpt><trkpt lat="45.77309431884215" lon="9.430336118528023"><ele>197.71428571428572</ele><time>2026-04-07T07:53:55Z</time></trkpt><trkpt lat="45.77302990114103" lon="9.430282199512014"><ele>198.14285714285714</ele><time>2026-04-07T07:53:56Z</time></trkpt><trkpt lat="45.77296465331437" lon="9.430229519263623"><ele>198.57142857142856</ele><time>2026-04-07T07:53:57Z</time></trkpt><trkpt lat="45.77290107973942" lon="9.430176817579083"><ele>199.0</ele><time>2026-04-07T07:53:58Z</time></trkpt><trkpt lat="45.77283660428674" lon="9.43012249101251"><ele>198.99999999999997</ele><time>2026-04-07T07:53:59Z</time></trkpt><trkpt lat="45.772772591244696" lon="9.43006050341437"><ele>199.0</ele><time>2026-04-07T07:54:00Z</time></trkpt><trkpt lat="45.77270521750077" lon="9.430004416344646"><ele>199.0</ele><time>2026-04-07T07:54:01Z</time></trkpt><trkpt lat="45.77263944671346" lon="9.42995015879633"><ele>199.0</ele><time>2026-04-07T07:54:02Z</time></trkpt><trkpt lat="45.77256852734609" lon="9.429897386114549"><ele>198.99999999999997</ele><time>2026-04-07T07:54:03Z</time></trkpt><trkpt lat="45.77250160670786" lon="9.429839520880469"><ele>199.0</ele><time>2026-04-07T07:54:04Z</time></trkpt><trkpt lat="45.77243298773431" lon="9.429785999451795"><ele>198.83333333333331</ele><time>2026-04-07T07:54:05Z</time></trkpt><trkpt lat="45.772366511023776" lon="9.429729636534152"><ele>198.66666666666666</ele><time>2026-04-07T07:54:06Z</time></trkpt><trkpt lat="45.772302678477" lon="9.429672435752869"><ele>198.5</ele><time>2026-04-07T07:54:07Z</time></trkpt><trkpt lat="45.772238453999385" lon="9.429616964001566"><ele>198.33333333333331</ele><time>2026-04-07T07:54:08Z</time></trkpt><trkpt lat="45.772172764730584" lon="9.429560579135872"><ele>198.16666666666666</ele><time>2026-04-07T07:54:09Z</time></trkpt><trkpt lat="45.772105372396545" lon="9.42950173007224"><ele>198.0</ele><time>2026-04-07T07:54:10Z</time></trkpt><trkpt lat="45.77204028900576" lon="9.42944302282917"><ele>197.66666666666666</ele><time>2026-04-07T07:54:11Z</time></trkpt><trkpt lat="45.7719761012192" lon="9.429379354175834"><ele>197.33333333333331</ele><time>2026-04-07T07:54:12Z</time></trkpt><trkpt lat="45.7719147737922" lon="9.429313121163318"><ele>197.0</ele><time>2026-04-07T07:54:13Z</time></trkpt><trkpt lat="45.771853050414244" lon="9.429242555488978"><ele>196.66666666666666</ele><time>2026-04-07T07:54:14Z</time></trkpt><trkpt lat="45.771795042422525" lon="9.42917311195898"><ele>196.33333333333331</ele><time>2026-04-07T07:54:15Z</time></trkpt><trkpt lat="45.77173389039754" lon="9.42910288633368"><ele>196.0</ele><time>2026-04-07T07:54:16Z</time></trkpt><trkpt lat="45.77167476113025" lon="9.429027905003412"><ele>195.83333333333331</ele><time>2026-04-07T07:54:17Z</time></trkpt><trkpt lat="45.77161306094134" lon="9.428951153554934"><ele>195.66666666666666</ele><time>2026-04-07T07:54:18Z</time></trkpt><trkpt lat="45.771547339382884" lon="9.42888798424509"><ele>195.5</ele><time>2026-04-07T07:54:19Z</time></trkpt><trkpt lat="45.77147951167538" lon="9.428831009197724"><ele>195.33333333333331</ele><time>2026-04-07T07:54:20Z</time></trkpt><trkpt lat="45.771412624187086" lon="9.428776722524614"><ele>195.16666666666666</ele><time>2026-04-07T07:54:21Z</time></trkpt><trkpt lat="45.771350909206596" lon="9.428715509099133"><ele>195.0</ele><time>2026-04-07T07:54:22Z</time></trkpt><trkpt lat="45.77128724797593" lon="9.428647040723174"><ele>195.33333333333334</ele><time>2026-04-07T07:54:23Z</time></trkpt><trkpt lat="45.771215850979296" lon="9.42858490997621"><ele>195.66666666666669</ele><time>2026-04-07T07:54:24Z</time></trkpt><trkpt lat="45.771148000545125" lon="9.428524051929207"><ele>196.0</ele><time>2026-04-07T07:54:25Z</time></trkpt><trkpt lat="45.77108301857757" lon="9.428465282383586"><ele>196.33333333333334</ele><time>2026-04-07T07:54:26Z</time></trkpt><trkpt lat="45.77101781876331" lon="9.42841012827418"><ele>196.66666666666669</ele><time>2026-04-07T07:54:27Z</time></trkpt><trkpt lat="45.77095327980106" lon="9.428353772621849"><ele>197.0</ele><time>2026-04-07T07:54:28Z</time></trkpt><trkpt lat="45.77089258001862" lon="9.428289216388528"><ele>197.0</ele><time>2026-04-07T07:54:29Z</time></trkpt><trkpt lat="45.770827070702076" lon="9.428238722619124"><ele>197.0</ele><time>2026-04-07T07:54:30Z</time></trkpt><trkpt lat="45.770760928326396" lon="9.428186461774654"><ele>197.0</ele><time>2026-04-07T07:54:31Z</time></trkpt><trkpt lat="45.77069850565415" lon="9.428131414653574"><ele>197.0</ele><time>2026-04-07T07:54:32Z</time></trkpt><trkpt lat="45.77063745539435" lon="9.428072091076874"><ele>197.0</ele><time>2026-04-07T07:54:33Z</time></trkpt><trkpt lat="45.77057870150274" lon="9.428007281714422"><ele>197.0</ele><time>2026-04-07T07:54:34Z</time></trkpt><trkpt lat="45.7705222718176" lon="9.42793422142388"><ele>197.0</ele><time>2026-04-07T07:54:35Z</time></trkpt><trkpt lat="45.770470736770534" lon="9.42785548744152"><ele>197.16666666666669</ele><time>2026-04-07T07:54:36Z</time></trkpt><trkpt lat="45.77042682382292" lon="9.427766632962717"><ele>197.33333333333334</ele><time>2026-04-07T07:54:37Z</time></trkpt><trkpt lat="45.77038136950422" lon="9.427677998236778"><ele>197.5</ele><time>2026-04-07T07:54:38Z</time></trkpt><trkpt lat="45.770334534679684" lon="9.427592936439847"><ele>197.66666666666669</ele><time>2026-04-07T07:54:39Z</time></trkpt><trkpt lat="45.770291163585775" lon="9.427505669518519"><ele>197.83333333333334</ele><time>2026-04-07T07:54:40Z</time></trkpt><trkpt lat="45.77024808446717" lon="9.427419784234518"><ele>198.0</ele><time>2026-04-07T07:54:41Z</time></trkpt><trkpt lat="45.770201513048455" lon="9.427335764198105"><ele>198.14285714285714</ele><time>2026-04-07T07:54:42Z</time></trkpt><trkpt lat="45.77016425013985" lon="9.427247166264381"><ele>198.28571428571428</ele><time>2026-04-07T07:54:43Z</time></trkpt><trkpt lat="45.77011765553132" lon="9.427157848164594"><ele>198.42857142857142</ele><time>2026-04-07T07:54:44Z</time></trkpt><trkpt lat="45.77006449691935" lon="9.427081381135116"><ele>198.57142857142856</ele><time>2026-04-07T07:54:45Z</time></trkpt><trkpt lat="45.77000796318144" lon="9.427011712367504"><ele>198.71428571428572</ele><time>2026-04-07T07:54:46Z</time></trkpt><trkpt lat="45.76994994075491" lon="9.426947002332762"><ele>198.85714285714283</ele><time>2026-04-07T07:54:47Z</time></trkpt><trkpt lat="45.769888108608974" lon="9.426893185835333"><ele>199.0</ele><time>2026-04-07T07:54:48Z</time></trkpt><trkpt lat="45.76982694991496" lon="9.426843003294518"><ele>199.57142857142856</ele><time>2026-04-07T07:54:49Z</time></trkpt><trkpt lat="45.76976481473487" lon="9.426789200016051"><ele>200.14285714285714</ele><time>2026-04-07T07:54:50Z</time></trkpt><trkpt lat="45.7697013844045" lon="9.426735327192642"><ele>200.71428571428572</ele><time>2026-04-07T07:54:51Z</time></trkpt><trkpt lat="45.76964099371741" lon="9.426677740962798"><ele>201.28571428571428</ele><time>2026-04-07T07:54:52Z</time></trkpt><trkpt lat="45.76958035717795" lon="9.426626175197656"><ele>201.85714285714286</ele><time>2026-04-07T07:54:53Z</time></trkpt><trkpt lat="45.769521298072455" lon="9.426577695034558"><ele>202.42857142857142</ele><time>2026-04-07T07:54:54Z</time></trkpt><trkpt lat="45.76946250915362" lon="9.42653247610508"><ele>203.0</ele><time>2026-04-07T07:54:55Z</time></trkpt><trkpt lat="45.76939685522773" lon="9.426484271341392"><ele>202.57142857142858</ele><time>2026-04-07T07:54:56Z</time></trkpt><trkpt lat="45.76933871702178" lon="9.426425933277873"><ele>202.14285714285714</ele><time>2026-04-07T07:54:57Z</time></trkpt><trkpt lat="45.769284440138776" lon="9.426355483160672"><ele>201.71428571428572</ele><time>2026-04-07T07:54:58Z</time></trkpt><trkpt lat="45.76923518453365" lon="9.426287652003277"><ele>201.28571428571428</ele><time>2026-04-07T07:54:58.999Z</time></trkpt><trkpt lat="45.76919089755144" lon="9.426215554039956"><ele>200.85714285714286</ele><time>2026-04-07T07:54:59.999Z</time></trkpt><trkpt lat="45.76914402498558" lon="9.426140831022229"><ele>200.42857142857144</ele><time>2026-04-07T07:55:00.999Z</time></trkpt><trkpt lat="45.76909682315281" lon="9.426065804810243"><ele>200.0</ele><time>2026-04-07T07:55:01.999Z</time></trkpt><trkpt lat="45.76904769430986" lon="9.425996433684189"><ele>199.8</ele><time>2026-04-07T07:55:02.999Z</time></trkpt><trkpt lat="45.76899223722581" lon="9.425935438599446"><ele>199.6</ele><time>2026-04-07T07:55:03.999Z</time></trkpt><trkpt lat="45.76893352378955" lon="9.425888266839749"><ele>199.39999999999998</ele><time>2026-04-07T07:55:04.999Z</time></trkpt><trkpt lat="45.768819823890674" lon="9.425809164326061"><ele>199.2</ele><time>2026-04-07T07:55:06.999Z</time></trkpt><trkpt lat="45.76875970758616" lon="9.425771832544985"><ele>199.0</ele><time>2026-04-07T07:55:07.999Z</time></trkpt><trkpt lat="45.76864977823614" lon="9.42569880772937"><ele>199.0</ele><time>2026-04-07T07:55:09.999Z</time></trkpt><trkpt lat="45.7685384064172" lon="9.425623494226704"><ele>199.0</ele><time>2026-04-07T07:55:11.999Z</time></trkpt><trkpt lat="45.768425013782924" lon="9.42555176007387"><ele>199.0</ele><time>2026-04-07T07:55:13.999Z</time></trkpt><trkpt lat="45.768305161768176" lon="9.425486742426738"><ele>199.0</ele><time>2026-04-07T07:55:15.999Z</time></trkpt><trkpt lat="45.768239359397604" lon="9.425464498496869"><ele>199.0</ele><time>2026-04-07T07:55:16.999Z</time></trkpt><trkpt lat="45.768173451457386" lon="9.42544392141698"><ele>199.28571428571428</ele><time>2026-04-07T07:55:17.999Z</time></trkpt><trkpt lat="45.76810674835983" lon="9.42542682291563"><ele>199.57142857142856</ele><time>2026-04-07T07:55:18.999Z</time></trkpt><trkpt lat="45.76804036133592" lon="9.425403313113938"><ele>199.85714285714283</ele><time>2026-04-07T07:55:19.999Z</time></trkpt><trkpt lat="45.76796901174359" lon="9.425390768012372"><ele>200.14285714285714</ele><time>2026-04-07T07:55:20.999Z</time></trkpt><trkpt lat="45.76789993715032" lon="9.425379209737418"><ele>200.42857142857144</ele><time>2026-04-07T07:55:21.999Z</time></trkpt><trkpt lat="45.7678302863187" lon="9.425364330606662"><ele>200.7142857142857</ele><time>2026-04-07T07:55:22.999Z</time></trkpt><trkpt lat="45.767759317026886" lon="9.425349349896155"><ele>201.0</ele><time>2026-04-07T07:55:23.999Z</time></trkpt><trkpt lat="45.76768744562151" lon="9.42533046160743"><ele>201.28571428571428</ele><time>2026-04-07T07:55:24.999Z</time></trkpt><trkpt lat="45.767612565917645" lon="9.425313336919228"><ele>201.57142857142858</ele><time>2026-04-07T07:55:25.999Z</time></trkpt><trkpt lat="45.76753727252876" lon="9.42530272491129"><ele>201.85714285714286</ele><time>2026-04-07T07:55:26.999Z</time></trkpt><trkpt lat="45.76746310080589" lon="9.425304675349507"><ele>202.14285714285714</ele><time>2026-04-07T07:55:27.999Z</time></trkpt><trkpt lat="45.76739112765748" lon="9.42530809065353"><ele>202.42857142857144</ele><time>2026-04-07T07:55:28.999Z</time></trkpt><trkpt lat="45.76731917527538" lon="9.425319169308915"><ele>202.71428571428572</ele><time>2026-04-07T07:55:29.999Z</time></trkpt><trkpt lat="45.76724698501097" lon="9.425345269033967"><ele>203.0</ele><time>2026-04-07T07:55:30.999Z</time></trkpt><trkpt lat="45.767176575643774" lon="9.425378530446384"><ele>203.0</ele><time>2026-04-07T07:55:31.999Z</time></trkpt><trkpt lat="45.7671104996957" lon="9.425419349547642"><ele>203.0</ele><time>2026-04-07T07:55:32.999Z</time></trkpt><trkpt lat="45.76704687318889" lon="9.42545393124601"><ele>203.0</ele><time>2026-04-07T07:55:33.999Z</time></trkpt><trkpt lat="45.76697950127053" lon="9.425475236131767"><ele>203.0</ele><time>2026-04-07T07:55:34.999Z</time></trkpt><trkpt lat="45.7669102954409" lon="9.425497199992712"><ele>203.0</ele><time>2026-04-07T07:55:35.999Z</time></trkpt><trkpt lat="45.76684132408132" lon="9.425522194539951"><ele>203.0</ele><time>2026-04-07T07:55:37Z</time></trkpt><trkpt lat="45.766771358859636" lon="9.425536581704263"><ele>203.0</ele><time>2026-04-07T07:55:38Z</time></trkpt><trkpt lat="45.766702250519" lon="9.425534341946078"><ele>203.42857142857142</ele><time>2026-04-07T07:55:39Z</time></trkpt><trkpt lat="45.76663040745205" lon="9.425530831901597"><ele>203.85714285714286</ele><time>2026-04-07T07:55:40Z</time></trkpt><trkpt lat="45.76655974478435" lon="9.425521334718852"><ele>204.28571428571428</ele><time>2026-04-07T07:55:41Z</time></trkpt><trkpt lat="45.76648834669028" lon="9.42551511252187"><ele>204.71428571428572</ele><time>2026-04-07T07:55:42Z</time></trkpt><trkpt lat="45.766418704720664" lon="9.425522214095988"><ele>205.14285714285714</ele><time>2026-04-07T07:55:43Z</time></trkpt><trkpt lat="45.76635029176506" lon="9.425539043064195"><ele>205.57142857142856</ele><time>2026-04-07T07:55:44Z</time></trkpt><trkpt lat="45.76628149861377" lon="9.425549612150164"><ele>206.0</ele><time>2026-04-07T07:55:45Z</time></trkpt><trkpt lat="45.766135060015145" lon="9.425166288760655"><ele>205.99999999999997</ele><time>2026-04-07T07:55:46Z</time></trkpt><trkpt lat="45.76606951028094" lon="9.42519298225025"><ele>206.0</ele><time>2026-04-07T07:55:47Z</time></trkpt><trkpt lat="45.76600444558674" lon="9.425219478225406"><ele>206.0</ele><time>2026-04-07T07:55:48Z</time></trkpt><trkpt lat="45.7659387065896" lon="9.4252462487912"><ele>206.0</ele><time>2026-04-07T07:55:49Z</time></trkpt><trkpt lat="45.765872641428544" lon="9.425273152171352"><ele>206.0</ele><time>2026-04-07T07:55:50Z</time></trkpt><trkpt lat="45.76580250063461" lon="9.425301715257138"><ele>205.99999999999997</ele><time>2026-04-07T07:55:51Z</time></trkpt><trkpt lat="45.76573303207554" lon="9.425330004600033"><ele>206.0</ele><time>2026-04-07T07:55:52Z</time></trkpt><trkpt lat="45.76566563171049" lon="9.425357451704025"><ele>205.57142857142856</ele><time>2026-04-07T07:55:53Z</time></trkpt><trkpt lat="45.76559835379948" lon="9.425384848959986"><ele>205.14285714285714</ele><time>2026-04-07T07:55:54Z</time></trkpt><trkpt lat="45.76553232383769" lon="9.425411738005947"><ele>204.71428571428572</ele><time>2026-04-07T07:55:55Z</time></trkpt><trkpt lat="45.765464380509265" lon="9.425439406229511"><ele>204.28571428571428</ele><time>2026-04-07T07:55:56Z</time></trkpt><trkpt lat="45.76539729065495" lon="9.425466726899337"><ele>203.85714285714286</ele><time>2026-04-07T07:55:57Z</time></trkpt><trkpt lat="45.76533078231969" lon="9.425493810751298"><ele>203.42857142857142</ele><time>2026-04-07T07:55:58Z</time></trkpt><trkpt lat="45.76526234570013" lon="9.425521673209408"><ele>203.0</ele><time>2026-04-07T07:55:59Z</time></trkpt><trkpt lat="45.76519381353758" lon="9.425549487995328"><ele>203.0</ele><time>2026-04-07T07:56:00Z</time></trkpt><trkpt lat="45.765127511045954" lon="9.425576397820922"><ele>203.0</ele><time>2026-04-07T07:56:01Z</time></trkpt><trkpt lat="45.76506248181455" lon="9.425602790872679"><ele>203.0</ele><time>2026-04-07T07:56:02Z</time></trkpt><trkpt lat="45.76499604007467" lon="9.425629757234685"><ele>203.0</ele><time>2026-04-07T07:56:03Z</time></trkpt><trkpt lat="45.76492943447802" lon="9.425656790085938"><ele>203.0</ele><time>2026-04-07T07:56:04Z</time></trkpt><trkpt lat="45.76486639273184" lon="9.425682376511848"><ele>203.0</ele><time>2026-04-07T07:56:05Z</time></trkpt><trkpt lat="45.76479980596168" lon="9.425709401725332"><ele>203.0</ele><time>2026-04-07T07:56:06Z</time></trkpt><trkpt lat="45.764732952089645" lon="9.42573653533792"><ele>203.0</ele><time>2026-04-07T07:56:07Z</time></trkpt><trkpt lat="45.76466594515256" lon="9.42576373108981"><ele>203.0</ele><time>2026-04-07T07:56:08Z</time></trkpt><trkpt lat="45.76460037977109" lon="9.425790328158058"><ele>203.0</ele><time>2026-04-07T07:56:09Z</time></trkpt><trkpt lat="45.7645346900598" lon="9.425816969695148"><ele>203.0</ele><time>2026-04-07T07:56:10Z</time></trkpt><trkpt lat="45.76446838867812" lon="9.42584385931645"><ele>203.0</ele><time>2026-04-07T07:56:11Z</time></trkpt><trkpt lat="45.76439873683863" lon="9.42587210770092"><ele>203.0</ele><time>2026-04-07T07:56:12Z</time></trkpt><trkpt lat="45.76432945529884" lon="9.42590020600796"><ele>203.0</ele><time>2026-04-07T07:56:13Z</time></trkpt><trkpt lat="45.76425963466724" lon="9.425928522932825"><ele>204.42857142857142</ele><time>2026-04-07T07:56:14Z</time></trkpt><trkpt lat="45.76418917381596" lon="9.425956757593138"><ele>205.85714285714286</ele><time>2026-04-07T07:56:15Z</time></trkpt><trkpt lat="45.76411891339616" lon="9.425984926696765"><ele>207.28571428571428</ele><time>2026-04-07T07:56:16Z</time></trkpt><trkpt lat="45.764048871778286" lon="9.426013005992798"><ele>208.71428571428572</ele><time>2026-04-07T07:56:17Z</time></trkpt><trkpt lat="45.76398132637663" lon="9.426040084607061"><ele>210.14285714285714</ele><time>2026-04-07T07:56:18Z</time></trkpt><trkpt lat="45.76391510603511" lon="9.426066632032262"><ele>211.57142857142856</ele><time>2026-04-07T07:56:19Z</time></trkpt><trkpt lat="45.76384831969361" lon="9.42609340629396"><ele>213.0</ele><time>2026-04-07T07:56:20Z</time></trkpt><trkpt lat="45.763783184996065" lon="9.42611951848045"><ele>212.99999999999997</ele><time>2026-04-07T07:56:21Z</time></trkpt><trkpt lat="45.76371664448398" lon="9.4261461942454"><ele>213.0</ele><time>2026-04-07T07:56:22Z</time></trkpt><trkpt lat="45.76365057773859" lon="9.426172680069609"><ele>213.0</ele><time>2026-04-07T07:56:23Z</time></trkpt><trkpt lat="45.76358173952672" lon="9.426200276976285"><ele>213.0</ele><time>2026-04-07T07:56:24Z</time></trkpt><trkpt lat="45.7635132806997" lon="9.426227721765379"><ele>213.0</ele><time>2026-04-07T07:56:25Z</time></trkpt><trkpt lat="45.76345021074225" lon="9.426252691731387"><ele>212.99999999999997</ele><time>2026-04-07T07:56:26Z</time></trkpt><trkpt lat="45.76338090180393" lon="9.426279114738307"><ele>213.0</ele><time>2026-04-07T07:56:27Z</time></trkpt><trkpt lat="45.763312947699625" lon="9.426304543763834"><ele>211.66666666666666</ele><time>2026-04-07T07:56:28Z</time></trkpt><trkpt lat="45.76324328359284" lon="9.426330593946368"><ele>210.33333333333331</ele><time>2026-04-07T07:56:29Z</time></trkpt><trkpt lat="45.76317093515314" lon="9.426357648025045"><ele>209.0</ele><time>2026-04-07T07:56:30Z</time></trkpt><trkpt lat="45.76304710136991" lon="9.42639861962382"><ele>207.66666666666666</ele><time>2026-04-07T07:56:32Z</time></trkpt><trkpt lat="45.76298258143077" lon="9.426420249548796"><ele>206.33333333333331</ele><time>2026-04-07T07:56:33Z</time></trkpt><trkpt lat="45.76290267170712" lon="9.426476093204599"><ele>205.0</ele><time>2026-04-07T07:56:35Z</time></trkpt><trkpt lat="45.76279419469776" lon="9.426554824781947"><ele>205.0</ele><time>2026-04-07T07:56:37Z</time></trkpt><trkpt lat="45.762698664940345" lon="9.426636359814832"><ele>205.0</ele><time>2026-04-07T07:56:39Z</time></trkpt><trkpt lat="45.762615214121915" lon="9.426724445623996"><ele>205.0</ele><time>2026-04-07T07:56:41Z</time></trkpt><trkpt lat="45.762635552115796" lon="9.427741172866812"><ele>204.42857142857144</ele><time>2026-04-07T07:56:42Z</time></trkpt><trkpt lat="45.76259352351477" lon="9.427813385944628"><ele>203.85714285714283</ele><time>2026-04-07T07:56:43Z</time></trkpt><trkpt lat="45.76256127695045" lon="9.427899538640542"><ele>203.28571428571428</ele><time>2026-04-07T07:56:44Z</time></trkpt><trkpt lat="45.762524998639044" lon="9.427991775022681"><ele>202.71428571428572</ele><time>2026-04-07T07:56:45Z</time></trkpt><trkpt lat="45.76248609769227" lon="9.428085416678924"><ele>202.14285714285717</ele><time>2026-04-07T07:56:46Z</time></trkpt><trkpt lat="45.76245218033097" lon="9.428179459807238"><ele>201.57142857142856</ele><time>2026-04-07T07:56:47Z</time></trkpt><trkpt lat="45.76241979706951" lon="9.428276539563393"><ele>201.0</ele><time>2026-04-07T07:56:48Z</time></trkpt><trkpt lat="45.762388070003716" lon="9.428366089403672"><ele>201.0</ele><time>2026-04-07T07:56:49Z</time></trkpt><trkpt lat="45.762355013042104" lon="9.4284576526592"><ele>201.0</ele><time>2026-04-07T07:56:50Z</time></trkpt><trkpt lat="45.76232857331185" lon="9.428555898564932"><ele>201.0</ele><time>2026-04-07T07:56:51Z</time></trkpt><trkpt lat="45.76226914882706" lon="9.42870857984101"><ele>201.0</ele><time>2026-04-07T07:56:53Z</time></trkpt><trkpt lat="45.76224076522817" lon="9.428793936500556"><ele>201.0</ele><time>2026-04-07T07:56:54Z</time></trkpt><trkpt lat="45.76219511827955" lon="9.428970870151899"><ele>200.28571428571428</ele><time>2026-04-07T07:56:56Z</time></trkpt><trkpt lat="45.762167075800356" lon="9.429069452873083"><ele>199.57142857142858</ele><time>2026-04-07T07:56:57Z</time></trkpt><trkpt lat="45.762133814979705" lon="9.429164494200451"><ele>198.85714285714286</ele><time>2026-04-07T07:56:58Z</time></trkpt><trkpt lat="45.76210393739913" lon="9.429255016744099"><ele>198.14285714285714</ele><time>2026-04-07T07:56:59Z</time></trkpt><trkpt lat="45.76207639186816" lon="9.429353936352806"><ele>197.42857142857144</ele><time>2026-04-07T07:57:00Z</time></trkpt><trkpt lat="45.762049022441175" lon="9.429459038143172"><ele>196.71428571428572</ele><time>2026-04-07T07:57:01Z</time></trkpt><trkpt lat="45.76202394139371" lon="9.42955982821515"><ele>196.0</ele><time>2026-04-07T07:57:02Z</time></trkpt><trkpt lat="45.76200531055724" lon="9.429666604496854"><ele>195.99999999999997</ele><time>2026-04-07T07:57:03Z</time></trkpt><trkpt lat="45.761982227264824" lon="9.42977474980778"><ele>196.0</ele><time>2026-04-07T07:57:04Z</time></trkpt><trkpt lat="45.761955781066696" lon="9.429873874211383"><ele>196.0</ele><time>2026-04-07T07:57:05Z</time></trkpt><trkpt lat="45.76193091691051" lon="9.429978591367586"><ele>196.0</ele><time>2026-04-07T07:57:06Z</time></trkpt><trkpt lat="45.76190245366639" lon="9.430085510983368"><ele>195.99999999999997</ele><time>2026-04-07T07:57:06.999Z</time></trkpt><trkpt lat="45.761866642120125" lon="9.430191222623918"><ele>196.0</ele><time>2026-04-07T07:57:07.999Z</time></trkpt><trkpt lat="45.76183196249677" lon="9.430298649591823"><ele>196.66666666666666</ele><time>2026-04-07T07:57:08.999Z</time></trkpt><trkpt lat="45.76180707584352" lon="9.430407035718735"><ele>197.33333333333331</ele><time>2026-04-07T07:57:09.999Z</time></trkpt><trkpt lat="45.76178236755023" lon="9.430516367576912"><ele>198.0</ele><time>2026-04-07T07:57:10.999Z</time></trkpt><trkpt lat="45.76176795244305" lon="9.430620023528439"><ele>198.66666666666669</ele><time>2026-04-07T07:57:11.999Z</time></trkpt><trkpt lat="45.761754520056876" lon="9.430726254192313"><ele>199.33333333333334</ele><time>2026-04-07T07:57:12.999Z</time></trkpt><trkpt lat="45.76173797088242" lon="9.430829501053568"><ele>200.0</ele><time>2026-04-07T07:57:13.999Z</time></trkpt><trkpt lat="45.76171671749817" lon="9.430935470538458"><ele>200.14285714285717</ele><time>2026-04-07T07:57:14.999Z</time></trkpt><trkpt lat="45.761694336542156" lon="9.431038781325634"><ele>200.28571428571428</ele><time>2026-04-07T07:57:15.999Z</time></trkpt><trkpt lat="45.76167410313911" lon="9.431141169419963"><ele>200.42857142857144</ele><time>2026-04-07T07:57:16.999Z</time></trkpt><trkpt lat="45.761650874369366" lon="9.431241941963021"><ele>200.57142857142858</ele><time>2026-04-07T07:57:17.999Z</time></trkpt><trkpt lat="45.76162932282499" lon="9.431343526524103"><ele>200.71428571428572</ele><time>2026-04-07T07:57:18.999Z</time></trkpt><trkpt lat="45.76161084380876" lon="9.431441115419211"><ele>200.85714285714286</ele><time>2026-04-07T07:57:19.999Z</time></trkpt><trkpt lat="45.761598032734156" lon="9.431546295516318"><ele>201.0</ele><time>2026-04-07T07:57:20.999Z</time></trkpt><trkpt lat="45.76159587101725" lon="9.431657652027527"><ele>201.0</ele><time>2026-04-07T07:57:21.999Z</time></trkpt><trkpt lat="45.76159627825945" lon="9.431765313434681"><ele>201.0</ele><time>2026-04-07T07:57:22.999Z</time></trkpt><trkpt lat="45.76159664688814" lon="9.43187680541607"><ele>201.0</ele><time>2026-04-07T07:57:23.999Z</time></trkpt><trkpt lat="45.76160088967195" lon="9.431992364560156"><ele>201.0</ele><time>2026-04-07T07:57:24.999Z</time></trkpt><trkpt lat="45.761608489404196" lon="9.432101192092787"><ele>201.0</ele><time>2026-04-07T07:57:25.999Z</time></trkpt><trkpt lat="45.76163580039288" lon="9.43220206059101"><ele>201.0</ele><time>2026-04-07T07:57:26.999Z</time></trkpt><trkpt lat="45.761670819445925" lon="9.432306592981547"><ele>200.7142857142857</ele><time>2026-04-07T07:57:27.999Z</time></trkpt><trkpt lat="45.76170615683802" lon="9.432400953320217"><ele>200.42857142857144</ele><time>2026-04-07T07:57:28.999Z</time></trkpt><trkpt lat="45.76173338201665" lon="9.432502511818004"><ele>200.14285714285714</ele><time>2026-04-07T07:57:29.999Z</time></trkpt><trkpt lat="45.76173709391253" lon="9.432603938413154"><ele>199.85714285714283</ele><time>2026-04-07T07:57:30.999Z</time></trkpt><trkpt lat="45.76173670149014" lon="9.432708342674669"><ele>199.57142857142856</ele><time>2026-04-07T07:57:31.999Z</time></trkpt><trkpt lat="45.76173028670461" lon="9.432814467857863"><ele>199.28571428571428</ele><time>2026-04-07T07:57:32.999Z</time></trkpt><trkpt lat="45.76172403992855" lon="9.432920291979018"><ele>199.0</ele><time>2026-04-07T07:57:33.999Z</time></trkpt><trkpt lat="45.76172016116123" lon="9.433025083462256"><ele>198.7142857142857</ele><time>2026-04-07T07:57:34.999Z</time></trkpt><trkpt lat="45.76170508623045" lon="9.433127859486733"><ele>198.42857142857142</ele><time>2026-04-07T07:57:35.999Z</time></trkpt><trkpt lat="45.761684473844745" lon="9.433232202299676"><ele>198.14285714285714</ele><time>2026-04-07T07:57:36.999Z</time></trkpt><trkpt lat="45.76166364115879" lon="9.433331835844633"><ele>197.85714285714283</ele><time>2026-04-07T07:57:37.999Z</time></trkpt><trkpt lat="45.761643744298624" lon="9.433419601996023"><ele>197.57142857142858</ele><time>2026-04-07T07:57:38.999Z</time></trkpt><trkpt lat="45.76162525331064" lon="9.433519154782363"><ele>197.28571428571428</ele><time>2026-04-07T07:57:39.999Z</time></trkpt><trkpt lat="45.76160579213948" lon="9.433619535203938"><ele>197.0</ele><time>2026-04-07T07:57:40.999Z</time></trkpt><trkpt lat="45.76158700581348" lon="9.433723367294006"><ele>197.16666666666669</ele><time>2026-04-07T07:57:41.999Z</time></trkpt><trkpt lat="45.7615713101379" lon="9.433824165644543"><ele>197.33333333333334</ele><time>2026-04-07T07:57:43Z</time></trkpt><trkpt lat="45.761562352829394" lon="9.433925958491777"><ele>197.5</ele><time>2026-04-07T07:57:44Z</time></trkpt><trkpt lat="45.76154768235301" lon="9.43404030748234"><ele>197.66666666666669</ele><time>2026-04-07T07:57:45Z</time></trkpt><trkpt lat="45.76152896603385" lon="9.434154111796651"><ele>197.83333333333334</ele><time>2026-04-07T07:57:46Z</time></trkpt><trkpt lat="45.76150612568324" lon="9.434262586665454"><ele>198.0</ele><time>2026-04-07T07:57:47Z</time></trkpt><trkpt lat="45.76147970919271" lon="9.43437111600154"><ele>198.0</ele><time>2026-04-07T07:57:48Z</time></trkpt><trkpt lat="45.76144852401216" lon="9.43447492186662"><ele>198.0</ele><time>2026-04-07T07:57:49Z</time></trkpt><trkpt lat="45.76141032770178" lon="9.434569071774499"><ele>198.0</ele><time>2026-04-07T07:57:50Z</time></trkpt><trkpt lat="45.76137069541274" lon="9.434671034125481"><ele>198.0</ele><time>2026-04-07T07:57:51Z</time></trkpt><trkpt lat="45.76133184574227" lon="9.434768456219151"><ele>198.0</ele><time>2026-04-07T07:57:52Z</time></trkpt><trkpt lat="45.76128618415584" lon="9.434857790961969"><ele>198.0</ele><time>2026-04-07T07:57:53Z</time></trkpt><trkpt lat="45.76123163779273" lon="9.43494116738523"><ele>197.83333333333334</ele><time>2026-04-07T07:57:54Z</time></trkpt><trkpt lat="45.76117515838807" lon="9.435020011449561"><ele>197.66666666666669</ele><time>2026-04-07T07:57:55Z</time></trkpt><trkpt lat="45.76111857062998" lon="9.435093870123582"><ele>197.5</ele><time>2026-04-07T07:57:56Z</time></trkpt><trkpt lat="45.761061784899965" lon="9.435165092640213"><ele>197.33333333333334</ele><time>2026-04-07T07:57:57Z</time></trkpt><trkpt lat="45.76100383884893" lon="9.435233601088983"><ele>197.16666666666669</ele><time>2026-04-07T07:57:58Z</time></trkpt><trkpt lat="45.760951571870486" lon="9.435306872354621"><ele>197.0</ele><time>2026-04-07T07:57:59Z</time></trkpt><trkpt lat="45.76090129274519" lon="9.435384903864554"><ele>196.85714285714286</ele><time>2026-04-07T07:58:00Z</time></trkpt><trkpt lat="45.76084523266252" lon="9.43545757062132"><ele>196.71428571428572</ele><time>2026-04-07T07:58:01Z</time></trkpt><trkpt lat="45.76078240138076" lon="9.435515581216414"><ele>196.57142857142856</ele><time>2026-04-07T07:58:02Z</time></trkpt><trkpt lat="45.76071650970703" lon="9.435564673733493"><ele>196.42857142857144</ele><time>2026-04-07T07:58:03Z</time></trkpt><trkpt lat="45.7606457786004" lon="9.435598652830706"><ele>196.28571428571428</ele><time>2026-04-07T07:58:04Z</time></trkpt><trkpt lat="45.76057242437385" lon="9.435620634821584"><ele>196.14285714285714</ele><time>2026-04-07T07:58:05Z</time></trkpt><trkpt lat="45.76050147589819" lon="9.435653757960399"><ele>196.0</ele><time>2026-04-07T07:58:06Z</time></trkpt><trkpt lat="45.76043632833386" lon="9.435688174797273"><ele>196.0</ele><time>2026-04-07T07:58:07Z</time></trkpt><trkpt lat="45.7603718593191" lon="9.435728781069754"><ele>196.0</ele><time>2026-04-07T07:58:08Z</time></trkpt><trkpt lat="45.76030687860586" lon="9.435770124868096"><ele>196.0</ele><time>2026-04-07T07:58:09Z</time></trkpt><trkpt lat="45.760242559792516" lon="9.435818265250672"><ele>196.0</ele><time>2026-04-07T07:58:10Z</time></trkpt><trkpt lat="45.76018026044934" lon="9.435860248175223"><ele>196.0</ele><time>2026-04-07T07:58:11Z</time></trkpt><trkpt lat="45.760113586843346" lon="9.435909665570511"><ele>196.0</ele><time>2026-04-07T07:58:12Z</time></trkpt><trkpt lat="45.7600526667786" lon="9.435955140920125"><ele>196.0</ele><time>2026-04-07T07:58:13Z</time></trkpt><trkpt lat="45.75998303833389" lon="9.436003663939033"><ele>196.0</ele><time>2026-04-07T07:58:14Z</time></trkpt><trkpt lat="45.75991862057516" lon="9.436056568801451"><ele>196.0</ele><time>2026-04-07T07:58:15Z</time></trkpt><trkpt lat="45.75985702939774" lon="9.436109465963069"><ele>196.0</ele><time>2026-04-07T07:58:16Z</time></trkpt><trkpt lat="45.75979857109034" lon="9.436164877608949"><ele>196.0</ele><time>2026-04-07T07:58:17Z</time></trkpt><trkpt lat="45.759732390065814" lon="9.43622698276633"><ele>196.0</ele><time>2026-04-07T07:58:18Z</time></trkpt><trkpt lat="45.75967074965939" lon="9.436293221241018"><ele>196.0</ele><time>2026-04-07T07:58:19Z</time></trkpt><trkpt lat="45.75961493711297" lon="9.436367158280229"><ele>196.0</ele><time>2026-04-07T07:58:20Z</time></trkpt><trkpt lat="45.75955876493603" lon="9.436448718114322"><ele>196.33333333333331</ele><time>2026-04-07T07:58:21Z</time></trkpt><trkpt lat="45.759501801731005" lon="9.436526685147863"><ele>196.66666666666666</ele><time>2026-04-07T07:58:22Z</time></trkpt><trkpt lat="45.7594457490071" lon="9.43660477474067"><ele>197.0</ele><time>2026-04-07T07:58:23Z</time></trkpt><trkpt lat="45.759388234225284" lon="9.436681687186306"><ele>197.33333333333331</ele><time>2026-04-07T07:58:24Z</time></trkpt><trkpt lat="45.75933941629128" lon="9.436769130430696"><ele>197.66666666666666</ele><time>2026-04-07T07:58:25Z</time></trkpt><trkpt lat="45.759289930292944" lon="9.436852622857113"><ele>198.0</ele><time>2026-04-07T07:58:26Z</time></trkpt><trkpt lat="45.759239652997955" lon="9.436930599525194"><ele>198.0</ele><time>2026-04-07T07:58:27Z</time></trkpt><trkpt lat="45.75918847928105" lon="9.437006064934119"><ele>198.0</ele><time>2026-04-07T07:58:28Z</time></trkpt><trkpt lat="45.75913158914508" lon="9.437089996882007"><ele>198.0</ele><time>2026-04-07T07:58:29Z</time></trkpt><trkpt lat="45.75908368209919" lon="9.437176013441448"><ele>198.0</ele><time>2026-04-07T07:58:30Z</time></trkpt><trkpt lat="45.75903635765953" lon="9.437257758246163"><ele>198.0</ele><time>2026-04-07T07:58:31Z</time></trkpt><trkpt lat="45.75899231471321" lon="9.437343945593847"><ele>198.0</ele><time>2026-04-07T07:58:32Z</time></trkpt><trkpt lat="45.75895370905865" lon="9.43742839715953"><ele>198.0</ele><time>2026-04-07T07:58:33Z</time></trkpt><trkpt lat="45.75892115653421" lon="9.437513000361067"><ele>198.0</ele><time>2026-04-07T07:58:34Z</time></trkpt><trkpt lat="45.75888715214557" lon="9.43759238060867"><ele>198.0</ele><time>2026-04-07T07:58:35Z</time></trkpt><trkpt lat="45.75884796801913" lon="9.437672466643887"><ele>198.0</ele><time>2026-04-07T07:58:36Z</time></trkpt><trkpt lat="45.75880950653933" lon="9.437758280243731"><ele>198.0</ele><time>2026-04-07T07:58:37Z</time></trkpt><trkpt lat="45.75876243982428" lon="9.437837483746213"><ele>198.0</ele><time>2026-04-07T07:58:38Z</time></trkpt><trkpt lat="45.75871277905998" lon="9.437917830465551"><ele>198.0</ele><time>2026-04-07T07:58:39Z</time></trkpt><trkpt lat="45.75863164710907" lon="9.43804813027868"><ele>198.33333333333334</ele><time>2026-04-07T07:58:41Z</time></trkpt><trkpt lat="45.75857814624035" lon="9.438189515276882"><ele>198.66666666666669</ele><time>2026-04-07T07:58:43Z</time></trkpt><trkpt lat="45.75850358703238" lon="9.43833131549685"><ele>199.0</ele><time>2026-04-07T07:58:45Z</time></trkpt><trkpt lat="45.75846584009539" lon="9.438408751552831"><ele>199.33333333333334</ele><time>2026-04-07T07:58:46Z</time></trkpt><trkpt lat="45.758426140980184" lon="9.438487473546102"><ele>199.66666666666669</ele><time>2026-04-07T07:58:47Z</time></trkpt><trkpt lat="45.75839002276034" lon="9.438563890491245"><ele>200.0</ele><time>2026-04-07T07:58:48Z</time></trkpt><trkpt lat="45.758351747032734" lon="9.438643972068627"><ele>200.14285714285717</ele><time>2026-04-07T07:58:49Z</time></trkpt><trkpt lat="45.75831080045892" lon="9.438726535730972"><ele>200.28571428571428</ele><time>2026-04-07T07:58:50Z</time></trkpt><trkpt lat="45.75827175622548" lon="9.438806713151726"><ele>200.42857142857144</ele><time>2026-04-07T07:58:51Z</time></trkpt><trkpt lat="45.758239598211375" lon="9.43889303037299"><ele>200.57142857142858</ele><time>2026-04-07T07:58:52Z</time></trkpt><trkpt lat="45.75820548590602" lon="9.43898005239984"><ele>200.71428571428572</ele><time>2026-04-07T07:58:53Z</time></trkpt><trkpt lat="45.75816249932819" lon="9.439061875242459"><ele>200.85714285714286</ele><time>2026-04-07T07:58:54Z</time></trkpt><trkpt lat="45.758117541587374" lon="9.439142947327216"><ele>201.0</ele><time>2026-04-07T07:58:55Z</time></trkpt><trkpt lat="45.75807473014649" lon="9.439226795386007"><ele>200.42857142857142</ele><time>2026-04-07T07:58:56Z</time></trkpt><trkpt lat="45.75803595264171" lon="9.439316240556813"><ele>199.85714285714286</ele><time>2026-04-07T07:58:57Z</time></trkpt><trkpt lat="45.758001860698705" lon="9.439404937217816"><ele>199.28571428571428</ele><time>2026-04-07T07:58:58Z</time></trkpt><trkpt lat="45.75797108453306" lon="9.43949730120698"><ele>198.71428571428572</ele><time>2026-04-07T07:58:59Z</time></trkpt><trkpt lat="45.75794041417815" lon="9.439589880866347"><ele>198.14285714285717</ele><time>2026-04-07T07:59:00Z</time></trkpt><trkpt lat="45.757908001212535" lon="9.439682878995171"><ele>197.57142857142858</ele><time>2026-04-07T07:59:01Z</time></trkpt><trkpt lat="45.757878780221716" lon="9.439780215640681"><ele>197.0</ele><time>2026-04-07T07:59:02Z</time></trkpt><trkpt lat="45.75784757592878" lon="9.439872763639034"><ele>196.66666666666669</ele><time>2026-04-07T07:59:03Z</time></trkpt><trkpt lat="45.75781366554419" lon="9.439967272555037"><ele>196.33333333333334</ele><time>2026-04-07T07:59:04Z</time></trkpt><trkpt lat="45.75777642284332" lon="9.440056922932166"><ele>196.0</ele><time>2026-04-07T07:59:05Z</time></trkpt><trkpt lat="45.75773946950974" lon="9.440140875895441"><ele>195.66666666666669</ele><time>2026-04-07T07:59:06Z</time></trkpt><trkpt lat="45.75769976638078" lon="9.440211946069429"><ele>195.33333333333334</ele><time>2026-04-07T07:59:07Z</time></trkpt><trkpt lat="45.75762854137582" lon="9.440335839838362"><ele>195.0</ele><time>2026-04-07T07:59:09Z</time></trkpt><trkpt lat="45.75759019144719" lon="9.44040898944148"><ele>194.85714285714286</ele><time>2026-04-07T07:59:10Z</time></trkpt><trkpt lat="45.757559600507776" lon="9.440496936896547"><ele>194.71428571428572</ele><time>2026-04-07T07:59:11Z</time></trkpt><trkpt lat="45.75752948260165" lon="9.440591599769128"><ele>194.57142857142856</ele><time>2026-04-07T07:59:12Z</time></trkpt><trkpt lat="45.75749337275676" lon="9.440669899079463"><ele>194.42857142857144</ele><time>2026-04-07T07:59:13Z</time></trkpt><trkpt lat="45.75745430711804" lon="9.440750754151328"><ele>194.2857142857143</ele><time>2026-04-07T07:59:14Z</time></trkpt><trkpt lat="45.757419468239" lon="9.440837910398361"><ele>194.14285714285714</ele><time>2026-04-07T07:59:15Z</time></trkpt><trkpt lat="45.75738625162893" lon="9.440927005561"><ele>194.0</ele><time>2026-04-07T07:59:16Z</time></trkpt><trkpt lat="45.757350238843664" lon="9.441016506487392"><ele>194.0</ele><time>2026-04-07T07:59:17Z</time></trkpt><trkpt lat="45.75731422759255" lon="9.441104374061426"><ele>194.0</ele><time>2026-04-07T07:59:18Z</time></trkpt><trkpt lat="45.7572831256984" lon="9.441194840814044"><ele>194.0</ele><time>2026-04-07T07:59:18.999Z</time></trkpt><trkpt lat="45.75724924788069" lon="9.441284105991029"><ele>194.0</ele><time>2026-04-07T07:59:19.999Z</time></trkpt><trkpt lat="45.757210855049486" lon="9.441369485341358"><ele>194.0</ele><time>2026-04-07T07:59:20.999Z</time></trkpt><trkpt lat="45.75716743078083" lon="9.44145275335639"><ele>194.0</ele><time>2026-04-07T07:59:21.999Z</time></trkpt><trkpt lat="45.75712820951078" lon="9.441536901013603"><ele>194.0</ele><time>2026-04-07T07:59:22.999Z</time></trkpt><trkpt lat="45.75708932588761" lon="9.441615678570221"><ele>194.0</ele><time>2026-04-07T07:59:23.999Z</time></trkpt><trkpt lat="45.757049931621296" lon="9.44170153947235"><ele>194.0</ele><time>2026-04-07T07:59:24.999Z</time></trkpt><trkpt lat="45.75701071650235" lon="9.441789844117972"><ele>194.0</ele><time>2026-04-07T07:59:25.999Z</time></trkpt><trkpt lat="45.75697040657578" lon="9.44188084967318"><ele>194.0</ele><time>2026-04-07T07:59:26.999Z</time></trkpt><trkpt lat="45.75693214196402" lon="9.441973161531463"><ele>194.0</ele><time>2026-04-07T07:59:27.999Z</time></trkpt><trkpt lat="45.75689245166443" lon="9.442062377655333"><ele>194.0</ele><time>2026-04-07T07:59:28.999Z</time></trkpt><trkpt lat="45.756851949275664" lon="9.442152255361039"><ele>194.0</ele><time>2026-04-07T07:59:29.999Z</time></trkpt><trkpt lat="45.75681283021805" lon="9.442243756488775"><ele>194.0</ele><time>2026-04-07T07:59:30.999Z</time></trkpt><trkpt lat="45.756776720869155" lon="9.442332071790256"><ele>194.0</ele><time>2026-04-07T07:59:31.999Z</time></trkpt><trkpt lat="45.756737921495244" lon="9.44242052997516"><ele>194.0</ele><time>2026-04-07T07:59:32.999Z</time></trkpt><trkpt lat="45.756697295462644" lon="9.44250615372769"><ele>194.0</ele><time>2026-04-07T07:59:33.999Z</time></trkpt><trkpt lat="45.75665727148999" lon="9.442592875266492"><ele>194.0</ele><time>2026-04-07T07:59:34.999Z</time></trkpt><trkpt lat="45.75661641957438" lon="9.442678410079843"><ele>194.0</ele><time>2026-04-07T07:59:35.999Z</time></trkpt><trkpt lat="45.75658227958108" lon="9.442765963979795"><ele>194.0</ele><time>2026-04-07T07:59:36.999Z</time></trkpt><trkpt lat="45.7565515347653" lon="9.442852377726027"><ele>194.0</ele><time>2026-04-07T07:59:37.999Z</time></trkpt><trkpt lat="45.75651786550001" lon="9.442936012472726"><ele>194.0</ele><time>2026-04-07T07:59:38.999Z</time></trkpt><trkpt lat="45.756478989308675" lon="9.443017794648478"><ele>194.0</ele><time>2026-04-07T07:59:39.999Z</time></trkpt><trkpt lat="45.756439941550695" lon="9.4431012375649"><ele>194.0</ele><time>2026-04-07T07:59:40.999Z</time></trkpt><trkpt lat="45.75639865973754" lon="9.44318123311512"><ele>194.0</ele><time>2026-04-07T07:59:41.999Z</time></trkpt><trkpt lat="45.756348898052025" lon="9.44324724730903"><ele>194.0</ele><time>2026-04-07T07:59:42.999Z</time></trkpt><trkpt lat="45.75629805384729" lon="9.443312236007273"><ele>194.0</ele><time>2026-04-07T07:59:43.999Z</time></trkpt><trkpt lat="45.75625111681645" lon="9.443377224706234"><ele>194.14285714285714</ele><time>2026-04-07T07:59:44.999Z</time></trkpt><trkpt lat="45.75620422283899" lon="9.44345055149313"><ele>194.2857142857143</ele><time>2026-04-07T07:59:45.999Z</time></trkpt><trkpt lat="45.756153654739165" lon="9.443523618786545"><ele>194.42857142857144</ele><time>2026-04-07T07:59:46.999Z</time></trkpt><trkpt lat="45.75610679128978" lon="9.443602118458037"><ele>194.57142857142856</ele><time>2026-04-07T07:59:48Z</time></trkpt><trkpt lat="45.75605533001184" lon="9.44368132250738"><ele>194.71428571428572</ele><time>2026-04-07T07:59:49Z</time></trkpt><trkpt lat="45.75600488875833" lon="9.44375922812135"><ele>194.85714285714286</ele><time>2026-04-07T07:59:50Z</time></trkpt><trkpt lat="45.75595310420838" lon="9.443832393420966"><ele>195.0</ele><time>2026-04-07T07:59:51Z</time></trkpt><trkpt lat="45.75590224887041" lon="9.443908930805907"><ele>195.0</ele><time>2026-04-07T07:59:52Z</time></trkpt><trkpt lat="45.75585164970933" lon="9.443982352279729"><ele>195.0</ele><time>2026-04-07T07:59:53Z</time></trkpt><trkpt lat="45.75579989709987" lon="9.444056930784631"><ele>195.0</ele><time>2026-04-07T07:59:54Z</time></trkpt><trkpt lat="45.7557480756466" lon="9.444126395556648"><ele>195.0</ele><time>2026-04-07T07:59:55Z</time></trkpt><trkpt lat="45.7556952509431" lon="9.444202852755952"><ele>195.0</ele><time>2026-04-07T07:59:56Z</time></trkpt><trkpt lat="45.75564106943994" lon="9.44428012786077"><ele>195.0</ele><time>2026-04-07T07:59:57Z</time></trkpt><trkpt lat="45.755595261199474" lon="9.444358093980377"><ele>195.0</ele><time>2026-04-07T07:59:58Z</time></trkpt><trkpt lat="45.75554488748636" lon="9.444430786784068"><ele>195.0</ele><time>2026-04-07T07:59:59Z</time></trkpt><trkpt lat="45.755486463825335" lon="9.444501257271401"><ele>195.0</ele><time>2026-04-07T08:00:00Z</time></trkpt><trkpt lat="45.755427928991516" lon="9.44455780995755"><ele>195.0</ele><time>2026-04-07T08:00:01Z</time></trkpt><trkpt lat="45.75536693987676" lon="9.444606787680302"><ele>195.0</ele><time>2026-04-07T08:00:02Z</time></trkpt><trkpt lat="45.75530581749957" lon="9.444652870515219"><ele>195.0</ele><time>2026-04-07T08:00:03Z</time></trkpt><trkpt lat="45.75524500625552" lon="9.444689747040004"><ele>195.0</ele><time>2026-04-07T08:00:04Z</time></trkpt><trkpt lat="45.75518585583186" lon="9.444731836265522"><ele>195.0</ele><time>2026-04-07T08:00:05Z</time></trkpt><trkpt lat="45.7551198799743" lon="9.444780152862032"><ele>195.71428571428572</ele><time>2026-04-07T08:00:06Z</time></trkpt><trkpt lat="45.75505935954729" lon="9.444821489830508"><ele>196.42857142857142</ele><time>2026-04-07T08:00:07Z</time></trkpt><trkpt lat="45.754993759971526" lon="9.44486597483136"><ele>197.14285714285717</ele><time>2026-04-07T08:00:08Z</time></trkpt><trkpt lat="45.75492888916278" lon="9.444913447216804"><ele>197.85714285714286</ele><time>2026-04-07T08:00:09Z</time></trkpt><trkpt lat="45.754868631967724" lon="9.444953513115323"><ele>198.57142857142858</ele><time>2026-04-07T08:00:10Z</time></trkpt><trkpt lat="45.754806304342516" lon="9.445002315398375"><ele>199.2857142857143</ele><time>2026-04-07T08:00:11Z</time></trkpt><trkpt lat="45.754747187953846" lon="9.44504552440129"><ele>200.0</ele><time>2026-04-07T08:00:12Z</time></trkpt><trkpt lat="45.754686541670516" lon="9.445088553355994"><ele>200.00000000000003</ele><time>2026-04-07T08:00:13Z</time></trkpt><trkpt lat="45.754620087297816" lon="9.445133261591554"><ele>200.0</ele><time>2026-04-07T08:00:14Z</time></trkpt><trkpt lat="45.75455684310063" lon="9.445180396946393"><ele>200.0</ele><time>2026-04-07T08:00:15Z</time></trkpt><trkpt lat="45.754491611858086" lon="9.44522270529058"><ele>200.0</ele><time>2026-04-07T08:00:16Z</time></trkpt><trkpt lat="45.7544252552649" lon="9.445269974790081"><ele>200.0</ele><time>2026-04-07T08:00:17Z</time></trkpt><trkpt lat="45.75436045866958" lon="9.445318327149536"><ele>200.00000000000003</ele><time>2026-04-07T08:00:18Z</time></trkpt><trkpt lat="45.754295323726346" lon="9.445367981822171"><ele>200.0</ele><time>2026-04-07T08:00:19Z</time></trkpt><trkpt lat="45.754232271241705" lon="9.445421564987784"><ele>199.2857142857143</ele><time>2026-04-07T08:00:20Z</time></trkpt><trkpt lat="45.75417470638745" lon="9.445482794718046"><ele>198.57142857142858</ele><time>2026-04-07T08:00:21Z</time></trkpt><trkpt lat="45.75412359891758" lon="9.445557859875942"><ele>197.85714285714286</ele><time>2026-04-07T08:00:22Z</time></trkpt><trkpt lat="45.75407075333312" lon="9.445635460834296"><ele>197.14285714285717</ele><time>2026-04-07T08:00:23Z</time></trkpt><trkpt lat="45.754022106459345" lon="9.445715993733314"><ele>196.42857142857142</ele><time>2026-04-07T08:00:24Z</time></trkpt><trkpt lat="45.75397290983789" lon="9.445795752167829"><ele>195.71428571428572</ele><time>2026-04-07T08:00:25Z</time></trkpt><trkpt lat="45.75392361438605" lon="9.445876884414444"><ele>195.0</ele><time>2026-04-07T08:00:26Z</time></trkpt><trkpt lat="45.75387404985362" lon="9.445954582398677"><ele>195.0</ele><time>2026-04-07T08:00:27Z</time></trkpt><trkpt lat="45.75382457857289" lon="9.446030701147489"><ele>195.0</ele><time>2026-04-07T08:00:28Z</time></trkpt><trkpt lat="45.75377418094179" lon="9.4461083351203"><ele>195.0</ele><time>2026-04-07T08:00:29Z</time></trkpt><trkpt lat="45.75372479800559" lon="9.446185917099498"><ele>195.0</ele><time>2026-04-07T08:00:30Z</time></trkpt><trkpt lat="45.75367697361001" lon="9.44627035138276"><ele>195.0</ele><time>2026-04-07T08:00:31Z</time></trkpt><trkpt lat="45.753627027594575" lon="9.446352501961083"><ele>195.0</ele><time>2026-04-07T08:00:32Z</time></trkpt><trkpt lat="45.75357687775811" lon="9.446432227886762"><ele>195.0</ele><time>2026-04-07T08:00:33Z</time></trkpt><trkpt lat="45.75352833872423" lon="9.446514517296324"><ele>195.0</ele><time>2026-04-07T08:00:34Z</time></trkpt><trkpt lat="45.75348071513429" lon="9.446597020363058"><ele>195.0</ele><time>2026-04-07T08:00:35Z</time></trkpt><trkpt lat="45.75342939144626" lon="9.44667641975541"><ele>195.0</ele><time>2026-04-07T08:00:36Z</time></trkpt><trkpt lat="45.75337832105333" lon="9.446753002727501"><ele>195.0</ele><time>2026-04-07T08:00:37Z</time></trkpt><trkpt lat="45.75333124427036" lon="9.446836036049492"><ele>195.0</ele><time>2026-04-07T08:00:38Z</time></trkpt><trkpt lat="45.753281667637545" lon="9.446917208092584"><ele>195.0</ele><time>2026-04-07T08:00:39Z</time></trkpt><trkpt lat="45.75322724343124" lon="9.44698983229501"><ele>195.0</ele><time>2026-04-07T08:00:40Z</time></trkpt><trkpt lat="45.75317189231369" lon="9.447058230814509"><ele>195.0</ele><time>2026-04-07T08:00:41Z</time></trkpt><trkpt lat="45.75311436509471" lon="9.447125514032594"><ele>195.0</ele><time>2026-04-07T08:00:42Z</time></trkpt><trkpt lat="45.75305439596268" lon="9.447191480025882"><ele>195.0</ele><time>2026-04-07T08:00:43Z</time></trkpt><trkpt lat="45.752993117769705" lon="9.44725643810691"><ele>195.0</ele><time>2026-04-07T08:00:44Z</time></trkpt><trkpt lat="45.75293538281782" lon="9.447325753839058"><ele>195.0</ele><time>2026-04-07T08:00:45Z</time></trkpt><trkpt lat="45.752875032162365" lon="9.447393935786195"><ele>195.0</ele><time>2026-04-07T08:00:46Z</time></trkpt><trkpt lat="45.75281246419802" lon="9.447460415552598"><ele>195.16666666666666</ele><time>2026-04-07T08:00:47Z</time></trkpt><trkpt lat="45.752750509004095" lon="9.44752542025582"><ele>195.33333333333331</ele><time>2026-04-07T08:00:48Z</time></trkpt><trkpt lat="45.752688335516005" lon="9.447589851598513"><ele>195.5</ele><time>2026-04-07T08:00:49Z</time></trkpt><trkpt lat="45.752627458324724" lon="9.447658005157864"><ele>195.66666666666666</ele><time>2026-04-07T08:00:50Z</time></trkpt><trkpt lat="45.75256697640018" lon="9.447724943269794"><ele>195.83333333333331</ele><time>2026-04-07T08:00:51Z</time></trkpt><trkpt lat="45.75250616229415" lon="9.447793857774613"><ele>196.0</ele><time>2026-04-07T08:00:52Z</time></trkpt><trkpt lat="45.752448326831896" lon="9.447864212227069"><ele>196.0</ele><time>2026-04-07T08:00:53Z</time></trkpt><trkpt lat="45.7523860745911" lon="9.447932202084464"><ele>196.0</ele><time>2026-04-07T08:00:54Z</time></trkpt><trkpt lat="45.75232351895304" lon="9.447996742104232"><ele>196.0</ele><time>2026-04-07T08:00:55Z</time></trkpt><trkpt lat="45.75226756202772" lon="9.448058957865877"><ele>196.0</ele><time>2026-04-07T08:00:56Z</time></trkpt><trkpt lat="45.75220880469622" lon="9.44812511997488"><ele>196.0</ele><time>2026-04-07T08:00:57Z</time></trkpt><trkpt lat="45.75214813157649" lon="9.448193768947911"><ele>196.0</ele><time>2026-04-07T08:00:58Z</time></trkpt><trkpt lat="45.75209351177951" lon="9.4482463341558"><ele>196.0</ele><time>2026-04-07T08:00:59Z</time></trkpt><trkpt lat="45.752039426423785" lon="9.448293319517944"><ele>195.99999999999997</ele><time>2026-04-07T08:01:00Z</time></trkpt><trkpt lat="45.75197613122403" lon="9.44839694172474"><ele>196.0</ele><time>2026-04-07T08:01:01Z</time></trkpt><trkpt lat="45.7519153859939" lon="9.448467323697463"><ele>196.0</ele><time>2026-04-07T08:01:02Z</time></trkpt><trkpt lat="45.75185743676112" lon="9.448536434553713"><ele>196.0</ele><time>2026-04-07T08:01:03Z</time></trkpt><trkpt lat="45.751798561396754" lon="9.448608265598214"><ele>195.99999999999997</ele><time>2026-04-07T08:01:04Z</time></trkpt><trkpt lat="45.75174152960541" lon="9.448678260802495"><ele>196.0</ele><time>2026-04-07T08:01:05Z</time></trkpt><trkpt lat="45.751685599853914" lon="9.448744106073502"><ele>196.0</ele><time>2026-04-07T08:01:06Z</time></trkpt><trkpt lat="45.751627896522464" lon="9.448816997089155"><ele>196.0</ele><time>2026-04-07T08:01:07Z</time></trkpt><trkpt lat="45.75157075888075" lon="9.44888661827604"><ele>196.0</ele><time>2026-04-07T08:01:08Z</time></trkpt><trkpt lat="45.751514862401535" lon="9.448952168415714"><ele>196.0</ele><time>2026-04-07T08:01:09Z</time></trkpt><trkpt lat="45.75146261617779" lon="9.449015245341359"><ele>196.0</ele><time>2026-04-07T08:01:10Z</time></trkpt><trkpt lat="45.751411492134686" lon="9.449079002074884"><ele>196.0</ele><time>2026-04-07T08:01:11Z</time></trkpt><trkpt lat="45.751358556894154" lon="9.449146105207715"><ele>196.0</ele><time>2026-04-07T08:01:12Z</time></trkpt><trkpt lat="45.751305264108595" lon="9.449214537319554"><ele>195.99999999999997</ele><time>2026-04-07T08:01:13Z</time></trkpt><trkpt lat="45.75124961927634" lon="9.449282790571933"><ele>196.0</ele><time>2026-04-07T08:01:14Z</time></trkpt><trkpt lat="45.75119247302376" lon="9.449352071694594"><ele>196.0</ele><time>2026-04-07T08:01:15Z</time></trkpt><trkpt lat="45.75113486559546" lon="9.449419985272142"><ele>196.0</ele><time>2026-04-07T08:01:16Z</time></trkpt><trkpt lat="45.751076150470396" lon="9.449489210713294"><ele>195.99999999999997</ele><time>2026-04-07T08:01:17Z</time></trkpt><trkpt lat="45.75101707892588" lon="9.449558334213432"><ele>196.0</ele><time>2026-04-07T08:01:18Z</time></trkpt><trkpt lat="45.75095794512112" lon="9.449628265928865"><ele>195.66666666666666</ele><time>2026-04-07T08:01:19Z</time></trkpt><trkpt lat="45.75090031376227" lon="9.449703511082596"><ele>195.33333333333331</ele><time>2026-04-07T08:01:20Z</time></trkpt><trkpt lat="45.750842568959804" lon="9.449773781747012"><ele>195.0</ele><time>2026-04-07T08:01:21Z</time></trkpt><trkpt lat="45.7507829390358" lon="9.449844427855249"><ele>194.66666666666669</ele><time>2026-04-07T08:01:22Z</time></trkpt><trkpt lat="45.750721939758115" lon="9.449913794948325"><ele>194.33333333333334</ele><time>2026-04-07T08:01:23Z</time></trkpt><trkpt lat="45.75066313314644" lon="9.449983879213006"><ele>194.0</ele><time>2026-04-07T08:01:24Z</time></trkpt><trkpt lat="45.75060158547533" lon="9.450057900355322"><ele>194.00000000000003</ele><time>2026-04-07T08:01:25Z</time></trkpt><trkpt lat="45.75053781441197" lon="9.450127382074205"><ele>194.0</ele><time>2026-04-07T08:01:26Z</time></trkpt><trkpt lat="45.7504699594831" lon="9.450187904819348"><ele>194.0</ele><time>2026-04-07T08:01:27Z</time></trkpt><trkpt lat="45.750400444967696" lon="9.450251445780754"><ele>194.0</ele><time>2026-04-07T08:01:28Z</time></trkpt><trkpt lat="45.75033414722986" lon="9.45031720683801"><ele>194.00000000000003</ele><time>2026-04-07T08:01:29Z</time></trkpt><trkpt lat="45.75027131511243" lon="9.45038944733418"><ele>194.0</ele><time>2026-04-07T08:01:30Z</time></trkpt><trkpt lat="45.75020694456123" lon="9.450457542201606"><ele>193.66666666666669</ele><time>2026-04-07T08:01:31Z</time></trkpt><trkpt lat="45.75014372544052" lon="9.450526367735488"><ele>193.33333333333334</ele><time>2026-04-07T08:01:32Z</time></trkpt><trkpt lat="45.750082941932874" lon="9.450594586870698"><ele>193.0</ele><time>2026-04-07T08:01:33Z</time></trkpt><trkpt lat="45.750022240067025" lon="9.450665422512817"><ele>192.66666666666669</ele><time>2026-04-07T08:01:34Z</time></trkpt><trkpt lat="45.74996186513104" lon="9.450736303530114"><ele>192.33333333333334</ele><time>2026-04-07T08:01:35Z</time></trkpt><trkpt lat="45.74990368337299" lon="9.450802980597519"><ele>192.0</ele><time>2026-04-07T08:01:36Z</time></trkpt><trkpt lat="45.74983677060024" lon="9.450865486590322"><ele>192.0</ele><time>2026-04-07T08:01:37Z</time></trkpt><trkpt lat="45.74976628835688" lon="9.45092705301312"><ele>192.0</ele><time>2026-04-07T08:01:38Z</time></trkpt><trkpt lat="45.74969543825162" lon="9.45098532345565"><ele>192.0</ele><time>2026-04-07T08:01:39Z</time></trkpt><trkpt lat="45.74963615364744" lon="9.45105793665903"><ele>192.0</ele><time>2026-04-07T08:01:40Z</time></trkpt><trkpt lat="45.74957689593536" lon="9.451135827711603"><ele>192.0</ele><time>2026-04-07T08:01:40.999Z</time></trkpt><trkpt lat="45.74952153635027" lon="9.451212214198321"><ele>192.0</ele><time>2026-04-07T08:01:41.999Z</time></trkpt><trkpt lat="45.749461880142526" lon="9.451284760252113"><ele>192.5</ele><time>2026-04-07T08:01:42.999Z</time></trkpt><trkpt lat="45.74939824288674" lon="9.451351948844934"><ele>193.0</ele><time>2026-04-07T08:01:43.999Z</time></trkpt><trkpt lat="45.749333694832465" lon="9.45141097565986"><ele>193.5</ele><time>2026-04-07T08:01:44.999Z</time></trkpt><trkpt lat="45.749268572303365" lon="9.451475596768804"><ele>194.0</ele><time>2026-04-07T08:01:45.999Z</time></trkpt><trkpt lat="45.74920271085937" lon="9.451537771019115"><ele>194.5</ele><time>2026-04-07T08:01:46.999Z</time></trkpt><trkpt lat="45.74913755697386" lon="9.451602767627172"><ele>195.0</ele><time>2026-04-07T08:01:47.999Z</time></trkpt><trkpt lat="45.74907376607419" lon="9.451663919173493"><ele>195.33333333333334</ele><time>2026-04-07T08:01:48.999Z</time></trkpt><trkpt lat="45.749010147028855" lon="9.451726699022412"><ele>195.66666666666669</ele><time>2026-04-07T08:01:49.999Z</time></trkpt><trkpt lat="45.74894717064216" lon="9.45179048720613"><ele>196.0</ele><time>2026-04-07T08:01:50.999Z</time></trkpt><trkpt lat="45.74888410640153" lon="9.451846849897727"><ele>196.33333333333334</ele><time>2026-04-07T08:01:51.999Z</time></trkpt><trkpt lat="45.74882250899534" lon="9.451906866262476"><ele>196.66666666666669</ele><time>2026-04-07T08:01:52.999Z</time></trkpt><trkpt lat="45.748761893001294" lon="9.451966995687274"><ele>197.0</ele><time>2026-04-07T08:01:54Z</time></trkpt><trkpt lat="45.74870078467167" lon="9.452026444018468"><ele>197.00000000000003</ele><time>2026-04-07T08:01:55Z</time></trkpt><trkpt lat="45.748639644380106" lon="9.452090002516558"><ele>197.0</ele><time>2026-04-07T08:01:56Z</time></trkpt><trkpt lat="45.74857696988079" lon="9.452152709460266"><ele>197.0</ele><time>2026-04-07T08:01:57Z</time></trkpt><trkpt lat="45.748516521561534" lon="9.452213901260976"><ele>197.0</ele><time>2026-04-07T08:01:58Z</time></trkpt><trkpt lat="45.74845509345193" lon="9.45227435176758"><ele>197.00000000000003</ele><time>2026-04-07T08:01:59Z</time></trkpt><trkpt lat="45.748392449968875" lon="9.45233522369212"><ele>197.0</ele><time>2026-04-07T08:02:00Z</time></trkpt><trkpt lat="45.74832858314718" lon="9.452395416343176"><ele>196.85714285714286</ele><time>2026-04-07T08:02:01Z</time></trkpt><trkpt lat="45.74826660473453" lon="9.4524573465209"><ele>196.71428571428572</ele><time>2026-04-07T08:02:02Z</time></trkpt><trkpt lat="45.74820414540337" lon="9.452518421691943"><ele>196.57142857142856</ele><time>2026-04-07T08:02:03Z</time></trkpt><trkpt lat="45.748140959881226" lon="9.452580587754992"><ele>196.42857142857144</ele><time>2026-04-07T08:02:04Z</time></trkpt><trkpt lat="45.74807742037413" lon="9.452638854138536"><ele>196.28571428571428</ele><time>2026-04-07T08:02:05Z</time></trkpt><trkpt lat="45.74801393007231" lon="9.45269380662301"><ele>196.14285714285714</ele><time>2026-04-07T08:02:06Z</time></trkpt><trkpt lat="45.747954394629026" lon="9.452745710358405"><ele>196.0</ele><time>2026-04-07T08:02:07Z</time></trkpt><trkpt lat="45.74789350930215" lon="9.4527989563167"><ele>196.0</ele><time>2026-04-07T08:02:08Z</time></trkpt><trkpt lat="45.74782871425957" lon="9.452849546190475"><ele>196.0</ele><time>2026-04-07T08:02:09Z</time></trkpt><trkpt lat="45.747765420986234" lon="9.452897441481332"><ele>196.0</ele><time>2026-04-07T08:02:10Z</time></trkpt><trkpt lat="45.74770132805243" lon="9.452942609393101"><ele>196.0</ele><time>2026-04-07T08:02:11Z</time></trkpt><trkpt lat="45.74763407485794" lon="9.452986651993507"><ele>196.0</ele><time>2026-04-07T08:02:12Z</time></trkpt><trkpt lat="45.74756522800814" lon="9.453023725192098"><ele>196.0</ele><time>2026-04-07T08:02:13Z</time></trkpt><trkpt lat="45.74749529881374" lon="9.453060119975955"><ele>196.0</ele><time>2026-04-07T08:02:14Z</time></trkpt><trkpt lat="45.74742569371875" lon="9.453091594571491"><ele>195.71428571428572</ele><time>2026-04-07T08:02:15Z</time></trkpt><trkpt lat="45.747355058755026" lon="9.453127602401462"><ele>195.42857142857144</ele><time>2026-04-07T08:02:16Z</time></trkpt><trkpt lat="45.74728527345168" lon="9.453155502002073"><ele>195.14285714285714</ele><time>2026-04-07T08:02:17Z</time></trkpt><trkpt lat="45.747215864312096" lon="9.453178557184458"><ele>194.85714285714286</ele><time>2026-04-07T08:02:18Z</time></trkpt><trkpt lat="45.74714515310332" lon="9.453199945189699"><ele>194.57142857142858</ele><time>2026-04-07T08:02:19Z</time></trkpt><trkpt lat="45.747074262890486" lon="9.453222722161653"><ele>194.28571428571428</ele><time>2026-04-07T08:02:20Z</time></trkpt><trkpt lat="45.74700373388581" lon="9.45324295661453"><ele>194.0</ele><time>2026-04-07T08:02:21Z</time></trkpt><trkpt lat="45.74693173082692" lon="9.453265005655856"><ele>193.7142857142857</ele><time>2026-04-07T08:02:22Z</time></trkpt><trkpt lat="45.746859864746845" lon="9.453286344775314"><ele>193.42857142857144</ele><time>2026-04-07T08:02:23Z</time></trkpt><trkpt lat="45.746785973525974" lon="9.453304516459756"><ele>193.14285714285714</ele><time>2026-04-07T08:02:24Z</time></trkpt><trkpt lat="45.74671441245374" lon="9.453317091891766"><ele>192.85714285714283</ele><time>2026-04-07T08:02:25Z</time></trkpt><trkpt lat="45.74664039979525" lon="9.453331647641871"><ele>192.57142857142856</ele><time>2026-04-07T08:02:26Z</time></trkpt><trkpt lat="45.746567954869" lon="9.45334380977283"><ele>192.28571428571428</ele><time>2026-04-07T08:02:27Z</time></trkpt><trkpt lat="45.74649559154781" lon="9.453345824949022"><ele>192.0</ele><time>2026-04-07T08:02:28Z</time></trkpt><trkpt lat="45.746421970246956" lon="9.453347586059392"><ele>191.99999999999997</ele><time>2026-04-07T08:02:29Z</time></trkpt><trkpt lat="45.746348565873404" lon="9.453351465479406"><ele>192.0</ele><time>2026-04-07T08:02:30Z</time></trkpt><trkpt lat="45.74627901846137" lon="9.45335580894785"><ele>192.0</ele><time>2026-04-07T08:02:31Z</time></trkpt><trkpt lat="45.74620566407393" lon="9.4533621412406"><ele>192.0</ele><time>2026-04-07T08:02:32Z</time></trkpt><trkpt lat="45.746135654299785" lon="9.453364731142196"><ele>192.0</ele><time>2026-04-07T08:02:33Z</time></trkpt><trkpt lat="45.74606350374397" lon="9.453364670430505"><ele>191.99999999999997</ele><time>2026-04-07T08:02:34Z</time></trkpt><trkpt lat="45.745991915982536" lon="9.45336524830419"><ele>192.0</ele><time>2026-04-07T08:02:35Z</time></trkpt><trkpt lat="45.745921772954624" lon="9.453365466427964"><ele>191.85714285714283</ele><time>2026-04-07T08:02:36Z</time></trkpt><trkpt lat="45.74584874550271" lon="9.453354731326508"><ele>191.71428571428572</ele><time>2026-04-07T08:02:37Z</time></trkpt><trkpt lat="45.745778341648425" lon="9.453336072542424"><ele>191.57142857142856</ele><time>2026-04-07T08:02:38Z</time></trkpt><trkpt lat="45.745707894950925" lon="9.45332860956992"><ele>191.42857142857142</ele><time>2026-04-07T08:02:39Z</time></trkpt><trkpt lat="45.745635552094804" lon="9.453327412979425"><ele>191.28571428571428</ele><time>2026-04-07T08:02:40Z</time></trkpt><trkpt lat="45.74556626325242" lon="9.453307273154822"><ele>191.14285714285714</ele><time>2026-04-07T08:02:41Z</time></trkpt><trkpt lat="45.745495812240584" lon="9.453277895051428"><ele>191.0</ele><time>2026-04-07T08:02:42Z</time></trkpt><trkpt lat="45.745427770350126" lon="9.453253370229632"><ele>191.0</ele><time>2026-04-07T08:02:43Z</time></trkpt><trkpt lat="45.745353702680994" lon="9.453228574218526"><ele>191.0</ele><time>2026-04-07T08:02:44Z</time></trkpt><trkpt lat="45.74529328209564" lon="9.453200284209759"><ele>191.0</ele><time>2026-04-07T08:02:45Z</time></trkpt><trkpt lat="45.745225064195274" lon="9.453170015389395"><ele>191.0</ele><time>2026-04-07T08:02:46Z</time></trkpt><trkpt lat="45.745161494010325" lon="9.45313185893847"><ele>191.0</ele><time>2026-04-07T08:02:47Z</time></trkpt><trkpt lat="45.74509640318208" lon="9.453093317108495"><ele>191.0</ele><time>2026-04-07T08:02:48Z</time></trkpt><trkpt lat="45.745030316256866" lon="9.453050746818844"><ele>191.0</ele><time>2026-04-07T08:02:49Z</time></trkpt><trkpt lat="45.7449642306667" lon="9.45300609488698"><ele>191.14285714285714</ele><time>2026-04-07T08:02:50Z</time></trkpt><trkpt lat="45.744897952567015" lon="9.45296279947979"><ele>191.28571428571428</ele><time>2026-04-07T08:02:51Z</time></trkpt><trkpt lat="45.74483378779726" lon="9.452912851884149"><ele>191.42857142857142</ele><time>2026-04-07T08:02:52Z</time></trkpt><trkpt lat="45.74476569934474" lon="9.452860711306803"><ele>191.57142857142856</ele><time>2026-04-07T08:02:53Z</time></trkpt><trkpt lat="45.7447011064059" lon="9.452806392413022"><ele>191.71428571428572</ele><time>2026-04-07T08:02:54Z</time></trkpt><trkpt lat="45.74464018785559" lon="9.452758180762284"><ele>191.85714285714283</ele><time>2026-04-07T08:02:55Z</time></trkpt><trkpt lat="45.744584128549654" lon="9.452698213922996"><ele>192.0</ele><time>2026-04-07T08:02:56Z</time></trkpt><trkpt lat="45.74453072821205" lon="9.45263919042699"><ele>191.99999999999997</ele><time>2026-04-07T08:02:57Z</time></trkpt><trkpt lat="45.744475773578394" lon="9.452588238109271"><ele>192.0</ele><time>2026-04-07T08:02:58Z</time></trkpt><trkpt lat="45.74442075887681" lon="9.452538491329758"><ele>192.0</ele><time>2026-04-07T08:02:59Z</time></trkpt><trkpt lat="45.74436318250473" lon="9.452481423008136"><ele>192.0</ele><time>2026-04-07T08:03:00Z</time></trkpt><trkpt lat="45.74430656744618" lon="9.452431180950768"><ele>192.0</ele><time>2026-04-07T08:03:01Z</time></trkpt><trkpt lat="45.74426678312667" lon="9.452344572170716"><ele>191.99999999999997</ele><time>2026-04-07T08:03:02Z</time></trkpt><trkpt lat="45.74421335226146" lon="9.452291566271882"><ele>192.0</ele><time>2026-04-07T08:03:03Z</time></trkpt><trkpt lat="45.744127286341616" lon="9.452202790141584"><ele>192.6</ele><time>2026-04-07T08:03:05Z</time></trkpt><trkpt lat="45.74404567277873" lon="9.452094265241369"><ele>193.2</ele><time>2026-04-07T08:03:07Z</time></trkpt><trkpt lat="45.74398333050635" lon="9.451961878988161"><ele>193.8</ele><time>2026-04-07T08:03:09Z</time></trkpt><trkpt lat="45.743942377723684" lon="9.451826581394847"><ele>194.4</ele><time>2026-04-07T08:03:11Z</time></trkpt><trkpt lat="45.74389561530382" lon="9.451695377314408"><ele>195.0</ele><time>2026-04-07T08:03:13Z</time></trkpt><trkpt lat="45.743871023413995" lon="9.451567311337849"><ele>195.0</ele><time>2026-04-07T08:03:15Z</time></trkpt><trkpt lat="45.74384193917364" lon="9.451408846602993"><ele>195.0</ele><time>2026-04-07T08:03:17Z</time></trkpt><trkpt lat="45.743816163933026" lon="9.451268410862257"><ele>195.0</ele><time>2026-04-07T08:03:19Z</time></trkpt><trkpt lat="45.74377633727754" lon="9.451145364264457"><ele>195.0</ele><time>2026-04-07T08:03:21Z</time></trkpt><trkpt lat="45.743762198809506" lon="9.451005477044067"><ele>195.0</ele><time>2026-04-07T08:03:23Z</time></trkpt><trkpt lat="45.74372448511336" lon="9.450873727010302"><ele>195.25</ele><time>2026-04-07T08:03:25Z</time></trkpt><trkpt lat="45.74367622466038" lon="9.450763996252698"><ele>195.5</ele><time>2026-04-07T08:03:27Z</time></trkpt><trkpt lat="45.74360340529016" lon="9.450662694645635"><ele>195.75</ele><time>2026-04-07T08:03:29Z</time></trkpt><trkpt lat="45.74342766542726" lon="9.450899459722464"><ele>196.0</ele><time>2026-04-07T08:03:34Z</time></trkpt><trkpt lat="45.74335932115109" lon="9.45096363020499"><ele>197.0</ele><time>2026-04-07T08:03:36Z</time></trkpt><trkpt lat="45.74328111158655" lon="9.450937065505737"><ele>198.0</ele><time>2026-04-07T08:03:38Z</time></trkpt><trkpt lat="45.74342223036404" lon="9.450459701282348"><ele>199.0</ele><time>2026-04-07T08:03:40Z</time></trkpt><trkpt lat="45.74335659702744" lon="9.450392520498212"><ele>198.99999999999997</ele><time>2026-04-07T08:03:42Z</time></trkpt><trkpt lat="45.74329874266596" lon="9.450339962223861"><ele>199.0</ele><time>2026-04-07T08:03:43Z</time></trkpt><trkpt lat="45.743237568533765" lon="9.45028546274414"><ele>199.0</ele><time>2026-04-07T08:03:45Z</time></trkpt><trkpt lat="45.743158541317285" lon="9.450203743672018"><ele>199.0</ele><time>2026-04-07T08:03:47Z</time></trkpt><trkpt lat="45.74304822878744" lon="9.450101034497372"><ele>198.99999999999997</ele><time>2026-04-07T08:03:49Z</time></trkpt><trkpt lat="45.742978551528864" lon="9.450052959540018"><ele>199.0</ele><time>2026-04-07T08:03:50Z</time></trkpt><trkpt lat="45.74289302029067" lon="9.449989006020653"><ele>199.0</ele><time>2026-04-07T08:03:52Z</time></trkpt><trkpt lat="45.74279994647295" lon="9.449917723992357"><ele>199.0</ele><time>2026-04-07T08:03:54Z</time></trkpt><trkpt lat="45.742700834975224" lon="9.449845417303278"><ele>199.0</ele><time>2026-04-07T08:03:56Z</time></trkpt><trkpt lat="45.74260950256753" lon="9.449779407892592"><ele>199.0</ele><time>2026-04-07T08:03:58Z</time></trkpt><trkpt lat="45.74252911087601" lon="9.449718570240703"><ele>199.0</ele><time>2026-04-07T08:04:00Z</time></trkpt><trkpt lat="45.74244642685302" lon="9.449651870999567"><ele>199.79999999999998</ele><time>2026-04-07T08:04:02Z</time></trkpt><trkpt lat="45.742340769962574" lon="9.449580648364643"><ele>200.6</ele><time>2026-04-07T08:04:04Z</time></trkpt><trkpt lat="45.74224600193286" lon="9.449523123631117"><ele>201.4</ele><time>2026-04-07T08:04:06Z</time></trkpt><trkpt lat="45.74215851122932" lon="9.449459081822875"><ele>202.2</ele><time>2026-04-07T08:04:08Z</time></trkpt><trkpt lat="45.742079898804654" lon="9.4493967878967"><ele>203.0</ele><time>2026-04-07T08:04:10Z</time></trkpt><trkpt lat="45.742008879207205" lon="9.449331904258502"><ele>203.0</ele><time>2026-04-07T08:04:12Z</time></trkpt><trkpt lat="45.74193962810339" lon="9.44926855470874"><ele>203.0</ele><time>2026-04-07T08:04:14Z</time></trkpt><trkpt lat="45.74183238788652" lon="9.449182972874189"><ele>203.0</ele><time>2026-04-07T08:04:16Z</time></trkpt><trkpt lat="45.74173040436692" lon="9.44913240395155"><ele>203.0</ele><time>2026-04-07T08:04:18Z</time></trkpt><trkpt lat="45.7416430621258" lon="9.449095735573259"><ele>203.0</ele><time>2026-04-07T08:04:20Z</time></trkpt><trkpt lat="45.74155400136799" lon="9.449055861562647"><ele>202.8</ele><time>2026-04-07T08:04:22Z</time></trkpt><trkpt lat="45.7414474440302" lon="9.449015303137204"><ele>202.60000000000002</ele><time>2026-04-07T08:04:24Z</time></trkpt><trkpt lat="45.741364095203316" lon="9.449013465463066"><ele>202.39999999999998</ele><time>2026-04-07T08:04:25Z</time></trkpt><trkpt lat="45.741272833406654" lon="9.449014056346861"><ele>202.2</ele><time>2026-04-07T08:04:27Z</time></trkpt><trkpt lat="45.7411900933362" lon="9.449017449396196"><ele>202.0</ele><time>2026-04-07T08:04:29Z</time></trkpt><trkpt lat="45.74110251077921" lon="9.448981500145377"><ele>201.75</ele><time>2026-04-07T08:04:31Z</time></trkpt><trkpt lat="45.741006353202536" lon="9.448906325626703"><ele>201.5</ele><time>2026-04-07T08:04:33Z</time></trkpt><trkpt lat="45.74090484522777" lon="9.448816719366874"><ele>201.25</ele><time>2026-04-07T08:04:35Z</time></trkpt><trkpt lat="45.7407972934163" lon="9.448753310337857"><ele>201.0</ele><time>2026-04-07T08:04:37Z</time></trkpt><trkpt lat="45.74069197102397" lon="9.448676123407713"><ele>201.0</ele><time>2026-04-07T08:04:39Z</time></trkpt><trkpt lat="45.740585389487634" lon="9.448595820918019"><ele>201.0</ele><time>2026-04-07T08:04:41Z</time></trkpt><trkpt lat="45.740477189494214" lon="9.448514333202624"><ele>201.0</ele><time>2026-04-07T08:04:43Z</time></trkpt><trkpt lat="45.74037144277999" lon="9.448429058579189"><ele>201.0</ele><time>2026-04-07T08:04:45Z</time></trkpt><trkpt lat="45.740262790619795" lon="9.448343622332567"><ele>200.5</ele><time>2026-04-07T08:04:47Z</time></trkpt><trkpt lat="45.740148862484126" lon="9.44827328367734"><ele>200.0</ele><time>2026-04-07T08:04:49Z</time></trkpt><trkpt lat="45.74003451167679" lon="9.448213453305932"><ele>199.5</ele><time>2026-04-07T08:04:51Z</time></trkpt><trkpt lat="45.739919377293496" lon="9.448156082402116"><ele>199.0</ele><time>2026-04-07T08:04:53Z</time></trkpt><trkpt lat="45.73980869612317" lon="9.448118400926193"><ele>199.0</ele><time>2026-04-07T08:04:55Z</time></trkpt><trkpt lat="45.73970879406531" lon="9.448054087862902"><ele>199.0</ele><time>2026-04-07T08:04:57Z</time></trkpt><trkpt lat="45.73968174981891" lon="9.447971307577337"><ele>199.0</ele><time>2026-04-07T08:04:58Z</time></trkpt><trkpt lat="45.73956255559066" lon="9.44791859498519"><ele>199.0</ele><time>2026-04-07T08:05:00Z</time></trkpt><trkpt lat="45.739441336203186" lon="9.447892999094051"><ele>199.0</ele><time>2026-04-07T08:05:02Z</time></trkpt><trkpt lat="45.73932356157758" lon="9.447881291834682"><ele>200.16666666666666</ele><time>2026-04-07T08:05:04Z</time></trkpt><trkpt lat="45.7391927694796" lon="9.447869524419865"><ele>201.33333333333331</ele><time>2026-04-07T08:05:06Z</time></trkpt><trkpt lat="45.73912689398573" lon="9.447866917438603"><ele>202.5</ele><time>2026-04-07T08:05:07Z</time></trkpt><trkpt lat="45.739060614476266" lon="9.447865496950227"><ele>203.66666666666669</ele><time>2026-04-07T08:05:08Z</time></trkpt><trkpt lat="45.73899601158899" lon="9.447868711595396"><ele>204.83333333333334</ele><time>2026-04-07T08:05:09Z</time></trkpt><trkpt lat="45.738931734959934" lon="9.447872813815858"><ele>206.0</ele><time>2026-04-07T08:05:10Z</time></trkpt><trkpt lat="45.738867036223375" lon="9.447873187701889"><ele>206.00000000000003</ele><time>2026-04-07T08:05:11Z</time></trkpt><trkpt lat="45.73880274176312" lon="9.447872933704392"><ele>206.0</ele><time>2026-04-07T08:05:12Z</time></trkpt><trkpt lat="45.73873898448205" lon="9.447851316388858"><ele>206.0</ele><time>2026-04-07T08:05:13Z</time></trkpt><trkpt lat="45.738674203741915" lon="9.447853308336075"><ele>206.0</ele><time>2026-04-07T08:05:14Z</time></trkpt><trkpt lat="45.73861060729244" lon="9.447877128475701"><ele>206.00000000000003</ele><time>2026-04-07T08:05:15Z</time></trkpt><trkpt lat="45.7384875911882" lon="9.447870253431597"><ele>206.0</ele><time>2026-04-07T08:05:17Z</time></trkpt><trkpt lat="45.738368168532226" lon="9.447880344326386"><ele>203.75</ele><time>2026-04-07T08:05:19Z</time></trkpt><trkpt lat="45.73824632219893" lon="9.447904916788543"><ele>201.5</ele><time>2026-04-07T08:05:21Z</time></trkpt><trkpt lat="45.738128633862" lon="9.447931670771982"><ele>199.25</ele><time>2026-04-07T08:05:23Z</time></trkpt><trkpt lat="45.73801840292187" lon="9.447986510013282"><ele>197.0</ele><time>2026-04-07T08:05:25Z</time></trkpt><trkpt lat="45.73790453283307" lon="9.448021791364237"><ele>197.0</ele><time>2026-04-07T08:05:27Z</time></trkpt><trkpt lat="45.73779631155864" lon="9.448062007553139"><ele>197.0</ele><time>2026-04-07T08:05:29Z</time></trkpt><trkpt lat="45.737687508476675" lon="9.448089791768659"><ele>197.0</ele><time>2026-04-07T08:05:31Z</time></trkpt><trkpt lat="45.73757607650012" lon="9.448106532754535"><ele>197.0</ele><time>2026-04-07T08:05:33Z</time></trkpt><trkpt lat="45.737463005259244" lon="9.448104930846794"><ele>197.0</ele><time>2026-04-07T08:05:35Z</time></trkpt><trkpt lat="45.73734922020476" lon="9.448112282909142"><ele>197.75</ele><time>2026-04-07T08:05:37Z</time></trkpt><trkpt lat="45.737234346699395" lon="9.448114372741031"><ele>198.5</ele><time>2026-04-07T08:05:39Z</time></trkpt><trkpt lat="45.737124045594975" lon="9.448082999078244"><ele>199.25</ele><time>2026-04-07T08:05:41Z</time></trkpt><trkpt lat="45.737007829000724" lon="9.448040028014306"><ele>200.0</ele><time>2026-04-07T08:05:43Z</time></trkpt><trkpt lat="45.73690290058329" lon="9.447958755071717"><ele>201.50000000000003</ele><time>2026-04-07T08:05:45Z</time></trkpt><trkpt lat="45.73679057596697" lon="9.447884245963499"><ele>203.0</ele><time>2026-04-07T08:05:47Z</time></trkpt><trkpt lat="45.73673268181537" lon="9.447847084992453"><ele>204.5</ele><time>2026-04-07T08:05:48Z</time></trkpt><trkpt lat="45.73667478995044" lon="9.447809065160046"><ele>206.0</ele><time>2026-04-07T08:05:49Z</time></trkpt><trkpt lat="45.73658358908251" lon="9.447685722084543"><ele>207.50000000000003</ele><time>2026-04-07T08:05:51Z</time></trkpt><trkpt lat="45.73654295211646" lon="9.447608959231182"><ele>209.0</ele><time>2026-04-07T08:05:52Z</time></trkpt><trkpt lat="45.736500241632896" lon="9.44753830819849"><ele>209.0</ele><time>2026-04-07T08:05:53Z</time></trkpt><trkpt lat="45.73645866012149" lon="9.447469704858053"><ele>209.0</ele><time>2026-04-07T08:05:54Z</time></trkpt><trkpt lat="45.73641609760552" lon="9.447401300677068"><ele>209.0</ele><time>2026-04-07T08:05:55Z</time></trkpt><trkpt lat="45.73637231825279" lon="9.447330515963943"><ele>209.0</ele><time>2026-04-07T08:05:56Z</time></trkpt><trkpt lat="45.73632547211103" lon="9.44726025811414"><ele>209.0</ele><time>2026-04-07T08:05:57Z</time></trkpt><trkpt lat="45.73627689610532" lon="9.447195697192416"><ele>209.0</ele><time>2026-04-07T08:05:58Z</time></trkpt><trkpt lat="45.73622772417065" lon="9.447130853691231"><ele>209.0</ele><time>2026-04-07T08:05:59Z</time></trkpt><trkpt lat="45.73617580997791" lon="9.447059592156686"><ele>208.57142857142856</ele><time>2026-04-07T08:06:00Z</time></trkpt><trkpt lat="45.736122664103895" lon="9.446990554036606"><ele>208.14285714285714</ele><time>2026-04-07T08:06:01Z</time></trkpt><trkpt lat="45.736070343364695" lon="9.446925268103543"><ele>207.71428571428572</ele><time>2026-04-07T08:06:02Z</time></trkpt><trkpt lat="45.7360155348972" lon="9.446861720347853"><ele>207.28571428571428</ele><time>2026-04-07T08:06:03Z</time></trkpt><trkpt lat="45.73595778974065" lon="9.446806473906781"><ele>206.85714285714286</ele><time>2026-04-07T08:06:04Z</time></trkpt><trkpt lat="45.735906525363276" lon="9.446745478184873"><ele>206.42857142857142</ele><time>2026-04-07T08:06:05Z</time></trkpt><trkpt lat="45.73585674416887" lon="9.446679892009913"><ele>206.0</ele><time>2026-04-07T08:06:06Z</time></trkpt><trkpt lat="45.7358043097639" lon="9.446612586982852"><ele>205.99999999999997</ele><time>2026-04-07T08:06:07Z</time></trkpt><trkpt lat="45.73575064406435" lon="9.446545407250161"><ele>206.0</ele><time>2026-04-07T08:06:08Z</time></trkpt><trkpt lat="45.735693080512725" lon="9.446490264528757"><ele>206.0</ele><time>2026-04-07T08:06:09Z</time></trkpt><trkpt lat="45.7356335040771" lon="9.446435171513917"><ele>206.0</ele><time>2026-04-07T08:06:10Z</time></trkpt><trkpt lat="45.73557668885822" lon="9.44637816106183"><ele>206.0</ele><time>2026-04-07T08:06:11Z</time></trkpt><trkpt lat="45.73551803579146" lon="9.446321257829723"><ele>205.99999999999997</ele><time>2026-04-07T08:06:12Z</time></trkpt><trkpt lat="45.735459763114655" lon="9.44626064677765"><ele>206.0</ele><time>2026-04-07T08:06:13Z</time></trkpt><trkpt lat="45.735403862075025" lon="9.446201810682075"><ele>205.85714285714283</ele><time>2026-04-07T08:06:14Z</time></trkpt><trkpt lat="45.73534956745388" lon="9.44613586399802"><ele>205.71428571428572</ele><time>2026-04-07T08:06:15Z</time></trkpt><trkpt lat="45.735294820165244" lon="9.446073583820908"><ele>205.57142857142856</ele><time>2026-04-07T08:06:16Z</time></trkpt><trkpt lat="45.735241535704404" lon="9.44600660903027"><ele>205.42857142857142</ele><time>2026-04-07T08:06:17Z</time></trkpt><trkpt lat="45.73518867550141" lon="9.445943537556047"><ele>205.28571428571428</ele><time>2026-04-07T08:06:18Z</time></trkpt><trkpt lat="45.73513727374936" lon="9.445872610520722"><ele>205.14285714285714</ele><time>2026-04-07T08:06:19Z</time></trkpt><trkpt lat="45.73507984847234" lon="9.445803042705213"><ele>205.0</ele><time>2026-04-07T08:06:20Z</time></trkpt><trkpt lat="45.73502515148278" lon="9.445737250199118"><ele>205.0</ele><time>2026-04-07T08:06:21Z</time></trkpt><trkpt lat="45.734970032979284" lon="9.445668237648569"><ele>205.0</ele><time>2026-04-07T08:06:22Z</time></trkpt><trkpt lat="45.7349238024906" lon="9.44558626104722"><ele>205.0</ele><time>2026-04-07T08:06:23Z</time></trkpt><trkpt lat="45.73485663145371" lon="9.44553807720146"><ele>205.0</ele><time>2026-04-07T08:06:24Z</time></trkpt><trkpt lat="45.73480371822404" lon="9.445467507406082"><ele>205.0</ele><time>2026-04-07T08:06:25Z</time></trkpt><trkpt lat="45.73474663121229" lon="9.44540845131514"><ele>205.0</ele><time>2026-04-07T08:06:26Z</time></trkpt><trkpt lat="45.734687038555535" lon="9.445351948546161"><ele>205.0</ele><time>2026-04-07T08:06:27Z</time></trkpt><trkpt lat="45.7346303585352" lon="9.445299729537568"><ele>205.85714285714286</ele><time>2026-04-07T08:06:28Z</time></trkpt><trkpt lat="45.73456740264383" lon="9.4452552055715"><ele>206.7142857142857</ele><time>2026-04-07T08:06:29Z</time></trkpt><trkpt lat="45.73450502727904" lon="9.445211601505372"><ele>207.57142857142856</ele><time>2026-04-07T08:06:30Z</time></trkpt><trkpt lat="45.73443923661173" lon="9.44516513001122"><ele>208.42857142857144</ele><time>2026-04-07T08:06:31Z</time></trkpt><trkpt lat="45.73436910905227" lon="9.44514295682339"><ele>209.28571428571428</ele><time>2026-04-07T08:06:32Z</time></trkpt><trkpt lat="45.734300286399716" lon="9.445129212365918"><ele>210.14285714285714</ele><time>2026-04-07T08:06:33Z</time></trkpt><trkpt lat="45.73423476596131" lon="9.44511367424568"><ele>211.0</ele><time>2026-04-07T08:06:34Z</time></trkpt><trkpt lat="45.73410865095675" lon="9.445085438049407"><ele>211.0</ele><time>2026-04-07T08:06:36Z</time></trkpt><trkpt lat="45.73398776166455" lon="9.445046055041907"><ele>211.0</ele><time>2026-04-07T08:06:38Z</time></trkpt><trkpt lat="45.73386718613743" lon="9.445014868782943"><ele>211.0</ele><time>2026-04-07T08:06:40Z</time></trkpt><trkpt lat="45.733747791663916" lon="9.444990951965243"><ele>211.0</ele><time>2026-04-07T08:06:42Z</time></trkpt><trkpt lat="45.733629678705526" lon="9.44498987854297"><ele>209.25</ele><time>2026-04-07T08:06:44Z</time></trkpt><trkpt lat="45.73351691033637" lon="9.444975996895502"><ele>207.5</ele><time>2026-04-07T08:06:46Z</time></trkpt><trkpt lat="45.73340061932321" lon="9.44494963677793"><ele>205.75</ele><time>2026-04-07T08:06:48Z</time></trkpt><trkpt lat="45.73328421391798" lon="9.444926639560222"><ele>204.0</ele><time>2026-04-07T08:06:50Z</time></trkpt><trkpt lat="45.733178228277374" lon="9.44488984972885"><ele>204.0</ele><time>2026-04-07T08:06:52Z</time></trkpt><trkpt lat="45.733078565533845" lon="9.44486263499841"><ele>204.0</ele><time>2026-04-07T08:06:54Z</time></trkpt><trkpt lat="45.73299096350561" lon="9.444853678862497"><ele>204.0</ele><time>2026-04-07T08:06:56Z</time></trkpt><trkpt lat="45.732924057198744" lon="9.44489703797123"><ele>204.0</ele><time>2026-04-07T08:06:59Z</time></trkpt><trkpt lat="45.73287393635819" lon="9.444975888114532"><ele>204.0</ele><time>2026-04-07T08:07:04Z</time></trkpt><trkpt lat="45.732939255661506" lon="9.444903724462524"><ele>204.0</ele><time>2026-04-07T08:08:19Z</time></trkpt><trkpt lat="45.732809868028454" lon="9.44435414341127"><ele>203.6</ele><time>2026-04-07T08:08:33Z</time></trkpt><trkpt lat="45.73274388833426" lon="9.444264915081533"><ele>203.2</ele><time>2026-04-07T08:08:35Z</time></trkpt><trkpt lat="45.732635852971086" lon="9.444231796806507"><ele>202.79999999999998</ele><time>2026-04-07T08:08:37Z</time></trkpt><trkpt lat="45.732577310286274" lon="9.444148435575375"><ele>202.39999999999998</ele><time>2026-04-07T08:08:39Z</time></trkpt><trkpt lat="45.73250820984967" lon="9.444081639757362"><ele>202.0</ele><time>2026-04-07T08:08:41Z</time></trkpt><trkpt lat="45.73242375471995" lon="9.443974005235967"><ele>201.99999999999997</ele><time>2026-04-07T08:08:44Z</time></trkpt><trkpt lat="45.73236080803243" lon="9.443886150810021"><ele>202.0</ele><time>2026-04-07T08:08:46Z</time></trkpt><trkpt lat="45.732319742533726" lon="9.44379727779671"><ele>202.0</ele><time>2026-04-07T08:08:48Z</time></trkpt><trkpt lat="45.732255773783464" lon="9.44373611243459"><ele>202.0</ele><time>2026-04-07T08:08:50Z</time></trkpt><trkpt lat="45.7322056828364" lon="9.443666848399186"><ele>201.99999999999997</ele><time>2026-04-07T08:08:52Z</time></trkpt><trkpt lat="45.73215288732929" lon="9.443593112661224"><ele>202.0</ele><time>2026-04-07T08:08:55Z</time></trkpt><trkpt lat="45.732085668034685" lon="9.443493436779107"><ele>204.71428571428572</ele><time>2026-04-07T08:08:58Z</time></trkpt><trkpt lat="45.732041160304625" lon="9.443421097582775"><ele>207.42857142857142</ele><time>2026-04-07T08:09:00Z</time></trkpt><trkpt lat="45.731978464109844" lon="9.443351958136336"><ele>210.14285714285717</ele><time>2026-04-07T08:09:03Z</time></trkpt><trkpt lat="45.73193920758986" lon="9.443257231199457"><ele>212.85714285714286</ele><time>2026-04-07T08:09:06Z</time></trkpt><trkpt lat="45.73192315299863" lon="9.44315276340201"><ele>215.57142857142858</ele><time>2026-04-07T08:09:09Z</time></trkpt><trkpt lat="45.7318902056724" lon="9.443051618238506"><ele>218.2857142857143</ele><time>2026-04-07T08:09:23Z</time></trkpt><trkpt lat="45.731856977786656" lon="9.442961493717831"><ele>221.0</ele><time>2026-04-07T08:09:45.999Z</time></trkpt><trkpt lat="45.73183139193119" lon="9.442875105531861"><ele>223.20000000000002</ele><time>2026-04-07T08:10:14.999Z</time></trkpt><trkpt lat="45.731767557991766" lon="9.442768892130099"><ele>225.40000000000003</ele><time>2026-04-07T08:11:12.999Z</time></trkpt><trkpt lat="45.73172117237205" lon="9.44269577545325"><ele>227.6</ele><time>2026-04-07T08:11:35.999Z</time></trkpt><trkpt lat="45.731668481848466" lon="9.442612903760134"><ele>229.8</ele><time>2026-04-07T08:11:39.999Z</time></trkpt><trkpt lat="45.731624058281035" lon="9.442532248836315"><ele>232.0</ele><time>2026-04-07T08:11:43.999Z</time></trkpt><trkpt lat="45.73184337999776" lon="9.441989434124732"><ele>233.00000000000003</ele><time>2026-04-07T08:11:47.999Z</time></trkpt><trkpt lat="45.731789447436135" lon="9.441929853509198"><ele>234.0</ele><time>2026-04-07T08:11:53.999Z</time></trkpt><trkpt lat="45.7317334526952" lon="9.441872523897086"><ele>235.00000000000003</ele><time>2026-04-07T08:11:56.999Z</time></trkpt><trkpt lat="45.73166912437851" lon="9.44181266932277"><ele>236.00000000000003</ele><time>2026-04-07T08:12:00.999Z</time></trkpt><trkpt lat="45.73161477863616" lon="9.441765727500993"><ele>237.0</ele><time>2026-04-07T08:12:04.999Z</time></trkpt><trkpt lat="45.73155577709722" lon="9.441719345791144"><ele>238.00000000000003</ele><time>2026-04-07T08:12:24.999Z</time></trkpt><trkpt lat="45.731480054293726" lon="9.441663898312944"><ele>239.00000000000003</ele><time>2026-04-07T08:12:30.999Z</time></trkpt><trkpt lat="45.73140901913459" lon="9.441629150755386"><ele>239.0</ele><time>2026-04-07T08:12:39.999Z</time></trkpt><trkpt lat="45.73128020413357" lon="9.442022446051046"><ele>239.0</ele><time>2026-04-07T08:12:48.999Z</time></trkpt><trkpt lat="45.73123779886814" lon="9.441947821374958"><ele>239.0</ele><time>2026-04-07T08:12:56.999Z</time></trkpt><trkpt lat="45.73117489618104" lon="9.441904241936028"><ele>239.0</ele><time>2026-04-07T08:13:00.999Z</time></trkpt><trkpt lat="45.731100973616506" lon="9.441848235135222"><ele>239.42857142857144</ele><time>2026-04-07T08:13:03.999Z</time></trkpt><trkpt lat="45.73103125626225" lon="9.441767345738041"><ele>239.85714285714286</ele><time>2026-04-07T08:13:06.999Z</time></trkpt><trkpt lat="45.7309771126037" lon="9.441710794823576"><ele>240.28571428571428</ele><time>2026-04-07T08:13:08.999Z</time></trkpt><trkpt lat="45.730917927210186" lon="9.441652583391337"><ele>240.71428571428572</ele><time>2026-04-07T08:13:10.999Z</time></trkpt><trkpt lat="45.73085995423454" lon="9.441607960916825"><ele>241.1428571428571</ele><time>2026-04-07T08:13:12.999Z</time></trkpt><trkpt lat="45.7308020891573" lon="9.441569670860103"><ele>241.57142857142856</ele><time>2026-04-07T08:13:14.999Z</time></trkpt><trkpt lat="45.73079200964212" lon="9.44144545287178"><ele>242.0</ele><time>2026-04-07T08:13:17.999Z</time></trkpt><trkpt lat="45.730766223490775" lon="9.441352928687609"><ele>241.2</ele><time>2026-04-07T08:13:19.999Z</time></trkpt><trkpt lat="45.73068740948716" lon="9.441284389736827"><ele>240.39999999999998</ele><time>2026-04-07T08:13:21.999Z</time></trkpt><trkpt lat="45.73059789956927" lon="9.441249320256256"><ele>239.60000000000002</ele><time>2026-04-07T08:13:23.999Z</time></trkpt><trkpt lat="45.7305019110982" lon="9.441202946705916"><ele>238.8</ele><time>2026-04-07T08:13:25.999Z</time></trkpt><trkpt lat="45.73039572087113" lon="9.441148682410587"><ele>238.0</ele><time>2026-04-07T08:13:27.999Z</time></trkpt><trkpt lat="45.73028078116355" lon="9.441095379562007"><ele>238.28571428571428</ele><time>2026-04-07T08:13:29.999Z</time></trkpt><trkpt lat="45.73022086035301" lon="9.441066501006707"><ele>238.57142857142856</ele><time>2026-04-07T08:13:30.999Z</time></trkpt><trkpt lat="45.73015863375902" lon="9.441035457379327"><ele>238.85714285714286</ele><time>2026-04-07T08:13:31.999Z</time></trkpt><trkpt lat="45.730095462763664" lon="9.441007643824822"><ele>239.14285714285714</ele><time>2026-04-07T08:13:32.999Z</time></trkpt><trkpt lat="45.730030519942574" lon="9.440985108019374"><ele>239.42857142857142</ele><time>2026-04-07T08:13:33.999Z</time></trkpt><trkpt lat="45.72996584470576" lon="9.440970241930852"><ele>239.71428571428572</ele><time>2026-04-07T08:13:34.999Z</time></trkpt><trkpt lat="45.72990072669851" lon="9.440955600315556"><ele>240.0</ele><time>2026-04-07T08:13:35.999Z</time></trkpt><trkpt lat="45.72983501761834" lon="9.440945394896854"><ele>240.0</ele><time>2026-04-07T08:13:36.999Z</time></trkpt><trkpt lat="45.72976824694598" lon="9.440939398948444"><ele>240.0</ele><time>2026-04-07T08:13:37.999Z</time></trkpt><trkpt lat="45.72969805323267" lon="9.44094884536457"><ele>240.0</ele><time>2026-04-07T08:13:38.999Z</time></trkpt><trkpt lat="45.72962813840807" lon="9.44095368042235"><ele>240.0</ele><time>2026-04-07T08:13:39.999Z</time></trkpt><trkpt lat="45.72955699156185" lon="9.44095931349932"><ele>240.0</ele><time>2026-04-07T08:13:40.999Z</time></trkpt><trkpt lat="45.72948717056836" lon="9.440970406010546"><ele>240.0</ele><time>2026-04-07T08:13:41.999Z</time></trkpt><trkpt lat="45.72941675370269" lon="9.440989354055997"><ele>240.0</ele><time>2026-04-07T08:13:42.999Z</time></trkpt><trkpt lat="45.729346018222884" lon="9.441016652923171"><ele>240.0</ele><time>2026-04-07T08:13:43.999Z</time></trkpt><trkpt lat="45.72927574473395" lon="9.44104629913354"><ele>240.0</ele><time>2026-04-07T08:13:44.999Z</time></trkpt><trkpt lat="45.72920569260686" lon="9.441074705850196"><ele>240.0</ele><time>2026-04-07T08:13:45.999Z</time></trkpt><trkpt lat="45.72913423465508" lon="9.441103788032212"><ele>240.0</ele><time>2026-04-07T08:13:46.999Z</time></trkpt><trkpt lat="45.729061654657016" lon="9.44113237296048"><ele>240.0</ele><time>2026-04-07T08:13:47.999Z</time></trkpt><trkpt lat="45.72898845599564" lon="9.441161889933408"><ele>240.0</ele><time>2026-04-07T08:13:48.999Z</time></trkpt><trkpt lat="45.728916664979785" lon="9.441194735261414"><ele>240.0</ele><time>2026-04-07T08:13:49.999Z</time></trkpt><trkpt lat="45.72884351799766" lon="9.441224094349133"><ele>240.0</ele><time>2026-04-07T08:13:50.999Z</time></trkpt><trkpt lat="45.728771118008886" lon="9.44125319388717"><ele>240.0</ele><time>2026-04-07T08:13:51.999Z</time></trkpt><trkpt lat="45.728698870348666" lon="9.441282643537464"><ele>240.0</ele><time>2026-04-07T08:13:52.999Z</time></trkpt><trkpt lat="45.72862610952484" lon="9.441313674354369"><ele>240.0</ele><time>2026-04-07T08:13:53.999Z</time></trkpt><trkpt lat="45.7285534957324" lon="9.441346393761632"><ele>240.0</ele><time>2026-04-07T08:13:54.999Z</time></trkpt><trkpt lat="45.72848145047044" lon="9.441382041731444"><ele>240.0</ele><time>2026-04-07T08:13:55.999Z</time></trkpt><trkpt lat="45.72841039909849" lon="9.44142248751254"><ele>239.33333333333334</ele><time>2026-04-07T08:13:56.999Z</time></trkpt><trkpt lat="45.72833927203526" lon="9.441464570740004"><ele>238.66666666666669</ele><time>2026-04-07T08:13:57.999Z</time></trkpt><trkpt lat="45.72827010790412" lon="9.441506039746173"><ele>238.0</ele><time>2026-04-07T08:13:58.999Z</time></trkpt><trkpt lat="45.72820014746361" lon="9.441547818393909"><ele>237.33333333333334</ele><time>2026-04-07T08:13:59.999Z</time></trkpt><trkpt lat="45.72813170522234" lon="9.441591386716434"><ele>236.66666666666669</ele><time>2026-04-07T08:14:00.999Z</time></trkpt><trkpt lat="45.728063471208294" lon="9.44163298274152"><ele>236.0</ele><time>2026-04-07T08:14:01.999Z</time></trkpt><trkpt lat="45.727995974553274" lon="9.441673548312629"><ele>236.00000000000003</ele><time>2026-04-07T08:14:02.999Z</time></trkpt><trkpt lat="45.72792895361096" lon="9.441718737142965"><ele>236.0</ele><time>2026-04-07T08:14:03.999Z</time></trkpt><trkpt lat="45.72786115607182" lon="9.44176258507874"><ele>236.0</ele><time>2026-04-07T08:14:04.999Z</time></trkpt><trkpt lat="45.727791238886965" lon="9.441802039075263"><ele>236.0</ele><time>2026-04-07T08:14:05.999Z</time></trkpt><trkpt lat="45.72772036524617" lon="9.441840277898082"><ele>236.00000000000003</ele><time>2026-04-07T08:14:06.999Z</time></trkpt><trkpt lat="45.72764967669508" lon="9.441881912921684"><ele>236.0</ele><time>2026-04-07T08:14:07.999Z</time></trkpt><trkpt lat="45.727579788782" lon="9.441921698184478"><ele>235.71428571428572</ele><time>2026-04-07T08:14:08.999Z</time></trkpt><trkpt lat="45.72750965194228" lon="9.441961518268798"><ele>235.42857142857144</ele><time>2026-04-07T08:14:09.999Z</time></trkpt><trkpt lat="45.727438244278325" lon="9.441992724538931"><ele>235.14285714285717</ele><time>2026-04-07T08:14:10.999Z</time></trkpt><trkpt lat="45.72736684759402" lon="9.4420182433901"><ele>234.85714285714286</ele><time>2026-04-07T08:14:11.999Z</time></trkpt><trkpt lat="45.72729509701058" lon="9.442037014652508"><ele>234.5714285714286</ele><time>2026-04-07T08:14:12.999Z</time></trkpt><trkpt lat="45.72722371678825" lon="9.442056317980322"><ele>234.2857142857143</ele><time>2026-04-07T08:14:13.999Z</time></trkpt><trkpt lat="45.727155027244144" lon="9.442075071368745"><ele>234.0</ele><time>2026-04-07T08:14:14.999Z</time></trkpt><trkpt lat="45.727084932584695" lon="9.442093785989432"><ele>234.0</ele><time>2026-04-07T08:14:15.999Z</time></trkpt><trkpt lat="45.727016945456185" lon="9.442115866046779"><ele>234.00000000000003</ele><time>2026-04-07T08:14:16.999Z</time></trkpt><trkpt lat="45.72694602367187" lon="9.442135021592316"><ele>234.0</ele><time>2026-04-07T08:14:17.999Z</time></trkpt><trkpt lat="45.72687392649146" lon="9.442153719483608"><ele>234.0</ele><time>2026-04-07T08:14:18.999Z</time></trkpt><trkpt lat="45.726802403166275" lon="9.442172513374057"><ele>234.00000000000003</ele><time>2026-04-07T08:14:19.999Z</time></trkpt><trkpt lat="45.72672946865604" lon="9.44219062450749"><ele>234.0</ele><time>2026-04-07T08:14:20.999Z</time></trkpt><trkpt lat="45.72665888263482" lon="9.442210274458725"><ele>234.0</ele><time>2026-04-07T08:14:21.999Z</time></trkpt><trkpt lat="45.72659033484145" lon="9.44222970436477"><ele>234.2857142857143</ele><time>2026-04-07T08:14:22.999Z</time></trkpt><trkpt lat="45.726524501630735" lon="9.442249400931923"><ele>234.5714285714286</ele><time>2026-04-07T08:14:23.999Z</time></trkpt><trkpt lat="45.726458711940936" lon="9.442276344426658"><ele>234.85714285714286</ele><time>2026-04-07T08:14:24.999Z</time></trkpt><trkpt lat="45.726394594064956" lon="9.442302444946595"><ele>235.14285714285717</ele><time>2026-04-07T08:14:25.999Z</time></trkpt><trkpt lat="45.72633042294961" lon="9.442331130176479"><ele>235.42857142857144</ele><time>2026-04-07T08:14:26.999Z</time></trkpt><trkpt lat="45.726265897905016" lon="9.442362212115864"><ele>235.71428571428572</ele><time>2026-04-07T08:14:27.999Z</time></trkpt><trkpt lat="45.72620133258336" lon="9.442395892139652"><ele>236.0</ele><time>2026-04-07T08:14:28.999Z</time></trkpt><trkpt lat="45.726138819530725" lon="9.442429972407133"><ele>236.0</ele><time>2026-04-07T08:14:29.999Z</time></trkpt><trkpt lat="45.726077246800585" lon="9.44246292281939"><ele>236.0</ele><time>2026-04-07T08:14:30.999Z</time></trkpt><trkpt lat="45.72601514575614" lon="9.442497415622473"><ele>236.0</ele><time>2026-04-07T08:14:31.999Z</time></trkpt><trkpt lat="45.72595418334003" lon="9.442530708144757"><ele>236.0</ele><time>2026-04-07T08:14:32.999Z</time></trkpt><trkpt lat="45.72589150299888" lon="9.442564666945147"><ele>236.0</ele><time>2026-04-07T08:14:33.999Z</time></trkpt><trkpt lat="45.725828470589796" lon="9.442601228303573"><ele>236.0</ele><time>2026-04-07T08:14:34.999Z</time></trkpt><trkpt lat="45.72576533430059" lon="9.442641922851344"><ele>236.0</ele><time>2026-04-07T08:14:35.999Z</time></trkpt><trkpt lat="45.72570124870229" lon="9.442679208763439"><ele>236.28571428571428</ele><time>2026-04-07T08:14:36.999Z</time></trkpt><trkpt lat="45.72563630774843" lon="9.44271539050207"><ele>236.57142857142858</ele><time>2026-04-07T08:14:37.999Z</time></trkpt><trkpt lat="45.72557082676651" lon="9.442751160156966"><ele>236.85714285714286</ele><time>2026-04-07T08:14:38.999Z</time></trkpt><trkpt lat="45.72550609506691" lon="9.442787321521442"><ele>237.14285714285714</ele><time>2026-04-07T08:14:39.999Z</time></trkpt><trkpt lat="45.72544170774412" lon="9.44282476326825"><ele>237.42857142857144</ele><time>2026-04-07T08:14:40.999Z</time></trkpt><trkpt lat="45.725377481042514" lon="9.442861529468622"><ele>237.71428571428572</ele><time>2026-04-07T08:14:41.999Z</time></trkpt><trkpt lat="45.72531273681182" lon="9.442897576785457"><ele>238.0</ele><time>2026-04-07T08:14:42.999Z</time></trkpt><trkpt lat="45.72524754061434" lon="9.442934445690106"><ele>238.0</ele><time>2026-04-07T08:14:43.999Z</time></trkpt><trkpt lat="45.725181214499635" lon="9.44297241118435"><ele>238.0</ele><time>2026-04-07T08:14:44.999Z</time></trkpt><trkpt lat="45.72511453597833" lon="9.44300852519491"><ele>238.0</ele><time>2026-04-07T08:14:46Z</time></trkpt><trkpt lat="45.72504758516437" lon="9.443044554038462"><ele>238.0</ele><time>2026-04-07T08:14:47Z</time></trkpt><trkpt lat="45.72498035147578" lon="9.443083997828024"><ele>238.0</ele><time>2026-04-07T08:14:48Z</time></trkpt><trkpt lat="45.72491343157176" lon="9.443128114663544"><ele>238.0</ele><time>2026-04-07T08:14:49Z</time></trkpt><trkpt lat="45.72484469646296" lon="9.443167892574207"><ele>238.0</ele><time>2026-04-07T08:14:50Z</time></trkpt><trkpt lat="45.72477667717076" lon="9.443206446018586"><ele>237.99999999999997</ele><time>2026-04-07T08:14:51Z</time></trkpt><trkpt lat="45.72470668352757" lon="9.443245759049839"><ele>238.0</ele><time>2026-04-07T08:14:52Z</time></trkpt><trkpt lat="45.7246366615843" lon="9.4432860607882"><ele>238.0</ele><time>2026-04-07T08:14:53Z</time></trkpt><trkpt lat="45.724565479539464" lon="9.443325811478827"><ele>238.0</ele><time>2026-04-07T08:14:54Z</time></trkpt><trkpt lat="45.72449541848659" lon="9.443366773794557"><ele>237.99999999999997</ele><time>2026-04-07T08:14:55Z</time></trkpt><trkpt lat="45.72442507203374" lon="9.44340522843163"><ele>238.0</ele><time>2026-04-07T08:14:56Z</time></trkpt><trkpt lat="45.724354220716684" lon="9.443445630297184"><ele>237.83333333333331</ele><time>2026-04-07T08:14:57Z</time></trkpt><trkpt lat="45.724283087485645" lon="9.443486659026219"><ele>237.66666666666666</ele><time>2026-04-07T08:14:58Z</time></trkpt><trkpt lat="45.72421286753477" lon="9.443527378742859"><ele>237.5</ele><time>2026-04-07T08:14:59Z</time></trkpt><trkpt lat="45.72414176938088" lon="9.44356659975792"><ele>237.33333333333331</ele><time>2026-04-07T08:15:00Z</time></trkpt><trkpt lat="45.724070219373736" lon="9.443608321697928"><ele>237.16666666666666</ele><time>2026-04-07T08:15:01Z</time></trkpt><trkpt lat="45.72399802843173" lon="9.443648999414611"><ele>237.0</ele><time>2026-04-07T08:15:02Z</time></trkpt><trkpt lat="45.72392552973112" lon="9.443689568420421"><ele>237.0</ele><time>2026-04-07T08:15:03Z</time></trkpt><trkpt lat="45.72385153143458" lon="9.443726683028038"><ele>237.0</ele><time>2026-04-07T08:15:04Z</time></trkpt><trkpt lat="45.723775495940224" lon="9.443760712888368"><ele>237.0</ele><time>2026-04-07T08:15:05Z</time></trkpt><trkpt lat="45.72370353382846" lon="9.44380933720928"><ele>237.0</ele><time>2026-04-07T08:15:06Z</time></trkpt><trkpt lat="45.72363780673345" lon="9.443869324434583"><ele>237.0</ele><time>2026-04-07T08:15:07Z</time></trkpt><trkpt lat="45.72356911094926" lon="9.44392572015342"><ele>237.0</ele><time>2026-04-07T08:15:08Z</time></trkpt><trkpt lat="45.72349930579055" lon="9.443978670498517"><ele>236.66666666666666</ele><time>2026-04-07T08:15:09Z</time></trkpt><trkpt lat="45.72342936383367" lon="9.444031253908046"><ele>236.33333333333331</ele><time>2026-04-07T08:15:10Z</time></trkpt><trkpt lat="45.72336036448858" lon="9.444084751052067"><ele>236.0</ele><time>2026-04-07T08:15:11Z</time></trkpt><trkpt lat="45.72329199930305" lon="9.444139719616995"><ele>235.66666666666666</ele><time>2026-04-07T08:15:12Z</time></trkpt><trkpt lat="45.72322384336203" lon="9.444196684463359"><ele>235.33333333333331</ele><time>2026-04-07T08:15:13Z</time></trkpt><trkpt lat="45.723153648446576" lon="9.44425252897236"><ele>235.0</ele><time>2026-04-07T08:15:14Z</time></trkpt><trkpt lat="45.72308411395004" lon="9.444307488906079"><ele>234.99999999999997</ele><time>2026-04-07T08:15:15Z</time></trkpt><trkpt lat="45.72301411734098" lon="9.444363058026859"><ele>235.0</ele><time>2026-04-07T08:15:16Z</time></trkpt><trkpt lat="45.72294291410937" lon="9.444418506667311"><ele>235.0</ele><time>2026-04-07T08:15:17Z</time></trkpt><trkpt lat="45.72287021880008" lon="9.44447433408975"><ele>235.0</ele><time>2026-04-07T08:15:18Z</time></trkpt><trkpt lat="45.72279713269281" lon="9.444532732042395"><ele>234.99999999999997</ele><time>2026-04-07T08:15:19Z</time></trkpt><trkpt lat="45.7227249081788" lon="9.444588922333267"><ele>235.0</ele><time>2026-04-07T08:15:20Z</time></trkpt><trkpt lat="45.722652908850485" lon="9.444644442937626"><ele>234.99999999999997</ele><time>2026-04-07T08:15:20.999Z</time></trkpt><trkpt lat="45.72258095929175" lon="9.444701674975127"><ele>235.0</ele><time>2026-04-07T08:15:21.999Z</time></trkpt><trkpt lat="45.722508515599586" lon="9.44475900986952"><ele>235.0</ele><time>2026-04-07T08:15:22.999Z</time></trkpt><trkpt lat="45.72243658297123" lon="9.444815826580488"><ele>235.0</ele><time>2026-04-07T08:15:23.999Z</time></trkpt><trkpt lat="45.722364461129246" lon="9.44487077148937"><ele>234.99999999999997</ele><time>2026-04-07T08:15:24.999Z</time></trkpt><trkpt lat="45.722293491350655" lon="9.444926634849166"><ele>235.0</ele><time>2026-04-07T08:15:25.999Z</time></trkpt><trkpt lat="45.72222301580259" lon="9.444981850292482"><ele>234.99999999999997</ele><time>2026-04-07T08:15:26.999Z</time></trkpt><trkpt lat="45.72215342938856" lon="9.445033994005797"><ele>235.0</ele><time>2026-04-07T08:15:27.999Z</time></trkpt><trkpt lat="45.72208240853287" lon="9.445089067447668"><ele>235.0</ele><time>2026-04-07T08:15:28.999Z</time></trkpt><trkpt lat="45.722011860828275" lon="9.44514710283645"><ele>235.0</ele><time>2026-04-07T08:15:29.999Z</time></trkpt><trkpt lat="45.72193896391653" lon="9.445203424076063"><ele>234.99999999999997</ele><time>2026-04-07T08:15:30.999Z</time></trkpt><trkpt lat="45.721866135941674" lon="9.44526128567152"><ele>235.0</ele><time>2026-04-07T08:15:31.999Z</time></trkpt><trkpt lat="45.72179318307014" lon="9.445319944170551"><ele>234.49999999999997</ele><time>2026-04-07T08:15:32.999Z</time></trkpt><trkpt lat="45.72171900453425" lon="9.445374325904238"><ele>234.0</ele><time>2026-04-07T08:15:33.999Z</time></trkpt><trkpt lat="45.72164154439509" lon="9.445424189019043"><ele>233.5</ele><time>2026-04-07T08:15:34.999Z</time></trkpt><trkpt lat="45.72156263478241" lon="9.445463758674737"><ele>233.0</ele><time>2026-04-07T08:15:35.999Z</time></trkpt><trkpt lat="45.72148259448609" lon="9.44549515603236"><ele>232.49999999999997</ele><time>2026-04-07T08:15:36.999Z</time></trkpt><trkpt lat="45.72140331103895" lon="9.44552498366112"><ele>232.0</ele><time>2026-04-07T08:15:37.999Z</time></trkpt><trkpt lat="45.72132484074515" lon="9.445549134945464"><ele>231.66666666666666</ele><time>2026-04-07T08:15:38.999Z</time></trkpt><trkpt lat="45.721244582849806" lon="9.44556987734827"><ele>231.33333333333331</ele><time>2026-04-07T08:15:39.999Z</time></trkpt><trkpt lat="45.72116493748411" lon="9.445586535207164"><ele>231.0</ele><time>2026-04-07T08:15:40.999Z</time></trkpt><trkpt lat="45.72108550279427" lon="9.445595211078247"><ele>230.66666666666669</ele><time>2026-04-07T08:15:41.999Z</time></trkpt><trkpt lat="45.72100659495896" lon="9.44559713638131"><ele>230.33333333333334</ele><time>2026-04-07T08:15:42.999Z</time></trkpt><trkpt lat="45.720927905158" lon="9.445595838711615"><ele>230.0</ele><time>2026-04-07T08:15:43.999Z</time></trkpt><trkpt lat="45.720850482283296" lon="9.445588245454822"><ele>229.99999999999997</ele><time>2026-04-07T08:15:44.999Z</time></trkpt><trkpt lat="45.72077544680456" lon="9.445577421563765"><ele>230.0</ele><time>2026-04-07T08:15:45.999Z</time></trkpt><trkpt lat="45.72070072594816" lon="9.445563566685275"><ele>229.99999999999997</ele><time>2026-04-07T08:15:46.999Z</time></trkpt><trkpt lat="45.72062743640721" lon="9.445542776376852"><ele>229.99999999999997</ele><time>2026-04-07T08:15:47.999Z</time></trkpt><trkpt lat="45.72055482235125" lon="9.445518172644798"><ele>230.0</ele><time>2026-04-07T08:15:48.999Z</time></trkpt><trkpt lat="45.72048615281665" lon="9.445489948391144"><ele>229.99999999999997</ele><time>2026-04-07T08:15:49.999Z</time></trkpt><trkpt lat="45.7204184076754" lon="9.445462259341006"><ele>229.99999999999997</ele><time>2026-04-07T08:15:50.999Z</time></trkpt><trkpt lat="45.72035372308149" lon="9.445434965514055"><ele>230.71428571428567</ele><time>2026-04-07T08:15:51.999Z</time></trkpt><trkpt lat="45.72028862245699" lon="9.445409164076978"><ele>231.42857142857142</ele><time>2026-04-07T08:15:52.999Z</time></trkpt><trkpt lat="45.72022140584513" lon="9.445382673796137"><ele>232.1428571428571</ele><time>2026-04-07T08:15:53.999Z</time></trkpt><trkpt lat="45.720152786616865" lon="9.445361382994815"><ele>232.85714285714283</ele><time>2026-04-07T08:15:54.999Z</time></trkpt><trkpt lat="45.720084998603895" lon="9.44534135056783"><ele>233.57142857142856</ele><time>2026-04-07T08:15:55.999Z</time></trkpt><trkpt lat="45.720017854509685" lon="9.445314343149724"><ele>234.28571428571428</ele><time>2026-04-07T08:15:56.999Z</time></trkpt><trkpt lat="45.71995250569544" lon="9.44528036283685"><ele>235.0</ele><time>2026-04-07T08:15:57.999Z</time></trkpt><trkpt lat="45.71988878888747" lon="9.445240588406776"><ele>235.0</ele><time>2026-04-07T08:15:58.999Z</time></trkpt><trkpt lat="45.71982468534751" lon="9.445205894997711"><ele>234.99999999999997</ele><time>2026-04-07T08:15:59.999Z</time></trkpt><trkpt lat="45.71975930801042" lon="9.445177717174357"><ele>235.0</ele><time>2026-04-07T08:16:00.999Z</time></trkpt><trkpt lat="45.719694314474374" lon="9.445150530733196"><ele>235.0</ele><time>2026-04-07T08:16:01.999Z</time></trkpt><trkpt lat="45.71963021735614" lon="9.445119423944302"><ele>234.99999999999997</ele><time>2026-04-07T08:16:02.999Z</time></trkpt><trkpt lat="45.71956475002146" lon="9.445089218007087"><ele>235.0</ele><time>2026-04-07T08:16:03.999Z</time></trkpt><trkpt lat="45.71949905865005" lon="9.445059647377525"><ele>235.0</ele><time>2026-04-07T08:16:04.999Z</time></trkpt><trkpt lat="45.719433267281666" lon="9.44503125165726"><ele>234.7142857142857</ele><time>2026-04-07T08:16:05.999Z</time></trkpt><trkpt lat="45.7193677192516" lon="9.445003635213677"><ele>234.4285714285714</ele><time>2026-04-07T08:16:06.999Z</time></trkpt><trkpt lat="45.71930289204189" lon="9.444974127638496"><ele>234.14285714285714</ele><time>2026-04-07T08:16:07.999Z</time></trkpt><trkpt lat="45.7192378375977" lon="9.444945604083651"><ele>233.85714285714283</ele><time>2026-04-07T08:16:08.999Z</time></trkpt><trkpt lat="45.71917206107423" lon="9.444917370412456"><ele>233.57142857142856</ele><time>2026-04-07T08:16:09.999Z</time></trkpt><trkpt lat="45.719106254452214" lon="9.444887758561062"><ele>233.28571428571428</ele><time>2026-04-07T08:16:10.999Z</time></trkpt><trkpt lat="45.719041812718494" lon="9.444857264801378"><ele>233.0</ele><time>2026-04-07T08:16:11.999Z</time></trkpt><trkpt lat="45.71897752429358" lon="9.444829492867663"><ele>233.0</ele><time>2026-04-07T08:16:12.999Z</time></trkpt><trkpt lat="45.718912936815286" lon="9.444800276482239"><ele>233.0</ele><time>2026-04-07T08:16:13.999Z</time></trkpt><trkpt lat="45.71884896211443" lon="9.444773258196118"><ele>233.0</ele><time>2026-04-07T08:16:14.999Z</time></trkpt><trkpt lat="45.71878465551663" lon="9.444747967834862"><ele>233.0</ele><time>2026-04-07T08:16:15.999Z</time></trkpt><trkpt lat="45.71872087853231" lon="9.444717418735156"><ele>233.0</ele><time>2026-04-07T08:16:16.999Z</time></trkpt><trkpt lat="45.71865636549839" lon="9.444691370342584"><ele>233.0</ele><time>2026-04-07T08:16:17.999Z</time></trkpt><trkpt lat="45.718592245038714" lon="9.444663189962121"><ele>233.0</ele><time>2026-04-07T08:16:18.999Z</time></trkpt><trkpt lat="45.71852976409089" lon="9.444633511303282"><ele>233.28571428571428</ele><time>2026-04-07T08:16:19.999Z</time></trkpt><trkpt lat="45.718464307421186" lon="9.444603928245616"><ele>233.57142857142856</ele><time>2026-04-07T08:16:20.999Z</time></trkpt><trkpt lat="45.71839894416453" lon="9.444573915048508"><ele>233.85714285714283</ele><time>2026-04-07T08:16:21.999Z</time></trkpt><trkpt lat="45.71833405445999" lon="9.444544911959442"><ele>234.14285714285714</ele><time>2026-04-07T08:16:22.999Z</time></trkpt><trkpt lat="45.71827216481076" lon="9.444512196728937"><ele>234.4285714285714</ele><time>2026-04-07T08:16:23.999Z</time></trkpt><trkpt lat="45.71821692629939" lon="9.444468322938256"><ele>234.7142857142857</ele><time>2026-04-07T08:16:24.999Z</time></trkpt><trkpt lat="45.718155791717145" lon="9.44443693699601"><ele>235.0</ele><time>2026-04-07T08:16:25.999Z</time></trkpt><trkpt lat="45.71803471903852" lon="9.444391084581016"><ele>235.0</ele><time>2026-04-07T08:16:27.999Z</time></trkpt><trkpt lat="45.71797087101296" lon="9.444364295466075"><ele>234.99999999999997</ele><time>2026-04-07T08:16:28.999Z</time></trkpt><trkpt lat="45.71791034531455" lon="9.444337702680382"><ele>235.0</ele><time>2026-04-07T08:16:29.999Z</time></trkpt><trkpt lat="45.71784841712408" lon="9.444309031912804"><ele>235.0</ele><time>2026-04-07T08:16:30.999Z</time></trkpt><trkpt lat="45.71778542015269" lon="9.444280103726097"><ele>234.99999999999997</ele><time>2026-04-07T08:16:31.999Z</time></trkpt><trkpt lat="45.7177199957414" lon="9.444254065400632"><ele>235.0</ele><time>2026-04-07T08:16:32.999Z</time></trkpt><trkpt lat="45.71765700626227" lon="9.444227720625351"><ele>235.0</ele><time>2026-04-07T08:16:33.999Z</time></trkpt><trkpt lat="45.71759468053248" lon="9.44419722226994"><ele>234.57142857142856</ele><time>2026-04-07T08:16:34.999Z</time></trkpt><trkpt lat="45.717532526117054" lon="9.444168517132717"><ele>234.1428571428571</ele><time>2026-04-07T08:16:36Z</time></trkpt><trkpt lat="45.71746756288664" lon="9.44414240424907"><ele>233.71428571428572</ele><time>2026-04-07T08:16:37Z</time></trkpt><trkpt lat="45.717400468983385" lon="9.444113420314212"><ele>233.28571428571428</ele><time>2026-04-07T08:16:38Z</time></trkpt><trkpt lat="45.71733400143572" lon="9.444084945885994"><ele>232.85714285714286</ele><time>2026-04-07T08:16:39Z</time></trkpt><trkpt lat="45.71726856125125" lon="9.444056145054324"><ele>232.42857142857144</ele><time>2026-04-07T08:16:40Z</time></trkpt><trkpt lat="45.71720390524312" lon="9.444025724395207"><ele>232.00000000000003</ele><time>2026-04-07T08:16:41Z</time></trkpt><trkpt lat="45.71713780509833" lon="9.443998308075372"><ele>232.00000000000003</ele><time>2026-04-07T08:16:42Z</time></trkpt><trkpt lat="45.71707117125692" lon="9.443971986910888"><ele>232.0</ele><time>2026-04-07T08:16:43Z</time></trkpt><trkpt lat="45.717004008182826" lon="9.44393936915783"><ele>232.00000000000003</ele><time>2026-04-07T08:16:44Z</time></trkpt><trkpt lat="45.71693888623998" lon="9.443908765044108"><ele>232.00000000000003</ele><time>2026-04-07T08:16:45Z</time></trkpt><trkpt lat="45.716875801955425" lon="9.443880949634803"><ele>232.0</ele><time>2026-04-07T08:16:46Z</time></trkpt><trkpt lat="45.71680770404482" lon="9.443851753079425"><ele>232.00000000000003</ele><time>2026-04-07T08:16:47Z</time></trkpt><trkpt lat="45.716740386382305" lon="9.443822461476485"><ele>232.00000000000003</ele><time>2026-04-07T08:16:48Z</time></trkpt><trkpt lat="45.71667345401544" lon="9.443798825936815"><ele>233.66666666666666</ele><time>2026-04-07T08:16:49Z</time></trkpt><trkpt lat="45.71660337970428" lon="9.44378532276146"><ele>235.33333333333331</ele><time>2026-04-07T08:16:50Z</time></trkpt><trkpt lat="45.71653473101441" lon="9.443757398259581"><ele>237.0</ele><time>2026-04-07T08:16:51Z</time></trkpt><trkpt lat="45.71646701247161" lon="9.443730406052236"><ele>238.66666666666669</ele><time>2026-04-07T08:16:52Z</time></trkpt><trkpt lat="45.71640091037811" lon="9.443700274038356"><ele>240.33333333333334</ele><time>2026-04-07T08:16:53Z</time></trkpt><trkpt lat="45.71633861567463" lon="9.443676105739648"><ele>242.0</ele><time>2026-04-07T08:16:54Z</time></trkpt><trkpt lat="45.7162228951356" lon="9.44363686182032"><ele>242.0</ele><time>2026-04-07T08:16:56Z</time></trkpt><trkpt lat="45.71610284632638" lon="9.4436101297159"><ele>242.0</ele><time>2026-04-07T08:16:58Z</time></trkpt><trkpt lat="45.71597925858591" lon="9.443593948697334"><ele>242.0</ele><time>2026-04-07T08:17:00Z</time></trkpt><trkpt lat="45.71585682877623" lon="9.443593932121331"><ele>242.0</ele><time>2026-04-07T08:17:02Z</time></trkpt><trkpt lat="45.7157338658682" lon="9.443603647123714"><ele>244.25</ele><time>2026-04-07T08:17:04Z</time></trkpt><trkpt lat="45.71561037692597" lon="9.443622109917145"><ele>246.5</ele><time>2026-04-07T08:17:06Z</time></trkpt><trkpt lat="45.71548891253006" lon="9.443652368643072"><ele>248.75</ele><time>2026-04-07T08:17:08Z</time></trkpt><trkpt lat="45.71536890598555" lon="9.443696248901558"><ele>251.0</ele><time>2026-04-07T08:17:10Z</time></trkpt><trkpt lat="45.71525289673624" lon="9.443749342197046"><ele>248.8</ele><time>2026-04-07T08:17:12Z</time></trkpt><trkpt lat="45.715136957973286" lon="9.443813703263"><ele>246.60000000000002</ele><time>2026-04-07T08:17:14Z</time></trkpt><trkpt lat="45.715078451600014" lon="9.443849130766912"><ele>244.4</ele><time>2026-04-07T08:17:15Z</time></trkpt><trkpt lat="45.71496974586986" lon="9.443918622541853"><ele>242.2</ele><time>2026-04-07T08:17:17Z</time></trkpt><trkpt lat="45.7148618017059" lon="9.443998247068208"><ele>240.0</ele><time>2026-04-07T08:17:19Z</time></trkpt><trkpt lat="45.71475814222897" lon="9.444092512757457"><ele>240.0</ele><time>2026-04-07T08:17:21Z</time></trkpt><trkpt lat="45.714648994963575" lon="9.444179437985571"><ele>240.0</ele><time>2026-04-07T08:17:23Z</time></trkpt><trkpt lat="45.714591743036564" lon="9.444217598658934"><ele>240.0</ele><time>2026-04-07T08:17:24Z</time></trkpt><trkpt lat="45.714534546365904" lon="9.444258110829942"><ele>240.0</ele><time>2026-04-07T08:17:25Z</time></trkpt><trkpt lat="45.71447757167659" lon="9.444303049852374"><ele>240.0</ele><time>2026-04-07T08:17:26Z</time></trkpt><trkpt lat="45.7144203179857" lon="9.444347758466323"><ele>240.0</ele><time>2026-04-07T08:17:27Z</time></trkpt><trkpt lat="45.714363606951075" lon="9.444392581427293"><ele>240.0</ele><time>2026-04-07T08:17:28Z</time></trkpt><trkpt lat="45.7143056722743" lon="9.444439603910425"><ele>239.71428571428572</ele><time>2026-04-07T08:17:29Z</time></trkpt><trkpt lat="45.7142467666868" lon="9.444486487244282"><ele>239.42857142857142</ele><time>2026-04-07T08:17:30Z</time></trkpt><trkpt lat="45.71418807567588" lon="9.444533575649622"><ele>239.14285714285714</ele><time>2026-04-07T08:17:31Z</time></trkpt><trkpt lat="45.714128007967574" lon="9.444579219598856"><ele>238.85714285714286</ele><time>2026-04-07T08:17:32Z</time></trkpt><trkpt lat="45.71407011048596" lon="9.444626788507051"><ele>238.57142857142856</ele><time>2026-04-07T08:17:33Z</time></trkpt><trkpt lat="45.71401225404465" lon="9.444678943204789"><ele>238.28571428571428</ele><time>2026-04-07T08:17:34Z</time></trkpt><trkpt lat="45.71395491312565" lon="9.444738471540317"><ele>238.0</ele><time>2026-04-07T08:17:34.999Z</time></trkpt><trkpt lat="45.71389970625623" lon="9.44479939432512"><ele>238.0</ele><time>2026-04-07T08:17:35.999Z</time></trkpt><trkpt lat="45.71384646413114" lon="9.444864823553159"><ele>238.0</ele><time>2026-04-07T08:17:36.999Z</time></trkpt><trkpt lat="45.71379461042394" lon="9.444930062057843"><ele>238.0</ele><time>2026-04-07T08:17:37.999Z</time></trkpt><trkpt lat="45.713741880480676" lon="9.444994385148004"><ele>238.0</ele><time>2026-04-07T08:17:38.999Z</time></trkpt><trkpt lat="45.713690230830395" lon="9.445064209643272"><ele>238.0</ele><time>2026-04-07T08:17:39.999Z</time></trkpt><trkpt lat="45.713640752476756" lon="9.445134027783565"><ele>238.0</ele><time>2026-04-07T08:17:40.999Z</time></trkpt><trkpt lat="45.71358973334087" lon="9.445200839862546"><ele>238.0</ele><time>2026-04-07T08:17:41.999Z</time></trkpt><trkpt lat="45.713540835880565" lon="9.445265585851397"><ele>239.0</ele><time>2026-04-07T08:17:42.999Z</time></trkpt><trkpt lat="45.71349370835897" lon="9.445329335608584"><ele>240.0</ele><time>2026-04-07T08:17:43.999Z</time></trkpt><trkpt lat="45.713404825253136" lon="9.445447512597278"><ele>241.0</ele><time>2026-04-07T08:17:45.999Z</time></trkpt><trkpt lat="45.713315328915485" lon="9.445560022707383"><ele>242.0</ele><time>2026-04-07T08:17:47.999Z</time></trkpt><trkpt lat="45.7132200265345" lon="9.445664001271258"><ele>243.0</ele><time>2026-04-07T08:17:49.999Z</time></trkpt><trkpt lat="45.713119607817696" lon="9.44575717110383"><ele>243.0</ele><time>2026-04-07T08:17:51.999Z</time></trkpt><trkpt lat="45.71301705676243" lon="9.445841227993299"><ele>243.0</ele><time>2026-04-07T08:17:53.999Z</time></trkpt><trkpt lat="45.71291667080547" lon="9.44592216821632"><ele>243.0</ele><time>2026-04-07T08:17:55.999Z</time></trkpt><trkpt lat="45.71281702154119" lon="9.44600319050422"><ele>243.0</ele><time>2026-04-07T08:17:57.999Z</time></trkpt><trkpt lat="45.71271093357811" lon="9.446089004530302"><ele>244.60000000000002</ele><time>2026-04-07T08:17:59.999Z</time></trkpt><trkpt lat="45.712612338455976" lon="9.44617590949724"><ele>246.20000000000002</ele><time>2026-04-07T08:18:01.999Z</time></trkpt><trkpt lat="45.712519810155456" lon="9.44626180320114"><ele>247.8</ele><time>2026-04-07T08:18:03.999Z</time></trkpt><trkpt lat="45.71243164664796" lon="9.44635575434802"><ele>249.4</ele><time>2026-04-07T08:18:05.999Z</time></trkpt><trkpt lat="45.71234990797755" lon="9.446462416386781"><ele>251.0</ele><time>2026-04-07T08:18:07.999Z</time></trkpt><trkpt lat="45.7122682997405" lon="9.446573668340395"><ele>251.0</ele><time>2026-04-07T08:18:09.999Z</time></trkpt><trkpt lat="45.712187131307196" lon="9.446691806918924"><ele>251.0</ele><time>2026-04-07T08:18:11.999Z</time></trkpt><trkpt lat="45.71210320875791" lon="9.446812810582035"><ele>251.0</ele><time>2026-04-07T08:18:13.999Z</time></trkpt><trkpt lat="45.712019687906235" lon="9.446932468573188"><ele>251.0</ele><time>2026-04-07T08:18:15.999Z</time></trkpt><trkpt lat="45.71193127054103" lon="9.447047788359853"><ele>251.4</ele><time>2026-04-07T08:18:17.999Z</time></trkpt><trkpt lat="45.71183196510526" lon="9.447156911393902"><ele>251.8</ele><time>2026-04-07T08:18:19.999Z</time></trkpt><trkpt lat="45.711733159945794" lon="9.4472619005333"><ele>252.20000000000002</ele><time>2026-04-07T08:18:21.999Z</time></trkpt><trkpt lat="45.71163035800831" lon="9.447365990909596"><ele>252.60000000000002</ele><time>2026-04-07T08:18:23.999Z</time></trkpt><trkpt lat="45.711577480915324" lon="9.447417464379294"><ele>253.0</ele><time>2026-04-07T08:18:24.999Z</time></trkpt><trkpt lat="45.71152556237184" lon="9.44746895872606"><ele>253.00000000000003</ele><time>2026-04-07T08:18:25.999Z</time></trkpt><trkpt lat="45.71147116128268" lon="9.44751765643627"><ele>253.0</ele><time>2026-04-07T08:18:26.999Z</time></trkpt><trkpt lat="45.71141740961145" lon="9.447567305115932"><ele>253.00000000000003</ele><time>2026-04-07T08:18:27.999Z</time></trkpt><trkpt lat="45.7113116353057" lon="9.447663079757575"><ele>253.00000000000003</ele><time>2026-04-07T08:18:29.999Z</time></trkpt><trkpt lat="45.711257659583794" lon="9.447710580826877"><ele>253.0</ele><time>2026-04-07T08:18:30.999Z</time></trkpt><trkpt lat="45.71120534883457" lon="9.447761850513608"><ele>253.00000000000003</ele><time>2026-04-07T08:18:31.999Z</time></trkpt><trkpt lat="45.7111511206823" lon="9.447811701494206"><ele>253.00000000000003</ele><time>2026-04-07T08:18:32.999Z</time></trkpt><trkpt lat="45.71109556836044" lon="9.447861122894475"><ele>252.14285714285717</ele><time>2026-04-07T08:18:33.999Z</time></trkpt><trkpt lat="45.71104147078595" lon="9.447913258658817"><ele>251.28571428571428</ele><time>2026-04-07T08:18:34.999Z</time></trkpt><trkpt lat="45.71098459679375" lon="9.447957340423933"><ele>250.42857142857144</ele><time>2026-04-07T08:18:35.999Z</time></trkpt><trkpt lat="45.710923475036225" lon="9.447997037411328"><ele>249.57142857142858</ele><time>2026-04-07T08:18:36.999Z</time></trkpt><trkpt lat="45.71086055377484" lon="9.448022342322604"><ele>248.71428571428572</ele><time>2026-04-07T08:18:37.999Z</time></trkpt><trkpt lat="45.71079656327461" lon="9.448041335340415"><ele>247.85714285714286</ele><time>2026-04-07T08:18:38.999Z</time></trkpt><trkpt lat="45.71073353442721" lon="9.448064762890786"><ele>247.0</ele><time>2026-04-07T08:18:39.999Z</time></trkpt><trkpt lat="45.71067831688837" lon="9.448114693118042"><ele>247.0</ele><time>2026-04-07T08:18:41Z</time></trkpt><trkpt lat="45.71063382781349" lon="9.448186616783767"><ele>247.0</ele><time>2026-04-07T08:18:42Z</time></trkpt><trkpt lat="45.710590900441126" lon="9.44825991902909"><ele>247.0</ele><time>2026-04-07T08:18:43Z</time></trkpt><trkpt lat="45.71053873935774" lon="9.448321184926847"><ele>247.0</ele><time>2026-04-07T08:18:44Z</time></trkpt><trkpt lat="45.710479229677325" lon="9.44836900967994"><ele>247.0</ele><time>2026-04-07T08:18:45Z</time></trkpt><trkpt lat="45.71042109221146" lon="9.448423689599277"><ele>247.0</ele><time>2026-04-07T08:18:46Z</time></trkpt><trkpt lat="45.71036329277196" lon="9.448482930466826"><ele>247.0</ele><time>2026-04-07T08:18:47Z</time></trkpt><trkpt lat="45.7103061922161" lon="9.448534387055396"><ele>246.99999999999997</ele><time>2026-04-07T08:18:48Z</time></trkpt><trkpt lat="45.71024889926805" lon="9.448573928649775"><ele>247.0</ele><time>2026-04-07T08:18:49Z</time></trkpt><trkpt lat="45.71017070030145" lon="9.44853562158442"><ele>247.0</ele><time>2026-04-07T08:18:50Z</time></trkpt><trkpt lat="45.71010546135122" lon="9.448509474311509"><ele>247.0</ele><time>2026-04-07T08:18:51Z</time></trkpt><trkpt lat="45.710044075734615" lon="9.448470393662282"><ele>246.99999999999997</ele><time>2026-04-07T08:18:52Z</time></trkpt><trkpt lat="45.7099888649653" lon="9.448423050011506"><ele>247.0</ele><time>2026-04-07T08:18:53Z</time></trkpt><trkpt lat="45.709887046160745" lon="9.448318332177482"><ele>247.5</ele><time>2026-04-07T08:18:55Z</time></trkpt><trkpt lat="45.70979917403514" lon="9.448201789959537"><ele>248.0</ele><time>2026-04-07T08:18:57Z</time></trkpt><trkpt lat="45.70970175064345" lon="9.448094734328023"><ele>248.5</ele><time>2026-04-07T08:18:59Z</time></trkpt><trkpt lat="45.70960001619264" lon="9.447999795579841"><ele>249.0</ele><time>2026-04-07T08:19:01Z</time></trkpt><trkpt lat="45.709496890383654" lon="9.447902489371831"><ele>248.83333333333334</ele><time>2026-04-07T08:19:03Z</time></trkpt><trkpt lat="45.70939605645784" lon="9.44779968063086"><ele>248.66666666666669</ele><time>2026-04-07T08:19:05Z</time></trkpt><trkpt lat="45.70929082122256" lon="9.44770497284729"><ele>248.5</ele><time>2026-04-07T08:19:07Z</time></trkpt><trkpt lat="45.709236661593685" lon="9.447656831566546"><ele>248.33333333333334</ele><time>2026-04-07T08:19:08Z</time></trkpt><trkpt lat="45.709183082102925" lon="9.447607849743806"><ele>248.16666666666669</ele><time>2026-04-07T08:19:09Z</time></trkpt><trkpt lat="45.7091304238796" lon="9.447553170905291"><ele>248.0</ele><time>2026-04-07T08:19:10Z</time></trkpt><trkpt lat="45.70907443573287" lon="9.447501892477353"><ele>248.0</ele><time>2026-04-07T08:19:11Z</time></trkpt><trkpt lat="45.709018678636475" lon="9.447452619966606"><ele>248.00000000000003</ele><time>2026-04-07T08:19:12Z</time></trkpt><trkpt lat="45.70896010155849" lon="9.447407168037962"><ele>248.0</ele><time>2026-04-07T08:19:13Z</time></trkpt><trkpt lat="45.708901974794784" lon="9.447362901280833"><ele>248.0</ele><time>2026-04-07T08:19:14Z</time></trkpt><trkpt lat="45.7088416721339" lon="9.447321406439361"><ele>248.00000000000003</ele><time>2026-04-07T08:19:15Z</time></trkpt><trkpt lat="45.708782707897065" lon="9.447280628418184"><ele>248.0</ele><time>2026-04-07T08:19:16Z</time></trkpt><trkpt lat="45.708722599171374" lon="9.447243372367467"><ele>248.0</ele><time>2026-04-07T08:19:17Z</time></trkpt><trkpt lat="45.708660399864584" lon="9.447208099113379"><ele>248.0</ele><time>2026-04-07T08:19:18Z</time></trkpt><trkpt lat="45.70859927299082" lon="9.447173519041568"><ele>248.00000000000003</ele><time>2026-04-07T08:19:19Z</time></trkpt><trkpt lat="45.70853700873384" lon="9.447140910613804"><ele>248.0</ele><time>2026-04-07T08:19:20Z</time></trkpt><trkpt lat="45.70847268384762" lon="9.44711730234387"><ele>248.0</ele><time>2026-04-07T08:19:21Z</time></trkpt><trkpt lat="45.70840708796188" lon="9.447091789593548"><ele>248.00000000000003</ele><time>2026-04-07T08:19:22Z</time></trkpt><trkpt lat="45.70834073577481" lon="9.44706404831357"><ele>248.0</ele><time>2026-04-07T08:19:23Z</time></trkpt><trkpt lat="45.70827234649785" lon="9.447039227602854"><ele>248.0</ele><time>2026-04-07T08:19:24Z</time></trkpt><trkpt lat="45.708206756955065" lon="9.447014650232852"><ele>248.2857142857143</ele><time>2026-04-07T08:19:25Z</time></trkpt><trkpt lat="45.70814303596361" lon="9.44698389821326"><ele>248.5714285714286</ele><time>2026-04-07T08:19:26Z</time></trkpt><trkpt lat="45.708079064930345" lon="9.446952807094751"><ele>248.85714285714286</ele><time>2026-04-07T08:19:27Z</time></trkpt><trkpt lat="45.70801213259131" lon="9.446927506168912"><ele>249.14285714285717</ele><time>2026-04-07T08:19:28Z</time></trkpt><trkpt lat="45.70794749846642" lon="9.446898975514694"><ele>249.42857142857144</ele><time>2026-04-07T08:19:29Z</time></trkpt><trkpt lat="45.7078841088515" lon="9.446867564677998"><ele>249.71428571428572</ele><time>2026-04-07T08:19:30Z</time></trkpt><trkpt lat="45.70782088560099" lon="9.446842507384162"><ele>250.0</ele><time>2026-04-07T08:19:31Z</time></trkpt><trkpt lat="45.70775711458517" lon="9.446821700004998"><ele>250.57142857142856</ele><time>2026-04-07T08:19:32Z</time></trkpt><trkpt lat="45.707687577127665" lon="9.446791683540816"><ele>251.14285714285717</ele><time>2026-04-07T08:19:33Z</time></trkpt><trkpt lat="45.70762577554562" lon="9.446742574493191"><ele>251.71428571428572</ele><time>2026-04-07T08:19:34Z</time></trkpt><trkpt lat="45.70755646040557" lon="9.446737736386071"><ele>252.28571428571428</ele><time>2026-04-07T08:19:35Z</time></trkpt><trkpt lat="45.707496268558984" lon="9.446688797404308"><ele>252.85714285714283</ele><time>2026-04-07T08:19:36Z</time></trkpt><trkpt lat="45.70743296938674" lon="9.4466628581869"><ele>253.42857142857144</ele><time>2026-04-07T08:19:37Z</time></trkpt><trkpt lat="45.707369477315666" lon="9.4466555364259"><ele>254.0</ele><time>2026-04-07T08:19:38Z</time></trkpt><trkpt lat="45.70724861929438" lon="9.446607217960162"><ele>254.0</ele><time>2026-04-07T08:19:40Z</time></trkpt><trkpt lat="45.707185945969925" lon="9.446588263931988"><ele>253.99999999999997</ele><time>2026-04-07T08:19:41Z</time></trkpt><trkpt lat="45.7071289011472" lon="9.446544134166173"><ele>253.99999999999997</ele><time>2026-04-07T08:19:42Z</time></trkpt><trkpt lat="45.707009575970865" lon="9.446522906003628"><ele>254.0</ele><time>2026-04-07T08:19:44Z</time></trkpt><trkpt lat="45.70690284184554" lon="9.446498450837048"><ele>254.0</ele><time>2026-04-07T08:19:46Z</time></trkpt><trkpt lat="45.70680950680908" lon="9.446466113367388"><ele>254.2</ele><time>2026-04-07T08:19:48Z</time></trkpt><trkpt lat="45.70672327488238" lon="9.446457045615235"><ele>254.39999999999998</ele><time>2026-04-07T08:19:50Z</time></trkpt><trkpt lat="45.70663095950672" lon="9.446421779785227"><ele>254.6</ele><time>2026-04-07T08:19:52Z</time></trkpt><trkpt lat="45.706537197206345" lon="9.446414364589234"><ele>254.8</ele><time>2026-04-07T08:19:54Z</time></trkpt><trkpt lat="45.70645363707213" lon="9.44625622565541"><ele>255.0</ele><time>2026-04-07T08:19:56Z</time></trkpt><trkpt lat="45.706367965611555" lon="9.446171059293333"><ele>255.0</ele><time>2026-04-07T08:19:58Z</time></trkpt><trkpt lat="45.706272527822556" lon="9.446116055221388"><ele>255.0</ele><time>2026-04-07T08:20:00Z</time></trkpt><trkpt lat="45.70616492996288" lon="9.446084470101413"><ele>255.0</ele><time>2026-04-07T08:20:02Z</time></trkpt><trkpt lat="45.7060567951616" lon="9.446057643240925"><ele>255.0</ele><time>2026-04-07T08:20:04Z</time></trkpt><trkpt lat="45.705950415659665" lon="9.446023191498377"><ele>255.0</ele><time>2026-04-07T08:20:06Z</time></trkpt><trkpt lat="45.70584396977191" lon="9.44598998043881"><ele>254.5</ele><time>2026-04-07T08:20:07.999Z</time></trkpt><trkpt lat="45.70572963421016" lon="9.445941918282745"><ele>254.0</ele><time>2026-04-07T08:20:09.999Z</time></trkpt><trkpt lat="45.70561118601872" lon="9.445911165488678"><ele>253.5</ele><time>2026-04-07T08:20:11.999Z</time></trkpt><trkpt lat="45.705488948218616" lon="9.445874900437335"><ele>253.0</ele><time>2026-04-07T08:20:13.999Z</time></trkpt><trkpt lat="45.70537014019155" lon="9.445822762638377"><ele>253.0</ele><time>2026-04-07T08:20:15.999Z</time></trkpt><trkpt lat="45.70525164810113" lon="9.445784916060756"><ele>253.0</ele><time>2026-04-07T08:20:17.999Z</time></trkpt><trkpt lat="45.70513221900436" lon="9.445741577603318"><ele>253.0</ele><time>2026-04-07T08:20:19.999Z</time></trkpt><trkpt lat="45.7050231875043" lon="9.445668222959721"><ele>253.0</ele><time>2026-04-07T08:20:21.999Z</time></trkpt><trkpt lat="45.70492691045587" lon="9.445561921612004"><ele>253.16666666666666</ele><time>2026-04-07T08:20:23.999Z</time></trkpt><trkpt lat="45.704838865662616" lon="9.44543277274699"><ele>253.33333333333331</ele><time>2026-04-07T08:20:25.999Z</time></trkpt><trkpt lat="45.704799171122374" lon="9.445359421530332"><ele>253.5</ele><time>2026-04-07T08:20:26.999Z</time></trkpt><trkpt lat="45.70475621011193" lon="9.44529198349619"><ele>253.66666666666669</ele><time>2026-04-07T08:20:27.999Z</time></trkpt><trkpt lat="45.70471107886854" lon="9.445218715144595"><ele>253.83333333333334</ele><time>2026-04-07T08:20:28.999Z</time></trkpt><trkpt lat="45.704672545933974" lon="9.44514310193976"><ele>254.0</ele><time>2026-04-07T08:20:29.999Z</time></trkpt><trkpt lat="45.70463351295623" lon="9.445068016134357"><ele>254.0</ele><time>2026-04-07T08:20:30.999Z</time></trkpt><trkpt lat="45.704589444605695" lon="9.444997405155888"><ele>254.0</ele><time>2026-04-07T08:20:31.999Z</time></trkpt><trkpt lat="45.70455060733824" lon="9.444923392219517"><ele>254.0</ele><time>2026-04-07T08:20:32.999Z</time></trkpt><trkpt lat="45.704507602820925" lon="9.444851972394318"><ele>254.0</ele><time>2026-04-07T08:20:33.999Z</time></trkpt><trkpt lat="45.70445447740031" lon="9.4447964582486"><ele>254.0</ele><time>2026-04-07T08:20:34.999Z</time></trkpt><trkpt lat="45.704389837527486" lon="9.444765493492183"><ele>254.0</ele><time>2026-04-07T08:20:35.999Z</time></trkpt><trkpt lat="45.704328604183814" lon="9.444731849110903"><ele>254.0</ele><time>2026-04-07T08:20:36.999Z</time></trkpt><trkpt lat="45.70426393553119" lon="9.444709590827866"><ele>253.83333333333334</ele><time>2026-04-07T08:20:37.999Z</time></trkpt><trkpt lat="45.70420141776507" lon="9.44468186890222"><ele>253.66666666666669</ele><time>2026-04-07T08:20:38.999Z</time></trkpt><trkpt lat="45.70413991583314" lon="9.444658619865582"><ele>253.5</ele><time>2026-04-07T08:20:39.999Z</time></trkpt><trkpt lat="45.70402190757041" lon="9.444614306951637"><ele>253.33333333333331</ele><time>2026-04-07T08:20:41.999Z</time></trkpt><trkpt lat="45.703962099788946" lon="9.444585683586846"><ele>253.16666666666666</ele><time>2026-04-07T08:20:42.999Z</time></trkpt><trkpt lat="45.70384588831379" lon="9.444544410255224"><ele>253.0</ele><time>2026-04-07T08:20:44.999Z</time></trkpt><trkpt lat="45.70372981286901" lon="9.444502864027708"><ele>253.60000000000002</ele><time>2026-04-07T08:20:47Z</time></trkpt><trkpt lat="45.703615481621924" lon="9.444457639549242"><ele>254.20000000000002</ele><time>2026-04-07T08:20:48.999Z</time></trkpt><trkpt lat="45.70350022695154" lon="9.44442474608214"><ele>254.8</ele><time>2026-04-07T08:20:51Z</time></trkpt><trkpt lat="45.70341067265096" lon="9.444387332280124"><ele>255.4</ele><time>2026-04-07T08:20:53Z</time></trkpt><trkpt lat="45.703323165767465" lon="9.444352129449907"><ele>256.0</ele><time>2026-04-07T08:20:55Z</time></trkpt><trkpt lat="45.703233726874345" lon="9.444313340771968"><ele>256.16666666666663</ele><time>2026-04-07T08:20:57Z</time></trkpt><trkpt lat="45.703144882811344" lon="9.444271220623424"><ele>256.3333333333333</ele><time>2026-04-07T08:20:59Z</time></trkpt><trkpt lat="45.70305802828891" lon="9.44424187523093"><ele>256.5</ele><time>2026-04-07T08:21:01Z</time></trkpt><trkpt lat="45.702970229367175" lon="9.444205083749681"><ele>256.6666666666667</ele><time>2026-04-07T08:21:03Z</time></trkpt><trkpt lat="45.70288976792213" lon="9.444153504199333"><ele>256.83333333333337</ele><time>2026-04-07T08:21:05Z</time></trkpt><trkpt lat="45.70281389912662" lon="9.444121872037845"><ele>257.0</ele><time>2026-04-07T08:21:07Z</time></trkpt><trkpt lat="45.70273810980223" lon="9.44408931597365"><ele>258.1666666666667</ele><time>2026-04-07T08:21:09Z</time></trkpt><trkpt lat="45.702664788919115" lon="9.44405782033952"><ele>259.33333333333337</ele><time>2026-04-07T08:21:11Z</time></trkpt><trkpt lat="45.702583486189425" lon="9.444025515226699"><ele>260.5</ele><time>2026-04-07T08:21:13Z</time></trkpt><trkpt lat="45.702500047854876" lon="9.443994741258848"><ele>261.6666666666667</ele><time>2026-04-07T08:21:15Z</time></trkpt><trkpt lat="45.70241045239005" lon="9.443993833544015"><ele>262.8333333333333</ele><time>2026-04-07T08:21:17Z</time></trkpt><trkpt lat="45.70232383045698" lon="9.443965196194346"><ele>264.0</ele><time>2026-04-07T08:21:19Z</time></trkpt><trkpt lat="45.7022321110878" lon="9.443979100384997"><ele>264.0</ele><time>2026-04-07T08:21:21Z</time></trkpt><trkpt lat="45.70214526664481" lon="9.444010827695603"><ele>264.0</ele><time>2026-04-07T08:21:23Z</time></trkpt><trkpt lat="45.70206041517873" lon="9.444052323192546"><ele>264.0</ele><time>2026-04-07T08:21:25Z</time></trkpt><trkpt lat="45.701975736144746" lon="9.444099930759036"><ele>264.0</ele><time>2026-04-07T08:21:27Z</time></trkpt><trkpt lat="45.70189440144331" lon="9.44414729109053"><ele>264.0</ele><time>2026-04-07T08:21:29Z</time></trkpt><trkpt lat="45.70181564518943" lon="9.444188852979481"><ele>264.0</ele><time>2026-04-07T08:21:31Z</time></trkpt><trkpt lat="45.70173930113765" lon="9.444264144338971"><ele>267.0</ele><time>2026-04-07T08:21:33Z</time></trkpt><trkpt lat="45.701659930575374" lon="9.444312982607483"><ele>270.0</ele><time>2026-04-07T08:21:35Z</time></trkpt><trkpt lat="45.70157903719101" lon="9.44437195504062"><ele>273.0</ele><time>2026-04-07T08:21:37Z</time></trkpt><trkpt lat="45.70149774831883" lon="9.44444472728198"><ele>276.0</ele><time>2026-04-07T08:21:39Z</time></trkpt><trkpt lat="45.7014147525775" lon="9.444487444921798"><ele>279.0</ele><time>2026-04-07T08:21:41Z</time></trkpt><trkpt lat="45.70135466781927" lon="9.444391037988499"><ele>279.0</ele><time>2026-04-07T08:21:43Z</time></trkpt><trkpt lat="45.70142537928304" lon="9.444311916308223"><ele>279.0</ele><time>2026-04-07T08:21:45Z</time></trkpt><trkpt lat="45.70150528241359" lon="9.44425353354557"><ele>279.0</ele><time>2026-04-07T08:21:47Z</time></trkpt><trkpt lat="45.70156062744953" lon="9.444188447375142"><ele>279.0</ele><time>2026-04-07T08:21:49Z</time></trkpt><trkpt lat="45.70165032531236" lon="9.444110646895087"><ele>279.0</ele><time>2026-04-07T08:21:51Z</time></trkpt><trkpt lat="45.70171844599048" lon="9.44404050602787"><ele>279.0</ele><time>2026-04-07T08:21:53Z</time></trkpt><trkpt lat="45.70177734108236" lon="9.443972421488857"><ele>279.0</ele><time>2026-04-07T08:21:55Z</time></trkpt><trkpt lat="45.7018482481658" lon="9.443906688865791"><ele>279.0</ele><time>2026-04-07T08:21:57Z</time></trkpt><trkpt lat="45.70189208439153" lon="9.443817426885621"><ele>279.0</ele><time>2026-04-07T08:21:59Z</time></trkpt><trkpt lat="45.70195598522336" lon="9.443711789333493"><ele>279.0</ele><time>2026-04-07T08:22:01Z</time></trkpt><trkpt lat="45.70199693882928" lon="9.443589540035108"><ele>279.0</ele><time>2026-04-07T08:22:03Z</time></trkpt><trkpt lat="45.70201833305305" lon="9.443457392989512"><ele>279.0</ele><time>2026-04-07T08:22:05Z</time></trkpt><trkpt lat="45.70200219177534" lon="9.443316402611602"><ele>277.59999999999997</ele><time>2026-04-07T08:22:07Z</time></trkpt><trkpt lat="45.70197512858908" lon="9.44319494270703"><ele>276.2</ele><time>2026-04-07T08:22:09Z</time></trkpt><trkpt lat="45.70191136812744" lon="9.443092789449423"><ele>274.79999999999995</ele><time>2026-04-07T08:22:11Z</time></trkpt><trkpt lat="45.70184645765222" lon="9.442994836601073"><ele>273.4</ele><time>2026-04-07T08:22:13Z</time></trkpt><trkpt lat="45.70177296773473" lon="9.442899541970728"><ele>272.0</ele><time>2026-04-07T08:22:15Z</time></trkpt><trkpt lat="45.701693729989245" lon="9.44280726425563"><ele>275.2</ele><time>2026-04-07T08:22:17Z</time></trkpt><trkpt lat="45.70162419714556" lon="9.442714165774877"><ele>278.4</ele><time>2026-04-07T08:22:19Z</time></trkpt><trkpt lat="45.7015479670354" lon="9.44262201849421"><ele>281.6</ele><time>2026-04-07T08:22:21Z</time></trkpt><trkpt lat="45.70148182397281" lon="9.44253031643539"><ele>284.8</ele><time>2026-04-07T08:22:23Z</time></trkpt><trkpt lat="45.70141757043436" lon="9.442450786989042"><ele>288.0</ele><time>2026-04-07T08:22:25Z</time></trkpt><trkpt lat="45.70135050264485" lon="9.44236682615402"><ele>288.0</ele><time>2026-04-07T08:22:27Z</time></trkpt><trkpt lat="45.70128815907744" lon="9.442286702160343"><ele>288.0</ele><time>2026-04-07T08:22:29Z</time></trkpt><trkpt lat="45.70121396619257" lon="9.442215814394004"><ele>288.0</ele><time>2026-04-07T08:22:31Z</time></trkpt><trkpt lat="45.701155709307585" lon="9.442130655151034"><ele>288.0</ele><time>2026-04-07T08:22:33Z</time></trkpt><trkpt lat="45.70109719863973" lon="9.44205131450916"><ele>288.0</ele><time>2026-04-07T08:22:35Z</time></trkpt><trkpt lat="45.70102904004217" lon="9.44197284564762"><ele>288.0</ele><time>2026-04-07T08:22:37Z</time></trkpt><trkpt lat="45.70096567497154" lon="9.441902553796947"><ele>289.6666666666667</ele><time>2026-04-07T08:22:39Z</time></trkpt><trkpt lat="45.700901594095285" lon="9.441821632522574"><ele>291.3333333333333</ele><time>2026-04-07T08:22:41Z</time></trkpt><trkpt lat="45.70082884964438" lon="9.441749679002964"><ele>293.0</ele><time>2026-04-07T08:22:43Z</time></trkpt><trkpt lat="45.70075317662408" lon="9.441673589786003"><ele>294.66666666666663</ele><time>2026-04-07T08:22:45Z</time></trkpt><trkpt lat="45.700679278776896" lon="9.441610737295331"><ele>296.3333333333333</ele><time>2026-04-07T08:22:46.999Z</time></trkpt><trkpt lat="45.70060223216724" lon="9.441549864033142"><ele>298.0</ele><time>2026-04-07T08:22:48.999Z</time></trkpt><trkpt lat="45.70052689338161" lon="9.441495666643073"><ele>298.0</ele><time>2026-04-07T08:22:50.999Z</time></trkpt><trkpt lat="45.70044668260559" lon="9.441435892088894"><ele>298.0</ele><time>2026-04-07T08:22:53Z</time></trkpt><trkpt lat="45.70036900432327" lon="9.441390618721753"><ele>298.0</ele><time>2026-04-07T08:22:55Z</time></trkpt><trkpt lat="45.70028874700694" lon="9.441357452049731"><ele>298.0</ele><time>2026-04-07T08:22:57Z</time></trkpt><trkpt lat="45.70020728872612" lon="9.44131023485422"><ele>298.0</ele><time>2026-04-07T08:22:59Z</time></trkpt><trkpt lat="45.70013123762723" lon="9.441280920759178"><ele>298.0</ele><time>2026-04-07T08:23:01Z</time></trkpt><trkpt lat="45.70005119440709" lon="9.441229787865062"><ele>299.8</ele><time>2026-04-07T08:23:03Z</time></trkpt><trkpt lat="45.69996692348351" lon="9.441191225752368"><ele>301.6</ele><time>2026-04-07T08:23:05Z</time></trkpt><trkpt lat="45.699885745664375" lon="9.441147445735481"><ele>303.4</ele><time>2026-04-07T08:23:07Z</time></trkpt><trkpt lat="45.69980415718656" lon="9.44110522957468"><ele>305.2</ele><time>2026-04-07T08:23:09Z</time></trkpt><trkpt lat="45.69971546430697" lon="9.441056816115568"><ele>307.0</ele><time>2026-04-07T08:23:11Z</time></trkpt><trkpt lat="45.699622530263376" lon="9.441010068488206"><ele>307.0</ele><time>2026-04-07T08:23:13Z</time></trkpt><trkpt lat="45.69952699193332" lon="9.4409589550555"><ele>307.0</ele><time>2026-04-07T08:23:15Z</time></trkpt><trkpt lat="45.699432189902716" lon="9.440907742922533"><ele>307.0</ele><time>2026-04-07T08:23:17Z</time></trkpt><trkpt lat="45.699336912394024" lon="9.440865301088802"><ele>307.0</ele><time>2026-04-07T08:23:19Z</time></trkpt><trkpt lat="45.69924876085504" lon="9.44081688188975"><ele>307.0</ele><time>2026-04-07T08:23:21Z</time></trkpt><trkpt lat="45.69915858806175" lon="9.44077574254956"><ele>306.8</ele><time>2026-04-07T08:23:23Z</time></trkpt><trkpt lat="45.69906750103644" lon="9.440725127866417"><ele>306.6</ele><time>2026-04-07T08:23:25Z</time></trkpt><trkpt lat="45.69897122628622" lon="9.440682039193087"><ele>306.40000000000003</ele><time>2026-04-07T08:23:27Z</time></trkpt><trkpt lat="45.69887128578792" lon="9.440628098701614"><ele>306.2</ele><time>2026-04-07T08:23:29Z</time></trkpt><trkpt lat="45.6987691691313" lon="9.440574051148545"><ele>306.0</ele><time>2026-04-07T08:23:31Z</time></trkpt><trkpt lat="45.69867074237631" lon="9.44051927585532"><ele>306.6</ele><time>2026-04-07T08:23:33Z</time></trkpt><trkpt lat="45.69857067956326" lon="9.440469302212051"><ele>307.20000000000005</ele><time>2026-04-07T08:23:35Z</time></trkpt><trkpt lat="45.698466967364446" lon="9.440415886006978"><ele>307.79999999999995</ele><time>2026-04-07T08:23:37Z</time></trkpt><trkpt lat="45.69836053098399" lon="9.440386056063"><ele>308.4</ele><time>2026-04-07T08:23:39Z</time></trkpt><trkpt lat="45.698252411519" lon="9.440388616168056"><ele>309.0</ele><time>2026-04-07T08:23:41Z</time></trkpt><trkpt lat="45.69813437992259" lon="9.440424572370144"><ele>309.00000000000006</ele><time>2026-04-07T08:23:43Z</time></trkpt><trkpt lat="45.698072979494434" lon="9.440445850890482"><ele>309.0</ele><time>2026-04-07T08:23:44Z</time></trkpt><trkpt lat="45.69800868004116" lon="9.440466830716737"><ele>309.0</ele><time>2026-04-07T08:23:45Z</time></trkpt><trkpt lat="45.69793893071609" lon="9.440491160863498"><ele>309.0</ele><time>2026-04-07T08:23:46Z</time></trkpt><trkpt lat="45.697867031962616" lon="9.440512716838727"><ele>309.0</ele><time>2026-04-07T08:23:47Z</time></trkpt><trkpt lat="45.69779269774022" lon="9.440538943442698"><ele>309.00000000000006</ele><time>2026-04-07T08:23:48Z</time></trkpt><trkpt lat="45.69771990441928" lon="9.440560410496564"><ele>309.0</ele><time>2026-04-07T08:23:49Z</time></trkpt><trkpt lat="45.697642010798134" lon="9.440576221986602"><ele>308.3333333333333</ele><time>2026-04-07T08:23:50Z</time></trkpt><trkpt lat="45.69756179288446" lon="9.440587677659572"><ele>307.6666666666667</ele><time>2026-04-07T08:23:51Z</time></trkpt><trkpt lat="45.69748008096286" lon="9.440585785540906"><ele>307.0</ele><time>2026-04-07T08:23:52Z</time></trkpt><trkpt lat="45.69739675179333" lon="9.440574727756264"><ele>306.33333333333337</ele><time>2026-04-07T08:23:53Z</time></trkpt><trkpt lat="45.69731404763441" lon="9.440548848556354"><ele>305.6666666666667</ele><time>2026-04-07T08:23:54Z</time></trkpt><trkpt lat="45.69723072538718" lon="9.440514040441158"><ele>305.0</ele><time>2026-04-07T08:23:55Z</time></trkpt><trkpt lat="45.69715129841378" lon="9.440467453700029"><ele>306.33333333333337</ele><time>2026-04-07T08:23:56Z</time></trkpt><trkpt lat="45.69707211999467" lon="9.440413553523708"><ele>307.6666666666667</ele><time>2026-04-07T08:23:57Z</time></trkpt><trkpt lat="45.69699737569056" lon="9.440350375199419"><ele>309.0</ele><time>2026-04-07T08:23:58Z</time></trkpt><trkpt lat="45.6969260972731" lon="9.440271902855681"><ele>310.3333333333333</ele><time>2026-04-07T08:23:59Z</time></trkpt><trkpt lat="45.69685649147144" lon="9.44018556067908"><ele>311.66666666666663</ele><time>2026-04-07T08:24:00Z</time></trkpt><trkpt lat="45.69679151226957" lon="9.440097614171435"><ele>313.0</ele><time>2026-04-07T08:24:01Z</time></trkpt><trkpt lat="45.696726225611755" lon="9.43999363041477"><ele>310.4</ele><time>2026-04-07T08:24:02Z</time></trkpt><trkpt lat="45.6966602336906" lon="9.439903238397058"><ele>307.8</ele><time>2026-04-07T08:24:03Z</time></trkpt><trkpt lat="45.69659008339628" lon="9.439808659053087"><ele>305.2</ele><time>2026-04-07T08:24:04Z</time></trkpt><trkpt lat="45.69652113355361" lon="9.439712423738275"><ele>302.6</ele><time>2026-04-07T08:24:05Z</time></trkpt><trkpt lat="45.69645195868164" lon="9.43961392315238"><ele>300.0</ele><time>2026-04-07T08:24:06Z</time></trkpt><trkpt lat="45.6963820618617" lon="9.439516669647983"><ele>300.0</ele><time>2026-04-07T08:24:07Z</time></trkpt><trkpt lat="45.69631038030725" lon="9.439411368607772"><ele>300.0</ele><time>2026-04-07T08:24:08Z</time></trkpt><trkpt lat="45.6962378655036" lon="9.439323432280174"><ele>300.0</ele><time>2026-04-07T08:24:09Z</time></trkpt><trkpt lat="45.696158811656645" lon="9.439238289261047"><ele>300.0</ele><time>2026-04-07T08:24:10Z</time></trkpt><trkpt lat="45.696082228206215" lon="9.439154386309122"><ele>300.0</ele><time>2026-04-07T08:24:11Z</time></trkpt><trkpt lat="45.696003026678724" lon="9.439083841418785"><ele>299.2</ele><time>2026-04-07T08:24:12Z</time></trkpt><trkpt lat="45.69591752490143" lon="9.439020631985505"><ele>298.4</ele><time>2026-04-07T08:24:13Z</time></trkpt><trkpt lat="45.69583174712308" lon="9.438970659329344"><ele>297.6</ele><time>2026-04-07T08:24:14Z</time></trkpt><trkpt lat="45.69574320024509" lon="9.438915437103946"><ele>296.8</ele><time>2026-04-07T08:24:15Z</time></trkpt><trkpt lat="45.69566168303265" lon="9.438863927141014"><ele>296.0</ele><time>2026-04-07T08:24:16Z</time></trkpt><trkpt lat="45.69557608551431" lon="9.438815975926069"><ele>295.8</ele><time>2026-04-07T08:24:17Z</time></trkpt><trkpt lat="45.69548791262328" lon="9.438763778798958"><ele>295.6</ele><time>2026-04-07T08:24:18Z</time></trkpt><trkpt lat="45.69540404421018" lon="9.438716936072973"><ele>295.4</ele><time>2026-04-07T08:24:19Z</time></trkpt><trkpt lat="45.6953232254992" lon="9.438669647035052"><ele>295.2</ele><time>2026-04-07T08:24:20Z</time></trkpt><trkpt lat="45.69523800616519" lon="9.438624961943786"><ele>295.0</ele><time>2026-04-07T08:24:21Z</time></trkpt><trkpt lat="45.69515021679332" lon="9.438574563217646"><ele>293.4</ele><time>2026-04-07T08:24:22Z</time></trkpt><trkpt lat="45.69505870895771" lon="9.438524770605593"><ele>291.8</ele><time>2026-04-07T08:24:23Z</time></trkpt><trkpt lat="45.69497057378137" lon="9.43847345845261"><ele>290.2</ele><time>2026-04-07T08:24:24Z</time></trkpt><trkpt lat="45.69488253604993" lon="9.438422752878939"><ele>288.6</ele><time>2026-04-07T08:24:25Z</time></trkpt><trkpt lat="45.69479311518888" lon="9.43837545129711"><ele>287.0</ele><time>2026-04-07T08:24:26Z</time></trkpt><trkpt lat="45.69470339212" lon="9.438326302611427"><ele>287.0</ele><time>2026-04-07T08:24:27Z</time></trkpt><trkpt lat="45.69461150852602" lon="9.438274503317018"><ele>287.0</ele><time>2026-04-07T08:24:28Z</time></trkpt><trkpt lat="45.69452096748499" lon="9.438222322131022"><ele>287.0</ele><time>2026-04-07T08:24:29Z</time></trkpt><trkpt lat="45.69443048677737" lon="9.438174533540804"><ele>287.0</ele><time>2026-04-07T08:24:30Z</time></trkpt><trkpt lat="45.69434029724859" lon="9.43812586788462"><ele>287.0</ele><time>2026-04-07T08:24:31Z</time></trkpt><trkpt lat="45.69425078729648" lon="9.438081384194463"><ele>286.2</ele><time>2026-04-07T08:24:32Z</time></trkpt><trkpt lat="45.69416473118416" lon="9.438031493566967"><ele>285.4</ele><time>2026-04-07T08:24:33Z</time></trkpt><trkpt lat="45.694075026250935" lon="9.437980047642613"><ele>284.6</ele><time>2026-04-07T08:24:34Z</time></trkpt><trkpt lat="45.693985294781065" lon="9.437927387744141"><ele>283.8</ele><time>2026-04-07T08:24:35Z</time></trkpt><trkpt lat="45.69389539340963" lon="9.437880473533513"><ele>283.0</ele><time>2026-04-07T08:24:36Z</time></trkpt><trkpt lat="45.69380133597293" lon="9.43783132406505"><ele>282.0</ele><time>2026-04-07T08:24:37Z</time></trkpt><trkpt lat="45.69371624387253" lon="9.437781769693512"><ele>281.0</ele><time>2026-04-07T08:24:38Z</time></trkpt><trkpt lat="45.69362827374114" lon="9.437736572680633"><ele>280.0</ele><time>2026-04-07T08:24:39Z</time></trkpt><trkpt lat="45.693541237640915" lon="9.437688468283524"><ele>279.0</ele><time>2026-04-07T08:24:40Z</time></trkpt><trkpt lat="45.69345453098919" lon="9.437639876391557"><ele>278.0</ele><time>2026-04-07T08:24:41Z</time></trkpt><trkpt lat="45.69336597366149" lon="9.437591389173084"><ele>277.4</ele><time>2026-04-07T08:24:42Z</time></trkpt><trkpt lat="45.693282019225904" lon="9.437537496886105"><ele>276.8</ele><time>2026-04-07T08:24:43Z</time></trkpt><trkpt lat="45.69319774655257" lon="9.437491953256423"><ele>276.2</ele><time>2026-04-07T08:24:44Z</time></trkpt><trkpt lat="45.693110518769174" lon="9.437440910563929"><ele>275.6</ele><time>2026-04-07T08:24:45Z</time></trkpt><trkpt lat="45.693020226867034" lon="9.43738671206952"><ele>275.0</ele><time>2026-04-07T08:24:46Z</time></trkpt><trkpt lat="45.6929292591376" lon="9.43733526952228"><ele>275.0</ele><time>2026-04-07T08:24:47Z</time></trkpt><trkpt lat="45.692837453619546" lon="9.437284975963497"><ele>275.0</ele><time>2026-04-07T08:24:48Z</time></trkpt><trkpt lat="45.69274407253143" lon="9.437232218857849"><ele>275.0</ele><time>2026-04-07T08:24:49Z</time></trkpt><trkpt lat="45.69264816837911" lon="9.437181169080894"><ele>275.0</ele><time>2026-04-07T08:24:50Z</time></trkpt><trkpt lat="45.6925553605603" lon="9.437127166124348"><ele>275.0</ele><time>2026-04-07T08:24:51Z</time></trkpt><trkpt lat="45.69246111511131" lon="9.437071933340548"><ele>274.6</ele><time>2026-04-07T08:24:52Z</time></trkpt><trkpt lat="45.692366586157455" lon="9.43701981699034"><ele>274.2</ele><time>2026-04-07T08:24:53Z</time></trkpt><trkpt lat="45.69227664731391" lon="9.436966186568531"><ele>273.8</ele><time>2026-04-07T08:24:54Z</time></trkpt><trkpt lat="45.692185465996175" lon="9.436913453695817"><ele>273.4</ele><time>2026-04-07T08:24:55Z</time></trkpt><trkpt lat="45.69209773411471" lon="9.436859654480108"><ele>273.0</ele><time>2026-04-07T08:24:56Z</time></trkpt><trkpt lat="45.69201055818335" lon="9.436807705313209"><ele>273.0</ele><time>2026-04-07T08:24:57Z</time></trkpt><trkpt lat="45.691924237848376" lon="9.436759053916939"><ele>273.0</ele><time>2026-04-07T08:24:58Z</time></trkpt><trkpt lat="45.69184239483867" lon="9.43670938148164"><ele>273.0</ele><time>2026-04-07T08:24:59Z</time></trkpt><trkpt lat="45.69176048602886" lon="9.43666120753799"><ele>273.0</ele><time>2026-04-07T08:25:00Z</time></trkpt><trkpt lat="45.69168237283289" lon="9.43661444947991"><ele>273.0</ele><time>2026-04-07T08:25:01Z</time></trkpt><trkpt lat="45.691606478394114" lon="9.436569492821965"><ele>273.0</ele><time>2026-04-07T08:25:02Z</time></trkpt><trkpt lat="45.69153348153473" lon="9.436523265144643"><ele>273.0</ele><time>2026-04-07T08:25:03Z</time></trkpt><trkpt lat="45.691463185295454" lon="9.436476930839582"><ele>273.0</ele><time>2026-04-07T08:25:04Z</time></trkpt><trkpt lat="45.69139455439141" lon="9.43643190909477"><ele>273.0</ele><time>2026-04-07T08:25:05Z</time></trkpt><trkpt lat="45.6913268302588" lon="9.436388543312326"><ele>273.0</ele><time>2026-04-07T08:25:06Z</time></trkpt><trkpt lat="45.69126657536139" lon="9.436350680632978"><ele>273.0</ele><time>2026-04-07T08:25:07Z</time></trkpt><trkpt lat="45.691155077690865" lon="9.436269760934717"><ele>273.0</ele><time>2026-04-07T08:25:09Z</time></trkpt><trkpt lat="45.69110477967924" lon="9.436200094990852"><ele>272.3333333333333</ele><time>2026-04-07T08:25:10Z</time></trkpt><trkpt lat="45.69106190739483" lon="9.436116568562639"><ele>271.6666666666667</ele><time>2026-04-07T08:25:11Z</time></trkpt><trkpt lat="45.691017314083915" lon="9.436035931667437"><ele>271.0</ele><time>2026-04-07T08:25:12Z</time></trkpt><trkpt lat="45.69095504686971" lon="9.435982113048148"><ele>270.33333333333337</ele><time>2026-04-07T08:25:13Z</time></trkpt><trkpt lat="45.690885879290185" lon="9.435962334393032"><ele>269.6666666666667</ele><time>2026-04-07T08:25:14Z</time></trkpt><trkpt lat="45.69082323328907" lon="9.435971413943314"><ele>269.0</ele><time>2026-04-07T08:25:15Z</time></trkpt><trkpt lat="45.69072166401403" lon="9.435974738270538"><ele>269.0</ele><time>2026-04-07T08:25:17Z</time></trkpt><trkpt lat="45.69059865606288" lon="9.435923505766512"><ele>269.0</ele><time>2026-04-07T08:25:19Z</time></trkpt><trkpt lat="45.690537879208215" lon="9.435882663732995"><ele>269.0</ele><time>2026-04-07T08:25:20Z</time></trkpt><trkpt lat="45.69047512797549" lon="9.435841958303024"><ele>269.0</ele><time>2026-04-07T08:25:21Z</time></trkpt><trkpt lat="45.6904102665889" lon="9.435798413313558"><ele>269.0</ele><time>2026-04-07T08:25:22Z</time></trkpt><trkpt lat="45.690344102636395" lon="9.435755838954456"><ele>269.0</ele><time>2026-04-07T08:25:23Z</time></trkpt><trkpt lat="45.69027805306171" lon="9.43571241253064"><ele>269.0</ele><time>2026-04-07T08:25:24Z</time></trkpt><trkpt lat="45.69020701499255" lon="9.435670576071786"><ele>269.0</ele><time>2026-04-07T08:25:25Z</time></trkpt><trkpt lat="45.6901344970643" lon="9.435627289406593"><ele>269.0</ele><time>2026-04-07T08:25:26Z</time></trkpt><trkpt lat="45.69006685005444" lon="9.435581819015049"><ele>269.0</ele><time>2026-04-07T08:25:27Z</time></trkpt><trkpt lat="45.689994145543174" lon="9.435537015519007"><ele>269.0</ele><time>2026-04-07T08:25:28Z</time></trkpt><trkpt lat="45.68992195946746" lon="9.435489670645199"><ele>269.0</ele><time>2026-04-07T08:25:29Z</time></trkpt><trkpt lat="45.68984769769878" lon="9.435443200201764"><ele>268.83333333333337</ele><time>2026-04-07T08:25:30Z</time></trkpt><trkpt lat="45.68977253981451" lon="9.435395544455266"><ele>268.6666666666667</ele><time>2026-04-07T08:25:31Z</time></trkpt><trkpt lat="45.68969845468584" lon="9.43534791688504"><ele>268.5</ele><time>2026-04-07T08:25:32Z</time></trkpt><trkpt lat="45.68962398091582" lon="9.43530274527344"><ele>268.3333333333333</ele><time>2026-04-07T08:25:33Z</time></trkpt><trkpt lat="45.68955036190209" lon="9.435258149038898"><ele>268.16666666666663</ele><time>2026-04-07T08:25:34Z</time></trkpt><trkpt lat="45.68947732431913" lon="9.435212153416202"><ele>268.0</ele><time>2026-04-07T08:25:35Z</time></trkpt><trkpt lat="45.689404599370654" lon="9.435165339280925"><ele>268.0</ele><time>2026-04-07T08:25:36Z</time></trkpt><trkpt lat="45.689329243659024" lon="9.43511863285921"><ele>268.0</ele><time>2026-04-07T08:25:37Z</time></trkpt><trkpt lat="45.6892500732887" lon="9.435071565490233"><ele>268.0</ele><time>2026-04-07T08:25:38Z</time></trkpt><trkpt lat="45.6891742575624" lon="9.435023285291793"><ele>268.0</ele><time>2026-04-07T08:25:39Z</time></trkpt><trkpt lat="45.68909516934851" lon="9.434978118253296"><ele>268.0</ele><time>2026-04-07T08:25:40Z</time></trkpt><trkpt lat="45.689018905077376" lon="9.434932086082783"><ele>268.0</ele><time>2026-04-07T08:25:41Z</time></trkpt><trkpt lat="45.68894173275605" lon="9.434881247714126"><ele>268.0</ele><time>2026-04-07T08:25:42Z</time></trkpt><trkpt lat="45.68886486852247" lon="9.434828221503583"><ele>268.0</ele><time>2026-04-07T08:25:43Z</time></trkpt><trkpt lat="45.688785329543" lon="9.434776239102789"><ele>268.0</ele><time>2026-04-07T08:25:44Z</time></trkpt><trkpt lat="45.688704973426326" lon="9.434724803912966"><ele>268.0</ele><time>2026-04-07T08:25:45Z</time></trkpt><trkpt lat="45.688624435015754" lon="9.434676049281878"><ele>268.0</ele><time>2026-04-07T08:25:46Z</time></trkpt><trkpt lat="45.688542906512374" lon="9.434628502600356"><ele>268.0</ele><time>2026-04-07T08:25:47Z</time></trkpt><trkpt lat="45.68846122785178" lon="9.434576341092532"><ele>267.66666666666663</ele><time>2026-04-07T08:25:48Z</time></trkpt><trkpt lat="45.68838046246346" lon="9.434524791490604"><ele>267.3333333333333</ele><time>2026-04-07T08:25:49Z</time></trkpt><trkpt lat="45.68830142833817" lon="9.434471328946564"><ele>267.0</ele><time>2026-04-07T08:25:50Z</time></trkpt><trkpt lat="45.688223877637014" lon="9.434419138715775"><ele>266.6666666666667</ele><time>2026-04-07T08:25:51Z</time></trkpt><trkpt lat="45.688145236996384" lon="9.434367957435567"><ele>266.33333333333337</ele><time>2026-04-07T08:25:52Z</time></trkpt><trkpt lat="45.68806627351105" lon="9.43432063447285"><ele>266.0</ele><time>2026-04-07T08:25:53Z</time></trkpt><trkpt lat="45.687988116750205" lon="9.434271301327477"><ele>266.0</ele><time>2026-04-07T08:25:54Z</time></trkpt><trkpt lat="45.68791023705453" lon="9.434225349772719"><ele>266.0</ele><time>2026-04-07T08:25:55Z</time></trkpt><trkpt lat="45.68783238502159" lon="9.434174612501511"><ele>266.0</ele><time>2026-04-07T08:25:56Z</time></trkpt><trkpt lat="45.68775573100069" lon="9.4341201240482"><ele>266.0</ele><time>2026-04-07T08:25:57Z</time></trkpt><trkpt lat="45.68767864764424" lon="9.434070670210371"><ele>266.0</ele><time>2026-04-07T08:25:58Z</time></trkpt><trkpt lat="45.68760211699176" lon="9.434020243568243"><ele>266.0</ele><time>2026-04-07T08:25:59Z</time></trkpt><trkpt lat="45.68752535176529" lon="9.433972153587696"><ele>266.0</ele><time>2026-04-07T08:26:00Z</time></trkpt><trkpt lat="45.687452341992646" lon="9.433923261060187"><ele>266.0</ele><time>2026-04-07T08:26:01Z</time></trkpt><trkpt lat="45.68737768459064" lon="9.433874804271474"><ele>266.0</ele><time>2026-04-07T08:26:02Z</time></trkpt><trkpt lat="45.68729849339858" lon="9.433831701668428"><ele>266.0</ele><time>2026-04-07T08:26:03Z</time></trkpt><trkpt lat="45.68722459864272" lon="9.433777106652697"><ele>266.0</ele><time>2026-04-07T08:26:04Z</time></trkpt><trkpt lat="45.68714851142062" lon="9.433728772832902"><ele>266.0</ele><time>2026-04-07T08:26:05Z</time></trkpt><trkpt lat="45.68707799731368" lon="9.433685742390717"><ele>265.7142857142857</ele><time>2026-04-07T08:26:06Z</time></trkpt><trkpt lat="45.68701009928408" lon="9.433643297490262"><ele>265.42857142857144</ele><time>2026-04-07T08:26:07Z</time></trkpt><trkpt lat="45.686944082274685" lon="9.433605409253511"><ele>265.1428571428571</ele><time>2026-04-07T08:26:08Z</time></trkpt><trkpt lat="45.68688007899505" lon="9.43356575500315"><ele>264.8571428571429</ele><time>2026-04-07T08:26:09Z</time></trkpt><trkpt lat="45.68681899762574" lon="9.433519766124151"><ele>264.57142857142856</ele><time>2026-04-07T08:26:10Z</time></trkpt><trkpt lat="45.68675781907093" lon="9.433479865317327"><ele>264.2857142857143</ele><time>2026-04-07T08:26:11Z</time></trkpt><trkpt lat="45.68670018240036" lon="9.433443376330185"><ele>264.0</ele><time>2026-04-07T08:26:12Z</time></trkpt><trkpt lat="45.68658707988178" lon="9.433365720662227"><ele>263.8</ele><time>2026-04-07T08:26:14Z</time></trkpt><trkpt lat="45.68648081701872" lon="9.433289344574485"><ele>263.59999999999997</ele><time>2026-04-07T08:26:16Z</time></trkpt><trkpt lat="45.686374142934255" lon="9.433225219837402"><ele>263.4</ele><time>2026-04-07T08:26:18Z</time></trkpt><trkpt lat="45.68628645790373" lon="9.433152139877174"><ele>263.2</ele><time>2026-04-07T08:26:20Z</time></trkpt><trkpt lat="45.68622176103013" lon="9.433110879652427"><ele>263.0</ele><time>2026-04-07T08:26:22Z</time></trkpt><trkpt lat="45.68614615280238" lon="9.433048547407418"><ele>263.2</ele><time>2026-04-07T08:27:37Z</time></trkpt><trkpt lat="45.68605985016701" lon="9.432955507276937"><ele>263.4</ele><time>2026-04-07T08:27:39Z</time></trkpt><trkpt lat="45.68595017816715" lon="9.432881265894022"><ele>263.59999999999997</ele><time>2026-04-07T08:27:41Z</time></trkpt><trkpt lat="45.68583030175166" lon="9.432814010522451"><ele>263.8</ele><time>2026-04-07T08:27:43Z</time></trkpt><trkpt lat="45.68576697478744" lon="9.432779506554619"><ele>264.0</ele><time>2026-04-07T08:27:44Z</time></trkpt><trkpt lat="45.685704577324024" lon="9.432748058588952"><ele>264.0</ele><time>2026-04-07T08:27:45Z</time></trkpt><trkpt lat="45.685640962850684" lon="9.432715453717071"><ele>264.0</ele><time>2026-04-07T08:27:46Z</time></trkpt><trkpt lat="45.68557655512264" lon="9.432679641726814"><ele>264.0</ele><time>2026-04-07T08:27:47Z</time></trkpt><trkpt lat="45.68551148090667" lon="9.432645453102676"><ele>264.0</ele><time>2026-04-07T08:27:48Z</time></trkpt><trkpt lat="45.68543896623645" lon="9.432610778886335"><ele>264.0</ele><time>2026-04-07T08:27:49Z</time></trkpt><trkpt lat="45.685372992149034" lon="9.432568821699318"><ele>264.0</ele><time>2026-04-07T08:27:50Z</time></trkpt><trkpt lat="45.68530345525331" lon="9.432526748241212"><ele>264.0</ele><time>2026-04-07T08:27:51Z</time></trkpt><trkpt lat="45.68522856619882" lon="9.432478720205017"><ele>264.1666666666667</ele><time>2026-04-07T08:27:52Z</time></trkpt><trkpt lat="45.68515352141716" lon="9.43243034871824"><ele>264.3333333333333</ele><time>2026-04-07T08:27:53Z</time></trkpt><trkpt lat="45.6850793859556" lon="9.432383941333354"><ele>264.5</ele><time>2026-04-07T08:27:54Z</time></trkpt><trkpt lat="45.685004175897724" lon="9.43233810178725"><ele>264.66666666666663</ele><time>2026-04-07T08:27:55Z</time></trkpt><trkpt lat="45.6849270847108" lon="9.432291419207013"><ele>264.8333333333333</ele><time>2026-04-07T08:27:56Z</time></trkpt><trkpt lat="45.68484862740953" lon="9.432238237154253"><ele>265.0</ele><time>2026-04-07T08:27:57Z</time></trkpt><trkpt lat="45.68476829019769" lon="9.432192166600451"><ele>264.66666666666663</ele><time>2026-04-07T08:27:58Z</time></trkpt><trkpt lat="45.6846892360823" lon="9.432138839338895"><ele>264.3333333333333</ele><time>2026-04-07T08:27:59Z</time></trkpt><trkpt lat="45.68461010757741" lon="9.43208863082277"><ele>264.0</ele><time>2026-04-07T08:28:00Z</time></trkpt><trkpt lat="45.684529629915396" lon="9.432038997007435"><ele>263.6666666666667</ele><time>2026-04-07T08:28:01Z</time></trkpt><trkpt lat="45.68445221610774" lon="9.431985783707947"><ele>263.33333333333337</ele><time>2026-04-07T08:28:02Z</time></trkpt><trkpt lat="45.68437581828157" lon="9.431934613902982"><ele>263.0</ele><time>2026-04-07T08:28:03Z</time></trkpt><trkpt lat="45.68429602321962" lon="9.43188582568806"><ele>263.0</ele><time>2026-04-07T08:28:04Z</time></trkpt><trkpt lat="45.68421659836348" lon="9.431835624915681"><ele>263.0</ele><time>2026-04-07T08:28:05Z</time></trkpt><trkpt lat="45.68413788156905" lon="9.431784183430457"><ele>263.0</ele><time>2026-04-07T08:28:06Z</time></trkpt><trkpt lat="45.684058337777564" lon="9.431735151418494"><ele>263.0</ele><time>2026-04-07T08:28:07Z</time></trkpt><trkpt lat="45.68397974966171" lon="9.43168609739396"><ele>263.0</ele><time>2026-04-07T08:28:08Z</time></trkpt><trkpt lat="45.6839008783031" lon="9.431636421595927"><ele>263.0</ele><time>2026-04-07T08:28:09Z</time></trkpt><trkpt lat="45.68382318117468" lon="9.431584603665918"><ele>263.0</ele><time>2026-04-07T08:28:10Z</time></trkpt><trkpt lat="45.683746491028494" lon="9.431535723286647"><ele>263.0</ele><time>2026-04-07T08:28:11Z</time></trkpt><trkpt lat="45.6836663491816" lon="9.43149011215663"><ele>263.0</ele><time>2026-04-07T08:28:12Z</time></trkpt><trkpt lat="45.68358552780195" lon="9.431445689133005"><ele>263.0</ele><time>2026-04-07T08:28:13Z</time></trkpt><trkpt lat="45.683505656136056" lon="9.43140097528517"><ele>263.0</ele><time>2026-04-07T08:28:14Z</time></trkpt><trkpt lat="45.68342325750524" lon="9.431366919905075"><ele>263.0</ele><time>2026-04-07T08:28:15Z</time></trkpt><trkpt lat="45.68334177127264" lon="9.431328041146179"><ele>262.6666666666667</ele><time>2026-04-07T08:28:16Z</time></trkpt><trkpt lat="45.683260664506555" lon="9.43129323454747"><ele>262.33333333333337</ele><time>2026-04-07T08:28:17Z</time></trkpt><trkpt lat="45.683184294389434" lon="9.431255065863796"><ele>262.0</ele><time>2026-04-07T08:28:18Z</time></trkpt><trkpt lat="45.68311810421772" lon="9.431193198004754"><ele>261.6666666666667</ele><time>2026-04-07T08:28:19Z</time></trkpt><trkpt lat="45.683058085672606" lon="9.43111691437972"><ele>261.3333333333333</ele><time>2026-04-07T08:28:20Z</time></trkpt><trkpt lat="45.68299443128467" lon="9.431046942034376"><ele>261.0</ele><time>2026-04-07T08:28:21Z</time></trkpt><trkpt lat="45.682917409420526" lon="9.431007263674884"><ele>261.0</ele><time>2026-04-07T08:28:22Z</time></trkpt><trkpt lat="45.68283967752736" lon="9.430991622718118"><ele>261.0</ele><time>2026-04-07T08:28:23Z</time></trkpt><trkpt lat="45.68276173334572" lon="9.430975337121259"><ele>261.0</ele><time>2026-04-07T08:28:24Z</time></trkpt><trkpt lat="45.682684568601225" lon="9.430929733661623"><ele>261.0</ele><time>2026-04-07T08:28:25Z</time></trkpt><trkpt lat="45.68261551389482" lon="9.43086695805326"><ele>261.0</ele><time>2026-04-07T08:28:26Z</time></trkpt><trkpt lat="45.68254320546347" lon="9.430801805319895"><ele>261.0</ele><time>2026-04-07T08:28:27Z</time></trkpt><trkpt lat="45.682470642699144" lon="9.43074060719347"><ele>260.8333333333333</ele><time>2026-04-07T08:28:28Z</time></trkpt><trkpt lat="45.68239562013645" lon="9.43068273987065"><ele>260.6666666666667</ele><time>2026-04-07T08:28:29Z</time></trkpt><trkpt lat="45.682318033785236" lon="9.430626671926627"><ele>260.5</ele><time>2026-04-07T08:28:30Z</time></trkpt><trkpt lat="45.682239821189405" lon="9.430572616117095"><ele>260.33333333333337</ele><time>2026-04-07T08:28:31Z</time></trkpt><trkpt lat="45.68216142451465" lon="9.430519428822178"><ele>260.1666666666667</ele><time>2026-04-07T08:28:32Z</time></trkpt><trkpt lat="45.68208273314868" lon="9.430468637664315"><ele>260.0</ele><time>2026-04-07T08:28:33Z</time></trkpt><trkpt lat="45.682004403860255" lon="9.430420683834699"><ele>260.0</ele><time>2026-04-07T08:28:34Z</time></trkpt><trkpt lat="45.68192566950896" lon="9.430368567176483"><ele>260.0</ele><time>2026-04-07T08:28:35Z</time></trkpt><trkpt lat="45.68184765219864" lon="9.430314912394696"><ele>260.0</ele><time>2026-04-07T08:28:36Z</time></trkpt><trkpt lat="45.68176788784048" lon="9.430264353742722"><ele>260.0</ele><time>2026-04-07T08:28:37Z</time></trkpt><trkpt lat="45.68168863781805" lon="9.430213485556562"><ele>260.0</ele><time>2026-04-07T08:28:38Z</time></trkpt><trkpt lat="45.681609446107196" lon="9.43016329005979"><ele>260.0</ele><time>2026-04-07T08:28:39Z</time></trkpt><trkpt lat="45.68153078785537" lon="9.430111689986104"><ele>260.0</ele><time>2026-04-07T08:28:40Z</time></trkpt><trkpt lat="45.68145143033092" lon="9.430061572690356"><ele>260.0</ele><time>2026-04-07T08:28:41Z</time></trkpt><trkpt lat="45.68137272713054" lon="9.430011348854208"><ele>260.0</ele><time>2026-04-07T08:28:42Z</time></trkpt><trkpt lat="45.681293757681736" lon="9.42995965005196"><ele>260.0</ele><time>2026-04-07T08:28:43Z</time></trkpt><trkpt lat="45.6812159311291" lon="9.429910499985127"><ele>260.0</ele><time>2026-04-07T08:28:44Z</time></trkpt><trkpt lat="45.681137914833755" lon="9.42985857884542"><ele>260.0</ele><time>2026-04-07T08:28:45Z</time></trkpt><trkpt lat="45.681060168426" lon="9.429806575870636"><ele>260.0</ele><time>2026-04-07T08:28:46Z</time></trkpt><trkpt lat="45.6809813084154" lon="9.429755509090732"><ele>260.0</ele><time>2026-04-07T08:28:47Z</time></trkpt><trkpt lat="45.68090050862677" lon="9.429706752542044"><ele>260.0</ele><time>2026-04-07T08:28:48Z</time></trkpt><trkpt lat="45.68082052917205" lon="9.429656597473928"><ele>260.0</ele><time>2026-04-07T08:28:49Z</time></trkpt><trkpt lat="45.680740382775156" lon="9.429604618373304"><ele>260.0</ele><time>2026-04-07T08:28:50Z</time></trkpt><trkpt lat="45.6806615381875" lon="9.429550416090379"><ele>260.0</ele><time>2026-04-07T08:28:51Z</time></trkpt><trkpt lat="45.68058178137035" lon="9.429500595109054"><ele>260.0</ele><time>2026-04-07T08:28:52Z</time></trkpt><trkpt lat="45.68050365134388" lon="9.429449835590265"><ele>260.0</ele><time>2026-04-07T08:28:53Z</time></trkpt><trkpt lat="45.680426676739664" lon="9.42939746029861"><ele>260.0</ele><time>2026-04-07T08:28:54Z</time></trkpt><trkpt lat="45.680347936831396" lon="9.429347627582127"><ele>260.0</ele><time>2026-04-07T08:28:55Z</time></trkpt><trkpt lat="45.68026825385443" lon="9.42930136672103"><ele>260.0</ele><time>2026-04-07T08:28:56Z</time></trkpt><trkpt lat="45.68019144495929" lon="9.429250994796693"><ele>260.0</ele><time>2026-04-07T08:28:57Z</time></trkpt><trkpt lat="45.68011543536236" lon="9.42920134639669"><ele>259.6666666666667</ele><time>2026-04-07T08:28:58Z</time></trkpt><trkpt lat="45.6800387402771" lon="9.42915312055023"><ele>259.33333333333337</ele><time>2026-04-07T08:28:59Z</time></trkpt><trkpt lat="45.6799616481741" lon="9.429102940963265"><ele>259.0</ele><time>2026-04-07T08:29:00Z</time></trkpt><trkpt lat="45.679885882863765" lon="9.429054560064884"><ele>258.6666666666667</ele><time>2026-04-07T08:29:01Z</time></trkpt><trkpt lat="45.679808421357706" lon="9.429004024965401"><ele>258.3333333333333</ele><time>2026-04-07T08:29:02Z</time></trkpt><trkpt lat="45.67973075299827" lon="9.428955530346826"><ele>258.0</ele><time>2026-04-07T08:29:03Z</time></trkpt><trkpt lat="45.6796548456736" lon="9.428903796644413"><ele>258.0</ele><time>2026-04-07T08:29:04Z</time></trkpt><trkpt lat="45.67957884156873" lon="9.428855041170788"><ele>258.0</ele><time>2026-04-07T08:29:05Z</time></trkpt><trkpt lat="45.679503873661965" lon="9.428804853686716"><ele>258.0</ele><time>2026-04-07T08:29:06Z</time></trkpt><trkpt lat="45.679430193143766" lon="9.428758293421797"><ele>258.0</ele><time>2026-04-07T08:29:07Z</time></trkpt><trkpt lat="45.67935413993885" lon="9.428707925204936"><ele>258.0</ele><time>2026-04-07T08:29:08Z</time></trkpt><trkpt lat="45.679278487598225" lon="9.428657114663665"><ele>258.0</ele><time>2026-04-07T08:29:09Z</time></trkpt><trkpt lat="45.679202703734006" lon="9.428606707289195"><ele>257.5</ele><time>2026-04-07T08:29:10Z</time></trkpt><trkpt lat="45.679127182510896" lon="9.42855877969294"><ele>257.0</ele><time>2026-04-07T08:29:11Z</time></trkpt><trkpt lat="45.67905127072353" lon="9.42851100993619"><ele>256.5</ele><time>2026-04-07T08:29:12Z</time></trkpt><trkpt lat="45.6789746974727" lon="9.428462416179302"><ele>256.0</ele><time>2026-04-07T08:29:13Z</time></trkpt><trkpt lat="45.678898535439664" lon="9.428414285674451"><ele>255.5</ele><time>2026-04-07T08:29:14Z</time></trkpt><trkpt lat="45.678825861892" lon="9.4283509876227"><ele>255.0</ele><time>2026-04-07T08:29:15Z</time></trkpt><trkpt lat="45.67875255070578" lon="9.428289640703314"><ele>255.0</ele><time>2026-04-07T08:29:16Z</time></trkpt><trkpt lat="45.678692771546984" lon="9.428201536611487"><ele>255.0</ele><time>2026-04-07T08:29:17Z</time></trkpt><trkpt lat="45.67861369761792" lon="9.428163789095667"><ele>255.0</ele><time>2026-04-07T08:29:18Z</time></trkpt><trkpt lat="45.678532211965155" lon="9.42814599393953"><ele>255.0</ele><time>2026-04-07T08:29:19Z</time></trkpt><trkpt lat="45.67845008197975" lon="9.428117633580811"><ele>255.0</ele><time>2026-04-07T08:29:20Z</time></trkpt><trkpt lat="45.67837327968232" lon="9.428077833886848"><ele>255.0</ele><time>2026-04-07T08:29:21Z</time></trkpt><trkpt lat="45.678298196025544" lon="9.428031010299588"><ele>255.16666666666666</ele><time>2026-04-07T08:29:22Z</time></trkpt><trkpt lat="45.678224312694304" lon="9.427984090295405"><ele>255.33333333333331</ele><time>2026-04-07T08:29:23Z</time></trkpt><trkpt lat="45.67815078582514" lon="9.427935621792829"><ele>255.5</ele><time>2026-04-07T08:29:24Z</time></trkpt><trkpt lat="45.67807592804706" lon="9.427886509597386"><ele>255.66666666666666</ele><time>2026-04-07T08:29:25Z</time></trkpt><trkpt lat="45.678003619983365" lon="9.427834398701926"><ele>255.83333333333331</ele><time>2026-04-07T08:29:26Z</time></trkpt><trkpt lat="45.67792957236165" lon="9.427784325896964"><ele>256.0</ele><time>2026-04-07T08:29:27Z</time></trkpt><trkpt lat="45.677856606187376" lon="9.427735927339404"><ele>255.99999999999997</ele><time>2026-04-07T08:29:28Z</time></trkpt><trkpt lat="45.67778087057966" lon="9.427691044205257"><ele>256.0</ele><time>2026-04-07T08:29:29Z</time></trkpt><trkpt lat="45.67770594088968" lon="9.42764328750008"><ele>256.0</ele><time>2026-04-07T08:29:30Z</time></trkpt><trkpt lat="45.67763224935116" lon="9.42759481751913"><ele>256.0</ele><time>2026-04-07T08:29:31Z</time></trkpt><trkpt lat="45.677557683831395" lon="9.427546830326067"><ele>255.99999999999997</ele><time>2026-04-07T08:29:32Z</time></trkpt><trkpt lat="45.67748321135088" lon="9.427497368823587"><ele>256.0</ele><time>2026-04-07T08:29:33Z</time></trkpt><trkpt lat="45.677408480630476" lon="9.42745125228066"><ele>255.83333333333331</ele><time>2026-04-07T08:29:34Z</time></trkpt><trkpt lat="45.67733378925669" lon="9.4274065966247"><ele>255.66666666666666</ele><time>2026-04-07T08:29:35Z</time></trkpt><trkpt lat="45.67725975047689" lon="9.427362750444479"><ele>255.5</ele><time>2026-04-07T08:29:36Z</time></trkpt><trkpt lat="45.67718539175523" lon="9.427313212527253"><ele>255.33333333333331</ele><time>2026-04-07T08:29:37Z</time></trkpt><trkpt lat="45.67711095036036" lon="9.427263723292842"><ele>255.16666666666666</ele><time>2026-04-07T08:29:38Z</time></trkpt><trkpt lat="45.6770355748538" lon="9.427215991924308"><ele>255.0</ele><time>2026-04-07T08:29:39Z</time></trkpt><trkpt lat="45.676961720331455" lon="9.42716722043843"><ele>255.33333333333334</ele><time>2026-04-07T08:29:40Z</time></trkpt><trkpt lat="45.67688703627174" lon="9.427119493004003"><ele>255.66666666666669</ele><time>2026-04-07T08:29:41Z</time></trkpt><trkpt lat="45.6768121193913" lon="9.42707277472939"><ele>256.0</ele><time>2026-04-07T08:29:42Z</time></trkpt><trkpt lat="45.676738334467146" lon="9.427024376954533"><ele>256.33333333333337</ele><time>2026-04-07T08:29:43Z</time></trkpt><trkpt lat="45.67666339559585" lon="9.426978018938296"><ele>256.6666666666667</ele><time>2026-04-07T08:29:44Z</time></trkpt><trkpt lat="45.67658871988807" lon="9.426930184112356"><ele>257.0</ele><time>2026-04-07T08:29:45Z</time></trkpt><trkpt lat="45.67651328900532" lon="9.42688192264366"><ele>257.0</ele><time>2026-04-07T08:29:46Z</time></trkpt><trkpt lat="45.67643819401691" lon="9.426833007459882"><ele>257.0</ele><time>2026-04-07T08:29:47Z</time></trkpt><trkpt lat="45.67636303359295" lon="9.426784938146842"><ele>257.0</ele><time>2026-04-07T08:29:48Z</time></trkpt><trkpt lat="45.67628740020517" lon="9.426736653086289"><ele>257.0</ele><time>2026-04-07T08:29:49Z</time></trkpt><trkpt lat="45.67621497478847" lon="9.426689456347882"><ele>257.0</ele><time>2026-04-07T08:29:50Z</time></trkpt><trkpt lat="45.676141264957494" lon="9.426642340895174"><ele>257.0</ele><time>2026-04-07T08:29:51Z</time></trkpt><trkpt lat="45.67606636721641" lon="9.426595428775306"><ele>256.83333333333337</ele><time>2026-04-07T08:29:52Z</time></trkpt><trkpt lat="45.67598746391799" lon="9.426543515679365"><ele>256.6666666666667</ele><time>2026-04-07T08:29:53Z</time></trkpt><trkpt lat="45.67591047203166" lon="9.426494120093322"><ele>256.5</ele><time>2026-04-07T08:29:54Z</time></trkpt><trkpt lat="45.67583468191206" lon="9.426446918570413"><ele>256.3333333333333</ele><time>2026-04-07T08:29:55Z</time></trkpt><trkpt lat="45.67575886323767" lon="9.426396133405085"><ele>256.16666666666663</ele><time>2026-04-07T08:29:56Z</time></trkpt><trkpt lat="45.67568356419502" lon="9.426343117334442"><ele>256.0</ele><time>2026-04-07T08:29:57Z</time></trkpt><trkpt lat="45.67560766133028" lon="9.426294555582617"><ele>255.99999999999997</ele><time>2026-04-07T08:29:58Z</time></trkpt><trkpt lat="45.67552722318405" lon="9.426247008118821"><ele>256.0</ele><time>2026-04-07T08:29:59Z</time></trkpt><trkpt lat="45.67545094261772" lon="9.426201136928245"><ele>256.0</ele><time>2026-04-07T08:30:00Z</time></trkpt><trkpt lat="45.67537538452982" lon="9.426154972629362"><ele>256.0</ele><time>2026-04-07T08:30:01Z</time></trkpt><trkpt lat="45.675300490107766" lon="9.426105336098171"><ele>255.99999999999997</ele><time>2026-04-07T08:30:02Z</time></trkpt><trkpt lat="45.675222825657485" lon="9.426058752378198"><ele>256.0</ele><time>2026-04-07T08:30:03Z</time></trkpt><trkpt lat="45.67514413251695" lon="9.426014965806361"><ele>256.16666666666663</ele><time>2026-04-07T08:30:04Z</time></trkpt><trkpt lat="45.67506750397606" lon="9.425970288419482"><ele>256.3333333333333</ele><time>2026-04-07T08:30:05Z</time></trkpt><trkpt lat="45.674995270726015" lon="9.425917775784352"><ele>256.5</ele><time>2026-04-07T08:30:06Z</time></trkpt><trkpt lat="45.67491918902041" lon="9.42586437164122"><ele>256.6666666666667</ele><time>2026-04-07T08:30:07Z</time></trkpt><trkpt lat="45.67484222755381" lon="9.4258155897292"><ele>256.83333333333337</ele><time>2026-04-07T08:30:08Z</time></trkpt><trkpt lat="45.67476682334223" lon="9.425764646894267"><ele>257.0</ele><time>2026-04-07T08:30:09Z</time></trkpt><trkpt lat="45.6746902573686" lon="9.425714672875673"><ele>257.0</ele><time>2026-04-07T08:30:10Z</time></trkpt><trkpt lat="45.67461510302708" lon="9.425662411821799"><ele>257.0</ele><time>2026-04-07T08:30:11Z</time></trkpt><trkpt lat="45.67453908216826" lon="9.425612403690245"><ele>257.0</ele><time>2026-04-07T08:30:12Z</time></trkpt><trkpt lat="45.674462087455694" lon="9.425561903866793"><ele>257.0</ele><time>2026-04-07T08:30:13Z</time></trkpt><trkpt lat="45.67438571146475" lon="9.425512434190038"><ele>257.0</ele><time>2026-04-07T08:30:14Z</time></trkpt><trkpt lat="45.67430940961849" lon="9.425462708481444"><ele>257.0</ele><time>2026-04-07T08:30:15Z</time></trkpt><trkpt lat="45.67423227445618" lon="9.425412739603466"><ele>256.5</ele><time>2026-04-07T08:30:16Z</time></trkpt><trkpt lat="45.674153366970984" lon="9.425364693393329"><ele>256.0</ele><time>2026-04-07T08:30:17Z</time></trkpt><trkpt lat="45.67407424836357" lon="9.425316247405068"><ele>255.5</ele><time>2026-04-07T08:30:18Z</time></trkpt><trkpt lat="45.673995740646276" lon="9.425263717019645"><ele>255.0</ele><time>2026-04-07T08:30:19Z</time></trkpt><trkpt lat="45.67391695854572" lon="9.425214420752178"><ele>254.50000000000003</ele><time>2026-04-07T08:30:20Z</time></trkpt><trkpt lat="45.67384057437105" lon="9.425165013698107"><ele>254.0</ele><time>2026-04-07T08:30:21Z</time></trkpt><trkpt lat="45.67376257040211" lon="9.425114784632928"><ele>254.00000000000003</ele><time>2026-04-07T08:30:22Z</time></trkpt><trkpt lat="45.67368400367855" lon="9.425065690725827"><ele>254.0</ele><time>2026-04-07T08:30:23Z</time></trkpt><trkpt lat="45.67360751754853" lon="9.425014337329229"><ele>254.0</ele><time>2026-04-07T08:30:24Z</time></trkpt><trkpt lat="45.673530793234605" lon="9.424964416527406"><ele>254.0</ele><time>2026-04-07T08:30:25Z</time></trkpt><trkpt lat="45.67345209419305" lon="9.424914368707428"><ele>254.00000000000003</ele><time>2026-04-07T08:30:26Z</time></trkpt><trkpt lat="45.67337512003148" lon="9.42486709328471"><ele>254.0</ele><time>2026-04-07T08:30:27Z</time></trkpt><trkpt lat="45.67329972319024" lon="9.4248192178911"><ele>254.16666666666669</ele><time>2026-04-07T08:30:28Z</time></trkpt><trkpt lat="45.673224252640374" lon="9.424770164608981"><ele>254.33333333333334</ele><time>2026-04-07T08:30:29Z</time></trkpt><trkpt lat="45.673148674688306" lon="9.424721276754916"><ele>254.5</ele><time>2026-04-07T08:30:30Z</time></trkpt><trkpt lat="45.673074609249966" lon="9.424675159367496"><ele>254.66666666666669</ele><time>2026-04-07T08:30:31Z</time></trkpt><trkpt lat="45.67300077255667" lon="9.424626855888617"><ele>254.83333333333334</ele><time>2026-04-07T08:30:32Z</time></trkpt><trkpt lat="45.67292642387983" lon="9.424576833744334"><ele>255.0</ele><time>2026-04-07T08:30:33Z</time></trkpt><trkpt lat="45.672851403086064" lon="9.42453199669808"><ele>255.0</ele><time>2026-04-07T08:30:34Z</time></trkpt><trkpt lat="45.67277706104544" lon="9.424487298526785"><ele>255.0</ele><time>2026-04-07T08:30:35Z</time></trkpt><trkpt lat="45.67270366507091" lon="9.424437543847684"><ele>255.0</ele><time>2026-04-07T08:30:36Z</time></trkpt><trkpt lat="45.67262970918614" lon="9.424389102905213"><ele>255.0</ele><time>2026-04-07T08:30:37Z</time></trkpt><trkpt lat="45.67255538375181" lon="9.42434397867"><ele>255.0</ele><time>2026-04-07T08:30:38Z</time></trkpt><trkpt lat="45.67248207664891" lon="9.424294989947043"><ele>255.0</ele><time>2026-04-07T08:30:39Z</time></trkpt><trkpt lat="45.67240587108359" lon="9.424244139831597"><ele>254.66666666666666</ele><time>2026-04-07T08:30:40Z</time></trkpt><trkpt lat="45.67233016628126" lon="9.424197661711908"><ele>254.33333333333331</ele><time>2026-04-07T08:30:41Z</time></trkpt><trkpt lat="45.6722537275895" lon="9.424151128611555"><ele>254.0</ele><time>2026-04-07T08:30:42Z</time></trkpt><trkpt lat="45.67217640005836" lon="9.424101927664415"><ele>253.66666666666666</ele><time>2026-04-07T08:30:43Z</time></trkpt><trkpt lat="45.672101716417465" lon="9.424052276402472"><ele>253.33333333333331</ele><time>2026-04-07T08:30:44Z</time></trkpt><trkpt lat="45.6720257179309" lon="9.424003683255036"><ele>253.0</ele><time>2026-04-07T08:30:45Z</time></trkpt><trkpt lat="45.671950918583576" lon="9.423958225863043"><ele>253.16666666666666</ele><time>2026-04-07T08:30:46Z</time></trkpt><trkpt lat="45.6718759866403" lon="9.423910497776973"><ele>253.33333333333331</ele><time>2026-04-07T08:30:47Z</time></trkpt><trkpt lat="45.671801110529415" lon="9.423861888600857"><ele>253.5</ele><time>2026-04-07T08:30:48Z</time></trkpt><trkpt lat="45.671726166570295" lon="9.423813785802569"><ele>253.66666666666669</ele><time>2026-04-07T08:30:49Z</time></trkpt><trkpt lat="45.67165087492077" lon="9.423765438767122"><ele>253.83333333333334</ele><time>2026-04-07T08:30:50Z</time></trkpt><trkpt lat="45.67157654842289" lon="9.423717032154103"><ele>254.0</ele><time>2026-04-07T08:30:51Z</time></trkpt><trkpt lat="45.67149976590693" lon="9.423668356881938"><ele>253.50000000000003</ele><time>2026-04-07T08:30:52Z</time></trkpt><trkpt lat="45.671424116131504" lon="9.423619538711407"><ele>253.0</ele><time>2026-04-07T08:30:53Z</time></trkpt><trkpt lat="45.67134675068758" lon="9.42357103423329"><ele>252.5</ele><time>2026-04-07T08:30:54Z</time></trkpt><trkpt lat="45.67127072992109" lon="9.423520405226384"><ele>252.0</ele><time>2026-04-07T08:30:55Z</time></trkpt><trkpt lat="45.671193074923664" lon="9.423471641574624"><ele>251.50000000000003</ele><time>2026-04-07T08:30:56Z</time></trkpt><trkpt lat="45.671115242061" lon="9.423420556078794"><ele>251.0</ele><time>2026-04-07T08:30:57Z</time></trkpt><trkpt lat="45.671038036119455" lon="9.423370748310528"><ele>251.00000000000003</ele><time>2026-04-07T08:30:58Z</time></trkpt><trkpt lat="45.67095898350542" lon="9.423322233439096"><ele>251.0</ele><time>2026-04-07T08:30:59Z</time></trkpt><trkpt lat="45.67088124966365" lon="9.423273708223563"><ele>251.0</ele><time>2026-04-07T08:31:00Z</time></trkpt><trkpt lat="45.67080377673599" lon="9.42322485080769"><ele>251.0</ele><time>2026-04-07T08:31:01Z</time></trkpt><trkpt lat="45.67072808885926" lon="9.423170873467654"><ele>251.00000000000003</ele><time>2026-04-07T08:31:02Z</time></trkpt><trkpt lat="45.67065141899156" lon="9.423124414450163"><ele>251.0</ele><time>2026-04-07T08:31:03Z</time></trkpt><trkpt lat="45.67057671680419" lon="9.423076187153592"><ele>251.00000000000003</ele><time>2026-04-07T08:31:04Z</time></trkpt><trkpt lat="45.670503821971955" lon="9.42303019927984"><ele>251.0</ele><time>2026-04-07T08:31:05Z</time></trkpt><trkpt lat="45.67042947868002" lon="9.422980047748744"><ele>251.0</ele><time>2026-04-07T08:31:06Z</time></trkpt><trkpt lat="45.67035547246077" lon="9.422931753560421"><ele>251.0</ele><time>2026-04-07T08:31:07Z</time></trkpt><trkpt lat="45.67028084458861" lon="9.422879445742772"><ele>251.00000000000003</ele><time>2026-04-07T08:31:08Z</time></trkpt><trkpt lat="45.670203821648194" lon="9.422833373702897"><ele>251.0</ele><time>2026-04-07T08:31:09Z</time></trkpt><trkpt lat="45.67012898799856" lon="9.4227857035422"><ele>250.83333333333334</ele><time>2026-04-07T08:31:10Z</time></trkpt><trkpt lat="45.670054579392435" lon="9.422736690242175"><ele>250.66666666666669</ele><time>2026-04-07T08:31:11Z</time></trkpt><trkpt lat="45.66997966904452" lon="9.422687050603404"><ele>250.5</ele><time>2026-04-07T08:31:12Z</time></trkpt><trkpt lat="45.66990239876958" lon="9.422637806913952"><ele>250.33333333333331</ele><time>2026-04-07T08:31:13Z</time></trkpt><trkpt lat="45.66982619936199" lon="9.422590305404809"><ele>250.16666666666666</ele><time>2026-04-07T08:31:14Z</time></trkpt><trkpt lat="45.66975079388676" lon="9.42253999426726"><ele>250.0</ele><time>2026-04-07T08:31:15Z</time></trkpt><trkpt lat="45.66967623064523" lon="9.42249000877266"><ele>249.99999999999997</ele><time>2026-04-07T08:31:16Z</time></trkpt><trkpt lat="45.66959951945927" lon="9.422443783743125"><ele>250.0</ele><time>2026-04-07T08:31:17Z</time></trkpt><trkpt lat="45.66952418603209" lon="9.422392929663461"><ele>250.0</ele><time>2026-04-07T08:31:18Z</time></trkpt><trkpt lat="45.6694487778149" lon="9.42234370030677"><ele>250.0</ele><time>2026-04-07T08:31:19Z</time></trkpt><trkpt lat="45.669373046577235" lon="9.42229322006192"><ele>249.99999999999997</ele><time>2026-04-07T08:31:20Z</time></trkpt><trkpt lat="45.6692968102681" lon="9.422245729978018"><ele>250.0</ele><time>2026-04-07T08:31:21Z</time></trkpt><trkpt lat="45.66921978953969" lon="9.422196617130036"><ele>249.83333333333331</ele><time>2026-04-07T08:31:22Z</time></trkpt><trkpt lat="45.66914258175919" lon="9.422148738315268"><ele>249.66666666666666</ele><time>2026-04-07T08:31:23Z</time></trkpt><trkpt lat="45.66906646353985" lon="9.422099405518356"><ele>249.5</ele><time>2026-04-07T08:31:24Z</time></trkpt><trkpt lat="45.668990242549526" lon="9.42205093401908"><ele>249.33333333333331</ele><time>2026-04-07T08:31:25Z</time></trkpt><trkpt lat="45.668914097832925" lon="9.422000286156912"><ele>249.16666666666666</ele><time>2026-04-07T08:31:26Z</time></trkpt><trkpt lat="45.66883775836985" lon="9.421952392300243"><ele>249.0</ele><time>2026-04-07T08:31:27Z</time></trkpt><trkpt lat="45.668762589163116" lon="9.421905779289247"><ele>249.0</ele><time>2026-04-07T08:31:28Z</time></trkpt><trkpt lat="45.668687735198205" lon="9.421858315260257"><ele>249.0</ele><time>2026-04-07T08:31:29Z</time></trkpt><trkpt lat="45.66861309273134" lon="9.421809408690693"><ele>249.0</ele><time>2026-04-07T08:31:30Z</time></trkpt><trkpt lat="45.66853712466374" lon="9.421763534730223"><ele>249.0</ele><time>2026-04-07T08:31:31Z</time></trkpt><trkpt lat="45.668461070334395" lon="9.42171317289946"><ele>249.0</ele><time>2026-04-07T08:31:32Z</time></trkpt><trkpt lat="45.66838568647157" lon="9.421663054143934"><ele>249.0</ele><time>2026-04-07T08:31:33Z</time></trkpt><trkpt lat="45.66831136598479" lon="9.421615041801838"><ele>249.33333333333334</ele><time>2026-04-07T08:31:34Z</time></trkpt><trkpt lat="45.668236793279306" lon="9.421564959014505"><ele>249.66666666666669</ele><time>2026-04-07T08:31:35Z</time></trkpt><trkpt lat="45.66816037961395" lon="9.421516949247902"><ele>250.0</ele><time>2026-04-07T08:31:36Z</time></trkpt><trkpt lat="45.66808417136422" lon="9.421469069487053"><ele>250.33333333333334</ele><time>2026-04-07T08:31:37Z</time></trkpt><trkpt lat="45.6680088462943" lon="9.421422097085678"><ele>250.66666666666669</ele><time>2026-04-07T08:31:38Z</time></trkpt><trkpt lat="45.66793307694402" lon="9.421374244066634"><ele>251.0</ele><time>2026-04-07T08:31:39Z</time></trkpt><trkpt lat="45.66785854217582" lon="9.421326064378983"><ele>250.83333333333334</ele><time>2026-04-07T08:31:40Z</time></trkpt><trkpt lat="45.667783558686246" lon="9.421278136393566"><ele>250.66666666666669</ele><time>2026-04-07T08:31:41Z</time></trkpt><trkpt lat="45.66770936617638" lon="9.421233235286168"><ele>250.5</ele><time>2026-04-07T08:31:42Z</time></trkpt><trkpt lat="45.66763611568996" lon="9.4211849403215"><ele>250.33333333333331</ele><time>2026-04-07T08:31:43Z</time></trkpt><trkpt lat="45.66756360828514" lon="9.421137124878637"><ele>250.16666666666666</ele><time>2026-04-07T08:31:44Z</time></trkpt><trkpt lat="45.667490216881056" lon="9.42109203259382"><ele>250.0</ele><time>2026-04-07T08:31:45Z</time></trkpt><trkpt lat="45.667417261522694" lon="9.421046302830323"><ele>249.66666666666666</ele><time>2026-04-07T08:31:46Z</time></trkpt><trkpt lat="45.66734479960713" lon="9.420999658847919"><ele>249.33333333333331</ele><time>2026-04-07T08:31:47Z</time></trkpt><trkpt lat="45.667271417909994" lon="9.420951000808206"><ele>249.0</ele><time>2026-04-07T08:31:48Z</time></trkpt><trkpt lat="45.667201035252084" lon="9.420903043325229"><ele>248.66666666666669</ele><time>2026-04-07T08:31:49Z</time></trkpt><trkpt lat="45.667128705875214" lon="9.420857899298454"><ele>248.33333333333334</ele><time>2026-04-07T08:31:50Z</time></trkpt><trkpt lat="45.667058680645084" lon="9.420814046906324"><ele>248.0</ele><time>2026-04-07T08:31:51Z</time></trkpt><trkpt lat="45.66699168310811" lon="9.420770555435851"><ele>247.71428571428572</ele><time>2026-04-07T08:31:52Z</time></trkpt><trkpt lat="45.66692304955902" lon="9.42072721027684"><ele>247.42857142857144</ele><time>2026-04-07T08:31:53Z</time></trkpt><trkpt lat="45.666854432765284" lon="9.420685653701673"><ele>247.14285714285717</ele><time>2026-04-07T08:31:54Z</time></trkpt><trkpt lat="45.66678632485149" lon="9.420640229538645"><ele>246.8571428571429</ele><time>2026-04-07T08:31:55Z</time></trkpt><trkpt lat="45.66671733844236" lon="9.42059960305213"><ele>246.57142857142858</ele><time>2026-04-07T08:31:56Z</time></trkpt><trkpt lat="45.66664905270568" lon="9.420554505513548"><ele>246.28571428571433</ele><time>2026-04-07T08:31:57Z</time></trkpt><trkpt lat="45.66658008439472" lon="9.42051503259073"><ele>246.00000000000003</ele><time>2026-04-07T08:31:58Z</time></trkpt><trkpt lat="45.66651016931557" lon="9.42047187822322"><ele>246.16666666666666</ele><time>2026-04-07T08:31:59Z</time></trkpt><trkpt lat="45.666441549544786" lon="9.420426875686358"><ele>246.33333333333331</ele><time>2026-04-07T08:32:00Z</time></trkpt><trkpt lat="45.666372540695" lon="9.420380935795142"><ele>246.5</ele><time>2026-04-07T08:32:01Z</time></trkpt><trkpt lat="45.66630389078044" lon="9.42033917252961"><ele>246.66666666666666</ele><time>2026-04-07T08:32:02Z</time></trkpt><trkpt lat="45.66623401202722" lon="9.420297542705148"><ele>246.83333333333331</ele><time>2026-04-07T08:32:03Z</time></trkpt><trkpt lat="45.66616798826185" lon="9.42024799130951"><ele>247.0</ele><time>2026-04-07T08:32:04Z</time></trkpt><trkpt lat="45.66610110449533" lon="9.420202394429783"><ele>247.0</ele><time>2026-04-07T08:32:05Z</time></trkpt><trkpt lat="45.66603283994276" lon="9.420159041713127"><ele>247.0</ele><time>2026-04-07T08:32:06Z</time></trkpt><trkpt lat="45.66596506516469" lon="9.420118117198056"><ele>247.0</ele><time>2026-04-07T08:32:07Z</time></trkpt><trkpt lat="45.665898882134144" lon="9.420077372728471"><ele>247.0</ele><time>2026-04-07T08:32:08Z</time></trkpt><trkpt lat="45.66583189151647" lon="9.420039313658007"><ele>247.0</ele><time>2026-04-07T08:32:09Z</time></trkpt><trkpt lat="45.66576566315767" lon="9.419996040954473"><ele>247.0</ele><time>2026-04-07T08:32:10Z</time></trkpt><trkpt lat="45.66570092279658" lon="9.419957221973807"><ele>247.0</ele><time>2026-04-07T08:32:11Z</time></trkpt><trkpt lat="45.66563455255057" lon="9.419919635319957"><ele>246.99999999999997</ele><time>2026-04-07T08:32:12Z</time></trkpt><trkpt lat="45.665567867671896" lon="9.419884143870318"><ele>247.0</ele><time>2026-04-07T08:32:13Z</time></trkpt><trkpt lat="45.665503936639745" lon="9.419846236726329"><ele>247.0</ele><time>2026-04-07T08:32:14Z</time></trkpt><trkpt lat="45.665441220696145" lon="9.419810084702046"><ele>247.0</ele><time>2026-04-07T08:32:15Z</time></trkpt><trkpt lat="45.66533302048314" lon="9.419752895126209"><ele>246.99999999999997</ele><time>2026-04-07T08:32:17Z</time></trkpt><trkpt lat="45.66523315570815" lon="9.419670909897002"><ele>247.0</ele><time>2026-04-07T08:32:19Z</time></trkpt><trkpt lat="45.66511952343243" lon="9.419586305274903"><ele>246.71428571428572</ele><time>2026-04-07T08:32:21Z</time></trkpt><trkpt lat="45.66506076652975" lon="9.41954366328891"><ele>246.42857142857142</ele><time>2026-04-07T08:32:22Z</time></trkpt><trkpt lat="45.66499962317479" lon="9.419494444781902"><ele>246.14285714285714</ele><time>2026-04-07T08:32:23Z</time></trkpt><trkpt lat="45.66493575007598" lon="9.419448737639936"><ele>245.85714285714286</ele><time>2026-04-07T08:32:24Z</time></trkpt><trkpt lat="45.664877834845825" lon="9.419380174925578"><ele>245.57142857142856</ele><time>2026-04-07T08:32:25Z</time></trkpt><trkpt lat="45.664824333027354" lon="9.419311734076336"><ele>245.28571428571428</ele><time>2026-04-07T08:32:26Z</time></trkpt><trkpt lat="45.66476290200599" lon="9.419261811859526"><ele>245.0</ele><time>2026-04-07T08:32:27Z</time></trkpt><trkpt lat="45.664697845160745" lon="9.419215213299086"><ele>245.0</ele><time>2026-04-07T08:32:28Z</time></trkpt><trkpt lat="45.66463651710101" lon="9.419166544042548"><ele>245.0</ele><time>2026-04-07T08:32:29Z</time></trkpt><trkpt lat="45.664574477058515" lon="9.419119453289255"><ele>245.0</ele><time>2026-04-07T08:32:30Z</time></trkpt><trkpt lat="45.66451115744678" lon="9.41907195461122"><ele>245.0</ele><time>2026-04-07T08:32:31Z</time></trkpt><trkpt lat="45.664450349970465" lon="9.41902363853428"><ele>245.0</ele><time>2026-04-07T08:32:32Z</time></trkpt><trkpt lat="45.66439221678036" lon="9.418976166456424"><ele>245.0</ele><time>2026-04-07T08:32:33Z</time></trkpt><trkpt lat="45.66433165188104" lon="9.418933575133448"><ele>245.0</ele><time>2026-04-07T08:32:34Z</time></trkpt><trkpt lat="45.66427212974293" lon="9.418891445800636"><ele>244.85714285714286</ele><time>2026-04-07T08:32:35Z</time></trkpt><trkpt lat="45.66421277389029" lon="9.41884455382638"><ele>244.71428571428572</ele><time>2026-04-07T08:32:36Z</time></trkpt><trkpt lat="45.66415451519255" lon="9.418800295437613"><ele>244.57142857142856</ele><time>2026-04-07T08:32:37Z</time></trkpt><trkpt lat="45.66409626505066" lon="9.418756032425806"><ele>244.42857142857142</ele><time>2026-04-07T08:32:38Z</time></trkpt><trkpt lat="45.664036550685616" lon="9.418708487999716"><ele>244.28571428571428</ele><time>2026-04-07T08:32:39Z</time></trkpt><trkpt lat="45.663976520034716" lon="9.418661739204474"><ele>244.1428571428571</ele><time>2026-04-07T08:32:40Z</time></trkpt><trkpt lat="45.66391711789927" lon="9.418617584978938"><ele>243.99999999999997</ele><time>2026-04-07T08:32:41Z</time></trkpt><trkpt lat="45.663856223373664" lon="9.418572142565761"><ele>243.85714285714283</ele><time>2026-04-07T08:32:42Z</time></trkpt><trkpt lat="45.66379601767849" lon="9.418527434916385"><ele>243.71428571428572</ele><time>2026-04-07T08:32:43Z</time></trkpt><trkpt lat="45.66373721236773" lon="9.418482387403708"><ele>243.57142857142856</ele><time>2026-04-07T08:32:44Z</time></trkpt><trkpt lat="45.663678522993195" lon="9.418437479635298"><ele>243.42857142857142</ele><time>2026-04-07T08:32:45Z</time></trkpt><trkpt lat="45.663617997174036" lon="9.418393725944718"><ele>243.28571428571428</ele><time>2026-04-07T08:32:46Z</time></trkpt><trkpt lat="45.6635573239925" lon="9.41835053128612"><ele>243.14285714285714</ele><time>2026-04-07T08:32:47Z</time></trkpt><trkpt lat="45.663496781678255" lon="9.4183026982482"><ele>243.0</ele><time>2026-04-07T08:32:48Z</time></trkpt><trkpt lat="45.663432285504065" lon="9.418260775387305"><ele>243.0</ele><time>2026-04-07T08:32:49Z</time></trkpt><trkpt lat="45.66337106320657" lon="9.418218816387116"><ele>243.0</ele><time>2026-04-07T08:32:50Z</time></trkpt><trkpt lat="45.66330828619444" lon="9.41818171226574"><ele>243.0</ele><time>2026-04-07T08:32:51Z</time></trkpt><trkpt lat="45.663244021256745" lon="9.4181443847458"><ele>243.0</ele><time>2026-04-07T08:32:52Z</time></trkpt><trkpt lat="45.663182680119995" lon="9.418105820747252"><ele>243.0</ele><time>2026-04-07T08:32:53Z</time></trkpt><trkpt lat="45.663120453008545" lon="9.418068041769079"><ele>243.0</ele><time>2026-04-07T08:32:54Z</time></trkpt><trkpt lat="45.66305518003442" lon="9.418029544054763"><ele>243.0</ele><time>2026-04-07T08:32:55Z</time></trkpt><trkpt lat="45.66299310718951" lon="9.417991048760559"><ele>243.0</ele><time>2026-04-07T08:32:56Z</time></trkpt><trkpt lat="45.66293101818728" lon="9.41795087896782"><ele>243.0</ele><time>2026-04-07T08:32:57Z</time></trkpt><trkpt lat="45.66287231479155" lon="9.417914082559026"><ele>243.0</ele><time>2026-04-07T08:32:58Z</time></trkpt><trkpt lat="45.66276459559567" lon="9.417842158519436"><ele>243.0</ele><time>2026-04-07T08:33:00Z</time></trkpt><trkpt lat="45.66266257787764" lon="9.41779599386383"><ele>243.0</ele><time>2026-04-07T08:33:02Z</time></trkpt><trkpt lat="45.66258194294596" lon="9.417790511878094"><ele>243.0</ele><time>2026-04-07T08:33:04Z</time></trkpt><trkpt lat="45.66248128618433" lon="9.417718919916597"><ele>243.16666666666666</ele><time>2026-04-07T08:33:06Z</time></trkpt><trkpt lat="45.66236903144878" lon="9.417632853193014"><ele>243.33333333333331</ele><time>2026-04-07T08:33:08Z</time></trkpt><trkpt lat="45.66230983922585" lon="9.41758670243452"><ele>243.5</ele><time>2026-04-07T08:33:09Z</time></trkpt><trkpt lat="45.662250351975054" lon="9.417536997777233"><ele>243.66666666666666</ele><time>2026-04-07T08:33:10Z</time></trkpt><trkpt lat="45.662194630442045" lon="9.417482458469326"><ele>243.83333333333331</ele><time>2026-04-07T08:33:11Z</time></trkpt><trkpt lat="45.662147739960126" lon="9.417407094906304"><ele>244.0</ele><time>2026-04-07T08:33:12Z</time></trkpt><trkpt lat="45.662103743568395" lon="9.417334601342462"><ele>244.0</ele><time>2026-04-07T08:33:13Z</time></trkpt><trkpt lat="45.662051485516294" lon="9.417281609461003"><ele>243.99999999999997</ele><time>2026-04-07T08:33:14Z</time></trkpt><trkpt lat="45.66200028554174" lon="9.417225181503136"><ele>243.99999999999997</ele><time>2026-04-07T08:33:15Z</time></trkpt><trkpt lat="45.661901242029174" lon="9.417112726005387"><ele>244.0</ele><time>2026-04-07T08:33:17Z</time></trkpt><trkpt lat="45.66180997528775" lon="9.417009095149902"><ele>244.0</ele><time>2026-04-07T08:33:19Z</time></trkpt><trkpt lat="45.66171217939826" lon="9.416900138462394"><ele>244.2</ele><time>2026-04-07T08:33:21Z</time></trkpt><trkpt lat="45.661618182231706" lon="9.416787066543002"><ele>244.39999999999998</ele><time>2026-04-07T08:33:23Z</time></trkpt><trkpt lat="45.661522961052285" lon="9.416680344199566"><ele>244.6</ele><time>2026-04-07T08:33:25Z</time></trkpt><trkpt lat="45.661420681332956" lon="9.416579001722726"><ele>244.8</ele><time>2026-04-07T08:33:27Z</time></trkpt><trkpt lat="45.66137047752139" lon="9.416522453626088"><ele>245.0</ele><time>2026-04-07T08:33:28Z</time></trkpt><trkpt lat="45.661269555082114" lon="9.416421734896165"><ele>245.0</ele><time>2026-04-07T08:33:30Z</time></trkpt><trkpt lat="45.66121592458132" lon="9.41637343869956"><ele>245.0</ele><time>2026-04-07T08:33:31Z</time></trkpt><trkpt lat="45.66111739867202" lon="9.416274132150875"><ele>245.0</ele><time>2026-04-07T08:33:33Z</time></trkpt><trkpt lat="45.66101589647281" lon="9.416187406504088"><ele>245.0</ele><time>2026-04-07T08:33:35Z</time></trkpt><trkpt lat="45.66092461395089" lon="9.416093596513326"><ele>245.0</ele><time>2026-04-07T08:33:37Z</time></trkpt><trkpt lat="45.66082229766444" lon="9.415993890238036"><ele>245.0</ele><time>2026-04-07T08:33:39Z</time></trkpt><trkpt lat="45.66076817521467" lon="9.415947823449686"><ele>245.0</ele><time>2026-04-07T08:33:40Z</time></trkpt><trkpt lat="45.66066124096009" lon="9.415863890647127"><ele>245.0</ele><time>2026-04-07T08:33:42Z</time></trkpt><trkpt lat="45.660548523691176" lon="9.415784292019369"><ele>245.0</ele><time>2026-04-07T08:33:44Z</time></trkpt><trkpt lat="45.66043366619378" lon="9.415729808936767"><ele>245.0</ele><time>2026-04-07T08:33:46Z</time></trkpt><trkpt lat="45.66031206361151" lon="9.415694064474986"><ele>244.2</ele><time>2026-04-07T08:33:48Z</time></trkpt><trkpt lat="45.660189194566605" lon="9.415664215596909"><ele>243.4</ele><time>2026-04-07T08:33:50Z</time></trkpt><trkpt lat="45.66006639294301" lon="9.41564968973841"><ele>242.60000000000002</ele><time>2026-04-07T08:33:52Z</time></trkpt><trkpt lat="45.66000170008705" lon="9.415640770030702"><ele>241.8</ele><time>2026-04-07T08:33:53Z</time></trkpt><trkpt lat="45.659938086515936" lon="9.415631998139418"><ele>241.0</ele><time>2026-04-07T08:33:54Z</time></trkpt><trkpt lat="45.65981463599442" lon="9.415616631772671"><ele>241.0</ele><time>2026-04-07T08:33:56Z</time></trkpt><trkpt lat="45.659750571624336" lon="9.415613567405028"><ele>241.00000000000003</ele><time>2026-04-07T08:33:57Z</time></trkpt><trkpt lat="45.6596853726395" lon="9.415609904728388"><ele>241.00000000000003</ele><time>2026-04-07T08:33:58Z</time></trkpt><trkpt lat="45.65956625839058" lon="9.415651391242301"><ele>241.0</ele><time>2026-04-07T08:34:00Z</time></trkpt><trkpt lat="45.659441140008695" lon="9.415754636656317"><ele>241.0</ele><time>2026-04-07T08:34:01Z</time></trkpt><trkpt lat="45.659342892428754" lon="9.415709172599994"><ele>241.0</ele><time>2026-04-07T08:34:03Z</time></trkpt><trkpt lat="45.659237658926735" lon="9.415695694247797"><ele>241.0</ele><time>2026-04-07T08:34:05Z</time></trkpt><trkpt lat="45.65916095639098" lon="9.415440267248691"><ele>241.0</ele><time>2026-04-07T08:34:06Z</time></trkpt><trkpt lat="45.65909886032757" lon="9.41529986744019"><ele>241.0</ele><time>2026-04-07T08:34:08Z</time></trkpt><trkpt lat="45.65904545828011" lon="9.415241869440763"><ele>241.66666666666666</ele><time>2026-04-07T08:34:09Z</time></trkpt><trkpt lat="45.65894114681141" lon="9.415142864505123"><ele>242.33333333333331</ele><time>2026-04-07T08:34:11Z</time></trkpt><trkpt lat="45.658833816208166" lon="9.415057857528959"><ele>243.0</ele><time>2026-04-07T08:34:13Z</time></trkpt><trkpt lat="45.6587792504699" lon="9.415003217159166"><ele>243.66666666666669</ele><time>2026-04-07T08:34:14Z</time></trkpt><trkpt lat="45.65872841387787" lon="9.414949966444166"><ele>244.33333333333334</ele><time>2026-04-07T08:34:15Z</time></trkpt><trkpt lat="45.65867516479208" lon="9.41489467647087"><ele>245.0</ele><time>2026-04-07T08:34:16Z</time></trkpt><trkpt lat="45.65862344977047" lon="9.414841563313908"><ele>245.0</ele><time>2026-04-07T08:34:17Z</time></trkpt><trkpt lat="45.658572309866216" lon="9.414787614235882"><ele>245.0</ele><time>2026-04-07T08:34:18Z</time></trkpt><trkpt lat="45.65851882958446" lon="9.414737811764567"><ele>245.0</ele><time>2026-04-07T08:34:19Z</time></trkpt><trkpt lat="45.658411610234246" lon="9.414638354344138"><ele>245.0</ele><time>2026-04-07T08:34:21Z</time></trkpt><trkpt lat="45.658358886537776" lon="9.414586401236713"><ele>245.0</ele><time>2026-04-07T08:34:22Z</time></trkpt><trkpt lat="45.658307478293224" lon="9.414534334325337"><ele>245.0</ele><time>2026-04-07T08:34:23Z</time></trkpt><trkpt lat="45.658254832704415" lon="9.414484232850276"><ele>245.0</ele><time>2026-04-07T08:34:24Z</time></trkpt><trkpt lat="45.65815316162031" lon="9.414385515566902"><ele>245.0</ele><time>2026-04-07T08:34:26Z</time></trkpt><trkpt lat="45.65805138701986" lon="9.414290149018482"><ele>245.0</ele><time>2026-04-07T08:34:28Z</time></trkpt><trkpt lat="45.657951739192754" lon="9.414186369447375"><ele>245.0</ele><time>2026-04-07T08:34:30Z</time></trkpt><trkpt lat="45.657896006846435" lon="9.41413539909857"><ele>245.0</ele><time>2026-04-07T08:34:31Z</time></trkpt><trkpt lat="45.65784197395369" lon="9.414085270287519"><ele>245.0</ele><time>2026-04-07T08:34:32Z</time></trkpt><trkpt lat="45.657746189751435" lon="9.41398939923097"><ele>245.0</ele><time>2026-04-07T08:34:34Z</time></trkpt><trkpt lat="45.65765168950309" lon="9.41388728678798"><ele>245.0</ele><time>2026-04-07T08:34:36Z</time></trkpt><trkpt lat="45.657551485944474" lon="9.413783618544711"><ele>245.0</ele><time>2026-04-07T08:34:38Z</time></trkpt><trkpt lat="45.65749853008671" lon="9.413734869232924"><ele>245.0</ele><time>2026-04-07T08:34:39Z</time></trkpt><trkpt lat="45.65739303656371" lon="9.413638523340213"><ele>245.0</ele><time>2026-04-07T08:34:41Z</time></trkpt><trkpt lat="45.65733850746172" lon="9.413589496788722"><ele>244.8</ele><time>2026-04-07T08:34:42Z</time></trkpt><trkpt lat="45.657229092057456" lon="9.413499755785752"><ele>244.6</ele><time>2026-04-07T08:34:44Z</time></trkpt><trkpt lat="45.65717291744178" lon="9.413456066469818"><ele>244.39999999999998</ele><time>2026-04-07T08:34:45Z</time></trkpt><trkpt lat="45.65705523076212" lon="9.41338432031024"><ele>244.2</ele><time>2026-04-07T08:34:47Z</time></trkpt><trkpt lat="45.656938159559175" lon="9.413324739720021"><ele>244.0</ele><time>2026-04-07T08:34:49Z</time></trkpt><trkpt lat="45.65681712617079" lon="9.41326997028738"><ele>243.99999999999997</ele><time>2026-04-07T08:34:51Z</time></trkpt><trkpt lat="45.65675485988599" lon="9.41324699307437"><ele>244.0</ele><time>2026-04-07T08:34:52Z</time></trkpt><trkpt lat="45.65669265631547" lon="9.41322151638839"><ele>243.99999999999997</ele><time>2026-04-07T08:34:53Z</time></trkpt><trkpt lat="45.65663079812358" lon="9.413188001249221"><ele>243.99999999999997</ele><time>2026-04-07T08:34:54Z</time></trkpt><trkpt lat="45.65656518592056" lon="9.413166442103392"><ele>244.0</ele><time>2026-04-07T08:34:55Z</time></trkpt><trkpt lat="45.65649915671629" lon="9.413144742780974"><ele>243.99999999999997</ele><time>2026-04-07T08:34:56Z</time></trkpt><trkpt lat="45.65643234116785" lon="9.413122778452854"><ele>243.99999999999997</ele><time>2026-04-07T08:34:57Z</time></trkpt><trkpt lat="45.65636292962595" lon="9.413100435985564"><ele>243.99999999999997</ele><time>2026-04-07T08:34:58Z</time></trkpt><trkpt lat="45.65629558112433" lon="9.413069413907412"><ele>244.0</ele><time>2026-04-07T08:34:59Z</time></trkpt><trkpt lat="45.656225481464055" lon="9.413043716247474"><ele>243.99999999999997</ele><time>2026-04-07T08:35:00Z</time></trkpt><trkpt lat="45.656155891440235" lon="9.413014266602351"><ele>243.99999999999997</ele><time>2026-04-07T08:35:01Z</time></trkpt><trkpt lat="45.6560855081478" lon="9.41298732467265"><ele>244.0</ele><time>2026-04-07T08:35:02Z</time></trkpt><trkpt lat="45.65601554876233" lon="9.41296130218551"><ele>243.99999999999997</ele><time>2026-04-07T08:35:03Z</time></trkpt><trkpt lat="45.655946750107624" lon="9.412935701173929"><ele>243.99999999999997</ele><time>2026-04-07T08:35:04Z</time></trkpt><trkpt lat="45.65587768139906" lon="9.412912131412972"><ele>243.99999999999997</ele><time>2026-04-07T08:35:05Z</time></trkpt><trkpt lat="45.6558154727537" lon="9.412888522341532"><ele>244.0</ele><time>2026-04-07T08:35:06Z</time></trkpt><trkpt lat="45.65575349966451" lon="9.412866465955267"><ele>243.99999999999997</ele><time>2026-04-07T08:35:07Z</time></trkpt><trkpt lat="45.655637030390615" lon="9.412819768518192"><ele>243.99999999999997</ele><time>2026-04-07T08:35:09Z</time></trkpt><trkpt lat="45.655576190505855" lon="9.412792710549041"><ele>244.0</ele><time>2026-04-07T08:35:10Z</time></trkpt><trkpt lat="45.65551460780371" lon="9.412760135750865"><ele>243.99999999999997</ele><time>2026-04-07T08:35:11Z</time></trkpt><trkpt lat="45.65545278260555" lon="9.412723035042163"><ele>243.99999999999997</ele><time>2026-04-07T08:35:12Z</time></trkpt><trkpt lat="45.65539123193719" lon="9.412675079692171"><ele>243.99999999999997</ele><time>2026-04-07T08:35:13Z</time></trkpt><trkpt lat="45.65532640410909" lon="9.412628327331007"><ele>244.0</ele><time>2026-04-07T08:35:14Z</time></trkpt><trkpt lat="45.65526405860589" lon="9.412574950500074"><ele>243.99999999999997</ele><time>2026-04-07T08:35:15Z</time></trkpt><trkpt lat="45.65520596209122" lon="9.412516958265476"><ele>243.99999999999997</ele><time>2026-04-07T08:35:16Z</time></trkpt><trkpt lat="45.655146532241915" lon="9.412453357007754"><ele>244.0</ele><time>2026-04-07T08:35:17Z</time></trkpt><trkpt lat="45.655088353784656" lon="9.412393050733764"><ele>243.99999999999997</ele><time>2026-04-07T08:35:18Z</time></trkpt><trkpt lat="45.655031286553815" lon="9.412326417881667"><ele>243.99999999999997</ele><time>2026-04-07T08:35:19Z</time></trkpt><trkpt lat="45.65497686874386" lon="9.412256526059712"><ele>243.99999999999997</ele><time>2026-04-07T08:35:20Z</time></trkpt><trkpt lat="45.654921512904146" lon="9.41218694573227"><ele>244.0</ele><time>2026-04-07T08:35:21Z</time></trkpt><trkpt lat="45.65486731455929" lon="9.41211764092782"><ele>243.99999999999997</ele><time>2026-04-07T08:35:22Z</time></trkpt><trkpt lat="45.65481562367966" lon="9.412045201948557"><ele>243.99999999999997</ele><time>2026-04-07T08:35:23Z</time></trkpt><trkpt lat="45.65476191791926" lon="9.411976346211297"><ele>244.0</ele><time>2026-04-07T08:35:24Z</time></trkpt><trkpt lat="45.65471015609784" lon="9.411914771526707"><ele>243.99999999999997</ele><time>2026-04-07T08:35:25Z</time></trkpt><trkpt lat="45.65465657547684" lon="9.41184738918471"><ele>243.99999999999997</ele><time>2026-04-07T08:35:26Z</time></trkpt><trkpt lat="45.6545992378348" lon="9.411780449125152"><ele>243.99999999999997</ele><time>2026-04-07T08:35:27Z</time></trkpt><trkpt lat="45.65454332573236" lon="9.4117129172775"><ele>244.0</ele><time>2026-04-07T08:35:28Z</time></trkpt><trkpt lat="45.65448864126541" lon="9.411644643653123"><ele>244.0</ele><time>2026-04-07T08:35:29Z</time></trkpt><trkpt lat="45.65443115229264" lon="9.411567718941866"><ele>244.0</ele><time>2026-04-07T08:35:30Z</time></trkpt><trkpt lat="45.65437759956548" lon="9.411494836427865"><ele>243.99999999999997</ele><time>2026-04-07T08:35:31Z</time></trkpt><trkpt lat="45.65432472217209" lon="9.41141121049733"><ele>244.0</ele><time>2026-04-07T08:35:32Z</time></trkpt><trkpt lat="45.6542722019403" lon="9.411328704164523"><ele>243.99999999999997</ele><time>2026-04-07T08:35:33Z</time></trkpt><trkpt lat="45.65421885594175" lon="9.41124944503818"><ele>244.0</ele><time>2026-04-07T08:35:34Z</time></trkpt><trkpt lat="45.654167090625805" lon="9.411166941135873"><ele>244.0</ele><time>2026-04-07T08:35:35Z</time></trkpt><trkpt lat="45.654117207207726" lon="9.411076119938295"><ele>244.0</ele><time>2026-04-07T08:35:36Z</time></trkpt><trkpt lat="45.65406736595526" lon="9.410989273977233"><ele>243.99999999999997</ele><time>2026-04-07T08:35:37Z</time></trkpt><trkpt lat="45.654015937936535" lon="9.410908625916935"><ele>244.0</ele><time>2026-04-07T08:35:38Z</time></trkpt><trkpt lat="45.65396572800348" lon="9.410828065203415"><ele>243.99999999999997</ele><time>2026-04-07T08:35:39Z</time></trkpt><trkpt lat="45.65391337957404" lon="9.410748147593102"><ele>244.0</ele><time>2026-04-07T08:35:40Z</time></trkpt><trkpt lat="45.65385722681016" lon="9.410672747659804"><ele>244.0</ele><time>2026-04-07T08:35:41Z</time></trkpt><trkpt lat="45.65379546125924" lon="9.410601404885975"><ele>244.0</ele><time>2026-04-07T08:35:42Z</time></trkpt><trkpt lat="45.65373775915797" lon="9.410533971242897"><ele>243.99999999999997</ele><time>2026-04-07T08:35:43Z</time></trkpt><trkpt lat="45.653683165286104" lon="9.410472902976544"><ele>244.0</ele><time>2026-04-07T08:35:44Z</time></trkpt><trkpt lat="45.65359179147586" lon="9.410369014193954"><ele>243.99999999999997</ele><time>2026-04-07T08:35:46Z</time></trkpt><trkpt lat="45.65350488027222" lon="9.410276179306678"><ele>244.0</ele><time>2026-04-07T08:35:48Z</time></trkpt><trkpt lat="45.653426299884536" lon="9.410192167357792"><ele>244.0</ele><time>2026-04-07T08:35:50Z</time></trkpt><trkpt lat="45.653372809436895" lon="9.410132027449508"><ele>244.0</ele><time>2026-04-07T08:35:52Z</time></trkpt><trkpt lat="45.65330730349276" lon="9.410056481158952"><ele>243.99999999999997</ele><time>2026-04-07T08:35:56Z</time></trkpt><trkpt lat="45.65328150394741" lon="9.409952562313707"><ele>244.0</ele><time>2026-04-07T08:35:58Z</time></trkpt><trkpt lat="45.65319825450063" lon="9.409882888711842"><ele>244.0</ele><time>2026-04-07T08:36:00Z</time></trkpt><trkpt lat="45.6531082947607" lon="9.409824234308024"><ele>244.0</ele><time>2026-04-07T08:36:02Z</time></trkpt><trkpt lat="45.653019692302074" lon="9.40974752599986"><ele>244.0</ele><time>2026-04-07T08:36:04Z</time></trkpt><trkpt lat="45.652923548796295" lon="9.409645559560762"><ele>244.0</ele><time>2026-04-07T08:36:06Z</time></trkpt><trkpt lat="45.652819365895375" lon="9.409535144532137"><ele>244.1428571428571</ele><time>2026-04-07T08:36:08Z</time></trkpt><trkpt lat="45.65276257596815" lon="9.409477393391246"><ele>244.28571428571428</ele><time>2026-04-07T08:36:09Z</time></trkpt><trkpt lat="45.6527083016909" lon="9.409412868748808"><ele>244.42857142857142</ele><time>2026-04-07T08:36:10Z</time></trkpt><trkpt lat="45.65265231378205" lon="9.409351808740013"><ele>244.57142857142856</ele><time>2026-04-07T08:36:11Z</time></trkpt><trkpt lat="45.652593056609994" lon="9.409293100998937"><ele>244.71428571428572</ele><time>2026-04-07T08:36:12Z</time></trkpt><trkpt lat="45.65253349505791" lon="9.4092300197584"><ele>244.85714285714286</ele><time>2026-04-07T08:36:13Z</time></trkpt><trkpt lat="45.65247575127794" lon="9.409171073399603"><ele>245.0</ele><time>2026-04-07T08:36:14Z</time></trkpt><trkpt lat="45.65241998695578" lon="9.40911023433945"><ele>245.0</ele><time>2026-04-07T08:36:15Z</time></trkpt><trkpt lat="45.6523626181489" lon="9.409048426846661"><ele>245.0</ele><time>2026-04-07T08:36:16Z</time></trkpt><trkpt lat="45.652304935992845" lon="9.408987478824434"><ele>245.0</ele><time>2026-04-07T08:36:17Z</time></trkpt><trkpt lat="45.6522460183034" lon="9.4089271994722"><ele>245.0</ele><time>2026-04-07T08:36:18Z</time></trkpt><trkpt lat="45.65218436447062" lon="9.408863970873647"><ele>245.0</ele><time>2026-04-07T08:36:19Z</time></trkpt><trkpt lat="45.652121993641565" lon="9.408804279627656"><ele>245.0</ele><time>2026-04-07T08:36:20Z</time></trkpt><trkpt lat="45.65205879271031" lon="9.408747462422946"><ele>245.0</ele><time>2026-04-07T08:36:21Z</time></trkpt><trkpt lat="45.65199613858914" lon="9.408692561980391"><ele>244.57142857142856</ele><time>2026-04-07T08:36:22Z</time></trkpt><trkpt lat="45.6519332199863" lon="9.408637387054025"><ele>244.14285714285714</ele><time>2026-04-07T08:36:23Z</time></trkpt><trkpt lat="45.65186870509539" lon="9.40858184463652"><ele>243.71428571428572</ele><time>2026-04-07T08:36:24Z</time></trkpt><trkpt lat="45.65180566756128" lon="9.408531149423274"><ele>243.28571428571428</ele><time>2026-04-07T08:36:25Z</time></trkpt><trkpt lat="45.651738015753324" lon="9.408475893368243"><ele>242.85714285714283</ele><time>2026-04-07T08:36:26Z</time></trkpt><trkpt lat="45.65167259647346" lon="9.408422827129135"><ele>242.42857142857142</ele><time>2026-04-07T08:36:27Z</time></trkpt><trkpt lat="45.651609102780114" lon="9.408369365603605"><ele>242.0</ele><time>2026-04-07T08:36:28Z</time></trkpt><trkpt lat="45.65154191324702" lon="9.408320014666437"><ele>242.0</ele><time>2026-04-07T08:36:29Z</time></trkpt><trkpt lat="45.651478107460676" lon="9.408264352478065"><ele>241.99999999999997</ele><time>2026-04-07T08:36:30Z</time></trkpt><trkpt lat="45.65141343989792" lon="9.40821206258293"><ele>242.0</ele><time>2026-04-07T08:36:31Z</time></trkpt><trkpt lat="45.651347438757156" lon="9.408160464670836"><ele>242.0</ele><time>2026-04-07T08:36:32Z</time></trkpt><trkpt lat="45.651285268487015" lon="9.408105013859862"><ele>241.99999999999997</ele><time>2026-04-07T08:36:33Z</time></trkpt><trkpt lat="45.65122261454249" lon="9.408052234450183"><ele>242.0</ele><time>2026-04-07T08:36:34Z</time></trkpt><trkpt lat="45.65115824931522" lon="9.408000524072083"><ele>242.0</ele><time>2026-04-07T08:36:35Z</time></trkpt><trkpt lat="45.65109562930057" lon="9.407947514131267"><ele>241.85714285714283</ele><time>2026-04-07T08:36:36Z</time></trkpt><trkpt lat="45.65103365875712" lon="9.407898614058624"><ele>241.7142857142857</ele><time>2026-04-07T08:36:37Z</time></trkpt><trkpt lat="45.650973563874075" lon="9.407842353004888"><ele>241.57142857142856</ele><time>2026-04-07T08:36:38Z</time></trkpt><trkpt lat="45.65090838671889" lon="9.407789848323166"><ele>241.42857142857144</ele><time>2026-04-07T08:36:39Z</time></trkpt><trkpt lat="45.650844172754624" lon="9.407737645750165"><ele>241.2857142857143</ele><time>2026-04-07T08:36:40Z</time></trkpt><trkpt lat="45.65077785473935" lon="9.407683989372032"><ele>241.14285714285717</ele><time>2026-04-07T08:36:41Z</time></trkpt><trkpt lat="45.650712444301234" lon="9.407628748442624"><ele>241.0</ele><time>2026-04-07T08:36:42Z</time></trkpt><trkpt lat="45.65064566642427" lon="9.40757431501264"><ele>240.99999999999997</ele><time>2026-04-07T08:36:43Z</time></trkpt><trkpt lat="45.6505761514608" lon="9.407528976173214"><ele>241.0</ele><time>2026-04-07T08:36:43.999Z</time></trkpt><trkpt lat="45.65050745707013" lon="9.40748479334076"><ele>241.0</ele><time>2026-04-07T08:36:44.999Z</time></trkpt><trkpt lat="45.65043406242208" lon="9.407448430659072"><ele>241.0</ele><time>2026-04-07T08:36:45.999Z</time></trkpt><trkpt lat="45.650361774981974" lon="9.407421781426605"><ele>240.99999999999997</ele><time>2026-04-07T08:36:46.999Z</time></trkpt><trkpt lat="45.650286918780836" lon="9.407399553074711"><ele>241.0</ele><time>2026-04-07T08:36:47.999Z</time></trkpt><trkpt lat="45.650212799457265" lon="9.40738801904101"><ele>241.0</ele><time>2026-04-07T08:36:48.999Z</time></trkpt><trkpt lat="45.650139003147444" lon="9.407383596245163"><ele>241.00000000000003</ele><time>2026-04-07T08:36:49.999Z</time></trkpt><trkpt lat="45.65006370076253" lon="9.407385382304799"><ele>241.0</ele><time>2026-04-07T08:36:50.999Z</time></trkpt><trkpt lat="45.6499927782353" lon="9.407385570164173"><ele>241.0</ele><time>2026-04-07T08:36:51.999Z</time></trkpt><trkpt lat="45.649920293522044" lon="9.407383214698765"><ele>241.00000000000003</ele><time>2026-04-07T08:36:52.999Z</time></trkpt><trkpt lat="45.64985033057846" lon="9.407385253008892"><ele>241.0</ele><time>2026-04-07T08:36:53.999Z</time></trkpt><trkpt lat="45.649779559818924" lon="9.407384682119849"><ele>241.0</ele><time>2026-04-07T08:36:54.999Z</time></trkpt><trkpt lat="45.649708012257626" lon="9.407368103970542"><ele>240.99999999999997</ele><time>2026-04-07T08:36:55.999Z</time></trkpt><trkpt lat="45.64964016271611" lon="9.407331494552102"><ele>241.0</ele><time>2026-04-07T08:36:56.999Z</time></trkpt><trkpt lat="45.64957154658897" lon="9.407283341736727"><ele>241.0</ele><time>2026-04-07T08:36:57.999Z</time></trkpt><trkpt lat="45.64950604369522" lon="9.407235371419679"><ele>241.0</ele><time>2026-04-07T08:36:58.999Z</time></trkpt><trkpt lat="45.64943959895975" lon="9.407188301825753"><ele>240.99999999999997</ele><time>2026-04-07T08:36:59.999Z</time></trkpt><trkpt lat="45.649371784304506" lon="9.407140182546936"><ele>241.0</ele><time>2026-04-07T08:37:00.999Z</time></trkpt><trkpt lat="45.64930162314132" lon="9.407093983498626"><ele>240.83333333333331</ele><time>2026-04-07T08:37:01.999Z</time></trkpt><trkpt lat="45.64923113430137" lon="9.407050114521528"><ele>240.66666666666666</ele><time>2026-04-07T08:37:02.999Z</time></trkpt><trkpt lat="45.649161532495214" lon="9.406998112887822"><ele>240.5</ele><time>2026-04-07T08:37:03.999Z</time></trkpt><trkpt lat="45.64908958572296" lon="9.40695195937397"><ele>240.33333333333331</ele><time>2026-04-07T08:37:04.999Z</time></trkpt><trkpt lat="45.64901721709669" lon="9.406906575486177"><ele>240.16666666666666</ele><time>2026-04-07T08:37:05.999Z</time></trkpt><trkpt lat="45.648942875043204" lon="9.406861521454397"><ele>240.0</ele><time>2026-04-07T08:37:06.999Z</time></trkpt><trkpt lat="45.64886860757475" lon="9.40681898541268"><ele>240.0</ele><time>2026-04-07T08:37:07.999Z</time></trkpt><trkpt lat="45.64879377191606" lon="9.406775254949443"><ele>240.0</ele><time>2026-04-07T08:37:08.999Z</time></trkpt><trkpt lat="45.648718601678134" lon="9.406731676940469"><ele>240.0</ele><time>2026-04-07T08:37:09.999Z</time></trkpt><trkpt lat="45.64864312121497" lon="9.406688387947952"><ele>240.0</ele><time>2026-04-07T08:37:10.999Z</time></trkpt><trkpt lat="45.6485679876862" lon="9.406643652888535"><ele>240.0</ele><time>2026-04-07T08:37:11.999Z</time></trkpt><trkpt lat="45.64849280169722" lon="9.40659991045303"><ele>240.0</ele><time>2026-04-07T08:37:12.999Z</time></trkpt><trkpt lat="45.64841685701656" lon="9.406556075351013"><ele>239.83333333333334</ele><time>2026-04-07T08:37:13.999Z</time></trkpt><trkpt lat="45.64834091679753" lon="9.40651070428563"><ele>239.66666666666669</ele><time>2026-04-07T08:37:14.999Z</time></trkpt><trkpt lat="45.64826585315344" lon="9.406465442123556"><ele>239.5</ele><time>2026-04-07T08:37:15.999Z</time></trkpt><trkpt lat="45.6481897472925" lon="9.406421834539817"><ele>239.33333333333334</ele><time>2026-04-07T08:37:16.999Z</time></trkpt><trkpt lat="45.648114126998536" lon="9.406373287482026"><ele>239.16666666666669</ele><time>2026-04-07T08:37:17.999Z</time></trkpt><trkpt lat="45.648040374689295" lon="9.406323959758497"><ele>239.0</ele><time>2026-04-07T08:37:18.999Z</time></trkpt><trkpt lat="45.64796627573564" lon="9.406280409004435"><ele>238.50000000000003</ele><time>2026-04-07T08:37:19.999Z</time></trkpt><trkpt lat="45.64789178673437" lon="9.406231768427071"><ele>238.0</ele><time>2026-04-07T08:37:20.999Z</time></trkpt><trkpt lat="45.64781961643658" lon="9.406182290241388"><ele>237.5</ele><time>2026-04-07T08:37:21.999Z</time></trkpt><trkpt lat="45.647746287021526" lon="9.406132409366819"><ele>237.0</ele><time>2026-04-07T08:37:22.999Z</time></trkpt><trkpt lat="45.64767144187039" lon="9.406084690537957"><ele>236.50000000000003</ele><time>2026-04-07T08:37:23.999Z</time></trkpt><trkpt lat="45.64759533509831" lon="9.406035940155824"><ele>236.0</ele><time>2026-04-07T08:37:24.999Z</time></trkpt><trkpt lat="45.64751812491724" lon="9.405985490663946"><ele>235.83333333333334</ele><time>2026-04-07T08:37:25.999Z</time></trkpt><trkpt lat="45.647446320575675" lon="9.405932761050279"><ele>235.66666666666669</ele><time>2026-04-07T08:37:26.999Z</time></trkpt><trkpt lat="45.64737379639678" lon="9.405879444244697"><ele>235.5</ele><time>2026-04-07T08:37:27.999Z</time></trkpt><trkpt lat="45.647300210771505" lon="9.405830054489398"><ele>235.33333333333331</ele><time>2026-04-07T08:37:28.999Z</time></trkpt><trkpt lat="45.647229503138234" lon="9.405783171156164"><ele>235.16666666666666</ele><time>2026-04-07T08:37:29.999Z</time></trkpt><trkpt lat="45.64715610263313" lon="9.405735652357757"><ele>235.0</ele><time>2026-04-07T08:37:30.999Z</time></trkpt><trkpt lat="45.64708402217047" lon="9.405686560147839"><ele>234.99999999999997</ele><time>2026-04-07T08:37:31.999Z</time></trkpt><trkpt lat="45.64701119960922" lon="9.405638304451712"><ele>235.0</ele><time>2026-04-07T08:37:32.999Z</time></trkpt><trkpt lat="45.64693602333834" lon="9.405590469239895"><ele>235.0</ele><time>2026-04-07T08:37:33.999Z</time></trkpt><trkpt lat="45.64685925142053" lon="9.405539855125483"><ele>235.0</ele><time>2026-04-07T08:37:34.999Z</time></trkpt><trkpt lat="45.646785278042664" lon="9.405490507982345"><ele>234.99999999999997</ele><time>2026-04-07T08:37:35.999Z</time></trkpt><trkpt lat="45.64671267046524" lon="9.405437601038898"><ele>235.0</ele><time>2026-04-07T08:37:36.999Z</time></trkpt><trkpt lat="45.64664293050854" lon="9.405374668935297"><ele>234.33333333333331</ele><time>2026-04-07T08:37:37.999Z</time></trkpt><trkpt lat="45.64657378304812" lon="9.405312008606739"><ele>233.66666666666666</ele><time>2026-04-07T08:37:38.999Z</time></trkpt><trkpt lat="45.64650624107515" lon="9.405245760877417"><ele>233.0</ele><time>2026-04-07T08:37:39.999Z</time></trkpt><trkpt lat="45.64643871653839" lon="9.405180233666242"><ele>232.33333333333331</ele><time>2026-04-07T08:37:40.999Z</time></trkpt><trkpt lat="45.646369531636616" lon="9.405116160566147"><ele>231.66666666666666</ele><time>2026-04-07T08:37:41.999Z</time></trkpt><trkpt lat="45.64630296005742" lon="9.40505335931686"><ele>231.0</ele><time>2026-04-07T08:37:42.999Z</time></trkpt><trkpt lat="45.64623720203185" lon="9.404990683255269"><ele>231.0</ele><time>2026-04-07T08:37:43.999Z</time></trkpt><trkpt lat="45.646168213180474" lon="9.404931988412368"><ele>231.0</ele><time>2026-04-07T08:37:44.999Z</time></trkpt><trkpt lat="45.64610333948536" lon="9.404870893290473"><ele>231.0</ele><time>2026-04-07T08:37:45.999Z</time></trkpt><trkpt lat="45.64604137256219" lon="9.404807426059516"><ele>231.0</ele><time>2026-04-07T08:37:46.999Z</time></trkpt><trkpt lat="45.64597637536046" lon="9.404748218902155"><ele>231.0</ele><time>2026-04-07T08:37:47.999Z</time></trkpt><trkpt lat="45.64591132148153" lon="9.404687145602042"><ele>231.0</ele><time>2026-04-07T08:37:48.999Z</time></trkpt><trkpt lat="45.645847174196284" lon="9.404627520403785"><ele>231.16666666666666</ele><time>2026-04-07T08:37:49.999Z</time></trkpt><trkpt lat="45.64578092498541" lon="9.404567758603081"><ele>231.33333333333331</ele><time>2026-04-07T08:37:50.999Z</time></trkpt><trkpt lat="45.64571416534628" lon="9.40450970616952"><ele>231.5</ele><time>2026-04-07T08:37:51.999Z</time></trkpt><trkpt lat="45.64565021048371" lon="9.404443739611425"><ele>231.66666666666666</ele><time>2026-04-07T08:37:52.999Z</time></trkpt><trkpt lat="45.645584342742474" lon="9.404381112020841"><ele>231.83333333333331</ele><time>2026-04-07T08:37:53.999Z</time></trkpt><trkpt lat="45.64551623066432" lon="9.404326056460425"><ele>232.0</ele><time>2026-04-07T08:37:54.999Z</time></trkpt><trkpt lat="45.645452655433175" lon="9.404267180587004"><ele>231.99999999999997</ele><time>2026-04-07T08:37:55.999Z</time></trkpt><trkpt lat="45.645391204353075" lon="9.404210246730116"><ele>232.0</ele><time>2026-04-07T08:37:56.999Z</time></trkpt><trkpt lat="45.64533220774184" lon="9.404159269705486"><ele>232.0</ele><time>2026-04-07T08:37:57.999Z</time></trkpt><trkpt lat="45.645272132376306" lon="9.404106144542133"><ele>232.0</ele><time>2026-04-07T08:37:58.999Z</time></trkpt><trkpt lat="45.64521494120635" lon="9.40405653861604"><ele>231.99999999999997</ele><time>2026-04-07T08:37:59.999Z</time></trkpt><trkpt lat="45.64515992735983" lon="9.4040035855324"><ele>232.0</ele><time>2026-04-07T08:38:00.999Z</time></trkpt><trkpt lat="45.645060447956745" lon="9.403902517375803"><ele>231.8</ele><time>2026-04-07T08:38:02.999Z</time></trkpt><trkpt lat="45.644957495305704" lon="9.403851837108526"><ele>231.6</ele><time>2026-04-07T08:38:04.999Z</time></trkpt><trkpt lat="45.64487512846849" lon="9.403755879577366"><ele>231.40000000000003</ele><time>2026-04-07T08:38:07.999Z</time></trkpt><trkpt lat="45.644802943580544" lon="9.403691071476876"><ele>231.20000000000002</ele><time>2026-04-07T08:38:09.999Z</time></trkpt><trkpt lat="45.644732837299124" lon="9.403630173998963"><ele>231.0</ele><time>2026-04-07T08:38:11.999Z</time></trkpt><trkpt lat="45.64466771969222" lon="9.40357473109117"><ele>231.0</ele><time>2026-04-07T08:38:13.999Z</time></trkpt><trkpt lat="45.64460573660641" lon="9.403522141570326"><ele>231.0</ele><time>2026-04-07T08:38:15.999Z</time></trkpt><trkpt lat="45.64453163414966" lon="9.403485768276624"><ele>231.0</ele><time>2026-04-07T08:38:19.999Z</time></trkpt><trkpt lat="45.644468436351794" lon="9.403407126757553"><ele>231.0</ele><time>2026-04-07T08:38:21.999Z</time></trkpt><trkpt lat="45.64438879507665" lon="9.403340408786255"><ele>231.0</ele><time>2026-04-07T08:38:23.999Z</time></trkpt><trkpt lat="45.64430359706586" lon="9.403271233105857"><ele>231.0</ele><time>2026-04-07T08:38:25.999Z</time></trkpt><trkpt lat="45.644215075370816" lon="9.403199562030013"><ele>231.0</ele><time>2026-04-07T08:38:27.999Z</time></trkpt><trkpt lat="45.64411368126069" lon="9.403118917139432"><ele>231.0</ele><time>2026-04-07T08:38:29.999Z</time></trkpt><trkpt lat="45.64401228685446" lon="9.403041961246224"><ele>231.0</ele><time>2026-04-07T08:38:31.999Z</time></trkpt><trkpt lat="45.643908272958626" lon="9.402964504196099"><ele>231.0</ele><time>2026-04-07T08:38:33.999Z</time></trkpt><trkpt lat="45.64380187939157" lon="9.402885733723544"><ele>231.0</ele><time>2026-04-07T08:38:35.999Z</time></trkpt><trkpt lat="45.643691512156174" lon="9.402804021272221"><ele>231.0</ele><time>2026-04-07T08:38:37.999Z</time></trkpt><trkpt lat="45.64358098398831" lon="9.402721684249522"><ele>231.0</ele><time>2026-04-07T08:38:39.999Z</time></trkpt><trkpt lat="45.64352448146395" lon="9.402679532037386"><ele>231.0</ele><time>2026-04-07T08:38:40.999Z</time></trkpt><trkpt lat="45.643468429038144" lon="9.40263771562516"><ele>231.0</ele><time>2026-04-07T08:38:41.999Z</time></trkpt><trkpt lat="45.6434112919954" lon="9.402595090067864"><ele>231.0</ele><time>2026-04-07T08:38:42.999Z</time></trkpt><trkpt lat="45.64335405574809" lon="9.402552390492925"><ele>230.85714285714286</ele><time>2026-04-07T08:38:43.999Z</time></trkpt><trkpt lat="45.6432966830201" lon="9.402509589098214"><ele>230.71428571428572</ele><time>2026-04-07T08:38:44.999Z</time></trkpt><trkpt lat="45.64323824196977" lon="9.40246599072039"><ele>230.57142857142856</ele><time>2026-04-07T08:38:45.999Z</time></trkpt><trkpt lat="45.643179171032024" lon="9.402421620799569"><ele>230.42857142857142</ele><time>2026-04-07T08:38:46.999Z</time></trkpt><trkpt lat="45.643119985284955" lon="9.402376950757358"><ele>230.28571428571428</ele><time>2026-04-07T08:38:47.999Z</time></trkpt><trkpt lat="45.64306235238059" lon="9.402333452702067"><ele>230.1428571428571</ele><time>2026-04-07T08:38:48.999Z</time></trkpt><trkpt lat="45.64300454323219" lon="9.402289821646805"><ele>229.99999999999997</ele><time>2026-04-07T08:38:49.999Z</time></trkpt><trkpt lat="45.64289273745506" lon="9.40220257250283"><ele>229.99999999999997</ele><time>2026-04-07T08:38:51.999Z</time></trkpt><trkpt lat="45.64283660528373" lon="9.402158612142184"><ele>230.0</ele><time>2026-04-07T08:38:52.999Z</time></trkpt><trkpt lat="45.6427796653032" lon="9.402114019138018"><ele>229.99999999999997</ele><time>2026-04-07T08:38:53.999Z</time></trkpt><trkpt lat="45.642724015474144" lon="9.402069923101944"><ele>229.99999999999997</ele><time>2026-04-07T08:38:54.999Z</time></trkpt><trkpt lat="45.64266778349979" lon="9.402024635378755"><ele>230.0</ele><time>2026-04-07T08:38:55.999Z</time></trkpt><trkpt lat="45.642612342162266" lon="9.401979984387582"><ele>229.99999999999997</ele><time>2026-04-07T08:38:56.999Z</time></trkpt><trkpt lat="45.642555353362106" lon="9.401934087113938"><ele>229.99999999999997</ele><time>2026-04-07T08:38:57.999Z</time></trkpt><trkpt lat="45.64249839777215" lon="9.401888217379211"><ele>229.4285714285714</ele><time>2026-04-07T08:38:58.999Z</time></trkpt><trkpt lat="45.642443085156614" lon="9.401841564704428"><ele>228.85714285714283</ele><time>2026-04-07T08:38:59.999Z</time></trkpt><trkpt lat="45.642387469782335" lon="9.40179520902154"><ele>228.28571428571428</ele><time>2026-04-07T08:39:00.999Z</time></trkpt><trkpt lat="45.6423285829701" lon="9.401746126541461"><ele>227.7142857142857</ele><time>2026-04-07T08:39:01.999Z</time></trkpt><trkpt lat="45.64227152562875" lon="9.40169834805495"><ele>227.1428571428571</ele><time>2026-04-07T08:39:02.999Z</time></trkpt><trkpt lat="45.64221434330487" lon="9.401650447922812"><ele>226.57142857142858</ele><time>2026-04-07T08:39:03.999Z</time></trkpt><trkpt lat="45.642155934778266" lon="9.401601520707725"><ele>226.0</ele><time>2026-04-07T08:39:04.999Z</time></trkpt><trkpt lat="45.64209873018387" lon="9.401553601958334"><ele>226.0</ele><time>2026-04-07T08:39:05.999Z</time></trkpt><trkpt lat="45.64203885865731" lon="9.401503449222744"><ele>226.0</ele><time>2026-04-07T08:39:06.999Z</time></trkpt><trkpt lat="45.64198118052104" lon="9.40145513378893"><ele>226.0</ele><time>2026-04-07T08:39:07.999Z</time></trkpt><trkpt lat="45.641926010223905" lon="9.401408919130771"><ele>226.0</ele><time>2026-04-07T08:39:08.999Z</time></trkpt><trkpt lat="45.641868209273596" lon="9.401359739900153"><ele>226.0</ele><time>2026-04-07T08:39:09.999Z</time></trkpt><trkpt lat="45.641810961273215" lon="9.401310935456651"><ele>226.0</ele><time>2026-04-07T08:39:10.999Z</time></trkpt><trkpt lat="45.64175674033809" lon="9.401263929849135"><ele>226.0</ele><time>2026-04-07T08:39:11.999Z</time></trkpt><trkpt lat="45.641649707186254" lon="9.401319199369288"><ele>225.83333333333331</ele><time>2026-04-07T08:39:12.999Z</time></trkpt><trkpt lat="45.64159612123181" lon="9.401252612741702"><ele>225.66666666666666</ele><time>2026-04-07T08:39:13.999Z</time></trkpt><trkpt lat="45.64153578268953" lon="9.401190722561191"><ele>225.5</ele><time>2026-04-07T08:39:14.999Z</time></trkpt><trkpt lat="45.641472403650155" lon="9.401139253986454"><ele>225.33333333333331</ele><time>2026-04-07T08:39:15.999Z</time></trkpt><trkpt lat="45.641453663419384" lon="9.400997023125294"><ele>225.16666666666666</ele><time>2026-04-07T08:39:16.999Z</time></trkpt><trkpt lat="45.64135505335501" lon="9.40103354120852"><ele>225.0</ele><time>2026-04-07T08:39:17.999Z</time></trkpt><trkpt lat="45.64129771440555" lon="9.400984949644323"><ele>225.0</ele><time>2026-04-07T08:39:18.999Z</time></trkpt><trkpt lat="45.64123665801204" lon="9.400929785166307"><ele>225.0</ele><time>2026-04-07T08:39:19.999Z</time></trkpt><trkpt lat="45.64111228894846" lon="9.400822005153021"><ele>225.0</ele><time>2026-04-07T08:39:21.999Z</time></trkpt><trkpt lat="45.64105387435859" lon="9.400771720179742"><ele>225.0</ele><time>2026-04-07T08:39:22.999Z</time></trkpt><trkpt lat="45.64099150489586" lon="9.400719990359915"><ele>225.0</ele><time>2026-04-07T08:39:23.999Z</time></trkpt><trkpt lat="45.640972964455486" lon="9.400573940522698"><ele>225.00000000000003</ele><time>2026-04-07T08:39:24.999Z</time></trkpt><trkpt lat="45.64091341354496" lon="9.400519290067692"><ele>225.0</ele><time>2026-04-07T08:39:25.999Z</time></trkpt><trkpt lat="45.64085382532335" lon="9.400464605378357"><ele>225.00000000000003</ele><time>2026-04-07T08:39:26.999Z</time></trkpt><trkpt lat="45.64079282310746" lon="9.400408013018705"><ele>225.00000000000003</ele><time>2026-04-07T08:39:27.999Z</time></trkpt><trkpt lat="45.64073152173857" lon="9.400350169006602"><ele>225.0</ele><time>2026-04-07T08:39:28.999Z</time></trkpt><trkpt lat="45.64067673543313" lon="9.400298472742016"><ele>225.00000000000003</ele><time>2026-04-07T08:39:29.999Z</time></trkpt><trkpt lat="45.640621505800105" lon="9.400244192843722"><ele>225.00000000000003</ele><time>2026-04-07T08:39:30.999Z</time></trkpt><trkpt lat="45.64056890999648" lon="9.400192667018084"><ele>225.0</ele><time>2026-04-07T08:39:31.999Z</time></trkpt><trkpt lat="45.640512339929955" lon="9.400136345228411"><ele>225.0</ele><time>2026-04-07T08:39:32.999Z</time></trkpt><trkpt lat="45.64045650099158" lon="9.400080092223497"><ele>225.0</ele><time>2026-04-07T08:39:33.999Z</time></trkpt><trkpt lat="45.640403024513844" lon="9.400024516016614"><ele>225.0</ele><time>2026-04-07T08:39:34.999Z</time></trkpt><trkpt lat="45.640350512387734" lon="9.399969001636482"><ele>225.0</ele><time>2026-04-07T08:39:35.999Z</time></trkpt><trkpt lat="45.6402542620121" lon="9.399861740554801"><ele>225.0</ele><time>2026-04-07T08:39:37.999Z</time></trkpt><trkpt lat="45.640170621053294" lon="9.399760407150056"><ele>225.0</ele><time>2026-04-07T08:39:39.999Z</time></trkpt><trkpt lat="45.64002050610638" lon="9.399830680505724"><ele>225.0</ele><time>2026-04-07T08:39:41.999Z</time></trkpt><trkpt lat="45.63992634325475" lon="9.39984907302912"><ele>225.0</ele><time>2026-04-07T08:39:44.999Z</time></trkpt><trkpt lat="45.639997684040395" lon="9.399543071710472"><ele>224.4</ele><time>2026-04-07T08:39:45.999Z</time></trkpt><trkpt lat="45.63992803183009" lon="9.399485711323019"><ele>223.8</ele><time>2026-04-07T08:39:47.999Z</time></trkpt><trkpt lat="45.639827672482994" lon="9.39941818930546"><ele>223.2</ele><time>2026-04-07T08:39:49.999Z</time></trkpt><trkpt lat="45.6397338745809" lon="9.399352699055296"><ele>222.6</ele><time>2026-04-07T08:39:51.999Z</time></trkpt><trkpt lat="45.6396398112892" lon="9.39926941867994"><ele>222.0</ele><time>2026-04-07T08:39:53.999Z</time></trkpt><trkpt lat="45.63954122131217" lon="9.399168092907216"><ele>222.0</ele><time>2026-04-07T08:39:55.999Z</time></trkpt><trkpt lat="45.63943952696395" lon="9.399058457148218"><ele>222.0</ele><time>2026-04-07T08:39:57.999Z</time></trkpt><trkpt lat="45.639383095390706" lon="9.398997788972187"><ele>222.0</ele><time>2026-04-07T08:39:58.999Z</time></trkpt><trkpt lat="45.63932904511159" lon="9.398944104216618"><ele>222.0</ele><time>2026-04-07T08:39:59.999Z</time></trkpt><trkpt lat="45.639274765109526" lon="9.3988901913176"><ele>222.0</ele><time>2026-04-07T08:40:00.999Z</time></trkpt><trkpt lat="45.63921910222378" lon="9.398835634742348"><ele>222.0</ele><time>2026-04-07T08:40:01.999Z</time></trkpt><trkpt lat="45.63916343979485" lon="9.398781675699034"><ele>222.0</ele><time>2026-04-07T08:40:02.999Z</time></trkpt><trkpt lat="45.639106173200695" lon="9.39872875039894"><ele>222.0</ele><time>2026-04-07T08:40:03.999Z</time></trkpt><trkpt lat="45.63904567675634" lon="9.398674094731042"><ele>222.0</ele><time>2026-04-07T08:40:04.999Z</time></trkpt><trkpt lat="45.6389896510617" lon="9.3986241364867"><ele>222.0</ele><time>2026-04-07T08:40:05.999Z</time></trkpt><trkpt lat="45.638933968647336" lon="9.398574484432944"><ele>222.0</ele><time>2026-04-07T08:40:06.999Z</time></trkpt><trkpt lat="45.63887439874737" lon="9.398527373756453"><ele>222.0</ele><time>2026-04-07T08:40:07.999Z</time></trkpt><trkpt lat="45.638818610690485" lon="9.398483953051798"><ele>222.0</ele><time>2026-04-07T08:40:08.999Z</time></trkpt><trkpt lat="45.63870812885422" lon="9.398406059933938"><ele>222.2</ele><time>2026-04-07T08:40:10.999Z</time></trkpt><trkpt lat="45.638605349382296" lon="9.398342893389112"><ele>222.39999999999998</ele><time>2026-04-07T08:40:12.999Z</time></trkpt><trkpt lat="45.63850323525473" lon="9.398282664187791"><ele>222.60000000000002</ele><time>2026-04-07T08:40:14.999Z</time></trkpt><trkpt lat="45.63836771676597" lon="9.39831480229579"><ele>222.8</ele><time>2026-04-07T08:40:16.999Z</time></trkpt><trkpt lat="45.63830915384137" lon="9.398273678614867"><ele>223.0</ele><time>2026-04-07T08:40:17.999Z</time></trkpt><trkpt lat="45.63818781000878" lon="9.398223081787688"><ele>222.99999999999997</ele><time>2026-04-07T08:40:19.999Z</time></trkpt><trkpt lat="45.63807197356927" lon="9.398151609115272"><ele>223.0</ele><time>2026-04-07T08:40:21.999Z</time></trkpt><trkpt lat="45.63801154544186" lon="9.398117822052708"><ele>223.0</ele><time>2026-04-07T08:40:22.999Z</time></trkpt><trkpt lat="45.637949543562115" lon="9.39808714190984"><ele>223.0</ele><time>2026-04-07T08:40:23.999Z</time></trkpt><trkpt lat="45.637888490765484" lon="9.398049882465452"><ele>222.99999999999997</ele><time>2026-04-07T08:40:24.999Z</time></trkpt><trkpt lat="45.637856743569465" lon="9.397910938776935"><ele>223.0</ele><time>2026-04-07T08:40:25.999Z</time></trkpt><trkpt lat="45.63776443863766" lon="9.397981886935932"><ele>222.71428571428572</ele><time>2026-04-07T08:40:26.999Z</time></trkpt><trkpt lat="45.63770252984818" lon="9.397944676234674"><ele>222.42857142857142</ele><time>2026-04-07T08:40:27.999Z</time></trkpt><trkpt lat="45.6376376265523" lon="9.397906212643337"><ele>222.14285714285717</ele><time>2026-04-07T08:40:28.999Z</time></trkpt><trkpt lat="45.63757515945119" lon="9.397870006290562"><ele>221.85714285714286</ele><time>2026-04-07T08:40:29.999Z</time></trkpt><trkpt lat="45.63754222534836" lon="9.397727695067688"><ele>221.57142857142858</ele><time>2026-04-07T08:40:30.999Z</time></trkpt><trkpt lat="45.63747626674927" lon="9.397690076828315"><ele>221.2857142857143</ele><time>2026-04-07T08:40:31.999Z</time></trkpt><trkpt lat="45.63741267525447" lon="9.397655970791625"><ele>221.0</ele><time>2026-04-07T08:40:32.999Z</time></trkpt><trkpt lat="45.637346580132885" lon="9.397621215113293"><ele>221.00000000000003</ele><time>2026-04-07T08:40:33.999Z</time></trkpt><trkpt lat="45.63728055470742" lon="9.39758709154202"><ele>221.0</ele><time>2026-04-07T08:40:34.999Z</time></trkpt><trkpt lat="45.637214602289724" lon="9.397555497011005"><ele>221.0</ele><time>2026-04-07T08:40:35.999Z</time></trkpt><trkpt lat="45.637149705807815" lon="9.397524408346518"><ele>221.0</ele><time>2026-04-07T08:40:37Z</time></trkpt><trkpt lat="45.63708411694644" lon="9.397492988069867"><ele>221.00000000000003</ele><time>2026-04-07T08:40:38Z</time></trkpt><trkpt lat="45.637022185981344" lon="9.397463320553015"><ele>221.0</ele><time>2026-04-07T08:40:39Z</time></trkpt><trkpt lat="45.636907713868204" lon="9.397408483672388"><ele>220.33333333333334</ele><time>2026-04-07T08:40:41Z</time></trkpt><trkpt lat="45.63678860895219" lon="9.397665237409214"><ele>219.66666666666669</ele><time>2026-04-07T08:40:42Z</time></trkpt><trkpt lat="45.63667956894605" lon="9.397726844931148"><ele>219.0</ele><time>2026-04-07T08:40:44Z</time></trkpt><trkpt lat="45.636530203663945" lon="9.397807575011125"><ele>219.0</ele><time>2026-04-07T08:40:46Z</time></trkpt><trkpt lat="45.63651261353666" lon="9.397897422399504"><ele>218.99999999999997</ele><time>2026-04-07T08:40:48Z</time></trkpt><trkpt lat="45.63651619828678" lon="9.397790846127801"><ele>218.99999999999997</ele><time>2026-04-07T08:40:52Z</time></trkpt><trkpt lat="45.63654299821711" lon="9.39765395823554"><ele>219.0</ele><time>2026-04-07T08:40:54Z</time></trkpt><trkpt lat="45.63641367522635" lon="9.3974465660172"><ele>219.0</ele><time>2026-04-07T08:40:57Z</time></trkpt><trkpt lat="45.63632589825312" lon="9.39734806086126"><ele>219.0</ele><time>2026-04-07T08:40:59Z</time></trkpt><trkpt lat="45.63630995184829" lon="9.397132167991417"><ele>219.0</ele><time>2026-04-07T08:41:00Z</time></trkpt><trkpt lat="45.63619675994408" lon="9.397086483326397"><ele>219.0</ele><time>2026-04-07T08:41:02Z</time></trkpt><trkpt lat="45.636134975576326" lon="9.397061546685611"><ele>219.0</ele><time>2026-04-07T08:41:03Z</time></trkpt><trkpt lat="45.636018016786785" lon="9.397014341113296"><ele>219.0</ele><time>2026-04-07T08:41:05Z</time></trkpt><trkpt lat="45.63589936682743" lon="9.396966453068591"><ele>219.0</ele><time>2026-04-07T08:41:07Z</time></trkpt><trkpt lat="45.63578070527701" lon="9.396918560251795"><ele>219.0</ele><time>2026-04-07T08:41:09Z</time></trkpt><trkpt lat="45.63565904438018" lon="9.396868067697723"><ele>219.0</ele><time>2026-04-07T08:41:11Z</time></trkpt><trkpt lat="45.63554057363022" lon="9.396818820845905"><ele>219.0</ele><time>2026-04-07T08:41:13Z</time></trkpt><trkpt lat="45.63542386798648" lon="9.39676905252701"><ele>218.99999999999997</ele><time>2026-04-07T08:41:15Z</time></trkpt><trkpt lat="45.63530612004622" lon="9.396713957213631"><ele>218.99999999999997</ele><time>2026-04-07T08:41:17Z</time></trkpt><trkpt lat="45.63524235378916" lon="9.396679865189151"><ele>219.0</ele><time>2026-04-07T08:41:18Z</time></trkpt><trkpt lat="45.635119043825796" lon="9.396608989977175"><ele>219.0</ele><time>2026-04-07T08:41:20Z</time></trkpt><trkpt lat="45.63505542580564" lon="9.396570619075721"><ele>218.85714285714286</ele><time>2026-04-07T08:41:21Z</time></trkpt><trkpt lat="45.63499145733622" lon="9.396530827801666"><ele>218.7142857142857</ele><time>2026-04-07T08:41:22Z</time></trkpt><trkpt lat="45.63492642525922" lon="9.396490374516889"><ele>218.57142857142856</ele><time>2026-04-07T08:41:23Z</time></trkpt><trkpt lat="45.63486205320112" lon="9.39645033218378"><ele>218.42857142857144</ele><time>2026-04-07T08:41:24Z</time></trkpt><trkpt lat="45.63479797385868" lon="9.396410471817072"><ele>218.28571428571428</ele><time>2026-04-07T08:41:25Z</time></trkpt><trkpt lat="45.63473313291652" lon="9.396370137626768"><ele>218.14285714285714</ele><time>2026-04-07T08:41:26Z</time></trkpt><trkpt lat="45.63466837241789" lon="9.396329853729931"><ele>218.0</ele><time>2026-04-07T08:41:27Z</time></trkpt><trkpt lat="45.634603340826764" lon="9.39628940090906"><ele>217.66666666666669</ele><time>2026-04-07T08:41:28Z</time></trkpt><trkpt lat="45.634540414458186" lon="9.396250257766296"><ele>217.33333333333334</ele><time>2026-04-07T08:41:29Z</time></trkpt><trkpt lat="45.63447640350365" lon="9.396210441771665"><ele>217.0</ele><time>2026-04-07T08:41:30Z</time></trkpt><trkpt lat="45.63441306438719" lon="9.396171041827364"><ele>216.66666666666669</ele><time>2026-04-07T08:41:31Z</time></trkpt><trkpt lat="45.634350775335186" lon="9.396132447784527"><ele>216.33333333333334</ele><time>2026-04-07T08:41:32Z</time></trkpt><trkpt lat="45.634237264138235" lon="9.396063184392675"><ele>216.0</ele><time>2026-04-07T08:41:34Z</time></trkpt><trkpt lat="45.63412318925313" lon="9.39599196758402"><ele>216.0</ele><time>2026-04-07T08:41:36Z</time></trkpt><trkpt lat="45.6340619457884" lon="9.395951271131334"><ele>216.0</ele><time>2026-04-07T08:41:37Z</time></trkpt><trkpt lat="45.63394843816716" lon="9.39586392745719"><ele>216.0</ele><time>2026-04-07T08:41:39Z</time></trkpt><trkpt lat="45.63389177834923" lon="9.395810733081701"><ele>216.0</ele><time>2026-04-07T08:41:40Z</time></trkpt><trkpt lat="45.633837520380126" lon="9.395756865099223"><ele>216.0</ele><time>2026-04-07T08:41:41Z</time></trkpt><trkpt lat="45.633782938516035" lon="9.39569560600726"><ele>216.0</ele><time>2026-04-07T08:41:42Z</time></trkpt><trkpt lat="45.63373063574183" lon="9.39563203340687"><ele>216.0</ele><time>2026-04-07T08:41:43Z</time></trkpt><trkpt lat="45.63368005726792" lon="9.395565848277105"><ele>216.0</ele><time>2026-04-07T08:41:44Z</time></trkpt><trkpt lat="45.63362893310039" lon="9.395498065958844"><ele>216.0</ele><time>2026-04-07T08:41:45Z</time></trkpt><trkpt lat="45.633580245907076" lon="9.395431435638168"><ele>216.0</ele><time>2026-04-07T08:41:45.999Z</time></trkpt><trkpt lat="45.633527095560964" lon="9.395358879616424"><ele>216.0</ele><time>2026-04-07T08:41:46.999Z</time></trkpt><trkpt lat="45.63347869207001" lon="9.395291520551107"><ele>216.0</ele><time>2026-04-07T08:41:47.999Z</time></trkpt><trkpt lat="45.63343072604728" lon="9.395223200294254"><ele>216.0</ele><time>2026-04-07T08:41:48.999Z</time></trkpt><trkpt lat="45.63338258701486" lon="9.395153611917921"><ele>215.85714285714286</ele><time>2026-04-07T08:41:49.999Z</time></trkpt><trkpt lat="45.63333396365264" lon="9.395083323461312"><ele>215.71428571428572</ele><time>2026-04-07T08:41:50.999Z</time></trkpt><trkpt lat="45.63328804063991" lon="9.39501693843776"><ele>215.57142857142856</ele><time>2026-04-07T08:41:51.999Z</time></trkpt><trkpt lat="45.63323875078219" lon="9.394948919543511"><ele>215.42857142857144</ele><time>2026-04-07T08:41:52.999Z</time></trkpt><trkpt lat="45.63318894140174" lon="9.394880924841793"><ele>215.2857142857143</ele><time>2026-04-07T08:41:53.999Z</time></trkpt><trkpt lat="45.633141170818206" lon="9.394816933996736"><ele>215.14285714285714</ele><time>2026-04-07T08:41:54.999Z</time></trkpt><trkpt lat="45.63308935434058" lon="9.394748041473687"><ele>215.0</ele><time>2026-04-07T08:41:55.999Z</time></trkpt><trkpt lat="45.63303563406672" lon="9.39467748328269"><ele>215.14285714285714</ele><time>2026-04-07T08:41:56.999Z</time></trkpt><trkpt lat="45.632982802692965" lon="9.3946095693504"><ele>215.2857142857143</ele><time>2026-04-07T08:41:57.999Z</time></trkpt><trkpt lat="45.63292568920789" lon="9.394539431269575"><ele>215.42857142857144</ele><time>2026-04-07T08:41:58.999Z</time></trkpt><trkpt lat="45.632870369667266" lon="9.394473544766134"><ele>215.57142857142856</ele><time>2026-04-07T08:41:59.999Z</time></trkpt><trkpt lat="45.63281188269379" lon="9.394406222956423"><ele>215.71428571428572</ele><time>2026-04-07T08:42:00.999Z</time></trkpt><trkpt lat="45.632751667044296" lon="9.394340545784464"><ele>215.85714285714286</ele><time>2026-04-07T08:42:01.999Z</time></trkpt><trkpt lat="45.63269150075541" lon="9.394275823390211"><ele>216.0</ele><time>2026-04-07T08:42:02.999Z</time></trkpt><trkpt lat="45.63263216658944" lon="9.39421421759378"><ele>216.0</ele><time>2026-04-07T08:42:03.999Z</time></trkpt><trkpt lat="45.6325725083127" lon="9.394152275244446"><ele>216.0</ele><time>2026-04-07T08:42:04.999Z</time></trkpt><trkpt lat="45.63251357536707" lon="9.394091086044991"><ele>216.0</ele><time>2026-04-07T08:42:05.999Z</time></trkpt><trkpt lat="45.63245283001178" lon="9.39402801498352"><ele>216.0</ele><time>2026-04-07T08:42:06.999Z</time></trkpt><trkpt lat="45.63238823062451" lon="9.39396355173381"><ele>216.0</ele><time>2026-04-07T08:42:07.999Z</time></trkpt><trkpt lat="45.6323208928584" lon="9.39390262675382"><ele>216.0</ele><time>2026-04-07T08:42:08.999Z</time></trkpt><trkpt lat="45.632251138895676" lon="9.39384466208241"><ele>215.83333333333334</ele><time>2026-04-07T08:42:09.999Z</time></trkpt><trkpt lat="45.63218131900498" lon="9.393788764896932"><ele>215.66666666666669</ele><time>2026-04-07T08:42:10.999Z</time></trkpt><trkpt lat="45.63211420883473" lon="9.393737365321664"><ele>215.5</ele><time>2026-04-07T08:42:11.999Z</time></trkpt><trkpt lat="45.63204665614243" lon="9.39368562683555"><ele>215.33333333333334</ele><time>2026-04-07T08:42:12.999Z</time></trkpt><trkpt lat="45.63197981337774" lon="9.393634432092487"><ele>215.16666666666669</ele><time>2026-04-07T08:42:13.999Z</time></trkpt><trkpt lat="45.63191192077918" lon="9.393583707095578"><ele>215.0</ele><time>2026-04-07T08:42:14.999Z</time></trkpt><trkpt lat="45.63184593191492" lon="9.393534785125736"><ele>215.0</ele><time>2026-04-07T08:42:15.999Z</time></trkpt><trkpt lat="45.63178174746191" lon="9.39348720084428"><ele>215.0</ele><time>2026-04-07T08:42:16.999Z</time></trkpt><trkpt lat="45.63171453314821" lon="9.393437370326499"><ele>215.0</ele><time>2026-04-07T08:42:17.999Z</time></trkpt><trkpt lat="45.63164829918649" lon="9.393388266595814"><ele>215.0</ele><time>2026-04-07T08:42:18.999Z</time></trkpt><trkpt lat="45.63158308581522" lon="9.39334038755416"><ele>215.0</ele><time>2026-04-07T08:42:19.999Z</time></trkpt><trkpt lat="45.6315181618667" lon="9.393292868299008"><ele>215.0</ele><time>2026-04-07T08:42:20.999Z</time></trkpt><trkpt lat="45.63145048188896" lon="9.393242560445652"><ele>215.0</ele><time>2026-04-07T08:42:21.999Z</time></trkpt><trkpt lat="45.631382995541756" lon="9.39319172713443"><ele>215.0</ele><time>2026-04-07T08:42:22.999Z</time></trkpt><trkpt lat="45.631322794414714" lon="9.393142597849735"><ele>215.0</ele><time>2026-04-07T08:42:23.999Z</time></trkpt><trkpt lat="45.631259365349784" lon="9.393090315350145"><ele>215.0</ele><time>2026-04-07T08:42:24.999Z</time></trkpt><trkpt lat="45.63119753692981" lon="9.393036828297786"><ele>215.0</ele><time>2026-04-07T08:42:25.999Z</time></trkpt><trkpt lat="45.631134160840816" lon="9.392980950192703"><ele>215.0</ele><time>2026-04-07T08:42:26.999Z</time></trkpt><trkpt lat="45.63107471276864" lon="9.392925307657226"><ele>215.0</ele><time>2026-04-07T08:42:27.999Z</time></trkpt><trkpt lat="45.63101235126373" lon="9.392865589116541"><ele>215.0</ele><time>2026-04-07T08:42:28.999Z</time></trkpt><trkpt lat="45.630956084956225" lon="9.39280668004086"><ele>214.85714285714286</ele><time>2026-04-07T08:42:29.999Z</time></trkpt><trkpt lat="45.63089907070632" lon="9.392744717774642"><ele>214.71428571428572</ele><time>2026-04-07T08:42:30.999Z</time></trkpt><trkpt lat="45.63083893051228" lon="9.392678065065425"><ele>214.57142857142858</ele><time>2026-04-07T08:42:31.999Z</time></trkpt><trkpt lat="45.63078096669083" lon="9.392612751133058"><ele>214.42857142857144</ele><time>2026-04-07T08:42:33Z</time></trkpt><trkpt lat="45.6307236745576" lon="9.392547825506067"><ele>214.28571428571428</ele><time>2026-04-07T08:42:34Z</time></trkpt><trkpt lat="45.63066654539491" lon="9.392482907322027"><ele>214.14285714285717</ele><time>2026-04-07T08:42:35Z</time></trkpt><trkpt lat="45.630609117085" lon="9.39241662095091"><ele>214.0</ele><time>2026-04-07T08:42:36Z</time></trkpt><trkpt lat="45.63055094255104" lon="9.392349473240877"><ele>213.99999999999997</ele><time>2026-04-07T08:42:37Z</time></trkpt><trkpt lat="45.63049232259527" lon="9.392281811402645"><ele>214.0</ele><time>2026-04-07T08:42:38Z</time></trkpt><trkpt lat="45.63043513950736" lon="9.392215808092807"><ele>214.0</ele><time>2026-04-07T08:42:39Z</time></trkpt><trkpt lat="45.63037369627942" lon="9.392145054940974"><ele>214.0</ele><time>2026-04-07T08:42:40Z</time></trkpt><trkpt lat="45.63031535359612" lon="9.392077707398967"><ele>213.99999999999997</ele><time>2026-04-07T08:42:41Z</time></trkpt><trkpt lat="45.630255809289764" lon="9.39200980868821"><ele>214.0</ele><time>2026-04-07T08:42:42Z</time></trkpt><trkpt lat="45.63019615044831" lon="9.391942964542533"><ele>213.49999999999997</ele><time>2026-04-07T08:42:43Z</time></trkpt><trkpt lat="45.6301362258776" lon="9.391875868196774"><ele>213.0</ele><time>2026-04-07T08:42:44Z</time></trkpt><trkpt lat="45.630075219952154" lon="9.391807561090301"><ele>212.5</ele><time>2026-04-07T08:42:45Z</time></trkpt><trkpt lat="45.63001441298406" lon="9.391740138812057"><ele>212.0</ele><time>2026-04-07T08:42:46Z</time></trkpt><trkpt lat="45.62995514096906" lon="9.391676233812387"><ele>211.49999999999997</ele><time>2026-04-07T08:42:47Z</time></trkpt><trkpt lat="45.62989313464528" lon="9.391609554746985"><ele>211.0</ele><time>2026-04-07T08:42:48Z</time></trkpt><trkpt lat="45.62983079465966" lon="9.3915429192727"><ele>211.0</ele><time>2026-04-07T08:42:49Z</time></trkpt><trkpt lat="45.629768859463205" lon="9.39148023063018"><ele>211.0</ele><time>2026-04-07T08:42:50Z</time></trkpt><trkpt lat="45.629710066222536" lon="9.391423754769823"><ele>211.0</ele><time>2026-04-07T08:42:51Z</time></trkpt><trkpt lat="45.62964158201305" lon="9.391364688308606"><ele>211.0</ele><time>2026-04-07T08:42:52Z</time></trkpt><trkpt lat="45.62957711730118" lon="9.3913154249996"><ele>211.0</ele><time>2026-04-07T08:42:53Z</time></trkpt><trkpt lat="45.6295139179391" lon="9.391269562389159"><ele>211.0</ele><time>2026-04-07T08:42:54Z</time></trkpt><trkpt lat="45.62944872208004" lon="9.391224662279063"><ele>211.0</ele><time>2026-04-07T08:42:55Z</time></trkpt><trkpt lat="45.629388313125546" lon="9.391182737652715"><ele>210.16666666666666</ele><time>2026-04-07T08:42:56Z</time></trkpt><trkpt lat="45.629328497944485" lon="9.39114078686003"><ele>209.33333333333331</ele><time>2026-04-07T08:42:57Z</time></trkpt><trkpt lat="45.629270141717086" lon="9.391099859291216"><ele>208.5</ele><time>2026-04-07T08:42:58Z</time></trkpt><trkpt lat="45.62920952220143" lon="9.391058301770771"><ele>207.66666666666669</ele><time>2026-04-07T08:42:59Z</time></trkpt><trkpt lat="45.62915235470826" lon="9.391019230199488"><ele>206.83333333333334</ele><time>2026-04-07T08:43:00Z</time></trkpt><trkpt lat="45.629044429632415" lon="9.390945467960309"><ele>206.0</ele><time>2026-04-07T08:43:02Z</time></trkpt><trkpt lat="45.628951522217015" lon="9.390882097372023"><ele>205.99999999999997</ele><time>2026-04-07T08:43:04Z</time></trkpt><trkpt lat="45.62889327250507" lon="9.39084238630836"><ele>206.0</ele><time>2026-04-07T08:43:05Z</time></trkpt><trkpt lat="45.62882601761533" lon="9.39079535073882"><ele>206.0</ele><time>2026-04-07T08:43:07Z</time></trkpt><trkpt lat="45.62875657851785" lon="9.390748580077942"><ele>206.0</ele><time>2026-04-07T08:43:10Z</time></trkpt><trkpt lat="45.62868857579344" lon="9.39070283727158"><ele>206.0</ele><time>2026-04-07T08:43:11Z</time></trkpt><trkpt lat="45.62862367330391" lon="9.390657962247358"><ele>205.99999999999997</ele><time>2026-04-07T08:43:13Z</time></trkpt><trkpt lat="45.62854943177557" lon="9.390607369058436"><ele>206.0</ele><time>2026-04-07T08:43:16Z</time></trkpt><trkpt lat="45.62848828583963" lon="9.390565357949692"><ele>206.0</ele><time>2026-04-07T08:43:18Z</time></trkpt><trkpt lat="45.62841225669047" lon="9.390513121137195"><ele>206.0</ele><time>2026-04-07T08:43:21Z</time></trkpt><trkpt lat="45.62834033921851" lon="9.390463709305049"><ele>206.0</ele><time>2026-04-07T08:43:24Z</time></trkpt><trkpt lat="45.628260684832966" lon="9.3904100535752"><ele>206.0</ele><time>2026-04-07T08:43:27Z</time></trkpt><trkpt lat="45.62817133167813" lon="9.390292387495025"><ele>206.0</ele><time>2026-04-07T08:43:30Z</time></trkpt><trkpt lat="45.62805837894433" lon="9.39023320327365"><ele>206.0</ele><time>2026-04-07T08:43:32Z</time></trkpt><trkpt lat="45.62795033096686" lon="9.3901949359826"><ele>206.0</ele><time>2026-04-07T08:43:34Z</time></trkpt><trkpt lat="45.62783769380064" lon="9.390135395001659"><ele>206.0</ele><time>2026-04-07T08:43:36Z</time></trkpt><trkpt lat="45.62777894210155" lon="9.390097804535806"><ele>206.0</ele><time>2026-04-07T08:43:37Z</time></trkpt><trkpt lat="45.627663012595775" lon="9.390022174216602"><ele>206.0</ele><time>2026-04-07T08:43:39Z</time></trkpt><trkpt lat="45.62760033211502" lon="9.389986571929771"><ele>206.14285714285714</ele><time>2026-04-07T08:43:40Z</time></trkpt><trkpt lat="45.62753920023219" lon="9.38994821078195"><ele>206.28571428571428</ele><time>2026-04-07T08:43:41Z</time></trkpt><trkpt lat="45.62747888874406" lon="9.389906731530264"><ele>206.42857142857144</ele><time>2026-04-07T08:43:42Z</time></trkpt><trkpt lat="45.62741806008874" lon="9.389861910203603"><ele>206.57142857142856</ele><time>2026-04-07T08:43:43Z</time></trkpt><trkpt lat="45.627352982194985" lon="9.389825979361161"><ele>206.71428571428572</ele><time>2026-04-07T08:43:44Z</time></trkpt><trkpt lat="45.62729012734363" lon="9.389785434052328"><ele>206.85714285714286</ele><time>2026-04-07T08:43:45Z</time></trkpt><trkpt lat="45.627227215401504" lon="9.389747933869412"><ele>207.0</ele><time>2026-04-07T08:43:46Z</time></trkpt><trkpt lat="45.62716383356021" lon="9.389705054035096"><ele>207.00000000000003</ele><time>2026-04-07T08:43:47Z</time></trkpt><trkpt lat="45.62710106980521" lon="9.38966494702378"><ele>207.0</ele><time>2026-04-07T08:43:48Z</time></trkpt><trkpt lat="45.62703768192558" lon="9.389621378441664"><ele>207.0</ele><time>2026-04-07T08:43:49Z</time></trkpt><trkpt lat="45.62697317962033" lon="9.389582441614426"><ele>207.0</ele><time>2026-04-07T08:43:50Z</time></trkpt><trkpt lat="45.62691148951723" lon="9.389540716734814"><ele>207.0</ele><time>2026-04-07T08:43:51Z</time></trkpt><trkpt lat="45.62684706244207" lon="9.38949892201362"><ele>207.00000000000003</ele><time>2026-04-07T08:43:51.999Z</time></trkpt><trkpt lat="45.62678355089266" lon="9.389459020708339"><ele>207.0</ele><time>2026-04-07T08:43:52.999Z</time></trkpt><trkpt lat="45.62672154152246" lon="9.389412079948837"><ele>207.00000000000003</ele><time>2026-04-07T08:43:53.999Z</time></trkpt><trkpt lat="45.62665824519592" lon="9.389368508568154"><ele>207.0</ele><time>2026-04-07T08:43:54.999Z</time></trkpt><trkpt lat="45.62659784010682" lon="9.389322911414682"><ele>207.0</ele><time>2026-04-07T08:43:55.999Z</time></trkpt><trkpt lat="45.62653570609684" lon="9.389278248900705"><ele>207.0</ele><time>2026-04-07T08:43:56.999Z</time></trkpt><trkpt lat="45.62647110717076" lon="9.389236280252664"><ele>207.0</ele><time>2026-04-07T08:43:57.999Z</time></trkpt><trkpt lat="45.62640758466495" lon="9.389197195956466"><ele>207.00000000000003</ele><time>2026-04-07T08:43:58.999Z</time></trkpt><trkpt lat="45.62634608053515" lon="9.389154720974672"><ele>207.0</ele><time>2026-04-07T08:43:59.999Z</time></trkpt><trkpt lat="45.626282859950045" lon="9.38911135482214"><ele>207.0</ele><time>2026-04-07T08:44:00.999Z</time></trkpt><trkpt lat="45.62622256347523" lon="9.389067630486727"><ele>207.0</ele><time>2026-04-07T08:44:01.999Z</time></trkpt><trkpt lat="45.62615913448307" lon="9.389027161230644"><ele>207.0</ele><time>2026-04-07T08:44:02.999Z</time></trkpt><trkpt lat="45.62608991051526" lon="9.388976453585542"><ele>207.0</ele><time>2026-04-07T08:44:03.999Z</time></trkpt><trkpt lat="45.626028522032364" lon="9.388943120887605"><ele>207.0</ele><time>2026-04-07T08:44:04.999Z</time></trkpt><trkpt lat="45.625965071098776" lon="9.388905934269804"><ele>207.0</ele><time>2026-04-07T08:44:05.999Z</time></trkpt><trkpt lat="45.625838540913826" lon="9.388833740788842"><ele>206.2</ele><time>2026-04-07T08:44:07.999Z</time></trkpt><trkpt lat="45.625775646188785" lon="9.388795953267742"><ele>205.39999999999998</ele><time>2026-04-07T08:44:08.999Z</time></trkpt><trkpt lat="45.62571392935211" lon="9.388760771174773"><ele>204.60000000000002</ele><time>2026-04-07T08:44:09.999Z</time></trkpt><trkpt lat="45.62565265039984" lon="9.388724726108304"><ele>203.8</ele><time>2026-04-07T08:44:10.999Z</time></trkpt><trkpt lat="45.62553052260522" lon="9.388658618971391"><ele>203.0</ele><time>2026-04-07T08:44:13Z</time></trkpt><trkpt lat="45.6254157800129" lon="9.388586092313332"><ele>203.00000000000003</ele><time>2026-04-07T08:44:15Z</time></trkpt><trkpt lat="45.625360282494235" lon="9.388535348772056"><ele>203.0</ele><time>2026-04-07T08:44:16Z</time></trkpt><trkpt lat="45.625246919119625" lon="9.388452505822219"><ele>203.0</ele><time>2026-04-07T08:44:18Z</time></trkpt><trkpt lat="45.62519080839397" lon="9.388410263924996"><ele>203.0</ele><time>2026-04-07T08:44:19Z</time></trkpt><trkpt lat="45.62513238579779" lon="9.388373993913326"><ele>203.00000000000003</ele><time>2026-04-07T08:44:20Z</time></trkpt><trkpt lat="45.62502244555716" lon="9.38829774601029"><ele>203.0</ele><time>2026-04-07T08:44:22Z</time></trkpt><trkpt lat="45.624923646237384" lon="9.388243756065163"><ele>202.8</ele><time>2026-04-07T08:44:24Z</time></trkpt><trkpt lat="45.624845763422684" lon="9.38819464519083"><ele>202.60000000000002</ele><time>2026-04-07T08:44:26Z</time></trkpt><trkpt lat="45.62475763666907" lon="9.388132801889165"><ele>202.39999999999998</ele><time>2026-04-07T08:44:27Z</time></trkpt><trkpt lat="45.624851381782" lon="9.38796805973018"><ele>202.2</ele><time>2026-04-07T08:44:28Z</time></trkpt><trkpt lat="45.62475503612713" lon="9.38788729735747"><ele>202.0</ele><time>2026-04-07T08:44:30Z</time></trkpt><trkpt lat="45.624622807433404" lon="9.387865822557684"><ele>202.0</ele><time>2026-04-07T08:44:32Z</time></trkpt><trkpt lat="45.62453785609752" lon="9.38781132472839"><ele>202.0</ele><time>2026-04-07T08:44:34Z</time></trkpt><trkpt lat="45.62444272886076" lon="9.387774764816625"><ele>202.0</ele><time>2026-04-07T08:44:36Z</time></trkpt><trkpt lat="45.624363486458925" lon="9.387785969321788"><ele>202.0</ele><time>2026-04-07T08:44:38Z</time></trkpt><trkpt lat="45.62428921509343" lon="9.38779151013642"><ele>202.0</ele><time>2026-04-07T08:44:40Z</time></trkpt><trkpt lat="45.62432291883699" lon="9.387560794967694"><ele>201.66666666666666</ele><time>2026-04-07T08:44:42Z</time></trkpt><trkpt lat="45.624336631633334" lon="9.387434945670359"><ele>201.33333333333331</ele><time>2026-04-07T08:44:44Z</time></trkpt><trkpt lat="45.62412615423627" lon="9.387183592836667"><ele>201.0</ele><time>2026-04-07T08:44:45Z</time></trkpt><trkpt lat="45.62419269798538" lon="9.387062124833301"><ele>200.75</ele><time>2026-04-07T08:44:47Z</time></trkpt><trkpt lat="45.62423799020728" lon="9.386985934127063"><ele>200.5</ele><time>2026-04-07T08:44:49Z</time></trkpt><trkpt lat="45.6242879686382" lon="9.386901859775765"><ele>200.25</ele><time>2026-04-07T08:44:52Z</time></trkpt><trkpt lat="45.62451340093672" lon="9.38709260583896"><ele>200.0</ele><time>2026-04-07T08:44:55Z</time></trkpt><trkpt lat="45.62450079315558" lon="9.38699802819645"><ele>200.00000000000003</ele><time>2026-04-07T08:44:57Z</time></trkpt><trkpt lat="45.62448754280189" lon="9.386907810616606"><ele>200.0</ele><time>2026-04-07T08:44:59Z</time></trkpt><trkpt lat="45.62442121058658" lon="9.386860409927934"><ele>200.0</ele><time>2026-04-07T08:45:01Z</time></trkpt><trkpt lat="45.62435518030169" lon="9.38679569804096"><ele>200.0</ele><time>2026-04-07T08:45:03Z</time></trkpt><trkpt lat="45.62427891443707" lon="9.386739176715684"><ele>200.00000000000003</ele><time>2026-04-07T08:45:05Z</time></trkpt><trkpt lat="45.62419277818456" lon="9.386683679080233"><ele>200.0</ele><time>2026-04-07T08:45:07Z</time></trkpt><trkpt lat="45.6241027134668" lon="9.386626324450052"><ele>200.0</ele><time>2026-04-07T08:45:09Z</time></trkpt><trkpt lat="45.62401131853368" lon="9.386557679810423"><ele>200.0</ele><time>2026-04-07T08:45:11Z</time></trkpt><trkpt lat="45.62390512319346" lon="9.38652433196901"><ele>200.0</ele><time>2026-04-07T08:45:13Z</time></trkpt><trkpt lat="45.62378550411255" lon="9.386547655547053"><ele>200.0</ele><time>2026-04-07T08:45:15Z</time></trkpt><trkpt lat="45.623709902611544" lon="9.386645834886478"><ele>200.0</ele><time>2026-04-07T08:45:17Z</time></trkpt><trkpt lat="45.623614819026905" lon="9.386724251797013"><ele>199.6</ele><time>2026-04-07T08:45:19Z</time></trkpt><trkpt lat="45.62352545746084" lon="9.386807405456597"><ele>199.2</ele><time>2026-04-07T08:45:21Z</time></trkpt><trkpt lat="45.6234349415444" lon="9.386893871548006"><ele>198.8</ele><time>2026-04-07T08:45:23Z</time></trkpt><trkpt lat="45.62334575979174" lon="9.386968729815854"><ele>198.4</ele><time>2026-04-07T08:45:25Z</time></trkpt><trkpt lat="45.623268166620264" lon="9.387061539835516"><ele>198.0</ele><time>2026-04-07T08:45:27Z</time></trkpt><trkpt lat="45.6231841702123" lon="9.38713846053553"><ele>198.0</ele><time>2026-04-07T08:45:29Z</time></trkpt><trkpt lat="45.62308091937984" lon="9.387115347087573"><ele>198.0</ele><time>2026-04-07T08:45:31Z</time></trkpt><trkpt lat="45.62298131867709" lon="9.387072060737419"><ele>198.0</ele><time>2026-04-07T08:45:33Z</time></trkpt><trkpt lat="45.622875722300904" lon="9.38703350445007"><ele>198.0</ele><time>2026-04-07T08:45:35Z</time></trkpt><trkpt lat="45.622765897116835" lon="9.38698762825754"><ele>198.0</ele><time>2026-04-07T08:45:37Z</time></trkpt><trkpt lat="45.62265616370322" lon="9.386961391593134"><ele>198.16666666666666</ele><time>2026-04-07T08:45:39Z</time></trkpt><trkpt lat="45.62254215863121" lon="9.386919443582595"><ele>198.33333333333331</ele><time>2026-04-07T08:45:41Z</time></trkpt><trkpt lat="45.62242038360214" lon="9.38687452683039"><ele>198.5</ele><time>2026-04-07T08:45:43Z</time></trkpt><trkpt lat="45.62235653922127" lon="9.386851733843944"><ele>198.66666666666666</ele><time>2026-04-07T08:45:44Z</time></trkpt><trkpt lat="45.62229203362175" lon="9.386828024089642"><ele>198.83333333333331</ele><time>2026-04-07T08:45:45Z</time></trkpt><trkpt lat="45.62222834871601" lon="9.386804118524267"><ele>199.0</ele><time>2026-04-07T08:45:46Z</time></trkpt><trkpt lat="45.62216218014396" lon="9.386780544889097"><ele>198.99999999999997</ele><time>2026-04-07T08:45:47Z</time></trkpt><trkpt lat="45.622097146968606" lon="9.386754587598869"><ele>199.0</ele><time>2026-04-07T08:45:48Z</time></trkpt><trkpt lat="45.622030459216276" lon="9.386732354780582"><ele>199.0</ele><time>2026-04-07T08:45:49Z</time></trkpt><trkpt lat="45.6219645874259" lon="9.386705113935584"><ele>199.0</ele><time>2026-04-07T08:45:50Z</time></trkpt><trkpt lat="45.62189700451956" lon="9.386678436119649"><ele>199.0</ele><time>2026-04-07T08:45:51Z</time></trkpt><trkpt lat="45.62182869222696" lon="9.386647550825703"><ele>198.99999999999997</ele><time>2026-04-07T08:45:52Z</time></trkpt><trkpt lat="45.621761821752585" lon="9.386615383059501"><ele>199.0</ele><time>2026-04-07T08:45:53Z</time></trkpt><trkpt lat="45.62169508511162" lon="9.386581844992044"><ele>198.7142857142857</ele><time>2026-04-07T08:45:54Z</time></trkpt><trkpt lat="45.621630979111416" lon="9.386542923881024"><ele>198.42857142857142</ele><time>2026-04-07T08:45:55Z</time></trkpt><trkpt lat="45.62156730995093" lon="9.386497724673497"><ele>198.14285714285714</ele><time>2026-04-07T08:45:56Z</time></trkpt><trkpt lat="45.62150442705177" lon="9.386450409646189"><ele>197.85714285714283</ele><time>2026-04-07T08:45:57Z</time></trkpt><trkpt lat="45.62144351572499" lon="9.386398401811718"><ele>197.57142857142858</ele><time>2026-04-07T08:45:57.999Z</time></trkpt><trkpt lat="45.62138765171616" lon="9.386333801114333"><ele>197.28571428571428</ele><time>2026-04-07T08:45:58.999Z</time></trkpt><trkpt lat="45.62133419944352" lon="9.386269971898097"><ele>197.0</ele><time>2026-04-07T08:45:59.999Z</time></trkpt><trkpt lat="45.62128259499542" lon="9.38619793653798"><ele>197.0</ele><time>2026-04-07T08:46:00.999Z</time></trkpt><trkpt lat="45.621236240145144" lon="9.386125301663293"><ele>197.0</ele><time>2026-04-07T08:46:01.999Z</time></trkpt><trkpt lat="45.62119046400696" lon="9.386050342320342"><ele>197.0</ele><time>2026-04-07T08:46:02.999Z</time></trkpt><trkpt lat="45.62114760843927" lon="9.385971301630125"><ele>197.0</ele><time>2026-04-07T08:46:03.999Z</time></trkpt><trkpt lat="45.62110938657264" lon="9.385887629453512"><ele>197.0</ele><time>2026-04-07T08:46:04.999Z</time></trkpt><trkpt lat="45.62107104204752" lon="9.38580623490607"><ele>197.0</ele><time>2026-04-07T08:46:05.999Z</time></trkpt><trkpt lat="45.62103291572934" lon="9.385723194766797"><ele>197.0</ele><time>2026-04-07T08:46:06.999Z</time></trkpt><trkpt lat="45.62099843457637" lon="9.38563695429549"><ele>196.83333333333334</ele><time>2026-04-07T08:46:07.999Z</time></trkpt><trkpt lat="45.62096656051144" lon="9.385550708215549"><ele>196.66666666666669</ele><time>2026-04-07T08:46:08.999Z</time></trkpt><trkpt lat="45.620938674498916" lon="9.385461935383667"><ele>196.5</ele><time>2026-04-07T08:46:09.999Z</time></trkpt><trkpt lat="45.620916869326145" lon="9.38537447850195"><ele>196.33333333333331</ele><time>2026-04-07T08:46:10.999Z</time></trkpt><trkpt lat="45.620900609980026" lon="9.385286427965083"><ele>196.16666666666666</ele><time>2026-04-07T08:46:11.999Z</time></trkpt><trkpt lat="45.6208930657461" lon="9.385111197181974"><ele>196.0</ele><time>2026-04-07T08:46:13.999Z</time></trkpt><trkpt lat="45.620893798802044" lon="9.38494969859687"><ele>196.8</ele><time>2026-04-07T08:46:16Z</time></trkpt><trkpt lat="45.620892809813554" lon="9.384798784349863"><ele>197.60000000000002</ele><time>2026-04-07T08:46:18Z</time></trkpt><trkpt lat="45.620891297181004" lon="9.384650885772242"><ele>198.4</ele><time>2026-04-07T08:46:20Z</time></trkpt><trkpt lat="45.62089034967303" lon="9.384499278194982"><ele>199.2</ele><time>2026-04-07T08:46:22Z</time></trkpt><trkpt lat="45.620895554128616" lon="9.38434207254726"><ele>200.0</ele><time>2026-04-07T08:46:24Z</time></trkpt><trkpt lat="45.620893535197254" lon="9.384193353052826"><ele>200.6</ele><time>2026-04-07T08:46:26Z</time></trkpt><trkpt lat="45.620895921658395" lon="9.384051896991714"><ele>201.2</ele><time>2026-04-07T08:46:28Z</time></trkpt><trkpt lat="45.62090162914995" lon="9.383912859982127"><ele>201.8</ele><time>2026-04-07T08:46:30Z</time></trkpt><trkpt lat="45.62090570765122" lon="9.38377099729305"><ele>202.4</ele><time>2026-04-07T08:46:32Z</time></trkpt><trkpt lat="45.620908678568355" lon="9.383633528841479"><ele>203.0</ele><time>2026-04-07T08:46:34Z</time></trkpt><trkpt lat="45.62087444907175" lon="9.383515267943244"><ele>203.16666666666669</ele><time>2026-04-07T08:46:36Z</time></trkpt><trkpt lat="45.620847001095164" lon="9.383375489978514"><ele>203.33333333333334</ele><time>2026-04-07T08:46:38Z</time></trkpt><trkpt lat="45.6208396990824" lon="9.383204497991533"><ele>203.5</ele><time>2026-04-07T08:46:40Z</time></trkpt><trkpt lat="45.62085174577333" lon="9.383113540202359"><ele>203.66666666666669</ele><time>2026-04-07T08:46:41Z</time></trkpt><trkpt lat="45.620869257538025" lon="9.383020020479675"><ele>203.83333333333334</ele><time>2026-04-07T08:46:42Z</time></trkpt><trkpt lat="45.620884469507075" lon="9.382926419654309"><ele>204.0</ele><time>2026-04-07T08:46:43Z</time></trkpt><trkpt lat="45.62087240569944" lon="9.382832434020878"><ele>204.0</ele><time>2026-04-07T08:46:44Z</time></trkpt><trkpt lat="45.62084058956599" lon="9.3827512737092"><ele>204.0</ele><time>2026-04-07T08:46:45Z</time></trkpt><trkpt lat="45.62079461328579" lon="9.382688799187832"><ele>204.0</ele><time>2026-04-07T08:46:46Z</time></trkpt><trkpt lat="45.6207355585806" lon="9.38265030436281"><ele>204.0</ele><time>2026-04-07T08:46:47Z</time></trkpt><trkpt lat="45.6206171126613" lon="9.382634998892799"><ele>204.0</ele><time>2026-04-07T08:46:49Z</time></trkpt><trkpt lat="45.62049948616487" lon="9.382635365436085"><ele>204.0</ele><time>2026-04-07T08:46:51Z</time></trkpt><trkpt lat="45.62037703283148" lon="9.382638391222502"><ele>204.39999999999998</ele><time>2026-04-07T08:46:53Z</time></trkpt><trkpt lat="45.62031555691597" lon="9.382599730258873"><ele>204.8</ele><time>2026-04-07T08:46:54Z</time></trkpt><trkpt lat="45.62020706662666" lon="9.382572479134664"><ele>205.2</ele><time>2026-04-07T08:46:56Z</time></trkpt><trkpt lat="45.620089156266275" lon="9.382545674696125"><ele>205.60000000000002</ele><time>2026-04-07T08:46:58Z</time></trkpt><trkpt lat="45.619964936826634" lon="9.382517430192564"><ele>206.0</ele><time>2026-04-07T08:47:00Z</time></trkpt><trkpt lat="45.61984068622311" lon="9.382486504378004"><ele>205.99999999999997</ele><time>2026-04-07T08:47:02Z</time></trkpt><trkpt lat="45.61977563720923" lon="9.38247092476234"><ele>206.0</ele><time>2026-04-07T08:47:03Z</time></trkpt><trkpt lat="45.61970995189503" lon="9.382458109371221"><ele>206.0</ele><time>2026-04-07T08:47:04Z</time></trkpt><trkpt lat="45.619643967690756" lon="9.382443645567749"><ele>206.0</ele><time>2026-04-07T08:47:05Z</time></trkpt><trkpt lat="45.619578841755434" lon="9.382425994025903"><ele>206.0</ele><time>2026-04-07T08:47:06Z</time></trkpt><trkpt lat="45.619513159520814" lon="9.382410531352974"><ele>205.99999999999997</ele><time>2026-04-07T08:47:07Z</time></trkpt><trkpt lat="45.6194482523519" lon="9.38239535691386"><ele>206.0</ele><time>2026-04-07T08:47:08Z</time></trkpt><trkpt lat="45.619382739218956" lon="9.38238093529394"><ele>205.28571428571428</ele><time>2026-04-07T08:47:09Z</time></trkpt><trkpt lat="45.61931822484682" lon="9.382367956220719"><ele>204.57142857142856</ele><time>2026-04-07T08:47:10Z</time></trkpt><trkpt lat="45.619252217647805" lon="9.382355877995023"><ele>203.85714285714283</ele><time>2026-04-07T08:47:11Z</time></trkpt><trkpt lat="45.619187849599314" lon="9.382347469515445"><ele>203.14285714285714</ele><time>2026-04-07T08:47:12Z</time></trkpt><trkpt lat="45.61912293022788" lon="9.382349483784372"><ele>202.42857142857144</ele><time>2026-04-07T08:47:13Z</time></trkpt><trkpt lat="45.619057272811624" lon="9.382350589086839"><ele>201.7142857142857</ele><time>2026-04-07T08:47:14Z</time></trkpt><trkpt lat="45.618992686215925" lon="9.382351025648319"><ele>201.0</ele><time>2026-04-07T08:47:15Z</time></trkpt><trkpt lat="45.61892926893822" lon="9.382358965083476"><ele>201.0</ele><time>2026-04-07T08:47:16Z</time></trkpt><trkpt lat="45.61886650341479" lon="9.38237812672734"><ele>201.0</ele><time>2026-04-07T08:47:17Z</time></trkpt><trkpt lat="45.61880297119896" lon="9.38239918832342"><ele>201.0</ele><time>2026-04-07T08:47:18Z</time></trkpt><trkpt lat="45.61869178697902" lon="9.382465480991765"><ele>201.0</ele><time>2026-04-07T08:47:20Z</time></trkpt><trkpt lat="45.618618669866514" lon="9.38243032348942"><ele>201.0</ele><time>2026-04-07T08:47:21Z</time></trkpt><trkpt lat="45.618500154155896" lon="9.382380439948733"><ele>201.25</ele><time>2026-04-07T08:47:23Z</time></trkpt><trkpt lat="45.61845152131992" lon="9.382237496472673"><ele>201.5</ele><time>2026-04-07T08:47:25Z</time></trkpt><trkpt lat="45.61836309308783" lon="9.382143209336826"><ele>201.75</ele><time>2026-04-07T08:47:27Z</time></trkpt><trkpt lat="45.61822911359718" lon="9.382215592115877"><ele>202.0</ele><time>2026-04-07T08:47:29Z</time></trkpt><trkpt lat="45.61813267375282" lon="9.38217067153568"><ele>202.0</ele><time>2026-04-07T08:47:31Z</time></trkpt><trkpt lat="45.618024257393046" lon="9.382167784477856"><ele>202.0</ele><time>2026-04-07T08:47:33Z</time></trkpt><trkpt lat="45.61790127065362" lon="9.382135496868933"><ele>202.0</ele><time>2026-04-07T08:47:35Z</time></trkpt><trkpt lat="45.6177844875031" lon="9.382135368703105"><ele>202.0</ele><time>2026-04-07T08:47:37Z</time></trkpt><trkpt lat="45.61766616631266" lon="9.382135946435847"><ele>201.75</ele><time>2026-04-07T08:47:39Z</time></trkpt><trkpt lat="45.617548266965336" lon="9.382133872619148"><ele>201.5</ele><time>2026-04-07T08:47:41Z</time></trkpt><trkpt lat="45.617430227348066" lon="9.38215406066027"><ele>201.25</ele><time>2026-04-07T08:47:43Z</time></trkpt><trkpt lat="45.61731131101807" lon="9.382150590890522"><ele>201.0</ele><time>2026-04-07T08:47:45Z</time></trkpt><trkpt lat="45.61719191958201" lon="9.38214710725699"><ele>201.0</ele><time>2026-04-07T08:47:47Z</time></trkpt><trkpt lat="45.617071628654976" lon="9.382143597379045"><ele>201.0</ele><time>2026-04-07T08:47:49Z</time></trkpt><trkpt lat="45.61694649502635" lon="9.38214000100579"><ele>201.0</ele><time>2026-04-07T08:47:51Z</time></trkpt><trkpt lat="45.61682796688699" lon="9.382136625415798"><ele>201.0</ele><time>2026-04-07T08:47:53Z</time></trkpt><trkpt lat="45.61670606584866" lon="9.382131191097876"><ele>200.83333333333334</ele><time>2026-04-07T08:47:55Z</time></trkpt><trkpt lat="45.616583560516" lon="9.382124091923814"><ele>200.66666666666669</ele><time>2026-04-07T08:47:57Z</time></trkpt><trkpt lat="45.616519732927635" lon="9.382118920302712"><ele>200.5</ele><time>2026-04-07T08:47:58Z</time></trkpt><trkpt lat="45.61639812358486" lon="9.3820995025651"><ele>200.33333333333334</ele><time>2026-04-07T08:48:00Z</time></trkpt><trkpt lat="45.61633401104732" lon="9.382088044975072"><ele>200.16666666666669</ele><time>2026-04-07T08:48:01Z</time></trkpt><trkpt lat="45.61627139419319" lon="9.382075584033133"><ele>200.0</ele><time>2026-04-07T08:48:02Z</time></trkpt><trkpt lat="45.61615156284976" lon="9.382048981729993"><ele>200.0</ele><time>2026-04-07T08:48:04Z</time></trkpt><trkpt lat="45.61608650053204" lon="9.382022022640484"><ele>200.0</ele><time>2026-04-07T08:48:05Z</time></trkpt><trkpt lat="45.61596781203617" lon="9.381976537073825"><ele>200.0</ele><time>2026-04-07T08:48:07Z</time></trkpt><trkpt lat="45.61584893119394" lon="9.381933804612341"><ele>200.0</ele><time>2026-04-07T08:48:09Z</time></trkpt><trkpt lat="45.61573169969362" lon="9.381893492024208"><ele>200.0</ele><time>2026-04-07T08:48:11Z</time></trkpt><trkpt lat="45.6156199386045" lon="9.381859770107202"><ele>200.0</ele><time>2026-04-07T08:48:13Z</time></trkpt><trkpt lat="45.615501491140016" lon="9.381832333793366"><ele>200.0</ele><time>2026-04-07T08:48:15Z</time></trkpt><trkpt lat="45.615383246891355" lon="9.381807443180048"><ele>200.0</ele><time>2026-04-07T08:48:17Z</time></trkpt><trkpt lat="45.61526964016096" lon="9.381784240693706"><ele>200.0</ele><time>2026-04-07T08:48:19Z</time></trkpt><trkpt lat="45.615152138064694" lon="9.381760242667966"><ele>199.5</ele><time>2026-04-07T08:48:21Z</time></trkpt><trkpt lat="45.61503115305518" lon="9.38173570026928"><ele>199.0</ele><time>2026-04-07T08:48:23Z</time></trkpt><trkpt lat="45.61490740612159" lon="9.381709702424864"><ele>198.5</ele><time>2026-04-07T08:48:25Z</time></trkpt><trkpt lat="45.61478652779476" lon="9.381681987368884"><ele>198.0</ele><time>2026-04-07T08:48:27Z</time></trkpt><trkpt lat="45.614691718407606" lon="9.381724303128022"><ele>198.0</ele><time>2026-04-07T08:48:29Z</time></trkpt><trkpt lat="45.61455183201428" lon="9.381531429598686"><ele>198.0</ele><time>2026-04-07T08:48:31Z</time></trkpt><trkpt lat="45.61443181552298" lon="9.381530120868339"><ele>198.0</ele><time>2026-04-07T08:48:33Z</time></trkpt><trkpt lat="45.614370749323854" lon="9.381568238505375"><ele>198.0</ele><time>2026-04-07T08:48:34Z</time></trkpt><trkpt lat="45.61424730397793" lon="9.381571179775305"><ele>197.66666666666666</ele><time>2026-04-07T08:48:36Z</time></trkpt><trkpt lat="45.61412339067817" lon="9.381569656011921"><ele>197.33333333333331</ele><time>2026-04-07T08:48:38Z</time></trkpt><trkpt lat="45.614058888306324" lon="9.381566362660463"><ele>197.0</ele><time>2026-04-07T08:48:39Z</time></trkpt><trkpt lat="45.6139909368251" lon="9.381562429911884"><ele>196.66666666666666</ele><time>2026-04-07T08:48:40Z</time></trkpt><trkpt lat="45.613926694130704" lon="9.381557875558185"><ele>196.33333333333331</ele><time>2026-04-07T08:48:41Z</time></trkpt><trkpt lat="45.61380592244932" lon="9.381569266113846"><ele>196.0</ele><time>2026-04-07T08:48:43Z</time></trkpt><trkpt lat="45.61373480846802" lon="9.381480538844842"><ele>195.99999999999997</ele><time>2026-04-07T08:48:44Z</time></trkpt><trkpt lat="45.61367087520414" lon="9.381460728136348"><ele>196.0</ele><time>2026-04-07T08:48:45Z</time></trkpt><trkpt lat="45.61361032238327" lon="9.381435242633133"><ele>196.0</ele><time>2026-04-07T08:48:46Z</time></trkpt><trkpt lat="45.61349480647842" lon="9.381385455454916"><ele>196.0</ele><time>2026-04-07T08:48:48Z</time></trkpt><trkpt lat="45.613434829090366" lon="9.381355977731376"><ele>195.99999999999997</ele><time>2026-04-07T08:48:49Z</time></trkpt><trkpt lat="45.61331574847321" lon="9.381306473965001"><ele>196.0</ele><time>2026-04-07T08:48:51Z</time></trkpt><trkpt lat="45.61319630633434" lon="9.381262755837676"><ele>196.0</ele><time>2026-04-07T08:48:53Z</time></trkpt><trkpt lat="45.613075504323824" lon="9.381248783307434"><ele>196.0</ele><time>2026-04-07T08:48:55Z</time></trkpt><trkpt lat="45.612964063118035" lon="9.381218799845296"><ele>196.0</ele><time>2026-04-07T08:48:57Z</time></trkpt><trkpt lat="45.612851431173546" lon="9.381195320766588"><ele>196.0</ele><time>2026-04-07T08:48:59Z</time></trkpt><trkpt lat="45.61272784952209" lon="9.3811249036465"><ele>196.0</ele><time>2026-04-07T08:49:01Z</time></trkpt><trkpt lat="45.61262312177886" lon="9.381049019397468"><ele>196.0</ele><time>2026-04-07T08:49:03Z</time></trkpt><trkpt lat="45.612525174415275" lon="9.380986789876003"><ele>196.0</ele><time>2026-04-07T08:49:05Z</time></trkpt><trkpt lat="45.61251579599078" lon="9.380809767639441"><ele>196.0</ele><time>2026-04-07T08:49:06Z</time></trkpt><trkpt lat="45.61242090660277" lon="9.380711562066862"><ele>196.0</ele><time>2026-04-07T08:49:08Z</time></trkpt><trkpt lat="45.61233079618708" lon="9.380598013943839"><ele>196.0</ele><time>2026-04-07T08:49:10Z</time></trkpt><trkpt lat="45.61223943589306" lon="9.380488956005442"><ele>196.0</ele><time>2026-04-07T08:49:12Z</time></trkpt><trkpt lat="45.61214535811924" lon="9.380382715212749"><ele>196.0</ele><time>2026-04-07T08:49:14Z</time></trkpt><trkpt lat="45.61205249814631" lon="9.380264030322227"><ele>195.60000000000002</ele><time>2026-04-07T08:49:16Z</time></trkpt><trkpt lat="45.612006500317825" lon="9.380200037136492"><ele>195.2</ele><time>2026-04-07T08:49:17Z</time></trkpt><trkpt lat="45.61191726914305" lon="9.380079762982966"><ele>194.8</ele><time>2026-04-07T08:49:19Z</time></trkpt><trkpt lat="45.61183341609854" lon="9.379973795605228"><ele>194.39999999999998</ele><time>2026-04-07T08:49:21Z</time></trkpt><trkpt lat="45.61175961600557" lon="9.37986586649749"><ele>194.0</ele><time>2026-04-07T08:49:23Z</time></trkpt><trkpt lat="45.61169193919854" lon="9.379751670548606"><ele>193.6</ele><time>2026-04-07T08:49:25Z</time></trkpt><trkpt lat="45.61161926211909" lon="9.37964884511635"><ele>193.2</ele><time>2026-04-07T08:49:27Z</time></trkpt><trkpt lat="45.61154129903991" lon="9.37955130561298"><ele>192.79999999999998</ele><time>2026-04-07T08:49:29Z</time></trkpt><trkpt lat="45.61145983776652" lon="9.379465005986905"><ele>192.39999999999998</ele><time>2026-04-07T08:49:31Z</time></trkpt><trkpt lat="45.61137251406782" lon="9.379369125047026"><ele>192.0</ele><time>2026-04-07T08:49:33Z</time></trkpt><trkpt lat="45.611285576332385" lon="9.379272960489047"><ele>192.0</ele><time>2026-04-07T08:49:35Z</time></trkpt><trkpt lat="45.61119740435369" lon="9.379170686282597"><ele>192.0</ele><time>2026-04-07T08:49:37Z</time></trkpt><trkpt lat="45.61110813138919" lon="9.379063747686969"><ele>192.0</ele><time>2026-04-07T08:49:39Z</time></trkpt><trkpt lat="45.611015995387405" lon="9.378953355328093"><ele>192.0</ele><time>2026-04-07T08:49:41Z</time></trkpt><trkpt lat="45.61093311554664" lon="9.378819575447727"><ele>192.5</ele><time>2026-04-07T08:49:43Z</time></trkpt><trkpt lat="45.61084462035461" lon="9.378694832223612"><ele>193.0</ele><time>2026-04-07T08:49:45Z</time></trkpt><trkpt lat="45.610758235003864" lon="9.378586454332437"><ele>193.5</ele><time>2026-04-07T08:49:47Z</time></trkpt><trkpt lat="45.61066779025924" lon="9.378475221404146"><ele>194.0</ele><time>2026-04-07T08:49:49Z</time></trkpt><trkpt lat="45.610578307131654" lon="9.378365006575537"><ele>194.0</ele><time>2026-04-07T08:49:51Z</time></trkpt><trkpt lat="45.61049218985595" lon="9.378254012530688"><ele>194.0</ele><time>2026-04-07T08:49:53Z</time></trkpt><trkpt lat="45.61041742488718" lon="9.378124594239964"><ele>194.0</ele><time>2026-04-07T08:49:55Z</time></trkpt><trkpt lat="45.61034835827211" lon="9.377995151463042"><ele>194.0</ele><time>2026-04-07T08:49:57Z</time></trkpt><trkpt lat="45.6102784946995" lon="9.37786716138919"><ele>193.6</ele><time>2026-04-07T08:49:59Z</time></trkpt><trkpt lat="45.6101996994062" lon="9.377752809317029"><ele>193.2</ele><time>2026-04-07T08:50:01Z</time></trkpt><trkpt lat="45.610130246642136" lon="9.377624581050219"><ele>192.79999999999998</ele><time>2026-04-07T08:50:03Z</time></trkpt><trkpt lat="45.61008283692514" lon="9.377490872986673"><ele>192.39999999999998</ele><time>2026-04-07T08:50:05Z</time></trkpt><trkpt lat="45.61002823829013" lon="9.377363177154622"><ele>192.0</ele><time>2026-04-07T08:50:07Z</time></trkpt><trkpt lat="45.6100300978834" lon="9.377204617114588"><ele>191.8</ele><time>2026-04-07T08:50:09Z</time></trkpt><trkpt lat="45.61000403122509" lon="9.37705190019959"><ele>191.6</ele><time>2026-04-07T08:50:11Z</time></trkpt><trkpt lat="45.60998980512484" lon="9.376898269907652"><ele>191.4</ele><time>2026-04-07T08:50:13Z</time></trkpt><trkpt lat="45.609980557912536" lon="9.376737350889474"><ele>191.20000000000002</ele><time>2026-04-07T08:50:15Z</time></trkpt><trkpt lat="45.60993912501652" lon="9.37659736208239"><ele>191.0</ele><time>2026-04-07T08:50:17Z</time></trkpt><trkpt lat="45.609981792279775" lon="9.376510794078197"><ele>190.75</ele><time>2026-04-07T08:50:18Z</time></trkpt><trkpt lat="45.60999994930552" lon="9.37634119253667"><ele>190.5</ele><time>2026-04-07T08:50:20Z</time></trkpt><trkpt lat="45.61001120646964" lon="9.376179532326898"><ele>190.25</ele><time>2026-04-07T08:50:22Z</time></trkpt><trkpt lat="45.610025334598994" lon="9.37602539242785"><ele>190.0</ele><time>2026-04-07T08:50:24Z</time></trkpt><trkpt lat="45.61003646539656" lon="9.375870017553385"><ele>190.0</ele><time>2026-04-07T08:50:26Z</time></trkpt><trkpt lat="45.610047063364476" lon="9.375723560712196"><ele>190.0</ele><time>2026-04-07T08:50:28Z</time></trkpt><trkpt lat="45.61006072548862" lon="9.375588652476774"><ele>190.0</ele><time>2026-04-07T08:50:30Z</time></trkpt><trkpt lat="45.610073376834016" lon="9.375466710935127"><ele>190.0</ele><time>2026-04-07T08:50:32Z</time></trkpt><trkpt lat="45.610089696258605" lon="9.375345729040014"><ele>190.0</ele><time>2026-04-07T08:50:34Z</time></trkpt><trkpt lat="45.61010138276211" lon="9.375240032545138"><ele>190.0</ele><time>2026-04-07T08:50:36Z</time></trkpt><trkpt lat="45.610203648090454" lon="9.37528303922673"><ele>190.0</ele><time>2026-04-07T08:50:42Z</time></trkpt><trkpt lat="45.61018818633771" lon="9.375439218877574"><ele>190.0</ele><time>2026-04-07T08:50:44Z</time></trkpt><trkpt lat="45.61016318955977" lon="9.37557008262574"><ele>190.0</ele><time>2026-04-07T08:50:46Z</time></trkpt><trkpt lat="45.61018083042617" lon="9.37569586374939"><ele>190.0</ele><time>2026-04-07T08:50:48Z</time></trkpt><trkpt lat="45.610274300658425" lon="9.375748337764286"><ele>190.0</ele><time>2026-04-07T08:50:50Z</time></trkpt><trkpt lat="45.61035013934411" lon="9.375695643580174"><ele>190.14285714285714</ele><time>2026-04-07T08:50:52Z</time></trkpt><trkpt lat="45.610423791132106" lon="9.375669545889842"><ele>190.28571428571428</ele><time>2026-04-07T08:50:54Z</time></trkpt><trkpt lat="45.61049374114927" lon="9.375607103916087"><ele>190.42857142857144</ele><time>2026-04-07T08:50:56Z</time></trkpt><trkpt lat="45.61056076365949" lon="9.37556388690338"><ele>190.57142857142856</ele><time>2026-04-07T08:50:58Z</time></trkpt><trkpt lat="45.61061162384925" lon="9.375504782974184"><ele>190.7142857142857</ele><time>2026-04-07T08:51:00Z</time></trkpt><trkpt lat="45.61057831808126" lon="9.375415553317273"><ele>190.85714285714286</ele><time>2026-04-07T08:51:03Z</time></trkpt><trkpt lat="45.610498545057844" lon="9.375423861683647"><ele>191.0</ele><time>2026-04-07T08:51:05Z</time></trkpt><trkpt lat="45.61042056837196" lon="9.375412558226547"><ele>190.8</ele><time>2026-04-07T08:51:07Z</time></trkpt><trkpt lat="45.610358124217015" lon="9.375351266163023"><ele>190.60000000000002</ele><time>2026-04-07T08:51:09Z</time></trkpt><trkpt lat="45.61031581217997" lon="9.375261066713966"><ele>190.4</ele><time>2026-04-07T08:51:11Z</time></trkpt><trkpt lat="45.6102821163134" lon="9.375155611390351"><ele>190.2</ele><time>2026-04-07T08:51:13Z</time></trkpt><trkpt lat="45.610125311822145" lon="9.374996883988588"><ele>190.0</ele><time>2026-04-07T08:51:15Z</time></trkpt><trkpt lat="45.610139550291706" lon="9.37487744826597"><ele>190.0</ele><time>2026-04-07T08:51:17Z</time></trkpt><trkpt lat="45.61015117550146" lon="9.374779933276683"><ele>190.0</ele><time>2026-04-07T08:51:19Z</time></trkpt><trkpt lat="45.61016453534732" lon="9.37466786765677"><ele>190.0</ele><time>2026-04-07T08:51:22Z</time></trkpt><trkpt lat="45.610340202218225" lon="9.374648062447235"><ele>190.0</ele><time>2026-04-07T08:53:28Z</time></trkpt><trkpt lat="45.61032752563502" lon="9.374545770107565"><ele>190.0</ele><time>2026-04-07T08:57:11.001Z</time></trkpt><trkpt lat="45.61035256881237" lon="9.374436373731257"><ele>190.66666666666669</ele><time>2026-04-07T08:57:14.001Z</time></trkpt><trkpt lat="45.610402351738806" lon="9.37435587262018"><ele>191.33333333333334</ele><time>2026-04-07T08:57:16.001Z</time></trkpt><trkpt lat="45.6104603247932" lon="9.374287111918083"><ele>192.0</ele><time>2026-04-07T08:57:18.001Z</time></trkpt><trkpt lat="45.610510454838035" lon="9.374221541603916"><ele>192.66666666666669</ele><time>2026-04-07T08:57:20.001Z</time></trkpt><trkpt lat="45.6105651228567" lon="9.374116553255845"><ele>193.33333333333334</ele><time>2026-04-07T08:57:23.001Z</time></trkpt><trkpt lat="45.61062292139253" lon="9.374007928231151"><ele>194.0</ele><time>2026-04-07T08:57:26.001Z</time></trkpt><trkpt lat="45.61063946647118" lon="9.373899161801027"><ele>194.33333333333334</ele><time>2026-04-07T08:57:28.001Z</time></trkpt><trkpt lat="45.61066125437904" lon="9.37379274478211"><ele>194.66666666666669</ele><time>2026-04-07T08:57:30.001Z</time></trkpt><trkpt lat="45.61068397541573" lon="9.373671910849342"><ele>195.0</ele><time>2026-04-07T08:57:32.001Z</time></trkpt><trkpt lat="45.610717097864885" lon="9.37356086454005"><ele>195.33333333333331</ele><time>2026-04-07T08:57:34.001Z</time></trkpt><trkpt lat="45.610729989485506" lon="9.373429576602652"><ele>195.66666666666666</ele><time>2026-04-07T08:57:36.001Z</time></trkpt><trkpt lat="45.610740547040585" lon="9.37330204120255"><ele>196.0</ele><time>2026-04-07T08:57:38.001Z</time></trkpt><trkpt lat="45.61074312851219" lon="9.373166714766853"><ele>195.99999999999997</ele><time>2026-04-07T08:57:40.001Z</time></trkpt><trkpt lat="45.61073608170774" lon="9.37303511753469"><ele>196.0</ele><time>2026-04-07T08:57:42.001Z</time></trkpt><trkpt lat="45.61070195296843" lon="9.372916580441553"><ele>196.0</ele><time>2026-04-07T08:57:44.001Z</time></trkpt><trkpt lat="45.61065348315718" lon="9.372821298300376"><ele>196.0</ele><time>2026-04-07T08:57:46.001Z</time></trkpt><trkpt lat="45.61059346064921" lon="9.372766776375965"><ele>195.99999999999997</ele><time>2026-04-07T08:57:48.001Z</time></trkpt><trkpt lat="45.61052634654054" lon="9.372687420744645"><ele>196.0</ele><time>2026-04-07T08:57:50.001Z</time></trkpt><trkpt lat="45.61046674845032" lon="9.372629187053628"><ele>196.0</ele><time>2026-04-07T08:57:53.001Z</time></trkpt><trkpt lat="45.6104434120127" lon="9.372513473868258"><ele>196.0</ele><time>2026-04-07T08:57:57.001Z</time></trkpt><trkpt lat="45.61043420105271" lon="9.372371053369278"><ele>196.0</ele><time>2026-04-07T08:57:59.001Z</time></trkpt><trkpt lat="45.61047188413679" lon="9.372210294880478"><ele>196.0</ele><time>2026-04-07T08:58:01.001Z</time></trkpt><trkpt lat="45.61048688161409" lon="9.37204400731309"><ele>196.0</ele><time>2026-04-07T08:58:03.001Z</time></trkpt><trkpt lat="45.61052794837628" lon="9.371880521264032"><ele>195.5</ele><time>2026-04-07T08:58:05.001Z</time></trkpt><trkpt lat="45.610545623087305" lon="9.371709580414361"><ele>195.0</ele><time>2026-04-07T08:58:07.001Z</time></trkpt><trkpt lat="45.61056426808469" lon="9.371537555883656"><ele>194.5</ele><time>2026-04-07T08:58:09.001Z</time></trkpt><trkpt lat="45.610584277561316" lon="9.37136977196501"><ele>194.0</ele><time>2026-04-07T08:58:11.001Z</time></trkpt><trkpt lat="45.610601681249676" lon="9.371210031029788"><ele>193.25</ele><time>2026-04-07T08:58:13.001Z</time></trkpt><trkpt lat="45.61061890377829" lon="9.371052497732268"><ele>192.5</ele><time>2026-04-07T08:58:15.001Z</time></trkpt><trkpt lat="45.61062463689217" lon="9.370886974571947"><ele>191.75</ele><time>2026-04-07T08:58:17.001Z</time></trkpt><trkpt lat="45.61060700258617" lon="9.370723603724716"><ele>191.0</ele><time>2026-04-07T08:58:19.001Z</time></trkpt><trkpt lat="45.610577475099625" lon="9.370564257833863"><ele>191.20000000000002</ele><time>2026-04-07T08:58:21.001Z</time></trkpt><trkpt lat="45.61053391356662" lon="9.37041197754779"><ele>191.4</ele><time>2026-04-07T08:58:23.001Z</time></trkpt><trkpt lat="45.61048716120776" lon="9.370269154616054"><ele>191.6</ele><time>2026-04-07T08:58:25.001Z</time></trkpt><trkpt lat="45.610451161222365" lon="9.370118441546635"><ele>191.8</ele><time>2026-04-07T08:58:27.001Z</time></trkpt><trkpt lat="45.61043913295262" lon="9.369959530015441"><ele>192.0</ele><time>2026-04-07T08:58:29.001Z</time></trkpt><trkpt lat="45.61043122636726" lon="9.36980526525476"><ele>192.0</ele><time>2026-04-07T08:58:31.001Z</time></trkpt><trkpt lat="45.61037949293916" lon="9.369678217116613"><ele>192.0</ele><time>2026-04-07T08:58:33.001Z</time></trkpt><trkpt lat="45.61025183157774" lon="9.369640815560844"><ele>192.0</ele><time>2026-04-07T08:58:35.001Z</time></trkpt><trkpt lat="45.610140550813966" lon="9.369585248188283"><ele>192.0</ele><time>2026-04-07T08:58:37.001Z</time></trkpt><trkpt lat="45.61002536496393" lon="9.369528381507719"><ele>191.83333333333334</ele><time>2026-04-07T08:58:39.001Z</time></trkpt><trkpt lat="45.60996164492824" lon="9.369534655455187"><ele>191.66666666666666</ele><time>2026-04-07T08:58:40.001Z</time></trkpt><trkpt lat="45.60990867303094" lon="9.369464568393111"><ele>191.5</ele><time>2026-04-07T08:58:41.001Z</time></trkpt><trkpt lat="45.60979014248283" lon="9.36940401374148"><ele>191.33333333333331</ele><time>2026-04-07T08:58:43.001Z</time></trkpt><trkpt lat="45.60972855414668" lon="9.369380033896608"><ele>191.16666666666666</ele><time>2026-04-07T08:58:44.001Z</time></trkpt><trkpt lat="45.6096655355355" lon="9.369355368064602"><ele>191.0</ele><time>2026-04-07T08:58:45.001Z</time></trkpt><trkpt lat="45.609604143332454" lon="9.369324937923157"><ele>191.0</ele><time>2026-04-07T08:58:46.001Z</time></trkpt><trkpt lat="45.609543128542896" lon="9.36928716071671"><ele>191.0</ele><time>2026-04-07T08:58:47.001Z</time></trkpt><trkpt lat="45.609482868872966" lon="9.369249775813612"><ele>191.0</ele><time>2026-04-07T08:58:48.001Z</time></trkpt><trkpt lat="45.60942316720525" lon="9.36921643218237"><ele>191.0</ele><time>2026-04-07T08:58:49.001Z</time></trkpt><trkpt lat="45.60936258508649" lon="9.369183835193928"><ele>191.0</ele><time>2026-04-07T08:58:50.001Z</time></trkpt><trkpt lat="45.60930331830888" lon="9.369150296786858"><ele>191.0</ele><time>2026-04-07T08:58:51.001Z</time></trkpt><trkpt lat="45.609241030570715" lon="9.369123173554259"><ele>191.0</ele><time>2026-04-07T08:58:52.001Z</time></trkpt><trkpt lat="45.60918022896299" lon="9.369089813888339"><ele>191.0</ele><time>2026-04-07T08:58:53.001Z</time></trkpt><trkpt lat="45.60912018324851" lon="9.369055588948148"><ele>191.0</ele><time>2026-04-07T08:58:54.001Z</time></trkpt><trkpt lat="45.609059843908675" lon="9.36902476842461"><ele>191.0</ele><time>2026-04-07T08:58:55.001Z</time></trkpt><trkpt lat="45.60899984522036" lon="9.368990879729566"><ele>191.0</ele><time>2026-04-07T08:58:56.001Z</time></trkpt><trkpt lat="45.60893900090478" lon="9.3689607580033"><ele>191.0</ele><time>2026-04-07T08:58:57.001Z</time></trkpt><trkpt lat="45.608877115810714" lon="9.368932919308339"><ele>191.0</ele><time>2026-04-07T08:58:58.001Z</time></trkpt><trkpt lat="45.6087591902519" lon="9.368873767487656"><ele>191.0</ele><time>2026-04-07T08:59:00.001Z</time></trkpt><trkpt lat="45.60869881084414" lon="9.368840829247848"><ele>191.0</ele><time>2026-04-07T08:59:01.001Z</time></trkpt><trkpt lat="45.60863505833496" lon="9.3688113518401"><ele>191.0</ele><time>2026-04-07T08:59:02.001Z</time></trkpt><trkpt lat="45.60857628166495" lon="9.368776781871471"><ele>191.0</ele><time>2026-04-07T08:59:03.001Z</time></trkpt><trkpt lat="45.6085168099273" lon="9.368745534811726"><ele>191.0</ele><time>2026-04-07T08:59:04.001Z</time></trkpt><trkpt lat="45.608456677682256" lon="9.368711276229122"><ele>191.0</ele><time>2026-04-07T08:59:05.001Z</time></trkpt><trkpt lat="45.608394460340406" lon="9.368679645713444"><ele>191.0</ele><time>2026-04-07T08:59:06.001Z</time></trkpt><trkpt lat="45.6083311373817" lon="9.368653072066087"><ele>191.0</ele><time>2026-04-07T08:59:07.001Z</time></trkpt><trkpt lat="45.608270080558775" lon="9.368624474449607"><ele>191.0</ele><time>2026-04-07T08:59:08.001Z</time></trkpt><trkpt lat="45.6082080642401" lon="9.36859847078203"><ele>191.0</ele><time>2026-04-07T08:59:09.001Z</time></trkpt><trkpt lat="45.60814867111721" lon="9.36855836201443"><ele>191.0</ele><time>2026-04-07T08:59:10.001Z</time></trkpt><trkpt lat="45.608082509388275" lon="9.36853276311554"><ele>191.0</ele><time>2026-04-07T08:59:11.001Z</time></trkpt><trkpt lat="45.60801882759219" lon="9.368502993539892"><ele>191.0</ele><time>2026-04-07T08:59:12.001Z</time></trkpt><trkpt lat="45.60796029195965" lon="9.368467713215713"><ele>191.0</ele><time>2026-04-07T08:59:13.001Z</time></trkpt><trkpt lat="45.607900486592165" lon="9.368435205413098"><ele>191.0</ele><time>2026-04-07T08:59:14.001Z</time></trkpt><trkpt lat="45.60783822203992" lon="9.368404803691867"><ele>190.57142857142858</ele><time>2026-04-07T08:59:15.001Z</time></trkpt><trkpt lat="45.607776089635365" lon="9.36837140415938"><ele>190.14285714285714</ele><time>2026-04-07T08:59:16.001Z</time></trkpt><trkpt lat="45.60771531896076" lon="9.36834005190253"><ele>189.71428571428572</ele><time>2026-04-07T08:59:17.001Z</time></trkpt><trkpt lat="45.607654236026235" lon="9.368305213892246"><ele>189.28571428571428</ele><time>2026-04-07T08:59:18.001Z</time></trkpt><trkpt lat="45.607590412035584" lon="9.36827802373797"><ele>188.85714285714283</ele><time>2026-04-07T08:59:19.001Z</time></trkpt><trkpt lat="45.60752924698058" lon="9.368245956521271"><ele>188.42857142857142</ele><time>2026-04-07T08:59:20.001Z</time></trkpt><trkpt lat="45.60746710039317" lon="9.368214550951292"><ele>188.0</ele><time>2026-04-07T08:59:21.001Z</time></trkpt><trkpt lat="45.60740546530826" lon="9.368182215907556"><ele>188.0</ele><time>2026-04-07T08:59:22.001Z</time></trkpt><trkpt lat="45.607344057484376" lon="9.368149220325742"><ele>188.0</ele><time>2026-04-07T08:59:23.001Z</time></trkpt><trkpt lat="45.60728274572206" lon="9.368115656773975"><ele>188.0</ele><time>2026-04-07T08:59:24.001Z</time></trkpt><trkpt lat="45.60722021547224" lon="9.368084792307148"><ele>188.0</ele><time>2026-04-07T08:59:25.001Z</time></trkpt><trkpt lat="45.60715799139749" lon="9.368054223314584"><ele>188.0</ele><time>2026-04-07T08:59:26.001Z</time></trkpt><trkpt lat="45.60709822457362" lon="9.368021295986964"><ele>188.0</ele><time>2026-04-07T08:59:27.001Z</time></trkpt><trkpt lat="45.607039107270914" lon="9.367988790776652"><ele>188.0</ele><time>2026-04-07T08:59:28.001Z</time></trkpt><trkpt lat="45.606978559614355" lon="9.36796002234103"><ele>187.83333333333331</ele><time>2026-04-07T08:59:29.001Z</time></trkpt><trkpt lat="45.606857834357314" lon="9.367904987445707"><ele>187.66666666666666</ele><time>2026-04-07T08:59:31.001Z</time></trkpt><trkpt lat="45.606796263634706" lon="9.367879384363176"><ele>187.5</ele><time>2026-04-07T08:59:32.001Z</time></trkpt><trkpt lat="45.60673585308784" lon="9.367850045420925"><ele>187.33333333333334</ele><time>2026-04-07T08:59:33.001Z</time></trkpt><trkpt lat="45.60667203693545" lon="9.367822287894079"><ele>187.16666666666669</ele><time>2026-04-07T08:59:34.001Z</time></trkpt><trkpt lat="45.60661093955795" lon="9.367794650721034"><ele>187.0</ele><time>2026-04-07T08:59:35.001Z</time></trkpt><trkpt lat="45.60654911771302" lon="9.367769864160993"><ele>187.0</ele><time>2026-04-07T08:59:36.001Z</time></trkpt><trkpt lat="45.60649348422639" lon="9.367726371940334"><ele>187.0</ele><time>2026-04-07T08:59:37.001Z</time></trkpt><trkpt lat="45.60643590080586" lon="9.36768393055777"><ele>187.0</ele><time>2026-04-07T08:59:38.001Z</time></trkpt><trkpt lat="45.606374640440734" lon="9.36765030179302"><ele>187.0</ele><time>2026-04-07T08:59:39.001Z</time></trkpt><trkpt lat="45.60631434917097" lon="9.367618341868573"><ele>187.0</ele><time>2026-04-07T08:59:40.001Z</time></trkpt><trkpt lat="45.60625341735281" lon="9.367586248393408"><ele>187.0</ele><time>2026-04-07T08:59:41.001Z</time></trkpt><trkpt lat="45.60619394860093" lon="9.367556533575529"><ele>187.0</ele><time>2026-04-07T08:59:42.001Z</time></trkpt><trkpt lat="45.60613328521467" lon="9.36752598352633"><ele>187.0</ele><time>2026-04-07T08:59:43.001Z</time></trkpt><trkpt lat="45.60607411200602" lon="9.367492686581024"><ele>187.0</ele><time>2026-04-07T08:59:44.001Z</time></trkpt><trkpt lat="45.60601302351217" lon="9.367462150360703"><ele>187.0</ele><time>2026-04-07T08:59:45.001Z</time></trkpt><trkpt lat="45.60589421627051" lon="9.367399186332047"><ele>187.0</ele><time>2026-04-07T08:59:47.001Z</time></trkpt><trkpt lat="45.60583394608982" lon="9.367368352644222"><ele>187.0</ele><time>2026-04-07T08:59:48.001Z</time></trkpt><trkpt lat="45.60577344365489" lon="9.36733717863378"><ele>187.0</ele><time>2026-04-07T08:59:49.001Z</time></trkpt><trkpt lat="45.60571400618714" lon="9.367305383465549"><ele>187.0</ele><time>2026-04-07T08:59:50.001Z</time></trkpt><trkpt lat="45.605655321984386" lon="9.367269752818707"><ele>187.0</ele><time>2026-04-07T08:59:51.001Z</time></trkpt><trkpt lat="45.60559452025956" lon="9.367236628424683"><ele>187.0</ele><time>2026-04-07T08:59:52.001Z</time></trkpt><trkpt lat="45.60553285106552" lon="9.367205638669407"><ele>187.0</ele><time>2026-04-07T08:59:53.001Z</time></trkpt><trkpt lat="45.60547290210791" lon="9.3671779539842"><ele>187.0</ele><time>2026-04-07T08:59:54.001Z</time></trkpt><trkpt lat="45.60541313927686" lon="9.367145640552463"><ele>187.0</ele><time>2026-04-07T08:59:55.001Z</time></trkpt><trkpt lat="45.60535364015657" lon="9.367113568640793"><ele>187.0</ele><time>2026-04-07T08:59:56.001Z</time></trkpt><trkpt lat="45.60523847780381" lon="9.367047672880538"><ele>187.0</ele><time>2026-04-07T08:59:58.001Z</time></trkpt><trkpt lat="45.605184556964105" lon="9.366998843994178"><ele>186.83333333333334</ele><time>2026-04-07T08:59:59.001Z</time></trkpt><trkpt lat="45.605131031566614" lon="9.366946965252142"><ele>186.66666666666669</ele><time>2026-04-07T09:00:00.001Z</time></trkpt><trkpt lat="45.605077446160955" lon="9.366896838670218"><ele>186.5</ele><time>2026-04-07T09:00:01.001Z</time></trkpt><trkpt lat="45.60502095466555" lon="9.366851905972144"><ele>186.33333333333334</ele><time>2026-04-07T09:00:02.001Z</time></trkpt><trkpt lat="45.60495888712131" lon="9.36681765569169"><ele>186.16666666666666</ele><time>2026-04-07T09:00:03.001Z</time></trkpt><trkpt lat="45.60483326950088" lon="9.366799951188307"><ele>186.0</ele><time>2026-04-07T09:00:05.001Z</time></trkpt><trkpt lat="45.60477634041018" lon="9.366878104364023"><ele>186.00000000000003</ele><time>2026-04-07T09:00:06.001Z</time></trkpt><trkpt lat="45.60471324300148" lon="9.366907796379705"><ele>186.0</ele><time>2026-04-07T09:00:07.001Z</time></trkpt><trkpt lat="45.60465015775832" lon="9.366930342760766"><ele>186.0</ele><time>2026-04-07T09:00:08.001Z</time></trkpt><trkpt lat="45.6045845056566" lon="9.366951100590585"><ele>186.0</ele><time>2026-04-07T09:00:09.001Z</time></trkpt><trkpt lat="45.60451908128217" lon="9.366966615478422"><ele>186.0</ele><time>2026-04-07T09:00:10.001Z</time></trkpt><trkpt lat="45.60445458347865" lon="9.366980433083688"><ele>186.00000000000003</ele><time>2026-04-07T09:00:11.001Z</time></trkpt><trkpt lat="45.60438964637751" lon="9.366997965564531"><ele>186.0</ele><time>2026-04-07T09:00:12.001Z</time></trkpt><trkpt lat="45.6043249733963" lon="9.36701283156151"><ele>186.0</ele><time>2026-04-07T09:00:13.001Z</time></trkpt><trkpt lat="45.604205029226904" lon="9.36704172435617"><ele>186.0</ele><time>2026-04-07T09:00:15.001Z</time></trkpt><trkpt lat="45.60411279922673" lon="9.366984187128597"><ele>186.0</ele><time>2026-04-07T09:00:17.001Z</time></trkpt><trkpt lat="45.60402781481754" lon="9.367013827373142"><ele>186.0</ele><time>2026-04-07T09:00:19.001Z</time></trkpt><trkpt lat="45.60394051813335" lon="9.367035506964598"><ele>186.0</ele><time>2026-04-07T09:00:21.001Z</time></trkpt><trkpt lat="45.60383220371184" lon="9.367062017143837"><ele>186.0</ele><time>2026-04-07T09:00:23.001Z</time></trkpt><trkpt lat="45.60372329583377" lon="9.367088672519122"><ele>186.0</ele><time>2026-04-07T09:00:25.001Z</time></trkpt><trkpt lat="45.60361321314151" lon="9.367115942982581"><ele>186.0</ele><time>2026-04-07T09:00:27.001Z</time></trkpt><trkpt lat="45.60350120464129" lon="9.367142816660124"><ele>186.0</ele><time>2026-04-07T09:00:29.001Z</time></trkpt><trkpt lat="45.60338873691033" lon="9.367133823068112"><ele>186.0</ele><time>2026-04-07T09:00:31.001Z</time></trkpt><trkpt lat="45.60327651484299" lon="9.367113378260298"><ele>183.0</ele><time>2026-04-07T09:00:33.001Z</time></trkpt><trkpt lat="45.60314029789267" lon="9.366337417389612"><ele>183.0</ele><time>2026-04-07T09:00:34.001Z</time></trkpt><trkpt lat="45.60309033419945" lon="9.366282055397464"><ele>183.0</ele><time>2026-04-07T09:00:35.001Z</time></trkpt><trkpt lat="45.60300558164482" lon="9.366174474759761"><ele>183.0</ele><time>2026-04-07T09:00:37.001Z</time></trkpt><trkpt lat="45.60295327315486" lon="9.36604597341424"><ele>183.0</ele><time>2026-04-07T09:00:39.001Z</time></trkpt><trkpt lat="45.60302622508856" lon="9.365939304918115"><ele>183.0</ele><time>2026-04-07T09:00:41.001Z</time></trkpt><trkpt lat="45.60318723273571" lon="9.366063845232635"><ele>183.0</ele><time>2026-04-07T09:00:42.001Z</time></trkpt><trkpt lat="45.60325003480732" lon="9.365963518892922"><ele>183.0</ele><time>2026-04-07T09:00:44.001Z</time></trkpt><trkpt lat="45.60332394882419" lon="9.365843457106736"><ele>183.0</ele><time>2026-04-07T09:00:46.001Z</time></trkpt><trkpt lat="45.60339304423848" lon="9.365722903659659"><ele>183.0</ele><time>2026-04-07T09:00:48.001Z</time></trkpt><trkpt lat="45.60346145714844" lon="9.365595697935815"><ele>183.0</ele><time>2026-04-07T09:00:50.001Z</time></trkpt><trkpt lat="45.60353641573487" lon="9.365440674746539"><ele>184.5</ele><time>2026-04-07T09:00:52.001Z</time></trkpt><trkpt lat="45.60358894869529" lon="9.36530657186382"><ele>186.0</ele><time>2026-04-07T09:00:54.001Z</time></trkpt><trkpt lat="45.60320001522175" lon="9.365077110699664"><ele>186.0</ele><time>2026-04-07T09:00:57.001Z</time></trkpt><trkpt lat="45.60308457243749" lon="9.365024531857223"><ele>186.0</ele><time>2026-04-07T09:00:59.001Z</time></trkpt><trkpt lat="45.60296614864686" lon="9.364980130762373"><ele>186.0</ele><time>2026-04-07T09:01:01.001Z</time></trkpt><trkpt lat="45.60284854001812" lon="9.364928539366"><ele>186.0</ele><time>2026-04-07T09:01:03.001Z</time></trkpt><trkpt lat="45.602728903068325" lon="9.36488146024786"><ele>185.0</ele><time>2026-04-07T09:01:05.001Z</time></trkpt><trkpt lat="45.602608234979975" lon="9.364835938482521"><ele>184.0</ele><time>2026-04-07T09:01:07.001Z</time></trkpt><trkpt lat="45.60248657163044" lon="9.364825821561858"><ele>183.0</ele><time>2026-04-07T09:01:09.001Z</time></trkpt><trkpt lat="45.60237232755079" lon="9.364892143074513"><ele>182.0</ele><time>2026-04-07T09:01:11.001Z</time></trkpt><trkpt lat="45.60225374312564" lon="9.364945457077907"><ele>182.0</ele><time>2026-04-07T09:01:13.001Z</time></trkpt><trkpt lat="45.60213417364898" lon="9.364964225990816"><ele>182.0</ele><time>2026-04-07T09:01:15.001Z</time></trkpt><trkpt lat="45.60207076863698" lon="9.364960446848235"><ele>182.0</ele><time>2026-04-07T09:01:16.001Z</time></trkpt><trkpt lat="45.60194743793751" lon="9.364959197163992"><ele>182.0</ele><time>2026-04-07T09:01:18.001Z</time></trkpt><trkpt lat="45.60192330053428" lon="9.364722247077859"><ele>181.0</ele><time>2026-04-07T09:01:19.001Z</time></trkpt><trkpt lat="45.60183505554536" lon="9.364682892019216"><ele>180.0</ele><time>2026-04-07T09:01:21.001Z</time></trkpt><trkpt lat="45.601776653111536" lon="9.364644773144526"><ele>179.0</ele><time>2026-04-07T09:01:23.001Z</time></trkpt><trkpt lat="45.60169140854711" lon="9.364548532505992"><ele>178.0</ele><time>2026-04-07T09:01:31.001Z</time></trkpt><trkpt lat="45.6019407230853" lon="9.364279775881467"><ele>178.0</ele><time>2026-04-07T09:01:33.001Z</time></trkpt><trkpt lat="45.60198957159535" lon="9.364218806339993"><ele>178.0</ele><time>2026-04-07T09:01:34.001Z</time></trkpt><trkpt lat="45.602031954322015" lon="9.364149876868337"><ele>178.0</ele><time>2026-04-07T09:01:35.001Z</time></trkpt><trkpt lat="45.60205497619196" lon="9.36406077295362"><ele>178.0</ele><time>2026-04-07T09:01:36.001Z</time></trkpt><trkpt lat="45.60198437105562" lon="9.363945715071566"><ele>178.0</ele><time>2026-04-07T09:01:38.001Z</time></trkpt><trkpt lat="45.60187937084966" lon="9.363976136440023"><ele>178.0</ele><time>2026-04-07T09:01:40.001Z</time></trkpt><trkpt lat="45.60177192779233" lon="9.364040942991151"><ele>178.0</ele><time>2026-04-07T09:01:42.001Z</time></trkpt><trkpt lat="45.60170552934937" lon="9.36406044407589"><ele>178.0</ele><time>2026-04-07T09:01:43.001Z</time></trkpt><trkpt lat="45.60163779995673" lon="9.36406734811032"><ele>178.0</ele><time>2026-04-07T09:01:44.001Z</time></trkpt><trkpt lat="45.60157240634904" lon="9.364047368762597"><ele>178.0</ele><time>2026-04-07T09:01:45.001Z</time></trkpt><trkpt lat="45.60150776115755" lon="9.363896359543745"><ele>178.0</ele><time>2026-04-07T09:01:47.001Z</time></trkpt><trkpt lat="45.6015075669581" lon="9.3637929040422"><ele>178.0</ele><time>2026-04-07T09:01:48.001Z</time></trkpt><trkpt lat="45.60150465848661" lon="9.363690260896428"><ele>178.0</ele><time>2026-04-07T09:01:49.001Z</time></trkpt><trkpt lat="45.60149752380372" lon="9.36358624121014"><ele>178.0</ele><time>2026-04-07T09:01:50.001Z</time></trkpt><trkpt lat="45.601484946437594" lon="9.363483082177725"><ele>178.0</ele><time>2026-04-07T09:01:51.001Z</time></trkpt><trkpt lat="45.60146036559305" lon="9.36338845216943"><ele>178.0</ele><time>2026-04-07T09:01:52.001Z</time></trkpt><trkpt lat="45.60142531622548" lon="9.363308601962194"><ele>178.0</ele><time>2026-04-07T09:01:53.001Z</time></trkpt><trkpt lat="45.60134578834653" lon="9.363189747301009"><ele>178.0</ele><time>2026-04-07T09:01:55.001Z</time></trkpt><trkpt lat="45.60125657705643" lon="9.36308967587409"><ele>178.8</ele><time>2026-04-07T09:01:57.001Z</time></trkpt><trkpt lat="45.60115441525422" lon="9.363064289886745"><ele>179.60000000000002</ele><time>2026-04-07T09:01:59.001Z</time></trkpt><trkpt lat="45.601045178718465" lon="9.363063940983269"><ele>180.39999999999998</ele><time>2026-04-07T09:02:01.001Z</time></trkpt><trkpt lat="45.600937495912184" lon="9.363070057313996"><ele>181.2</ele><time>2026-04-07T09:02:03.001Z</time></trkpt><trkpt lat="45.60082206486071" lon="9.363071971536309"><ele>182.0</ele><time>2026-04-07T09:02:05.001Z</time></trkpt><trkpt lat="45.60071183713545" lon="9.36308243360384"><ele>182.0</ele><time>2026-04-07T09:02:07.001Z</time></trkpt><trkpt lat="45.6005994020718" lon="9.363084235675643"><ele>182.0</ele><time>2026-04-07T09:02:09.001Z</time></trkpt><trkpt lat="45.60048574401803" lon="9.363090431301783"><ele>182.0</ele><time>2026-04-07T09:02:11.001Z</time></trkpt><trkpt lat="45.60037232156153" lon="9.36307337593764"><ele>182.0</ele><time>2026-04-07T09:02:13.001Z</time></trkpt><trkpt lat="45.60025996509979" lon="9.363078016088606"><ele>182.2</ele><time>2026-04-07T09:02:15.001Z</time></trkpt><trkpt lat="45.60016550219389" lon="9.362997832361806"><ele>182.39999999999998</ele><time>2026-04-07T09:02:17.001Z</time></trkpt><trkpt lat="45.6000805677622" lon="9.362881241284045"><ele>182.60000000000002</ele><time>2026-04-07T09:02:19.001Z</time></trkpt><trkpt lat="45.6000221226335" lon="9.36275562827683"><ele>182.8</ele><time>2026-04-07T09:02:21.001Z</time></trkpt><trkpt lat="45.599983990903695" lon="9.362630269202864"><ele>183.0</ele><time>2026-04-07T09:02:23.001Z</time></trkpt><trkpt lat="45.60007385132686" lon="9.362457440628742"><ele>183.0</ele><time>2026-04-07T09:02:25.001Z</time></trkpt><trkpt lat="45.60013711148557" lon="9.362451304959368"><ele>183.0</ele><time>2026-04-07T09:02:26.001Z</time></trkpt><trkpt lat="45.60021284968969" lon="9.362455130667495"><ele>183.0</ele><time>2026-04-07T09:02:28.001Z</time></trkpt><trkpt lat="45.600252587149356" lon="9.362614335108548"><ele>183.0</ele><time>2026-04-07T09:02:29.001Z</time></trkpt><trkpt lat="45.60030651347348" lon="9.362688752754423"><ele>183.0</ele><time>2026-04-07T09:02:31.001Z</time></trkpt><trkpt lat="45.60035038540907" lon="9.362758469382241"><ele>183.0</ele><time>2026-04-07T09:02:35.001Z</time></trkpt><trkpt lat="45.60031787880677" lon="9.362671423807111"><ele>183.0</ele><time>2026-04-07T09:02:39.001Z</time></trkpt><trkpt lat="45.60025329683028" lon="9.362581802188977"><ele>183.0</ele><time>2026-04-07T09:02:41.001Z</time></trkpt><trkpt lat="45.600175726142865" lon="9.36246606205101"><ele>183.0</ele><time>2026-04-07T09:02:43.001Z</time></trkpt><trkpt lat="45.60010468977373" lon="9.362356875781218"><ele>183.0</ele><time>2026-04-07T09:02:45.001Z</time></trkpt><trkpt lat="45.60003958829262" lon="9.362256812188603"><ele>183.0</ele><time>2026-04-07T09:02:47.001Z</time></trkpt><trkpt lat="45.599979373381096" lon="9.36216425965303"><ele>183.0</ele><time>2026-04-07T09:02:49.001Z</time></trkpt><trkpt lat="45.600039683142114" lon="9.361946019254333"><ele>183.0</ele><time>2026-04-07T09:02:50.001Z</time></trkpt><trkpt lat="45.599973613349874" lon="9.361806613450856"><ele>183.0</ele><time>2026-04-07T09:02:52.001Z</time></trkpt><trkpt lat="45.60002795249332" lon="9.361576242538977"><ele>183.0</ele><time>2026-04-07T09:02:54.001Z</time></trkpt><trkpt lat="45.599967418183994" lon="9.361433862033051"><ele>183.0</ele><time>2026-04-07T09:02:56.001Z</time></trkpt><trkpt lat="45.59991055794153" lon="9.361293418916883"><ele>183.0</ele><time>2026-04-07T09:02:58.001Z</time></trkpt><trkpt lat="45.59987528793468" lon="9.361212656256404"><ele>183.0</ele><time>2026-04-07T09:02:59.001Z</time></trkpt><trkpt lat="45.59981828413059" lon="9.361066313746457"><ele>183.0</ele><time>2026-04-07T09:03:01.001Z</time></trkpt><trkpt lat="45.599789471872604" lon="9.36098481329791"><ele>183.0</ele><time>2026-04-07T09:03:02.001Z</time></trkpt><trkpt lat="45.599702059366194" lon="9.361123084082754"><ele>183.0</ele><time>2026-04-07T09:03:03.001Z</time></trkpt><trkpt lat="45.5995959933763" lon="9.360888128081404"><ele>183.0</ele><time>2026-04-07T09:03:04.001Z</time></trkpt><trkpt lat="45.59956495250091" lon="9.360808235715096"><ele>183.0</ele><time>2026-04-07T09:03:05.001Z</time></trkpt><trkpt lat="45.599543243292175" lon="9.360647038162305"><ele>182.4</ele><time>2026-04-07T09:03:07.001Z</time></trkpt><trkpt lat="45.59959055494206" lon="9.360353118625653"><ele>181.8</ele><time>2026-04-07T09:03:09.001Z</time></trkpt><trkpt lat="45.59959893028511" lon="9.36025614109875"><ele>181.2</ele><time>2026-04-07T09:03:10.001Z</time></trkpt><trkpt lat="45.599606448377614" lon="9.360163732071108"><ele>180.6</ele><time>2026-04-07T09:03:11.001Z</time></trkpt><trkpt lat="45.59961386725667" lon="9.360072816529433"><ele>180.0</ele><time>2026-04-07T09:03:12.001Z</time></trkpt><trkpt lat="45.59963009577566" lon="9.35990180442687"><ele>180.0</ele><time>2026-04-07T09:03:14.001Z</time></trkpt><trkpt lat="45.59964645399409" lon="9.359729425601524"><ele>180.0</ele><time>2026-04-07T09:03:16.001Z</time></trkpt><trkpt lat="45.59966277991873" lon="9.359557387113114"><ele>180.0</ele><time>2026-04-07T09:03:18.001Z</time></trkpt><trkpt lat="45.59967983093974" lon="9.359382125364334"><ele>180.0</ele><time>2026-04-07T09:03:20.001Z</time></trkpt><trkpt lat="45.599696927198615" lon="9.359208961708882"><ele>180.0</ele><time>2026-04-07T09:03:22.001Z</time></trkpt><trkpt lat="45.59971357534113" lon="9.359046835595153"><ele>180.0</ele><time>2026-04-07T09:03:24.001Z</time></trkpt><trkpt lat="45.599730547180634" lon="9.358895093094382"><ele>180.0</ele><time>2026-04-07T09:03:26.001Z</time></trkpt><trkpt lat="45.59974765369942" lon="9.358768401242203"><ele>180.0</ele><time>2026-04-07T09:03:28.001Z</time></trkpt><trkpt lat="45.599884235979374" lon="9.358555677615536"><ele>180.0</ele><time>2026-04-07T09:03:30.001Z</time></trkpt><trkpt lat="45.600058485313774" lon="9.358632566449558"><ele>180.0</ele><time>2026-04-07T09:03:32.001Z</time></trkpt><trkpt lat="45.600114118745594" lon="9.358516611298624"><ele>180.0</ele><time>2026-04-07T09:03:34.001Z</time></trkpt><trkpt lat="45.600110062725925" lon="9.358356337851129"><ele>180.0</ele><time>2026-04-07T09:03:36.001Z</time></trkpt><trkpt lat="45.60006102317648" lon="9.3582255342327"><ele>180.0</ele><time>2026-04-07T09:03:38.001Z</time></trkpt><trkpt lat="45.59996871968325" lon="9.358122552254015"><ele>180.0</ele><time>2026-04-07T09:03:40.001Z</time></trkpt><trkpt lat="45.59989218584131" lon="9.357995778632338"><ele>180.0</ele><time>2026-04-07T09:03:42.001Z</time></trkpt><trkpt lat="45.599771212117616" lon="9.358131932874917"><ele>180.0</ele><time>2026-04-07T09:03:44.001Z</time></trkpt><trkpt lat="45.59968894693422" lon="9.358213727607609"><ele>180.0</ele><time>2026-04-07T09:03:48.001Z</time></trkpt><trkpt lat="45.59954158227204" lon="9.358121406358284"><ele>180.0</ele><time>2026-04-07T09:03:50.001Z</time></trkpt><trkpt lat="45.59948525993176" lon="9.358069627104767"><ele>180.0</ele><time>2026-04-07T09:03:51.001Z</time></trkpt><trkpt lat="45.59940048040374" lon="9.357952444611133"><ele>180.0</ele><time>2026-04-07T09:03:53.001Z</time></trkpt><trkpt lat="45.5993294245592" lon="9.35782932570532"><ele>180.0</ele><time>2026-04-07T09:03:55.001Z</time></trkpt><trkpt lat="45.599254192220975" lon="9.357733123625252"><ele>180.0</ele><time>2026-04-07T09:03:57.001Z</time></trkpt><trkpt lat="45.599164509172866" lon="9.357701016646171"><ele>180.0</ele><time>2026-04-07T09:03:59Z</time></trkpt><trkpt lat="45.599101763152234" lon="9.357665401881984"><ele>180.0</ele><time>2026-04-07T09:04:01Z</time></trkpt><trkpt lat="45.59918146720002" lon="9.35770349218928"><ele>180.0</ele><time>2026-04-07T09:04:09Z</time></trkpt><trkpt lat="45.598863909028694" lon="9.357592400822682"><ele>180.0</ele><time>2026-04-07T09:04:10Z</time></trkpt><trkpt lat="45.59921366988996" lon="9.357515202236328"><ele>180.0</ele><time>2026-04-07T09:04:11Z</time></trkpt><trkpt lat="45.59929655735471" lon="9.357823269344042"><ele>180.0</ele><time>2026-04-07T09:04:12Z</time></trkpt><trkpt lat="45.59932729279978" lon="9.357950143467871"><ele>180.0</ele><time>2026-04-07T09:04:14Z</time></trkpt><trkpt lat="45.599398481836" lon="9.358049449770554"><ele>180.0</ele><time>2026-04-07T09:04:16Z</time></trkpt><trkpt lat="45.5994760493625" lon="9.358153865113293"><ele>180.0</ele><time>2026-04-07T09:04:18Z</time></trkpt><trkpt lat="45.599565784304374" lon="9.358255480321692"><ele>180.0</ele><time>2026-04-07T09:04:20Z</time></trkpt><trkpt lat="45.600023094796015" lon="9.358223468975766"><ele>180.33333333333334</ele><time>2026-04-07T09:04:23Z</time></trkpt><trkpt lat="45.599836103091995" lon="9.357840825999748"><ele>180.66666666666669</ele><time>2026-04-07T09:04:25Z</time></trkpt><trkpt lat="45.59985372833333" lon="9.357680316370732"><ele>181.0</ele><time>2026-04-07T09:04:27Z</time></trkpt><trkpt lat="45.599871405311575" lon="9.3575111174343"><ele>181.0</ele><time>2026-04-07T09:04:29Z</time></trkpt><trkpt lat="45.59988819435985" lon="9.357341831355393"><ele>181.0</ele><time>2026-04-07T09:04:31Z</time></trkpt><trkpt lat="45.59990516655838" lon="9.357170698553782"><ele>181.0</ele><time>2026-04-07T09:04:33Z</time></trkpt><trkpt lat="45.59992235928178" lon="9.356997342205363"><ele>181.0</ele><time>2026-04-07T09:04:35Z</time></trkpt><trkpt lat="45.59994067170506" lon="9.356825886515004"><ele>181.0</ele><time>2026-04-07T09:04:37Z</time></trkpt><trkpt lat="45.59996941013591" lon="9.356667980625708"><ele>181.0</ele><time>2026-04-07T09:04:39Z</time></trkpt><trkpt lat="45.600015421567775" lon="9.356536134859603"><ele>181.0</ele><time>2026-04-07T09:04:41Z</time></trkpt><trkpt lat="45.60007301185952" lon="9.356429713916498"><ele>181.0</ele><time>2026-04-07T09:04:43Z</time></trkpt><trkpt lat="45.60013689014228" lon="9.35631997786364"><ele>181.0</ele><time>2026-04-07T09:04:45Z</time></trkpt><trkpt lat="45.600201903719075" lon="9.356204526031961"><ele>179.5</ele><time>2026-04-07T09:04:47Z</time></trkpt><trkpt lat="45.59995534585834" lon="9.355771858707628"><ele>178.0</ele><time>2026-04-07T09:04:49Z</time></trkpt><trkpt lat="45.59985212670367" lon="9.355673016736823"><ele>178.25</ele><time>2026-04-07T09:04:51Z</time></trkpt><trkpt lat="45.59986074507966" lon="9.355491775295278"><ele>178.5</ele><time>2026-04-07T09:04:51.999Z</time></trkpt><trkpt lat="45.599756637226776" lon="9.35539095160283"><ele>178.75</ele><time>2026-04-07T09:04:53.999Z</time></trkpt><trkpt lat="45.59966199105435" lon="9.355293127120008"><ele>179.0</ele><time>2026-04-07T09:04:55.999Z</time></trkpt><trkpt lat="45.59957637406736" lon="9.355184537865892"><ele>178.5</ele><time>2026-04-07T09:04:57.999Z</time></trkpt><trkpt lat="45.59949691971381" lon="9.355062319582574"><ele>178.0</ele><time>2026-04-07T09:04:59.999Z</time></trkpt><trkpt lat="45.59942194619991" lon="9.354923721353831"><ele>177.5</ele><time>2026-04-07T09:05:01.999Z</time></trkpt><trkpt lat="45.599362381861305" lon="9.35478095658141"><ele>177.0</ele><time>2026-04-07T09:05:03.999Z</time></trkpt><trkpt lat="45.59931067442272" lon="9.354628494117236"><ele>177.0</ele><time>2026-04-07T09:05:05.999Z</time></trkpt><trkpt lat="45.59926290600601" lon="9.354462719002434"><ele>177.0</ele><time>2026-04-07T09:05:07.999Z</time></trkpt><trkpt lat="45.599239969630524" lon="9.354376367174087"><ele>177.0</ele><time>2026-04-07T09:05:08.999Z</time></trkpt><trkpt lat="45.59919673353372" lon="9.35420544865934"><ele>177.0</ele><time>2026-04-07T09:05:10.999Z</time></trkpt><trkpt lat="45.59917506726886" lon="9.354119031260582"><ele>177.0</ele><time>2026-04-07T09:05:11.999Z</time></trkpt><trkpt lat="45.59915353917101" lon="9.354033164760066"><ele>177.0</ele><time>2026-04-07T09:05:12.999Z</time></trkpt><trkpt lat="45.59913211250433" lon="9.35394770298993"><ele>177.0</ele><time>2026-04-07T09:05:13.999Z</time></trkpt><trkpt lat="45.59911035057175" lon="9.353860903614885"><ele>177.0</ele><time>2026-04-07T09:05:14.999Z</time></trkpt><trkpt lat="45.599069707324475" lon="9.353689997110655"><ele>177.0</ele><time>2026-04-07T09:05:16.999Z</time></trkpt><trkpt lat="45.59904879422021" lon="9.353602249369688"><ele>177.0</ele><time>2026-04-07T09:05:17.999Z</time></trkpt><trkpt lat="45.59902775354737" lon="9.353513966407103"><ele>177.0</ele><time>2026-04-07T09:05:18.999Z</time></trkpt><trkpt lat="45.59900673699169" lon="9.353425784634489"><ele>177.0</ele><time>2026-04-07T09:05:19.999Z</time></trkpt><trkpt lat="45.598985359340205" lon="9.35333608774978"><ele>177.0</ele><time>2026-04-07T09:05:20.999Z</time></trkpt><trkpt lat="45.59896394539954" lon="9.353247961248515"><ele>177.0</ele><time>2026-04-07T09:05:21.999Z</time></trkpt><trkpt lat="45.59894285798891" lon="9.35316163768664"><ele>177.0</ele><time>2026-04-07T09:05:22.999Z</time></trkpt><trkpt lat="45.598921823722314" lon="9.353075531655755"><ele>177.0</ele><time>2026-04-07T09:05:23.999Z</time></trkpt><trkpt lat="45.59888071439497" lon="9.352907242698494"><ele>177.0</ele><time>2026-04-07T09:05:25.999Z</time></trkpt><trkpt lat="45.59885799376972" lon="9.352816823723774"><ele>177.0</ele><time>2026-04-07T09:05:26.999Z</time></trkpt><trkpt lat="45.59883632723686" lon="9.352729328365587"><ele>176.75</ele><time>2026-04-07T09:05:27.999Z</time></trkpt><trkpt lat="45.598815153650506" lon="9.352643823532675"><ele>176.5</ele><time>2026-04-07T09:05:28.999Z</time></trkpt><trkpt lat="45.598793969772316" lon="9.35255827704623"><ele>176.25</ele><time>2026-04-07T09:05:29.999Z</time></trkpt><trkpt lat="45.59877256340644" lon="9.352471832190197"><ele>176.0</ele><time>2026-04-07T09:05:30.999Z</time></trkpt><trkpt lat="45.59875112505005" lon="9.35238536194854"><ele>175.75</ele><time>2026-04-07T09:05:31.999Z</time></trkpt><trkpt lat="45.59872971020602" lon="9.352299044157053"><ele>175.5</ele><time>2026-04-07T09:05:32.999Z</time></trkpt><trkpt lat="45.59870790484396" lon="9.352211152269598"><ele>175.25</ele><time>2026-04-07T09:05:33.999Z</time></trkpt><trkpt lat="45.598686652362794" lon="9.352125488950227"><ele>175.0</ele><time>2026-04-07T09:05:34.999Z</time></trkpt><trkpt lat="45.59864581251569" lon="9.351957885773727"><ele>175.0</ele><time>2026-04-07T09:05:36.999Z</time></trkpt><trkpt lat="45.598624901220695" lon="9.351871841856576"><ele>175.0</ele><time>2026-04-07T09:05:37.999Z</time></trkpt><trkpt lat="45.59858405768461" lon="9.351703782582517"><ele>175.0</ele><time>2026-04-07T09:05:39.999Z</time></trkpt><trkpt lat="45.59856294611033" lon="9.351616914612839"><ele>175.0</ele><time>2026-04-07T09:05:40.999Z</time></trkpt><trkpt lat="45.59854205016359" lon="9.351530933881916"><ele>175.0</ele><time>2026-04-07T09:05:41.999Z</time></trkpt><trkpt lat="45.59852111442439" lon="9.351444787476726"><ele>175.0</ele><time>2026-04-07T09:05:42.999Z</time></trkpt><trkpt lat="45.59848055407804" lon="9.351276399326709"><ele>175.25</ele><time>2026-04-07T09:05:44.999Z</time></trkpt><trkpt lat="45.59843946216695" lon="9.35110616954902"><ele>175.5</ele><time>2026-04-07T09:05:47Z</time></trkpt><trkpt lat="45.59839926216542" lon="9.350939633842776"><ele>175.75</ele><time>2026-04-07T09:05:49Z</time></trkpt><trkpt lat="45.598358651925366" lon="9.350772391212084"><ele>176.0</ele><time>2026-04-07T09:05:51Z</time></trkpt><trkpt lat="45.59831800472428" lon="9.35060488058303"><ele>176.8</ele><time>2026-04-07T09:05:53Z</time></trkpt><trkpt lat="45.598277417112335" lon="9.350437615584855"><ele>177.60000000000002</ele><time>2026-04-07T09:05:55Z</time></trkpt><trkpt lat="45.59825627451452" lon="9.350350485097305"><ele>178.4</ele><time>2026-04-07T09:05:56Z</time></trkpt><trkpt lat="45.59821583936736" lon="9.350183848454087"><ele>179.2</ele><time>2026-04-07T09:05:58Z</time></trkpt><trkpt lat="45.598176593216486" lon="9.35002211168143"><ele>180.0</ele><time>2026-04-07T09:06:00Z</time></trkpt><trkpt lat="45.598137507856016" lon="9.349860659379972"><ele>179.25</ele><time>2026-04-07T09:06:02Z</time></trkpt><trkpt lat="45.59810006906" lon="9.349705558680686"><ele>178.5</ele><time>2026-04-07T09:06:04Z</time></trkpt><trkpt lat="45.59806207785596" lon="9.349548169630701"><ele>177.75</ele><time>2026-04-07T09:06:06Z</time></trkpt><trkpt lat="45.59802360845741" lon="9.349388799556236"><ele>177.0</ele><time>2026-04-07T09:06:08Z</time></trkpt><trkpt lat="45.597985308418735" lon="9.349228051837061"><ele>177.0</ele><time>2026-04-07T09:06:10Z</time></trkpt><trkpt lat="45.597965024611085" lon="9.349142649626913"><ele>177.0</ele><time>2026-04-07T09:06:11Z</time></trkpt><trkpt lat="45.597944414078455" lon="9.349055871854418"><ele>177.0</ele><time>2026-04-07T09:06:12Z</time></trkpt><trkpt lat="45.59790456213862" lon="9.348888149812323"><ele>177.0</ele><time>2026-04-07T09:06:14Z</time></trkpt><trkpt lat="45.59786500892369" lon="9.348721987767917"><ele>177.0</ele><time>2026-04-07T09:06:16Z</time></trkpt><trkpt lat="45.597827174803236" lon="9.348562857643522"><ele>177.0</ele><time>2026-04-07T09:06:18Z</time></trkpt><trkpt lat="45.59780663476609" lon="9.348476398407321"><ele>177.0</ele><time>2026-04-07T09:06:19Z</time></trkpt><trkpt lat="45.597764850868245" lon="9.348305136996848"><ele>177.0</ele><time>2026-04-07T09:06:21Z</time></trkpt><trkpt lat="45.597723422595855" lon="9.348141941079234"><ele>177.0</ele><time>2026-04-07T09:06:23Z</time></trkpt><trkpt lat="45.59768164538934" lon="9.347976984660448"><ele>177.0</ele><time>2026-04-07T09:06:25Z</time></trkpt><trkpt lat="45.59765898761141" lon="9.34789246482656"><ele>176.75</ele><time>2026-04-07T09:06:26Z</time></trkpt><trkpt lat="45.59761580138824" lon="9.347728176705086"><ele>176.5</ele><time>2026-04-07T09:06:28Z</time></trkpt><trkpt lat="45.597573866699776" lon="9.347566662549339"><ele>176.25</ele><time>2026-04-07T09:06:30Z</time></trkpt><trkpt lat="45.59753276070868" lon="9.34740833462448"><ele>176.0</ele><time>2026-04-07T09:06:32Z</time></trkpt><trkpt lat="45.59751813966592" lon="9.347276431636477"><ele>176.0</ele><time>2026-04-07T09:06:35Z</time></trkpt><trkpt lat="45.59750906917764" lon="9.34716568396605"><ele>176.0</ele><time>2026-04-07T09:06:37Z</time></trkpt><trkpt lat="45.59714468460092" lon="9.347220882597783"><ele>176.0</ele><time>2026-04-07T09:06:38Z</time></trkpt><trkpt lat="45.59706130518368" lon="9.347223504891755"><ele>176.20000000000002</ele><time>2026-04-07T09:06:40Z</time></trkpt><trkpt lat="45.59701219070916" lon="9.347122169055034"><ele>176.4</ele><time>2026-04-07T09:06:41Z</time></trkpt><trkpt lat="45.59705826033489" lon="9.346990051719017"><ele>176.6</ele><time>2026-04-07T09:06:45Z</time></trkpt><trkpt lat="45.59714273896434" lon="9.346888283127916"><ele>176.8</ele><time>2026-04-07T09:06:47Z</time></trkpt><trkpt lat="45.59718720448367" lon="9.346743012797674"><ele>177.0</ele><time>2026-04-07T09:06:49Z</time></trkpt><trkpt lat="45.59719149636677" lon="9.34657432785875"><ele>177.0</ele><time>2026-04-07T09:06:51Z</time></trkpt><trkpt lat="45.59718454197077" lon="9.346405402403011"><ele>177.0</ele><time>2026-04-07T09:06:53Z</time></trkpt><trkpt lat="45.59715757957843" lon="9.346238731614935"><ele>177.0</ele><time>2026-04-07T09:06:55Z</time></trkpt><trkpt lat="45.597116658831446" lon="9.346071150256565"><ele>177.0</ele><time>2026-04-07T09:06:57Z</time></trkpt><trkpt lat="45.5970748607675" lon="9.345902457846103"><ele>177.0</ele><time>2026-04-07T09:06:58.999Z</time></trkpt><trkpt lat="45.59705426328171" lon="9.345817265059601"><ele>177.0</ele><time>2026-04-07T09:06:59.999Z</time></trkpt><trkpt lat="45.59701472100106" lon="9.34565249104741"><ele>177.0</ele><time>2026-04-07T09:07:01.999Z</time></trkpt><trkpt lat="45.596974716389354" lon="9.34548238217412"><ele>177.0</ele><time>2026-04-07T09:07:03.999Z</time></trkpt><trkpt lat="45.597043781094506" lon="9.345354827570299"><ele>177.0</ele><time>2026-04-07T09:07:04.999Z</time></trkpt><trkpt lat="45.59702274595858" lon="9.345268887310842"><ele>177.0</ele><time>2026-04-07T09:07:05.999Z</time></trkpt><trkpt lat="45.59698129019159" lon="9.345102252918236"><ele>177.0</ele><time>2026-04-07T09:07:07.999Z</time></trkpt><trkpt lat="45.596941234989195" lon="9.344941248164115"><ele>177.0</ele><time>2026-04-07T09:07:09.999Z</time></trkpt><trkpt lat="45.5969200101052" lon="9.34485593312171"><ele>177.0</ele><time>2026-04-07T09:07:10.999Z</time></trkpt><trkpt lat="45.59689843200775" lon="9.344769198735941"><ele>177.0</ele><time>2026-04-07T09:07:11.999Z</time></trkpt><trkpt lat="45.59687753628337" lon="9.344683436253092"><ele>177.0</ele><time>2026-04-07T09:07:12.999Z</time></trkpt><trkpt lat="45.59683679645585" lon="9.34451604058953"><ele>177.0</ele><time>2026-04-07T09:07:14.999Z</time></trkpt><trkpt lat="45.59679852554934" lon="9.34435482443307"><ele>177.0</ele><time>2026-04-07T09:07:16.999Z</time></trkpt><trkpt lat="45.59677825035766" lon="9.344268947945958"><ele>177.0</ele><time>2026-04-07T09:07:17.999Z</time></trkpt><trkpt lat="45.5967575205771" lon="9.344181146186575"><ele>177.0</ele><time>2026-04-07T09:07:18.999Z</time></trkpt><trkpt lat="45.59673706621626" lon="9.344094510624386"><ele>177.0</ele><time>2026-04-07T09:07:19.999Z</time></trkpt><trkpt lat="45.59669799148453" lon="9.343925106273375"><ele>177.0</ele><time>2026-04-07T09:07:21.999Z</time></trkpt><trkpt lat="45.59665533132945" lon="9.343753684167455"><ele>176.8</ele><time>2026-04-07T09:07:23.999Z</time></trkpt><trkpt lat="45.596629571133676" lon="9.343666310695554"><ele>176.6</ele><time>2026-04-07T09:07:24.999Z</time></trkpt><trkpt lat="45.59655525321053" lon="9.343494419286047"><ele>176.4</ele><time>2026-04-07T09:07:26.999Z</time></trkpt><trkpt lat="45.59649764713349" lon="9.343396924542683"><ele>176.20000000000002</ele><time>2026-04-07T09:07:28.999Z</time></trkpt><trkpt lat="45.596435386479136" lon="9.3432915557419"><ele>176.0</ele><time>2026-04-07T09:07:30.999Z</time></trkpt><trkpt lat="45.59622051226273" lon="9.343446593321824"><ele>175.75</ele><time>2026-04-07T09:07:31.999Z</time></trkpt><trkpt lat="45.59616918465215" lon="9.343303447824251"><ele>175.5</ele><time>2026-04-07T09:07:33.999Z</time></trkpt><trkpt lat="45.59611399336674" lon="9.343161523350021"><ele>175.25</ele><time>2026-04-07T09:07:35.999Z</time></trkpt><trkpt lat="45.596041865144805" lon="9.343035267679147"><ele>175.0</ele><time>2026-04-07T09:07:37.999Z</time></trkpt><trkpt lat="45.59595256426295" lon="9.342934258621453"><ele>174.83333333333334</ele><time>2026-04-07T09:07:39.999Z</time></trkpt><trkpt lat="45.59595008258787" lon="9.342787490931602"><ele>174.66666666666669</ele><time>2026-04-07T09:07:40.999Z</time></trkpt><trkpt lat="45.59589119481944" lon="9.342744524354792"><ele>174.5</ele><time>2026-04-07T09:07:41.999Z</time></trkpt><trkpt lat="45.59583379177401" lon="9.342707275606243"><ele>174.33333333333334</ele><time>2026-04-07T09:07:42.999Z</time></trkpt><trkpt lat="45.59577153407986" lon="9.342669849162661"><ele>174.16666666666666</ele><time>2026-04-07T09:07:43.999Z</time></trkpt><trkpt lat="45.59565860124255" lon="9.342612751869854"><ele>174.0</ele><time>2026-04-07T09:07:45.999Z</time></trkpt><trkpt lat="45.59554147881626" lon="9.34255571802433"><ele>174.0</ele><time>2026-04-07T09:07:47.999Z</time></trkpt><trkpt lat="45.5954230447796" lon="9.342501794971758"><ele>174.0</ele><time>2026-04-07T09:07:49.999Z</time></trkpt><trkpt lat="45.595305517214165" lon="9.342447413619995"><ele>174.0</ele><time>2026-04-07T09:07:51.999Z</time></trkpt><trkpt lat="45.59518889943413" lon="9.342393453236353"><ele>174.0</ele><time>2026-04-07T09:07:53.999Z</time></trkpt><trkpt lat="45.59512754216443" lon="9.342365062495666"><ele>174.0</ele><time>2026-04-07T09:07:54.999Z</time></trkpt><trkpt lat="45.59506688490854" lon="9.34233699569665"><ele>174.39999999999998</ele><time>2026-04-07T09:07:55.999Z</time></trkpt><trkpt lat="45.594948498365206" lon="9.342282216887416"><ele>174.8</ele><time>2026-04-07T09:07:57.999Z</time></trkpt><trkpt lat="45.59483159440201" lon="9.342228124079599"><ele>175.2</ele><time>2026-04-07T09:07:59.999Z</time></trkpt><trkpt lat="45.59477121740877" lon="9.342200186928094"><ele>175.60000000000002</ele><time>2026-04-07T09:08:00.999Z</time></trkpt><trkpt lat="45.59465137606991" lon="9.342144734813564"><ele>176.0</ele><time>2026-04-07T09:08:02.999Z</time></trkpt><trkpt lat="45.594590273444226" lon="9.342116727655236"><ele>176.20000000000002</ele><time>2026-04-07T09:08:04Z</time></trkpt><trkpt lat="45.594470338285774" lon="9.342061679042281"><ele>176.4</ele><time>2026-04-07T09:08:06Z</time></trkpt><trkpt lat="45.59435075562231" lon="9.342006792199808"><ele>176.6</ele><time>2026-04-07T09:08:08Z</time></trkpt><trkpt lat="45.59422988875998" lon="9.341951904172797"><ele>176.8</ele><time>2026-04-07T09:08:10Z</time></trkpt><trkpt lat="45.59416941380183" lon="9.34192492260935"><ele>177.0</ele><time>2026-04-07T09:08:11Z</time></trkpt><trkpt lat="45.59410747444252" lon="9.341897287608043"><ele>177.0</ele><time>2026-04-07T09:08:12Z</time></trkpt><trkpt lat="45.59398792476359" lon="9.341842541858638"><ele>177.0</ele><time>2026-04-07T09:08:14Z</time></trkpt><trkpt lat="45.59392622837474" lon="9.34181410558735"><ele>177.0</ele><time>2026-04-07T09:08:15Z</time></trkpt><trkpt lat="45.59386569637733" lon="9.341786206001277"><ele>177.0</ele><time>2026-04-07T09:08:16Z</time></trkpt><trkpt lat="45.59375075187684" lon="9.341733227333197"><ele>177.0</ele><time>2026-04-07T09:08:18Z</time></trkpt><trkpt lat="45.59364116105532" lon="9.341682716222648"><ele>176.8</ele><time>2026-04-07T09:08:20Z</time></trkpt><trkpt lat="45.59353168585444" lon="9.341633082383177"><ele>176.6</ele><time>2026-04-07T09:08:22Z</time></trkpt><trkpt lat="45.59343245924846" lon="9.341588266711108"><ele>176.4</ele><time>2026-04-07T09:08:24Z</time></trkpt><trkpt lat="45.59333124734767" lon="9.341542152792975"><ele>176.20000000000002</ele><time>2026-04-07T09:08:26Z</time></trkpt><trkpt lat="45.59322993353764" lon="9.341495944587246"><ele>176.0</ele><time>2026-04-07T09:08:28Z</time></trkpt><trkpt lat="45.593122192036994" lon="9.341446804851007"><ele>176.0</ele><time>2026-04-07T09:08:30Z</time></trkpt><trkpt lat="45.593024639820214" lon="9.341402312300769"><ele>176.0</ele><time>2026-04-07T09:08:32Z</time></trkpt><trkpt lat="45.59293171420869" lon="9.341359929899166"><ele>176.0</ele><time>2026-04-07T09:08:34Z</time></trkpt><trkpt lat="45.59284127888788" lon="9.341318683296622"><ele>176.0</ele><time>2026-04-07T09:08:36Z</time></trkpt><trkpt lat="45.59276103460474" lon="9.34128208469816"><ele>176.0</ele><time>2026-04-07T09:08:38Z</time></trkpt><trkpt lat="45.59266937013541" lon="9.341240277450678"><ele>175.5</ele><time>2026-04-07T09:08:41Z</time></trkpt><trkpt lat="45.592569637290595" lon="9.341194156836245"><ele>175.0</ele><time>2026-04-07T09:08:43Z</time></trkpt><trkpt lat="45.59245835045426" lon="9.341142710297259"><ele>174.5</ele><time>2026-04-07T09:08:45Z</time></trkpt><trkpt lat="45.5923428770212" lon="9.341089328335409"><ele>174.0</ele><time>2026-04-07T09:08:47Z</time></trkpt><trkpt lat="45.59223025520062" lon="9.341037264625504"><ele>174.0</ele><time>2026-04-07T09:08:49Z</time></trkpt><trkpt lat="45.592114802918786" lon="9.340983892440594"><ele>174.0</ele><time>2026-04-07T09:08:51Z</time></trkpt><trkpt lat="45.59199898390268" lon="9.340930350707524"><ele>174.0</ele><time>2026-04-07T09:08:53Z</time></trkpt><trkpt lat="45.5918823220734" lon="9.340876716347779"><ele>174.0</ele><time>2026-04-07T09:08:55Z</time></trkpt><trkpt lat="45.5918197656952" lon="9.340848003016168"><ele>174.0</ele><time>2026-04-07T09:08:56Z</time></trkpt><trkpt lat="45.59175843543955" lon="9.340819852468481"><ele>174.0</ele><time>2026-04-07T09:08:57Z</time></trkpt><trkpt lat="45.591697867459246" lon="9.340792051812713"><ele>174.0</ele><time>2026-04-07T09:08:58Z</time></trkpt><trkpt lat="45.5915791639573" lon="9.340738252488109"><ele>174.0</ele><time>2026-04-07T09:09:00Z</time></trkpt><trkpt lat="45.59151703922976" lon="9.34071012451785"><ele>174.0</ele><time>2026-04-07T09:09:01Z</time></trkpt><trkpt lat="45.59145543453291" lon="9.340682233987389"><ele>174.0</ele><time>2026-04-07T09:09:02Z</time></trkpt><trkpt lat="45.59133895835226" lon="9.340629497486473"><ele>174.0</ele><time>2026-04-07T09:09:03.999Z</time></trkpt><trkpt lat="45.5912163672775" lon="9.340579614206778"><ele>173.83333333333334</ele><time>2026-04-07T09:09:05.999Z</time></trkpt><trkpt lat="45.59115762039917" lon="9.340538902161569"><ele>173.66666666666666</ele><time>2026-04-07T09:09:06.999Z</time></trkpt><trkpt lat="45.591096389770385" lon="9.34050724129107"><ele>173.5</ele><time>2026-04-07T09:09:07.999Z</time></trkpt><trkpt lat="45.59103233533374" lon="9.34047870185099"><ele>173.33333333333331</ele><time>2026-04-07T09:09:08.999Z</time></trkpt><trkpt lat="45.59097025597304" lon="9.340451864875963"><ele>173.16666666666666</ele><time>2026-04-07T09:09:09.999Z</time></trkpt><trkpt lat="45.59084885453375" lon="9.340395614718512"><ele>173.0</ele><time>2026-04-07T09:09:11.999Z</time></trkpt><trkpt lat="45.590784994145245" lon="9.340364051657334"><ele>173.0</ele><time>2026-04-07T09:09:12.999Z</time></trkpt><trkpt lat="45.590725023420305" lon="9.340335412364452"><ele>173.0</ele><time>2026-04-07T09:09:13.999Z</time></trkpt><trkpt lat="45.59066405645149" lon="9.340305742645556"><ele>173.0</ele><time>2026-04-07T09:09:14.999Z</time></trkpt><trkpt lat="45.590542493513595" lon="9.340251270319843"><ele>173.0</ele><time>2026-04-07T09:09:16.999Z</time></trkpt><trkpt lat="45.59042267069561" lon="9.340199520482173"><ele>173.0</ele><time>2026-04-07T09:09:18.999Z</time></trkpt><trkpt lat="45.59036294595888" lon="9.340167687187764"><ele>173.0</ele><time>2026-04-07T09:09:19.999Z</time></trkpt><trkpt lat="45.5903024622766" lon="9.340141331069358"><ele>173.0</ele><time>2026-04-07T09:09:20.999Z</time></trkpt><trkpt lat="45.590239736915315" lon="9.34011374974766"><ele>173.0</ele><time>2026-04-07T09:09:21.999Z</time></trkpt><trkpt lat="45.590178412139146" lon="9.340088628247301"><ele>173.0</ele><time>2026-04-07T09:09:22.999Z</time></trkpt><trkpt lat="45.590117324057665" lon="9.340059885488321"><ele>173.0</ele><time>2026-04-07T09:09:23.999Z</time></trkpt><trkpt lat="45.589999353358685" lon="9.340006338037762"><ele>173.0</ele><time>2026-04-07T09:09:25.999Z</time></trkpt><trkpt lat="45.58993906052177" lon="9.339973623708868"><ele>173.0</ele><time>2026-04-07T09:09:26.999Z</time></trkpt><trkpt lat="45.589876829382895" lon="9.33994831139551"><ele>173.0</ele><time>2026-04-07T09:09:27.999Z</time></trkpt><trkpt lat="45.589813756234406" lon="9.33992104669269"><ele>173.0</ele><time>2026-04-07T09:09:28.999Z</time></trkpt><trkpt lat="45.589696899654435" lon="9.339865776263457"><ele>173.0</ele><time>2026-04-07T09:09:30.999Z</time></trkpt><trkpt lat="45.589635465414474" lon="9.339835992635596"><ele>173.0</ele><time>2026-04-07T09:09:31.999Z</time></trkpt><trkpt lat="45.58951587975184" lon="9.339780247991214"><ele>173.0</ele><time>2026-04-07T09:09:33.999Z</time></trkpt><trkpt lat="45.589398122666864" lon="9.339722989969852"><ele>173.0</ele><time>2026-04-07T09:09:35.999Z</time></trkpt><trkpt lat="45.58928197802738" lon="9.339672165828457"><ele>173.0</ele><time>2026-04-07T09:09:37.999Z</time></trkpt><trkpt lat="45.58916333030879" lon="9.339623620085485"><ele>173.0</ele><time>2026-04-07T09:09:39.999Z</time></trkpt><trkpt lat="45.589046328002205" lon="9.33956894652949"><ele>173.0</ele><time>2026-04-07T09:09:41.999Z</time></trkpt><trkpt lat="45.58893025888498" lon="9.339515978506244"><ele>173.0</ele><time>2026-04-07T09:09:43.999Z</time></trkpt><trkpt lat="45.588813080275195" lon="9.339458974730995"><ele>173.0</ele><time>2026-04-07T09:09:45.999Z</time></trkpt><trkpt lat="45.58875282827722" lon="9.3394308989249"><ele>173.0</ele><time>2026-04-07T09:09:46.999Z</time></trkpt><trkpt lat="45.58863310093529" lon="9.33937481669756"><ele>173.0</ele><time>2026-04-07T09:09:49Z</time></trkpt><trkpt lat="45.588515783496774" lon="9.339322830178492"><ele>173.0</ele><time>2026-04-07T09:09:51Z</time></trkpt><trkpt lat="45.588399848522066" lon="9.33926604195375"><ele>173.0</ele><time>2026-04-07T09:09:53Z</time></trkpt><trkpt lat="45.58828055621619" lon="9.339214480168247"><ele>173.0</ele><time>2026-04-07T09:09:55Z</time></trkpt><trkpt lat="45.58816205610072" lon="9.33915890201008"><ele>173.0</ele><time>2026-04-07T09:09:57Z</time></trkpt><trkpt lat="45.58804832514254" lon="9.339097782942718"><ele>173.0</ele><time>2026-04-07T09:09:59Z</time></trkpt><trkpt lat="45.58793545786002" lon="9.339042018992743"><ele>173.0</ele><time>2026-04-07T09:10:01Z</time></trkpt><trkpt lat="45.58782535952218" lon="9.338971866269112"><ele>173.0</ele><time>2026-04-07T09:10:03Z</time></trkpt><trkpt lat="45.58771872085167" lon="9.338899072217666"><ele>173.0</ele><time>2026-04-07T09:10:05Z</time></trkpt><trkpt lat="45.58761831686666" lon="9.338802148344552"><ele>173.0</ele><time>2026-04-07T09:10:07Z</time></trkpt><trkpt lat="45.5875192668118" lon="9.33870335868961"><ele>173.0</ele><time>2026-04-07T09:10:09Z</time></trkpt><trkpt lat="45.587437561912324" lon="9.338605929033186"><ele>172.8</ele><time>2026-04-07T09:10:11Z</time></trkpt><trkpt lat="45.58735783115705" lon="9.338511306803495"><ele>172.60000000000002</ele><time>2026-04-07T09:10:13Z</time></trkpt><trkpt lat="45.5872853529478" lon="9.338406976944892"><ele>172.39999999999998</ele><time>2026-04-07T09:10:15Z</time></trkpt><trkpt lat="45.58721651736506" lon="9.338279620672392"><ele>172.2</ele><time>2026-04-07T09:10:17Z</time></trkpt><trkpt lat="45.587149126361105" lon="9.3381455988972"><ele>172.0</ele><time>2026-04-07T09:10:19Z</time></trkpt><trkpt lat="45.587085699496335" lon="9.338011778094875"><ele>171.8</ele><time>2026-04-07T09:10:21Z</time></trkpt><trkpt lat="45.58702643976517" lon="9.337874778615213"><ele>171.6</ele><time>2026-04-07T09:10:23Z</time></trkpt><trkpt lat="45.58696898613528" lon="9.337740506622966"><ele>171.4</ele><time>2026-04-07T09:10:25Z</time></trkpt><trkpt lat="45.586907014183915" lon="9.33762037855036"><ele>171.20000000000002</ele><time>2026-04-07T09:10:27Z</time></trkpt><trkpt lat="45.58686000211647" lon="9.337533843907158"><ele>171.0</ele><time>2026-04-07T09:10:29Z</time></trkpt><trkpt lat="45.58681852237874" lon="9.33744742099419"><ele>170.66666666666666</ele><time>2026-04-07T09:10:31Z</time></trkpt><trkpt lat="45.58665211173401" lon="9.337451183480757"><ele>170.33333333333331</ele><time>2026-04-07T09:10:32Z</time></trkpt><trkpt lat="45.58671008275869" lon="9.337369209657048"><ele>170.0</ele><time>2026-04-07T09:10:38Z</time></trkpt><trkpt lat="45.586464315487" lon="9.337216838280769"><ele>169.83333333333331</ele><time>2026-04-07T09:10:40Z</time></trkpt><trkpt lat="45.586475268595194" lon="9.337113932463723"><ele>169.66666666666666</ele><time>2026-04-07T09:10:43Z</time></trkpt><trkpt lat="45.58648647647745" lon="9.33700863321931"><ele>169.5</ele><time>2026-04-07T09:10:47Z</time></trkpt><trkpt lat="45.5864969954814" lon="9.336909805943273"><ele>169.33333333333334</ele><time>2026-04-07T09:10:56Z</time></trkpt><trkpt lat="45.58651165170215" lon="9.336772109060147"><ele>169.16666666666669</ele><time>2026-04-07T09:10:58Z</time></trkpt><trkpt lat="45.58652230724077" lon="9.336671999067992"><ele>169.0</ele><time>2026-04-07T09:11:00Z</time></trkpt><trkpt lat="45.586532117400765" lon="9.336579831602386"><ele>169.0</ele><time>2026-04-07T09:11:02Z</time></trkpt><trkpt lat="45.58654457161673" lon="9.336458798864307"><ele>169.0</ele><time>2026-04-07T09:11:04Z</time></trkpt><trkpt lat="45.58655937414952" lon="9.336312102691677"><ele>169.0</ele><time>2026-04-07T09:11:06Z</time></trkpt><trkpt lat="45.58657725501104" lon="9.336148128858547"><ele>169.0</ele><time>2026-04-07T09:11:08Z</time></trkpt><trkpt lat="45.5865961631451" lon="9.335982642913578"><ele>169.0</ele><time>2026-04-07T09:11:09.999Z</time></trkpt><trkpt lat="45.58661454657036" lon="9.335813093014812"><ele>168.83333333333334</ele><time>2026-04-07T09:11:11.999Z</time></trkpt><trkpt lat="45.586623913646456" lon="9.335723861188226"><ele>168.66666666666669</ele><time>2026-04-07T09:11:12.999Z</time></trkpt><trkpt lat="45.586633297202084" lon="9.335634472392556"><ele>168.5</ele><time>2026-04-07T09:11:13.999Z</time></trkpt><trkpt lat="45.586642639640715" lon="9.33554547515813"><ele>168.33333333333334</ele><time>2026-04-07T09:11:14.999Z</time></trkpt><trkpt lat="45.58666112095107" lon="9.335366834527663"><ele>168.16666666666666</ele><time>2026-04-07T09:11:16.999Z</time></trkpt><trkpt lat="45.58667905352868" lon="9.335192345066204"><ele>168.0</ele><time>2026-04-07T09:11:18.999Z</time></trkpt><trkpt lat="45.58669645250371" lon="9.335023052202954"><ele>169.0</ele><time>2026-04-07T09:11:20.999Z</time></trkpt><trkpt lat="45.58671302016333" lon="9.334861852208954"><ele>170.0</ele><time>2026-04-07T09:11:22.999Z</time></trkpt><trkpt lat="45.58673849781384" lon="9.334700765211311"><ele>171.0</ele><time>2026-04-07T09:11:24.999Z</time></trkpt><trkpt lat="45.58673974705396" lon="9.334535539882586"><ele>172.0</ele><time>2026-04-07T09:11:26.999Z</time></trkpt><trkpt lat="45.586740041222775" lon="9.33436667584135"><ele>172.39999999999998</ele><time>2026-04-07T09:11:28.999Z</time></trkpt><trkpt lat="45.58679598829603" lon="9.33420254304322"><ele>172.79999999999998</ele><time>2026-04-07T09:11:30.999Z</time></trkpt><trkpt lat="45.58679186827762" lon="9.334055122165546"><ele>173.2</ele><time>2026-04-07T09:11:32.999Z</time></trkpt><trkpt lat="45.586788580776265" lon="9.333918886902202"><ele>173.6</ele><time>2026-04-07T09:11:34.999Z</time></trkpt><trkpt lat="45.58678848743378" lon="9.333760539624352"><ele>174.0</ele><time>2026-04-07T09:11:36.999Z</time></trkpt><trkpt lat="45.58678471927277" lon="9.333595642126753"><ele>174.0</ele><time>2026-04-07T09:11:38.999Z</time></trkpt><trkpt lat="45.586780789496956" lon="9.33343359773276"><ele>174.0</ele><time>2026-04-07T09:11:40.999Z</time></trkpt><trkpt lat="45.586776531739275" lon="9.33327174331466"><ele>174.0</ele><time>2026-04-07T09:11:42.999Z</time></trkpt><trkpt lat="45.58677337261178" lon="9.33310808582387"><ele>174.0</ele><time>2026-04-07T09:11:45Z</time></trkpt><trkpt lat="45.58676951889928" lon="9.332935949971436"><ele>174.5</ele><time>2026-04-07T09:11:47Z</time></trkpt><trkpt lat="45.58676563961303" lon="9.33276595982132"><ele>175.0</ele><time>2026-04-07T09:11:49Z</time></trkpt><trkpt lat="45.586761941036336" lon="9.3326038884901"><ele>175.5</ele><time>2026-04-07T09:11:51Z</time></trkpt><trkpt lat="45.586757006731226" lon="9.332428692913014"><ele>176.0</ele><time>2026-04-07T09:11:53Z</time></trkpt><trkpt lat="45.586744866239805" lon="9.332253097584767"><ele>175.60000000000002</ele><time>2026-04-07T09:11:55Z</time></trkpt><trkpt lat="45.58672419925811" lon="9.332075893144964"><ele>175.2</ele><time>2026-04-07T09:11:57Z</time></trkpt><trkpt lat="45.58670728184475" lon="9.331985592924262"><ele>174.8</ele><time>2026-04-07T09:11:58Z</time></trkpt><trkpt lat="45.586667392912425" lon="9.33181841152599"><ele>174.39999999999998</ele><time>2026-04-07T09:12:00Z</time></trkpt><trkpt lat="45.58664510013408" lon="9.331733120903808"><ele>174.0</ele><time>2026-04-07T09:12:01Z</time></trkpt><trkpt lat="45.58660071437177" lon="9.331575611328477"><ele>174.0</ele><time>2026-04-07T09:12:03Z</time></trkpt><trkpt lat="45.5865111172452" lon="9.331527471016289"><ele>174.0</ele><time>2026-04-07T09:12:04Z</time></trkpt><trkpt lat="45.5864391906127" lon="9.331382295541266"><ele>174.0</ele><time>2026-04-07T09:12:06Z</time></trkpt><trkpt lat="45.58635028144358" lon="9.331262271149704"><ele>174.0</ele><time>2026-04-07T09:12:08Z</time></trkpt><trkpt lat="45.5863059898017" lon="9.331028869118667"><ele>173.0</ele><time>2026-04-07T09:12:10Z</time></trkpt><trkpt lat="45.58630981330989" lon="9.330824655561383"><ele>172.0</ele><time>2026-04-07T09:12:12Z</time></trkpt><trkpt lat="45.58622667300944" lon="9.330705855695923"><ele>171.0</ele><time>2026-04-07T09:12:14Z</time></trkpt><trkpt lat="45.58603088625705" lon="9.330870055649113"><ele>171.0</ele><time>2026-04-07T09:12:15Z</time></trkpt><trkpt lat="45.58593425236724" lon="9.330769616912969"><ele>171.0</ele><time>2026-04-07T09:12:17Z</time></trkpt><trkpt lat="45.58584510501311" lon="9.330663077786642"><ele>171.0</ele><time>2026-04-07T09:12:19Z</time></trkpt><trkpt lat="45.5857422771922" lon="9.330555869436576"><ele>171.0</ele><time>2026-04-07T09:12:21Z</time></trkpt><trkpt lat="45.58568868101328" lon="9.330498898323166"><ele>171.0</ele><time>2026-04-07T09:12:22Z</time></trkpt><trkpt lat="45.585636925279445" lon="9.330443724515284"><ele>170.5</ele><time>2026-04-07T09:12:23Z</time></trkpt><trkpt lat="45.585585841973526" lon="9.33039045026535"><ele>170.0</ele><time>2026-04-07T09:12:24Z</time></trkpt><trkpt lat="45.58548485834454" lon="9.330285099610487"><ele>169.5</ele><time>2026-04-07T09:12:26Z</time></trkpt><trkpt lat="45.58548561234804" lon="9.33002462501607"><ele>169.0</ele><time>2026-04-07T09:12:27Z</time></trkpt><trkpt lat="45.585379835075415" lon="9.3299728893121"><ele>168.79999999999998</ele><time>2026-04-07T09:12:29Z</time></trkpt><trkpt lat="45.58528039615438" lon="9.329913902546096"><ele>168.6</ele><time>2026-04-07T09:12:31Z</time></trkpt><trkpt lat="45.58518137791984" lon="9.329826083268593"><ele>168.4</ele><time>2026-04-07T09:12:33Z</time></trkpt><trkpt lat="45.58508019583536" lon="9.329724149034979"><ele>168.2</ele><time>2026-04-07T09:12:35Z</time></trkpt><trkpt lat="45.58502670620071" lon="9.329668383551239"><ele>168.0</ele><time>2026-04-07T09:12:36Z</time></trkpt><trkpt lat="45.58492666153879" lon="9.329564081923897"><ele>168.0</ele><time>2026-04-07T09:12:38Z</time></trkpt><trkpt lat="45.58487542402414" lon="9.329510664378175"><ele>168.0</ele><time>2026-04-07T09:12:39Z</time></trkpt><trkpt lat="45.5848243592538" lon="9.329457427969963"><ele>168.0</ele><time>2026-04-07T09:12:40Z</time></trkpt><trkpt lat="45.584772784701215" lon="9.329403091670457"><ele>168.0</ele><time>2026-04-07T09:12:41Z</time></trkpt><trkpt lat="45.58471975861247" lon="9.329347402763805"><ele>168.0</ele><time>2026-04-07T09:12:42Z</time></trkpt><trkpt lat="45.58461741698087" lon="9.32923992174654"><ele>168.0</ele><time>2026-04-07T09:12:44Z</time></trkpt><trkpt lat="45.584517962532374" lon="9.329135472976564"><ele>167.75</ele><time>2026-04-07T09:12:46Z</time></trkpt><trkpt lat="45.584419698074726" lon="9.329032456057972"><ele>167.5</ele><time>2026-04-07T09:12:48Z</time></trkpt><trkpt lat="45.5843193816212" lon="9.328927457382196"><ele>167.25</ele><time>2026-04-07T09:12:50Z</time></trkpt><trkpt lat="45.58421846746514" lon="9.328821833106907"><ele>167.0</ele><time>2026-04-07T09:12:52Z</time></trkpt><trkpt lat="45.58411756098536" lon="9.328716216876414"><ele>167.0</ele><time>2026-04-07T09:12:54Z</time></trkpt><trkpt lat="45.58401632206941" lon="9.32861025267171"><ele>167.0</ele><time>2026-04-07T09:12:56Z</time></trkpt><trkpt lat="45.58396498649155" lon="9.328556521022858"><ele>167.0</ele><time>2026-04-07T09:12:57Z</time></trkpt><trkpt lat="45.583864756796416" lon="9.328451613178643"><ele>167.0</ele><time>2026-04-07T09:12:59Z</time></trkpt><trkpt lat="45.58376455492698" lon="9.32834673441313"><ele>167.0</ele><time>2026-04-07T09:13:01Z</time></trkpt><trkpt lat="45.58366631889765" lon="9.32824391326925"><ele>167.0</ele><time>2026-04-07T09:13:03Z</time></trkpt><trkpt lat="45.58361499417516" lon="9.328190192969702"><ele>167.0</ele><time>2026-04-07T09:13:04Z</time></trkpt><trkpt lat="45.58356324757381" lon="9.328136031143464"><ele>167.0</ele><time>2026-04-07T09:13:05Z</time></trkpt><trkpt lat="45.58346403506105" lon="9.32803218792306"><ele>167.0</ele><time>2026-04-07T09:13:07Z</time></trkpt><trkpt lat="45.58243231540898" lon="9.326936040282524"><ele>166.39999999999998</ele><time>2026-04-07T09:13:31.999Z</time></trkpt><trkpt lat="45.582350918839865" lon="9.326860172030582"><ele>165.79999999999998</ele><time>2026-04-07T09:13:33.999Z</time></trkpt><trkpt lat="45.5822640936629" lon="9.326771810700778"><ele>165.2</ele><time>2026-04-07T09:13:36Z</time></trkpt><trkpt lat="45.58217368951819" lon="9.326679437858598"><ele>164.6</ele><time>2026-04-07T09:13:38Z</time></trkpt><trkpt lat="45.58208229521788" lon="9.326585246068978"><ele>164.0</ele><time>2026-04-07T09:13:40Z</time></trkpt><trkpt lat="45.581984905017286" lon="9.326484874838481"><ele>164.0</ele><time>2026-04-07T09:13:42Z</time></trkpt><trkpt lat="45.58188522563536" lon="9.326382144142832"><ele>164.0</ele><time>2026-04-07T09:13:44Z</time></trkpt><trkpt lat="45.581782040923606" lon="9.32627580113527"><ele>164.0</ele><time>2026-04-07T09:13:46Z</time></trkpt><trkpt lat="45.58173081492615" lon="9.326223007367501"><ele>164.0</ele><time>2026-04-07T09:13:47Z</time></trkpt><trkpt lat="45.581679621165215" lon="9.326170213814201"><ele>164.0</ele><time>2026-04-07T09:13:48Z</time></trkpt><trkpt lat="45.58157809942616" lon="9.326068595966987"><ele>164.0</ele><time>2026-04-07T09:13:50Z</time></trkpt><trkpt lat="45.581477862352166" lon="9.325968676675444"><ele>164.0</ele><time>2026-04-07T09:13:52Z</time></trkpt><trkpt lat="45.58137841870404" lon="9.325867686680462"><ele>164.0</ele><time>2026-04-07T09:13:54Z</time></trkpt><trkpt lat="45.58127870218464" lon="9.325764907383162"><ele>164.0</ele><time>2026-04-07T09:13:56Z</time></trkpt><trkpt lat="45.58117696015585" lon="9.325659408806313"><ele>164.0</ele><time>2026-04-07T09:13:58Z</time></trkpt><trkpt lat="45.581123291332105" lon="9.325603805204102"><ele>164.0</ele><time>2026-04-07T09:13:59Z</time></trkpt><trkpt lat="45.581020690889524" lon="9.325498991084256"><ele>164.0</ele><time>2026-04-07T09:14:01Z</time></trkpt><trkpt lat="45.58092100063149" lon="9.325397154658859"><ele>164.0</ele><time>2026-04-07T09:14:03Z</time></trkpt><trkpt lat="45.58082236514839" lon="9.325296417665287"><ele>164.0</ele><time>2026-04-07T09:14:05Z</time></trkpt><trkpt lat="45.58072397737443" lon="9.3251959336073"><ele>164.0</ele><time>2026-04-07T09:14:07Z</time></trkpt><trkpt lat="45.580628821588405" lon="9.325097724239768"><ele>164.0</ele><time>2026-04-07T09:14:09Z</time></trkpt><trkpt lat="45.58053315638568" lon="9.3249982772247"><ele>164.0</ele><time>2026-04-07T09:14:11Z</time></trkpt><trkpt lat="45.58044277772252" lon="9.324904325725049"><ele>164.0</ele><time>2026-04-07T09:14:13Z</time></trkpt><trkpt lat="45.58035851835423" lon="9.324817360601275"><ele>163.83333333333331</ele><time>2026-04-07T09:14:15Z</time></trkpt><trkpt lat="45.580276930167365" lon="9.32473702367841"><ele>163.66666666666666</ele><time>2026-04-07T09:14:17Z</time></trkpt><trkpt lat="45.580203445505155" lon="9.324665249627792"><ele>163.5</ele><time>2026-04-07T09:14:19Z</time></trkpt><trkpt lat="45.580141391227826" lon="9.324598748852182"><ele>163.33333333333334</ele><time>2026-04-07T09:14:21Z</time></trkpt><trkpt lat="45.580083367764765" lon="9.32453122037387"><ele>163.16666666666669</ele><time>2026-04-07T09:14:23Z</time></trkpt><trkpt lat="45.58002053872056" lon="9.32445581236256"><ele>163.0</ele><time>2026-04-07T09:14:26Z</time></trkpt><trkpt lat="45.57990483269018" lon="9.32437962154664"><ele>163.0</ele><time>2026-04-07T09:14:38Z</time></trkpt><trkpt lat="45.57992715460483" lon="9.324215607242465"><ele>163.0</ele><time>2026-04-07T09:14:40Z</time></trkpt><trkpt lat="45.57995599411292" lon="9.324053734961467"><ele>163.0</ele><time>2026-04-07T09:14:42Z</time></trkpt><trkpt lat="45.579974396305246" lon="9.323881441776683"><ele>163.0</ele><time>2026-04-07T09:14:44Z</time></trkpt><trkpt lat="45.5799871552342" lon="9.323720504013806"><ele>162.83333333333334</ele><time>2026-04-07T09:14:46Z</time></trkpt><trkpt lat="45.580000894306785" lon="9.323572917409749"><ele>162.66666666666669</ele><time>2026-04-07T09:14:48Z</time></trkpt><trkpt lat="45.580013279720625" lon="9.32344240086698"><ele>162.5</ele><time>2026-04-07T09:14:50Z</time></trkpt><trkpt lat="45.58000482623326" lon="9.323556158018574"><ele>162.33333333333334</ele><time>2026-04-07T09:14:56Z</time></trkpt><trkpt lat="45.58003882290661" lon="9.323676237394205"><ele>162.16666666666666</ele><time>2026-04-07T09:14:58Z</time></trkpt><trkpt lat="45.580036170994674" lon="9.323768704037931"><ele>162.0</ele><time>2026-04-07T09:15:00Z</time></trkpt><trkpt lat="45.580025054226994" lon="9.323870898551245"><ele>162.0</ele><time>2026-04-07T09:15:02Z</time></trkpt><trkpt lat="45.580003272002884" lon="9.323974132119314"><ele>162.0</ele><time>2026-04-07T09:15:04Z</time></trkpt><trkpt lat="45.57996209054286" lon="9.324065629403462"><ele>162.0</ele><time>2026-04-07T09:15:06Z</time></trkpt><trkpt lat="45.57985735268885" lon="9.324004713262212"><ele>162.0</ele><time>2026-04-07T09:15:08Z</time></trkpt><trkpt lat="45.57977228699168" lon="9.323997714784882"><ele>162.0</ele><time>2026-04-07T09:15:10Z</time></trkpt><trkpt lat="45.57969384971058" lon="9.323945461816495"><ele>162.0</ele><time>2026-04-07T09:15:12Z</time></trkpt><trkpt lat="45.57962760281028" lon="9.323813775428581"><ele>162.0</ele><time>2026-04-07T09:15:14Z</time></trkpt><trkpt lat="45.579544708347505" lon="9.323699824513591"><ele>162.0</ele><time>2026-04-07T09:15:16Z</time></trkpt><trkpt lat="45.57945473779402" lon="9.32357336063055"><ele>162.0</ele><time>2026-04-07T09:15:18.001Z</time></trkpt><trkpt lat="45.579391139583834" lon="9.32353383548503"><ele>162.0</ele><time>2026-04-07T09:15:19.001Z</time></trkpt><trkpt lat="45.57930964506507" lon="9.323395221160999"><ele>162.0</ele><time>2026-04-07T09:15:21.001Z</time></trkpt><trkpt lat="45.57926105093785" lon="9.323337141866043"><ele>161.85714285714286</ele><time>2026-04-07T09:15:22Z</time></trkpt><trkpt lat="45.57921208103659" lon="9.323280485019026"><ele>161.71428571428572</ele><time>2026-04-07T09:15:23Z</time></trkpt><trkpt lat="45.57916279688569" lon="9.323220816322245"><ele>161.57142857142856</ele><time>2026-04-07T09:15:24Z</time></trkpt><trkpt lat="45.579065037475225" lon="9.323107891949459"><ele>161.42857142857144</ele><time>2026-04-07T09:15:26Z</time></trkpt><trkpt lat="45.57901394844852" lon="9.323052575472722"><ele>161.28571428571428</ele><time>2026-04-07T09:15:27Z</time></trkpt><trkpt lat="45.57896475835485" lon="9.322994147245533"><ele>161.14285714285714</ele><time>2026-04-07T09:15:28Z</time></trkpt><trkpt lat="45.57891593922989" lon="9.32293677512039"><ele>161.0</ele><time>2026-04-07T09:15:29Z</time></trkpt><trkpt lat="45.578862799968135" lon="9.322880761470397"><ele>161.0</ele><time>2026-04-07T09:15:30Z</time></trkpt><trkpt lat="45.57881207919314" lon="9.32282221561749"><ele>161.0</ele><time>2026-04-07T09:15:31Z</time></trkpt><trkpt lat="45.57871866185462" lon="9.322702456239126"><ele>161.0</ele><time>2026-04-07T09:15:33Z</time></trkpt><trkpt lat="45.57862250098904" lon="9.322585303791609"><ele>161.0</ele><time>2026-04-07T09:15:35Z</time></trkpt><trkpt lat="45.578572606480286" lon="9.32252880219475"><ele>161.0</ele><time>2026-04-07T09:15:36Z</time></trkpt><trkpt lat="45.578525389231274" lon="9.322468338718183"><ele>161.0</ele><time>2026-04-07T09:15:37Z</time></trkpt><trkpt lat="45.57843000387802" lon="9.32235527243234"><ele>160.60000000000002</ele><time>2026-04-07T09:15:39Z</time></trkpt><trkpt lat="45.57833648135707" lon="9.322240160763075"><ele>160.20000000000002</ele><time>2026-04-07T09:15:41Z</time></trkpt><trkpt lat="45.57824425934129" lon="9.322120587939109"><ele>159.8</ele><time>2026-04-07T09:15:43Z</time></trkpt><trkpt lat="45.57819856658288" lon="9.322057282234656"><ele>159.4</ele><time>2026-04-07T09:15:44Z</time></trkpt><trkpt lat="45.57815062563218" lon="9.321997626003222"><ele>159.0</ele><time>2026-04-07T09:15:45Z</time></trkpt><trkpt lat="45.57805556684992" lon="9.321880927621141"><ele>159.0</ele><time>2026-04-07T09:15:47Z</time></trkpt><trkpt lat="45.57796188463524" lon="9.321766144535726"><ele>159.0</ele><time>2026-04-07T09:15:49Z</time></trkpt><trkpt lat="45.577919996019176" lon="9.321858860866072"><ele>159.0</ele><time>2026-04-07T09:15:52Z</time></trkpt><trkpt lat="45.57785335999334" lon="9.321809004454861"><ele>159.0</ele><time>2026-04-07T09:15:56Z</time></trkpt><trkpt lat="45.57780937580233" lon="9.321736257506887"><ele>159.0</ele><time>2026-04-07T09:15:58Z</time></trkpt><trkpt lat="45.577746356793575" lon="9.32164379856242"><ele>159.0</ele><time>2026-04-07T09:16:00Z</time></trkpt><trkpt lat="45.57766403439009" lon="9.321550367066418"><ele>159.25</ele><time>2026-04-07T09:16:02Z</time></trkpt><trkpt lat="45.577581964697856" lon="9.321442209402854"><ele>159.5</ele><time>2026-04-07T09:16:04Z</time></trkpt><trkpt lat="45.57749503928103" lon="9.321327193743649"><ele>159.75</ele><time>2026-04-07T09:16:06Z</time></trkpt><trkpt lat="45.57740146783933" lon="9.32121357084957"><ele>160.0</ele><time>2026-04-07T09:16:08Z</time></trkpt><trkpt lat="45.5773105916618" lon="9.321093861997257"><ele>159.5</ele><time>2026-04-07T09:16:10Z</time></trkpt><trkpt lat="45.57726258283887" lon="9.32103528271715"><ele>159.0</ele><time>2026-04-07T09:16:11Z</time></trkpt><trkpt lat="45.57717067971159" lon="9.32091536754904"><ele>158.5</ele><time>2026-04-07T09:16:13Z</time></trkpt><trkpt lat="45.577123352272125" lon="9.32085574653931"><ele>158.0</ele><time>2026-04-07T09:16:14Z</time></trkpt><trkpt lat="45.57712696630035" lon="9.320718177659545"><ele>157.5</ele><time>2026-04-07T09:16:15Z</time></trkpt><trkpt lat="45.57707990750545" lon="9.32065760373429"><ele>157.0</ele><time>2026-04-07T09:16:16Z</time></trkpt><trkpt lat="45.57703279390911" lon="9.320596959188645"><ele>157.5</ele><time>2026-04-07T09:16:17Z</time></trkpt><trkpt lat="45.57694068404907" lon="9.32047839596737"><ele>158.0</ele><time>2026-04-07T09:16:19Z</time></trkpt><trkpt lat="45.57689302883519" lon="9.32041705430638"><ele>158.5</ele><time>2026-04-07T09:16:20Z</time></trkpt><trkpt lat="45.57679940771946" lon="9.320296545638179"><ele>159.0</ele><time>2026-04-07T09:16:22Z</time></trkpt><trkpt lat="45.576751466019196" lon="9.320234835470494"><ele>159.5</ele><time>2026-04-07T09:16:23Z</time></trkpt><trkpt lat="45.57670450856653" lon="9.32017439157501"><ele>160.0</ele><time>2026-04-07T09:16:24Z</time></trkpt><trkpt lat="45.57665705500798" lon="9.320113310116193"><ele>160.0</ele><time>2026-04-07T09:16:25Z</time></trkpt><trkpt lat="45.57660921943522" lon="9.320051806064447"><ele>160.0</ele><time>2026-04-07T09:16:26Z</time></trkpt><trkpt lat="45.57656156000517" lon="9.319990615945992"><ele>160.0</ele><time>2026-04-07T09:16:27Z</time></trkpt><trkpt lat="45.576513090093165" lon="9.319928385184442"><ele>160.0</ele><time>2026-04-07T09:16:28Z</time></trkpt><trkpt lat="45.576465820616185" lon="9.319867695597692"><ele>160.0</ele><time>2026-04-07T09:16:29Z</time></trkpt><trkpt lat="45.5763718723664" lon="9.319747075202454"><ele>160.0</ele><time>2026-04-07T09:16:31Z</time></trkpt><trkpt lat="45.57627906674177" lon="9.319627921531945"><ele>159.66666666666669</ele><time>2026-04-07T09:16:33Z</time></trkpt><trkpt lat="45.57618619596365" lon="9.319508607589876"><ele>159.33333333333334</ele><time>2026-04-07T09:16:35Z</time></trkpt><trkpt lat="45.57613817797457" lon="9.31944674730856"><ele>159.0</ele><time>2026-04-07T09:16:36Z</time></trkpt><trkpt lat="45.57604535117946" lon="9.319327161045411"><ele>158.66666666666666</ele><time>2026-04-07T09:16:38Z</time></trkpt><trkpt lat="45.57599805173663" lon="9.319266226649072"><ele>158.33333333333331</ele><time>2026-04-07T09:16:39Z</time></trkpt><trkpt lat="45.57595108001758" lon="9.319205714371938"><ele>158.0</ele><time>2026-04-07T09:16:40Z</time></trkpt><trkpt lat="45.575856570439804" lon="9.31908396048258"><ele>158.00000000000003</ele><time>2026-04-07T09:16:42Z</time></trkpt><trkpt lat="45.575809514257436" lon="9.31902333925886"><ele>158.0</ele><time>2026-04-07T09:16:43Z</time></trkpt><trkpt lat="45.575761690172506" lon="9.318961728880188"><ele>158.0</ele><time>2026-04-07T09:16:44Z</time></trkpt><trkpt lat="45.575714746056086" lon="9.318901252027324"><ele>158.0</ele><time>2026-04-07T09:16:45Z</time></trkpt><trkpt lat="45.57562006333172" lon="9.31877927519614"><ele>158.0</ele><time>2026-04-07T09:16:47Z</time></trkpt><trkpt lat="45.57557257843735" lon="9.318718717824526"><ele>158.00000000000003</ele><time>2026-04-07T09:16:48Z</time></trkpt><trkpt lat="45.57552516718386" lon="9.318658392574235"><ele>158.0</ele><time>2026-04-07T09:16:49Z</time></trkpt><trkpt lat="45.5754764371324" lon="9.31859638957109"><ele>158.0</ele><time>2026-04-07T09:16:50Z</time></trkpt><trkpt lat="45.57542859403395" lon="9.318535515195952"><ele>158.0</ele><time>2026-04-07T09:16:51Z</time></trkpt><trkpt lat="45.575380539705556" lon="9.318475608286336"><ele>158.0</ele><time>2026-04-07T09:16:52Z</time></trkpt><trkpt lat="45.57528626893491" lon="9.318357970956024"><ele>158.0</ele><time>2026-04-07T09:16:54Z</time></trkpt><trkpt lat="45.575238350664065" lon="9.31829817565086"><ele>158.0</ele><time>2026-04-07T09:16:55Z</time></trkpt><trkpt lat="45.57518931692627" lon="9.318236988665205"><ele>158.0</ele><time>2026-04-07T09:16:56Z</time></trkpt><trkpt lat="45.57510008632466" lon="9.31812102077166"><ele>158.60000000000002</ele><time>2026-04-07T09:16:58Z</time></trkpt><trkpt lat="45.575015544546446" lon="9.318011654797532"><ele>159.20000000000002</ele><time>2026-04-07T09:17:00Z</time></trkpt><trkpt lat="45.57492546816186" lon="9.317895129078126"><ele>159.8</ele><time>2026-04-07T09:17:02Z</time></trkpt><trkpt lat="45.57483417393767" lon="9.31777714299188"><ele>160.4</ele><time>2026-04-07T09:17:04Z</time></trkpt><trkpt lat="45.57478613717808" lon="9.317715601808086"><ele>161.0</ele><time>2026-04-07T09:17:05Z</time></trkpt><trkpt lat="45.57469384855987" lon="9.31759736822677"><ele>161.0</ele><time>2026-04-07T09:17:07Z</time></trkpt><trkpt lat="45.57460317902977" lon="9.317481208968376"><ele>161.0</ele><time>2026-04-07T09:17:09.001Z</time></trkpt><trkpt lat="45.57451517960876" lon="9.317368470468598"><ele>161.0</ele><time>2026-04-07T09:17:11.001Z</time></trkpt><trkpt lat="45.57442919268854" lon="9.31725831022328"><ele>161.0</ele><time>2026-04-07T09:17:13.001Z</time></trkpt><trkpt lat="45.57434240176186" lon="9.3171471199566"><ele>159.60000000000002</ele><time>2026-04-07T09:17:15.001Z</time></trkpt><trkpt lat="45.57425342716417" lon="9.31703313212743"><ele>158.20000000000002</ele><time>2026-04-07T09:17:17.001Z</time></trkpt><trkpt lat="45.57416035958879" lon="9.316913900678587"><ele>156.8</ele><time>2026-04-07T09:17:19.001Z</time></trkpt><trkpt lat="45.57406794157539" lon="9.316795456339458"><ele>155.4</ele><time>2026-04-07T09:17:21.001Z</time></trkpt><trkpt lat="45.574020255507875" lon="9.316734260005115"><ele>154.0</ele><time>2026-04-07T09:17:22.001Z</time></trkpt><trkpt lat="45.57397287405617" lon="9.316673454666594"><ele>154.0</ele><time>2026-04-07T09:17:23.001Z</time></trkpt><trkpt lat="45.57392534730762" lon="9.31661246278477"><ele>154.0</ele><time>2026-04-07T09:17:24.001Z</time></trkpt><trkpt lat="45.57387682368815" lon="9.316551704087836"><ele>154.0</ele><time>2026-04-07T09:17:25.001Z</time></trkpt><trkpt lat="45.573830007688734" lon="9.316491065754104"><ele>154.0</ele><time>2026-04-07T09:17:26.001Z</time></trkpt><trkpt lat="45.5737822821773" lon="9.316429560482112"><ele>154.0</ele><time>2026-04-07T09:17:27.001Z</time></trkpt><trkpt lat="45.573733382451145" lon="9.316367362634967"><ele>154.0</ele><time>2026-04-07T09:17:27.999Z</time></trkpt><trkpt lat="45.57368550370734" lon="9.316307963269523"><ele>154.0</ele><time>2026-04-07T09:17:28.999Z</time></trkpt><trkpt lat="45.57359066950404" lon="9.316188183045947"><ele>154.28571428571428</ele><time>2026-04-07T09:17:30.999Z</time></trkpt><trkpt lat="45.57354253008362" lon="9.3161261875016"><ele>154.57142857142856</ele><time>2026-04-07T09:17:31.999Z</time></trkpt><trkpt lat="45.57349544767611" lon="9.316065553206835"><ele>154.85714285714286</ele><time>2026-04-07T09:17:32.999Z</time></trkpt><trkpt lat="45.573448607924036" lon="9.316005231464805"><ele>155.14285714285714</ele><time>2026-04-07T09:17:33.999Z</time></trkpt><trkpt lat="45.57340162556854" lon="9.31594472602203"><ele>155.42857142857142</ele><time>2026-04-07T09:17:34.999Z</time></trkpt><trkpt lat="45.57335429859017" lon="9.315883776764805"><ele>155.71428571428572</ele><time>2026-04-07T09:17:35.999Z</time></trkpt><trkpt lat="45.573307511190464" lon="9.315823522419581"><ele>156.0</ele><time>2026-04-07T09:17:36.999Z</time></trkpt><trkpt lat="45.57321426359171" lon="9.315703443635218"><ele>156.0</ele><time>2026-04-07T09:17:38.999Z</time></trkpt><trkpt lat="45.57312065256316" lon="9.315583155478704"><ele>156.0</ele><time>2026-04-07T09:17:40.999Z</time></trkpt><trkpt lat="45.57302552054738" lon="9.315460912972899"><ele>156.0</ele><time>2026-04-07T09:17:43Z</time></trkpt><trkpt lat="45.572933635914225" lon="9.315342843223947"><ele>156.0</ele><time>2026-04-07T09:17:45Z</time></trkpt><trkpt lat="45.57284104067068" lon="9.315223921205847"><ele>156.25</ele><time>2026-04-07T09:17:47Z</time></trkpt><trkpt lat="45.5727484589064" lon="9.31510542873703"><ele>156.5</ele><time>2026-04-07T09:17:49Z</time></trkpt><trkpt lat="45.57265849076459" lon="9.314990281331081"><ele>156.75</ele><time>2026-04-07T09:17:51Z</time></trkpt><trkpt lat="45.572565760247336" lon="9.31487171243242"><ele>157.0</ele><time>2026-04-07T09:17:53Z</time></trkpt><trkpt lat="45.57247868753713" lon="9.314758711323327"><ele>156.6</ele><time>2026-04-07T09:17:55Z</time></trkpt><trkpt lat="45.57243156667361" lon="9.314698705768588"><ele>156.2</ele><time>2026-04-07T09:17:56Z</time></trkpt><trkpt lat="45.57238342672921" lon="9.314637292194805"><ele>155.8</ele><time>2026-04-07T09:17:57Z</time></trkpt><trkpt lat="45.57229110214471" lon="9.314519510918966"><ele>155.4</ele><time>2026-04-07T09:17:59Z</time></trkpt><trkpt lat="45.572198467462414" lon="9.314401334051258"><ele>155.0</ele><time>2026-04-07T09:18:01Z</time></trkpt><trkpt lat="45.57210594606783" lon="9.314283301722094"><ele>155.75</ele><time>2026-04-07T09:18:03Z</time></trkpt><trkpt lat="45.57201443798192" lon="9.314166945220897"><ele>156.5</ele><time>2026-04-07T09:18:05Z</time></trkpt><trkpt lat="45.571921924307546" lon="9.314049313281807"><ele>157.25</ele><time>2026-04-07T09:18:07Z</time></trkpt><trkpt lat="45.571829117183576" lon="9.313931302556162"><ele>158.0</ele><time>2026-04-07T09:18:09Z</time></trkpt><trkpt lat="45.57173907844509" lon="9.313816141007162"><ele>158.0</ele><time>2026-04-07T09:18:11Z</time></trkpt><trkpt lat="45.571650454262894" lon="9.313700684643901"><ele>158.0</ele><time>2026-04-07T09:18:13Z</time></trkpt><trkpt lat="45.571560824113526" lon="9.313583780352873"><ele>158.0</ele><time>2026-04-07T09:18:15Z</time></trkpt><trkpt lat="45.57151390622071" lon="9.313522585114319"><ele>158.0</ele><time>2026-04-07T09:18:16Z</time></trkpt><trkpt lat="45.57142477385314" lon="9.313406367535464"><ele>158.0</ele><time>2026-04-07T09:18:18Z</time></trkpt><trkpt lat="45.571334441574926" lon="9.313289806063967"><ele>158.0</ele><time>2026-04-07T09:18:20Z</time></trkpt><trkpt lat="45.571247264436586" lon="9.313178583656315"><ele>158.0</ele><time>2026-04-07T09:18:22Z</time></trkpt><trkpt lat="45.57120027821231" lon="9.313118637735156"><ele>158.0</ele><time>2026-04-07T09:18:23Z</time></trkpt><trkpt lat="45.57115247595582" lon="9.31305765063436"><ele>158.0</ele><time>2026-04-07T09:18:24Z</time></trkpt><trkpt lat="45.571061721537816" lon="9.312941864223673"><ele>158.0</ele><time>2026-04-07T09:18:26Z</time></trkpt><trkpt lat="45.57097476159168" lon="9.312830918958982"><ele>157.5</ele><time>2026-04-07T09:18:28Z</time></trkpt><trkpt lat="45.57088478224703" lon="9.312716121477136"><ele>157.0</ele><time>2026-04-07T09:18:30Z</time></trkpt><trkpt lat="45.570792365570256" lon="9.312598217061208"><ele>156.5</ele><time>2026-04-07T09:18:32Z</time></trkpt><trkpt lat="45.57069978030123" lon="9.312479322984219"><ele>156.0</ele><time>2026-04-07T09:18:34Z</time></trkpt><trkpt lat="45.5706084229205" lon="9.312362244815091"><ele>156.0</ele><time>2026-04-07T09:18:36Z</time></trkpt><trkpt lat="45.57051708590456" lon="9.312245978259783"><ele>156.0</ele><time>2026-04-07T09:18:38Z</time></trkpt><trkpt lat="45.57042480764287" lon="9.312134840728307"><ele>156.0</ele><time>2026-04-07T09:18:40Z</time></trkpt><trkpt lat="45.570376371934714" lon="9.312076789140226"><ele>156.0</ele><time>2026-04-07T09:18:41Z</time></trkpt><trkpt lat="45.57032775577042" lon="9.312018521297986"><ele>156.0</ele><time>2026-04-07T09:18:42Z</time></trkpt><trkpt lat="45.570235646066536" lon="9.31190812519381"><ele>156.0</ele><time>2026-04-07T09:18:44Z</time></trkpt><trkpt lat="45.570145446964325" lon="9.311800205661495"><ele>156.0</ele><time>2026-04-07T09:18:46Z</time></trkpt><trkpt lat="45.5700599875165" lon="9.31169796516284"><ele>156.0</ele><time>2026-04-07T09:18:48Z</time></trkpt><trkpt lat="45.56997882128902" lon="9.311600391528476"><ele>156.0</ele><time>2026-04-07T09:18:50Z</time></trkpt><trkpt lat="45.56990541938831" lon="9.31150757318785"><ele>156.0</ele><time>2026-04-07T09:18:52Z</time></trkpt><trkpt lat="45.56982822977109" lon="9.311408569561205"><ele>156.0</ele><time>2026-04-07T09:18:54Z</time></trkpt><trkpt lat="45.56974883572178" lon="9.311306738532759"><ele>156.0</ele><time>2026-04-07T09:18:56Z</time></trkpt><trkpt lat="45.569670613285794" lon="9.311206313571018"><ele>156.0</ele><time>2026-04-07T09:18:58Z</time></trkpt><trkpt lat="45.569593935869435" lon="9.311107862183976"><ele>156.0</ele><time>2026-04-07T09:19:00Z</time></trkpt><trkpt lat="45.56952198294112" lon="9.311015476933628"><ele>156.0</ele><time>2026-04-07T09:19:02.001Z</time></trkpt><trkpt lat="45.569444031822" lon="9.310915296990702"><ele>156.0</ele><time>2026-04-07T09:19:04.001Z</time></trkpt><trkpt lat="45.56936461425392" lon="9.310813195207404"><ele>156.0</ele><time>2026-04-07T09:19:06.001Z</time></trkpt><trkpt lat="45.569282471199685" lon="9.310707589556475"><ele>156.0</ele><time>2026-04-07T09:19:08.001Z</time></trkpt><trkpt lat="45.56920047774848" lon="9.310601793054062"><ele>156.0</ele><time>2026-04-07T09:19:10.001Z</time></trkpt><trkpt lat="45.56911487903284" lon="9.310491303122571"><ele>156.0</ele><time>2026-04-07T09:19:12.001Z</time></trkpt><trkpt lat="45.56902448975122" lon="9.310374437211086"><ele>155.66666666666666</ele><time>2026-04-07T09:19:14.001Z</time></trkpt><trkpt lat="45.56893493237304" lon="9.310258263545307"><ele>155.33333333333334</ele><time>2026-04-07T09:19:16.001Z</time></trkpt><trkpt lat="45.56888765693677" lon="9.310196808236027"><ele>155.0</ele><time>2026-04-07T09:19:17.001Z</time></trkpt><trkpt lat="45.56879415440776" lon="9.310075385717223"><ele>154.66666666666669</ele><time>2026-04-07T09:19:19.001Z</time></trkpt><trkpt lat="45.5687465576708" lon="9.310013576470178"><ele>154.33333333333334</ele><time>2026-04-07T09:19:20.001Z</time></trkpt><trkpt lat="45.56870002929852" lon="9.309952414528228"><ele>154.0</ele><time>2026-04-07T09:19:21.001Z</time></trkpt><trkpt lat="45.56860784113798" lon="9.309831049182863"><ele>154.0</ele><time>2026-04-07T09:19:23.001Z</time></trkpt><trkpt lat="45.5685175519618" lon="9.309715335700282"><ele>154.0</ele><time>2026-04-07T09:19:25.001Z</time></trkpt><trkpt lat="45.568426732356286" lon="9.309597394528769"><ele>154.0</ele><time>2026-04-07T09:19:27.001Z</time></trkpt><trkpt lat="45.56833331355794" lon="9.309478888427618"><ele>154.0</ele><time>2026-04-07T09:19:29.001Z</time></trkpt><trkpt lat="45.56823971324417" lon="9.309359240457471"><ele>154.0</ele><time>2026-04-07T09:19:31.001Z</time></trkpt><trkpt lat="45.568192692875144" lon="9.30929936362471"><ele>154.0</ele><time>2026-04-07T09:19:32.001Z</time></trkpt><trkpt lat="45.56809886025901" lon="9.309179874967123"><ele>154.0</ele><time>2026-04-07T09:19:34Z</time></trkpt><trkpt lat="45.568006330842216" lon="9.30906204558286"><ele>154.0</ele><time>2026-04-07T09:19:36Z</time></trkpt><trkpt lat="45.567958888855856" lon="9.309002161456508"><ele>154.0</ele><time>2026-04-07T09:19:37Z</time></trkpt><trkpt lat="45.56786682533087" lon="9.308885663564093"><ele>154.25</ele><time>2026-04-07T09:19:39Z</time></trkpt><trkpt lat="45.56777391976346" lon="9.308767944196703"><ele>154.5</ele><time>2026-04-07T09:19:41Z</time></trkpt><trkpt lat="45.56768004882842" lon="9.308649001576114"><ele>154.75</ele><time>2026-04-07T09:19:43Z</time></trkpt><trkpt lat="45.567587556439655" lon="9.30853292512043"><ele>155.0</ele><time>2026-04-07T09:19:45Z</time></trkpt><trkpt lat="45.56749357924839" lon="9.308415933839827"><ele>155.0</ele><time>2026-04-07T09:19:47Z</time></trkpt><trkpt lat="45.56744431244842" lon="9.308355206721473"><ele>155.0</ele><time>2026-04-07T09:19:48Z</time></trkpt><trkpt lat="45.56739627157515" lon="9.308296540875913"><ele>155.0</ele><time>2026-04-07T09:19:49Z</time></trkpt><trkpt lat="45.567300434280696" lon="9.308179507646791"><ele>155.0</ele><time>2026-04-07T09:19:51Z</time></trkpt><trkpt lat="45.56725241910625" lon="9.308120873162999"><ele>155.0</ele><time>2026-04-07T09:19:52Z</time></trkpt><trkpt lat="45.56720302136188" lon="9.30806195836435"><ele>155.0</ele><time>2026-04-07T09:19:53Z</time></trkpt><trkpt lat="45.56715412408" lon="9.308004783569837"><ele>155.0</ele><time>2026-04-07T09:19:54Z</time></trkpt><trkpt lat="45.56710467597757" lon="9.307946964646437"><ele>155.0</ele><time>2026-04-07T09:19:55Z</time></trkpt><trkpt lat="45.56705550378993" lon="9.307889468371327"><ele>155.0</ele><time>2026-04-07T09:19:56Z</time></trkpt><trkpt lat="45.56700602673301" lon="9.307832181139272"><ele>155.0</ele><time>2026-04-07T09:19:57Z</time></trkpt><trkpt lat="45.56690821576935" lon="9.30772255889667"><ele>155.0</ele><time>2026-04-07T09:19:59Z</time></trkpt><trkpt lat="45.56685785262144" lon="9.30766784489803"><ele>155.0</ele><time>2026-04-07T09:20:00Z</time></trkpt><trkpt lat="45.56676058063192" lon="9.307564646263536"><ele>155.0</ele><time>2026-04-07T09:20:02Z</time></trkpt><trkpt lat="45.56670735419915" lon="9.307512957965729"><ele>154.8</ele><time>2026-04-07T09:20:03Z</time></trkpt><trkpt lat="45.56665145914652" lon="9.307464678517515"><ele>154.6</ele><time>2026-04-07T09:20:04Z</time></trkpt><trkpt lat="45.56657182864593" lon="9.30739820894642"><ele>154.4</ele><time>2026-04-07T09:20:07Z</time></trkpt><trkpt lat="45.566495601901075" lon="9.307334927847316"><ele>154.2</ele><time>2026-04-07T09:20:09Z</time></trkpt><trkpt lat="45.566398765995494" lon="9.307259702659495"><ele>154.0</ele><time>2026-04-07T09:20:11Z</time></trkpt><trkpt lat="45.5662993308138" lon="9.307182635314945"><ele>153.8</ele><time>2026-04-07T09:20:13Z</time></trkpt><trkpt lat="45.56619428739549" lon="9.307101221297517"><ele>153.60000000000002</ele><time>2026-04-07T09:20:15Z</time></trkpt><trkpt lat="45.566138504073095" lon="9.307059257227158"><ele>153.4</ele><time>2026-04-07T09:20:16Z</time></trkpt><trkpt lat="45.56602980328728" lon="9.306978018707472"><ele>153.20000000000002</ele><time>2026-04-07T09:20:18Z</time></trkpt><trkpt lat="45.56592077247587" lon="9.306897401054231"><ele>153.0</ele><time>2026-04-07T09:20:20Z</time></trkpt><trkpt lat="45.56581087322367" lon="9.306816141714611"><ele>153.0</ele><time>2026-04-07T09:20:22Z</time></trkpt><trkpt lat="45.56570214088664" lon="9.306734686024598"><ele>153.0</ele><time>2026-04-07T09:20:24Z</time></trkpt><trkpt lat="45.565592687832314" lon="9.30665279317454"><ele>153.0</ele><time>2026-04-07T09:20:26Z</time></trkpt><trkpt lat="45.56548233454789" lon="9.30657022682382"><ele>153.0</ele><time>2026-04-07T09:20:28Z</time></trkpt><trkpt lat="45.56537137738797" lon="9.306487208646718"><ele>153.0</ele><time>2026-04-07T09:20:30Z</time></trkpt><trkpt lat="45.56526257200848" lon="9.306405592755354"><ele>153.0</ele><time>2026-04-07T09:20:32Z</time></trkpt><trkpt lat="45.565206783684204" lon="9.3063637430301"><ele>153.0</ele><time>2026-04-07T09:20:33Z</time></trkpt><trkpt lat="45.56509809013175" lon="9.306282206286461"><ele>153.0</ele><time>2026-04-07T09:20:35Z</time></trkpt><trkpt lat="45.56498782600244" lon="9.306199491341058"><ele>153.0</ele><time>2026-04-07T09:20:37Z</time></trkpt><trkpt lat="45.56493147851564" lon="9.306158581725867"><ele>153.0</ele><time>2026-04-07T09:20:38Z</time></trkpt><trkpt lat="45.56487512682305" lon="9.306117983295634"><ele>153.0</ele><time>2026-04-07T09:20:39Z</time></trkpt><trkpt lat="45.56481884730239" lon="9.306077436877786"><ele>153.0</ele><time>2026-04-07T09:20:40.001Z</time></trkpt><trkpt lat="45.56470573652723" lon="9.305997156184581"><ele>153.0</ele><time>2026-04-07T09:20:42.001Z</time></trkpt><trkpt lat="45.56459553220951" lon="9.305920090177791"><ele>153.0</ele><time>2026-04-07T09:20:44.001Z</time></trkpt><trkpt lat="45.56448289530277" lon="9.305845651783661"><ele>153.0</ele><time>2026-04-07T09:20:46.001Z</time></trkpt><trkpt lat="45.56437019276522" lon="9.305772400218238"><ele>153.0</ele><time>2026-04-07T09:20:48.001Z</time></trkpt><trkpt lat="45.564259273490066" lon="9.305700824578125"><ele>153.0</ele><time>2026-04-07T09:20:50.001Z</time></trkpt><trkpt lat="45.56415437416732" lon="9.305633133585749"><ele>153.0</ele><time>2026-04-07T09:20:52.001Z</time></trkpt><trkpt lat="45.564057524712396" lon="9.30557063690085"><ele>153.20000000000002</ele><time>2026-04-07T09:20:54.001Z</time></trkpt><trkpt lat="45.56396476115087" lon="9.305514812865518"><ele>153.4</ele><time>2026-04-07T09:20:56.001Z</time></trkpt><trkpt lat="45.56388010636483" lon="9.305463676656965"><ele>153.60000000000002</ele><time>2026-04-07T09:20:58.001Z</time></trkpt><trkpt lat="45.56379667071916" lon="9.30541536170114"><ele>153.8</ele><time>2026-04-07T09:21:00.001Z</time></trkpt><trkpt lat="45.56371176344247" lon="9.305367448379954"><ele>154.0</ele><time>2026-04-07T09:21:02.001Z</time></trkpt><trkpt lat="45.563611030893256" lon="9.305310604126358"><ele>154.33333333333334</ele><time>2026-04-07T09:21:04.001Z</time></trkpt><trkpt lat="45.56349036328756" lon="9.305542065941347"><ele>154.66666666666666</ele><time>2026-04-07T09:21:05.001Z</time></trkpt><trkpt lat="45.563436302702534" lon="9.305419616458618"><ele>155.0</ele><time>2026-04-07T09:21:07.001Z</time></trkpt><trkpt lat="45.563438832276844" lon="9.305145125688828"><ele>155.0</ele><time>2026-04-07T09:21:09.001Z</time></trkpt><trkpt lat="45.56336202989015" lon="9.305094090304564"><ele>155.0</ele><time>2026-04-07T09:21:12.001Z</time></trkpt><trkpt lat="45.56330314872393" lon="9.304995628591774"><ele>155.0</ele><time>2026-04-07T09:21:15.001Z</time></trkpt><trkpt lat="45.563224070440974" lon="9.304924250742811"><ele>155.0</ele><time>2026-04-07T09:21:17.001Z</time></trkpt><trkpt lat="45.56313846275667" lon="9.304846946418406"><ele>155.0</ele><time>2026-04-07T09:21:19.001Z</time></trkpt><trkpt lat="45.56303955799927" lon="9.304757611462815"><ele>154.5</ele><time>2026-04-07T09:21:21.001Z</time></trkpt><trkpt lat="45.562933310163544" lon="9.30467143350069"><ele>154.0</ele><time>2026-04-07T09:21:23.001Z</time></trkpt><trkpt lat="45.562828731011805" lon="9.304589956230847"><ele>153.5</ele><time>2026-04-07T09:21:25.001Z</time></trkpt><trkpt lat="45.56271954901908" lon="9.30450827904658"><ele>153.0</ele><time>2026-04-07T09:21:27.001Z</time></trkpt><trkpt lat="45.56260873599244" lon="9.304424402582411"><ele>153.0</ele><time>2026-04-07T09:21:29.001Z</time></trkpt><trkpt lat="45.56255281485101" lon="9.304382149993671"><ele>153.0</ele><time>2026-04-07T09:21:30.001Z</time></trkpt><trkpt lat="45.5624437473937" lon="9.304301063826735"><ele>153.0</ele><time>2026-04-07T09:21:32.001Z</time></trkpt><trkpt lat="45.56238710001778" lon="9.304258949213265"><ele>153.0</ele><time>2026-04-07T09:21:33.001Z</time></trkpt><trkpt lat="45.56233117886398" lon="9.304217374733469"><ele>153.0</ele><time>2026-04-07T09:21:34.001Z</time></trkpt><trkpt lat="45.56221979134181" lon="9.304134563687995"><ele>153.0</ele><time>2026-04-07T09:21:36.001Z</time></trkpt><trkpt lat="45.56210999381271" lon="9.304053197920439"><ele>153.0</ele><time>2026-04-07T09:21:38.001Z</time></trkpt><trkpt lat="45.56200028168466" lon="9.30397198418206"><ele>153.0</ele><time>2026-04-07T09:21:40Z</time></trkpt><trkpt lat="45.56189038367618" lon="9.30389063218009"><ele>153.0</ele><time>2026-04-07T09:21:42Z</time></trkpt><trkpt lat="45.5617834793816" lon="9.303809989345911"><ele>153.0</ele><time>2026-04-07T09:21:44Z</time></trkpt><trkpt lat="45.561726963130965" lon="9.303768235429434"><ele>153.0</ele><time>2026-04-07T09:21:45Z</time></trkpt><trkpt lat="45.561623497903796" lon="9.303690779733657"><ele>153.0</ele><time>2026-04-07T09:21:47Z</time></trkpt><trkpt lat="45.56152492138008" lon="9.303616103952127"><ele>153.0</ele><time>2026-04-07T09:21:49Z</time></trkpt><trkpt lat="45.561440798482096" lon="9.303552222593433"><ele>153.0</ele><time>2026-04-07T09:21:51Z</time></trkpt><trkpt lat="45.56134933412182" lon="9.303482785780952"><ele>153.0</ele><time>2026-04-07T09:21:53Z</time></trkpt><trkpt lat="45.56129826541082" lon="9.303426540811566"><ele>153.0</ele><time>2026-04-07T09:21:54Z</time></trkpt><trkpt lat="45.56123481498179" lon="9.303364659477301"><ele>152.83333333333334</ele><time>2026-04-07T09:21:55Z</time></trkpt><trkpt lat="45.561097994324925" lon="9.303291615416047"><ele>152.66666666666666</ele><time>2026-04-07T09:21:57Z</time></trkpt><trkpt lat="45.56102680661056" lon="9.303237592520917"><ele>152.5</ele><time>2026-04-07T09:21:58Z</time></trkpt><trkpt lat="45.56096359840381" lon="9.303189625193966"><ele>152.33333333333331</ele><time>2026-04-07T09:21:59Z</time></trkpt><trkpt lat="45.56090399396994" lon="9.303144392652825"><ele>152.16666666666666</ele><time>2026-04-07T09:22:00Z</time></trkpt><trkpt lat="45.56084877826738" lon="9.303097935033632"><ele>152.0</ele><time>2026-04-07T09:22:01Z</time></trkpt><trkpt lat="45.56079339339805" lon="9.303051495768656"><ele>152.0</ele><time>2026-04-07T09:22:02Z</time></trkpt><trkpt lat="45.56068997111803" lon="9.302964778704855"><ele>152.0</ele><time>2026-04-07T09:22:04Z</time></trkpt><trkpt lat="45.560591571470326" lon="9.302879736334662"><ele>152.0</ele><time>2026-04-07T09:22:06Z</time></trkpt><trkpt lat="45.5604914732994" lon="9.30281898952047"><ele>152.0</ele><time>2026-04-07T09:22:08Z</time></trkpt><trkpt lat="45.56040223410097" lon="9.302808661392923"><ele>152.0</ele><time>2026-04-07T09:22:14Z</time></trkpt><trkpt lat="45.56030558051685" lon="9.302704328486"><ele>150.33333333333331</ele><time>2026-04-07T09:22:15Z</time></trkpt><trkpt lat="45.56023355489321" lon="9.303189859372987"><ele>148.66666666666666</ele><time>2026-04-07T09:22:17Z</time></trkpt><trkpt lat="45.5601642231139" lon="9.303261836719445"><ele>147.0</ele><time>2026-04-07T09:22:19Z</time></trkpt><trkpt lat="45.56008365415483" lon="9.30325612007405"><ele>147.0</ele><time>2026-04-07T09:22:21Z</time></trkpt><trkpt lat="45.560013228885545" lon="9.303263798662858"><ele>147.0</ele><time>2026-04-07T09:22:23Z</time></trkpt><trkpt lat="45.55994730403457" lon="9.303283232495781"><ele>147.0</ele><time>2026-04-07T09:22:26Z</time></trkpt><trkpt lat="45.55987744728226" lon="9.30323208145798"><ele>147.0</ele><time>2026-04-07T09:22:29Z</time></trkpt><trkpt lat="45.55988591519191" lon="9.303083336224367"><ele>147.0</ele><time>2026-04-07T09:22:31.001Z</time></trkpt><trkpt lat="45.55988162959652" lon="9.302952899249076"><ele>147.0</ele><time>2026-04-07T09:22:33.001Z</time></trkpt><trkpt lat="45.55986988407413" lon="9.302819745507154"><ele>147.5</ele><time>2026-04-07T09:22:35.001Z</time></trkpt><trkpt lat="45.559809740511774" lon="9.302731812325483"><ele>148.0</ele><time>2026-04-07T09:22:37.001Z</time></trkpt><trkpt lat="45.55971008870567" lon="9.302662170557625"><ele>148.5</ele><time>2026-04-07T09:22:39.001Z</time></trkpt><trkpt lat="45.55972947058763" lon="9.302330289259217"><ele>149.0</ele><time>2026-04-07T09:22:40.001Z</time></trkpt><trkpt lat="45.55966447902451" lon="9.302243490345534"><ele>149.25</ele><time>2026-04-07T09:22:42.001Z</time></trkpt><trkpt lat="45.55957212537449" lon="9.302189835033014"><ele>149.5</ele><time>2026-04-07T09:22:44.001Z</time></trkpt><trkpt lat="45.559477364561346" lon="9.30213669224322"><ele>149.75</ele><time>2026-04-07T09:22:46.001Z</time></trkpt><trkpt lat="45.559384060733755" lon="9.302084639146642"><ele>150.0</ele><time>2026-04-07T09:22:48.001Z</time></trkpt><trkpt lat="45.55926500909234" lon="9.302313848532279"><ele>149.0</ele><time>2026-04-07T09:22:49.001Z</time></trkpt><trkpt lat="45.559172292620914" lon="9.30225060262956"><ele>148.0</ele><time>2026-04-07T09:22:51.001Z</time></trkpt><trkpt lat="45.5592300069192" lon="9.301874326961693"><ele>147.0</ele><time>2026-04-07T09:22:53.001Z</time></trkpt><trkpt lat="45.559134079047126" lon="9.301784482531849"><ele>147.0</ele><time>2026-04-07T09:22:55.001Z</time></trkpt><trkpt lat="45.55905867645637" lon="9.301737564754308"><ele>147.0</ele><time>2026-04-07T09:22:56.001Z</time></trkpt><trkpt lat="45.5589717818524" lon="9.301680124923996"><ele>147.0</ele><time>2026-04-07T09:22:58.001Z</time></trkpt><trkpt lat="45.55888688331777" lon="9.301623125449657"><ele>147.0</ele><time>2026-04-07T09:23:00.001Z</time></trkpt><trkpt lat="45.55880281555077" lon="9.301566683372101"><ele>147.0</ele><time>2026-04-07T09:23:02.001Z</time></trkpt><trkpt lat="45.558718281694624" lon="9.301501092283928"><ele>147.2</ele><time>2026-04-07T09:23:04.001Z</time></trkpt><trkpt lat="45.558621531532516" lon="9.301428241456373"><ele>147.39999999999998</ele><time>2026-04-07T09:23:06.001Z</time></trkpt><trkpt lat="45.55852732221657" lon="9.301357303817932"><ele>147.60000000000002</ele><time>2026-04-07T09:23:08.001Z</time></trkpt><trkpt lat="45.558429964196314" lon="9.301283995253872"><ele>147.8</ele><time>2026-04-07T09:23:10.001Z</time></trkpt><trkpt lat="45.5583307262754" lon="9.301209650283504"><ele>148.0</ele><time>2026-04-07T09:23:12.001Z</time></trkpt><trkpt lat="45.55823998789377" lon="9.301140997008126"><ele>149.0</ele><time>2026-04-07T09:23:14.001Z</time></trkpt><trkpt lat="45.558159504128746" lon="9.301079897179346"><ele>150.0</ele><time>2026-04-07T09:23:16.001Z</time></trkpt><trkpt lat="45.55794934647966" lon="9.301341167769335"><ele>151.0</ele><time>2026-04-07T09:23:18.001Z</time></trkpt><trkpt lat="45.55787353416439" lon="9.301244166829143"><ele>150.5</ele><time>2026-04-07T09:23:20.001Z</time></trkpt><trkpt lat="45.55782096832094" lon="9.301117820212651"><ele>150.0</ele><time>2026-04-07T09:23:22.001Z</time></trkpt><trkpt lat="45.557743721796044" lon="9.301045153016094"><ele>149.5</ele><time>2026-04-07T09:23:24.001Z</time></trkpt><trkpt lat="45.55772855791194" lon="9.300768046254895"><ele>149.0</ele><time>2026-04-07T09:23:26.001Z</time></trkpt><trkpt lat="45.55763534607057" lon="9.300700274137993"><ele>149.0</ele><time>2026-04-07T09:23:28.001Z</time></trkpt><trkpt lat="45.55754418608131" lon="9.30063399384971"><ele>149.0</ele><time>2026-04-07T09:23:30.001Z</time></trkpt><trkpt lat="45.55745097182018" lon="9.300566483672613"><ele>149.0</ele><time>2026-04-07T09:23:32.001Z</time></trkpt><trkpt lat="45.55735747127747" lon="9.300498600575894"><ele>149.0</ele><time>2026-04-07T09:23:34.001Z</time></trkpt><trkpt lat="45.55726755108706" lon="9.300432355212731"><ele>149.0</ele><time>2026-04-07T09:23:36.001Z</time></trkpt><trkpt lat="45.55717466121898" lon="9.30036022733226"><ele>149.25</ele><time>2026-04-07T09:23:38.001Z</time></trkpt><trkpt lat="45.55703815031893" lon="9.3005586000782"><ele>149.5</ele><time>2026-04-07T09:23:39.001Z</time></trkpt><trkpt lat="45.55694413780994" lon="9.300481596470638"><ele>149.75</ele><time>2026-04-07T09:23:41.001Z</time></trkpt><trkpt lat="45.5568475051461" lon="9.30040562431303"><ele>150.0</ele><time>2026-04-07T09:23:43.001Z</time></trkpt><trkpt lat="45.55682957714508" lon="9.300106149966895"><ele>149.25</ele><time>2026-04-07T09:23:45.001Z</time></trkpt><trkpt lat="45.55672720368815" lon="9.300029087774869"><ele>148.5</ele><time>2026-04-07T09:23:47Z</time></trkpt><trkpt lat="45.55662678303785" lon="9.299953495078663"><ele>147.75</ele><time>2026-04-07T09:23:49Z</time></trkpt><trkpt lat="45.55652830133514" lon="9.299879361919867"><ele>147.0</ele><time>2026-04-07T09:23:51Z</time></trkpt><trkpt lat="45.55642449709222" lon="9.299801222157953"><ele>147.0</ele><time>2026-04-07T09:23:53Z</time></trkpt><trkpt lat="45.556321941748266" lon="9.299724022535909"><ele>147.0</ele><time>2026-04-07T09:23:55Z</time></trkpt><trkpt lat="45.55621720667674" lon="9.299645182071103"><ele>147.0</ele><time>2026-04-07T09:23:57Z</time></trkpt><trkpt lat="45.556115267685946" lon="9.299568446400986"><ele>147.0</ele><time>2026-04-07T09:23:59Z</time></trkpt><trkpt lat="45.55600937198067" lon="9.29948873227002"><ele>147.0</ele><time>2026-04-07T09:24:01Z</time></trkpt><trkpt lat="45.55589942304457" lon="9.299406617853105"><ele>147.0</ele><time>2026-04-07T09:24:03Z</time></trkpt><trkpt lat="45.555796948490034" lon="9.29933030807097"><ele>147.0</ele><time>2026-04-07T09:24:05Z</time></trkpt><trkpt lat="45.55570249971318" lon="9.299260107981528"><ele>147.0</ele><time>2026-04-07T09:24:07Z</time></trkpt><trkpt lat="45.55562291639733" lon="9.299201584170293"><ele>147.0</ele><time>2026-04-07T09:24:09Z</time></trkpt><trkpt lat="45.55553975102976" lon="9.299139230544698"><ele>147.0</ele><time>2026-04-07T09:24:12Z</time></trkpt><trkpt lat="45.555466084920816" lon="9.299080812682163"><ele>147.0</ele><time>2026-04-07T09:24:14Z</time></trkpt><trkpt lat="45.55539023906335" lon="9.299020325390256"><ele>147.0</ele><time>2026-04-07T09:24:16Z</time></trkpt><trkpt lat="45.55533187947299" lon="9.29897378353652"><ele>147.0</ele><time>2026-04-07T09:24:18Z</time></trkpt><trkpt lat="45.55526513776975" lon="9.298954502734693"><ele>147.0</ele><time>2026-04-07T09:24:20Z</time></trkpt><trkpt lat="45.55520763696199" lon="9.298903457827745"><ele>147.0</ele><time>2026-04-07T09:24:22Z</time></trkpt><trkpt lat="45.55513508398444" lon="9.29886320706408"><ele>147.4</ele><time>2026-04-07T09:24:25Z</time></trkpt><trkpt lat="45.555075437962614" lon="9.298792829005121"><ele>147.79999999999998</ele><time>2026-04-07T09:24:27Z</time></trkpt><trkpt lat="45.554989062681734" lon="9.298726217751096"><ele>148.2</ele><time>2026-04-07T09:24:29Z</time></trkpt><trkpt lat="45.55489605772379" lon="9.298656999519208"><ele>148.6</ele><time>2026-04-07T09:24:31Z</time></trkpt><trkpt lat="45.55480461111917" lon="9.298589818148152"><ele>149.0</ele><time>2026-04-07T09:24:33Z</time></trkpt><trkpt lat="45.554709492354405" lon="9.298520868955391"><ele>149.0</ele><time>2026-04-07T09:24:35Z</time></trkpt><trkpt lat="45.554609966459346" lon="9.298449961364724"><ele>149.0</ele><time>2026-04-07T09:24:37Z</time></trkpt><trkpt lat="45.55451210844078" lon="9.29838220328491"><ele>149.0</ele><time>2026-04-07T09:24:39Z</time></trkpt><trkpt lat="45.55441116212082" lon="9.298313682730884"><ele>149.0</ele><time>2026-04-07T09:24:41.001Z</time></trkpt><trkpt lat="45.554311292358726" lon="9.29824654428299"><ele>149.0</ele><time>2026-04-07T09:24:43.001Z</time></trkpt><trkpt lat="45.554210767603664" lon="9.298178965712761"><ele>148.8</ele><time>2026-04-07T09:24:45.001Z</time></trkpt><trkpt lat="45.5541174235998" lon="9.298116214287727"><ele>148.60000000000002</ele><time>2026-04-07T09:24:47.001Z</time></trkpt><trkpt lat="45.554022833824654" lon="9.298048019197065"><ele>148.4</ele><time>2026-04-07T09:24:49.001Z</time></trkpt><trkpt lat="45.55392541336747" lon="9.29797807225016"><ele>148.20000000000002</ele><time>2026-04-07T09:24:51.001Z</time></trkpt><trkpt lat="45.5538292254933" lon="9.297909012842107"><ele>148.0</ele><time>2026-04-07T09:24:53.001Z</time></trkpt><trkpt lat="45.55373045805554" lon="9.297833707832458"><ele>147.75</ele><time>2026-04-07T09:24:55.001Z</time></trkpt><trkpt lat="45.55363378823412" lon="9.297758564545939"><ele>147.5</ele><time>2026-04-07T09:24:57.001Z</time></trkpt><trkpt lat="45.55353416943593" lon="9.297678749396331"><ele>147.25</ele><time>2026-04-07T09:24:59.001Z</time></trkpt><trkpt lat="45.55343082057464" lon="9.297594003703768"><ele>147.0</ele><time>2026-04-07T09:25:01.001Z</time></trkpt><trkpt lat="45.553329386072456" lon="9.297510548824068"><ele>147.0</ele><time>2026-04-07T09:25:03.001Z</time></trkpt><trkpt lat="45.5532308107596" lon="9.297429463870122"><ele>147.0</ele><time>2026-04-07T09:25:05.001Z</time></trkpt><trkpt lat="45.553129084596875" lon="9.29734721565343"><ele>147.0</ele><time>2026-04-07T09:25:07.001Z</time></trkpt><trkpt lat="45.55302964346324" lon="9.297268629450446"><ele>147.0</ele><time>2026-04-07T09:25:09.001Z</time></trkpt><trkpt lat="45.55292868590503" lon="9.297190846461362"><ele>146.25</ele><time>2026-04-07T09:25:11.001Z</time></trkpt><trkpt lat="45.55282698584898" lon="9.297114542824003"><ele>145.5</ele><time>2026-04-07T09:25:13.001Z</time></trkpt><trkpt lat="45.552719275469656" lon="9.297033729697885"><ele>144.75</ele><time>2026-04-07T09:25:15.001Z</time></trkpt><trkpt lat="45.55261626752071" lon="9.296956444799717"><ele>144.0</ele><time>2026-04-07T09:25:17.001Z</time></trkpt><trkpt lat="45.55251591250736" lon="9.296880939478562"><ele>144.0</ele><time>2026-04-07T09:25:19.001Z</time></trkpt><trkpt lat="45.552409295832106" lon="9.296799001269143"><ele>144.0</ele><time>2026-04-07T09:25:21.001Z</time></trkpt><trkpt lat="45.55230224018437" lon="9.296716727482528"><ele>144.0</ele><time>2026-04-07T09:25:23.001Z</time></trkpt><trkpt lat="45.55219892979266" lon="9.296637332166789"><ele>144.0</ele><time>2026-04-07T09:25:25.001Z</time></trkpt><trkpt lat="45.552044184107324" lon="9.29671629059171"><ele>144.5</ele><time>2026-04-07T09:25:27.001Z</time></trkpt><trkpt lat="45.55195586240932" lon="9.29664292262954"><ele>145.0</ele><time>2026-04-07T09:25:29.001Z</time></trkpt><trkpt lat="45.551867607515554" lon="9.29658303469904"><ele>145.5</ele><time>2026-04-07T09:25:31.001Z</time></trkpt><trkpt lat="45.55181870961231" lon="9.296370427111361"><ele>146.0</ele><time>2026-04-07T09:25:33.001Z</time></trkpt><trkpt lat="45.551718691846624" lon="9.296297644344088"><ele>146.25</ele><time>2026-04-07T09:25:35.001Z</time></trkpt><trkpt lat="45.55161499449262" lon="9.296218412690147"><ele>146.5</ele><time>2026-04-07T09:25:37.001Z</time></trkpt><trkpt lat="45.55150707792087" lon="9.29613435411334"><ele>146.75</ele><time>2026-04-07T09:25:39.001Z</time></trkpt><trkpt lat="45.55139878136981" lon="9.296052017143674"><ele>147.0</ele><time>2026-04-07T09:25:41.001Z</time></trkpt><trkpt lat="45.55129180626024" lon="9.295970991866863"><ele>146.6</ele><time>2026-04-07T09:25:43.001Z</time></trkpt><trkpt lat="45.55118376160479" lon="9.29588931099793"><ele>146.2</ele><time>2026-04-07T09:25:45.001Z</time></trkpt><trkpt lat="45.55107906445223" lon="9.295811318133426"><ele>145.8</ele><time>2026-04-07T09:25:47.001Z</time></trkpt><trkpt lat="45.550983879502915" lon="9.295740023346973"><ele>145.4</ele><time>2026-04-07T09:25:49.001Z</time></trkpt><trkpt lat="45.55089678838346" lon="9.295674830964145"><ele>145.0</ele><time>2026-04-07T09:25:51.001Z</time></trkpt><trkpt lat="45.550816322691595" lon="9.29561459808154"><ele>145.2</ele><time>2026-04-07T09:25:53Z</time></trkpt><trkpt lat="45.550746219991794" lon="9.295562123873339"><ele>145.4</ele><time>2026-04-07T09:25:55Z</time></trkpt><trkpt lat="45.55066677750831" lon="9.295502069079827"><ele>145.6</ele><time>2026-04-07T09:25:57Z</time></trkpt><trkpt lat="45.55058483875822" lon="9.295441068747511"><ele>145.8</ele><time>2026-04-07T09:25:59Z</time></trkpt><trkpt lat="45.550491582898744" lon="9.295371719443509"><ele>146.0</ele><time>2026-04-07T09:26:01Z</time></trkpt><trkpt lat="45.550393372567136" lon="9.295298685768877"><ele>146.0</ele><time>2026-04-07T09:26:03Z</time></trkpt><trkpt lat="45.5502929859672" lon="9.295224033714304"><ele>146.0</ele><time>2026-04-07T09:26:05Z</time></trkpt><trkpt lat="45.55019557313146" lon="9.295151593083096"><ele>146.0</ele><time>2026-04-07T09:26:07Z</time></trkpt><trkpt lat="45.55010085507698" lon="9.295081156791229"><ele>146.0</ele><time>2026-04-07T09:26:09Z</time></trkpt><trkpt lat="45.55001378807878" lon="9.295017056995734"><ele>146.0</ele><time>2026-04-07T09:26:11Z</time></trkpt><trkpt lat="45.549927778337356" lon="9.295125713869842"><ele>146.0</ele><time>2026-04-07T09:26:12Z</time></trkpt><trkpt lat="45.54984207605892" lon="9.295170659382952"><ele>146.0</ele><time>2026-04-07T09:26:14Z</time></trkpt><trkpt lat="45.549844524853306" lon="9.294890971024799"><ele>146.0</ele><time>2026-04-07T09:26:16Z</time></trkpt><trkpt lat="45.54976327379228" lon="9.294830248932675"><ele>146.0</ele><time>2026-04-07T09:26:18Z</time></trkpt><trkpt lat="45.54967448519552" lon="9.294764711104783"><ele>146.0</ele><time>2026-04-07T09:26:20Z</time></trkpt><trkpt lat="45.54955904357443" lon="9.294948169529317"><ele>146.0</ele><time>2026-04-07T09:26:21Z</time></trkpt><trkpt lat="45.54949092605751" lon="9.294893979039916"><ele>146.0</ele><time>2026-04-07T09:26:23Z</time></trkpt><trkpt lat="45.54942224071128" lon="9.294850929709483"><ele>146.0</ele><time>2026-04-07T09:26:26Z</time></trkpt><trkpt lat="45.54936872091127" lon="9.29479113974454"><ele>146.0</ele><time>2026-04-07T09:30:42.001Z</time></trkpt><trkpt lat="45.54929712740236" lon="9.294750458594544"><ele>145.8</ele><time>2026-04-07T09:30:45.001Z</time></trkpt><trkpt lat="45.5492341520329" lon="9.294698534736858"><ele>145.6</ele><time>2026-04-07T09:30:47.001Z</time></trkpt><trkpt lat="45.54916196226491" lon="9.294652381028365"><ele>145.4</ele><time>2026-04-07T09:30:49.001Z</time></trkpt><trkpt lat="45.549102696733236" lon="9.294569288718966"><ele>145.2</ele><time>2026-04-07T09:30:51.001Z</time></trkpt><trkpt lat="45.54914010839309" lon="9.29436458542587"><ele>145.0</ele><time>2026-04-07T09:30:52.001Z</time></trkpt><trkpt lat="45.549072488101814" lon="9.294316918832905"><ele>145.0</ele><time>2026-04-07T09:30:54.001Z</time></trkpt><trkpt lat="45.5489974083383" lon="9.294261573669813"><ele>145.0</ele><time>2026-04-07T09:30:56.001Z</time></trkpt><trkpt lat="45.54891922863088" lon="9.294203943716377"><ele>145.0</ele><time>2026-04-07T09:30:58.001Z</time></trkpt><trkpt lat="45.54884280805644" lon="9.294147610383598"><ele>145.0</ele><time>2026-04-07T09:31:00.001Z</time></trkpt><trkpt lat="45.54876684484569" lon="9.294092243754864"><ele>145.0</ele><time>2026-04-07T09:31:02.001Z</time></trkpt><trkpt lat="45.54869027791253" lon="9.294036650142324"><ele>145.0</ele><time>2026-04-07T09:31:04.001Z</time></trkpt><trkpt lat="45.54860404306382" lon="9.29397403685812"><ele>145.0</ele><time>2026-04-07T09:31:06.001Z</time></trkpt><trkpt lat="45.54851803253261" lon="9.29391441826744"><ele>145.0</ele><time>2026-04-07T09:31:08.001Z</time></trkpt><trkpt lat="45.54844926453309" lon="9.293871412320087"><ele>145.0</ele><time>2026-04-07T09:31:10.002Z</time></trkpt><trkpt lat="45.54838862365595" lon="9.293833487731979"><ele>145.0</ele><time>2026-04-07T09:31:12.002Z</time></trkpt><trkpt lat="45.54832243194705" lon="9.293802730267695"><ele>145.0</ele><time>2026-04-07T09:31:16.002Z</time></trkpt><trkpt lat="45.54826604160187" lon="9.293745891494453"><ele>145.0</ele><time>2026-04-07T09:31:22.001Z</time></trkpt><trkpt lat="45.54820077960843" lon="9.29369908159224"><ele>145.0</ele><time>2026-04-07T09:31:25.001Z</time></trkpt><trkpt lat="45.54814417735883" lon="9.293658483026912"><ele>145.0</ele><time>2026-04-07T09:31:27.001Z</time></trkpt><trkpt lat="45.5480813936905" lon="9.293612975903361"><ele>145.0</ele><time>2026-04-07T09:31:29.001Z</time></trkpt><trkpt lat="45.54800617419167" lon="9.293558218486515"><ele>145.0</ele><time>2026-04-07T09:31:31.001Z</time></trkpt><trkpt lat="45.5479330817325" lon="9.293504952553716"><ele>145.0</ele><time>2026-04-07T09:31:33.001Z</time></trkpt><trkpt lat="45.547869028302955" lon="9.293481864225946"><ele>145.0</ele><time>2026-04-07T09:31:35.001Z</time></trkpt><trkpt lat="45.547796184566636" lon="9.293399163294454"><ele>145.0</ele><time>2026-04-07T09:31:37.001Z</time></trkpt><trkpt lat="45.547719971775635" lon="9.293338399742344"><ele>144.83333333333334</ele><time>2026-04-07T09:31:39.001Z</time></trkpt><trkpt lat="45.547648120989315" lon="9.293280435051104"><ele>144.66666666666669</ele><time>2026-04-07T09:31:41.001Z</time></trkpt><trkpt lat="45.547579595165196" lon="9.29322451650585"><ele>144.5</ele><time>2026-04-07T09:31:43.001Z</time></trkpt><trkpt lat="45.54751201587101" lon="9.29316853285403"><ele>144.33333333333334</ele><time>2026-04-07T09:31:45.001Z</time></trkpt><trkpt lat="45.54745307386702" lon="9.293119704491756"><ele>144.16666666666666</ele><time>2026-04-07T09:31:47.001Z</time></trkpt><trkpt lat="45.54738362026557" lon="9.293062168182557"><ele>144.0</ele><time>2026-04-07T09:31:51.001Z</time></trkpt><trkpt lat="45.54732813013053" lon="9.29301620189067"><ele>144.5</ele><time>2026-04-07T09:31:53.001Z</time></trkpt><trkpt lat="45.5472391005212" lon="9.292944133118965"><ele>145.0</ele><time>2026-04-07T09:31:55.001Z</time></trkpt><trkpt lat="45.54713970992103" lon="9.292864227744417"><ele>145.5</ele><time>2026-04-07T09:31:57.001Z</time></trkpt><trkpt lat="45.54703535047082" lon="9.292782669101248"><ele>146.0</ele><time>2026-04-07T09:31:59.001Z</time></trkpt><trkpt lat="45.54693379027761" lon="9.292703311647543"><ele>145.0</ele><time>2026-04-07T09:32:01.001Z</time></trkpt><trkpt lat="45.546831432937694" lon="9.292623331317047"><ele>144.0</ele><time>2026-04-07T09:32:03.001Z</time></trkpt><trkpt lat="45.546724850626475" lon="9.292541042136666"><ele>143.0</ele><time>2026-04-07T09:32:05.001Z</time></trkpt><trkpt lat="45.54662194153948" lon="9.292461975497703"><ele>142.0</ele><time>2026-04-07T09:32:07.001Z</time></trkpt><trkpt lat="45.5465156575963" lon="9.292380628708536"><ele>142.0</ele><time>2026-04-07T09:32:09Z</time></trkpt><trkpt lat="45.54640590392371" lon="9.29229664677911"><ele>142.0</ele><time>2026-04-07T09:32:11Z</time></trkpt><trkpt lat="45.546295449213346" lon="9.292213625528149"><ele>142.0</ele><time>2026-04-07T09:32:13Z</time></trkpt><trkpt lat="45.54623878728213" lon="9.292170648527524"><ele>142.0</ele><time>2026-04-07T09:32:14Z</time></trkpt><trkpt lat="45.546127969019494" lon="9.29208659496486"><ele>142.0</ele><time>2026-04-07T09:32:16Z</time></trkpt><trkpt lat="45.54601674692425" lon="9.292002235131218"><ele>142.0</ele><time>2026-04-07T09:32:18Z</time></trkpt><trkpt lat="45.54595984909038" lon="9.291959079187261"><ele>142.0</ele><time>2026-04-07T09:32:19Z</time></trkpt><trkpt lat="45.54590203490174" lon="9.291915228220724"><ele>142.0</ele><time>2026-04-07T09:32:20Z</time></trkpt><trkpt lat="45.54584422720551" lon="9.291871382863258"><ele>142.0</ele><time>2026-04-07T09:32:21Z</time></trkpt><trkpt lat="45.545732562817854" lon="9.291787643933153"><ele>142.0</ele><time>2026-04-07T09:32:23Z</time></trkpt><trkpt lat="45.54567635817955" lon="9.291745705203809"><ele>142.0</ele><time>2026-04-07T09:32:24Z</time></trkpt><trkpt lat="45.54556472672197" lon="9.291662408671238"><ele>142.0</ele><time>2026-04-07T09:32:26Z</time></trkpt><trkpt lat="45.5454555593947" lon="9.291579793635503"><ele>142.0</ele><time>2026-04-07T09:32:28Z</time></trkpt><trkpt lat="45.545346771268555" lon="9.291497687763991"><ele>142.0</ele><time>2026-04-07T09:32:30Z</time></trkpt><trkpt lat="45.54523919738655" lon="9.291416498314213"><ele>142.0</ele><time>2026-04-07T09:32:32Z</time></trkpt><trkpt lat="45.545132485855774" lon="9.291336165415029"><ele>142.0</ele><time>2026-04-07T09:32:34Z</time></trkpt><trkpt lat="45.54502474505236" lon="9.291255197621808"><ele>142.0</ele><time>2026-04-07T09:32:36Z</time></trkpt><trkpt lat="45.54491595467809" lon="9.291173441077472"><ele>142.0</ele><time>2026-04-07T09:32:38Z</time></trkpt><trkpt lat="45.544806279777504" lon="9.291091019971066"><ele>142.0</ele><time>2026-04-07T09:32:40Z</time></trkpt><trkpt lat="45.54469766082564" lon="9.291009393449531"><ele>142.0</ele><time>2026-04-07T09:32:42Z</time></trkpt><trkpt lat="45.54459042049875" lon="9.290928764652316"><ele>142.0</ele><time>2026-04-07T09:32:44Z</time></trkpt><trkpt lat="45.54448445556211" lon="9.290849104323227"><ele>142.0</ele><time>2026-04-07T09:32:46Z</time></trkpt><trkpt lat="45.54437683440097" lon="9.290768198913547"><ele>142.0</ele><time>2026-04-07T09:32:48Z</time></trkpt><trkpt lat="45.54427482222666" lon="9.290691510099016"><ele>142.0</ele><time>2026-04-07T09:32:50Z</time></trkpt><trkpt lat="45.544168115886244" lon="9.290611292435246"><ele>142.0</ele><time>2026-04-07T09:32:52Z</time></trkpt><trkpt lat="45.5440627544667" lon="9.290532085797377"><ele>142.0</ele><time>2026-04-07T09:32:54Z</time></trkpt><trkpt lat="45.54392297044165" lon="9.290532616281201"><ele>142.0</ele><time>2026-04-07T09:32:56Z</time></trkpt><trkpt lat="45.54381439789935" lon="9.290454375702323"><ele>142.0</ele><time>2026-04-07T09:32:58Z</time></trkpt><trkpt lat="45.54374227030277" lon="9.290289996456984"><ele>142.0</ele><time>2026-04-07T09:33:00Z</time></trkpt><trkpt lat="45.543641930913935" lon="9.290214628627577"><ele>142.0</ele><time>2026-04-07T09:33:02Z</time></trkpt><trkpt lat="45.54356186362982" lon="9.29026129801533"><ele>142.0</ele><time>2026-04-07T09:33:03Z</time></trkpt><trkpt lat="45.543463103692915" lon="9.290192139089498"><ele>142.0</ele><time>2026-04-07T09:33:05Z</time></trkpt><trkpt lat="45.543401976465795" lon="9.290033727903388"><ele>142.0</ele><time>2026-04-07T09:33:07Z</time></trkpt><trkpt lat="45.543274024937936" lon="9.290052938395513"><ele>142.0</ele><time>2026-04-07T09:33:09Z</time></trkpt><trkpt lat="45.543176225264034" lon="9.28998047150724"><ele>142.0</ele><time>2026-04-07T09:33:11Z</time></trkpt><trkpt lat="45.5430793277242" lon="9.289910632864954"><ele>142.0</ele><time>2026-04-07T09:33:13Z</time></trkpt><trkpt lat="45.54298109666616" lon="9.289869423590746"><ele>142.0</ele><time>2026-04-07T09:33:15Z</time></trkpt><trkpt lat="45.542943202872195" lon="9.289688803427776"><ele>142.0</ele><time>2026-04-07T09:33:17Z</time></trkpt><trkpt lat="45.542871268415325" lon="9.28963553657365"><ele>142.0</ele><time>2026-04-07T09:33:19Z</time></trkpt><trkpt lat="45.54279344298234" lon="9.289577817498044"><ele>142.0</ele><time>2026-04-07T09:33:21Z</time></trkpt><trkpt lat="45.542707911967554" lon="9.289514383496424"><ele>142.0</ele><time>2026-04-07T09:33:23Z</time></trkpt><trkpt lat="45.54261748322228" lon="9.289478425832641"><ele>142.0</ele><time>2026-04-07T09:33:25Z</time></trkpt><trkpt lat="45.54254428414641" lon="9.289380073351"><ele>142.0</ele><time>2026-04-07T09:33:27.001Z</time></trkpt><trkpt lat="45.5424618123854" lon="9.289306023777344"><ele>142.0</ele><time>2026-04-07T09:33:29.001Z</time></trkpt><trkpt lat="45.54238139507862" lon="9.289239858968562"><ele>142.0</ele><time>2026-04-07T09:33:31.001Z</time></trkpt><trkpt lat="45.54230870994045" lon="9.28918045001943"><ele>142.0</ele><time>2026-04-07T09:33:33.001Z</time></trkpt><trkpt lat="45.54223530852002" lon="9.289132899508493"><ele>142.0</ele><time>2026-04-07T09:33:38.001Z</time></trkpt><trkpt lat="45.54214721240948" lon="9.289061844505824"><ele>142.0</ele><time>2026-04-07T09:33:41.001Z</time></trkpt><trkpt lat="45.54205802168187" lon="9.288999462602993"><ele>142.0</ele><time>2026-04-07T09:33:43.001Z</time></trkpt><trkpt lat="45.54196833922111" lon="9.28893364156662"><ele>142.0</ele><time>2026-04-07T09:33:45.001Z</time></trkpt><trkpt lat="45.54187196771316" lon="9.288870256347964"><ele>142.0</ele><time>2026-04-07T09:33:47.001Z</time></trkpt><trkpt lat="45.541773772840706" lon="9.288787297453622"><ele>141.5</ele><time>2026-04-07T09:33:49.001Z</time></trkpt><trkpt lat="45.541668831605975" lon="9.288711276659248"><ele>141.0</ele><time>2026-04-07T09:33:51.001Z</time></trkpt><trkpt lat="45.541560730046726" lon="9.288633056667965"><ele>140.5</ele><time>2026-04-07T09:33:53.001Z</time></trkpt><trkpt lat="45.54145257656385" lon="9.288549990848296"><ele>140.0</ele><time>2026-04-07T09:33:55.001Z</time></trkpt><trkpt lat="45.54134460591055" lon="9.28846401233056"><ele>140.0</ele><time>2026-04-07T09:33:57.001Z</time></trkpt><trkpt lat="45.541238003718476" lon="9.288382844587806"><ele>140.0</ele><time>2026-04-07T09:33:59.001Z</time></trkpt><trkpt lat="45.54112409814971" lon="9.288321122872757"><ele>140.0</ele><time>2026-04-07T09:34:01.001Z</time></trkpt><trkpt lat="45.54101773224775" lon="9.288225403277233"><ele>140.0</ele><time>2026-04-07T09:34:03.001Z</time></trkpt><trkpt lat="45.54096603509176" lon="9.288166210206843"><ele>140.0</ele><time>2026-04-07T09:34:04.001Z</time></trkpt><trkpt lat="45.5409101669713" lon="9.28811831051242"><ele>139.6</ele><time>2026-04-07T09:34:05.001Z</time></trkpt><trkpt lat="45.540853655727304" lon="9.288075726521596"><ele>139.2</ele><time>2026-04-07T09:34:06.001Z</time></trkpt><trkpt lat="45.54079807266416" lon="9.288030775222266"><ele>138.8</ele><time>2026-04-07T09:34:07.001Z</time></trkpt><trkpt lat="45.54068428413556" lon="9.28795981856189"><ele>138.4</ele><time>2026-04-07T09:34:09.001Z</time></trkpt><trkpt lat="45.54060979576227" lon="9.287842570819544"><ele>138.0</ele><time>2026-04-07T09:34:11.001Z</time></trkpt><trkpt lat="45.54051841971812" lon="9.287749874731523"><ele>138.0</ele><time>2026-04-07T09:34:13.001Z</time></trkpt><trkpt lat="45.540412490454635" lon="9.287693880220365"><ele>138.0</ele><time>2026-04-07T09:34:15Z</time></trkpt><trkpt lat="45.54030780053332" lon="9.287615306732093"><ele>138.0</ele><time>2026-04-07T09:34:17Z</time></trkpt><trkpt lat="45.54020970900243" lon="9.28751788860142"><ele>138.0</ele><time>2026-04-07T09:34:19Z</time></trkpt><trkpt lat="45.540112120599105" lon="9.287444643077345"><ele>138.16666666666666</ele><time>2026-04-07T09:34:21Z</time></trkpt><trkpt lat="45.54007031116174" lon="9.287315794834377"><ele>138.33333333333334</ele><time>2026-04-07T09:34:23Z</time></trkpt><trkpt lat="45.540072024112085" lon="9.287198756668884"><ele>138.5</ele><time>2026-04-07T09:34:25Z</time></trkpt><trkpt lat="45.540024868847155" lon="9.287116479606295"><ele>138.66666666666669</ele><time>2026-04-07T09:34:27Z</time></trkpt><trkpt lat="45.539945745599475" lon="9.287119253102873"><ele>138.83333333333334</ele><time>2026-04-07T09:34:28Z</time></trkpt><trkpt lat="45.53984556463761" lon="9.287101288193648"><ele>139.0</ele><time>2026-04-07T09:34:31Z</time></trkpt><trkpt lat="45.53979718910607" lon="9.287264798331382"><ele>139.0</ele><time>2026-04-07T09:34:33Z</time></trkpt><trkpt lat="45.53979986990484" lon="9.287356045380019"><ele>139.0</ele><time>2026-04-07T09:34:37Z</time></trkpt><trkpt lat="45.539733943197334" lon="9.287447383431337"><ele>139.0</ele><time>2026-04-07T09:34:38Z</time></trkpt><trkpt lat="45.53962746369102" lon="9.287198903163707"><ele>139.0</ele><time>2026-04-07T09:34:39Z</time></trkpt><trkpt lat="45.53953683648309" lon="9.287130999657485"><ele>139.0</ele><time>2026-04-07T09:34:41Z</time></trkpt><trkpt lat="45.539450735444454" lon="9.287066141808067"><ele>139.0</ele><time>2026-04-07T09:34:43Z</time></trkpt><trkpt lat="45.53936003967977" lon="9.286997824330996"><ele>139.0</ele><time>2026-04-07T09:34:45Z</time></trkpt><trkpt lat="45.53926665383819" lon="9.286928157521048"><ele>139.0</ele><time>2026-04-07T09:34:47Z</time></trkpt><trkpt lat="45.53917176529057" lon="9.286857016881262"><ele>139.0</ele><time>2026-04-07T09:34:49Z</time></trkpt><trkpt lat="45.53908489424834" lon="9.286925721812167"><ele>139.0</ele><time>2026-04-07T09:34:50Z</time></trkpt><trkpt lat="45.53899138972028" lon="9.286856148292625"><ele>139.0</ele><time>2026-04-07T09:34:52Z</time></trkpt><trkpt lat="45.538939274003" lon="9.286682304234715"><ele>139.0</ele><time>2026-04-07T09:34:54Z</time></trkpt><trkpt lat="45.53884707587085" lon="9.286612921955173"><ele>139.0</ele><time>2026-04-07T09:34:56Z</time></trkpt><trkpt lat="45.538752603309014" lon="9.28654182810489"><ele>139.0</ele><time>2026-04-07T09:34:58Z</time></trkpt><trkpt lat="45.53869591238056" lon="9.286499077709065"><ele>139.0</ele><time>2026-04-07T09:34:59Z</time></trkpt><trkpt lat="45.53863679667686" lon="9.286453863703397"><ele>139.0</ele><time>2026-04-07T09:35:00Z</time></trkpt><trkpt lat="45.53857882084746" lon="9.286409548920922"><ele>139.0</ele><time>2026-04-07T09:35:01Z</time></trkpt><trkpt lat="45.53847084690304" lon="9.286327031245767"><ele>139.0</ele><time>2026-04-07T09:35:03Z</time></trkpt><trkpt lat="45.5383636881143" lon="9.286245136657067"><ele>139.0</ele><time>2026-04-07T09:35:05Z</time></trkpt><trkpt lat="45.5382603804051" lon="9.286166773467295"><ele>139.0</ele><time>2026-04-07T09:35:07Z</time></trkpt><trkpt lat="45.53815906278115" lon="9.286090685882638"><ele>139.0</ele><time>2026-04-07T09:35:09Z</time></trkpt><trkpt lat="45.538062465676106" lon="9.286018394263408"><ele>139.0</ele><time>2026-04-07T09:35:11Z</time></trkpt><trkpt lat="45.53796584358364" lon="9.28594617831765"><ele>139.0</ele><time>2026-04-07T09:35:13Z</time></trkpt><trkpt lat="45.537871296649286" lon="9.285875021215261"><ele>139.0</ele><time>2026-04-07T09:35:15Z</time></trkpt><trkpt lat="45.5377766764982" lon="9.285803494066654"><ele>139.0</ele><time>2026-04-07T09:35:17Z</time></trkpt><trkpt lat="45.53767007526949" lon="9.285724352276818"><ele>139.0</ele><time>2026-04-07T09:35:19Z</time></trkpt><trkpt lat="45.53756536674178" lon="9.285646047752635"><ele>139.0</ele><time>2026-04-07T09:35:21Z</time></trkpt><trkpt lat="45.537459597636605" lon="9.285567114116658"><ele>139.0</ele><time>2026-04-07T09:35:23Z</time></trkpt><trkpt lat="45.537350457636514" lon="9.285485050895952"><ele>139.6</ele><time>2026-04-07T09:35:25Z</time></trkpt><trkpt lat="45.5372433133751" lon="9.285404190060309"><ele>140.2</ele><time>2026-04-07T09:35:27Z</time></trkpt><trkpt lat="45.53714159270784" lon="9.285327459160554"><ele>140.79999999999998</ele><time>2026-04-07T09:35:29Z</time></trkpt><trkpt lat="45.53703757947124" lon="9.28525031125278"><ele>141.4</ele><time>2026-04-07T09:35:31Z</time></trkpt><trkpt lat="45.536978971439716" lon="9.285206840922049"><ele>142.0</ele><time>2026-04-07T09:35:32Z</time></trkpt><trkpt lat="45.53687089730486" lon="9.28512625500449"><ele>142.4</ele><time>2026-04-07T09:35:34Z</time></trkpt><trkpt lat="45.53681428439365" lon="9.28508353450635"><ele>142.79999999999998</ele><time>2026-04-07T09:35:35Z</time></trkpt><trkpt lat="45.53675713366835" lon="9.285040574889107"><ele>143.2</ele><time>2026-04-07T09:35:36Z</time></trkpt><trkpt lat="45.53664796341257" lon="9.28495893568503"><ele>143.6</ele><time>2026-04-07T09:35:38Z</time></trkpt><trkpt lat="45.53654094978715" lon="9.284878909261883"><ele>144.0</ele><time>2026-04-07T09:35:40Z</time></trkpt><trkpt lat="45.53644647434338" lon="9.284944682294325"><ele>144.0</ele><time>2026-04-07T09:35:41Z</time></trkpt><trkpt lat="45.53634069935081" lon="9.284856512279177"><ele>144.0</ele><time>2026-04-07T09:35:43Z</time></trkpt><trkpt lat="45.53622874237581" lon="9.28476989882336"><ele>144.0</ele><time>2026-04-07T09:35:45Z</time></trkpt><trkpt lat="45.53621195809934" lon="9.28463170454851"><ele>144.0</ele><time>2026-04-07T09:35:46Z</time></trkpt><trkpt lat="45.53610548637667" lon="9.284551173402633"><ele>143.0</ele><time>2026-04-07T09:35:48Z</time></trkpt><trkpt lat="45.53599909408358" lon="9.284470702339656"><ele>142.0</ele><time>2026-04-07T09:35:50Z</time></trkpt><trkpt lat="45.53589349090716" lon="9.284390619263709"><ele>141.0</ele><time>2026-04-07T09:35:52.001Z</time></trkpt><trkpt lat="45.53579039062496" lon="9.284312379348547"><ele>140.0</ele><time>2026-04-07T09:35:54.001Z</time></trkpt><trkpt lat="45.535694977670566" lon="9.284239973167427"><ele>140.0</ele><time>2026-04-07T09:35:56.001Z</time></trkpt><trkpt lat="45.53563250485321" lon="9.28419384983327"><ele>140.0</ele><time>2026-04-07T09:35:58.001Z</time></trkpt><trkpt lat="45.53554537913987" lon="9.284201819296644"><ele>140.0</ele><time>2026-04-07T09:36:02.001Z</time></trkpt><trkpt lat="45.53554895064403" lon="9.284090296008765"><ele>140.0</ele><time>2026-04-07T09:36:03.001Z</time></trkpt><trkpt lat="45.53547452392005" lon="9.283998056240716"><ele>140.0</ele><time>2026-04-07T09:36:05.001Z</time></trkpt><trkpt lat="45.535551731369516" lon="9.284070883092001"><ele>140.0</ele><time>2026-04-07T09:36:07.001Z</time></trkpt><trkpt lat="45.53553183354484" lon="9.28397362194073"><ele>142.0</ele><time>2026-04-07T09:36:08.001Z</time></trkpt><trkpt lat="45.53532714841966" lon="9.283680600391957"><ele>144.0</ele><time>2026-04-07T09:36:11.001Z</time></trkpt><trkpt lat="45.53509959577315" lon="9.283858960649347"><ele>144.0</ele><time>2026-04-07T09:36:12.001Z</time></trkpt><trkpt lat="45.535001461775614" lon="9.283838095616712"><ele>144.0</ele><time>2026-04-07T09:36:14.001Z</time></trkpt><trkpt lat="45.534906156268356" lon="9.283808066255512"><ele>144.0</ele><time>2026-04-07T09:36:16.001Z</time></trkpt><trkpt lat="45.53481461319522" lon="9.283735025829067"><ele>144.0</ele><time>2026-04-07T09:36:18.001Z</time></trkpt><trkpt lat="45.53481186251533" lon="9.283579803826775"><ele>144.0</ele><time>2026-04-07T09:36:19.001Z</time></trkpt><trkpt lat="45.534716177716476" lon="9.283509025239404"><ele>144.0</ele><time>2026-04-07T09:36:20.999Z</time></trkpt><trkpt lat="45.53461681766458" lon="9.283435137480534"><ele>144.0</ele><time>2026-04-07T09:36:22.999Z</time></trkpt><trkpt lat="45.53451619592515" lon="9.283360027113094"><ele>144.0</ele><time>2026-04-07T09:36:24.999Z</time></trkpt><trkpt lat="45.5344172808548" lon="9.28328615319904"><ele>144.0</ele><time>2026-04-07T09:36:26.999Z</time></trkpt><trkpt lat="45.53431666840564" lon="9.283210298260778"><ele>143.8</ele><time>2026-04-07T09:36:28.999Z</time></trkpt><trkpt lat="45.53422031300066" lon="9.283137942154918"><ele>143.60000000000002</ele><time>2026-04-07T09:36:30.999Z</time></trkpt><trkpt lat="45.53412307929707" lon="9.283063985164926"><ele>143.4</ele><time>2026-04-07T09:36:32.999Z</time></trkpt><trkpt lat="45.534024384470676" lon="9.282989665312016"><ele>143.20000000000002</ele><time>2026-04-07T09:36:34.999Z</time></trkpt><trkpt lat="45.5339270797389" lon="9.282916257468633"><ele>143.0</ele><time>2026-04-07T09:36:37Z</time></trkpt><trkpt lat="45.53382544897924" lon="9.282839560738257"><ele>143.0</ele><time>2026-04-07T09:36:39Z</time></trkpt><trkpt lat="45.53372763075098" lon="9.282766045613382"><ele>143.0</ele><time>2026-04-07T09:36:41Z</time></trkpt><trkpt lat="45.533629856461985" lon="9.282693083404336"><ele>143.0</ele><time>2026-04-07T09:36:43Z</time></trkpt><trkpt lat="45.53353178198875" lon="9.282619765460167"><ele>143.0</ele><time>2026-04-07T09:36:45Z</time></trkpt><trkpt lat="45.53343450928019" lon="9.282546986029862"><ele>143.0</ele><time>2026-04-07T09:36:47Z</time></trkpt><trkpt lat="45.53333804622362" lon="9.282474812274105"><ele>142.4</ele><time>2026-04-07T09:36:49Z</time></trkpt><trkpt lat="45.533244464878344" lon="9.28240479461599"><ele>141.8</ele><time>2026-04-07T09:36:51Z</time></trkpt><trkpt lat="45.53314916555229" lon="9.2823334915421"><ele>141.2</ele><time>2026-04-07T09:36:53Z</time></trkpt><trkpt lat="45.53305495078407" lon="9.28226299488365"><ele>140.6</ele><time>2026-04-07T09:36:55Z</time></trkpt><trkpt lat="45.532957717721374" lon="9.282190168430281"><ele>140.0</ele><time>2026-04-07T09:36:57Z</time></trkpt><trkpt lat="45.53286070064354" lon="9.282117538969871"><ele>139.2</ele><time>2026-04-07T09:36:59Z</time></trkpt><trkpt lat="45.532763811483875" lon="9.28204500529534"><ele>138.4</ele><time>2026-04-07T09:37:01Z</time></trkpt><trkpt lat="45.5326647601058" lon="9.281970854714517"><ele>137.6</ele><time>2026-04-07T09:37:03Z</time></trkpt><trkpt lat="45.5325624060006" lon="9.281897412234354"><ele>136.8</ele><time>2026-04-07T09:37:05Z</time></trkpt><trkpt lat="45.53246412626749" lon="9.281829101185394"><ele>136.0</ele><time>2026-04-07T09:37:07Z</time></trkpt><trkpt lat="45.5323730190758" lon="9.281766348881655"><ele>136.0</ele><time>2026-04-07T09:37:09Z</time></trkpt><trkpt lat="45.532288108944506" lon="9.281707864971127"><ele>136.0</ele><time>2026-04-07T09:37:11Z</time></trkpt><trkpt lat="45.532206243192554" lon="9.281648717168054"><ele>136.0</ele><time>2026-04-07T09:37:13Z</time></trkpt><trkpt lat="45.53210678035912" lon="9.281570963859476"><ele>136.0</ele><time>2026-04-07T09:37:15Z</time></trkpt><trkpt lat="45.53200811792215" lon="9.281494751490065"><ele>136.0</ele><time>2026-04-07T09:37:17Z</time></trkpt><trkpt lat="45.531907355445014" lon="9.281420651526513"><ele>136.2</ele><time>2026-04-07T09:37:19Z</time></trkpt><trkpt lat="45.53181112721931" lon="9.281350751557582"><ele>136.39999999999998</ele><time>2026-04-07T09:37:21Z</time></trkpt><trkpt lat="45.53171886795703" lon="9.281281580834492"><ele>136.6</ele><time>2026-04-07T09:37:23Z</time></trkpt><trkpt lat="45.53163076584951" lon="9.281202521728643"><ele>136.79999999999998</ele><time>2026-04-07T09:37:25Z</time></trkpt><trkpt lat="45.531536883177466" lon="9.281129735244171"><ele>137.0</ele><time>2026-04-07T09:37:27Z</time></trkpt><trkpt lat="45.53144045076778" lon="9.281056325065562"><ele>137.0</ele><time>2026-04-07T09:37:29Z</time></trkpt><trkpt lat="45.53134084819902" lon="9.280981679165995"><ele>137.0</ele><time>2026-04-07T09:37:31Z</time></trkpt><trkpt lat="45.53124198991677" lon="9.280907813969375"><ele>137.0</ele><time>2026-04-07T09:37:33Z</time></trkpt><trkpt lat="45.531141353161104" lon="9.280832619938025"><ele>137.0</ele><time>2026-04-07T09:37:35Z</time></trkpt><trkpt lat="45.53104442644324" lon="9.280760176309833"><ele>137.0</ele><time>2026-04-07T09:37:37Z</time></trkpt><trkpt lat="45.53094788583523" lon="9.28068798922403"><ele>137.0</ele><time>2026-04-07T09:37:39Z</time></trkpt><trkpt lat="45.53086096344654" lon="9.280622994061094"><ele>137.0</ele><time>2026-04-07T09:37:41Z</time></trkpt><trkpt lat="45.53077884638463" lon="9.280561592016577"><ele>137.0</ele><time>2026-04-07T09:37:43Z</time></trkpt><trkpt lat="45.53069625035564" lon="9.280500658914843"><ele>137.0</ele><time>2026-04-07T09:37:45Z</time></trkpt><trkpt lat="45.5306231058617" lon="9.28044648535695"><ele>137.0</ele><time>2026-04-07T09:37:47Z</time></trkpt><trkpt lat="45.53055348162576" lon="9.280390948585662"><ele>137.0</ele><time>2026-04-07T09:37:49Z</time></trkpt><trkpt lat="45.53049229798155" lon="9.280341041078499"><ele>137.00000000000003</ele><time>2026-04-07T09:37:51Z</time></trkpt><trkpt lat="45.53043671816936" lon="9.28029210076962"><ele>137.0</ele><time>2026-04-07T09:37:53Z</time></trkpt><trkpt lat="45.53038248860932" lon="9.280246415200065"><ele>137.0</ele><time>2026-04-07T09:37:55Z</time></trkpt><trkpt lat="45.530313969009605" lon="9.280190839828514"><ele>137.0</ele><time>2026-04-07T09:37:58Z</time></trkpt><trkpt lat="45.53024560659203" lon="9.280141914981323"><ele>137.0</ele><time>2026-04-07T09:38:00Z</time></trkpt><trkpt lat="45.53018093567587" lon="9.280100467427594"><ele>137.00000000000003</ele><time>2026-04-07T09:38:02Z</time></trkpt><trkpt lat="45.53012132407135" lon="9.280064079699386"><ele>137.0</ele><time>2026-04-07T09:38:04Z</time></trkpt><trkpt lat="45.53006105966745" lon="9.280019530744324"><ele>137.0</ele><time>2026-04-07T09:38:06Z</time></trkpt><trkpt lat="45.53000537601486" lon="9.279972977814108"><ele>137.0</ele><time>2026-04-07T09:38:08Z</time></trkpt><trkpt lat="45.52993965496917" lon="9.279917383956032"><ele>137.0</ele><time>2026-04-07T09:38:10Z</time></trkpt><trkpt lat="45.52984863352409" lon="9.279808767477437"><ele>137.0</ele><time>2026-04-07T09:38:13.001Z</time></trkpt><trkpt lat="45.52976792950892" lon="9.27964362966869"><ele>137.0</ele><time>2026-04-07T09:38:15.001Z</time></trkpt><trkpt lat="45.52957842059702" lon="9.27965324050913"><ele>137.4</ele><time>2026-04-07T09:38:16.001Z</time></trkpt><trkpt lat="45.529456708424405" lon="9.279633138812363"><ele>137.79999999999998</ele><time>2026-04-07T09:38:18.001Z</time></trkpt><trkpt lat="45.52943461307225" lon="9.27954892351214"><ele>138.2</ele><time>2026-04-07T09:38:19.001Z</time></trkpt><trkpt lat="45.5293274193158" lon="9.27947564208408"><ele>138.6</ele><time>2026-04-07T09:38:21.001Z</time></trkpt><trkpt lat="45.52922333628507" lon="9.279396589791698"><ele>139.0</ele><time>2026-04-07T09:38:23.001Z</time></trkpt><trkpt lat="45.529121058208254" lon="9.27931288682564"><ele>139.0</ele><time>2026-04-07T09:38:25.001Z</time></trkpt><trkpt lat="45.529027353403116" lon="9.279232054371127"><ele>139.0</ele><time>2026-04-07T09:38:26.999Z</time></trkpt><trkpt lat="45.52893772733256" lon="9.27915402055546"><ele>139.0</ele><time>2026-04-07T09:38:28.999Z</time></trkpt><trkpt lat="45.52885355048453" lon="9.27909774396897"><ele>139.0</ele><time>2026-04-07T09:38:30.999Z</time></trkpt><trkpt lat="45.52878707437118" lon="9.27906319827621"><ele>139.0</ele><time>2026-04-07T09:38:32.999Z</time></trkpt><trkpt lat="45.52863232633046" lon="9.279299180393314"><ele>139.0</ele><time>2026-04-07T09:38:35.999Z</time></trkpt><trkpt lat="45.52873361393998" lon="9.278992509440911"><ele>139.0</ele><time>2026-04-07T09:38:38.999Z</time></trkpt><trkpt lat="45.52854506560724" lon="9.278882517063542"><ele>139.0</ele><time>2026-04-07T09:38:44Z</time></trkpt><trkpt lat="45.52845572640325" lon="9.278841638204995"><ele>138.4</ele><time>2026-04-07T09:38:46Z</time></trkpt><trkpt lat="45.52841410931183" lon="9.27872125265892"><ele>137.8</ele><time>2026-04-07T09:38:48Z</time></trkpt><trkpt lat="45.52834005262206" lon="9.278637995706571"><ele>137.2</ele><time>2026-04-07T09:38:50Z</time></trkpt><trkpt lat="45.52826755038674" lon="9.278556486341833"><ele>136.6</ele><time>2026-04-07T09:38:52Z</time></trkpt><trkpt lat="45.52819848463341" lon="9.278478840101515"><ele>136.0</ele><time>2026-04-07T09:38:54Z</time></trkpt><trkpt lat="45.528119625553046" lon="9.278390184179807"><ele>136.0</ele><time>2026-04-07T09:38:56Z</time></trkpt><trkpt lat="45.52804007190354" lon="9.278302825065161"><ele>136.0</ele><time>2026-04-07T09:38:58Z</time></trkpt><trkpt lat="45.52796591636312" lon="9.278217005432664"><ele>136.0</ele><time>2026-04-07T09:39:00Z</time></trkpt><trkpt lat="45.527886016224095" lon="9.278127589887418"><ele>136.0</ele><time>2026-04-07T09:39:02Z</time></trkpt><trkpt lat="45.527809472574724" lon="9.27804294566434"><ele>136.0</ele><time>2026-04-07T09:39:04Z</time></trkpt><trkpt lat="45.52773317277288" lon="9.27795857108526"><ele>135.6</ele><time>2026-04-07T09:39:06Z</time></trkpt><trkpt lat="45.527654320542744" lon="9.27787145236206"><ele>135.2</ele><time>2026-04-07T09:39:08Z</time></trkpt><trkpt lat="45.52756940608046" lon="9.277776114344302"><ele>134.8</ele><time>2026-04-07T09:39:10Z</time></trkpt><trkpt lat="45.52748052335252" lon="9.277676428702003"><ele>134.4</ele><time>2026-04-07T09:39:12Z</time></trkpt><trkpt lat="45.52739652428019" lon="9.277582469460198"><ele>134.0</ele><time>2026-04-07T09:39:14Z</time></trkpt><trkpt lat="45.527310217634245" lon="9.277486534609848"><ele>134.0</ele><time>2026-04-07T09:39:16Z</time></trkpt><trkpt lat="45.527221289886945" lon="9.27738768625057"><ele>134.0</ele><time>2026-04-07T09:39:18Z</time></trkpt><trkpt lat="45.527130093173405" lon="9.277285924700726"><ele>134.0</ele><time>2026-04-07T09:39:20Z</time></trkpt><trkpt lat="45.52703513292497" lon="9.27718186367664"><ele>134.0</ele><time>2026-04-07T09:39:22Z</time></trkpt><trkpt lat="45.52694267823208" lon="9.277078709626153"><ele>133.75</ele><time>2026-04-07T09:39:24Z</time></trkpt><trkpt lat="45.526850460430545" lon="9.276975324125592"><ele>133.5</ele><time>2026-04-07T09:39:26Z</time></trkpt><trkpt lat="45.5267627966963" lon="9.276877044198576"><ele>133.25</ele><time>2026-04-07T09:39:28Z</time></trkpt><trkpt lat="45.52667094052412" lon="9.276774064133877"><ele>133.0</ele><time>2026-04-07T09:39:30Z</time></trkpt><trkpt lat="45.5265823061195" lon="9.276674695981653"><ele>133.0</ele><time>2026-04-07T09:39:32Z</time></trkpt><trkpt lat="45.526491534315916" lon="9.27657414641764"><ele>133.0</ele><time>2026-04-07T09:39:34Z</time></trkpt><trkpt lat="45.52640203982016" lon="9.276472683847189"><ele>133.0</ele><time>2026-04-07T09:39:36Z</time></trkpt><trkpt lat="45.526311526729074" lon="9.276373817193598"><ele>133.0</ele><time>2026-04-07T09:39:38Z</time></trkpt><trkpt lat="45.52622015736121" lon="9.27627089887597"><ele>133.5</ele><time>2026-04-07T09:39:40Z</time></trkpt><trkpt lat="45.526133822307415" lon="9.276173651207639"><ele>134.0</ele><time>2026-04-07T09:39:42Z</time></trkpt><trkpt lat="45.52606496979965" lon="9.276096095846974"><ele>134.5</ele><time>2026-04-07T09:39:44Z</time></trkpt><trkpt lat="45.52601043819332" lon="9.2760346716469"><ele>135.0</ele><time>2026-04-07T09:39:46Z</time></trkpt><trkpt lat="45.52595688469991" lon="9.275974349321006"><ele>135.5</ele><time>2026-04-07T09:39:48Z</time></trkpt><trkpt lat="45.5258761974717" lon="9.27588522521032"><ele>136.0</ele><time>2026-04-07T09:39:50Z</time></trkpt><trkpt lat="45.52578710622418" lon="9.275786476948932"><ele>136.0</ele><time>2026-04-07T09:39:52Z</time></trkpt><trkpt lat="45.52570177747202" lon="9.275691441006964"><ele>136.0</ele><time>2026-04-07T09:39:54Z</time></trkpt><trkpt lat="45.52561413135179" lon="9.275593772565651"><ele>136.0</ele><time>2026-04-07T09:39:56Z</time></trkpt><trkpt lat="45.52553169001403" lon="9.275501336959378"><ele>136.0</ele><time>2026-04-07T09:39:58Z</time></trkpt><trkpt lat="45.52545242672512" lon="9.275412364760355"><ele>136.0</ele><time>2026-04-07T09:40:00Z</time></trkpt><trkpt lat="45.52537500756824" lon="9.275325542514318"><ele>136.0</ele><time>2026-04-07T09:40:02Z</time></trkpt><trkpt lat="45.525290911639814" lon="9.275231350678862"><ele>136.0</ele><time>2026-04-07T09:40:04Z</time></trkpt><trkpt lat="45.5252045676875" lon="9.275134640933"><ele>136.0</ele><time>2026-04-07T09:40:06Z</time></trkpt><trkpt lat="45.52512183035557" lon="9.275041970792412"><ele>136.0</ele><time>2026-04-07T09:40:08Z</time></trkpt><trkpt lat="45.525042701611326" lon="9.274953342616675"><ele>136.0</ele><time>2026-04-07T09:40:10Z</time></trkpt><trkpt lat="45.52495676792402" lon="9.27485818385894"><ele>136.0</ele><time>2026-04-07T09:40:12.001Z</time></trkpt><trkpt lat="45.524881613375825" lon="9.274774377748862"><ele>136.0</ele><time>2026-04-07T09:40:14.001Z</time></trkpt><trkpt lat="45.52481373502058" lon="9.274698685518185"><ele>136.0</ele><time>2026-04-07T09:40:16.001Z</time></trkpt><trkpt lat="45.52475306329936" lon="9.274631446770904"><ele>136.0</ele><time>2026-04-07T09:40:18.001Z</time></trkpt><trkpt lat="45.52469547581591" lon="9.274567567829623"><ele>136.0</ele><time>2026-04-07T09:40:21.001Z</time></trkpt><trkpt lat="45.52462524694063" lon="9.274489666432775"><ele>136.0</ele><time>2026-04-07T09:40:25.001Z</time></trkpt><trkpt lat="45.524561222613215" lon="9.274418647422724"><ele>136.0</ele><time>2026-04-07T09:40:27.001Z</time></trkpt><trkpt lat="45.52448840217738" lon="9.274337871367063"><ele>136.0</ele><time>2026-04-07T09:40:29.001Z</time></trkpt><trkpt lat="45.52441377261994" lon="9.274254900751046"><ele>136.0</ele><time>2026-04-07T09:40:31.001Z</time></trkpt><trkpt lat="45.524337630968276" lon="9.27417026528408"><ele>136.0</ele><time>2026-04-07T09:40:33Z</time></trkpt><trkpt lat="45.524260063421906" lon="9.27408252291291"><ele>136.0</ele><time>2026-04-07T09:40:35Z</time></trkpt><trkpt lat="45.52418344894899" lon="9.27398689043998"><ele>135.8</ele><time>2026-04-07T09:40:37Z</time></trkpt><trkpt lat="45.52409395410018" lon="9.273899699455573"><ele>135.6</ele><time>2026-04-07T09:40:39Z</time></trkpt><trkpt lat="45.524004060216406" lon="9.273795486617622"><ele>135.4</ele><time>2026-04-07T09:40:41Z</time></trkpt><trkpt lat="45.52393148594983" lon="9.273706635353154"><ele>135.2</ele><time>2026-04-07T09:40:43Z</time></trkpt><trkpt lat="45.52387672059972" lon="9.27363237788973"><ele>135.0</ele><time>2026-04-07T09:40:45Z</time></trkpt><trkpt lat="45.52363566026344" lon="9.273758174842525"><ele>135.0</ele><time>2026-04-07T09:40:48Z</time></trkpt><trkpt lat="45.52361670657533" lon="9.27384464525002"><ele>135.0</ele><time>2026-04-07T09:40:51Z</time></trkpt><trkpt lat="45.52357683466875" lon="9.27371638924314"><ele>135.0</ele><time>2026-04-07T09:40:54Z</time></trkpt><trkpt lat="45.523564430249635" lon="9.273600049985616"><ele>135.0</ele><time>2026-04-07T09:40:56Z</time></trkpt><trkpt lat="45.52353452066963" lon="9.273473317356013"><ele>135.0</ele><time>2026-04-07T09:40:58Z</time></trkpt><trkpt lat="45.52354781772967" lon="9.273254816183494"><ele>135.0</ele><time>2026-04-07T09:41:00Z</time></trkpt><trkpt lat="45.52346413705937" lon="9.273149117022605"><ele>135.0</ele><time>2026-04-07T09:41:02Z</time></trkpt><trkpt lat="45.52338092938148" lon="9.27305776571935"><ele>135.0</ele><time>2026-04-07T09:41:04Z</time></trkpt><trkpt lat="45.52329496705984" lon="9.272963063552913"><ele>135.0</ele><time>2026-04-07T09:41:06Z</time></trkpt><trkpt lat="45.52320400720312" lon="9.272862871536216"><ele>135.0</ele><time>2026-04-07T09:41:08Z</time></trkpt><trkpt lat="45.52311563695028" lon="9.272766043574142"><ele>134.75</ele><time>2026-04-07T09:41:10Z</time></trkpt><trkpt lat="45.523021666049424" lon="9.272663078938189"><ele>134.5</ele><time>2026-04-07T09:41:12Z</time></trkpt><trkpt lat="45.52292261825305" lon="9.272554797573251"><ele>134.25</ele><time>2026-04-07T09:41:14Z</time></trkpt><trkpt lat="45.52282569429219" lon="9.272448447897494"><ele>134.0</ele><time>2026-04-07T09:41:16Z</time></trkpt><trkpt lat="45.52272997897096" lon="9.27234597275244"><ele>133.5</ele><time>2026-04-07T09:41:18Z</time></trkpt><trkpt lat="45.52263483648392" lon="9.272243971937732"><ele>133.0</ele><time>2026-04-07T09:41:20Z</time></trkpt><trkpt lat="45.52254435617009" lon="9.272144060786706"><ele>132.5</ele><time>2026-04-07T09:41:22Z</time></trkpt><trkpt lat="45.52245416309012" lon="9.27204301822907"><ele>132.0</ele><time>2026-04-07T09:41:24Z</time></trkpt><trkpt lat="45.522361700203916" lon="9.271939409636772"><ele>132.0</ele><time>2026-04-07T09:41:26Z</time></trkpt><trkpt lat="45.52226836705986" lon="9.271835842332177"><ele>132.0</ele><time>2026-04-07T09:41:28Z</time></trkpt><trkpt lat="45.522185387606285" lon="9.271743764017176"><ele>132.0</ele><time>2026-04-07T09:41:30Z</time></trkpt><trkpt lat="45.522104786960526" lon="9.271654325357451"><ele>132.0</ele><time>2026-04-07T09:41:32Z</time></trkpt><trkpt lat="45.52202306518891" lon="9.271563712930798"><ele>132.0</ele><time>2026-04-07T09:41:34Z</time></trkpt><trkpt lat="45.521943414368245" lon="9.271473104188871"><ele>131.6</ele><time>2026-04-07T09:41:36Z</time></trkpt><trkpt lat="45.5218698204843" lon="9.271385917282664"><ele>131.2</ele><time>2026-04-07T09:41:38Z</time></trkpt><trkpt lat="45.521761884362796" lon="9.271293633037278"><ele>130.8</ele><time>2026-04-07T09:41:40Z</time></trkpt><trkpt lat="45.521667925839324" lon="9.271247676698286"><ele>130.4</ele><time>2026-04-07T09:41:42Z</time></trkpt><trkpt lat="45.521640836982655" lon="9.27115870886697"><ele>130.0</ele><time>2026-04-07T09:41:44Z</time></trkpt><trkpt lat="45.5215799294765" lon="9.271107571256548"><ele>130.0</ele><time>2026-04-07T09:41:46Z</time></trkpt><trkpt lat="45.52146406794601" lon="9.271137359249886"><ele>130.0</ele><time>2026-04-07T09:41:47Z</time></trkpt><trkpt lat="45.52145272502057" lon="9.271329759117977"><ele>130.0</ele><time>2026-04-07T09:41:48Z</time></trkpt><trkpt lat="45.52156007795724" lon="9.271088942151007"><ele>130.0</ele><time>2026-04-07T09:41:49Z</time></trkpt><trkpt lat="45.52166996610763" lon="9.271303104547187"><ele>130.0</ele><time>2026-04-07T09:41:51Z</time></trkpt><trkpt lat="45.521476233457264" lon="9.271120882597952"><ele>130.0</ele><time>2026-04-07T09:41:52Z</time></trkpt><trkpt lat="45.52140452807937" lon="9.271033072859037"><ele>130.0</ele><time>2026-04-07T09:41:54Z</time></trkpt><trkpt lat="45.52137801737005" lon="9.27086376753802"><ele>130.0</ele><time>2026-04-07T09:41:56Z</time></trkpt><trkpt lat="45.521287380834934" lon="9.270771766049924"><ele>130.0</ele><time>2026-04-07T09:41:58Z</time></trkpt><trkpt lat="45.52122261715747" lon="9.270671784256995"><ele>130.0</ele><time>2026-04-07T09:42:00.001Z</time></trkpt><trkpt lat="45.521139860622455" lon="9.270578391410423"><ele>130.0</ele><time>2026-04-07T09:42:02.001Z</time></trkpt><trkpt lat="45.52106096085159" lon="9.270489351100688"><ele>130.8</ele><time>2026-04-07T09:42:04.001Z</time></trkpt><trkpt lat="45.52097900922444" lon="9.270397634938364"><ele>131.6</ele><time>2026-04-07T09:42:06.001Z</time></trkpt><trkpt lat="45.52088951708867" lon="9.270297909524029"><ele>132.4</ele><time>2026-04-07T09:42:08.001Z</time></trkpt><trkpt lat="45.520800983224895" lon="9.270199737934924"><ele>133.2</ele><time>2026-04-07T09:42:10.001Z</time></trkpt><trkpt lat="45.520712293162575" lon="9.270101379511797"><ele>134.0</ele><time>2026-04-07T09:42:12.001Z</time></trkpt><trkpt lat="45.52062201162821" lon="9.270000478460567"><ele>134.0</ele><time>2026-04-07T09:42:14.001Z</time></trkpt><trkpt lat="45.52053764897129" lon="9.26990619250292"><ele>134.0</ele><time>2026-04-07T09:42:16.001Z</time></trkpt><trkpt lat="45.52045790379977" lon="9.269817067169411"><ele>134.0</ele><time>2026-04-07T09:42:18.001Z</time></trkpt><trkpt lat="45.52039156876527" lon="9.269742929362868"><ele>134.0</ele><time>2026-04-07T09:42:20.001Z</time></trkpt><trkpt lat="45.52027155401367" lon="9.269609624088739"><ele>134.0</ele><time>2026-04-07T09:42:29.001Z</time></trkpt><trkpt lat="45.52018087443089" lon="9.269509138927123"><ele>133.5</ele><time>2026-04-07T09:42:31.001Z</time></trkpt><trkpt lat="45.52008717932204" lon="9.269405082418672"><ele>133.0</ele><time>2026-04-07T09:42:33.001Z</time></trkpt><trkpt lat="45.519991756405005" lon="9.269298796243213"><ele>132.5</ele><time>2026-04-07T09:42:35.001Z</time></trkpt><trkpt lat="45.51989865696785" lon="9.269195098067598"><ele>132.0</ele><time>2026-04-07T09:42:37.001Z</time></trkpt><trkpt lat="45.51980845238977" lon="9.269094624303142"><ele>132.0</ele><time>2026-04-07T09:42:39Z</time></trkpt><trkpt lat="45.51971687432531" lon="9.26899262069319"><ele>132.0</ele><time>2026-04-07T09:42:41Z</time></trkpt><trkpt lat="45.51962343512917" lon="9.268888544076114"><ele>132.0</ele><time>2026-04-07T09:42:43Z</time></trkpt><trkpt lat="45.519528325712905" lon="9.268782607095023"><ele>132.0</ele><time>2026-04-07T09:42:45Z</time></trkpt><trkpt lat="45.51943237464275" lon="9.268675732642237"><ele>131.79999999999998</ele><time>2026-04-07T09:42:47Z</time></trkpt><trkpt lat="45.51938267023419" lon="9.268620369721054"><ele>131.6</ele><time>2026-04-07T09:42:48Z</time></trkpt><trkpt lat="45.51928303498629" lon="9.268509454680375"><ele>131.39999999999998</ele><time>2026-04-07T09:42:50Z</time></trkpt><trkpt lat="45.51918600616075" lon="9.268401803189924"><ele>131.2</ele><time>2026-04-07T09:42:52Z</time></trkpt><trkpt lat="45.51909082836797" lon="9.268296595138896"><ele>131.0</ele><time>2026-04-07T09:42:54Z</time></trkpt><trkpt lat="45.51898640223955" lon="9.268346566943357"><ele>131.0</ele><time>2026-04-07T09:42:55Z</time></trkpt><trkpt lat="45.51889509223776" lon="9.268232443222741"><ele>131.0</ele><time>2026-04-07T09:42:57Z</time></trkpt><trkpt lat="45.51885861306004" lon="9.268038562181212"><ele>131.0</ele><time>2026-04-07T09:42:59Z</time></trkpt><trkpt lat="45.51876887179986" lon="9.267938687581218"><ele>131.0</ele><time>2026-04-07T09:43:01Z</time></trkpt><trkpt lat="45.5186783692228" lon="9.267837965696568"><ele>131.0</ele><time>2026-04-07T09:43:03Z</time></trkpt><trkpt lat="45.518588071690814" lon="9.267738313807401"><ele>131.0</ele><time>2026-04-07T09:43:05Z</time></trkpt><trkpt lat="45.51850374646003" lon="9.267786246023565"><ele>131.0</ele><time>2026-04-07T09:43:06Z</time></trkpt><trkpt lat="45.51844357087543" lon="9.267690270060806"><ele>131.0</ele><time>2026-04-07T09:43:08Z</time></trkpt><trkpt lat="45.51839716078058" lon="9.267534901134407"><ele>131.0</ele><time>2026-04-07T09:43:10Z</time></trkpt><trkpt lat="45.51831812394633" lon="9.267570180096023"><ele>131.0</ele><time>2026-04-07T09:43:11Z</time></trkpt><trkpt lat="45.51823163743557" lon="9.267477817293148"><ele>131.0</ele><time>2026-04-07T09:43:13Z</time></trkpt><trkpt lat="45.51815038590591" lon="9.26738504265789"><ele>131.0</ele><time>2026-04-07T09:43:15Z</time></trkpt><trkpt lat="45.518108930528435" lon="9.267214153160186"><ele>131.0</ele><time>2026-04-07T09:43:17Z</time></trkpt><trkpt lat="45.518026225861625" lon="9.267124039336291"><ele>131.0</ele><time>2026-04-07T09:43:19Z</time></trkpt><trkpt lat="45.51794361738552" lon="9.267034044143461"><ele>130.5</ele><time>2026-04-07T09:43:21Z</time></trkpt><trkpt lat="45.51786139613742" lon="9.266944470806152"><ele>130.0</ele><time>2026-04-07T09:43:23Z</time></trkpt><trkpt lat="45.517784244196704" lon="9.266860420064452"><ele>129.5</ele><time>2026-04-07T09:43:25Z</time></trkpt><trkpt lat="45.5177215595269" lon="9.26679213024429"><ele>129.0</ele><time>2026-04-07T09:43:27Z</time></trkpt><trkpt lat="45.51766898271869" lon="9.266734869740581"><ele>128.5</ele><time>2026-04-07T09:43:29Z</time></trkpt><trkpt lat="45.51760478357167" lon="9.266665064756896"><ele>128.0</ele><time>2026-04-07T09:43:32Z</time></trkpt><trkpt lat="45.517550939866716" lon="9.26660602993344"><ele>127.99999999999999</ele><time>2026-04-07T09:43:35Z</time></trkpt><trkpt lat="45.51756647849992" lon="9.266500131315881"><ele>128.0</ele><time>2026-04-07T09:43:39Z</time></trkpt><trkpt lat="45.51761396333234" lon="9.26639779955534"><ele>128.0</ele><time>2026-04-07T09:43:41Z</time></trkpt><trkpt lat="45.51763914004026" lon="9.26627391883437"><ele>128.0</ele><time>2026-04-07T09:43:43Z</time></trkpt><trkpt lat="45.51766557055587" lon="9.266147515756373"><ele>127.99999999999999</ele><time>2026-04-07T09:43:45Z</time></trkpt><trkpt lat="45.5176926656367" lon="9.266016561175334"><ele>128.0</ele><time>2026-04-07T09:43:47Z</time></trkpt><trkpt lat="45.51772329095028" lon="9.26588312172086"><ele>128.20000000000002</ele><time>2026-04-07T09:43:49.001Z</time></trkpt><trkpt lat="45.51775078883855" lon="9.265750060356892"><ele>128.4</ele><time>2026-04-07T09:43:51.001Z</time></trkpt><trkpt lat="45.51778007470726" lon="9.265618935097766"><ele>128.60000000000002</ele><time>2026-04-07T09:43:53.001Z</time></trkpt><trkpt lat="45.517809911563845" lon="9.26549127984968"><ele>128.8</ele><time>2026-04-07T09:43:55.001Z</time></trkpt><trkpt lat="45.517837690625484" lon="9.265365535198228"><ele>129.0</ele><time>2026-04-07T09:43:57.001Z</time></trkpt><trkpt lat="45.51786563071797" lon="9.26524131420407"><ele>129.16666666666666</ele><time>2026-04-07T09:43:59.001Z</time></trkpt><trkpt lat="45.517901189237385" lon="9.26513259341713"><ele>129.33333333333334</ele><time>2026-04-07T09:44:01.001Z</time></trkpt><trkpt lat="45.51792224000659" lon="9.265027108575723"><ele>129.5</ele><time>2026-04-07T09:44:03.001Z</time></trkpt><trkpt lat="45.51794151767169" lon="9.264930053023546"><ele>129.66666666666669</ele><time>2026-04-07T09:44:05.001Z</time></trkpt><trkpt lat="45.51795938776296" lon="9.264837511397817"><ele>129.83333333333334</ele><time>2026-04-07T09:44:07.001Z</time></trkpt><trkpt lat="45.51798186860929" lon="9.264718215392387"><ele>130.0</ele><time>2026-04-07T09:44:10.001Z</time></trkpt><trkpt lat="45.518001247151446" lon="9.26461014521019"><ele>130.0</ele><time>2026-04-07T09:45:38Z</time></trkpt><trkpt lat="45.518006396682004" lon="9.264481774060405"><ele>130.0</ele><time>2026-04-07T09:45:40Z</time></trkpt><trkpt lat="45.518029990398574" lon="9.26433933067689"><ele>130.0</ele><time>2026-04-07T09:45:42.001Z</time></trkpt><trkpt lat="45.51805353015221" lon="9.264183939023129"><ele>130.0</ele><time>2026-04-07T09:45:44.001Z</time></trkpt><trkpt lat="45.51809969409461" lon="9.264029544526283"><ele>130.0</ele><time>2026-04-07T09:45:46.001Z</time></trkpt><trkpt lat="45.51813076439484" lon="9.263864842906235"><ele>130.0</ele><time>2026-04-07T09:45:48.001Z</time></trkpt><trkpt lat="45.51814654063316" lon="9.26377742604259"><ele>130.0</ele><time>2026-04-07T09:45:49.001Z</time></trkpt><trkpt lat="45.518173136091534" lon="9.26360609891043"><ele>130.0</ele><time>2026-04-07T09:45:51.001Z</time></trkpt><trkpt lat="45.518199801551454" lon="9.26343968715269"><ele>130.0</ele><time>2026-04-07T09:45:53.001Z</time></trkpt><trkpt lat="45.51822948057491" lon="9.263271105920502"><ele>130.0</ele><time>2026-04-07T09:45:55.001Z</time></trkpt><trkpt lat="45.51824110101618" lon="9.263149108642677"><ele>129.2</ele><time>2026-04-07T09:45:57.001Z</time></trkpt><trkpt lat="45.51826346617765" lon="9.263033819325482"><ele>128.4</ele><time>2026-04-07T09:45:58.001Z</time></trkpt><trkpt lat="45.51827910823763" lon="9.262943309859327"><ele>127.6</ele><time>2026-04-07T09:45:59.001Z</time></trkpt><trkpt lat="45.51829492633284" lon="9.262854134048478"><ele>126.8</ele><time>2026-04-07T09:46:00.001Z</time></trkpt><trkpt lat="45.51830757055422" lon="9.262678386860072"><ele>126.0</ele><time>2026-04-07T09:46:02.001Z</time></trkpt><trkpt lat="45.51832567203588" lon="9.262504022770676"><ele>126.0</ele><time>2026-04-07T09:46:04.001Z</time></trkpt><trkpt lat="45.518320685436336" lon="9.262325943211831"><ele>126.0</ele><time>2026-04-07T09:46:06.001Z</time></trkpt><trkpt lat="45.51831510394877" lon="9.262144292841693"><ele>126.0</ele><time>2026-04-07T09:46:08.001Z</time></trkpt><trkpt lat="45.51831265099129" lon="9.26204733643999"><ele>126.0</ele><time>2026-04-07T09:46:09.001Z</time></trkpt><trkpt lat="45.51831019101555" lon="9.261947626259946"><ele>126.0</ele><time>2026-04-07T09:46:10.001Z</time></trkpt><trkpt lat="45.51830399004636" lon="9.261842679964946"><ele>125.8</ele><time>2026-04-07T09:46:11.001Z</time></trkpt><trkpt lat="45.5182866390453" lon="9.261745552498212"><ele>125.6</ele><time>2026-04-07T09:46:12.001Z</time></trkpt><trkpt lat="45.51825738627399" lon="9.261650068928297"><ele>125.4</ele><time>2026-04-07T09:46:13.001Z</time></trkpt><trkpt lat="45.51824351843492" lon="9.261491195550523"><ele>125.2</ele><time>2026-04-07T09:46:15.001Z</time></trkpt><trkpt lat="45.518206938244575" lon="9.261358106727776"><ele>125.0</ele><time>2026-04-07T09:46:17.001Z</time></trkpt><trkpt lat="45.518194445071366" lon="9.261215489525847"><ele>125.4</ele><time>2026-04-07T09:46:19.001Z</time></trkpt><trkpt lat="45.51823430851281" lon="9.261139664775564"><ele>125.8</ele><time>2026-04-07T09:46:21.001Z</time></trkpt><trkpt lat="45.51836470932445" lon="9.261160422963362"><ele>126.19999999999999</ele><time>2026-04-07T09:46:22.001Z</time></trkpt><trkpt lat="45.518458880232956" lon="9.26113673586117"><ele>126.6</ele><time>2026-04-07T09:46:24.001Z</time></trkpt><trkpt lat="45.518541757629436" lon="9.26107915407328"><ele>127.0</ele><time>2026-04-07T09:46:26.001Z</time></trkpt><trkpt lat="45.51859661992243" lon="9.260971789304941"><ele>127.00000000000001</ele><time>2026-04-07T09:46:28.001Z</time></trkpt><trkpt lat="45.51863571547831" lon="9.260813872499783"><ele>127.0</ele><time>2026-04-07T09:46:30.001Z</time></trkpt><trkpt lat="45.51865404647843" lon="9.260721292899174"><ele>127.0</ele><time>2026-04-07T09:46:31.001Z</time></trkpt><trkpt lat="45.518668645621595" lon="9.260632082022235"><ele>127.0</ele><time>2026-04-07T09:46:32.001Z</time></trkpt><trkpt lat="45.5186818902822" lon="9.260543981998154"><ele>127.00000000000001</ele><time>2026-04-07T09:46:33.001Z</time></trkpt><trkpt lat="45.51869588929357" lon="9.260450864163863"><ele>127.0</ele><time>2026-04-07T09:46:34.001Z</time></trkpt><trkpt lat="45.51871860307439" lon="9.26030470140099"><ele>127.0</ele><time>2026-04-07T09:46:36.001Z</time></trkpt><trkpt lat="45.51874440981963" lon="9.260163225358564"><ele>126.99999999999999</ele><time>2026-04-07T09:46:38.001Z</time></trkpt><trkpt lat="45.518774429028525" lon="9.26001970133092"><ele>126.99999999999999</ele><time>2026-04-07T09:46:40.001Z</time></trkpt><trkpt lat="45.518806339137036" lon="9.259873967204072"><ele>127.0</ele><time>2026-04-07T09:46:42.001Z</time></trkpt><trkpt lat="45.51883468406525" lon="9.259735394034983"><ele>127.0</ele><time>2026-04-07T09:46:44.001Z</time></trkpt><trkpt lat="45.51886078774104" lon="9.259604370324624"><ele>126.8</ele><time>2026-04-07T09:46:46.001Z</time></trkpt><trkpt lat="45.51888496979244" lon="9.25947132733718"><ele>126.6</ele><time>2026-04-07T09:46:48.001Z</time></trkpt><trkpt lat="45.51889142996119" lon="9.259317753761968"><ele>126.39999999999999</ele><time>2026-04-07T09:46:50.001Z</time></trkpt><trkpt lat="45.51888060139876" lon="9.259171720782735"><ele>126.19999999999999</ele><time>2026-04-07T09:46:52.001Z</time></trkpt><trkpt lat="45.51885928763355" lon="9.259032078312025"><ele>126.0</ele><time>2026-04-07T09:46:54.001Z</time></trkpt><trkpt lat="45.51882940898431" lon="9.258899816799605"><ele>126.6</ele><time>2026-04-07T09:46:56.001Z</time></trkpt><trkpt lat="45.518794934968106" lon="9.258781032917"><ele>127.19999999999999</ele><time>2026-04-07T09:46:58.001Z</time></trkpt><trkpt lat="45.51873701376227" lon="9.258628815932115"><ele>127.80000000000001</ele><time>2026-04-07T09:47:00.001Z</time></trkpt><trkpt lat="45.51867125755269" lon="9.258485260557359"><ele>128.4</ele><time>2026-04-07T09:47:02.001Z</time></trkpt><trkpt lat="45.51861109352063" lon="9.258359749229221"><ele>129.0</ele><time>2026-04-07T09:47:04.001Z</time></trkpt><trkpt lat="45.518553441107244" lon="9.258244216478762"><ele>129.16666666666666</ele><time>2026-04-07T09:47:06.001Z</time></trkpt><trkpt lat="45.51850808673909" lon="9.258158961235226"><ele>129.33333333333334</ele><time>2026-04-07T09:47:08.001Z</time></trkpt><trkpt lat="45.51845638235804" lon="9.258064794154421"><ele>129.5</ele><time>2026-04-07T09:47:11.001Z</time></trkpt><trkpt lat="45.518409777786175" lon="9.257978284957137"><ele>129.66666666666669</ele><time>2026-04-07T09:47:14.001Z</time></trkpt><trkpt lat="45.5183603759145" lon="9.257895778364292"><ele>129.83333333333334</ele><time>2026-04-07T09:47:16.001Z</time></trkpt><trkpt lat="45.518295912761445" lon="9.257784660468133"><ele>130.0</ele><time>2026-04-07T09:47:18.001Z</time></trkpt><trkpt lat="45.51823717313184" lon="9.25766141568288"><ele>130.25</ele><time>2026-04-07T09:47:20.001Z</time></trkpt><trkpt lat="45.518184299453154" lon="9.257521535133893"><ele>130.5</ele><time>2026-04-07T09:47:22.001Z</time></trkpt><trkpt lat="45.51812909993235" lon="9.257376591128994"><ele>130.75</ele><time>2026-04-07T09:47:24.001Z</time></trkpt><trkpt lat="45.51806925578832" lon="9.257234387344267"><ele>131.0</ele><time>2026-04-07T09:47:26.001Z</time></trkpt><trkpt lat="45.518004038371764" lon="9.25709533831312"><ele>131.0</ele><time>2026-04-07T09:47:28.001Z</time></trkpt><trkpt lat="45.517921555810815" lon="9.256963952942547"><ele>131.0</ele><time>2026-04-07T09:47:30.001Z</time></trkpt><trkpt lat="45.51783199517232" lon="9.256856209608353"><ele>131.0</ele><time>2026-04-07T09:47:32.001Z</time></trkpt><trkpt lat="45.51774159547443" lon="9.256761642380186"><ele>131.0</ele><time>2026-04-07T09:47:34.001Z</time></trkpt><trkpt lat="45.51764436212995" lon="9.256672648234401"><ele>130.4</ele><time>2026-04-07T09:47:36.001Z</time></trkpt><trkpt lat="45.51753339294756" lon="9.25659408821174"><ele>129.8</ele><time>2026-04-07T09:47:38.001Z</time></trkpt><trkpt lat="45.517472198038696" lon="9.25655948341076"><ele>129.20000000000002</ele><time>2026-04-07T09:47:39.001Z</time></trkpt><trkpt lat="45.51741171319286" lon="9.256532495461308"><ele>128.6</ele><time>2026-04-07T09:47:40.001Z</time></trkpt><trkpt lat="45.51729022934117" lon="9.256495923401287"><ele>128.0</ele><time>2026-04-07T09:47:42.001Z</time></trkpt><trkpt lat="45.51716924769251" lon="9.256475834031768"><ele>128.0</ele><time>2026-04-07T09:47:44.001Z</time></trkpt><trkpt lat="45.51704867364952" lon="9.256462843134868"><ele>128.0</ele><time>2026-04-07T09:47:46.001Z</time></trkpt><trkpt lat="45.516928692072" lon="9.256455888040648"><ele>128.0</ele><time>2026-04-07T09:47:48.001Z</time></trkpt><trkpt lat="45.51680651694835" lon="9.256452339927936"><ele>128.0</ele><time>2026-04-07T09:47:50.001Z</time></trkpt><trkpt lat="45.516685089340484" lon="9.256448813521457"><ele>127.75</ele><time>2026-04-07T09:47:52.001Z</time></trkpt><trkpt lat="45.516563574280724" lon="9.256445284563153"><ele>127.5</ele><time>2026-04-07T09:47:54.001Z</time></trkpt><trkpt lat="45.516446306031725" lon="9.25643662683155"><ele>127.25</ele><time>2026-04-07T09:47:56.001Z</time></trkpt><trkpt lat="45.51632969105236" lon="9.25641785532604"><ele>127.0</ele><time>2026-04-07T09:47:58.001Z</time></trkpt><trkpt lat="45.51621465998082" lon="9.25636975068278"><ele>127.00000000000001</ele><time>2026-04-07T09:48:00.001Z</time></trkpt><trkpt lat="45.51610479542252" lon="9.25630131158881"><ele>127.0</ele><time>2026-04-07T09:48:02.001Z</time></trkpt><trkpt lat="45.51599409215213" lon="9.256218845491958"><ele>127.0</ele><time>2026-04-07T09:48:04.001Z</time></trkpt><trkpt lat="45.51593965798121" lon="9.25617349155709"><ele>127.0</ele><time>2026-04-07T09:48:05.001Z</time></trkpt><trkpt lat="45.51588522874123" lon="9.256125971548377"><ele>127.00000000000001</ele><time>2026-04-07T09:48:06.001Z</time></trkpt><trkpt lat="45.51583140573272" lon="9.25607898078548"><ele>127.0</ele><time>2026-04-07T09:48:07.001Z</time></trkpt><trkpt lat="45.515723644236616" lon="9.255984898458472"><ele>127.0</ele><time>2026-04-07T09:48:09.001Z</time></trkpt><trkpt lat="45.51567014537189" lon="9.255936779621699"><ele>126.99999999999999</ele><time>2026-04-07T09:48:10.001Z</time></trkpt><trkpt lat="45.51561703651376" lon="9.255888272646354"><ele>126.99999999999999</ele><time>2026-04-07T09:48:11.001Z</time></trkpt><trkpt lat="45.51551695772287" lon="9.255783766953616"><ele>127.0</ele><time>2026-04-07T09:48:13.001Z</time></trkpt><trkpt lat="45.51541888751573" lon="9.255671698644026"><ele>127.0</ele><time>2026-04-07T09:48:15.001Z</time></trkpt><trkpt lat="45.51532440900454" lon="9.25555999522712"><ele>127.19999999999999</ele><time>2026-04-07T09:48:17.001Z</time></trkpt><trkpt lat="45.515232727155144" lon="9.25544986440425"><ele>127.39999999999999</ele><time>2026-04-07T09:48:19.001Z</time></trkpt><trkpt lat="45.51513956485873" lon="9.25533457593119"><ele>127.60000000000001</ele><time>2026-04-07T09:48:21.001Z</time></trkpt><trkpt lat="45.51504549337323" lon="9.255218162363866"><ele>127.80000000000001</ele><time>2026-04-07T09:48:23.001Z</time></trkpt><trkpt lat="45.514996965492806" lon="9.255158109027953"><ele>128.0</ele><time>2026-04-07T09:48:24.001Z</time></trkpt><trkpt lat="45.51494900716243" lon="9.25509876054936"><ele>128.0</ele><time>2026-04-07T09:48:25.001Z</time></trkpt><trkpt lat="45.51490047035638" lon="9.255038696170725"><ele>128.0</ele><time>2026-04-07T09:48:26.001Z</time></trkpt><trkpt lat="45.51480621386359" lon="9.25492205364683"><ele>128.0</ele><time>2026-04-07T09:48:28.001Z</time></trkpt><trkpt lat="45.51471226094344" lon="9.254805715096854"><ele>128.0</ele><time>2026-04-07T09:48:30.001Z</time></trkpt><trkpt lat="45.5146186507941" lon="9.254689385727673"><ele>128.0</ele><time>2026-04-07T09:48:32.001Z</time></trkpt><trkpt lat="45.514525615877226" lon="9.254573771224536"><ele>128.5</ele><time>2026-04-07T09:48:34.001Z</time></trkpt><trkpt lat="45.514431779787785" lon="9.254457161048043"><ele>129.0</ele><time>2026-04-07T09:48:36.001Z</time></trkpt><trkpt lat="45.51433803529237" lon="9.25434066472843"><ele>129.5</ele><time>2026-04-07T09:48:38.001Z</time></trkpt><trkpt lat="45.514246436207664" lon="9.254226834531352"><ele>130.0</ele><time>2026-04-07T09:48:40.001Z</time></trkpt><trkpt lat="45.51415125560712" lon="9.254110887377077"><ele>130.0</ele><time>2026-04-07T09:48:42.001Z</time></trkpt><trkpt lat="45.51410191886505" lon="9.25405479069751"><ele>130.0</ele><time>2026-04-07T09:48:43.001Z</time></trkpt><trkpt lat="45.513996794528424" lon="9.253957093327127"><ele>130.0</ele><time>2026-04-07T09:48:45.001Z</time></trkpt><trkpt lat="45.513937506186544" lon="9.25391829476474"><ele>130.0</ele><time>2026-04-07T09:48:46.002Z</time></trkpt><trkpt lat="45.51387827874101" lon="9.253886893081104"><ele>130.0</ele><time>2026-04-07T09:48:47.002Z</time></trkpt><trkpt lat="45.513755717429206" lon="9.253852366917567"><ele>130.0</ele><time>2026-04-07T09:48:49.002Z</time></trkpt><trkpt lat="45.51369123466751" lon="9.253851092412894"><ele>129.83333333333334</ele><time>2026-04-07T09:48:50.002Z</time></trkpt><trkpt lat="45.51362719920159" lon="9.253860028898329"><ele>129.66666666666669</ele><time>2026-04-07T09:48:51.002Z</time></trkpt><trkpt lat="45.513564506850734" lon="9.253878024749277"><ele>129.5</ele><time>2026-04-07T09:48:52.002Z</time></trkpt><trkpt lat="45.51350366605521" lon="9.253901441173948"><ele>129.33333333333334</ele><time>2026-04-07T09:48:53.002Z</time></trkpt><trkpt lat="45.51338420028785" lon="9.253955855167817"><ele>129.16666666666666</ele><time>2026-04-07T09:48:55.002Z</time></trkpt><trkpt lat="45.513264379070755" lon="9.25400732173472"><ele>129.0</ele><time>2026-04-07T09:48:57Z</time></trkpt><trkpt lat="45.51314498075624" lon="9.254058908424545"><ele>128.8</ele><time>2026-04-07T09:48:59Z</time></trkpt><trkpt lat="45.51302633113622" lon="9.254112505046526"><ele>128.60000000000002</ele><time>2026-04-07T09:49:01Z</time></trkpt><trkpt lat="45.51290864414957" lon="9.254165106581286"><ele>128.4</ele><time>2026-04-07T09:49:03Z</time></trkpt><trkpt lat="45.512791543928444" lon="9.25423434627234"><ele>128.20000000000002</ele><time>2026-04-07T09:49:05Z</time></trkpt><trkpt lat="45.51272731869337" lon="9.254234973991789"><ele>128.0</ele><time>2026-04-07T09:49:06Z</time></trkpt><trkpt lat="45.51260875167912" lon="9.254277197338634"><ele>128.6</ele><time>2026-04-07T09:49:08Z</time></trkpt><trkpt lat="45.51248980467464" lon="9.254318851760617"><ele>129.20000000000002</ele><time>2026-04-07T09:49:10Z</time></trkpt><trkpt lat="45.51237041337362" lon="9.254360067167552"><ele>129.8</ele><time>2026-04-07T09:49:12Z</time></trkpt><trkpt lat="45.51225192546871" lon="9.254421580462147"><ele>130.4</ele><time>2026-04-07T09:49:14Z</time></trkpt><trkpt lat="45.51218854818171" lon="9.254417232858012"><ele>131.0</ele><time>2026-04-07T09:49:15Z</time></trkpt><trkpt lat="45.51206623620838" lon="9.254453380047313"><ele>131.5</ele><time>2026-04-07T09:49:17Z</time></trkpt><trkpt lat="45.5120037616838" lon="9.254471165849834"><ele>132.0</ele><time>2026-04-07T09:49:18Z</time></trkpt><trkpt lat="45.511940807860746" lon="9.25448821512866"><ele>132.5</ele><time>2026-04-07T09:49:19Z</time></trkpt><trkpt lat="45.51187857937906" lon="9.254504560410123"><ele>133.0</ele><time>2026-04-07T09:49:20Z</time></trkpt><trkpt lat="45.511815704965244" lon="9.25452003001132"><ele>133.5</ele><time>2026-04-07T09:49:21Z</time></trkpt><trkpt lat="45.51170061414684" lon="9.254531937471022"><ele>134.0</ele><time>2026-04-07T09:49:23Z</time></trkpt><trkpt lat="45.511599971488515" lon="9.254505173681219"><ele>134.0</ele><time>2026-04-07T09:49:25Z</time></trkpt><trkpt lat="45.51151352124021" lon="9.254435232567396"><ele>134.0</ele><time>2026-04-07T09:49:27Z</time></trkpt><trkpt lat="45.51142957317573" lon="9.254361936813396"><ele>134.0</ele><time>2026-04-07T09:49:29Z</time></trkpt><trkpt lat="45.51135676947638" lon="9.254283197083279"><ele>134.0</ele><time>2026-04-07T09:49:31Z</time></trkpt><trkpt lat="45.51128866234065" lon="9.254219694150239"><ele>134.0</ele><time>2026-04-07T09:49:33Z</time></trkpt><trkpt lat="45.51122077506941" lon="9.254222021517755"><ele>134.0</ele><time>2026-04-07T09:49:35.001Z</time></trkpt><trkpt lat="45.51120148840328" lon="9.254102961863378"><ele>133.2</ele><time>2026-04-07T09:49:36.001Z</time></trkpt><trkpt lat="45.51118148784638" lon="9.253958903912265"><ele>132.4</ele><time>2026-04-07T09:49:38.001Z</time></trkpt><trkpt lat="45.51117030422925" lon="9.25379918226284"><ele>131.6</ele><time>2026-04-07T09:49:40.001Z</time></trkpt><trkpt lat="45.511125390256865" lon="9.253659807747864"><ele>130.8</ele><time>2026-04-07T09:49:42.001Z</time></trkpt><trkpt lat="45.51109074713339" lon="9.25350140040613"><ele>130.0</ele><time>2026-04-07T09:49:44.001Z</time></trkpt><trkpt lat="45.51106193529425" lon="9.25332989836699"><ele>130.0</ele><time>2026-04-07T09:49:46.001Z</time></trkpt><trkpt lat="45.51102470573524" lon="9.253159294162709"><ele>130.0</ele><time>2026-04-07T09:49:48.001Z</time></trkpt><trkpt lat="45.51100861570448" lon="9.25307240655241"><ele>130.0</ele><time>2026-04-07T09:49:49.001Z</time></trkpt><trkpt lat="45.51097628023057" lon="9.252909938827726"><ele>130.0</ele><time>2026-04-07T09:49:51.001Z</time></trkpt><trkpt lat="45.51094580294185" lon="9.252736822614748"><ele>130.0</ele><time>2026-04-07T09:49:53.001Z</time></trkpt><trkpt lat="45.51091288397449" lon="9.252562432105844"><ele>130.25</ele><time>2026-04-07T09:49:55.001Z</time></trkpt><trkpt lat="45.51087783745454" lon="9.252388106719065"><ele>130.5</ele><time>2026-04-07T09:49:57.001Z</time></trkpt><trkpt lat="45.51084397272074" lon="9.252217385272042"><ele>130.75</ele><time>2026-04-07T09:49:59.001Z</time></trkpt><trkpt lat="45.51080815789073" lon="9.252046946943581"><ele>131.0</ele><time>2026-04-07T09:50:01.001Z</time></trkpt><trkpt lat="45.51077180945548" lon="9.251882835543148"><ele>131.0</ele><time>2026-04-07T09:50:03.001Z</time></trkpt><trkpt lat="45.51074460021858" lon="9.251711314861138"><ele>131.0</ele><time>2026-04-07T09:50:05.001Z</time></trkpt><trkpt lat="45.51072842040631" lon="9.251621978659648"><ele>131.0</ele><time>2026-04-07T09:50:06.001Z</time></trkpt><trkpt lat="45.51071290787237" lon="9.25153486785009"><ele>131.0</ele><time>2026-04-07T09:50:07.001Z</time></trkpt><trkpt lat="45.51068151317545" lon="9.251364117218426"><ele>131.0</ele><time>2026-04-07T09:50:09.001Z</time></trkpt><trkpt lat="45.51064552564673" lon="9.251192279528958"><ele>131.0</ele><time>2026-04-07T09:50:11.001Z</time></trkpt><trkpt lat="45.510615121310664" lon="9.251018431607008"><ele>131.0</ele><time>2026-04-07T09:50:13.001Z</time></trkpt><trkpt lat="45.510598703796674" lon="9.250931354090577"><ele>131.0</ele><time>2026-04-07T09:50:14.001Z</time></trkpt><trkpt lat="45.510577939797194" lon="9.25083814912076"><ele>131.0</ele><time>2026-04-07T09:50:15.001Z</time></trkpt><trkpt lat="45.51056214822639" lon="9.250746417199165"><ele>131.0</ele><time>2026-04-07T09:50:16.001Z</time></trkpt><trkpt lat="45.510544417303535" lon="9.250657564665724"><ele>131.0</ele><time>2026-04-07T09:50:17.001Z</time></trkpt><trkpt lat="45.51052542889435" lon="9.250565309771446"><ele>131.0</ele><time>2026-04-07T09:50:18.001Z</time></trkpt><trkpt lat="45.510506882846585" lon="9.250469775312725"><ele>131.0</ele><time>2026-04-07T09:50:19.001Z</time></trkpt><trkpt lat="45.51049238079445" lon="9.250379954798124"><ele>131.0</ele><time>2026-04-07T09:50:20.001Z</time></trkpt><trkpt lat="45.510470835952674" lon="9.250291420260856"><ele>131.0</ele><time>2026-04-07T09:50:21.001Z</time></trkpt><trkpt lat="45.510452227172564" lon="9.250197687611085"><ele>131.0</ele><time>2026-04-07T09:50:22.001Z</time></trkpt><trkpt lat="45.51043504141947" lon="9.250105478105615"><ele>131.0</ele><time>2026-04-07T09:50:23.001Z</time></trkpt><trkpt lat="45.51041762011468" lon="9.25000893389744"><ele>131.0</ele><time>2026-04-07T09:50:24.001Z</time></trkpt><trkpt lat="45.510400715800856" lon="9.24991306624991"><ele>130.85714285714286</ele><time>2026-04-07T09:50:25.001Z</time></trkpt><trkpt lat="45.51038051805288" lon="9.249821177413693"><ele>130.71428571428572</ele><time>2026-04-07T09:50:26.001Z</time></trkpt><trkpt lat="45.510363973003095" lon="9.249729253409173"><ele>130.57142857142858</ele><time>2026-04-07T09:50:27.001Z</time></trkpt><trkpt lat="45.51034662800765" lon="9.249638782620428"><ele>130.42857142857144</ele><time>2026-04-07T09:50:28.001Z</time></trkpt><trkpt lat="45.51032793421152" lon="9.249549311607748"><ele>130.28571428571428</ele><time>2026-04-07T09:50:29.001Z</time></trkpt><trkpt lat="45.510311733560854" lon="9.249459138992457"><ele>130.14285714285717</ele><time>2026-04-07T09:50:30.001Z</time></trkpt><trkpt lat="45.5102905536823" lon="9.249364954083923"><ele>130.0</ele><time>2026-04-07T09:50:31.001Z</time></trkpt><trkpt lat="45.510275323438954" lon="9.24926984365649"><ele>130.2857142857143</ele><time>2026-04-07T09:50:32.001Z</time></trkpt><trkpt lat="45.51026098674216" lon="9.249173197723975"><ele>130.57142857142858</ele><time>2026-04-07T09:50:33.001Z</time></trkpt><trkpt lat="45.51023819349882" lon="9.249077017240158"><ele>130.85714285714286</ele><time>2026-04-07T09:50:34.001Z</time></trkpt><trkpt lat="45.51021695171761" lon="9.24898641777708"><ele>131.14285714285717</ele><time>2026-04-07T09:50:35.001Z</time></trkpt><trkpt lat="45.51019640515205" lon="9.248891294535063"><ele>131.42857142857144</ele><time>2026-04-07T09:50:36.001Z</time></trkpt><trkpt lat="45.51017048777738" lon="9.248802526299386"><ele>131.71428571428572</ele><time>2026-04-07T09:50:37.001Z</time></trkpt><trkpt lat="45.51014069231961" lon="9.248717731048663"><ele>132.0</ele><time>2026-04-07T09:50:38.001Z</time></trkpt><trkpt lat="45.51011044532983" lon="9.248633059177198"><ele>132.16666666666666</ele><time>2026-04-07T09:50:39.001Z</time></trkpt><trkpt lat="45.5100757927521" lon="9.248554132377544"><ele>132.33333333333334</ele><time>2026-04-07T09:50:40.001Z</time></trkpt><trkpt lat="45.50999956064107" lon="9.248409483716793"><ele>132.5</ele><time>2026-04-07T09:50:42.001Z</time></trkpt><trkpt lat="45.50995589581679" lon="9.248339683601554"><ele>132.66666666666669</ele><time>2026-04-07T09:50:43.001Z</time></trkpt><trkpt lat="45.50991380946345" lon="9.248267083572006"><ele>132.83333333333334</ele><time>2026-04-07T09:50:44.001Z</time></trkpt><trkpt lat="45.50987552438453" lon="9.248193029387668"><ele>133.0</ele><time>2026-04-07T09:50:45.001Z</time></trkpt><trkpt lat="45.509808914909065" lon="9.24806757776525"><ele>132.5</ele><time>2026-04-07T09:50:47.001Z</time></trkpt><trkpt lat="45.50974342972598" lon="9.247950586366981"><ele>132.0</ele><time>2026-04-07T09:50:49.001Z</time></trkpt><trkpt lat="45.50968370065116" lon="9.247851551774206"><ele>131.5</ele><time>2026-04-07T09:50:51.001Z</time></trkpt><trkpt lat="45.50963826797193" lon="9.247762341953923"><ele>131.0</ele><time>2026-04-07T09:50:53.001Z</time></trkpt><trkpt lat="45.50957948453389" lon="9.24768769533918"><ele>130.5</ele><time>2026-04-07T09:50:56.001Z</time></trkpt><trkpt lat="45.509514002219106" lon="9.247588963996746"><ele>130.0</ele><time>2026-04-07T09:50:59.001Z</time></trkpt><trkpt lat="45.50946077290095" lon="9.247508025981574"><ele>130.0</ele><time>2026-04-07T09:51:01.001Z</time></trkpt><trkpt lat="45.509374555785804" lon="9.247395735490036"><ele>130.0</ele><time>2026-04-07T09:51:04Z</time></trkpt><trkpt lat="45.50929866078726" lon="9.24729247237472"><ele>130.0</ele><time>2026-04-07T09:51:06Z</time></trkpt><trkpt lat="45.50921097865786" lon="9.247179714550798"><ele>130.0</ele><time>2026-04-07T09:51:08Z</time></trkpt><trkpt lat="45.50912512230908" lon="9.247066423017946"><ele>129.75</ele><time>2026-04-07T09:51:10Z</time></trkpt><trkpt lat="45.50903790546476" lon="9.246949009318943"><ele>129.5</ele><time>2026-04-07T09:51:12Z</time></trkpt><trkpt lat="45.50895957350158" lon="9.24683819756844"><ele>129.25</ele><time>2026-04-07T09:51:14Z</time></trkpt><trkpt lat="45.50887269759478" lon="9.246715303700487"><ele>129.0</ele><time>2026-04-07T09:51:16Z</time></trkpt><trkpt lat="45.5087846713796" lon="9.24659724667088"><ele>129.16666666666666</ele><time>2026-04-07T09:51:18Z</time></trkpt><trkpt lat="45.50869004465327" lon="9.246470706409355"><ele>129.33333333333334</ele><time>2026-04-07T09:51:20Z</time></trkpt><trkpt lat="45.50864266406003" lon="9.24640734661278"><ele>129.5</ele><time>2026-04-07T09:51:21Z</time></trkpt><trkpt lat="45.508595189916065" lon="9.246343861515829"><ele>129.66666666666669</ele><time>2026-04-07T09:51:22Z</time></trkpt><trkpt lat="45.508547215137504" lon="9.24627970698575"><ele>129.83333333333334</ele><time>2026-04-07T09:51:23Z</time></trkpt><trkpt lat="45.50849786024316" lon="9.246213706744754"><ele>130.0</ele><time>2026-04-07T09:51:24Z</time></trkpt><trkpt lat="45.50844769843671" lon="9.246146627615476"><ele>130.00000000000003</ele><time>2026-04-07T09:51:25Z</time></trkpt><trkpt lat="45.5083986713006" lon="9.246081065768402"><ele>130.0</ele><time>2026-04-07T09:51:26Z</time></trkpt><trkpt lat="45.508348283993186" lon="9.246013684762204"><ele>130.0</ele><time>2026-04-07T09:51:27Z</time></trkpt><trkpt lat="45.50829853110076" lon="9.245947310750843"><ele>130.0</ele><time>2026-04-07T09:51:28Z</time></trkpt><trkpt lat="45.50824887490827" lon="9.245880989483117"><ele>130.0</ele><time>2026-04-07T09:51:29Z</time></trkpt><trkpt lat="45.50820008246597" lon="9.245815560742406"><ele>130.00000000000003</ele><time>2026-04-07T09:51:30Z</time></trkpt><trkpt lat="45.50815189744873" lon="9.245750946548954"><ele>130.0</ele><time>2026-04-07T09:51:31Z</time></trkpt><trkpt lat="45.50810129608222" lon="9.245683092113802"><ele>130.0</ele><time>2026-04-07T09:51:32Z</time></trkpt><trkpt lat="45.50804883627535" lon="9.245612745610003"><ele>130.0</ele><time>2026-04-07T09:51:33Z</time></trkpt><trkpt lat="45.50799687889788" lon="9.24554307281955"><ele>130.0</ele><time>2026-04-07T09:51:34Z</time></trkpt><trkpt lat="45.50794222417181" lon="9.245469747540863"><ele>130.0</ele><time>2026-04-07T09:51:35Z</time></trkpt><trkpt lat="45.50790415619727" lon="9.245367429260881"><ele>130.0</ele><time>2026-04-07T09:51:36Z</time></trkpt><trkpt lat="45.507871401278734" lon="9.245266548950259"><ele>130.0</ele><time>2026-04-07T09:51:37Z</time></trkpt><trkpt lat="45.507831265364956" lon="9.245156462904045"><ele>130.5</ele><time>2026-04-07T09:51:38Z</time></trkpt><trkpt lat="45.507798673037996" lon="9.245047951683379"><ele>131.0</ele><time>2026-04-07T09:51:39Z</time></trkpt><trkpt lat="45.50776565082104" lon="9.244935773739043"><ele>131.5</ele><time>2026-04-07T09:51:40Z</time></trkpt><trkpt lat="45.507734533796764" lon="9.244822903664819"><ele>132.0</ele><time>2026-04-07T09:51:41Z</time></trkpt><trkpt lat="45.507706230084274" lon="9.244709910926286"><ele>132.5</ele><time>2026-04-07T09:51:42Z</time></trkpt><trkpt lat="45.50767362611603" lon="9.244591958318741"><ele>133.0</ele><time>2026-04-07T09:51:43Z</time></trkpt><trkpt lat="45.507644927334546" lon="9.244474062019984"><ele>133.0</ele><time>2026-04-07T09:51:44Z</time></trkpt><trkpt lat="45.50785544725131" lon="9.243994294090763"><ele>133.0</ele><time>2026-04-07T09:51:45Z</time></trkpt><trkpt lat="45.50780802185071" lon="9.243905576475333"><ele>132.5</ele><time>2026-04-07T09:51:46Z</time></trkpt><trkpt lat="45.50776166036714" lon="9.243819222531371"><ele>132.0</ele><time>2026-04-07T09:51:47Z</time></trkpt><trkpt lat="45.50772070246463" lon="9.243728871426946"><ele>131.5</ele><time>2026-04-07T09:51:48Z</time></trkpt><trkpt lat="45.50768563338191" lon="9.24363406495645"><ele>131.0</ele><time>2026-04-07T09:51:49Z</time></trkpt><trkpt lat="45.50764359113736" lon="9.243546954548176"><ele>130.5</ele><time>2026-04-07T09:51:50Z</time></trkpt><trkpt lat="45.50760179471433" lon="9.243448352412594"><ele>130.0</ele><time>2026-04-07T09:51:51Z</time></trkpt><trkpt lat="45.50755688086702" lon="9.24335526653332"><ele>130.00000000000003</ele><time>2026-04-07T09:51:52Z</time></trkpt><trkpt lat="45.507507011936184" lon="9.243256693952933"><ele>130.0</ele><time>2026-04-07T09:51:53Z</time></trkpt><trkpt lat="45.50747085740291" lon="9.243181908044921"><ele>130.0</ele><time>2026-04-07T09:51:54Z</time></trkpt><trkpt lat="45.507432509849544" lon="9.243091539667795"><ele>130.0</ele><time>2026-04-07T09:51:55Z</time></trkpt><trkpt lat="45.507386737770304" lon="9.243008738341624"><ele>130.0</ele><time>2026-04-07T09:51:56Z</time></trkpt><trkpt lat="45.507347890206454" lon="9.242921303222383"><ele>130.00000000000003</ele><time>2026-04-07T09:51:57Z</time></trkpt><trkpt lat="45.507311876249084" lon="9.242831804446666"><ele>130.0</ele><time>2026-04-07T09:51:58.001Z</time></trkpt><trkpt lat="45.507272911405074" lon="9.242747371268358"><ele>130.00000000000003</ele><time>2026-04-07T09:51:59.001Z</time></trkpt><trkpt lat="45.507235222826615" lon="9.242667435862932"><ele>130.0</ele><time>2026-04-07T09:52:00.001Z</time></trkpt><trkpt lat="45.50719559754948" lon="9.242584381680947"><ele>130.0</ele><time>2026-04-07T09:52:01.001Z</time></trkpt><trkpt lat="45.50715339303886" lon="9.242500961860603"><ele>130.0</ele><time>2026-04-07T09:52:02.001Z</time></trkpt><trkpt lat="45.50711549002676" lon="9.242419953828474"><ele>130.0</ele><time>2026-04-07T09:52:03.001Z</time></trkpt><trkpt lat="45.50707588821253" lon="9.242336047891012"><ele>130.00000000000003</ele><time>2026-04-07T09:52:04.001Z</time></trkpt><trkpt lat="45.50703604279276" lon="9.24225048176912"><ele>130.0</ele><time>2026-04-07T09:52:05.001Z</time></trkpt><trkpt lat="45.50699596194449" lon="9.242166908663652"><ele>129.5</ele><time>2026-04-07T09:52:06.001Z</time></trkpt><trkpt lat="45.50695525006583" lon="9.242085443454664"><ele>129.0</ele><time>2026-04-07T09:52:07.001Z</time></trkpt><trkpt lat="45.50691868789919" lon="9.241999482844726"><ele>128.5</ele><time>2026-04-07T09:52:08.001Z</time></trkpt><trkpt lat="45.50668893288621" lon="9.24212684330281"><ele>128.0</ele><time>2026-04-07T09:52:09.001Z</time></trkpt><trkpt lat="45.506645524359136" lon="9.242048009710546"><ele>127.99999999999999</ele><time>2026-04-07T09:52:10.001Z</time></trkpt><trkpt lat="45.50660164256703" lon="9.241968318740511"><ele>128.0</ele><time>2026-04-07T09:52:11.001Z</time></trkpt><trkpt lat="45.50655655828729" lon="9.241886442292564"><ele>128.0</ele><time>2026-04-07T09:52:12.001Z</time></trkpt><trkpt lat="45.506511118569186" lon="9.241803920153254"><ele>128.0</ele><time>2026-04-07T09:52:13.001Z</time></trkpt><trkpt lat="45.50646501375093" lon="9.241720190085058"><ele>127.99999999999999</ele><time>2026-04-07T09:52:14.001Z</time></trkpt><trkpt lat="45.50632215860698" lon="9.24176283198179"><ele>128.0</ele><time>2026-04-07T09:52:15.001Z</time></trkpt><trkpt lat="45.50627323428134" lon="9.241678774258883"><ele>128.25</ele><time>2026-04-07T09:52:16.001Z</time></trkpt><trkpt lat="45.506227112340305" lon="9.241599531140857"><ele>128.5</ele><time>2026-04-07T09:52:17.001Z</time></trkpt><trkpt lat="45.5061789995036" lon="9.241516867422215"><ele>128.75</ele><time>2026-04-07T09:52:18.001Z</time></trkpt><trkpt lat="45.50614886426269" lon="9.241416137332877"><ele>129.0</ele><time>2026-04-07T09:52:19.001Z</time></trkpt><trkpt lat="45.50642769458322" lon="9.240951002117733"><ele>128.99999999999997</ele><time>2026-04-07T09:52:20.001Z</time></trkpt><trkpt lat="45.50638708313138" lon="9.240863314261382"><ele>129.0</ele><time>2026-04-07T09:52:21.001Z</time></trkpt><trkpt lat="45.506345933169186" lon="9.240774086626406"><ele>129.0</ele><time>2026-04-07T09:52:22.001Z</time></trkpt><trkpt lat="45.506299624857604" lon="9.240685791532428"><ele>129.0</ele><time>2026-04-07T09:52:23.001Z</time></trkpt><trkpt lat="45.50625796886127" lon="9.24060084081236"><ele>129.0</ele><time>2026-04-07T09:52:24.001Z</time></trkpt><trkpt lat="45.506216492614676" lon="9.240518191769125"><ele>128.99999999999997</ele><time>2026-04-07T09:52:25.001Z</time></trkpt><trkpt lat="45.5061786607491" lon="9.240432833274046"><ele>129.0</ele><time>2026-04-07T09:52:26.001Z</time></trkpt><trkpt lat="45.50613865470334" lon="9.240349172806642"><ele>129.28571428571428</ele><time>2026-04-07T09:52:27.001Z</time></trkpt><trkpt lat="45.506099561446064" lon="9.240266557941537"><ele>129.57142857142856</ele><time>2026-04-07T09:52:28.001Z</time></trkpt><trkpt lat="45.50605721208617" lon="9.24018419464515"><ele>129.85714285714286</ele><time>2026-04-07T09:52:29.001Z</time></trkpt><trkpt lat="45.50601907542841" lon="9.240100236048205"><ele>130.14285714285714</ele><time>2026-04-07T09:52:30.001Z</time></trkpt><trkpt lat="45.50597861933851" lon="9.240018321106826"><ele>130.42857142857144</ele><time>2026-04-07T09:52:31.001Z</time></trkpt><trkpt lat="45.50593729921857" lon="9.23994138914291"><ele>130.71428571428572</ele><time>2026-04-07T09:52:32.001Z</time></trkpt><trkpt lat="45.50590104781352" lon="9.239860645363068"><ele>131.0</ele><time>2026-04-07T09:52:33.001Z</time></trkpt><trkpt lat="45.505864165945745" lon="9.2397843940407"><ele>131.0</ele><time>2026-04-07T09:52:34.001Z</time></trkpt><trkpt lat="45.505819617818865" lon="9.239687546345412"><ele>131.0</ele><time>2026-04-07T09:52:35.001Z</time></trkpt><trkpt lat="45.50577863861904" lon="9.23959877322046"><ele>131.0</ele><time>2026-04-07T09:52:36.001Z</time></trkpt><trkpt lat="45.50573625958453" lon="9.239512673779599"><ele>131.0</ele><time>2026-04-07T09:52:37.001Z</time></trkpt><trkpt lat="45.5056959163576" lon="9.239432918228399"><ele>131.0</ele><time>2026-04-07T09:52:38.001Z</time></trkpt><trkpt lat="45.50565508595717" lon="9.239349079440885"><ele>131.0</ele><time>2026-04-07T09:52:39.001Z</time></trkpt><trkpt lat="45.505617550328815" lon="9.239269533598623"><ele>131.0</ele><time>2026-04-07T09:52:40.001Z</time></trkpt><trkpt lat="45.50558210941402" lon="9.239193366281109"><ele>131.0</ele><time>2026-04-07T09:52:41.001Z</time></trkpt><trkpt lat="45.50553376153213" lon="9.239079817905308"><ele>131.0</ele><time>2026-04-07T09:52:43.001Z</time></trkpt><trkpt lat="45.50549242075893" lon="9.238989786478284"><ele>131.0</ele><time>2026-04-07T09:52:45.001Z</time></trkpt><trkpt lat="45.50560156356858" lon="9.23875995321789"><ele>131.0</ele><time>2026-04-07T09:52:47.001Z</time></trkpt><trkpt lat="45.5055463194027" lon="9.238624333762907"><ele>131.0</ele><time>2026-04-07T09:52:49.001Z</time></trkpt><trkpt lat="45.505487797653664" lon="9.238480668084351"><ele>131.0</ele><time>2026-04-07T09:52:51.001Z</time></trkpt><trkpt lat="45.505428860740295" lon="9.2383359811091"><ele>131.0</ele><time>2026-04-07T09:52:53.001Z</time></trkpt><trkpt lat="45.50536861232161" lon="9.238188073259344"><ele>131.0</ele><time>2026-04-07T09:52:55.001Z</time></trkpt><trkpt lat="45.50530857504688" lon="9.238040683763744"><ele>130.66666666666666</ele><time>2026-04-07T09:52:57.001Z</time></trkpt><trkpt lat="45.50510181953948" lon="9.238109918772798"><ele>130.33333333333334</ele><time>2026-04-07T09:52:58.001Z</time></trkpt><trkpt lat="45.50504328494013" lon="9.237959017960065"><ele>130.0</ele><time>2026-04-07T09:53:00.001Z</time></trkpt><trkpt lat="45.504983816572086" lon="9.237806264340877"><ele>130.0</ele><time>2026-04-07T09:53:02.001Z</time></trkpt><trkpt lat="45.50495610979042" lon="9.23772384654726"><ele>130.0</ele><time>2026-04-07T09:53:03.001Z</time></trkpt><trkpt lat="45.50493374704099" lon="9.237634872405692"><ele>130.0</ele><time>2026-04-07T09:53:04.001Z</time></trkpt><trkpt lat="45.50491324333318" lon="9.237548368639747"><ele>130.0</ele><time>2026-04-07T09:53:05.001Z</time></trkpt><trkpt lat="45.50487337309454" lon="9.237387490595614"><ele>130.0</ele><time>2026-04-07T09:53:07.001Z</time></trkpt><trkpt lat="45.50484037181546" lon="9.237238778050187"><ele>130.0</ele><time>2026-04-07T09:53:09Z</time></trkpt><trkpt lat="45.504816538222826" lon="9.23710271577784"><ele>130.0</ele><time>2026-04-07T09:53:11Z</time></trkpt><trkpt lat="45.50479641528451" lon="9.23698837379164"><ele>130.0</ele><time>2026-04-07T09:53:13Z</time></trkpt><trkpt lat="45.50476803513711" lon="9.236892852825816"><ele>130.0</ele><time>2026-04-07T09:53:15Z</time></trkpt><trkpt lat="45.50471456947089" lon="9.236810729325038"><ele>130.0</ele><time>2026-04-07T09:53:17Z</time></trkpt><trkpt lat="45.504694786968656" lon="9.236667109628591"><ele>130.0</ele><time>2026-04-07T09:53:19Z</time></trkpt><trkpt lat="45.504679377666726" lon="9.23652289887508"><ele>130.0</ele><time>2026-04-07T09:53:21Z</time></trkpt><trkpt lat="45.50466598371973" lon="9.236364334669306"><ele>129.83333333333334</ele><time>2026-04-07T09:53:23Z</time></trkpt><trkpt lat="45.5046455059572" lon="9.23620063290148"><ele>129.66666666666669</ele><time>2026-04-07T09:53:25Z</time></trkpt><trkpt lat="45.504633356423696" lon="9.236022981116495"><ele>129.5</ele><time>2026-04-07T09:53:27Z</time></trkpt><trkpt lat="45.50461998527032" lon="9.235933637318771"><ele>129.33333333333334</ele><time>2026-04-07T09:53:28Z</time></trkpt><trkpt lat="45.5046006852375" lon="9.235843697169061"><ele>129.16666666666666</ele><time>2026-04-07T09:53:29Z</time></trkpt><trkpt lat="45.504584761102954" lon="9.235750047326771"><ele>129.0</ele><time>2026-04-07T09:53:30Z</time></trkpt><trkpt lat="45.50456750993407" lon="9.235650035319454"><ele>128.85714285714283</ele><time>2026-04-07T09:53:31Z</time></trkpt><trkpt lat="45.504546063548226" lon="9.235549578505477"><ele>128.71428571428572</ele><time>2026-04-07T09:53:32Z</time></trkpt><trkpt lat="45.50452300781467" lon="9.235449420853099"><ele>128.57142857142856</ele><time>2026-04-07T09:53:33Z</time></trkpt><trkpt lat="45.504501368769375" lon="9.235353162475505"><ele>128.42857142857142</ele><time>2026-04-07T09:53:34Z</time></trkpt><trkpt lat="45.50447875449293" lon="9.235258776293714"><ele>128.28571428571428</ele><time>2026-04-07T09:53:35Z</time></trkpt><trkpt lat="45.5044523281171" lon="9.235163328528634"><ele>128.14285714285714</ele><time>2026-04-07T09:53:36Z</time></trkpt><trkpt lat="45.50443179972274" lon="9.235065767726105"><ele>128.0</ele><time>2026-04-07T09:53:37Z</time></trkpt><trkpt lat="45.50441707988684" lon="9.2349628780591"><ele>128.0</ele><time>2026-04-07T09:53:38Z</time></trkpt><trkpt lat="45.504399109222675" lon="9.234863226235246"><ele>127.99999999999999</ele><time>2026-04-07T09:53:39Z</time></trkpt><trkpt lat="45.50438174929567" lon="9.234764400076102"><ele>128.0</ele><time>2026-04-07T09:53:40Z</time></trkpt><trkpt lat="45.504363312054124" lon="9.234669618411713"><ele>128.0</ele><time>2026-04-07T09:53:41Z</time></trkpt><trkpt lat="45.50434088727647" lon="9.234577873382445"><ele>127.99999999999999</ele><time>2026-04-07T09:53:42Z</time></trkpt><trkpt lat="45.50432505426776" lon="9.234483462633055"><ele>128.0</ele><time>2026-04-07T09:53:43Z</time></trkpt><trkpt lat="45.504309448522825" lon="9.234386042986895"><ele>128.0</ele><time>2026-04-07T09:53:44Z</time></trkpt><trkpt lat="45.50429071629071" lon="9.234291366851467"><ele>127.71428571428571</ele><time>2026-04-07T09:53:45Z</time></trkpt><trkpt lat="45.50427330199238" lon="9.234198411133809"><ele>127.42857142857142</ele><time>2026-04-07T09:53:46Z</time></trkpt><trkpt lat="45.50425208603951" lon="9.234107108451283"><ele>127.14285714285714</ele><time>2026-04-07T09:53:47Z</time></trkpt><trkpt lat="45.50422998491883" lon="9.234016484204579"><ele>126.85714285714286</ele><time>2026-04-07T09:53:48Z</time></trkpt><trkpt lat="45.50421032322532" lon="9.233923433932208"><ele>126.57142857142857</ele><time>2026-04-07T09:53:49Z</time></trkpt><trkpt lat="45.504192262683276" lon="9.233829949655298"><ele>126.28571428571428</ele><time>2026-04-07T09:53:50Z</time></trkpt><trkpt lat="45.50417516770528" lon="9.233734515416526"><ele>126.0</ele><time>2026-04-07T09:53:51Z</time></trkpt><trkpt lat="45.50415869725042" lon="9.23363842958999"><ele>126.0</ele><time>2026-04-07T09:53:52Z</time></trkpt><trkpt lat="45.50414695535399" lon="9.23354157786873"><ele>126.0</ele><time>2026-04-07T09:53:53Z</time></trkpt><trkpt lat="45.50413277716236" lon="9.233442518898013"><ele>126.0</ele><time>2026-04-07T09:53:54.001Z</time></trkpt><trkpt lat="45.504120475295956" lon="9.233340203451815"><ele>126.0</ele><time>2026-04-07T09:53:55.001Z</time></trkpt><trkpt lat="45.504106424256825" lon="9.233239628830265"><ele>126.0</ele><time>2026-04-07T09:53:56.001Z</time></trkpt><trkpt lat="45.50409200583546" lon="9.233140252074666"><ele>126.0</ele><time>2026-04-07T09:53:57.001Z</time></trkpt><trkpt lat="45.504080867289034" lon="9.233038804666194"><ele>126.0</ele><time>2026-04-07T09:53:58.001Z</time></trkpt><trkpt lat="45.504069877737166" lon="9.232938455147327"><ele>126.85714285714286</ele><time>2026-04-07T09:53:59.001Z</time></trkpt><trkpt lat="45.50405879051038" lon="9.232836771550412"><ele>127.71428571428572</ele><time>2026-04-07T09:54:00.001Z</time></trkpt><trkpt lat="45.50405185884432" lon="9.232732389878494"><ele>128.57142857142856</ele><time>2026-04-07T09:54:01.001Z</time></trkpt><trkpt lat="45.50404512091991" lon="9.232635016777548"><ele>129.42857142857144</ele><time>2026-04-07T09:54:02.001Z</time></trkpt><trkpt lat="45.5040375977816" lon="9.232539416658163"><ele>130.28571428571428</ele><time>2026-04-07T09:54:03.001Z</time></trkpt><trkpt lat="45.5040343378265" lon="9.232448590667337"><ele>131.14285714285714</ele><time>2026-04-07T09:54:04.001Z</time></trkpt><trkpt lat="45.504029766360546" lon="9.232356083581946"><ele>132.0</ele><time>2026-04-07T09:54:05.001Z</time></trkpt><trkpt lat="45.50402701553254" lon="9.232186074007096"><ele>132.0</ele><time>2026-04-07T09:54:07.001Z</time></trkpt><trkpt lat="45.50401599696809" lon="9.232045421385003"><ele>132.0</ele><time>2026-04-07T09:54:09.001Z</time></trkpt><trkpt lat="45.503975405272264" lon="9.23190269974732"><ele>132.0</ele><time>2026-04-07T09:54:11.001Z</time></trkpt><trkpt lat="45.50394243740773" lon="9.23176876329204"><ele>132.0</ele><time>2026-04-07T09:54:13.001Z</time></trkpt><trkpt lat="45.50393402024796" lon="9.231623869156472"><ele>132.0</ele><time>2026-04-07T09:54:15.001Z</time></trkpt><trkpt lat="45.50391736201097" lon="9.231477968393747"><ele>130.75</ele><time>2026-04-07T09:54:17.001Z</time></trkpt><trkpt lat="45.503902317267595" lon="9.231318502989314"><ele>129.5</ele><time>2026-04-07T09:54:19.001Z</time></trkpt><trkpt lat="45.50387940471143" lon="9.231147776490834"><ele>128.25</ele><time>2026-04-07T09:54:21.001Z</time></trkpt><trkpt lat="45.50385850317784" lon="9.230973249633106"><ele>127.0</ele><time>2026-04-07T09:54:23.001Z</time></trkpt><trkpt lat="45.503836311532645" lon="9.230794418340553"><ele>127.0</ele><time>2026-04-07T09:54:25.001Z</time></trkpt><trkpt lat="45.50382532322115" lon="9.230703183778438"><ele>127.0</ele><time>2026-04-07T09:54:26.001Z</time></trkpt><trkpt lat="45.503813527642315" lon="9.230610281413266"><ele>127.0</ele><time>2026-04-07T09:54:27.001Z</time></trkpt><trkpt lat="45.503799169419715" lon="9.230520782560443"><ele>127.0</ele><time>2026-04-07T09:54:28.001Z</time></trkpt><trkpt lat="45.503783850577356" lon="9.230431465623825"><ele>127.0</ele><time>2026-04-07T09:54:29.001Z</time></trkpt><trkpt lat="45.50375235065071" lon="9.230258921800113"><ele>127.0</ele><time>2026-04-07T09:54:31.001Z</time></trkpt><trkpt lat="45.503737120049394" lon="9.230170586609708"><ele>127.0</ele><time>2026-04-07T09:54:32.001Z</time></trkpt><trkpt lat="45.50371943723179" lon="9.230081612473697"><ele>127.16666666666667</ele><time>2026-04-07T09:54:33.001Z</time></trkpt><trkpt lat="45.50370208910527" lon="9.22999318424357"><ele>127.33333333333334</ele><time>2026-04-07T09:54:34.001Z</time></trkpt><trkpt lat="45.50366389246418" lon="9.229820670747893"><ele>127.5</ele><time>2026-04-07T09:54:36.001Z</time></trkpt><trkpt lat="45.50364757344927" lon="9.229729930196264"><ele>127.66666666666666</ele><time>2026-04-07T09:54:37.001Z</time></trkpt><trkpt lat="45.50363127629648" lon="9.229640062046991"><ele>127.83333333333333</ele><time>2026-04-07T09:54:38.001Z</time></trkpt><trkpt lat="45.503603124095186" lon="9.229475285562641"><ele>128.0</ele><time>2026-04-07T09:54:40.001Z</time></trkpt><trkpt lat="45.50357745955714" lon="9.229324898318161"><ele>128.4</ele><time>2026-04-07T09:54:42.001Z</time></trkpt><trkpt lat="45.50355211729869" lon="9.229179857640876"><ele>128.8</ele><time>2026-04-07T09:54:44.001Z</time></trkpt><trkpt lat="45.50352267354972" lon="9.229040291155943"><ele>129.2</ele><time>2026-04-07T09:54:46.001Z</time></trkpt><trkpt lat="45.503493830707576" lon="9.228898340158155"><ele>129.6</ele><time>2026-04-07T09:54:48.001Z</time></trkpt><trkpt lat="45.50345214708044" lon="9.228762187363099"><ele>130.0</ele><time>2026-04-07T09:54:50.001Z</time></trkpt><trkpt lat="45.50342237524989" lon="9.228625968107043"><ele>130.0</ele><time>2026-04-07T09:54:52.001Z</time></trkpt><trkpt lat="45.50340099989171" lon="9.228507821485652"><ele>130.0</ele><time>2026-04-07T09:54:54.001Z</time></trkpt><trkpt lat="45.50338692105864" lon="9.228394762723047"><ele>130.0</ele><time>2026-04-07T09:54:56.001Z</time></trkpt><trkpt lat="45.50338916364627" lon="9.228279719583933"><ele>130.0</ele><time>2026-04-07T09:54:58.001Z</time></trkpt><trkpt lat="45.50315659073004" lon="9.228143264551854"><ele>130.0</ele><time>2026-04-07T09:54:59.001Z</time></trkpt><trkpt lat="45.503197351382816" lon="9.228023703886969"><ele>130.0</ele><time>2026-04-07T09:55:02.001Z</time></trkpt><trkpt lat="45.50320607084609" lon="9.22787442648994"><ele>130.0</ele><time>2026-04-07T09:55:04.001Z</time></trkpt><trkpt lat="45.50320686605735" lon="9.227751239666771"><ele>130.0</ele><time>2026-04-07T09:55:06.001Z</time></trkpt><trkpt lat="45.50318846140581" lon="9.227636506468516"><ele>130.0</ele><time>2026-04-07T09:55:08.001Z</time></trkpt><trkpt lat="45.50316435608624" lon="9.227485356686271"><ele>130.0</ele><time>2026-04-07T09:55:10.001Z</time></trkpt><trkpt lat="45.50314408024825" lon="9.227361642302547"><ele>130.0</ele><time>2026-04-07T09:55:12.001Z</time></trkpt><trkpt lat="45.503121480388785" lon="9.227223409035389"><ele>130.0</ele><time>2026-04-07T09:55:14Z</time></trkpt><trkpt lat="45.503099260209204" lon="9.22708749803919"><ele>130.0</ele><time>2026-04-07T09:55:16Z</time></trkpt><trkpt lat="45.503085323311325" lon="9.226940124496261"><ele>130.0</ele><time>2026-04-07T09:55:18Z</time></trkpt><trkpt lat="45.503086394350476" lon="9.226791263125731"><ele>130.0</ele><time>2026-04-07T09:55:20Z</time></trkpt><trkpt lat="45.503093240828555" lon="9.226626711936646"><ele>130.0</ele><time>2026-04-07T09:55:22Z</time></trkpt><trkpt lat="45.50310924274725" lon="9.22647843701652"><ele>130.0</ele><time>2026-04-07T09:55:24Z</time></trkpt><trkpt lat="45.503620905575254" lon="9.226243442661934"><ele>130.0</ele><time>2026-04-07T09:55:25Z</time></trkpt><trkpt lat="45.50366983738506" lon="9.226098114740001"><ele>130.0</ele><time>2026-04-07T09:55:27Z</time></trkpt><trkpt lat="45.503726854227814" lon="9.225955077289587"><ele>130.0</ele><time>2026-04-07T09:55:29Z</time></trkpt><trkpt lat="45.50378098011843" lon="9.225818793354907"><ele>130.0</ele><time>2026-04-07T09:55:31Z</time></trkpt><trkpt lat="45.50380959588472" lon="9.22570200163574"><ele>130.0</ele><time>2026-04-07T09:55:33Z</time></trkpt><trkpt lat="45.50382733984098" lon="9.225593122057957"><ele>130.6</ele><time>2026-04-07T09:55:35Z</time></trkpt><trkpt lat="45.50385783356324" lon="9.225447526391804"><ele>131.2</ele><time>2026-04-07T09:55:37Z</time></trkpt><trkpt lat="45.50393286577765" lon="9.225306857536154"><ele>131.8</ele><time>2026-04-07T09:55:39Z</time></trkpt><trkpt lat="45.50395453844222" lon="9.225222280479752"><ele>132.4</ele><time>2026-04-07T09:55:40Z</time></trkpt><trkpt lat="45.503964098128" lon="9.225130765169052"><ele>133.0</ele><time>2026-04-07T09:55:41Z</time></trkpt><trkpt lat="45.50396657289453" lon="9.224953169714658"><ele>133.0</ele><time>2026-04-07T09:55:43.001Z</time></trkpt><trkpt lat="45.50397209652642" lon="9.224779647774707"><ele>133.0</ele><time>2026-04-07T09:55:45.001Z</time></trkpt><trkpt lat="45.50397713398989" lon="9.224618970677845"><ele>133.0</ele><time>2026-04-07T09:55:47.001Z</time></trkpt><trkpt lat="45.50398817488561" lon="9.224446147494955"><ele>133.0</ele><time>2026-04-07T09:55:49.001Z</time></trkpt><trkpt lat="45.503986104029856" lon="9.224275118092981"><ele>133.0</ele><time>2026-04-07T09:55:51.001Z</time></trkpt><trkpt lat="45.50397778783394" lon="9.224128608510936"><ele>133.0</ele><time>2026-04-07T09:55:53.001Z</time></trkpt><trkpt lat="45.50397439315688" lon="9.224033089363328"><ele>133.0</ele><time>2026-04-07T09:55:55.001Z</time></trkpt><trkpt lat="45.50398905247219" lon="9.223932064332846"><ele>133.0</ele><time>2026-04-07T09:55:58.001Z</time></trkpt><trkpt lat="45.503989052474324" lon="9.223826097630175"><ele>133.0</ele><time>2026-04-07T09:56:00.001Z</time></trkpt><trkpt lat="45.5039738034541" lon="9.223678180697636"><ele>133.0</ele><time>2026-04-07T09:56:02.001Z</time></trkpt><trkpt lat="45.50395590490034" lon="9.223510029269637"><ele>132.75</ele><time>2026-04-07T09:56:04.001Z</time></trkpt><trkpt lat="45.50393674369366" lon="9.223342635046315"><ele>132.5</ele><time>2026-04-07T09:56:06.001Z</time></trkpt><trkpt lat="45.5039210161389" lon="9.223177677265188"><ele>132.25</ele><time>2026-04-07T09:56:08.001Z</time></trkpt><trkpt lat="45.50389909563316" lon="9.223022401435989"><ele>132.0</ele><time>2026-04-07T09:56:10.001Z</time></trkpt><trkpt lat="45.503873661204686" lon="9.222867696905267"><ele>132.75</ele><time>2026-04-07T09:56:12.001Z</time></trkpt><trkpt lat="45.5038398785369" lon="9.22270863127631"><ele>133.5</ele><time>2026-04-07T09:56:14.001Z</time></trkpt><trkpt lat="45.5038129309716" lon="9.222546577667613"><ele>134.25</ele><time>2026-04-07T09:56:16.001Z</time></trkpt><trkpt lat="45.50378761769786" lon="9.22238135471787"><ele>135.0</ele><time>2026-04-07T09:56:18.001Z</time></trkpt><trkpt lat="45.50376277780419" lon="9.222214065450785"><ele>134.4</ele><time>2026-04-07T09:56:20.001Z</time></trkpt><trkpt lat="45.50373967597497" lon="9.222057109713619"><ele>133.8</ele><time>2026-04-07T09:56:22.001Z</time></trkpt><trkpt lat="45.50371012935036" lon="9.22192104267516"><ele>133.2</ele><time>2026-04-07T09:56:24.001Z</time></trkpt><trkpt lat="45.50367818232737" lon="9.221791521872168"><ele>132.6</ele><time>2026-04-07T09:56:26.001Z</time></trkpt><trkpt lat="45.50366338377602" lon="9.221620338098205"><ele>132.0</ele><time>2026-04-07T09:56:28.001Z</time></trkpt><trkpt lat="45.50362718394215" lon="9.221463300092218"><ele>132.0</ele><time>2026-04-07T09:56:30.001Z</time></trkpt><trkpt lat="45.503597203060615" lon="9.221293999192312"><ele>132.0</ele><time>2026-04-07T09:56:32.001Z</time></trkpt><trkpt lat="45.50356895060911" lon="9.22112755304467"><ele>132.0</ele><time>2026-04-07T09:56:34.001Z</time></trkpt><trkpt lat="45.503537505221026" lon="9.220956622495533"><ele>132.0</ele><time>2026-04-07T09:56:36.001Z</time></trkpt><trkpt lat="45.50351828948566" lon="9.22086487038607"><ele>132.0</ele><time>2026-04-07T09:56:37.001Z</time></trkpt><trkpt lat="45.50348897796387" lon="9.22069248250089"><ele>132.16666666666666</ele><time>2026-04-07T09:56:39.001Z</time></trkpt><trkpt lat="45.50347640522485" lon="9.220603984887621"><ele>132.33333333333334</ele><time>2026-04-07T09:56:40.001Z</time></trkpt><trkpt lat="45.503462161155824" lon="9.220510692791724"><ele>132.5</ele><time>2026-04-07T09:56:41.001Z</time></trkpt><trkpt lat="45.50343673950826" lon="9.220334983538221"><ele>132.66666666666669</ele><time>2026-04-07T09:56:43.001Z</time></trkpt><trkpt lat="45.503426301213345" lon="9.220245882981844"><ele>132.83333333333334</ele><time>2026-04-07T09:56:44.001Z</time></trkpt><trkpt lat="45.50341293109992" lon="9.220155858464924"><ele>133.0</ele><time>2026-04-07T09:56:45.001Z</time></trkpt><trkpt lat="45.50339402883524" lon="9.219979006169543"><ele>132.20000000000002</ele><time>2026-04-07T09:56:47.001Z</time></trkpt><trkpt lat="45.503489271405" lon="9.219758998175863"><ele>131.4</ele><time>2026-04-07T09:56:49.001Z</time></trkpt><trkpt lat="45.5034726934179" lon="9.219672271287976"><ele>130.60000000000002</ele><time>2026-04-07T09:56:50.001Z</time></trkpt><trkpt lat="45.50344070002165" lon="9.219502069077725"><ele>129.8</ele><time>2026-04-07T09:56:52.001Z</time></trkpt><trkpt lat="45.5034173964949" lon="9.219414558371962"><ele>129.0</ele><time>2026-04-07T09:56:53.001Z</time></trkpt><trkpt lat="45.503365054709306" lon="9.219260741806975"><ele>129.0</ele><time>2026-04-07T09:56:55.001Z</time></trkpt><trkpt lat="45.50331955203042" lon="9.219140006772701"><ele>129.0</ele><time>2026-04-07T09:56:57.001Z</time></trkpt><trkpt lat="45.50326667846306" lon="9.219004021831148"><ele>129.0</ele><time>2026-04-07T09:56:59.001Z</time></trkpt><trkpt lat="45.50320904663697" lon="9.21885549205249"><ele>129.0</ele><time>2026-04-07T09:57:01.001Z</time></trkpt><trkpt lat="45.50314873407241" lon="9.218704644223646"><ele>129.0</ele><time>2026-04-07T09:57:03.002Z</time></trkpt><trkpt lat="45.503117169016754" lon="9.218625767862047"><ele>128.8</ele><time>2026-04-07T09:57:04.002Z</time></trkpt><trkpt lat="45.50305623965939" lon="9.218473883770244"><ele>128.60000000000002</ele><time>2026-04-07T09:57:06.002Z</time></trkpt><trkpt lat="45.502993669135996" lon="9.218315711250439"><ele>128.4</ele><time>2026-04-07T09:57:08.002Z</time></trkpt><trkpt lat="45.50295831727364" lon="9.218228722134562"><ele>128.20000000000002</ele><time>2026-04-07T09:57:09.002Z</time></trkpt><trkpt lat="45.50291883821989" lon="9.218136122271313"><ele>128.0</ele><time>2026-04-07T09:57:10.002Z</time></trkpt><trkpt lat="45.50287095935959" lon="9.218031133444592"><ele>128.5</ele><time>2026-04-07T09:57:11.002Z</time></trkpt><trkpt lat="45.50278556979743" lon="9.217886779380734"><ele>129.0</ele><time>2026-04-07T09:57:12.002Z</time></trkpt><trkpt lat="45.50267913766877" lon="9.217770324127146"><ele>129.5</ele><time>2026-04-07T09:57:13.002Z</time></trkpt><trkpt lat="45.5025550759505" lon="9.217685266023269"><ele>130.0</ele><time>2026-04-07T09:57:14.002Z</time></trkpt><trkpt lat="45.502492561845784" lon="9.217654850351366"><ele>130.0</ele><time>2026-04-07T09:57:15.002Z</time></trkpt><trkpt lat="45.5023815023735" lon="9.217603922145594"><ele>130.0</ele><time>2026-04-07T09:57:17.002Z</time></trkpt><trkpt lat="45.502285977232866" lon="9.21756166532329"><ele>130.0</ele><time>2026-04-07T09:57:19.002Z</time></trkpt><trkpt lat="45.50219678777024" lon="9.21752180353082"><ele>130.0</ele><time>2026-04-07T09:57:21.001Z</time></trkpt><trkpt lat="45.50209879178991" lon="9.21747749197152"><ele>130.0</ele><time>2026-04-07T09:57:23.001Z</time></trkpt><trkpt lat="45.50199991241414" lon="9.217432781032052"><ele>130.0</ele><time>2026-04-07T09:57:25.001Z</time></trkpt><trkpt lat="45.501890661163024" lon="9.217384488651165"><ele>130.0</ele><time>2026-04-07T09:57:27.001Z</time></trkpt><trkpt lat="45.50178190248909" lon="9.21733868939658"><ele>130.0</ele><time>2026-04-07T09:57:29.001Z</time></trkpt><trkpt lat="45.5016822361213" lon="9.217295613878543"><ele>130.0</ele><time>2026-04-07T09:57:31.001Z</time></trkpt><trkpt lat="45.50158386013171" lon="9.217245333802614"><ele>130.0</ele><time>2026-04-07T09:57:33.001Z</time></trkpt><trkpt lat="45.501519549410396" lon="9.217183001418263"><ele>130.0</ele><time>2026-04-07T09:57:35.001Z</time></trkpt><trkpt lat="45.50146196134481" lon="9.217108724640962"><ele>130.0</ele><time>2026-04-07T09:57:37.001Z</time></trkpt><trkpt lat="45.50121330336287" lon="9.217357863219794"><ele>130.0</ele><time>2026-04-07T09:57:39.001Z</time></trkpt><trkpt lat="45.50112801448882" lon="9.217317831470103"><ele>130.0</ele><time>2026-04-07T09:57:41.001Z</time></trkpt><trkpt lat="45.5010425038411" lon="9.217388746349858"><ele>130.0</ele><time>2026-04-07T09:57:43.001Z</time></trkpt><trkpt lat="45.50097825278737" lon="9.21722676665618"><ele>130.0</ele><time>2026-04-07T09:57:45.001Z</time></trkpt><trkpt lat="45.50091136545647" lon="9.217196171606574"><ele>130.0</ele><time>2026-04-07T09:57:47.001Z</time></trkpt><trkpt lat="45.50081567341419" lon="9.217178705636448"><ele>130.0</ele><time>2026-04-07T09:57:50.001Z</time></trkpt><trkpt lat="45.50070978096768" lon="9.217142770505493"><ele>130.0</ele><time>2026-04-07T09:57:52.001Z</time></trkpt><trkpt lat="45.500601076539276" lon="9.217089628432525"><ele>130.0</ele><time>2026-04-07T09:57:54.001Z</time></trkpt><trkpt lat="45.50048700185887" lon="9.217046418466671"><ele>130.0</ele><time>2026-04-07T09:57:56.001Z</time></trkpt><trkpt lat="45.500373128192" lon="9.216993670936013"><ele>130.0</ele><time>2026-04-07T09:57:58.001Z</time></trkpt><trkpt lat="45.50027643063697" lon="9.21692511546191"><ele>130.0</ele><time>2026-04-07T09:58:00.001Z</time></trkpt><trkpt lat="45.50018419313981" lon="9.216849604078424"><ele>130.0</ele><time>2026-04-07T09:58:02.001Z</time></trkpt><trkpt lat="45.50012956361111" lon="9.216799480372503"><ele>130.0</ele><time>2026-04-07T09:58:03.001Z</time></trkpt><trkpt lat="45.50003437644635" lon="9.216714030801468"><ele>130.0</ele><time>2026-04-07T09:58:05.001Z</time></trkpt><trkpt lat="45.499936772238804" lon="9.21660701041654"><ele>130.0</ele><time>2026-04-07T09:58:07.001Z</time></trkpt><trkpt lat="45.49973282548714" lon="9.216559132070794"><ele>129.5</ele><time>2026-04-07T09:58:09.001Z</time></trkpt><trkpt lat="45.499683218021346" lon="9.216415680632439"><ele>129.0</ele><time>2026-04-07T09:58:11.001Z</time></trkpt><trkpt lat="45.499736151042306" lon="9.21627547688455"><ele>128.5</ele><time>2026-04-07T09:58:12.001Z</time></trkpt><trkpt lat="45.49965398511388" lon="9.216139142071698"><ele>128.0</ele><time>2026-04-07T09:58:14.001Z</time></trkpt><trkpt lat="45.49956174438733" lon="9.216016437052618"><ele>127.99999999999999</ele><time>2026-04-07T09:58:16.001Z</time></trkpt><trkpt lat="45.49951392868829" lon="9.215949160283191"><ele>128.0</ele><time>2026-04-07T09:58:17.001Z</time></trkpt><trkpt lat="45.499466456788234" lon="9.21588274614584"><ele>128.0</ele><time>2026-04-07T09:58:18.001Z</time></trkpt><trkpt lat="45.499423074825714" lon="9.215809801388597"><ele>128.0</ele><time>2026-04-07T09:58:19.001Z</time></trkpt><trkpt lat="45.4993830833946" lon="9.21573463596156"><ele>127.99999999999999</ele><time>2026-04-07T09:58:20.001Z</time></trkpt><trkpt lat="45.49934465622708" lon="9.215663110244817"><ele>128.0</ele><time>2026-04-07T09:58:21.001Z</time></trkpt><trkpt lat="45.49927037634318" lon="9.21552906308874"><ele>127.80000000000001</ele><time>2026-04-07T09:58:23.001Z</time></trkpt><trkpt lat="45.49919503989242" lon="9.215389019717232"><ele>127.60000000000001</ele><time>2026-04-07T09:58:25.001Z</time></trkpt><trkpt lat="45.499135049368924" lon="9.215293577622639"><ele>127.39999999999999</ele><time>2026-04-07T09:58:27.001Z</time></trkpt><trkpt lat="45.49906054488845" lon="9.215159572617875"><ele>127.19999999999999</ele><time>2026-04-07T09:58:29.001Z</time></trkpt><trkpt lat="45.49902725105868" lon="9.215062291209403"><ele>127.0</ele><time>2026-04-07T09:58:30.001Z</time></trkpt><trkpt lat="45.49899814183848" lon="9.214967720929973"><ele>127.0</ele><time>2026-04-07T09:58:31.001Z</time></trkpt><trkpt lat="45.4989655586281" lon="9.214881091998198"><ele>127.0</ele><time>2026-04-07T09:58:32.001Z</time></trkpt><trkpt lat="45.49893515296663" lon="9.214792287892676"><ele>127.0</ele><time>2026-04-07T09:58:33.001Z</time></trkpt><trkpt lat="45.49890638339569" lon="9.214706605667741"><ele>127.0</ele><time>2026-04-07T09:58:34.001Z</time></trkpt><trkpt lat="45.4987052038974" lon="9.215031291679118"><ele>127.0</ele><time>2026-04-07T09:58:35.001Z</time></trkpt><trkpt lat="45.49862994886897" lon="9.214986039880944"><ele>127.0</ele><time>2026-04-07T09:58:37Z</time></trkpt><trkpt lat="45.49860183797208" lon="9.21486325919167"><ele>127.0</ele><time>2026-04-07T09:58:40Z</time></trkpt><trkpt lat="45.49869806229435" lon="9.213998408846264"><ele>127.85714285714286</ele><time>2026-04-07T09:58:42Z</time></trkpt><trkpt lat="45.49867350346143" lon="9.21390671569901"><ele>128.71428571428572</ele><time>2026-04-07T09:58:43Z</time></trkpt><trkpt lat="45.498653281394354" lon="9.213814246718389"><ele>129.57142857142856</ele><time>2026-04-07T09:58:44Z</time></trkpt><trkpt lat="45.49863391557873" lon="9.213714351756625"><ele>130.42857142857144</ele><time>2026-04-07T09:58:45Z</time></trkpt><trkpt lat="45.4986104814982" lon="9.2136187915489"><ele>131.28571428571428</ele><time>2026-04-07T09:58:46Z</time></trkpt><trkpt lat="45.498587462467555" lon="9.213525427047838"><ele>132.14285714285714</ele><time>2026-04-07T09:58:47Z</time></trkpt><trkpt lat="45.498567560677444" lon="9.213433283457647"><ele>133.0</ele><time>2026-04-07T09:58:48Z</time></trkpt><trkpt lat="45.49854687997922" lon="9.213340363944209"><ele>133.0</ele><time>2026-04-07T09:58:49Z</time></trkpt><trkpt lat="45.49852639627849" lon="9.213248361065709"><ele>133.0</ele><time>2026-04-07T09:58:50Z</time></trkpt><trkpt lat="45.498502210289004" lon="9.21315405507034"><ele>133.0</ele><time>2026-04-07T09:58:51Z</time></trkpt><trkpt lat="45.498478661079524" lon="9.213064644045257"><ele>133.0</ele><time>2026-04-07T09:58:52.001Z</time></trkpt><trkpt lat="45.498457601799" lon="9.212978409976204"><ele>133.0</ele><time>2026-04-07T09:58:53.001Z</time></trkpt><trkpt lat="45.49841493326574" lon="9.21282884752388"><ele>133.0</ele><time>2026-04-07T09:58:55.001Z</time></trkpt><trkpt lat="45.49837054178882" lon="9.212688601228926"><ele>132.6</ele><time>2026-04-07T09:58:57.001Z</time></trkpt><trkpt lat="45.498328690743854" lon="9.212565099451135"><ele>132.20000000000002</ele><time>2026-04-07T09:58:59.001Z</time></trkpt><trkpt lat="45.4982924323329" lon="9.21246052604812"><ele>131.8</ele><time>2026-04-07T09:59:01.001Z</time></trkpt><trkpt lat="45.49825331390468" lon="9.212349186653675"><ele>131.4</ele><time>2026-04-07T09:59:03.001Z</time></trkpt><trkpt lat="45.498212023711446" lon="9.212219487399768"><ele>131.0</ele><time>2026-04-07T09:59:05.001Z</time></trkpt><trkpt lat="45.49816602005422" lon="9.212079112029512"><ele>130.66666666666666</ele><time>2026-04-07T09:59:07.001Z</time></trkpt><trkpt lat="45.49811144608624" lon="9.211944130400225"><ele>130.33333333333334</ele><time>2026-04-07T09:59:09.001Z</time></trkpt><trkpt lat="45.498070351620804" lon="9.211798099762841"><ele>130.0</ele><time>2026-04-07T09:59:11.001Z</time></trkpt><trkpt lat="45.49832735856706" lon="9.211511065356248"><ele>130.2</ele><time>2026-04-07T09:59:13.001Z</time></trkpt><trkpt lat="45.49829178513324" lon="9.211361049300145"><ele>130.4</ele><time>2026-04-07T09:59:15.001Z</time></trkpt><trkpt lat="45.49825833605018" lon="9.21121211226013"><ele>130.6</ele><time>2026-04-07T09:59:17.001Z</time></trkpt><trkpt lat="45.4982308478289" lon="9.211065276432127"><ele>130.8</ele><time>2026-04-07T09:59:19.001Z</time></trkpt><trkpt lat="45.498208553939236" lon="9.210920560590797"><ele>131.0</ele><time>2026-04-07T09:59:21.001Z</time></trkpt><trkpt lat="45.49818502915525" lon="9.210773092028415"><ele>131.8</ele><time>2026-04-07T09:59:23.001Z</time></trkpt><trkpt lat="45.49816029114023" lon="9.210621589004523"><ele>132.6</ele><time>2026-04-07T09:59:25.001Z</time></trkpt><trkpt lat="45.498144078407336" lon="9.210531438621539"><ele>133.4</ele><time>2026-04-07T09:59:26Z</time></trkpt><trkpt lat="45.49812791120777" lon="9.210442453293354"><ele>134.2</ele><time>2026-04-07T09:59:27Z</time></trkpt><trkpt lat="45.49809777176975" lon="9.210283291810327"><ele>135.0</ele><time>2026-04-07T09:59:29Z</time></trkpt><trkpt lat="45.49806856413594" lon="9.210127665476882"><ele>135.0</ele><time>2026-04-07T09:59:31Z</time></trkpt><trkpt lat="45.498040502242745" lon="9.209966645878083"><ele>135.0</ele><time>2026-04-07T09:59:33Z</time></trkpt><trkpt lat="45.49801250821391" lon="9.209806015631976"><ele>135.0</ele><time>2026-04-07T09:59:35Z</time></trkpt><trkpt lat="45.49798560836235" lon="9.20965166364862"><ele>135.0</ele><time>2026-04-07T09:59:37Z</time></trkpt><trkpt lat="45.49795871963955" lon="9.20949737056755"><ele>134.0</ele><time>2026-04-07T09:59:39Z</time></trkpt><trkpt lat="45.49793019425872" lon="9.2093336860402"><ele>133.0</ele><time>2026-04-07T09:59:41Z</time></trkpt><trkpt lat="45.49763794390235" lon="9.209349919863968"><ele>132.0</ele><time>2026-04-07T09:59:42Z</time></trkpt><trkpt lat="45.49758480934023" lon="9.209196420290878"><ele>131.25</ele><time>2026-04-07T09:59:44Z</time></trkpt><trkpt lat="45.497531417667105" lon="9.209040061731027"><ele>130.5</ele><time>2026-04-07T09:59:46Z</time></trkpt><trkpt lat="45.49747205488762" lon="9.208888055438242"><ele>129.75</ele><time>2026-04-07T09:59:48Z</time></trkpt><trkpt lat="45.49741055820289" lon="9.208753530720028"><ele>129.0</ele><time>2026-04-07T09:59:50Z</time></trkpt><trkpt lat="45.49733088072527" lon="9.208657288578157"><ele>129.16666666666666</ele><time>2026-04-07T09:59:52Z</time></trkpt><trkpt lat="45.49724026847392" lon="9.208594478694094"><ele>129.33333333333334</ele><time>2026-04-07T09:59:54Z</time></trkpt><trkpt lat="45.49716863613976" lon="9.20851106622872"><ele>129.5</ele><time>2026-04-07T09:59:56Z</time></trkpt><trkpt lat="45.49710946411753" lon="9.208427712275512"><ele>129.66666666666669</ele><time>2026-04-07T09:59:58Z</time></trkpt><trkpt lat="45.497044633362506" lon="9.208364215775493"><ele>129.83333333333334</ele><time>2026-04-07T10:00:00Z</time></trkpt><trkpt lat="45.496990221986955" lon="9.208291244770889"><ele>130.0</ele><time>2026-04-07T10:00:02Z</time></trkpt><trkpt lat="45.49690745787271" lon="9.208263061562016"><ele>130.0</ele><time>2026-04-07T10:00:04Z</time></trkpt><trkpt lat="45.49681345740391" lon="9.20824523525877"><ele>130.0</ele><time>2026-04-07T10:00:06Z</time></trkpt><trkpt lat="45.49670905713833" lon="9.208208467760167"><ele>130.0</ele><time>2026-04-07T10:00:08Z</time></trkpt><trkpt lat="45.496595389770235" lon="9.208177718237065"><ele>130.0</ele><time>2026-04-07T10:00:10Z</time></trkpt><trkpt lat="45.496570896685625" lon="9.207957714808131"><ele>129.8</ele><time>2026-04-07T10:00:11Z</time></trkpt><trkpt lat="45.496459509698454" lon="9.207919360810832"><ele>129.6</ele><time>2026-04-07T10:00:13Z</time></trkpt><trkpt lat="45.496340695327724" lon="9.207869871216905"><ele>129.4</ele><time>2026-04-07T10:00:15Z</time></trkpt><trkpt lat="45.49622140684347" lon="9.20782905309536"><ele>129.2</ele><time>2026-04-07T10:00:17Z</time></trkpt><trkpt lat="45.496158078447486" lon="9.207807383449238"><ele>129.0</ele><time>2026-04-07T10:00:18Z</time></trkpt><trkpt lat="45.49609549981683" lon="9.207785970336364"><ele>129.0</ele><time>2026-04-07T10:00:19Z</time></trkpt><trkpt lat="45.49597844594378" lon="9.20774103150526"><ele>129.0</ele><time>2026-04-07T10:00:21Z</time></trkpt><trkpt lat="45.4958777714249" lon="9.20770124057965"><ele>129.0</ele><time>2026-04-07T10:00:23Z</time></trkpt><trkpt lat="45.49571687384446" lon="9.2081382672604"><ele>129.0</ele><time>2026-04-07T10:00:26Z</time></trkpt><trkpt lat="45.495658519418285" lon="9.208174982996256"><ele>129.0</ele><time>2026-04-07T10:00:27Z</time></trkpt><trkpt lat="45.49560062762083" lon="9.208233083668482"><ele>129.0</ele><time>2026-04-07T10:00:28Z</time></trkpt><trkpt lat="45.49555485597458" lon="9.208324493865131"><ele>129.0</ele><time>2026-04-07T10:00:29Z</time></trkpt><trkpt lat="45.49551138258536" lon="9.208413744842574"><ele>129.0</ele><time>2026-04-07T10:00:30Z</time></trkpt><trkpt lat="45.4954572134283" lon="9.208516127626206"><ele>129.0</ele><time>2026-04-07T10:00:31Z</time></trkpt><trkpt lat="45.49540512962748" lon="9.20861831477323"><ele>129.33333333333334</ele><time>2026-04-07T10:00:32Z</time></trkpt><trkpt lat="45.49535120478749" lon="9.208720173842627"><ele>129.66666666666666</ele><time>2026-04-07T10:00:33Z</time></trkpt><trkpt lat="45.49530228647206" lon="9.208815223625166"><ele>130.0</ele><time>2026-04-07T10:00:34Z</time></trkpt><trkpt lat="45.495252647412144" lon="9.208911599543482"><ele>130.33333333333331</ele><time>2026-04-07T10:00:35Z</time></trkpt><trkpt lat="45.495203333462484" lon="9.20900391565079"><ele>130.66666666666666</ele><time>2026-04-07T10:00:36Z</time></trkpt><trkpt lat="45.49515556885799" lon="9.209095000545647"><ele>131.0</ele><time>2026-04-07T10:00:37Z</time></trkpt><trkpt lat="45.49511545903179" lon="9.209182758404053"><ele>131.0</ele><time>2026-04-07T10:00:38Z</time></trkpt><trkpt lat="45.4950788781769" lon="9.209255851252252"><ele>131.0</ele><time>2026-04-07T10:00:39Z</time></trkpt><trkpt lat="45.495020176428156" lon="9.20933819530443"><ele>131.0</ele><time>2026-04-07T10:00:41Z</time></trkpt><trkpt lat="45.494796525139705" lon="9.20916863632243"><ele>131.0</ele><time>2026-04-07T10:00:46.001Z</time></trkpt><trkpt lat="45.49471183657959" lon="9.209075372498871"><ele>131.0</ele><time>2026-04-07T10:00:48.001Z</time></trkpt><trkpt lat="45.49462401708439" lon="9.208975352029968"><ele>131.0</ele><time>2026-04-07T10:00:50.001Z</time></trkpt><trkpt lat="45.49456900228045" lon="9.208929733443417"><ele>131.0</ele><time>2026-04-07T10:00:51.001Z</time></trkpt><trkpt lat="45.49446807592851" lon="9.208836612554963"><ele>131.0</ele><time>2026-04-07T10:00:53.001Z</time></trkpt><trkpt lat="45.494414686776956" lon="9.208787461624754"><ele>131.0</ele><time>2026-04-07T10:00:54.001Z</time></trkpt><trkpt lat="45.49436275922409" lon="9.208731534618709"><ele>131.0</ele><time>2026-04-07T10:00:55.001Z</time></trkpt><trkpt lat="45.49430484939637" lon="9.208678416251962"><ele>131.0</ele><time>2026-04-07T10:00:56.001Z</time></trkpt><trkpt lat="45.49424635598749" lon="9.208623504169934"><ele>131.0</ele><time>2026-04-07T10:00:57.001Z</time></trkpt><trkpt lat="45.494143636833286" lon="9.208527361176856"><ele>131.0</ele><time>2026-04-07T10:00:59.001Z</time></trkpt><trkpt lat="45.49408598517801" lon="9.20847518094975"><ele>131.0</ele><time>2026-04-07T10:01:00.001Z</time></trkpt><trkpt lat="45.493988237167656" lon="9.208368518599638"><ele>131.0</ele><time>2026-04-07T10:01:02.001Z</time></trkpt><trkpt lat="45.49388128779831" lon="9.20827882344588"><ele>131.0</ele><time>2026-04-07T10:01:04.001Z</time></trkpt><trkpt lat="45.49378979531364" lon="9.208191337769778"><ele>131.0</ele><time>2026-04-07T10:01:06.001Z</time></trkpt><trkpt lat="45.49370520095531" lon="9.208105902129093"><ele>131.0</ele><time>2026-04-07T10:01:08.001Z</time></trkpt><trkpt lat="45.49362615961883" lon="9.208037552175716"><ele>131.0</ele><time>2026-04-07T10:01:10.001Z</time></trkpt><trkpt lat="45.49355301553902" lon="9.207953273582449"><ele>131.0</ele><time>2026-04-07T10:01:12.001Z</time></trkpt><trkpt lat="45.49345268427529" lon="9.207905734779867"><ele>131.16666666666666</ele><time>2026-04-07T10:01:14.001Z</time></trkpt><trkpt lat="45.4933394534994" lon="9.207839293798576"><ele>131.33333333333331</ele><time>2026-04-07T10:01:16.001Z</time></trkpt><trkpt lat="45.49327997465068" lon="9.207802678173287"><ele>131.5</ele><time>2026-04-07T10:01:17.001Z</time></trkpt><trkpt lat="45.49321427721062" lon="9.207771952252504"><ele>131.66666666666666</ele><time>2026-04-07T10:01:18.001Z</time></trkpt><trkpt lat="45.493152134050945" lon="9.207742754859785"><ele>131.83333333333334</ele><time>2026-04-07T10:01:19.001Z</time></trkpt><trkpt lat="45.49304067477448" lon="9.207678252160607"><ele>132.0</ele><time>2026-04-07T10:01:21.001Z</time></trkpt><trkpt lat="45.49292240413847" lon="9.207644236039005"><ele>132.0</ele><time>2026-04-07T10:01:23.001Z</time></trkpt><trkpt lat="45.49287597121214" lon="9.20757473878755"><ele>132.0</ele><time>2026-04-07T10:01:24.001Z</time></trkpt><trkpt lat="45.492821434108784" lon="9.207523630714206"><ele>132.0</ele><time>2026-04-07T10:01:25.001Z</time></trkpt><trkpt lat="45.492762367873304" lon="9.207479337004207"><ele>132.0</ele><time>2026-04-07T10:01:26.001Z</time></trkpt><trkpt lat="45.492655281499324" lon="9.207413298994988"><ele>132.0</ele><time>2026-04-07T10:01:28.001Z</time></trkpt><trkpt lat="45.49256318446348" lon="9.207335733052588"><ele>132.0</ele><time>2026-04-07T10:01:30.001Z</time></trkpt><trkpt lat="45.49251889943823" lon="9.207213557502198"><ele>132.0</ele><time>2026-04-07T10:01:32Z</time></trkpt><trkpt lat="45.492552687546095" lon="9.207091553812159"><ele>132.0</ele><time>2026-04-07T10:01:34Z</time></trkpt><trkpt lat="45.49257795054944" lon="9.206979274187248"><ele>132.0</ele><time>2026-04-07T10:01:36Z</time></trkpt><trkpt lat="45.49261747660688" lon="9.206905014724624"><ele>132.0</ele><time>2026-04-07T10:01:38Z</time></trkpt></trkseg></trk></gpx>